<?xml version='1.0' encoding='UTF-8'?><gpx version="1.1" creator="JPX - https://github.com/jenetics/jpx" xmlns="http://www.topografix.com/GPX/1/1"><trk><trkseg><trkpt lat="43.7011576" lon="11.1639621"><ele>243.0</ele><time>2026-04-25T08:50:47.192Z</time></trkpt><trkpt lat="43.7011083" lon="11.16402"><ele>243.0</ele><time>2026-04-25T08:54:30.724Z</time></trkpt><trkpt lat="43.7010217" lon="11.1639967"><ele>243.0</ele><time>2026-04-25T08:55:54.724Z</time></trkpt><trkpt lat="43.7009533" lon="11.1639467"><ele>243.0</ele><time>2026-04-25T08:55:57.724Z</time></trkpt><trkpt lat="43.7009117" lon="11.1638433"><ele>243.0</ele><time>2026-04-25T08:56:01.725Z</time></trkpt><trkpt lat="43.7009133" lon="11.163755"><ele>243.0</ele><time>2026-04-25T08:56:03.725Z</time></trkpt><trkpt lat="43.7009283" lon="11.163645"><ele>243.0</ele><time>2026-04-25T08:56:05.724Z</time></trkpt><trkpt lat="43.7009633" lon="11.1635517"><ele>243.0</ele><time>2026-04-25T08:56:07.723Z</time></trkpt><trkpt lat="43.7010083" lon="11.1634733"><ele>243.0</ele><time>2026-04-25T08:56:09.724Z</time></trkpt><trkpt lat="43.7010667" lon="11.1634217"><ele>243.0</ele><time>2026-04-25T08:56:11.723Z</time></trkpt><trkpt lat="43.70116" lon="11.163405"><ele>243.0</ele><time>2026-04-25T08:56:13.723Z</time></trkpt><trkpt lat="43.7012417" lon="11.16346"><ele>243.0</ele><time>2026-04-25T08:56:14.725Z</time></trkpt><trkpt lat="43.70132" lon="11.1635333"><ele>243.0</ele><time>2026-04-25T08:56:15.724Z</time></trkpt><trkpt lat="43.7013983" lon="11.16363"><ele>243.0</ele><time>2026-04-25T08:56:16.724Z</time></trkpt><trkpt lat="43.7014783" lon="11.163735"><ele>243.0</ele><time>2026-04-25T08:56:17.725Z</time></trkpt><trkpt lat="43.701555" lon="11.163845"><ele>243.0</ele><time>2026-04-25T08:56:18.726Z</time></trkpt><trkpt lat="43.7016317" lon="11.1639617"><ele>243.0</ele><time>2026-04-25T08:56:19.725Z</time></trkpt><trkpt lat="43.7017117" lon="11.1640833"><ele>243.25</ele><time>2026-04-25T08:56:20.724Z</time></trkpt><trkpt lat="43.70179" lon="11.1641983"><ele>243.5</ele><time>2026-04-25T08:56:21.724Z</time></trkpt><trkpt lat="43.70187" lon="11.1643133"><ele>243.75</ele><time>2026-04-25T08:56:22.724Z</time></trkpt><trkpt lat="43.7019533" lon="11.16443"><ele>244.0</ele><time>2026-04-25T08:56:23.724Z</time></trkpt><trkpt lat="43.7020367" lon="11.1645533"><ele>243.5</ele><time>2026-04-25T08:56:24.724Z</time></trkpt><trkpt lat="43.7021367" lon="11.1646917"><ele>243.0</ele><time>2026-04-25T08:56:25.724Z</time></trkpt><trkpt lat="43.7022317" lon="11.1648317"><ele>242.5</ele><time>2026-04-25T08:56:26.723Z</time></trkpt><trkpt lat="43.7023117" lon="11.1649617"><ele>242.0</ele><time>2026-04-25T08:56:27.724Z</time></trkpt><trkpt lat="43.7024033" lon="11.1650883"><ele>243.0</ele><time>2026-04-25T08:56:28.723Z</time></trkpt><trkpt lat="43.702475" lon="11.16523"><ele>244.0</ele><time>2026-04-25T08:56:29.723Z</time></trkpt><trkpt lat="43.702535" lon="11.1653733"><ele>245.0</ele><time>2026-04-25T08:56:30.725Z</time></trkpt><trkpt lat="43.7025883" lon="11.16552"><ele>246.0</ele><time>2026-04-25T08:56:31.725Z</time></trkpt><trkpt lat="43.7026367" lon="11.165665"><ele>246.5</ele><time>2026-04-25T08:56:32.725Z</time></trkpt><trkpt lat="43.7026833" lon="11.1658133"><ele>247.0</ele><time>2026-04-25T08:56:33.726Z</time></trkpt><trkpt lat="43.7027333" lon="11.165965"><ele>247.5</ele><time>2026-04-25T08:56:34.724Z</time></trkpt><trkpt lat="43.7027883" lon="11.1661283"><ele>248.0</ele><time>2026-04-25T08:56:35.725Z</time></trkpt><trkpt lat="43.7028383" lon="11.1662867"><ele>248.25</ele><time>2026-04-25T08:56:36.726Z</time></trkpt><trkpt lat="43.7029033" lon="11.16644"><ele>248.5</ele><time>2026-04-25T08:56:37.724Z</time></trkpt><trkpt lat="43.7029783" lon="11.166585"><ele>248.75</ele><time>2026-04-25T08:56:38.725Z</time></trkpt><trkpt lat="43.7030683" lon="11.16673"><ele>249.0</ele><time>2026-04-25T08:56:39.725Z</time></trkpt><trkpt lat="43.703165" lon="11.16687"><ele>250.75</ele><time>2026-04-25T08:56:40.724Z</time></trkpt><trkpt lat="43.7032683" lon="11.1669867"><ele>252.5</ele><time>2026-04-25T08:56:41.724Z</time></trkpt><trkpt lat="43.7033733" lon="11.16711"><ele>254.25</ele><time>2026-04-25T08:56:42.723Z</time></trkpt><trkpt lat="43.7034733" lon="11.1672267"><ele>256.0</ele><time>2026-04-25T08:56:43.724Z</time></trkpt><trkpt lat="43.70358" lon="11.1673217"><ele>257.25</ele><time>2026-04-25T08:56:44.725Z</time></trkpt><trkpt lat="43.7036967" lon="11.1674067"><ele>258.5</ele><time>2026-04-25T08:56:45.725Z</time></trkpt><trkpt lat="43.7038117" lon="11.1674667"><ele>259.75</ele><time>2026-04-25T08:56:46.724Z</time></trkpt><trkpt lat="43.7039317" lon="11.16753"><ele>261.0</ele><time>2026-04-25T08:56:47.723Z</time></trkpt><trkpt lat="43.7040617" lon="11.1676"><ele>261.0</ele><time>2026-04-25T08:56:48.724Z</time></trkpt><trkpt lat="43.704195" lon="11.167665"><ele>261.0</ele><time>2026-04-25T08:56:49.725Z</time></trkpt><trkpt lat="43.7043317" lon="11.16775"><ele>261.0</ele><time>2026-04-25T08:56:50.725Z</time></trkpt><trkpt lat="43.7044683" lon="11.167835"><ele>261.0</ele><time>2026-04-25T08:56:51.724Z</time></trkpt><trkpt lat="43.7046017" lon="11.1679283"><ele>261.25</ele><time>2026-04-25T08:56:52.724Z</time></trkpt><trkpt lat="43.7047283" lon="11.1680283"><ele>261.5</ele><time>2026-04-25T08:56:53.725Z</time></trkpt><trkpt lat="43.70485" lon="11.16812"><ele>261.75</ele><time>2026-04-25T08:56:54.725Z</time></trkpt><trkpt lat="43.7049683" lon="11.1682083"><ele>262.0</ele><time>2026-04-25T08:56:55.724Z</time></trkpt><trkpt lat="43.70509" lon="11.1682867"><ele>262.5</ele><time>2026-04-25T08:56:56.725Z</time></trkpt><trkpt lat="43.70521" lon="11.16836"><ele>263.0</ele><time>2026-04-25T08:56:57.725Z</time></trkpt><trkpt lat="43.7053317" lon="11.16843"><ele>263.5</ele><time>2026-04-25T08:56:58.724Z</time></trkpt><trkpt lat="43.705455" lon="11.1684917"><ele>264.0</ele><time>2026-04-25T08:56:59.724Z</time></trkpt><trkpt lat="43.7055817" lon="11.1685417"><ele>265.0</ele><time>2026-04-25T08:57:00.725Z</time></trkpt><trkpt lat="43.705715" lon="11.168585"><ele>266.0</ele><time>2026-04-25T08:57:01.725Z</time></trkpt><trkpt lat="43.7058483" lon="11.1686017"><ele>267.0</ele><time>2026-04-25T08:57:02.724Z</time></trkpt><trkpt lat="43.7059933" lon="11.1686017"><ele>268.0</ele><time>2026-04-25T08:57:03.724Z</time></trkpt><trkpt lat="43.7061333" lon="11.16859"><ele>269.75</ele><time>2026-04-25T08:57:04.725Z</time></trkpt><trkpt lat="43.7062783" lon="11.1685783"><ele>271.5</ele><time>2026-04-25T08:57:05.725Z</time></trkpt><trkpt lat="43.7064167" lon="11.1685617"><ele>273.25</ele><time>2026-04-25T08:57:06.724Z</time></trkpt><trkpt lat="43.70655" lon="11.16857"><ele>275.0</ele><time>2026-04-25T08:57:07.724Z</time></trkpt><trkpt lat="43.7066783" lon="11.1686017"><ele>275.0</ele><time>2026-04-25T08:57:08.724Z</time></trkpt><trkpt lat="43.7068033" lon="11.1686617"><ele>275.0</ele><time>2026-04-25T08:57:09.725Z</time></trkpt><trkpt lat="43.7069267" lon="11.1687233"><ele>275.0</ele><time>2026-04-25T08:57:10.723Z</time></trkpt><trkpt lat="43.7070517" lon="11.1687917"><ele>275.0</ele><time>2026-04-25T08:57:11.726Z</time></trkpt><trkpt lat="43.7071717" lon="11.1688733"><ele>275.0</ele><time>2026-04-25T08:57:12.725Z</time></trkpt><trkpt lat="43.7072817" lon="11.1689717"><ele>275.0</ele><time>2026-04-25T08:57:13.725Z</time></trkpt><trkpt lat="43.7073833" lon="11.1690917"><ele>275.0</ele><time>2026-04-25T08:57:14.725Z</time></trkpt><trkpt lat="43.7074683" lon="11.16923"><ele>275.0</ele><time>2026-04-25T08:57:15.724Z</time></trkpt><trkpt lat="43.7075367" lon="11.1693867"><ele>275.5</ele><time>2026-04-25T08:57:16.724Z</time></trkpt><trkpt lat="43.7076033" lon="11.1695517"><ele>276.0</ele><time>2026-04-25T08:57:17.726Z</time></trkpt><trkpt lat="43.707665" lon="11.1697233"><ele>276.5</ele><time>2026-04-25T08:57:18.725Z</time></trkpt><trkpt lat="43.7077133" lon="11.169915"><ele>277.0</ele><time>2026-04-25T08:57:19.724Z</time></trkpt><trkpt lat="43.707765" lon="11.17012"><ele>278.66666666666663</ele><time>2026-04-25T08:57:20.724Z</time></trkpt><trkpt lat="43.7078" lon="11.1703233"><ele>280.3333333333333</ele><time>2026-04-25T08:57:21.724Z</time></trkpt><trkpt lat="43.70784" lon="11.1705333"><ele>282.0</ele><time>2026-04-25T08:57:22.725Z</time></trkpt><trkpt lat="43.7078783" lon="11.1707367"><ele>285.3333333333333</ele><time>2026-04-25T08:57:23.725Z</time></trkpt><trkpt lat="43.70792" lon="11.170965"><ele>288.66666666666663</ele><time>2026-04-25T08:57:24.726Z</time></trkpt><trkpt lat="43.7079583" lon="11.1711817"><ele>292.0</ele><time>2026-04-25T08:57:25.725Z</time></trkpt><trkpt lat="43.707995" lon="11.1713717"><ele>293.75</ele><time>2026-04-25T08:57:26.725Z</time></trkpt><trkpt lat="43.70804" lon="11.1715533"><ele>295.5</ele><time>2026-04-25T08:57:27.724Z</time></trkpt><trkpt lat="43.7080833" lon="11.1717167"><ele>297.25</ele><time>2026-04-25T08:57:28.724Z</time></trkpt><trkpt lat="43.7081383" lon="11.1718767"><ele>299.0</ele><time>2026-04-25T08:57:29.725Z</time></trkpt><trkpt lat="43.7081933" lon="11.172035"><ele>299.0</ele><time>2026-04-25T08:57:30.726Z</time></trkpt><trkpt lat="43.70824" lon="11.17218"><ele>299.0</ele><time>2026-04-25T08:57:31.725Z</time></trkpt><trkpt lat="43.7082733" lon="11.17233"><ele>299.0</ele><time>2026-04-25T08:57:32.725Z</time></trkpt><trkpt lat="43.708305" lon="11.17249"><ele>299.0</ele><time>2026-04-25T08:57:33.724Z</time></trkpt><trkpt lat="43.7083317" lon="11.1726667"><ele>299.25</ele><time>2026-04-25T08:57:34.724Z</time></trkpt><trkpt lat="43.7083483" lon="11.1728583"><ele>299.5</ele><time>2026-04-25T08:57:35.723Z</time></trkpt><trkpt lat="43.7083733" lon="11.1730533"><ele>299.75</ele><time>2026-04-25T08:57:36.725Z</time></trkpt><trkpt lat="43.7084" lon="11.1732417"><ele>300.0</ele><time>2026-04-25T08:57:37.724Z</time></trkpt><trkpt lat="43.7084183" lon="11.1734367"><ele>298.0</ele><time>2026-04-25T08:57:38.724Z</time></trkpt><trkpt lat="43.7084367" lon="11.1736417"><ele>296.0</ele><time>2026-04-25T08:57:39.724Z</time></trkpt><trkpt lat="43.708455" lon="11.1738417"><ele>294.0</ele><time>2026-04-25T08:57:40.724Z</time></trkpt><trkpt lat="43.7084767" lon="11.174055"><ele>291.75</ele><time>2026-04-25T08:57:41.723Z</time></trkpt><trkpt lat="43.7084933" lon="11.174255"><ele>289.5</ele><time>2026-04-25T08:57:42.724Z</time></trkpt><trkpt lat="43.7085133" lon="11.17446"><ele>287.25</ele><time>2026-04-25T08:57:43.725Z</time></trkpt><trkpt lat="43.70853" lon="11.1746467"><ele>285.0</ele><time>2026-04-25T08:57:44.724Z</time></trkpt><trkpt lat="43.7085483" lon="11.1748383"><ele>283.25</ele><time>2026-04-25T08:57:45.724Z</time></trkpt><trkpt lat="43.708555" lon="11.17503"><ele>281.5</ele><time>2026-04-25T08:57:46.725Z</time></trkpt><trkpt lat="43.70854" lon="11.1752283"><ele>279.75</ele><time>2026-04-25T08:57:47.725Z</time></trkpt><trkpt lat="43.70852" lon="11.1754267"><ele>278.0</ele><time>2026-04-25T08:57:48.725Z</time></trkpt><trkpt lat="43.7084967" lon="11.1756317"><ele>276.75</ele><time>2026-04-25T08:57:49.725Z</time></trkpt><trkpt lat="43.7084633" lon="11.175825"><ele>275.5</ele><time>2026-04-25T08:57:50.725Z</time></trkpt><trkpt lat="43.7083917" lon="11.1760083"><ele>274.25</ele><time>2026-04-25T08:57:51.724Z</time></trkpt><trkpt lat="43.7083183" lon="11.1761617"><ele>273.0</ele><time>2026-04-25T08:57:52.724Z</time></trkpt><trkpt lat="43.708225" lon="11.1763033"><ele>273.0</ele><time>2026-04-25T08:57:53.724Z</time></trkpt><trkpt lat="43.70812" lon="11.1764467"><ele>273.0</ele><time>2026-04-25T08:57:54.726Z</time></trkpt><trkpt lat="43.7080033" lon="11.1765967"><ele>273.0</ele><time>2026-04-25T08:57:55.724Z</time></trkpt><trkpt lat="43.707895" lon="11.17676"><ele>272.0</ele><time>2026-04-25T08:57:56.725Z</time></trkpt><trkpt lat="43.7077967" lon="11.1769467"><ele>271.0</ele><time>2026-04-25T08:57:57.725Z</time></trkpt><trkpt lat="43.7077233" lon="11.1771467"><ele>270.0</ele><time>2026-04-25T08:57:58.724Z</time></trkpt><trkpt lat="43.7076483" lon="11.1773567"><ele>270.0</ele><time>2026-04-25T08:57:59.725Z</time></trkpt><trkpt lat="43.7075883" lon="11.177555"><ele>270.0</ele><time>2026-04-25T08:58:00.724Z</time></trkpt><trkpt lat="43.707535" lon="11.1777483"><ele>270.0</ele><time>2026-04-25T08:58:01.724Z</time></trkpt><trkpt lat="43.7075" lon="11.1779333"><ele>270.0</ele><time>2026-04-25T08:58:02.724Z</time></trkpt><trkpt lat="43.7074633" lon="11.1781067"><ele>270.0</ele><time>2026-04-25T08:58:03.725Z</time></trkpt><trkpt lat="43.7074283" lon="11.1782817"><ele>270.0</ele><time>2026-04-25T08:58:04.724Z</time></trkpt><trkpt lat="43.7074" lon="11.178465"><ele>270.0</ele><time>2026-04-25T08:58:05.725Z</time></trkpt><trkpt lat="43.7073683" lon="11.1786567"><ele>270.0</ele><time>2026-04-25T08:58:06.724Z</time></trkpt><trkpt lat="43.707335" lon="11.1788617"><ele>268.6666666666667</ele><time>2026-04-25T08:58:07.722Z</time></trkpt><trkpt lat="43.707295" lon="11.1790667"><ele>267.33333333333337</ele><time>2026-04-25T08:58:08.723Z</time></trkpt><trkpt lat="43.7072433" lon="11.1792783"><ele>266.0</ele><time>2026-04-25T08:58:09.725Z</time></trkpt><trkpt lat="43.70718" lon="11.1794983"><ele>266.0</ele><time>2026-04-25T08:58:10.725Z</time></trkpt><trkpt lat="43.7071133" lon="11.1797167"><ele>266.0</ele><time>2026-04-25T08:58:11.725Z</time></trkpt><trkpt lat="43.7070383" lon="11.179925"><ele>266.0</ele><time>2026-04-25T08:58:12.723Z</time></trkpt><trkpt lat="43.7069717" lon="11.1801267"><ele>264.6666666666667</ele><time>2026-04-25T08:58:13.724Z</time></trkpt><trkpt lat="43.7068883" lon="11.1803383"><ele>263.3333333333333</ele><time>2026-04-25T08:58:14.725Z</time></trkpt><trkpt lat="43.70685" lon="11.1805517"><ele>262.0</ele><time>2026-04-25T08:58:15.723Z</time></trkpt><trkpt lat="43.70684" lon="11.1807633"><ele>261.3333333333333</ele><time>2026-04-25T08:58:16.722Z</time></trkpt><trkpt lat="43.7068583" lon="11.18097"><ele>260.6666666666667</ele><time>2026-04-25T08:58:17.724Z</time></trkpt><trkpt lat="43.70688" lon="11.1811767"><ele>260.0</ele><time>2026-04-25T08:58:18.724Z</time></trkpt><trkpt lat="43.7068983" lon="11.18138"><ele>258.0</ele><time>2026-04-25T08:58:19.724Z</time></trkpt><trkpt lat="43.7069167" lon="11.18157"><ele>256.0</ele><time>2026-04-25T08:58:20.725Z</time></trkpt><trkpt lat="43.7069283" lon="11.181755"><ele>254.0</ele><time>2026-04-25T08:58:21.724Z</time></trkpt><trkpt lat="43.7069483" lon="11.181925"><ele>252.0</ele><time>2026-04-25T08:58:22.723Z</time></trkpt><trkpt lat="43.7069783" lon="11.1820867"><ele>252.0</ele><time>2026-04-25T08:58:23.725Z</time></trkpt><trkpt lat="43.7070133" lon="11.1822417"><ele>252.0</ele><time>2026-04-25T08:58:24.725Z</time></trkpt><trkpt lat="43.707065" lon="11.182385"><ele>252.0</ele><time>2026-04-25T08:58:25.724Z</time></trkpt><trkpt lat="43.7071333" lon="11.182525"><ele>252.0</ele><time>2026-04-25T08:58:26.725Z</time></trkpt><trkpt lat="43.707215" lon="11.1826583"><ele>250.75</ele><time>2026-04-25T08:58:27.723Z</time></trkpt><trkpt lat="43.70729" lon="11.182805"><ele>249.5</ele><time>2026-04-25T08:58:28.723Z</time></trkpt><trkpt lat="43.7073567" lon="11.1829817"><ele>248.25</ele><time>2026-04-25T08:58:29.726Z</time></trkpt><trkpt lat="43.7074167" lon="11.183175"><ele>247.0</ele><time>2026-04-25T08:58:30.724Z</time></trkpt><trkpt lat="43.7074767" lon="11.1833733"><ele>245.0</ele><time>2026-04-25T08:58:31.723Z</time></trkpt><trkpt lat="43.7075367" lon="11.1835767"><ele>243.0</ele><time>2026-04-25T08:58:32.725Z</time></trkpt><trkpt lat="43.7075917" lon="11.1837733"><ele>241.0</ele><time>2026-04-25T08:58:33.725Z</time></trkpt><trkpt lat="43.707645" lon="11.1839583"><ele>239.5</ele><time>2026-04-25T08:58:34.723Z</time></trkpt><trkpt lat="43.70769" lon="11.1841367"><ele>238.0</ele><time>2026-04-25T08:58:35.724Z</time></trkpt><trkpt lat="43.707725" lon="11.1843183"><ele>236.5</ele><time>2026-04-25T08:58:36.723Z</time></trkpt><trkpt lat="43.70775" lon="11.1845083"><ele>235.0</ele><time>2026-04-25T08:58:37.724Z</time></trkpt><trkpt lat="43.70777" lon="11.1847067"><ele>233.0</ele><time>2026-04-25T08:58:38.724Z</time></trkpt><trkpt lat="43.707785" lon="11.18491"><ele>231.0</ele><time>2026-04-25T08:58:39.725Z</time></trkpt><trkpt lat="43.7078" lon="11.18511"><ele>229.0</ele><time>2026-04-25T08:58:40.723Z</time></trkpt><trkpt lat="43.70782" lon="11.185305"><ele>227.0</ele><time>2026-04-25T08:58:41.724Z</time></trkpt><trkpt lat="43.7078433" lon="11.1854917"><ele>227.0</ele><time>2026-04-25T08:58:42.724Z</time></trkpt><trkpt lat="43.70788" lon="11.1856683"><ele>227.0</ele><time>2026-04-25T08:58:43.725Z</time></trkpt><trkpt lat="43.7079217" lon="11.1858283"><ele>227.0</ele><time>2026-04-25T08:58:44.725Z</time></trkpt><trkpt lat="43.7079617" lon="11.18598"><ele>227.0</ele><time>2026-04-25T08:58:45.723Z</time></trkpt><trkpt lat="43.7080033" lon="11.186125"><ele>225.6</ele><time>2026-04-25T08:58:46.725Z</time></trkpt><trkpt lat="43.7080483" lon="11.186265"><ele>224.2</ele><time>2026-04-25T08:58:47.724Z</time></trkpt><trkpt lat="43.7081017" lon="11.1863933"><ele>222.8</ele><time>2026-04-25T08:58:48.724Z</time></trkpt><trkpt lat="43.7081517" lon="11.186515"><ele>221.4</ele><time>2026-04-25T08:58:49.725Z</time></trkpt><trkpt lat="43.708195" lon="11.186635"><ele>220.0</ele><time>2026-04-25T08:58:50.725Z</time></trkpt><trkpt lat="43.7082367" lon="11.1867467"><ele>219.49999999999997</ele><time>2026-04-25T08:58:51.725Z</time></trkpt><trkpt lat="43.7082767" lon="11.186845"><ele>219.0</ele><time>2026-04-25T08:58:52.725Z</time></trkpt><trkpt lat="43.7083033" lon="11.1869283"><ele>218.5</ele><time>2026-04-25T08:58:53.726Z</time></trkpt><trkpt lat="43.7083233" lon="11.1870433"><ele>218.0</ele><time>2026-04-25T08:58:55.725Z</time></trkpt><trkpt lat="43.708245" lon="11.1870683"><ele>217.49999999999997</ele><time>2026-04-25T08:58:58.724Z</time></trkpt><trkpt lat="43.70815" lon="11.1870133"><ele>217.0</ele><time>2026-04-25T08:59:00.724Z</time></trkpt><trkpt lat="43.708055" lon="11.186975"><ele>217.0</ele><time>2026-04-25T08:59:01.725Z</time></trkpt><trkpt lat="43.7079217" lon="11.18693"><ele>217.0</ele><time>2026-04-25T08:59:02.725Z</time></trkpt><trkpt lat="43.707735" lon="11.18691"><ele>217.0</ele><time>2026-04-25T08:59:03.725Z</time></trkpt><trkpt lat="43.7075633" lon="11.1868833"><ele>219.0</ele><time>2026-04-25T08:59:04.723Z</time></trkpt><trkpt lat="43.7073933" lon="11.186865"><ele>221.0</ele><time>2026-04-25T08:59:05.724Z</time></trkpt><trkpt lat="43.7072217" lon="11.1868417"><ele>223.0</ele><time>2026-04-25T08:59:06.724Z</time></trkpt><trkpt lat="43.7070583" lon="11.186805"><ele>224.33333333333331</ele><time>2026-04-25T08:59:07.724Z</time></trkpt><trkpt lat="43.7069083" lon="11.1867433"><ele>225.66666666666669</ele><time>2026-04-25T08:59:08.726Z</time></trkpt><trkpt lat="43.7067683" lon="11.18665"><ele>227.0</ele><time>2026-04-25T08:59:09.724Z</time></trkpt><trkpt lat="43.7066233" lon="11.186545"><ele>228.33333333333334</ele><time>2026-04-25T08:59:10.726Z</time></trkpt><trkpt lat="43.7064783" lon="11.18645"><ele>229.66666666666669</ele><time>2026-04-25T08:59:11.725Z</time></trkpt><trkpt lat="43.7063233" lon="11.1863933"><ele>231.0</ele><time>2026-04-25T08:59:12.724Z</time></trkpt><trkpt lat="43.7061633" lon="11.1863617"><ele>232.0</ele><time>2026-04-25T08:59:13.723Z</time></trkpt><trkpt lat="43.706005" lon="11.18634"><ele>233.0</ele><time>2026-04-25T08:59:14.724Z</time></trkpt><trkpt lat="43.7058483" lon="11.186315"><ele>234.0</ele><time>2026-04-25T08:59:15.728Z</time></trkpt><trkpt lat="43.7057" lon="11.1862817"><ele>234.0</ele><time>2026-04-25T08:59:16.723Z</time></trkpt><trkpt lat="43.7055633" lon="11.186245"><ele>234.0</ele><time>2026-04-25T08:59:17.723Z</time></trkpt><trkpt lat="43.705435" lon="11.1862033"><ele>234.0</ele><time>2026-04-25T08:59:18.724Z</time></trkpt><trkpt lat="43.7053233" lon="11.1861633"><ele>234.0</ele><time>2026-04-25T08:59:19.724Z</time></trkpt><trkpt lat="43.705225" lon="11.18612"><ele>233.66666666666666</ele><time>2026-04-25T08:59:20.724Z</time></trkpt><trkpt lat="43.70514" lon="11.18608"><ele>233.33333333333331</ele><time>2026-04-25T08:59:21.725Z</time></trkpt><trkpt lat="43.70507" lon="11.186045"><ele>233.0</ele><time>2026-04-25T08:59:22.722Z</time></trkpt><trkpt lat="43.7049683" lon="11.1859767"><ele>232.66666666666666</ele><time>2026-04-25T08:59:24.724Z</time></trkpt><trkpt lat="43.7048733" lon="11.1859383"><ele>232.33333333333331</ele><time>2026-04-25T08:59:26.725Z</time></trkpt><trkpt lat="43.7048033" lon="11.185925"><ele>232.0</ele><time>2026-04-25T08:59:29.726Z</time></trkpt><trkpt lat="43.704735" lon="11.1859017"><ele>232.0</ele><time>2026-04-25T08:59:37.725Z</time></trkpt><trkpt lat="43.7045867" lon="11.1858517"><ele>232.0</ele><time>2026-04-25T08:59:39.724Z</time></trkpt><trkpt lat="43.7044717" lon="11.18582"><ele>232.0</ele><time>2026-04-25T08:59:40.723Z</time></trkpt><trkpt lat="43.7043583" lon="11.1857967"><ele>232.0</ele><time>2026-04-25T08:59:41.725Z</time></trkpt><trkpt lat="43.7042417" lon="11.18578"><ele>232.5</ele><time>2026-04-25T08:59:42.726Z</time></trkpt><trkpt lat="43.704125" lon="11.185775"><ele>233.0</ele><time>2026-04-25T08:59:43.724Z</time></trkpt><trkpt lat="43.703995" lon="11.1857717"><ele>233.5</ele><time>2026-04-25T08:59:44.725Z</time></trkpt><trkpt lat="43.703865" lon="11.1857667"><ele>234.0</ele><time>2026-04-25T08:59:45.726Z</time></trkpt><trkpt lat="43.703725" lon="11.1857633"><ele>234.0</ele><time>2026-04-25T08:59:46.723Z</time></trkpt><trkpt lat="43.70359" lon="11.1857617"><ele>234.0</ele><time>2026-04-25T08:59:47.726Z</time></trkpt><trkpt lat="43.7034483" lon="11.1857583"><ele>234.0</ele><time>2026-04-25T08:59:48.724Z</time></trkpt><trkpt lat="43.70332" lon="11.1857417"><ele>234.0</ele><time>2026-04-25T08:59:49.727Z</time></trkpt><trkpt lat="43.7031917" lon="11.1857433"><ele>234.0</ele><time>2026-04-25T08:59:50.727Z</time></trkpt><trkpt lat="43.7030633" lon="11.1857483"><ele>234.0</ele><time>2026-04-25T08:59:51.724Z</time></trkpt><trkpt lat="43.70293" lon="11.18576"><ele>234.0</ele><time>2026-04-25T08:59:52.725Z</time></trkpt><trkpt lat="43.7027967" lon="11.1857783"><ele>234.0</ele><time>2026-04-25T08:59:53.724Z</time></trkpt><trkpt lat="43.7026617" lon="11.1858183"><ele>233.5</ele><time>2026-04-25T08:59:54.726Z</time></trkpt><trkpt lat="43.702525" lon="11.185875"><ele>233.0</ele><time>2026-04-25T08:59:55.727Z</time></trkpt><trkpt lat="43.7023817" lon="11.18592"><ele>232.5</ele><time>2026-04-25T08:59:56.728Z</time></trkpt><trkpt lat="43.7022433" lon="11.1859417"><ele>232.0</ele><time>2026-04-25T08:59:57.728Z</time></trkpt><trkpt lat="43.7021117" lon="11.18595"><ele>232.0</ele><time>2026-04-25T08:59:58.727Z</time></trkpt><trkpt lat="43.7019817" lon="11.1859233"><ele>232.0</ele><time>2026-04-25T08:59:59.727Z</time></trkpt><trkpt lat="43.7018517" lon="11.185875"><ele>232.0</ele><time>2026-04-25T09:00:00.725Z</time></trkpt><trkpt lat="43.7017233" lon="11.1858067"><ele>232.0</ele><time>2026-04-25T09:00:01.726Z</time></trkpt><trkpt lat="43.701595" lon="11.1857233"><ele>232.66666666666666</ele><time>2026-04-25T09:00:02.724Z</time></trkpt><trkpt lat="43.7014617" lon="11.185635"><ele>233.33333333333331</ele><time>2026-04-25T09:00:03.725Z</time></trkpt><trkpt lat="43.7013233" lon="11.18555"><ele>234.0</ele><time>2026-04-25T09:00:04.725Z</time></trkpt><trkpt lat="43.7011833" lon="11.1854633"><ele>233.66666666666669</ele><time>2026-04-25T09:00:05.725Z</time></trkpt><trkpt lat="43.7010433" lon="11.1853683"><ele>233.33333333333334</ele><time>2026-04-25T09:00:06.726Z</time></trkpt><trkpt lat="43.7009033" lon="11.1852717"><ele>233.0</ele><time>2026-04-25T09:00:07.723Z</time></trkpt><trkpt lat="43.70076" lon="11.185185"><ele>233.0</ele><time>2026-04-25T09:00:08.724Z</time></trkpt><trkpt lat="43.7006133" lon="11.185105"><ele>233.0</ele><time>2026-04-25T09:00:09.725Z</time></trkpt><trkpt lat="43.70046" lon="11.1850417"><ele>233.0</ele><time>2026-04-25T09:00:10.723Z</time></trkpt><trkpt lat="43.7002983" lon="11.1849883"><ele>233.33333333333334</ele><time>2026-04-25T09:00:11.725Z</time></trkpt><trkpt lat="43.7001317" lon="11.184955"><ele>233.66666666666669</ele><time>2026-04-25T09:00:12.724Z</time></trkpt><trkpt lat="43.6999633" lon="11.1849233"><ele>234.0</ele><time>2026-04-25T09:00:13.724Z</time></trkpt><trkpt lat="43.699795" lon="11.1849017"><ele>234.0</ele><time>2026-04-25T09:00:14.726Z</time></trkpt><trkpt lat="43.69963" lon="11.184895"><ele>234.0</ele><time>2026-04-25T09:00:15.722Z</time></trkpt><trkpt lat="43.6994617" lon="11.184915"><ele>234.0</ele><time>2026-04-25T09:00:16.725Z</time></trkpt><trkpt lat="43.6993033" lon="11.18496"><ele>234.0</ele><time>2026-04-25T09:00:17.726Z</time></trkpt><trkpt lat="43.69915" lon="11.1850183"><ele>234.0</ele><time>2026-04-25T09:00:18.726Z</time></trkpt><trkpt lat="43.6989983" lon="11.185075"><ele>234.0</ele><time>2026-04-25T09:00:19.726Z</time></trkpt><trkpt lat="43.69886" lon="11.1850883"><ele>234.0</ele><time>2026-04-25T09:00:20.725Z</time></trkpt><trkpt lat="43.6987283" lon="11.1850383"><ele>234.0</ele><time>2026-04-25T09:00:21.724Z</time></trkpt><trkpt lat="43.6986133" lon="11.1849267"><ele>234.0</ele><time>2026-04-25T09:00:22.724Z</time></trkpt><trkpt lat="43.6985133" lon="11.1847717"><ele>234.0</ele><time>2026-04-25T09:00:23.722Z</time></trkpt><trkpt lat="43.6984133" lon="11.1846033"><ele>235.66666666666669</ele><time>2026-04-25T09:00:24.723Z</time></trkpt><trkpt lat="43.6983" lon="11.1844533"><ele>237.33333333333334</ele><time>2026-04-25T09:00:25.724Z</time></trkpt><trkpt lat="43.6981733" lon="11.1843217"><ele>239.0</ele><time>2026-04-25T09:00:26.725Z</time></trkpt><trkpt lat="43.6980167" lon="11.1841933"><ele>239.0</ele><time>2026-04-25T09:00:27.724Z</time></trkpt><trkpt lat="43.69785" lon="11.1841033"><ele>239.0</ele><time>2026-04-25T09:00:28.724Z</time></trkpt><trkpt lat="43.697675" lon="11.1840283"><ele>239.0</ele><time>2026-04-25T09:00:29.726Z</time></trkpt><trkpt lat="43.6975" lon="11.18396"><ele>238.0</ele><time>2026-04-25T09:00:30.723Z</time></trkpt><trkpt lat="43.6973033" lon="11.1839183"><ele>237.0</ele><time>2026-04-25T09:00:31.725Z</time></trkpt><trkpt lat="43.6970933" lon="11.18389"><ele>236.0</ele><time>2026-04-25T09:00:32.726Z</time></trkpt><trkpt lat="43.6968883" lon="11.1838733"><ele>236.0</ele><time>2026-04-25T09:00:33.727Z</time></trkpt><trkpt lat="43.6966833" lon="11.1839033"><ele>236.0</ele><time>2026-04-25T09:00:34.725Z</time></trkpt><trkpt lat="43.69648" lon="11.1839333"><ele>236.0</ele><time>2026-04-25T09:00:35.727Z</time></trkpt><trkpt lat="43.696275" lon="11.1839683"><ele>237.0</ele><time>2026-04-25T09:00:36.727Z</time></trkpt><trkpt lat="43.6960717" lon="11.1839867"><ele>238.0</ele><time>2026-04-25T09:00:37.727Z</time></trkpt><trkpt lat="43.6958683" lon="11.18398"><ele>239.0</ele><time>2026-04-25T09:00:38.722Z</time></trkpt><trkpt lat="43.695665" lon="11.1839767"><ele>239.0</ele><time>2026-04-25T09:00:39.727Z</time></trkpt><trkpt lat="43.6954617" lon="11.1839917"><ele>239.0</ele><time>2026-04-25T09:00:40.725Z</time></trkpt><trkpt lat="43.6952583" lon="11.18403"><ele>239.0</ele><time>2026-04-25T09:00:41.723Z</time></trkpt><trkpt lat="43.6950583" lon="11.1840933"><ele>238.66666666666669</ele><time>2026-04-25T09:00:42.724Z</time></trkpt><trkpt lat="43.6948617" lon="11.1841583"><ele>238.33333333333331</ele><time>2026-04-25T09:00:43.724Z</time></trkpt><trkpt lat="43.6946717" lon="11.1842283"><ele>238.0</ele><time>2026-04-25T09:00:44.723Z</time></trkpt><trkpt lat="43.69449" lon="11.1842883"><ele>238.33333333333331</ele><time>2026-04-25T09:00:45.725Z</time></trkpt><trkpt lat="43.694325" lon="11.1843383"><ele>238.66666666666669</ele><time>2026-04-25T09:00:46.724Z</time></trkpt><trkpt lat="43.69417" lon="11.18435"><ele>239.0</ele><time>2026-04-25T09:00:47.726Z</time></trkpt><trkpt lat="43.694015" lon="11.1843133"><ele>239.0</ele><time>2026-04-25T09:00:48.726Z</time></trkpt><trkpt lat="43.6938683" lon="11.184235"><ele>239.0</ele><time>2026-04-25T09:00:49.726Z</time></trkpt><trkpt lat="43.6937317" lon="11.1841167"><ele>239.0</ele><time>2026-04-25T09:00:50.726Z</time></trkpt><trkpt lat="43.6936017" lon="11.1839633"><ele>239.66666666666669</ele><time>2026-04-25T09:00:51.726Z</time></trkpt><trkpt lat="43.69347" lon="11.1837983"><ele>240.33333333333331</ele><time>2026-04-25T09:00:52.725Z</time></trkpt><trkpt lat="43.6933333" lon="11.1836233"><ele>241.0</ele><time>2026-04-25T09:00:53.726Z</time></trkpt><trkpt lat="43.6931833" lon="11.18346"><ele>241.0</ele><time>2026-04-25T09:00:54.723Z</time></trkpt><trkpt lat="43.69303" lon="11.1833017"><ele>241.0</ele><time>2026-04-25T09:00:55.723Z</time></trkpt><trkpt lat="43.6928783" lon="11.1831433"><ele>241.0</ele><time>2026-04-25T09:00:56.725Z</time></trkpt><trkpt lat="43.692725" lon="11.182995"><ele>241.33333333333331</ele><time>2026-04-25T09:00:57.724Z</time></trkpt><trkpt lat="43.6925717" lon="11.18285"><ele>241.66666666666669</ele><time>2026-04-25T09:00:58.725Z</time></trkpt><trkpt lat="43.6924117" lon="11.182705"><ele>242.0</ele><time>2026-04-25T09:00:59.725Z</time></trkpt><trkpt lat="43.692245" lon="11.1825683"><ele>242.0</ele><time>2026-04-25T09:01:00.725Z</time></trkpt><trkpt lat="43.69207" lon="11.1824483"><ele>242.0</ele><time>2026-04-25T09:01:01.725Z</time></trkpt><trkpt lat="43.6918917" lon="11.1823417"><ele>242.0</ele><time>2026-04-25T09:01:02.725Z</time></trkpt><trkpt lat="43.691715" lon="11.18222"><ele>240.66666666666669</ele><time>2026-04-25T09:01:03.724Z</time></trkpt><trkpt lat="43.6915483" lon="11.182085"><ele>239.33333333333331</ele><time>2026-04-25T09:01:04.725Z</time></trkpt><trkpt lat="43.6914017" lon="11.1819283"><ele>238.0</ele><time>2026-04-25T09:01:05.724Z</time></trkpt><trkpt lat="43.6912683" lon="11.181795"><ele>238.0</ele><time>2026-04-25T09:01:06.725Z</time></trkpt><trkpt lat="43.6911483" lon="11.1816667"><ele>238.0</ele><time>2026-04-25T09:01:07.725Z</time></trkpt><trkpt lat="43.6910367" lon="11.1815583"><ele>238.0</ele><time>2026-04-25T09:01:08.723Z</time></trkpt><trkpt lat="43.6909067" lon="11.18149"><ele>238.0</ele><time>2026-04-25T09:01:09.725Z</time></trkpt><trkpt lat="43.690765" lon="11.1814567"><ele>242.0</ele><time>2026-04-25T09:01:10.724Z</time></trkpt><trkpt lat="43.6906183" lon="11.1814517"><ele>246.0</ele><time>2026-04-25T09:01:11.723Z</time></trkpt><trkpt lat="43.6904733" lon="11.18145"><ele>250.0</ele><time>2026-04-25T09:01:12.725Z</time></trkpt><trkpt lat="43.6903167" lon="11.1814183"><ele>252.0</ele><time>2026-04-25T09:01:13.725Z</time></trkpt><trkpt lat="43.6901583" lon="11.18138"><ele>254.0</ele><time>2026-04-25T09:01:14.726Z</time></trkpt><trkpt lat="43.6899983" lon="11.1813467"><ele>256.0</ele><time>2026-04-25T09:01:15.723Z</time></trkpt><trkpt lat="43.6898433" lon="11.18133"><ele>256.0</ele><time>2026-04-25T09:01:16.725Z</time></trkpt><trkpt lat="43.6896933" lon="11.18132"><ele>256.0</ele><time>2026-04-25T09:01:17.726Z</time></trkpt><trkpt lat="43.6895367" lon="11.181345"><ele>256.0</ele><time>2026-04-25T09:01:18.726Z</time></trkpt><trkpt lat="43.6893833" lon="11.1813883"><ele>257.0</ele><time>2026-04-25T09:01:19.725Z</time></trkpt><trkpt lat="43.6892333" lon="11.181455"><ele>258.0</ele><time>2026-04-25T09:01:20.726Z</time></trkpt><trkpt lat="43.68908" lon="11.18154"><ele>259.0</ele><time>2026-04-25T09:01:21.724Z</time></trkpt><trkpt lat="43.68894" lon="11.1816433"><ele>259.66666666666663</ele><time>2026-04-25T09:01:22.725Z</time></trkpt><trkpt lat="43.688815" lon="11.18178"><ele>260.3333333333333</ele><time>2026-04-25T09:01:23.724Z</time></trkpt><trkpt lat="43.68871" lon="11.1819467"><ele>261.0</ele><time>2026-04-25T09:01:24.724Z</time></trkpt><trkpt lat="43.6886067" lon="11.1821217"><ele>262.3333333333333</ele><time>2026-04-25T09:01:25.726Z</time></trkpt><trkpt lat="43.6885067" lon="11.1822883"><ele>263.66666666666663</ele><time>2026-04-25T09:01:26.725Z</time></trkpt><trkpt lat="43.6884067" lon="11.18246"><ele>265.0</ele><time>2026-04-25T09:01:27.725Z</time></trkpt><trkpt lat="43.6883167" lon="11.18263"><ele>266.66666666666663</ele><time>2026-04-25T09:01:28.723Z</time></trkpt><trkpt lat="43.6882367" lon="11.1828033"><ele>268.3333333333333</ele><time>2026-04-25T09:01:29.724Z</time></trkpt><trkpt lat="43.688165" lon="11.1829883"><ele>270.0</ele><time>2026-04-25T09:01:30.724Z</time></trkpt><trkpt lat="43.6881067" lon="11.1831783"><ele>270.0</ele><time>2026-04-25T09:01:31.725Z</time></trkpt><trkpt lat="43.68807" lon="11.183375"><ele>270.0</ele><time>2026-04-25T09:01:32.725Z</time></trkpt><trkpt lat="43.68805" lon="11.183585"><ele>270.0</ele><time>2026-04-25T09:01:33.724Z</time></trkpt><trkpt lat="43.6880383" lon="11.1837917"><ele>270.0</ele><time>2026-04-25T09:01:34.725Z</time></trkpt><trkpt lat="43.688015" lon="11.1839783"><ele>270.0</ele><time>2026-04-25T09:01:35.724Z</time></trkpt><trkpt lat="43.6879733" lon="11.1841533"><ele>270.0</ele><time>2026-04-25T09:01:36.725Z</time></trkpt><trkpt lat="43.6879217" lon="11.1843117"><ele>270.0</ele><time>2026-04-25T09:01:37.726Z</time></trkpt><trkpt lat="43.68784" lon="11.18444"><ele>269.25</ele><time>2026-04-25T09:01:38.725Z</time></trkpt><trkpt lat="43.687725" lon="11.1845367"><ele>268.5</ele><time>2026-04-25T09:01:39.724Z</time></trkpt><trkpt lat="43.6875867" lon="11.1846067"><ele>267.75</ele><time>2026-04-25T09:01:40.726Z</time></trkpt><trkpt lat="43.6874283" lon="11.18465"><ele>267.0</ele><time>2026-04-25T09:01:41.725Z</time></trkpt><trkpt lat="43.6872633" lon="11.184675"><ele>267.0</ele><time>2026-04-25T09:01:42.726Z</time></trkpt><trkpt lat="43.687085" lon="11.1846983"><ele>267.0</ele><time>2026-04-25T09:01:43.727Z</time></trkpt><trkpt lat="43.686905" lon="11.18471"><ele>267.0</ele><time>2026-04-25T09:01:44.726Z</time></trkpt><trkpt lat="43.6867317" lon="11.1847233"><ele>267.25</ele><time>2026-04-25T09:01:45.725Z</time></trkpt><trkpt lat="43.68657" lon="11.1847367"><ele>267.5</ele><time>2026-04-25T09:01:46.725Z</time></trkpt><trkpt lat="43.686425" lon="11.1847517"><ele>267.75</ele><time>2026-04-25T09:01:47.724Z</time></trkpt><trkpt lat="43.6862933" lon="11.18479"><ele>268.0</ele><time>2026-04-25T09:01:48.726Z</time></trkpt><trkpt lat="43.6861783" lon="11.18487"><ele>267.75</ele><time>2026-04-25T09:01:49.725Z</time></trkpt><trkpt lat="43.6860817" lon="11.1849983"><ele>267.5</ele><time>2026-04-25T09:01:50.725Z</time></trkpt><trkpt lat="43.6859967" lon="11.185155"><ele>267.25</ele><time>2026-04-25T09:01:51.726Z</time></trkpt><trkpt lat="43.6859233" lon="11.1853317"><ele>267.0</ele><time>2026-04-25T09:01:52.726Z</time></trkpt><trkpt lat="43.6858617" lon="11.18552"><ele>266.3333333333333</ele><time>2026-04-25T09:01:53.725Z</time></trkpt><trkpt lat="43.6858283" lon="11.1857267"><ele>265.66666666666663</ele><time>2026-04-25T09:01:54.723Z</time></trkpt><trkpt lat="43.6858317" lon="11.1859417"><ele>265.0</ele><time>2026-04-25T09:01:55.725Z</time></trkpt><trkpt lat="43.68586" lon="11.1861667"><ele>265.0</ele><time>2026-04-25T09:01:56.726Z</time></trkpt><trkpt lat="43.6859017" lon="11.1864017"><ele>265.0</ele><time>2026-04-25T09:01:57.724Z</time></trkpt><trkpt lat="43.685945" lon="11.1866433"><ele>265.0</ele><time>2026-04-25T09:01:58.725Z</time></trkpt><trkpt lat="43.6859783" lon="11.1868967"><ele>265.0</ele><time>2026-04-25T09:01:59.726Z</time></trkpt><trkpt lat="43.6860083" lon="11.18715"><ele>265.0</ele><time>2026-04-25T09:02:00.725Z</time></trkpt><trkpt lat="43.6860383" lon="11.1874117"><ele>265.0</ele><time>2026-04-25T09:02:01.726Z</time></trkpt><trkpt lat="43.6860683" lon="11.18767"><ele>264.66666666666663</ele><time>2026-04-25T09:02:02.725Z</time></trkpt><trkpt lat="43.6860983" lon="11.187915"><ele>264.3333333333333</ele><time>2026-04-25T09:02:03.724Z</time></trkpt><trkpt lat="43.6861283" lon="11.1881517"><ele>264.0</ele><time>2026-04-25T09:02:04.724Z</time></trkpt><trkpt lat="43.6861517" lon="11.1883833"><ele>264.0</ele><time>2026-04-25T09:02:05.725Z</time></trkpt><trkpt lat="43.6861767" lon="11.1886067"><ele>264.0</ele><time>2026-04-25T09:02:06.726Z</time></trkpt><trkpt lat="43.6861983" lon="11.1888317"><ele>264.0</ele><time>2026-04-25T09:02:07.724Z</time></trkpt><trkpt lat="43.6862217" lon="11.1890467"><ele>264.0</ele><time>2026-04-25T09:02:08.725Z</time></trkpt><trkpt lat="43.68624" lon="11.1892533"><ele>264.0</ele><time>2026-04-25T09:02:09.725Z</time></trkpt><trkpt lat="43.6862583" lon="11.189455"><ele>264.0</ele><time>2026-04-25T09:02:10.725Z</time></trkpt><trkpt lat="43.6862733" lon="11.1896583"><ele>264.0</ele><time>2026-04-25T09:02:11.726Z</time></trkpt><trkpt lat="43.6862917" lon="11.1898667"><ele>263.5</ele><time>2026-04-25T09:02:12.724Z</time></trkpt><trkpt lat="43.6863083" lon="11.1900767"><ele>263.0</ele><time>2026-04-25T09:02:13.725Z</time></trkpt><trkpt lat="43.6863267" lon="11.19028"><ele>262.5</ele><time>2026-04-25T09:02:14.724Z</time></trkpt><trkpt lat="43.6863433" lon="11.1904717"><ele>262.0</ele><time>2026-04-25T09:02:15.725Z</time></trkpt><trkpt lat="43.68636" lon="11.1906483"><ele>261.8</ele><time>2026-04-25T09:02:16.723Z</time></trkpt><trkpt lat="43.6863683" lon="11.1908117"><ele>261.6</ele><time>2026-04-25T09:02:17.727Z</time></trkpt><trkpt lat="43.6863717" lon="11.1909633"><ele>261.40000000000003</ele><time>2026-04-25T09:02:18.727Z</time></trkpt><trkpt lat="43.6863617" lon="11.19111"><ele>261.2</ele><time>2026-04-25T09:02:19.726Z</time></trkpt><trkpt lat="43.6863267" lon="11.1912567"><ele>261.0</ele><time>2026-04-25T09:02:20.726Z</time></trkpt><trkpt lat="43.686265" lon="11.1913933"><ele>261.25</ele><time>2026-04-25T09:02:21.725Z</time></trkpt><trkpt lat="43.6861717" lon="11.1915167"><ele>261.5</ele><time>2026-04-25T09:02:22.723Z</time></trkpt><trkpt lat="43.68607" lon="11.191625"><ele>261.75</ele><time>2026-04-25T09:02:23.724Z</time></trkpt><trkpt lat="43.68593" lon="11.1917067"><ele>262.0</ele><time>2026-04-25T09:02:24.726Z</time></trkpt><trkpt lat="43.68577" lon="11.1917783"><ele>262.0</ele><time>2026-04-25T09:02:25.723Z</time></trkpt><trkpt lat="43.6856" lon="11.1918483"><ele>262.0</ele><time>2026-04-25T09:02:26.725Z</time></trkpt><trkpt lat="43.6854233" lon="11.1919133"><ele>262.0</ele><time>2026-04-25T09:02:27.725Z</time></trkpt><trkpt lat="43.685245" lon="11.1919833"><ele>260.66666666666663</ele><time>2026-04-25T09:02:28.725Z</time></trkpt><trkpt lat="43.6850617" lon="11.1920567"><ele>259.3333333333333</ele><time>2026-04-25T09:02:29.725Z</time></trkpt><trkpt lat="43.6848733" lon="11.1921383"><ele>258.0</ele><time>2026-04-25T09:02:30.725Z</time></trkpt><trkpt lat="43.6846833" lon="11.1922267"><ele>258.0</ele><time>2026-04-25T09:02:31.723Z</time></trkpt><trkpt lat="43.68449" lon="11.192305"><ele>258.0</ele><time>2026-04-25T09:02:32.725Z</time></trkpt><trkpt lat="43.6842917" lon="11.1923833"><ele>258.0</ele><time>2026-04-25T09:02:33.725Z</time></trkpt><trkpt lat="43.6840917" lon="11.1924617"><ele>259.3333333333333</ele><time>2026-04-25T09:02:34.726Z</time></trkpt><trkpt lat="43.6838883" lon="11.1925367"><ele>260.66666666666663</ele><time>2026-04-25T09:02:35.723Z</time></trkpt><trkpt lat="43.683685" lon="11.1926083"><ele>262.0</ele><time>2026-04-25T09:02:36.723Z</time></trkpt><trkpt lat="43.6834917" lon="11.1926767"><ele>264.3333333333333</ele><time>2026-04-25T09:02:37.725Z</time></trkpt><trkpt lat="43.6833033" lon="11.1927383"><ele>266.6666666666667</ele><time>2026-04-25T09:02:38.726Z</time></trkpt><trkpt lat="43.6831217" lon="11.1927983"><ele>269.0</ele><time>2026-04-25T09:02:39.723Z</time></trkpt><trkpt lat="43.6829467" lon="11.1928617"><ele>269.0</ele><time>2026-04-25T09:02:40.725Z</time></trkpt><trkpt lat="43.68278" lon="11.1929167"><ele>269.0</ele><time>2026-04-25T09:02:41.726Z</time></trkpt><trkpt lat="43.6826167" lon="11.192965"><ele>269.0</ele><time>2026-04-25T09:02:42.724Z</time></trkpt><trkpt lat="43.6824583" lon="11.1929983"><ele>270.0</ele><time>2026-04-25T09:02:43.726Z</time></trkpt><trkpt lat="43.6822983" lon="11.19302"><ele>271.0</ele><time>2026-04-25T09:02:44.725Z</time></trkpt><trkpt lat="43.6821417" lon="11.1930417"><ele>272.0</ele><time>2026-04-25T09:02:45.725Z</time></trkpt><trkpt lat="43.6820017" lon="11.1930667"><ele>270.6666666666667</ele><time>2026-04-25T09:02:46.722Z</time></trkpt><trkpt lat="43.6818517" lon="11.1931233"><ele>269.3333333333333</ele><time>2026-04-25T09:02:47.725Z</time></trkpt><trkpt lat="43.6816967" lon="11.193215"><ele>268.0</ele><time>2026-04-25T09:02:48.725Z</time></trkpt><trkpt lat="43.6815417" lon="11.1933"><ele>268.0</ele><time>2026-04-25T09:02:49.725Z</time></trkpt><trkpt lat="43.6813983" lon="11.1933833"><ele>268.0</ele><time>2026-04-25T09:02:50.725Z</time></trkpt><trkpt lat="43.6812667" lon="11.1934533"><ele>268.0</ele><time>2026-04-25T09:02:51.723Z</time></trkpt><trkpt lat="43.681145" lon="11.1935067"><ele>268.0</ele><time>2026-04-25T09:02:52.723Z</time></trkpt><trkpt lat="43.6810367" lon="11.1935583"><ele>268.0</ele><time>2026-04-25T09:02:53.727Z</time></trkpt><trkpt lat="43.6809417" lon="11.1935867"><ele>268.0</ele><time>2026-04-25T09:02:54.726Z</time></trkpt><trkpt lat="43.6808533" lon="11.193585"><ele>268.0</ele><time>2026-04-25T09:02:55.725Z</time></trkpt><trkpt lat="43.6807633" lon="11.1935467"><ele>268.0</ele><time>2026-04-25T09:02:56.725Z</time></trkpt><trkpt lat="43.6806733" lon="11.1934483"><ele>268.0</ele><time>2026-04-25T09:02:57.723Z</time></trkpt><trkpt lat="43.6805833" lon="11.1933267"><ele>268.0</ele><time>2026-04-25T09:02:58.724Z</time></trkpt><trkpt lat="43.6804883" lon="11.1931917"><ele>268.0</ele><time>2026-04-25T09:02:59.725Z</time></trkpt><trkpt lat="43.68038" lon="11.1930567"><ele>268.0</ele><time>2026-04-25T09:03:00.725Z</time></trkpt><trkpt lat="43.6802633" lon="11.1929267"><ele>268.0</ele><time>2026-04-25T09:03:01.725Z</time></trkpt><trkpt lat="43.6801417" lon="11.192795"><ele>266.75</ele><time>2026-04-25T09:03:02.725Z</time></trkpt><trkpt lat="43.6800217" lon="11.192675"><ele>265.5</ele><time>2026-04-25T09:03:03.723Z</time></trkpt><trkpt lat="43.6799017" lon="11.1925667"><ele>264.25</ele><time>2026-04-25T09:03:04.724Z</time></trkpt><trkpt lat="43.6797817" lon="11.1924683"><ele>263.0</ele><time>2026-04-25T09:03:05.726Z</time></trkpt><trkpt lat="43.6796633" lon="11.1923733"><ele>263.5</ele><time>2026-04-25T09:03:06.726Z</time></trkpt><trkpt lat="43.679535" lon="11.1923017"><ele>264.0</ele><time>2026-04-25T09:03:07.725Z</time></trkpt><trkpt lat="43.6794083" lon="11.1922483"><ele>264.5</ele><time>2026-04-25T09:03:08.727Z</time></trkpt><trkpt lat="43.6792783" lon="11.192235"><ele>265.0</ele><time>2026-04-25T09:03:09.724Z</time></trkpt><trkpt lat="43.6791567" lon="11.19224"><ele>265.0</ele><time>2026-04-25T09:03:10.727Z</time></trkpt><trkpt lat="43.6790283" lon="11.1922367"><ele>265.0</ele><time>2026-04-25T09:03:11.726Z</time></trkpt><trkpt lat="43.6789033" lon="11.192235"><ele>265.0</ele><time>2026-04-25T09:03:12.726Z</time></trkpt><trkpt lat="43.6787833" lon="11.1922567"><ele>265.0</ele><time>2026-04-25T09:03:13.727Z</time></trkpt><trkpt lat="43.67867" lon="11.1922733"><ele>264.2</ele><time>2026-04-25T09:03:14.725Z</time></trkpt><trkpt lat="43.6785683" lon="11.1922517"><ele>263.4</ele><time>2026-04-25T09:03:15.725Z</time></trkpt><trkpt lat="43.6784633" lon="11.1922533"><ele>262.6</ele><time>2026-04-25T09:03:16.724Z</time></trkpt><trkpt lat="43.67836" lon="11.1922633"><ele>261.8</ele><time>2026-04-25T09:03:17.726Z</time></trkpt><trkpt lat="43.6782667" lon="11.1922817"><ele>261.0</ele><time>2026-04-25T09:03:18.725Z</time></trkpt><trkpt lat="43.678165" lon="11.1923033"><ele>260.75</ele><time>2026-04-25T09:03:19.727Z</time></trkpt><trkpt lat="43.6780567" lon="11.1923533"><ele>260.5</ele><time>2026-04-25T09:03:20.726Z</time></trkpt><trkpt lat="43.67794" lon="11.19242"><ele>260.25</ele><time>2026-04-25T09:03:21.724Z</time></trkpt><trkpt lat="43.67782" lon="11.1924767"><ele>260.0</ele><time>2026-04-25T09:03:22.726Z</time></trkpt><trkpt lat="43.6777033" lon="11.19256"><ele>260.0</ele><time>2026-04-25T09:03:23.727Z</time></trkpt><trkpt lat="43.6775917" lon="11.1926333"><ele>260.0</ele><time>2026-04-25T09:03:24.726Z</time></trkpt><trkpt lat="43.67748" lon="11.192735"><ele>260.0</ele><time>2026-04-25T09:03:25.726Z</time></trkpt><trkpt lat="43.6773717" lon="11.1928283"><ele>260.0</ele><time>2026-04-25T09:03:26.725Z</time></trkpt><trkpt lat="43.6772833" lon="11.192935"><ele>260.0</ele><time>2026-04-25T09:03:27.725Z</time></trkpt><trkpt lat="43.6772033" lon="11.1930317"><ele>260.0</ele><time>2026-04-25T09:03:28.726Z</time></trkpt><trkpt lat="43.6771267" lon="11.193125"><ele>260.0</ele><time>2026-04-25T09:03:29.726Z</time></trkpt><trkpt lat="43.6770433" lon="11.193215"><ele>260.0</ele><time>2026-04-25T09:03:30.724Z</time></trkpt><trkpt lat="43.6769517" lon="11.1933033"><ele>260.0</ele><time>2026-04-25T09:03:31.726Z</time></trkpt><trkpt lat="43.67685" lon="11.193385"><ele>260.5</ele><time>2026-04-25T09:03:32.725Z</time></trkpt><trkpt lat="43.67675" lon="11.1934583"><ele>261.0</ele><time>2026-04-25T09:03:33.727Z</time></trkpt><trkpt lat="43.6766533" lon="11.193535"><ele>261.5</ele><time>2026-04-25T09:03:34.726Z</time></trkpt><trkpt lat="43.6765483" lon="11.1936133"><ele>262.0</ele><time>2026-04-25T09:03:35.727Z</time></trkpt><trkpt lat="43.6764367" lon="11.193695"><ele>262.0</ele><time>2026-04-25T09:03:36.726Z</time></trkpt><trkpt lat="43.6763233" lon="11.1937733"><ele>262.0</ele><time>2026-04-25T09:03:37.727Z</time></trkpt><trkpt lat="43.6762167" lon="11.1938467"><ele>262.0</ele><time>2026-04-25T09:03:38.726Z</time></trkpt><trkpt lat="43.6761167" lon="11.193915"><ele>262.0</ele><time>2026-04-25T09:03:39.723Z</time></trkpt><trkpt lat="43.6760217" lon="11.1939783"><ele>260.4</ele><time>2026-04-25T09:03:40.725Z</time></trkpt><trkpt lat="43.6759317" lon="11.19404"><ele>258.79999999999995</ele><time>2026-04-25T09:03:41.726Z</time></trkpt><trkpt lat="43.6758517" lon="11.1940883"><ele>257.2</ele><time>2026-04-25T09:03:42.725Z</time></trkpt><trkpt lat="43.675775" lon="11.1941267"><ele>255.6</ele><time>2026-04-25T09:03:43.726Z</time></trkpt><trkpt lat="43.675675" lon="11.1941583"><ele>254.0</ele><time>2026-04-25T09:03:44.725Z</time></trkpt><trkpt lat="43.6755767" lon="11.19419"><ele>254.00000000000003</ele><time>2026-04-25T09:03:45.726Z</time></trkpt><trkpt lat="43.67549" lon="11.1942133"><ele>254.0</ele><time>2026-04-25T09:03:46.725Z</time></trkpt><trkpt lat="43.6754133" lon="11.1942317"><ele>254.0</ele><time>2026-04-25T09:03:47.726Z</time></trkpt><trkpt lat="43.6753383" lon="11.1942467"><ele>254.0</ele><time>2026-04-25T09:03:48.727Z</time></trkpt><trkpt lat="43.6752667" lon="11.1942567"><ele>254.00000000000003</ele><time>2026-04-25T09:03:49.724Z</time></trkpt><trkpt lat="43.6751967" lon="11.1942583"><ele>254.0</ele><time>2026-04-25T09:03:50.728Z</time></trkpt><trkpt lat="43.6751267" lon="11.1942583"><ele>253.28571428571428</ele><time>2026-04-25T09:03:51.726Z</time></trkpt><trkpt lat="43.6750567" lon="11.1942583"><ele>252.57142857142856</ele><time>2026-04-25T09:03:52.725Z</time></trkpt><trkpt lat="43.67499" lon="11.19425"><ele>251.85714285714283</ele><time>2026-04-25T09:03:53.727Z</time></trkpt><trkpt lat="43.6749267" lon="11.1942517"><ele>251.14285714285714</ele><time>2026-04-25T09:03:54.725Z</time></trkpt><trkpt lat="43.67486" lon="11.1942567"><ele>250.4285714285714</ele><time>2026-04-25T09:03:55.726Z</time></trkpt><trkpt lat="43.6747883" lon="11.1942617"><ele>249.7142857142857</ele><time>2026-04-25T09:03:56.722Z</time></trkpt><trkpt lat="43.6747183" lon="11.19426"><ele>249.0</ele><time>2026-04-25T09:03:57.725Z</time></trkpt><trkpt lat="43.674645" lon="11.1942567"><ele>249.0</ele><time>2026-04-25T09:03:58.726Z</time></trkpt><trkpt lat="43.6745733" lon="11.1942567"><ele>248.99999999999997</ele><time>2026-04-25T09:03:59.725Z</time></trkpt><trkpt lat="43.6745017" lon="11.19426"><ele>249.0</ele><time>2026-04-25T09:04:00.723Z</time></trkpt><trkpt lat="43.6744283" lon="11.19426"><ele>249.0</ele><time>2026-04-25T09:04:01.724Z</time></trkpt><trkpt lat="43.6743533" lon="11.19425"><ele>248.99999999999997</ele><time>2026-04-25T09:04:02.727Z</time></trkpt><trkpt lat="43.67428" lon="11.1942417"><ele>249.0</ele><time>2026-04-25T09:04:03.725Z</time></trkpt><trkpt lat="43.6742067" lon="11.194235"><ele>249.0</ele><time>2026-04-25T09:04:04.723Z</time></trkpt><trkpt lat="43.6741283" lon="11.1942267"><ele>249.85714285714283</ele><time>2026-04-25T09:04:05.726Z</time></trkpt><trkpt lat="43.6740517" lon="11.19422"><ele>250.7142857142857</ele><time>2026-04-25T09:04:06.725Z</time></trkpt><trkpt lat="43.67398" lon="11.19422"><ele>251.57142857142856</ele><time>2026-04-25T09:04:07.724Z</time></trkpt><trkpt lat="43.67391" lon="11.19423"><ele>252.42857142857144</ele><time>2026-04-25T09:04:08.726Z</time></trkpt><trkpt lat="43.6738383" lon="11.1942517"><ele>253.2857142857143</ele><time>2026-04-25T09:04:09.724Z</time></trkpt><trkpt lat="43.6737633" lon="11.1942733"><ele>254.14285714285717</ele><time>2026-04-25T09:04:10.726Z</time></trkpt><trkpt lat="43.6736867" lon="11.1942983"><ele>255.0</ele><time>2026-04-25T09:04:11.726Z</time></trkpt><trkpt lat="43.6736083" lon="11.19433"><ele>256.8</ele><time>2026-04-25T09:04:12.724Z</time></trkpt><trkpt lat="43.6735283" lon="11.194365"><ele>258.6</ele><time>2026-04-25T09:04:13.725Z</time></trkpt><trkpt lat="43.6734467" lon="11.194405"><ele>260.4</ele><time>2026-04-25T09:04:14.726Z</time></trkpt><trkpt lat="43.6733583" lon="11.1944533"><ele>262.2</ele><time>2026-04-25T09:04:15.726Z</time></trkpt><trkpt lat="43.6732633" lon="11.1945033"><ele>264.0</ele><time>2026-04-25T09:04:16.723Z</time></trkpt><trkpt lat="43.67315" lon="11.1945517"><ele>264.0</ele><time>2026-04-25T09:04:17.724Z</time></trkpt><trkpt lat="43.6730233" lon="11.194595"><ele>264.0</ele><time>2026-04-25T09:04:18.724Z</time></trkpt><trkpt lat="43.672885" lon="11.194645"><ele>264.0</ele><time>2026-04-25T09:04:19.724Z</time></trkpt><trkpt lat="43.6727283" lon="11.1946983"><ele>264.0</ele><time>2026-04-25T09:04:20.726Z</time></trkpt><trkpt lat="43.6725617" lon="11.1947483"><ele>264.3333333333333</ele><time>2026-04-25T09:04:21.725Z</time></trkpt><trkpt lat="43.672395" lon="11.19481"><ele>264.66666666666663</ele><time>2026-04-25T09:04:22.725Z</time></trkpt><trkpt lat="43.67223" lon="11.19489"><ele>265.0</ele><time>2026-04-25T09:04:23.725Z</time></trkpt><trkpt lat="43.67207" lon="11.19499"><ele>264.0</ele><time>2026-04-25T09:04:24.725Z</time></trkpt><trkpt lat="43.6719133" lon="11.1951333"><ele>263.0</ele><time>2026-04-25T09:04:25.724Z</time></trkpt><trkpt lat="43.6717667" lon="11.1953067"><ele>262.0</ele><time>2026-04-25T09:04:26.726Z</time></trkpt><trkpt lat="43.6716283" lon="11.1954733"><ele>262.0</ele><time>2026-04-25T09:04:27.724Z</time></trkpt><trkpt lat="43.67148" lon="11.1956317"><ele>262.0</ele><time>2026-04-25T09:04:28.724Z</time></trkpt><trkpt lat="43.67132" lon="11.1957783"><ele>262.0</ele><time>2026-04-25T09:04:29.725Z</time></trkpt><trkpt lat="43.671155" lon="11.1959033"><ele>262.3333333333333</ele><time>2026-04-25T09:04:30.725Z</time></trkpt><trkpt lat="43.67098" lon="11.1960133"><ele>262.6666666666667</ele><time>2026-04-25T09:04:31.725Z</time></trkpt><trkpt lat="43.6708017" lon="11.1961083"><ele>263.0</ele><time>2026-04-25T09:04:32.726Z</time></trkpt><trkpt lat="43.6706317" lon="11.1961917"><ele>263.0</ele><time>2026-04-25T09:04:33.724Z</time></trkpt><trkpt lat="43.6704617" lon="11.1962667"><ele>263.0</ele><time>2026-04-25T09:04:34.726Z</time></trkpt><trkpt lat="43.6702917" lon="11.19635"><ele>263.0</ele><time>2026-04-25T09:04:35.725Z</time></trkpt><trkpt lat="43.6701183" lon="11.1964283"><ele>263.6666666666667</ele><time>2026-04-25T09:04:36.725Z</time></trkpt><trkpt lat="43.6699433" lon="11.196505"><ele>264.3333333333333</ele><time>2026-04-25T09:04:37.723Z</time></trkpt><trkpt lat="43.6697717" lon="11.196575"><ele>265.0</ele><time>2026-04-25T09:04:38.726Z</time></trkpt><trkpt lat="43.669605" lon="11.1966417"><ele>265.0</ele><time>2026-04-25T09:04:39.724Z</time></trkpt><trkpt lat="43.6694433" lon="11.1967"><ele>265.0</ele><time>2026-04-25T09:04:40.724Z</time></trkpt><trkpt lat="43.6692817" lon="11.196745"><ele>265.0</ele><time>2026-04-25T09:04:41.724Z</time></trkpt><trkpt lat="43.66912" lon="11.1967783"><ele>265.0</ele><time>2026-04-25T09:04:42.723Z</time></trkpt><trkpt lat="43.66896" lon="11.196785"><ele>265.0</ele><time>2026-04-25T09:04:43.726Z</time></trkpt><trkpt lat="43.6688033" lon="11.1967517"><ele>265.0</ele><time>2026-04-25T09:04:44.727Z</time></trkpt><trkpt lat="43.6686517" lon="11.1966883"><ele>264.3333333333333</ele><time>2026-04-25T09:04:45.724Z</time></trkpt><trkpt lat="43.6685133" lon="11.1966067"><ele>263.6666666666667</ele><time>2026-04-25T09:04:46.726Z</time></trkpt><trkpt lat="43.6683817" lon="11.1965117"><ele>263.0</ele><time>2026-04-25T09:04:47.723Z</time></trkpt><trkpt lat="43.6682483" lon="11.1964117"><ele>263.0</ele><time>2026-04-25T09:04:48.726Z</time></trkpt><trkpt lat="43.668115" lon="11.1963117"><ele>263.0</ele><time>2026-04-25T09:04:49.725Z</time></trkpt><trkpt lat="43.6679833" lon="11.1962"><ele>263.0</ele><time>2026-04-25T09:04:50.726Z</time></trkpt><trkpt lat="43.6678583" lon="11.1961017"><ele>265.2</ele><time>2026-04-25T09:04:51.724Z</time></trkpt><trkpt lat="43.66775" lon="11.1960117"><ele>267.4</ele><time>2026-04-25T09:04:52.723Z</time></trkpt><trkpt lat="43.667655" lon="11.1959317"><ele>269.59999999999997</ele><time>2026-04-25T09:04:53.724Z</time></trkpt><trkpt lat="43.66757" lon="11.195855"><ele>271.8</ele><time>2026-04-25T09:04:54.724Z</time></trkpt><trkpt lat="43.6674817" lon="11.1957767"><ele>274.0</ele><time>2026-04-25T09:04:55.724Z</time></trkpt><trkpt lat="43.66739" lon="11.1957017"><ele>272.4</ele><time>2026-04-25T09:04:56.725Z</time></trkpt><trkpt lat="43.6672967" lon="11.1956167"><ele>270.79999999999995</ele><time>2026-04-25T09:04:57.724Z</time></trkpt><trkpt lat="43.66721" lon="11.1955233"><ele>269.20000000000005</ele><time>2026-04-25T09:04:58.726Z</time></trkpt><trkpt lat="43.66713" lon="11.195425"><ele>267.6</ele><time>2026-04-25T09:04:59.723Z</time></trkpt><trkpt lat="43.6670483" lon="11.1953267"><ele>266.0</ele><time>2026-04-25T09:05:00.727Z</time></trkpt><trkpt lat="43.6669667" lon="11.195225"><ele>268.75</ele><time>2026-04-25T09:05:01.726Z</time></trkpt><trkpt lat="43.6668883" lon="11.1951117"><ele>271.5</ele><time>2026-04-25T09:05:02.726Z</time></trkpt><trkpt lat="43.6668083" lon="11.1949883"><ele>274.25</ele><time>2026-04-25T09:05:03.723Z</time></trkpt><trkpt lat="43.66672" lon="11.1948617"><ele>277.0</ele><time>2026-04-25T09:05:04.725Z</time></trkpt><trkpt lat="43.6666283" lon="11.1947383"><ele>277.0</ele><time>2026-04-25T09:05:05.725Z</time></trkpt><trkpt lat="43.6665367" lon="11.19461"><ele>277.0</ele><time>2026-04-25T09:05:06.726Z</time></trkpt><trkpt lat="43.6664467" lon="11.1944833"><ele>277.0</ele><time>2026-04-25T09:05:07.726Z</time></trkpt><trkpt lat="43.6663567" lon="11.1943533"><ele>277.0</ele><time>2026-04-25T09:05:08.726Z</time></trkpt><trkpt lat="43.6662667" lon="11.1942317"><ele>277.0</ele><time>2026-04-25T09:05:09.725Z</time></trkpt><trkpt lat="43.6661767" lon="11.1941083"><ele>277.0</ele><time>2026-04-25T09:05:10.723Z</time></trkpt><trkpt lat="43.6660867" lon="11.1939767"><ele>277.0</ele><time>2026-04-25T09:05:11.723Z</time></trkpt><trkpt lat="43.6659933" lon="11.1938533"><ele>277.0</ele><time>2026-04-25T09:05:12.723Z</time></trkpt><trkpt lat="43.6658983" lon="11.1937267"><ele>279.5</ele><time>2026-04-25T09:05:13.725Z</time></trkpt><trkpt lat="43.6658017" lon="11.1936083"><ele>282.0</ele><time>2026-04-25T09:05:14.724Z</time></trkpt><trkpt lat="43.6657067" lon="11.1934733"><ele>284.5</ele><time>2026-04-25T09:05:15.723Z</time></trkpt><trkpt lat="43.6656117" lon="11.19333"><ele>287.0</ele><time>2026-04-25T09:05:16.727Z</time></trkpt><trkpt lat="43.6655117" lon="11.193185"><ele>288.25</ele><time>2026-04-25T09:05:17.725Z</time></trkpt><trkpt lat="43.665405" lon="11.1930433"><ele>289.5</ele><time>2026-04-25T09:05:18.725Z</time></trkpt><trkpt lat="43.6652967" lon="11.1929017"><ele>290.75</ele><time>2026-04-25T09:05:19.726Z</time></trkpt><trkpt lat="43.665185" lon="11.1927633"><ele>292.0</ele><time>2026-04-25T09:05:20.724Z</time></trkpt><trkpt lat="43.6650683" lon="11.1926283"><ele>290.25</ele><time>2026-04-25T09:05:21.724Z</time></trkpt><trkpt lat="43.664955" lon="11.1924883"><ele>288.5</ele><time>2026-04-25T09:05:22.727Z</time></trkpt><trkpt lat="43.6648433" lon="11.1923617"><ele>286.75</ele><time>2026-04-25T09:05:23.723Z</time></trkpt><trkpt lat="43.6647283" lon="11.192235"><ele>285.0</ele><time>2026-04-25T09:05:24.724Z</time></trkpt><trkpt lat="43.664615" lon="11.192115"><ele>285.0</ele><time>2026-04-25T09:05:25.724Z</time></trkpt><trkpt lat="43.6645017" lon="11.1920033"><ele>285.0</ele><time>2026-04-25T09:05:26.725Z</time></trkpt><trkpt lat="43.6643917" lon="11.1918967"><ele>285.0</ele><time>2026-04-25T09:05:27.724Z</time></trkpt><trkpt lat="43.6642867" lon="11.1917983"><ele>285.0</ele><time>2026-04-25T09:05:28.726Z</time></trkpt><trkpt lat="43.6641817" lon="11.1917017"><ele>284.25</ele><time>2026-04-25T09:05:29.726Z</time></trkpt><trkpt lat="43.66407" lon="11.1916067"><ele>283.5</ele><time>2026-04-25T09:05:30.725Z</time></trkpt><trkpt lat="43.6639533" lon="11.1915167"><ele>282.75</ele><time>2026-04-25T09:05:31.725Z</time></trkpt><trkpt lat="43.6638383" lon="11.1914433"><ele>282.0</ele><time>2026-04-25T09:05:32.724Z</time></trkpt><trkpt lat="43.6637167" lon="11.1913833"><ele>281.75</ele><time>2026-04-25T09:05:33.724Z</time></trkpt><trkpt lat="43.66359" lon="11.1913533"><ele>281.5</ele><time>2026-04-25T09:05:34.726Z</time></trkpt><trkpt lat="43.663465" lon="11.1913183"><ele>281.25</ele><time>2026-04-25T09:05:35.723Z</time></trkpt><trkpt lat="43.6633433" lon="11.19131"><ele>281.0</ele><time>2026-04-25T09:05:36.726Z</time></trkpt><trkpt lat="43.6632267" lon="11.1912917"><ele>281.0</ele><time>2026-04-25T09:05:37.725Z</time></trkpt><trkpt lat="43.6631183" lon="11.1912767"><ele>281.0</ele><time>2026-04-25T09:05:38.725Z</time></trkpt><trkpt lat="43.6630183" lon="11.191265"><ele>281.0</ele><time>2026-04-25T09:05:39.724Z</time></trkpt><trkpt lat="43.6629183" lon="11.1912567"><ele>281.0</ele><time>2026-04-25T09:05:40.724Z</time></trkpt><trkpt lat="43.66282" lon="11.1912383"><ele>281.0</ele><time>2026-04-25T09:05:41.728Z</time></trkpt><trkpt lat="43.6627233" lon="11.19122"><ele>281.6666666666667</ele><time>2026-04-25T09:05:42.725Z</time></trkpt><trkpt lat="43.6626333" lon="11.1912"><ele>282.33333333333337</ele><time>2026-04-25T09:05:43.724Z</time></trkpt><trkpt lat="43.6625583" lon="11.19119"><ele>283.0</ele><time>2026-04-25T09:05:44.726Z</time></trkpt><trkpt lat="43.6624667" lon="11.1911717"><ele>283.6666666666667</ele><time>2026-04-25T09:05:46.723Z</time></trkpt><trkpt lat="43.6623933" lon="11.1911183"><ele>284.3333333333333</ele><time>2026-04-25T09:05:48.723Z</time></trkpt><trkpt lat="43.6623367" lon="11.1910767"><ele>285.0</ele><time>2026-04-25T09:05:49.725Z</time></trkpt><trkpt lat="43.6622683" lon="11.191025"><ele>285.0</ele><time>2026-04-25T09:05:50.724Z</time></trkpt><trkpt lat="43.6621917" lon="11.1909783"><ele>285.0</ele><time>2026-04-25T09:05:51.725Z</time></trkpt><trkpt lat="43.6621" lon="11.1909333"><ele>285.0</ele><time>2026-04-25T09:05:52.725Z</time></trkpt><trkpt lat="43.6619917" lon="11.1908783"><ele>285.0</ele><time>2026-04-25T09:05:53.725Z</time></trkpt><trkpt lat="43.6618683" lon="11.1908183"><ele>285.0</ele><time>2026-04-25T09:05:54.724Z</time></trkpt><trkpt lat="43.6617383" lon="11.190765"><ele>285.0</ele><time>2026-04-25T09:05:55.726Z</time></trkpt><trkpt lat="43.6616067" lon="11.19072"><ele>285.0</ele><time>2026-04-25T09:05:56.725Z</time></trkpt><trkpt lat="43.6614667" lon="11.1906867"><ele>285.0</ele><time>2026-04-25T09:05:57.725Z</time></trkpt><trkpt lat="43.6613183" lon="11.1906667"><ele>285.0</ele><time>2026-04-25T09:05:58.726Z</time></trkpt><trkpt lat="43.661185" lon="11.190635"><ele>286.5</ele><time>2026-04-25T09:05:59.727Z</time></trkpt><trkpt lat="43.661045" lon="11.1906033"><ele>288.0</ele><time>2026-04-25T09:06:00.725Z</time></trkpt><trkpt lat="43.6609017" lon="11.19057"><ele>289.5</ele><time>2026-04-25T09:06:01.726Z</time></trkpt><trkpt lat="43.6607617" lon="11.19053"><ele>291.0</ele><time>2026-04-25T09:06:02.725Z</time></trkpt><trkpt lat="43.6606233" lon="11.190485"><ele>291.0</ele><time>2026-04-25T09:06:03.724Z</time></trkpt><trkpt lat="43.6604917" lon="11.1904233"><ele>291.0</ele><time>2026-04-25T09:06:04.724Z</time></trkpt><trkpt lat="43.6603667" lon="11.1903367"><ele>291.0</ele><time>2026-04-25T09:06:05.729Z</time></trkpt><trkpt lat="43.6602517" lon="11.1902433"><ele>291.0</ele><time>2026-04-25T09:06:06.725Z</time></trkpt><trkpt lat="43.6601533" lon="11.1901483"><ele>292.25</ele><time>2026-04-25T09:06:07.725Z</time></trkpt><trkpt lat="43.66006" lon="11.190055"><ele>293.5</ele><time>2026-04-25T09:06:08.727Z</time></trkpt><trkpt lat="43.6599683" lon="11.1899583"><ele>294.75</ele><time>2026-04-25T09:06:09.727Z</time></trkpt><trkpt lat="43.6598733" lon="11.1898683"><ele>296.0</ele><time>2026-04-25T09:06:10.724Z</time></trkpt><trkpt lat="43.659785" lon="11.1897767"><ele>296.0</ele><time>2026-04-25T09:06:11.723Z</time></trkpt><trkpt lat="43.65969" lon="11.18969"><ele>296.0</ele><time>2026-04-25T09:06:12.723Z</time></trkpt><trkpt lat="43.659595" lon="11.1896117"><ele>296.0</ele><time>2026-04-25T09:06:13.725Z</time></trkpt><trkpt lat="43.6595" lon="11.1895483"><ele>296.0</ele><time>2026-04-25T09:06:14.725Z</time></trkpt><trkpt lat="43.659405" lon="11.1895"><ele>296.0</ele><time>2026-04-25T09:06:15.724Z</time></trkpt><trkpt lat="43.6593117" lon="11.1894567"><ele>297.1666666666667</ele><time>2026-04-25T09:06:16.724Z</time></trkpt><trkpt lat="43.6592217" lon="11.1894083"><ele>298.33333333333337</ele><time>2026-04-25T09:06:17.724Z</time></trkpt><trkpt lat="43.659135" lon="11.1893467"><ele>299.5</ele><time>2026-04-25T09:06:18.725Z</time></trkpt><trkpt lat="43.6590533" lon="11.18929"><ele>300.6666666666667</ele><time>2026-04-25T09:06:19.725Z</time></trkpt><trkpt lat="43.6589767" lon="11.1892433"><ele>301.8333333333333</ele><time>2026-04-25T09:06:20.725Z</time></trkpt><trkpt lat="43.6589117" lon="11.1892"><ele>303.0</ele><time>2026-04-25T09:06:21.726Z</time></trkpt><trkpt lat="43.6588483" lon="11.189155"><ele>303.0</ele><time>2026-04-25T09:06:22.724Z</time></trkpt><trkpt lat="43.6587533" lon="11.1890517"><ele>303.0</ele><time>2026-04-25T09:06:24.726Z</time></trkpt><trkpt lat="43.6586967" lon="11.1889817"><ele>303.0</ele><time>2026-04-25T09:06:26.725Z</time></trkpt><trkpt lat="43.6586467" lon="11.1889133"><ele>303.0</ele><time>2026-04-25T09:06:38.724Z</time></trkpt><trkpt lat="43.65859" lon="11.1888233"><ele>303.0</ele><time>2026-04-25T09:06:42.724Z</time></trkpt><trkpt lat="43.6585417" lon="11.1887517"><ele>303.0</ele><time>2026-04-25T09:06:44.726Z</time></trkpt><trkpt lat="43.6585017" lon="11.1886733"><ele>303.3333333333333</ele><time>2026-04-25T09:06:46.725Z</time></trkpt><trkpt lat="43.65846" lon="11.1885933"><ele>303.6666666666667</ele><time>2026-04-25T09:06:48.726Z</time></trkpt><trkpt lat="43.6584" lon="11.1885067"><ele>304.0</ele><time>2026-04-25T09:06:50.725Z</time></trkpt><trkpt lat="43.6583233" lon="11.1884633"><ele>304.33333333333337</ele><time>2026-04-25T09:06:52.724Z</time></trkpt><trkpt lat="43.6582467" lon="11.1884383"><ele>304.6666666666667</ele><time>2026-04-25T09:06:54.725Z</time></trkpt><trkpt lat="43.6581483" lon="11.1884067"><ele>305.0</ele><time>2026-04-25T09:06:56.725Z</time></trkpt><trkpt lat="43.6580267" lon="11.1883367"><ele>305.0</ele><time>2026-04-25T09:06:58.725Z</time></trkpt><trkpt lat="43.65796" lon="11.1883017"><ele>305.0</ele><time>2026-04-25T09:06:59.727Z</time></trkpt><trkpt lat="43.65789" lon="11.188265"><ele>305.0</ele><time>2026-04-25T09:07:00.727Z</time></trkpt><trkpt lat="43.6578167" lon="11.188225"><ele>305.0</ele><time>2026-04-25T09:07:01.725Z</time></trkpt><trkpt lat="43.657745" lon="11.1881867"><ele>305.0</ele><time>2026-04-25T09:07:02.726Z</time></trkpt><trkpt lat="43.6576667" lon="11.1881533"><ele>305.0</ele><time>2026-04-25T09:07:03.725Z</time></trkpt><trkpt lat="43.65758" lon="11.1881167"><ele>306.0</ele><time>2026-04-25T09:07:04.725Z</time></trkpt><trkpt lat="43.6574483" lon="11.18806"><ele>307.0</ele><time>2026-04-25T09:07:05.727Z</time></trkpt><trkpt lat="43.657305" lon="11.1879833"><ele>308.0</ele><time>2026-04-25T09:07:06.723Z</time></trkpt><trkpt lat="43.657165" lon="11.1878983"><ele>309.0</ele><time>2026-04-25T09:07:07.726Z</time></trkpt><trkpt lat="43.6570367" lon="11.1878217"><ele>308.25</ele><time>2026-04-25T09:07:08.726Z</time></trkpt><trkpt lat="43.656915" lon="11.1877433"><ele>307.5</ele><time>2026-04-25T09:07:09.724Z</time></trkpt><trkpt lat="43.6567917" lon="11.18768"><ele>306.75</ele><time>2026-04-25T09:07:10.726Z</time></trkpt><trkpt lat="43.6566683" lon="11.1876217"><ele>306.0</ele><time>2026-04-25T09:07:11.725Z</time></trkpt><trkpt lat="43.6565483" lon="11.187585"><ele>306.0</ele><time>2026-04-25T09:07:12.724Z</time></trkpt><trkpt lat="43.6564283" lon="11.1875567"><ele>306.0</ele><time>2026-04-25T09:07:13.726Z</time></trkpt><trkpt lat="43.6563133" lon="11.1875317"><ele>306.0</ele><time>2026-04-25T09:07:14.726Z</time></trkpt><trkpt lat="43.6562" lon="11.1875033"><ele>306.0</ele><time>2026-04-25T09:07:15.727Z</time></trkpt><trkpt lat="43.6560833" lon="11.1874917"><ele>305.40000000000003</ele><time>2026-04-25T09:07:16.723Z</time></trkpt><trkpt lat="43.65597" lon="11.1875083"><ele>304.8</ele><time>2026-04-25T09:07:17.725Z</time></trkpt><trkpt lat="43.6558633" lon="11.1875217"><ele>304.20000000000005</ele><time>2026-04-25T09:07:18.726Z</time></trkpt><trkpt lat="43.6557583" lon="11.1875233"><ele>303.6</ele><time>2026-04-25T09:07:19.724Z</time></trkpt><trkpt lat="43.655655" lon="11.1875083"><ele>303.0</ele><time>2026-04-25T09:07:20.724Z</time></trkpt><trkpt lat="43.6555517" lon="11.18748"><ele>303.0</ele><time>2026-04-25T09:07:21.724Z</time></trkpt><trkpt lat="43.6554517" lon="11.18743"><ele>303.0</ele><time>2026-04-25T09:07:22.723Z</time></trkpt><trkpt lat="43.6553467" lon="11.1873767"><ele>303.0</ele><time>2026-04-25T09:07:23.725Z</time></trkpt><trkpt lat="43.6552333" lon="11.18731"><ele>303.0</ele><time>2026-04-25T09:07:24.725Z</time></trkpt><trkpt lat="43.6551" lon="11.1872283"><ele>301.6666666666667</ele><time>2026-04-25T09:07:25.727Z</time></trkpt><trkpt lat="43.6549667" lon="11.1871367"><ele>300.33333333333337</ele><time>2026-04-25T09:07:26.727Z</time></trkpt><trkpt lat="43.6548133" lon="11.1870683"><ele>299.0</ele><time>2026-04-25T09:07:27.727Z</time></trkpt><trkpt lat="43.654655" lon="11.1870133"><ele>299.0</ele><time>2026-04-25T09:07:28.726Z</time></trkpt><trkpt lat="43.6544983" lon="11.1869983"><ele>299.0</ele><time>2026-04-25T09:07:29.725Z</time></trkpt><trkpt lat="43.6543383" lon="11.18702"><ele>299.0</ele><time>2026-04-25T09:07:30.725Z</time></trkpt><trkpt lat="43.6541783" lon="11.187055"><ele>295.0</ele><time>2026-04-25T09:07:31.725Z</time></trkpt><trkpt lat="43.6540133" lon="11.1871117"><ele>291.0</ele><time>2026-04-25T09:07:32.726Z</time></trkpt><trkpt lat="43.6538517" lon="11.1871817"><ele>287.0</ele><time>2026-04-25T09:07:33.725Z</time></trkpt><trkpt lat="43.6536967" lon="11.187255"><ele>284.0</ele><time>2026-04-25T09:07:34.725Z</time></trkpt><trkpt lat="43.6535417" lon="11.187315"><ele>281.0</ele><time>2026-04-25T09:07:35.724Z</time></trkpt><trkpt lat="43.6533917" lon="11.18734"><ele>278.0</ele><time>2026-04-25T09:07:36.725Z</time></trkpt><trkpt lat="43.65324" lon="11.1873233"><ele>278.0</ele><time>2026-04-25T09:07:37.725Z</time></trkpt><trkpt lat="43.6530867" lon="11.1872817"><ele>278.0</ele><time>2026-04-25T09:07:38.726Z</time></trkpt><trkpt lat="43.6529383" lon="11.1872083"><ele>278.0</ele><time>2026-04-25T09:07:39.726Z</time></trkpt><trkpt lat="43.65279" lon="11.1871283"><ele>277.75</ele><time>2026-04-25T09:07:40.724Z</time></trkpt><trkpt lat="43.6526467" lon="11.1870683"><ele>277.5</ele><time>2026-04-25T09:07:41.725Z</time></trkpt><trkpt lat="43.6525067" lon="11.18706"><ele>277.25</ele><time>2026-04-25T09:07:42.724Z</time></trkpt><trkpt lat="43.6523833" lon="11.1871017"><ele>277.0</ele><time>2026-04-25T09:07:43.724Z</time></trkpt><trkpt lat="43.652285" lon="11.1871983"><ele>281.0</ele><time>2026-04-25T09:07:44.726Z</time></trkpt><trkpt lat="43.6521983" lon="11.1873517"><ele>285.0</ele><time>2026-04-25T09:07:45.726Z</time></trkpt><trkpt lat="43.65214" lon="11.1875417"><ele>289.0</ele><time>2026-04-25T09:07:46.726Z</time></trkpt><trkpt lat="43.652095" lon="11.187755"><ele>289.0</ele><time>2026-04-25T09:07:47.726Z</time></trkpt><trkpt lat="43.6520567" lon="11.18798"><ele>289.0</ele><time>2026-04-25T09:07:48.725Z</time></trkpt><trkpt lat="43.65203" lon="11.1881967"><ele>289.0</ele><time>2026-04-25T09:07:49.725Z</time></trkpt><trkpt lat="43.65202" lon="11.1884"><ele>287.75</ele><time>2026-04-25T09:07:50.725Z</time></trkpt><trkpt lat="43.6520483" lon="11.188585"><ele>286.5</ele><time>2026-04-25T09:07:51.724Z</time></trkpt><trkpt lat="43.65212" lon="11.18876"><ele>285.25</ele><time>2026-04-25T09:07:52.724Z</time></trkpt><trkpt lat="43.652235" lon="11.1889"><ele>284.0</ele><time>2026-04-25T09:07:53.726Z</time></trkpt><trkpt lat="43.652375" lon="11.18899"><ele>279.33333333333337</ele><time>2026-04-25T09:07:54.726Z</time></trkpt><trkpt lat="43.65252" lon="11.1890617"><ele>274.6666666666667</ele><time>2026-04-25T09:07:55.725Z</time></trkpt><trkpt lat="43.6526483" lon="11.1891533"><ele>270.0</ele><time>2026-04-25T09:07:56.726Z</time></trkpt><trkpt lat="43.6527617" lon="11.1892917"><ele>273.6666666666667</ele><time>2026-04-25T09:07:57.725Z</time></trkpt><trkpt lat="43.6528467" lon="11.1894733"><ele>277.33333333333337</ele><time>2026-04-25T09:07:58.725Z</time></trkpt><trkpt lat="43.652895" lon="11.1896817"><ele>281.0</ele><time>2026-04-25T09:07:59.725Z</time></trkpt><trkpt lat="43.65291" lon="11.189915"><ele>281.0</ele><time>2026-04-25T09:08:00.724Z</time></trkpt><trkpt lat="43.6529183" lon="11.19016"><ele>281.0</ele><time>2026-04-25T09:08:01.724Z</time></trkpt><trkpt lat="43.6529517" lon="11.1904083"><ele>281.0</ele><time>2026-04-25T09:08:02.725Z</time></trkpt><trkpt lat="43.6530267" lon="11.1906517"><ele>278.0</ele><time>2026-04-25T09:08:03.724Z</time></trkpt><trkpt lat="43.6531433" lon="11.19088"><ele>275.0</ele><time>2026-04-25T09:08:04.724Z</time></trkpt><trkpt lat="43.6532767" lon="11.1910833"><ele>272.0</ele><time>2026-04-25T09:08:05.726Z</time></trkpt><trkpt lat="43.6534117" lon="11.191275"><ele>272.0</ele><time>2026-04-25T09:08:06.726Z</time></trkpt><trkpt lat="43.6535267" lon="11.19145"><ele>272.0</ele><time>2026-04-25T09:08:07.725Z</time></trkpt><trkpt lat="43.653605" lon="11.1916383"><ele>272.0</ele><time>2026-04-25T09:08:08.725Z</time></trkpt><trkpt lat="43.6536433" lon="11.1918283"><ele>273.0</ele><time>2026-04-25T09:08:09.726Z</time></trkpt><trkpt lat="43.6536283" lon="11.1920317"><ele>274.0</ele><time>2026-04-25T09:08:10.726Z</time></trkpt><trkpt lat="43.6535667" lon="11.19222"><ele>275.0</ele><time>2026-04-25T09:08:11.728Z</time></trkpt><trkpt lat="43.6534567" lon="11.1923933"><ele>270.6666666666667</ele><time>2026-04-25T09:08:12.726Z</time></trkpt><trkpt lat="43.6533233" lon="11.192565"><ele>266.3333333333333</ele><time>2026-04-25T09:08:13.726Z</time></trkpt><trkpt lat="43.65319" lon="11.19273"><ele>262.0</ele><time>2026-04-25T09:08:14.723Z</time></trkpt><trkpt lat="43.653055" lon="11.192865"><ele>262.0</ele><time>2026-04-25T09:08:15.726Z</time></trkpt><trkpt lat="43.6529133" lon="11.1929583"><ele>262.0</ele><time>2026-04-25T09:08:16.725Z</time></trkpt><trkpt lat="43.6527683" lon="11.193"><ele>262.0</ele><time>2026-04-25T09:08:17.723Z</time></trkpt><trkpt lat="43.65262" lon="11.1929783"><ele>264.0</ele><time>2026-04-25T09:08:18.726Z</time></trkpt><trkpt lat="43.6524883" lon="11.1928717"><ele>266.0</ele><time>2026-04-25T09:08:19.725Z</time></trkpt><trkpt lat="43.6523683" lon="11.192705"><ele>268.0</ele><time>2026-04-25T09:08:20.725Z</time></trkpt><trkpt lat="43.6522617" lon="11.19248"><ele>268.3333333333333</ele><time>2026-04-25T09:08:21.725Z</time></trkpt><trkpt lat="43.6521633" lon="11.1922267"><ele>268.6666666666667</ele><time>2026-04-25T09:08:22.723Z</time></trkpt><trkpt lat="43.6520567" lon="11.1919817"><ele>269.0</ele><time>2026-04-25T09:08:23.725Z</time></trkpt><trkpt lat="43.6519483" lon="11.19175"><ele>269.0</ele><time>2026-04-25T09:08:24.724Z</time></trkpt><trkpt lat="43.651845" lon="11.1915383"><ele>269.0</ele><time>2026-04-25T09:08:25.726Z</time></trkpt><trkpt lat="43.6517317" lon="11.19136"><ele>269.0</ele><time>2026-04-25T09:08:26.724Z</time></trkpt><trkpt lat="43.651605" lon="11.1912283"><ele>262.33333333333337</ele><time>2026-04-25T09:08:27.724Z</time></trkpt><trkpt lat="43.6514667" lon="11.191145"><ele>255.66666666666669</ele><time>2026-04-25T09:08:28.724Z</time></trkpt><trkpt lat="43.6513083" lon="11.1911467"><ele>249.0</ele><time>2026-04-25T09:08:29.723Z</time></trkpt><trkpt lat="43.65115" lon="11.1912417"><ele>249.25</ele><time>2026-04-25T09:08:30.726Z</time></trkpt><trkpt lat="43.6510067" lon="11.1913483"><ele>249.5</ele><time>2026-04-25T09:08:31.724Z</time></trkpt><trkpt lat="43.6508717" lon="11.1914183"><ele>249.75</ele><time>2026-04-25T09:08:32.727Z</time></trkpt><trkpt lat="43.65073" lon="11.19142"><ele>250.0</ele><time>2026-04-25T09:08:33.728Z</time></trkpt><trkpt lat="43.6506133" lon="11.1913433"><ele>250.0</ele><time>2026-04-25T09:08:34.728Z</time></trkpt><trkpt lat="43.6505183" lon="11.1911983"><ele>250.0</ele><time>2026-04-25T09:08:35.728Z</time></trkpt><trkpt lat="43.6504567" lon="11.19101"><ele>250.0</ele><time>2026-04-25T09:08:36.725Z</time></trkpt><trkpt lat="43.6504167" lon="11.190795"><ele>248.33333333333331</ele><time>2026-04-25T09:08:37.725Z</time></trkpt><trkpt lat="43.65038" lon="11.1905783"><ele>246.66666666666669</ele><time>2026-04-25T09:08:38.725Z</time></trkpt><trkpt lat="43.6503467" lon="11.19037"><ele>245.0</ele><time>2026-04-25T09:08:39.726Z</time></trkpt><trkpt lat="43.6503133" lon="11.1901833"><ele>248.75</ele><time>2026-04-25T09:08:40.725Z</time></trkpt><trkpt lat="43.65027" lon="11.1900083"><ele>252.5</ele><time>2026-04-25T09:08:41.725Z</time></trkpt><trkpt lat="43.65022" lon="11.1898583"><ele>256.25</ele><time>2026-04-25T09:08:42.725Z</time></trkpt><trkpt lat="43.650165" lon="11.189725"><ele>260.0</ele><time>2026-04-25T09:08:43.725Z</time></trkpt><trkpt lat="43.65011" lon="11.189595"><ele>260.0</ele><time>2026-04-25T09:08:44.725Z</time></trkpt><trkpt lat="43.65004" lon="11.189465"><ele>260.0</ele><time>2026-04-25T09:08:45.725Z</time></trkpt><trkpt lat="43.6499683" lon="11.18929"><ele>260.0</ele><time>2026-04-25T09:08:46.724Z</time></trkpt><trkpt lat="43.6498883" lon="11.1890667"><ele>260.0</ele><time>2026-04-25T09:08:47.726Z</time></trkpt><trkpt lat="43.6497917" lon="11.1888333"><ele>255.0</ele><time>2026-04-25T09:08:48.726Z</time></trkpt><trkpt lat="43.6496883" lon="11.188605"><ele>250.0</ele><time>2026-04-25T09:08:49.725Z</time></trkpt><trkpt lat="43.6495817" lon="11.1883767"><ele>245.0</ele><time>2026-04-25T09:08:50.724Z</time></trkpt><trkpt lat="43.64947" lon="11.1881567"><ele>247.33333333333334</ele><time>2026-04-25T09:08:51.726Z</time></trkpt><trkpt lat="43.649365" lon="11.1879467"><ele>249.66666666666669</ele><time>2026-04-25T09:08:52.727Z</time></trkpt><trkpt lat="43.6492733" lon="11.1877233"><ele>252.0</ele><time>2026-04-25T09:08:53.723Z</time></trkpt><trkpt lat="43.6492117" lon="11.187485"><ele>250.33333333333331</ele><time>2026-04-25T09:08:54.725Z</time></trkpt><trkpt lat="43.649175" lon="11.1872383"><ele>248.66666666666666</ele><time>2026-04-25T09:08:55.725Z</time></trkpt><trkpt lat="43.6491583" lon="11.1869817"><ele>247.0</ele><time>2026-04-25T09:08:56.723Z</time></trkpt><trkpt lat="43.64916" lon="11.18671"><ele>244.33333333333331</ele><time>2026-04-25T09:08:57.724Z</time></trkpt><trkpt lat="43.6491583" lon="11.1864267"><ele>241.66666666666669</ele><time>2026-04-25T09:08:58.726Z</time></trkpt><trkpt lat="43.6491117" lon="11.1861683"><ele>239.0</ele><time>2026-04-25T09:08:59.725Z</time></trkpt><trkpt lat="43.6490383" lon="11.18591"><ele>235.0</ele><time>2026-04-25T09:09:00.725Z</time></trkpt><trkpt lat="43.6489433" lon="11.1856683"><ele>231.0</ele><time>2026-04-25T09:09:01.723Z</time></trkpt><trkpt lat="43.64884" lon="11.18543"><ele>227.0</ele><time>2026-04-25T09:09:02.725Z</time></trkpt><trkpt lat="43.6487583" lon="11.1851833"><ele>227.0</ele><time>2026-04-25T09:09:03.724Z</time></trkpt><trkpt lat="43.6487067" lon="11.1849333"><ele>227.0</ele><time>2026-04-25T09:09:04.724Z</time></trkpt><trkpt lat="43.6486533" lon="11.1846833"><ele>227.0</ele><time>2026-04-25T09:09:05.724Z</time></trkpt><trkpt lat="43.64859" lon="11.1844283"><ele>225.66666666666669</ele><time>2026-04-25T09:09:06.725Z</time></trkpt><trkpt lat="43.6484983" lon="11.184175"><ele>224.33333333333331</ele><time>2026-04-25T09:09:07.723Z</time></trkpt><trkpt lat="43.6483683" lon="11.1839283"><ele>223.0</ele><time>2026-04-25T09:09:08.725Z</time></trkpt><trkpt lat="43.6482367" lon="11.1836917"><ele>223.0</ele><time>2026-04-25T09:09:09.725Z</time></trkpt><trkpt lat="43.648095" lon="11.1834617"><ele>223.0</ele><time>2026-04-25T09:09:10.726Z</time></trkpt><trkpt lat="43.64796" lon="11.1832383"><ele>223.0</ele><time>2026-04-25T09:09:11.723Z</time></trkpt><trkpt lat="43.64784" lon="11.1830133"><ele>223.66666666666666</ele><time>2026-04-25T09:09:12.724Z</time></trkpt><trkpt lat="43.647725" lon="11.1827983"><ele>224.33333333333331</ele><time>2026-04-25T09:09:13.727Z</time></trkpt><trkpt lat="43.6475733" lon="11.1826017"><ele>225.0</ele><time>2026-04-25T09:09:14.724Z</time></trkpt><trkpt lat="43.6474317" lon="11.18243"><ele>223.0</ele><time>2026-04-25T09:09:15.723Z</time></trkpt><trkpt lat="43.647255" lon="11.1823033"><ele>221.0</ele><time>2026-04-25T09:09:16.725Z</time></trkpt><trkpt lat="43.6470633" lon="11.1821833"><ele>219.0</ele><time>2026-04-25T09:09:17.727Z</time></trkpt><trkpt lat="43.64686" lon="11.1820433"><ele>219.0</ele><time>2026-04-25T09:09:18.725Z</time></trkpt><trkpt lat="43.6467017" lon="11.1818517"><ele>219.0</ele><time>2026-04-25T09:09:19.723Z</time></trkpt><trkpt lat="43.64655" lon="11.181645"><ele>219.0</ele><time>2026-04-25T09:09:20.725Z</time></trkpt><trkpt lat="43.6463867" lon="11.18144"><ele>217.0</ele><time>2026-04-25T09:09:21.724Z</time></trkpt><trkpt lat="43.646215" lon="11.181255"><ele>215.0</ele><time>2026-04-25T09:09:22.722Z</time></trkpt><trkpt lat="43.6460433" lon="11.1810783"><ele>213.0</ele><time>2026-04-25T09:09:23.724Z</time></trkpt><trkpt lat="43.6458717" lon="11.1809033"><ele>213.0</ele><time>2026-04-25T09:09:24.725Z</time></trkpt><trkpt lat="43.6457217" lon="11.1807183"><ele>213.0</ele><time>2026-04-25T09:09:25.723Z</time></trkpt><trkpt lat="43.6455817" lon="11.1805417"><ele>213.0</ele><time>2026-04-25T09:09:26.723Z</time></trkpt><trkpt lat="43.6454283" lon="11.1804117"><ele>210.0</ele><time>2026-04-25T09:09:27.724Z</time></trkpt><trkpt lat="43.6452717" lon="11.1803"><ele>207.0</ele><time>2026-04-25T09:09:28.723Z</time></trkpt><trkpt lat="43.645105" lon="11.1802067"><ele>204.0</ele><time>2026-04-25T09:09:29.724Z</time></trkpt><trkpt lat="43.6449333" lon="11.180105"><ele>204.0</ele><time>2026-04-25T09:09:30.725Z</time></trkpt><trkpt lat="43.6447617" lon="11.1799817"><ele>204.0</ele><time>2026-04-25T09:09:31.724Z</time></trkpt><trkpt lat="43.6446017" lon="11.1798217"><ele>204.0</ele><time>2026-04-25T09:09:32.725Z</time></trkpt><trkpt lat="43.6444467" lon="11.1796333"><ele>202.0</ele><time>2026-04-25T09:09:33.723Z</time></trkpt><trkpt lat="43.644285" lon="11.1794317"><ele>200.0</ele><time>2026-04-25T09:09:34.726Z</time></trkpt><trkpt lat="43.644125" lon="11.1792267"><ele>198.0</ele><time>2026-04-25T09:09:35.723Z</time></trkpt><trkpt lat="43.64396" lon="11.1790167"><ele>197.0</ele><time>2026-04-25T09:09:36.725Z</time></trkpt><trkpt lat="43.6438017" lon="11.1787933"><ele>196.0</ele><time>2026-04-25T09:09:37.726Z</time></trkpt><trkpt lat="43.6436483" lon="11.178575"><ele>195.0</ele><time>2026-04-25T09:09:38.725Z</time></trkpt><trkpt lat="43.643505" lon="11.1783567"><ele>190.66666666666666</ele><time>2026-04-25T09:09:39.723Z</time></trkpt><trkpt lat="43.6433733" lon="11.1781417"><ele>186.33333333333331</ele><time>2026-04-25T09:09:40.724Z</time></trkpt><trkpt lat="43.6432467" lon="11.177935"><ele>182.0</ele><time>2026-04-25T09:09:41.724Z</time></trkpt><trkpt lat="43.6431167" lon="11.1777333"><ele>182.0</ele><time>2026-04-25T09:09:42.725Z</time></trkpt><trkpt lat="43.6429783" lon="11.1775317"><ele>182.0</ele><time>2026-04-25T09:09:43.724Z</time></trkpt><trkpt lat="43.6428367" lon="11.1773333"><ele>182.0</ele><time>2026-04-25T09:09:44.725Z</time></trkpt><trkpt lat="43.6427067" lon="11.1771283"><ele>182.66666666666666</ele><time>2026-04-25T09:09:45.724Z</time></trkpt><trkpt lat="43.6425967" lon="11.1769083"><ele>183.33333333333334</ele><time>2026-04-25T09:09:46.726Z</time></trkpt><trkpt lat="43.6425067" lon="11.176665"><ele>184.0</ele><time>2026-04-25T09:09:47.724Z</time></trkpt><trkpt lat="43.6424333" lon="11.1764067"><ele>181.0</ele><time>2026-04-25T09:09:48.725Z</time></trkpt><trkpt lat="43.6423717" lon="11.176135"><ele>178.0</ele><time>2026-04-25T09:09:49.726Z</time></trkpt><trkpt lat="43.6422983" lon="11.1758683"><ele>175.0</ele><time>2026-04-25T09:09:50.726Z</time></trkpt><trkpt lat="43.642205" lon="11.1756083"><ele>176.66666666666669</ele><time>2026-04-25T09:09:51.724Z</time></trkpt><trkpt lat="43.642115" lon="11.1753483"><ele>178.33333333333334</ele><time>2026-04-25T09:09:52.725Z</time></trkpt><trkpt lat="43.642015" lon="11.1751183"><ele>180.0</ele><time>2026-04-25T09:09:53.726Z</time></trkpt><trkpt lat="43.6419067" lon="11.1749083"><ele>175.0</ele><time>2026-04-25T09:09:54.726Z</time></trkpt><trkpt lat="43.64181" lon="11.1747083"><ele>170.0</ele><time>2026-04-25T09:09:55.725Z</time></trkpt><trkpt lat="43.6417217" lon="11.1745317"><ele>165.0</ele><time>2026-04-25T09:09:56.725Z</time></trkpt><trkpt lat="43.6416217" lon="11.1743767"><ele>165.0</ele><time>2026-04-25T09:09:57.725Z</time></trkpt><trkpt lat="43.6415067" lon="11.174275"><ele>165.0</ele><time>2026-04-25T09:09:58.724Z</time></trkpt><trkpt lat="43.6413817" lon="11.1742167"><ele>165.0</ele><time>2026-04-25T09:09:59.725Z</time></trkpt><trkpt lat="43.6412433" lon="11.1742017"><ele>165.0</ele><time>2026-04-25T09:10:00.725Z</time></trkpt><trkpt lat="43.6410917" lon="11.1742483"><ele>164.25</ele><time>2026-04-25T09:10:01.725Z</time></trkpt><trkpt lat="43.6409483" lon="11.1743033"><ele>163.5</ele><time>2026-04-25T09:10:02.725Z</time></trkpt><trkpt lat="43.6408217" lon="11.17441"><ele>162.75</ele><time>2026-04-25T09:10:03.722Z</time></trkpt><trkpt lat="43.640735" lon="11.1745367"><ele>162.0</ele><time>2026-04-25T09:10:04.725Z</time></trkpt><trkpt lat="43.6407017" lon="11.1746867"><ele>162.0</ele><time>2026-04-25T09:10:05.723Z</time></trkpt><trkpt lat="43.6407183" lon="11.17485"><ele>162.0</ele><time>2026-04-25T09:10:06.725Z</time></trkpt><trkpt lat="43.640765" lon="11.1750167"><ele>162.0</ele><time>2026-04-25T09:10:07.725Z</time></trkpt><trkpt lat="43.640835" lon="11.1751983"><ele>162.0</ele><time>2026-04-25T09:10:08.728Z</time></trkpt><trkpt lat="43.6409067" lon="11.1753917"><ele>162.0</ele><time>2026-04-25T09:10:09.725Z</time></trkpt><trkpt lat="43.6409533" lon="11.1756033"><ele>162.0</ele><time>2026-04-25T09:10:10.725Z</time></trkpt><trkpt lat="43.6409717" lon="11.1758383"><ele>162.0</ele><time>2026-04-25T09:10:11.726Z</time></trkpt><trkpt lat="43.6409667" lon="11.17607"><ele>162.0</ele><time>2026-04-25T09:10:12.724Z</time></trkpt><trkpt lat="43.6409533" lon="11.1762817"><ele>162.0</ele><time>2026-04-25T09:10:13.725Z</time></trkpt><trkpt lat="43.640915" lon="11.1764817"><ele>162.0</ele><time>2026-04-25T09:10:14.724Z</time></trkpt><trkpt lat="43.6408517" lon="11.1766417"><ele>162.0</ele><time>2026-04-25T09:10:15.726Z</time></trkpt><trkpt lat="43.64075" lon="11.17674"><ele>162.0</ele><time>2026-04-25T09:10:16.724Z</time></trkpt><trkpt lat="43.6406267" lon="11.1767617"><ele>162.0</ele><time>2026-04-25T09:10:17.723Z</time></trkpt><trkpt lat="43.64048" lon="11.176715"><ele>162.0</ele><time>2026-04-25T09:10:18.724Z</time></trkpt><trkpt lat="43.6403267" lon="11.17661"><ele>162.0</ele><time>2026-04-25T09:10:19.726Z</time></trkpt><trkpt lat="43.640175" lon="11.1764517"><ele>159.0</ele><time>2026-04-25T09:10:20.723Z</time></trkpt><trkpt lat="43.6400283" lon="11.1762533"><ele>156.0</ele><time>2026-04-25T09:10:21.724Z</time></trkpt><trkpt lat="43.639885" lon="11.1760467"><ele>153.0</ele><time>2026-04-25T09:10:22.726Z</time></trkpt><trkpt lat="43.63974" lon="11.1758617"><ele>153.0</ele><time>2026-04-25T09:10:23.725Z</time></trkpt><trkpt lat="43.6395867" lon="11.1757067"><ele>153.0</ele><time>2026-04-25T09:10:24.723Z</time></trkpt><trkpt lat="43.6394167" lon="11.17561"><ele>153.0</ele><time>2026-04-25T09:10:25.724Z</time></trkpt><trkpt lat="43.6392333" lon="11.175575"><ele>153.66666666666666</ele><time>2026-04-25T09:10:26.725Z</time></trkpt><trkpt lat="43.6390417" lon="11.1755933"><ele>154.33333333333331</ele><time>2026-04-25T09:10:27.726Z</time></trkpt><trkpt lat="43.6388417" lon="11.175685"><ele>155.0</ele><time>2026-04-25T09:10:28.726Z</time></trkpt><trkpt lat="43.63864" lon="11.1758217"><ele>150.0</ele><time>2026-04-25T09:10:29.725Z</time></trkpt><trkpt lat="43.638445" lon="11.17598"><ele>145.0</ele><time>2026-04-25T09:10:30.726Z</time></trkpt><trkpt lat="43.63826" lon="11.1761617"><ele>145.0</ele><time>2026-04-25T09:10:31.724Z</time></trkpt><trkpt lat="43.6380817" lon="11.1763567"><ele>145.0</ele><time>2026-04-25T09:10:32.724Z</time></trkpt><trkpt lat="43.6379083" lon="11.1765683"><ele>142.66666666666669</ele><time>2026-04-25T09:10:33.726Z</time></trkpt><trkpt lat="43.6377583" lon="11.1767817"><ele>140.33333333333334</ele><time>2026-04-25T09:10:34.725Z</time></trkpt><trkpt lat="43.63763" lon="11.177005"><ele>138.0</ele><time>2026-04-25T09:10:35.727Z</time></trkpt><trkpt lat="43.6375233" lon="11.177235"><ele>139.33333333333334</ele><time>2026-04-25T09:10:36.726Z</time></trkpt><trkpt lat="43.6374417" lon="11.1774733"><ele>140.66666666666669</ele><time>2026-04-25T09:10:37.726Z</time></trkpt><trkpt lat="43.6373583" lon="11.1777067"><ele>142.0</ele><time>2026-04-25T09:10:38.725Z</time></trkpt><trkpt lat="43.6372567" lon="11.17792"><ele>142.0</ele><time>2026-04-25T09:10:39.725Z</time></trkpt><trkpt lat="43.63714" lon="11.1781117"><ele>142.0</ele><time>2026-04-25T09:10:40.722Z</time></trkpt><trkpt lat="43.6370117" lon="11.17829"><ele>142.0</ele><time>2026-04-25T09:10:41.726Z</time></trkpt><trkpt lat="43.636875" lon="11.178455"><ele>140.33333333333334</ele><time>2026-04-25T09:10:42.726Z</time></trkpt><trkpt lat="43.6367233" lon="11.1786067"><ele>138.66666666666666</ele><time>2026-04-25T09:10:43.722Z</time></trkpt><trkpt lat="43.6365733" lon="11.1787517"><ele>137.0</ele><time>2026-04-25T09:10:44.725Z</time></trkpt><trkpt lat="43.636425" lon="11.1788683"><ele>137.0</ele><time>2026-04-25T09:10:45.724Z</time></trkpt><trkpt lat="43.6362667" lon="11.1789417"><ele>137.0</ele><time>2026-04-25T09:10:46.724Z</time></trkpt><trkpt lat="43.6361083" lon="11.178975"><ele>137.0</ele><time>2026-04-25T09:10:47.725Z</time></trkpt><trkpt lat="43.6359467" lon="11.1789733"><ele>134.66666666666666</ele><time>2026-04-25T09:10:48.725Z</time></trkpt><trkpt lat="43.6357817" lon="11.1789417"><ele>132.33333333333334</ele><time>2026-04-25T09:10:49.727Z</time></trkpt><trkpt lat="43.635615" lon="11.1788867"><ele>130.0</ele><time>2026-04-25T09:10:50.725Z</time></trkpt><trkpt lat="43.635445" lon="11.1788283"><ele>129.33333333333334</ele><time>2026-04-25T09:10:51.726Z</time></trkpt><trkpt lat="43.6352633" lon="11.1787817"><ele>128.66666666666666</ele><time>2026-04-25T09:10:52.724Z</time></trkpt><trkpt lat="43.6350783" lon="11.1787483"><ele>128.0</ele><time>2026-04-25T09:10:53.726Z</time></trkpt><trkpt lat="43.63489" lon="11.178745"><ele>128.0</ele><time>2026-04-25T09:10:54.725Z</time></trkpt><trkpt lat="43.6347017" lon="11.17877"><ele>128.0</ele><time>2026-04-25T09:10:55.726Z</time></trkpt><trkpt lat="43.6345217" lon="11.1788"><ele>128.0</ele><time>2026-04-25T09:10:56.725Z</time></trkpt><trkpt lat="43.6343367" lon="11.1788783"><ele>128.33333333333331</ele><time>2026-04-25T09:10:57.725Z</time></trkpt><trkpt lat="43.6341617" lon="11.1789717"><ele>128.66666666666666</ele><time>2026-04-25T09:10:58.728Z</time></trkpt><trkpt lat="43.6339817" lon="11.17908"><ele>129.0</ele><time>2026-04-25T09:10:59.725Z</time></trkpt><trkpt lat="43.633805" lon="11.1792017"><ele>129.0</ele><time>2026-04-25T09:11:00.725Z</time></trkpt><trkpt lat="43.633645" lon="11.1793483"><ele>129.0</ele><time>2026-04-25T09:11:01.725Z</time></trkpt><trkpt lat="43.6334933" lon="11.1795133"><ele>129.0</ele><time>2026-04-25T09:11:02.725Z</time></trkpt><trkpt lat="43.6333417" lon="11.1796783"><ele>129.0</ele><time>2026-04-25T09:11:03.725Z</time></trkpt><trkpt lat="43.6332033" lon="11.17984"><ele>129.0</ele><time>2026-04-25T09:11:04.724Z</time></trkpt><trkpt lat="43.6330483" lon="11.17998"><ele>129.0</ele><time>2026-04-25T09:11:05.727Z</time></trkpt><trkpt lat="43.63288" lon="11.1801067"><ele>129.0</ele><time>2026-04-25T09:11:06.724Z</time></trkpt><trkpt lat="43.6327033" lon="11.1802167"><ele>129.0</ele><time>2026-04-25T09:11:07.726Z</time></trkpt><trkpt lat="43.6325217" lon="11.180315"><ele>129.0</ele><time>2026-04-25T09:11:08.725Z</time></trkpt><trkpt lat="43.6323367" lon="11.1804133"><ele>129.0</ele><time>2026-04-25T09:11:09.727Z</time></trkpt><trkpt lat="43.6321517" lon="11.1805167"><ele>129.0</ele><time>2026-04-25T09:11:10.726Z</time></trkpt><trkpt lat="43.63197" lon="11.1806283"><ele>129.0</ele><time>2026-04-25T09:11:11.726Z</time></trkpt><trkpt lat="43.631785" lon="11.1807467"><ele>128.66666666666666</ele><time>2026-04-25T09:11:12.726Z</time></trkpt><trkpt lat="43.631595" lon="11.1808667"><ele>128.33333333333331</ele><time>2026-04-25T09:11:13.726Z</time></trkpt><trkpt lat="43.631405" lon="11.180985"><ele>128.0</ele><time>2026-04-25T09:11:14.725Z</time></trkpt><trkpt lat="43.63121" lon="11.181085"><ele>128.0</ele><time>2026-04-25T09:11:15.728Z</time></trkpt><trkpt lat="43.6310083" lon="11.1811717"><ele>128.0</ele><time>2026-04-25T09:11:16.725Z</time></trkpt><trkpt lat="43.6308" lon="11.1812467"><ele>128.0</ele><time>2026-04-25T09:11:17.727Z</time></trkpt><trkpt lat="43.630595" lon="11.1813217"><ele>128.0</ele><time>2026-04-25T09:11:18.727Z</time></trkpt><trkpt lat="43.6303883" lon="11.1814067"><ele>128.0</ele><time>2026-04-25T09:11:19.725Z</time></trkpt><trkpt lat="43.63019" lon="11.181505"><ele>128.0</ele><time>2026-04-25T09:11:20.724Z</time></trkpt><trkpt lat="43.6299967" lon="11.1816167"><ele>128.66666666666666</ele><time>2026-04-25T09:11:21.724Z</time></trkpt><trkpt lat="43.62981" lon="11.181745"><ele>129.33333333333334</ele><time>2026-04-25T09:11:22.726Z</time></trkpt><trkpt lat="43.6296317" lon="11.1818683"><ele>130.0</ele><time>2026-04-25T09:11:23.726Z</time></trkpt><trkpt lat="43.6294483" lon="11.181955"><ele>130.0</ele><time>2026-04-25T09:11:24.724Z</time></trkpt><trkpt lat="43.6292567" lon="11.1820067"><ele>130.0</ele><time>2026-04-25T09:11:25.725Z</time></trkpt><trkpt lat="43.629065" lon="11.1820433"><ele>130.0</ele><time>2026-04-25T09:11:26.723Z</time></trkpt><trkpt lat="43.6288767" lon="11.1820817"><ele>130.0</ele><time>2026-04-25T09:11:27.726Z</time></trkpt><trkpt lat="43.6286967" lon="11.18213"><ele>130.0</ele><time>2026-04-25T09:11:28.726Z</time></trkpt><trkpt lat="43.62852" lon="11.1821767"><ele>130.0</ele><time>2026-04-25T09:11:29.726Z</time></trkpt><trkpt lat="43.628345" lon="11.1822183"><ele>130.33333333333334</ele><time>2026-04-25T09:11:30.724Z</time></trkpt><trkpt lat="43.6281683" lon="11.182255"><ele>130.66666666666666</ele><time>2026-04-25T09:11:31.725Z</time></trkpt><trkpt lat="43.627985" lon="11.1822767"><ele>131.0</ele><time>2026-04-25T09:11:32.726Z</time></trkpt><trkpt lat="43.6277933" lon="11.1822917"><ele>131.0</ele><time>2026-04-25T09:11:33.724Z</time></trkpt><trkpt lat="43.6275983" lon="11.1823033"><ele>131.0</ele><time>2026-04-25T09:11:34.722Z</time></trkpt><trkpt lat="43.6274117" lon="11.1823083"><ele>131.0</ele><time>2026-04-25T09:11:35.724Z</time></trkpt><trkpt lat="43.6272183" lon="11.18231"><ele>131.0</ele><time>2026-04-25T09:11:36.725Z</time></trkpt><trkpt lat="43.6270267" lon="11.1823167"><ele>131.0</ele><time>2026-04-25T09:11:37.724Z</time></trkpt><trkpt lat="43.62685" lon="11.1823183"><ele>131.0</ele><time>2026-04-25T09:11:38.725Z</time></trkpt><trkpt lat="43.6266867" lon="11.1823217"><ele>130.66666666666666</ele><time>2026-04-25T09:11:39.724Z</time></trkpt><trkpt lat="43.6265333" lon="11.182345"><ele>130.33333333333334</ele><time>2026-04-25T09:11:40.726Z</time></trkpt><trkpt lat="43.626385" lon="11.1823917"><ele>130.0</ele><time>2026-04-25T09:11:41.725Z</time></trkpt><trkpt lat="43.62626" lon="11.1824967"><ele>131.66666666666669</ele><time>2026-04-25T09:11:42.726Z</time></trkpt><trkpt lat="43.6261617" lon="11.182645"><ele>133.33333333333334</ele><time>2026-04-25T09:11:43.726Z</time></trkpt><trkpt lat="43.6260617" lon="11.182805"><ele>135.0</ele><time>2026-04-25T09:11:44.723Z</time></trkpt><trkpt lat="43.6259333" lon="11.1829633"><ele>135.66666666666666</ele><time>2026-04-25T09:11:45.724Z</time></trkpt><trkpt lat="43.6257883" lon="11.1830983"><ele>136.33333333333331</ele><time>2026-04-25T09:11:46.723Z</time></trkpt><trkpt lat="43.625625" lon="11.1832133"><ele>137.0</ele><time>2026-04-25T09:11:47.725Z</time></trkpt><trkpt lat="43.6254583" lon="11.183305"><ele>137.33333333333331</ele><time>2026-04-25T09:11:48.725Z</time></trkpt><trkpt lat="43.6252817" lon="11.183385"><ele>137.66666666666666</ele><time>2026-04-25T09:11:49.724Z</time></trkpt><trkpt lat="43.6250933" lon="11.1834633"><ele>138.0</ele><time>2026-04-25T09:11:50.724Z</time></trkpt><trkpt lat="43.624895" lon="11.1835467"><ele>138.0</ele><time>2026-04-25T09:11:51.723Z</time></trkpt><trkpt lat="43.624695" lon="11.1836417"><ele>138.0</ele><time>2026-04-25T09:11:52.725Z</time></trkpt><trkpt lat="43.62449" lon="11.1837417"><ele>138.0</ele><time>2026-04-25T09:11:53.726Z</time></trkpt><trkpt lat="43.6242817" lon="11.1838533"><ele>137.0</ele><time>2026-04-25T09:11:54.725Z</time></trkpt><trkpt lat="43.6240667" lon="11.1839767"><ele>136.0</ele><time>2026-04-25T09:11:55.725Z</time></trkpt><trkpt lat="43.6238483" lon="11.1841083"><ele>136.5</ele><time>2026-04-25T09:11:56.726Z</time></trkpt><trkpt lat="43.623625" lon="11.18424"><ele>137.0</ele><time>2026-04-25T09:11:57.726Z</time></trkpt><trkpt lat="43.6234017" lon="11.1843633"><ele>137.0</ele><time>2026-04-25T09:11:58.725Z</time></trkpt><trkpt lat="43.6231833" lon="11.1844867"><ele>137.0</ele><time>2026-04-25T09:11:59.727Z</time></trkpt><trkpt lat="43.6229633" lon="11.1846133"><ele>136.0</ele><time>2026-04-25T09:12:00.726Z</time></trkpt><trkpt lat="43.6227367" lon="11.1847433"><ele>135.0</ele><time>2026-04-25T09:12:01.726Z</time></trkpt><trkpt lat="43.6225083" lon="11.1848733"><ele>135.0</ele><time>2026-04-25T09:12:02.726Z</time></trkpt><trkpt lat="43.6222767" lon="11.1850117"><ele>135.0</ele><time>2026-04-25T09:12:03.723Z</time></trkpt><trkpt lat="43.6220483" lon="11.18515"><ele>135.0</ele><time>2026-04-25T09:12:04.726Z</time></trkpt><trkpt lat="43.6218183" lon="11.1852817"><ele>135.0</ele><time>2026-04-25T09:12:05.727Z</time></trkpt><trkpt lat="43.6215867" lon="11.1854133"><ele>135.0</ele><time>2026-04-25T09:12:06.725Z</time></trkpt><trkpt lat="43.6213567" lon="11.1855467"><ele>135.0</ele><time>2026-04-25T09:12:07.724Z</time></trkpt><trkpt lat="43.6211217" lon="11.1856817"><ele>135.5</ele><time>2026-04-25T09:12:08.723Z</time></trkpt><trkpt lat="43.6208883" lon="11.1858183"><ele>136.0</ele><time>2026-04-25T09:12:09.725Z</time></trkpt><trkpt lat="43.6206583" lon="11.1859533"><ele>136.0</ele><time>2026-04-25T09:12:10.725Z</time></trkpt><trkpt lat="43.6204333" lon="11.1860883"><ele>136.0</ele><time>2026-04-25T09:12:11.726Z</time></trkpt><trkpt lat="43.62021" lon="11.1862183"><ele>135.5</ele><time>2026-04-25T09:12:12.725Z</time></trkpt><trkpt lat="43.6199883" lon="11.1863483"><ele>135.0</ele><time>2026-04-25T09:12:13.726Z</time></trkpt><trkpt lat="43.6197683" lon="11.186475"><ele>136.0</ele><time>2026-04-25T09:12:14.726Z</time></trkpt><trkpt lat="43.6195517" lon="11.1866017"><ele>137.0</ele><time>2026-04-25T09:12:15.726Z</time></trkpt><trkpt lat="43.6193333" lon="11.1867267"><ele>137.0</ele><time>2026-04-25T09:12:16.726Z</time></trkpt><trkpt lat="43.6191183" lon="11.1868517"><ele>137.0</ele><time>2026-04-25T09:12:17.726Z</time></trkpt><trkpt lat="43.6189083" lon="11.186975"><ele>137.0</ele><time>2026-04-25T09:12:18.724Z</time></trkpt><trkpt lat="43.618695" lon="11.1870983"><ele>137.0</ele><time>2026-04-25T09:12:19.723Z</time></trkpt><trkpt lat="43.618485" lon="11.187225"><ele>138.5</ele><time>2026-04-25T09:12:20.724Z</time></trkpt><trkpt lat="43.618275" lon="11.1873483"><ele>140.0</ele><time>2026-04-25T09:12:21.726Z</time></trkpt><trkpt lat="43.618065" lon="11.1874733"><ele>140.0</ele><time>2026-04-25T09:12:22.725Z</time></trkpt><trkpt lat="43.6178567" lon="11.1875983"><ele>140.0</ele><time>2026-04-25T09:12:23.726Z</time></trkpt><trkpt lat="43.6176483" lon="11.1877233"><ele>140.5</ele><time>2026-04-25T09:12:24.725Z</time></trkpt><trkpt lat="43.617435" lon="11.1878483"><ele>141.0</ele><time>2026-04-25T09:12:25.727Z</time></trkpt><trkpt lat="43.6172217" lon="11.187975"><ele>141.0</ele><time>2026-04-25T09:12:26.727Z</time></trkpt><trkpt lat="43.61701" lon="11.1881033"><ele>141.0</ele><time>2026-04-25T09:12:27.726Z</time></trkpt><trkpt lat="43.6168" lon="11.18823"><ele>142.5</ele><time>2026-04-25T09:12:28.726Z</time></trkpt><trkpt lat="43.6165867" lon="11.1883483"><ele>144.0</ele><time>2026-04-25T09:12:29.725Z</time></trkpt><trkpt lat="43.6163717" lon="11.1884717"><ele>144.0</ele><time>2026-04-25T09:12:30.726Z</time></trkpt><trkpt lat="43.6161567" lon="11.188595"><ele>144.0</ele><time>2026-04-25T09:12:31.725Z</time></trkpt><trkpt lat="43.615945" lon="11.1887183"><ele>143.0</ele><time>2026-04-25T09:12:32.725Z</time></trkpt><trkpt lat="43.6157267" lon="11.18885"><ele>142.0</ele><time>2026-04-25T09:12:33.726Z</time></trkpt><trkpt lat="43.6155067" lon="11.1889767"><ele>141.5</ele><time>2026-04-25T09:12:34.726Z</time></trkpt><trkpt lat="43.6153" lon="11.1891017"><ele>141.0</ele><time>2026-04-25T09:12:35.726Z</time></trkpt><trkpt lat="43.6150917" lon="11.1892233"><ele>141.0</ele><time>2026-04-25T09:12:36.725Z</time></trkpt><trkpt lat="43.61488" lon="11.1893467"><ele>141.0</ele><time>2026-04-25T09:12:37.727Z</time></trkpt><trkpt lat="43.6146667" lon="11.1894717"><ele>141.0</ele><time>2026-04-25T09:12:38.727Z</time></trkpt><trkpt lat="43.6144533" lon="11.1895933"><ele>141.0</ele><time>2026-04-25T09:12:39.725Z</time></trkpt><trkpt lat="43.6142417" lon="11.189715"><ele>141.0</ele><time>2026-04-25T09:12:40.725Z</time></trkpt><trkpt lat="43.61403" lon="11.1898367"><ele>141.0</ele><time>2026-04-25T09:12:41.726Z</time></trkpt><trkpt lat="43.613815" lon="11.1899533"><ele>142.5</ele><time>2026-04-25T09:12:42.726Z</time></trkpt><trkpt lat="43.6136" lon="11.1900683"><ele>144.0</ele><time>2026-04-25T09:12:43.725Z</time></trkpt><trkpt lat="43.6133783" lon="11.1901683"><ele>144.0</ele><time>2026-04-25T09:12:44.725Z</time></trkpt><trkpt lat="43.613155" lon="11.1902667"><ele>144.0</ele><time>2026-04-25T09:12:45.724Z</time></trkpt><trkpt lat="43.61293" lon="11.19036"><ele>143.5</ele><time>2026-04-25T09:12:46.726Z</time></trkpt><trkpt lat="43.612705" lon="11.1904483"><ele>143.0</ele><time>2026-04-25T09:12:47.727Z</time></trkpt><trkpt lat="43.6124783" lon="11.190525"><ele>143.0</ele><time>2026-04-25T09:12:48.726Z</time></trkpt><trkpt lat="43.61225" lon="11.1905867"><ele>143.0</ele><time>2026-04-25T09:12:49.725Z</time></trkpt><trkpt lat="43.61202" lon="11.1906417"><ele>143.5</ele><time>2026-04-25T09:12:50.724Z</time></trkpt><trkpt lat="43.6117883" lon="11.1906933"><ele>144.0</ele><time>2026-04-25T09:12:51.724Z</time></trkpt><trkpt lat="43.611555" lon="11.1907267"><ele>144.0</ele><time>2026-04-25T09:12:52.725Z</time></trkpt><trkpt lat="43.6113217" lon="11.1907567"><ele>144.0</ele><time>2026-04-25T09:12:53.726Z</time></trkpt><trkpt lat="43.6110883" lon="11.19078"><ele>143.5</ele><time>2026-04-25T09:12:54.725Z</time></trkpt><trkpt lat="43.6108567" lon="11.1908133"><ele>143.0</ele><time>2026-04-25T09:12:55.728Z</time></trkpt><trkpt lat="43.61062" lon="11.19084"><ele>143.0</ele><time>2026-04-25T09:12:56.728Z</time></trkpt><trkpt lat="43.6103833" lon="11.190865"><ele>143.0</ele><time>2026-04-25T09:12:57.725Z</time></trkpt><trkpt lat="43.6101467" lon="11.1908883"><ele>143.5</ele><time>2026-04-25T09:12:58.726Z</time></trkpt><trkpt lat="43.6099117" lon="11.1909083"><ele>144.0</ele><time>2026-04-25T09:12:59.725Z</time></trkpt><trkpt lat="43.609675" lon="11.1909283"><ele>145.5</ele><time>2026-04-25T09:13:00.726Z</time></trkpt><trkpt lat="43.6094417" lon="11.1909467"><ele>147.0</ele><time>2026-04-25T09:13:01.723Z</time></trkpt><trkpt lat="43.6092067" lon="11.1909783"><ele>147.0</ele><time>2026-04-25T09:13:02.727Z</time></trkpt><trkpt lat="43.6089733" lon="11.191005"><ele>147.0</ele><time>2026-04-25T09:13:03.723Z</time></trkpt><trkpt lat="43.608735" lon="11.19103"><ele>147.0</ele><time>2026-04-25T09:13:04.728Z</time></trkpt><trkpt lat="43.6084983" lon="11.1910567"><ele>147.0</ele><time>2026-04-25T09:13:05.725Z</time></trkpt><trkpt lat="43.608265" lon="11.191085"><ele>147.0</ele><time>2026-04-25T09:13:06.725Z</time></trkpt><trkpt lat="43.60803" lon="11.19111"><ele>147.0</ele><time>2026-04-25T09:13:07.723Z</time></trkpt><trkpt lat="43.607795" lon="11.1911317"><ele>146.0</ele><time>2026-04-25T09:13:08.723Z</time></trkpt><trkpt lat="43.60756" lon="11.19116"><ele>145.0</ele><time>2026-04-25T09:13:09.725Z</time></trkpt><trkpt lat="43.6073217" lon="11.19119"><ele>145.0</ele><time>2026-04-25T09:13:10.725Z</time></trkpt><trkpt lat="43.6070833" lon="11.191215"><ele>145.0</ele><time>2026-04-25T09:13:11.723Z</time></trkpt><trkpt lat="43.6068433" lon="11.1912417"><ele>145.5</ele><time>2026-04-25T09:13:12.726Z</time></trkpt><trkpt lat="43.606605" lon="11.1912633"><ele>146.0</ele><time>2026-04-25T09:13:13.727Z</time></trkpt><trkpt lat="43.6063683" lon="11.19129"><ele>146.5</ele><time>2026-04-25T09:13:14.725Z</time></trkpt><trkpt lat="43.6061283" lon="11.1913183"><ele>147.0</ele><time>2026-04-25T09:13:15.727Z</time></trkpt><trkpt lat="43.6058867" lon="11.19135"><ele>147.0</ele><time>2026-04-25T09:13:16.728Z</time></trkpt><trkpt lat="43.6056483" lon="11.19138"><ele>147.0</ele><time>2026-04-25T09:13:17.725Z</time></trkpt><trkpt lat="43.60541" lon="11.1914117"><ele>149.5</ele><time>2026-04-25T09:13:18.726Z</time></trkpt><trkpt lat="43.605175" lon="11.19144"><ele>152.0</ele><time>2026-04-25T09:13:19.727Z</time></trkpt><trkpt lat="43.60494" lon="11.1914817"><ele>151.5</ele><time>2026-04-25T09:13:20.727Z</time></trkpt><trkpt lat="43.6047067" lon="11.1915317"><ele>151.0</ele><time>2026-04-25T09:13:21.725Z</time></trkpt><trkpt lat="43.6044767" lon="11.191585"><ele>151.0</ele><time>2026-04-25T09:13:22.728Z</time></trkpt><trkpt lat="43.604245" lon="11.1916467"><ele>151.0</ele><time>2026-04-25T09:13:23.727Z</time></trkpt><trkpt lat="43.6040133" lon="11.1917133"><ele>151.0</ele><time>2026-04-25T09:13:24.725Z</time></trkpt><trkpt lat="43.603785" lon="11.1917983"><ele>151.0</ele><time>2026-04-25T09:13:25.725Z</time></trkpt><trkpt lat="43.6035567" lon="11.191885"><ele>151.0</ele><time>2026-04-25T09:13:26.725Z</time></trkpt><trkpt lat="43.6033333" lon="11.1919767"><ele>151.0</ele><time>2026-04-25T09:13:27.726Z</time></trkpt><trkpt lat="43.6031067" lon="11.1920683"><ele>151.0</ele><time>2026-04-25T09:13:28.726Z</time></trkpt><trkpt lat="43.60288" lon="11.192165"><ele>151.0</ele><time>2026-04-25T09:13:29.726Z</time></trkpt><trkpt lat="43.6026533" lon="11.1922617"><ele>150.0</ele><time>2026-04-25T09:13:30.725Z</time></trkpt><trkpt lat="43.602425" lon="11.1923567"><ele>149.0</ele><time>2026-04-25T09:13:31.724Z</time></trkpt><trkpt lat="43.6021967" lon="11.1924517"><ele>150.0</ele><time>2026-04-25T09:13:32.726Z</time></trkpt><trkpt lat="43.6019683" lon="11.1925483"><ele>151.0</ele><time>2026-04-25T09:13:33.723Z</time></trkpt><trkpt lat="43.6017333" lon="11.1926433"><ele>151.0</ele><time>2026-04-25T09:13:34.727Z</time></trkpt><trkpt lat="43.6015033" lon="11.1927417"><ele>151.0</ele><time>2026-04-25T09:13:35.726Z</time></trkpt><trkpt lat="43.60127" lon="11.1928417"><ele>151.5</ele><time>2026-04-25T09:13:36.727Z</time></trkpt><trkpt lat="43.6010383" lon="11.1929367"><ele>152.0</ele><time>2026-04-25T09:13:37.724Z</time></trkpt><trkpt lat="43.6008067" lon="11.1930283"><ele>152.0</ele><time>2026-04-25T09:13:38.726Z</time></trkpt><trkpt lat="43.600575" lon="11.19312"><ele>152.0</ele><time>2026-04-25T09:13:39.725Z</time></trkpt><trkpt lat="43.60034" lon="11.1932117"><ele>152.0</ele><time>2026-04-25T09:13:40.726Z</time></trkpt><trkpt lat="43.6001067" lon="11.1933083"><ele>152.0</ele><time>2026-04-25T09:13:41.725Z</time></trkpt><trkpt lat="43.599875" lon="11.1934067"><ele>152.0</ele><time>2026-04-25T09:13:42.725Z</time></trkpt><trkpt lat="43.59964" lon="11.1935067"><ele>152.0</ele><time>2026-04-25T09:13:43.726Z</time></trkpt><trkpt lat="43.5994033" lon="11.1936083"><ele>151.5</ele><time>2026-04-25T09:13:44.727Z</time></trkpt><trkpt lat="43.5991683" lon="11.1937183"><ele>151.0</ele><time>2026-04-25T09:13:45.726Z</time></trkpt><trkpt lat="43.5989333" lon="11.1938333"><ele>151.0</ele><time>2026-04-25T09:13:46.725Z</time></trkpt><trkpt lat="43.5987" lon="11.1939517"><ele>151.0</ele><time>2026-04-25T09:13:47.727Z</time></trkpt><trkpt lat="43.5984683" lon="11.1940733"><ele>152.0</ele><time>2026-04-25T09:13:48.726Z</time></trkpt><trkpt lat="43.5982367" lon="11.1942017"><ele>153.0</ele><time>2026-04-25T09:13:49.725Z</time></trkpt><trkpt lat="43.59801" lon="11.1943383"><ele>155.5</ele><time>2026-04-25T09:13:50.722Z</time></trkpt><trkpt lat="43.5977883" lon="11.1944833"><ele>158.0</ele><time>2026-04-25T09:13:51.724Z</time></trkpt><trkpt lat="43.59757" lon="11.1946383"><ele>158.0</ele><time>2026-04-25T09:13:52.725Z</time></trkpt><trkpt lat="43.5973533" lon="11.1947967"><ele>158.0</ele><time>2026-04-25T09:13:53.723Z</time></trkpt><trkpt lat="43.5971417" lon="11.1949667"><ele>160.5</ele><time>2026-04-25T09:13:54.726Z</time></trkpt><trkpt lat="43.5969367" lon="11.195145"><ele>163.0</ele><time>2026-04-25T09:13:55.723Z</time></trkpt><trkpt lat="43.5967367" lon="11.19533"><ele>163.0</ele><time>2026-04-25T09:13:56.726Z</time></trkpt><trkpt lat="43.5965383" lon="11.195515"><ele>163.0</ele><time>2026-04-25T09:13:57.726Z</time></trkpt><trkpt lat="43.5963417" lon="11.1956967"><ele>162.0</ele><time>2026-04-25T09:13:58.723Z</time></trkpt><trkpt lat="43.596145" lon="11.1958733"><ele>161.0</ele><time>2026-04-25T09:13:59.725Z</time></trkpt><trkpt lat="43.5959467" lon="11.1960567"><ele>161.0</ele><time>2026-04-25T09:14:00.725Z</time></trkpt><trkpt lat="43.5957517" lon="11.1962417"><ele>161.0</ele><time>2026-04-25T09:14:01.728Z</time></trkpt><trkpt lat="43.5955583" lon="11.1964183"><ele>160.5</ele><time>2026-04-25T09:14:02.728Z</time></trkpt><trkpt lat="43.5953683" lon="11.1965967"><ele>160.0</ele><time>2026-04-25T09:14:03.725Z</time></trkpt><trkpt lat="43.595175" lon="11.1967733"><ele>160.0</ele><time>2026-04-25T09:14:04.728Z</time></trkpt><trkpt lat="43.59498" lon="11.1969567"><ele>160.0</ele><time>2026-04-25T09:14:05.724Z</time></trkpt><trkpt lat="43.594785" lon="11.1971383"><ele>160.0</ele><time>2026-04-25T09:14:06.725Z</time></trkpt><trkpt lat="43.59459" lon="11.1973183"><ele>160.0</ele><time>2026-04-25T09:14:07.726Z</time></trkpt><trkpt lat="43.5944" lon="11.1975"><ele>161.0</ele><time>2026-04-25T09:14:08.723Z</time></trkpt><trkpt lat="43.5942133" lon="11.1976767"><ele>162.0</ele><time>2026-04-25T09:14:09.728Z</time></trkpt><trkpt lat="43.5940267" lon="11.1978483"><ele>162.0</ele><time>2026-04-25T09:14:10.726Z</time></trkpt><trkpt lat="43.5938417" lon="11.198015"><ele>162.0</ele><time>2026-04-25T09:14:11.725Z</time></trkpt><trkpt lat="43.5936517" lon="11.198175"><ele>162.0</ele><time>2026-04-25T09:14:12.725Z</time></trkpt><trkpt lat="43.5934617" lon="11.19833"><ele>162.33333333333334</ele><time>2026-04-25T09:14:13.725Z</time></trkpt><trkpt lat="43.59327" lon="11.19847"><ele>162.66666666666669</ele><time>2026-04-25T09:14:14.725Z</time></trkpt><trkpt lat="43.593075" lon="11.1986083"><ele>163.0</ele><time>2026-04-25T09:14:15.725Z</time></trkpt><trkpt lat="43.5928883" lon="11.1987233"><ele>164.0</ele><time>2026-04-25T09:14:16.725Z</time></trkpt><trkpt lat="43.5927117" lon="11.19882"><ele>165.0</ele><time>2026-04-25T09:14:17.725Z</time></trkpt><trkpt lat="43.5925383" lon="11.1989067"><ele>166.0</ele><time>2026-04-25T09:14:18.725Z</time></trkpt><trkpt lat="43.5923717" lon="11.19898"><ele>164.33333333333334</ele><time>2026-04-25T09:14:19.726Z</time></trkpt><trkpt lat="43.5922067" lon="11.1990567"><ele>162.66666666666666</ele><time>2026-04-25T09:14:20.725Z</time></trkpt><trkpt lat="43.59205" lon="11.1991267"><ele>161.0</ele><time>2026-04-25T09:14:21.726Z</time></trkpt><trkpt lat="43.591905" lon="11.1992033"><ele>161.0</ele><time>2026-04-25T09:14:22.725Z</time></trkpt><trkpt lat="43.5917733" lon="11.1992583"><ele>161.0</ele><time>2026-04-25T09:14:23.724Z</time></trkpt><trkpt lat="43.591645" lon="11.1992683"><ele>161.0</ele><time>2026-04-25T09:14:24.724Z</time></trkpt><trkpt lat="43.59153" lon="11.1992283"><ele>161.0</ele><time>2026-04-25T09:14:25.728Z</time></trkpt><trkpt lat="43.5914383" lon="11.1991367"><ele>161.0</ele><time>2026-04-25T09:14:26.726Z</time></trkpt><trkpt lat="43.591375" lon="11.1990067"><ele>161.0</ele><time>2026-04-25T09:14:27.725Z</time></trkpt><trkpt lat="43.5913533" lon="11.1988533"><ele>161.0</ele><time>2026-04-25T09:14:28.726Z</time></trkpt><trkpt lat="43.591375" lon="11.1986883"><ele>161.0</ele><time>2026-04-25T09:14:29.726Z</time></trkpt><trkpt lat="43.5914367" lon="11.198535"><ele>162.33333333333331</ele><time>2026-04-25T09:14:30.724Z</time></trkpt><trkpt lat="43.5915333" lon="11.1984033"><ele>163.66666666666666</ele><time>2026-04-25T09:14:31.725Z</time></trkpt><trkpt lat="43.59167" lon="11.1982917"><ele>165.0</ele><time>2026-04-25T09:14:32.725Z</time></trkpt><trkpt lat="43.5918383" lon="11.1982033"><ele>167.0</ele><time>2026-04-25T09:14:33.723Z</time></trkpt><trkpt lat="43.592" lon="11.1981233"><ele>169.0</ele><time>2026-04-25T09:14:34.726Z</time></trkpt><trkpt lat="43.5921467" lon="11.1980483"><ele>171.0</ele><time>2026-04-25T09:14:35.726Z</time></trkpt><trkpt lat="43.5922767" lon="11.1979833"><ele>171.4</ele><time>2026-04-25T09:14:36.726Z</time></trkpt><trkpt lat="43.59239" lon="11.1979317"><ele>171.8</ele><time>2026-04-25T09:14:37.724Z</time></trkpt><trkpt lat="43.5924883" lon="11.19789"><ele>172.20000000000002</ele><time>2026-04-25T09:14:38.727Z</time></trkpt><trkpt lat="43.5925733" lon="11.197855"><ele>172.60000000000002</ele><time>2026-04-25T09:14:39.727Z</time></trkpt><trkpt lat="43.59265" lon="11.1978267"><ele>173.0</ele><time>2026-04-25T09:14:40.723Z</time></trkpt><trkpt lat="43.59271" lon="11.1977933"><ele>173.0</ele><time>2026-04-25T09:14:41.724Z</time></trkpt><trkpt lat="43.59277" lon="11.19774"><ele>173.0</ele><time>2026-04-25T09:14:44.725Z</time></trkpt><trkpt lat="43.5928167" lon="11.19767"><ele>173.0</ele><time>2026-04-25T09:14:50.726Z</time></trkpt><trkpt lat="43.5928133" lon="11.1975183"><ele>173.0</ele><time>2026-04-25T09:14:52.725Z</time></trkpt><trkpt lat="43.5927867" lon="11.1974"><ele>173.0</ele><time>2026-04-25T09:14:53.725Z</time></trkpt><trkpt lat="43.5927467" lon="11.1972617"><ele>173.0</ele><time>2026-04-25T09:14:54.725Z</time></trkpt><trkpt lat="43.5926933" lon="11.1970817"><ele>174.66666666666666</ele><time>2026-04-25T09:14:55.724Z</time></trkpt><trkpt lat="43.5926433" lon="11.1968933"><ele>176.33333333333334</ele><time>2026-04-25T09:14:56.725Z</time></trkpt><trkpt lat="43.5925933" lon="11.1966933"><ele>178.0</ele><time>2026-04-25T09:14:57.724Z</time></trkpt><trkpt lat="43.5925433" lon="11.1964817"><ele>179.66666666666669</ele><time>2026-04-25T09:14:58.723Z</time></trkpt><trkpt lat="43.5924867" lon="11.19626"><ele>181.33333333333334</ele><time>2026-04-25T09:14:59.722Z</time></trkpt><trkpt lat="43.5924267" lon="11.196035"><ele>183.0</ele><time>2026-04-25T09:15:00.724Z</time></trkpt><trkpt lat="43.5923667" lon="11.1958117"><ele>185.66666666666666</ele><time>2026-04-25T09:15:01.724Z</time></trkpt><trkpt lat="43.5923017" lon="11.1955833"><ele>188.33333333333331</ele><time>2026-04-25T09:15:02.725Z</time></trkpt><trkpt lat="43.59222" lon="11.1953583"><ele>191.0</ele><time>2026-04-25T09:15:03.724Z</time></trkpt><trkpt lat="43.5921233" lon="11.1951483"><ele>191.0</ele><time>2026-04-25T09:15:04.726Z</time></trkpt><trkpt lat="43.5919983" lon="11.194965"><ele>191.0</ele><time>2026-04-25T09:15:05.727Z</time></trkpt><trkpt lat="43.591865" lon="11.1947783"><ele>191.0</ele><time>2026-04-25T09:15:06.724Z</time></trkpt><trkpt lat="43.591735" lon="11.1945967"><ele>193.25</ele><time>2026-04-25T09:15:07.726Z</time></trkpt><trkpt lat="43.59161" lon="11.194445"><ele>195.5</ele><time>2026-04-25T09:15:08.726Z</time></trkpt><trkpt lat="43.5914883" lon="11.194335"><ele>197.75</ele><time>2026-04-25T09:15:09.723Z</time></trkpt><trkpt lat="43.591365" lon="11.1942783"><ele>200.0</ele><time>2026-04-25T09:15:10.726Z</time></trkpt><trkpt lat="43.5912417" lon="11.1942733"><ele>201.4</ele><time>2026-04-25T09:15:11.726Z</time></trkpt><trkpt lat="43.591125" lon="11.1943217"><ele>202.8</ele><time>2026-04-25T09:15:12.727Z</time></trkpt><trkpt lat="43.59103" lon="11.1944133"><ele>204.2</ele><time>2026-04-25T09:15:13.725Z</time></trkpt><trkpt lat="43.5909667" lon="11.1945233"><ele>205.6</ele><time>2026-04-25T09:15:14.726Z</time></trkpt><trkpt lat="43.59092" lon="11.1946417"><ele>207.0</ele><time>2026-04-25T09:15:15.723Z</time></trkpt><trkpt lat="43.5908917" lon="11.19476"><ele>206.39999999999998</ele><time>2026-04-25T09:15:16.724Z</time></trkpt><trkpt lat="43.5908633" lon="11.1948833"><ele>205.79999999999998</ele><time>2026-04-25T09:15:17.726Z</time></trkpt><trkpt lat="43.590835" lon="11.1950117"><ele>205.2</ele><time>2026-04-25T09:15:18.723Z</time></trkpt><trkpt lat="43.5908" lon="11.1951333"><ele>204.6</ele><time>2026-04-25T09:15:19.725Z</time></trkpt><trkpt lat="43.5907517" lon="11.1952533"><ele>204.0</ele><time>2026-04-25T09:15:20.726Z</time></trkpt><trkpt lat="43.590685" lon="11.1953733"><ele>204.0</ele><time>2026-04-25T09:15:21.724Z</time></trkpt><trkpt lat="43.5905883" lon="11.1954883"><ele>204.0</ele><time>2026-04-25T09:15:22.725Z</time></trkpt><trkpt lat="43.590465" lon="11.1956133"><ele>204.0</ele><time>2026-04-25T09:15:23.726Z</time></trkpt><trkpt lat="43.5903333" lon="11.195765"><ele>207.33333333333331</ele><time>2026-04-25T09:15:24.726Z</time></trkpt><trkpt lat="43.5902" lon="11.1959633"><ele>210.66666666666666</ele><time>2026-04-25T09:15:25.726Z</time></trkpt><trkpt lat="43.5900633" lon="11.196175"><ele>214.0</ele><time>2026-04-25T09:15:26.727Z</time></trkpt><trkpt lat="43.5899117" lon="11.1963717"><ele>213.33333333333331</ele><time>2026-04-25T09:15:27.726Z</time></trkpt><trkpt lat="43.5897667" lon="11.1965367"><ele>212.66666666666669</ele><time>2026-04-25T09:15:28.727Z</time></trkpt><trkpt lat="43.5896133" lon="11.1966567"><ele>212.0</ele><time>2026-04-25T09:15:29.725Z</time></trkpt><trkpt lat="43.589455" lon="11.1967117"><ele>212.0</ele><time>2026-04-25T09:15:30.722Z</time></trkpt><trkpt lat="43.589285" lon="11.19671"><ele>212.0</ele><time>2026-04-25T09:15:31.724Z</time></trkpt><trkpt lat="43.5891133" lon="11.196675"><ele>212.0</ele><time>2026-04-25T09:15:32.726Z</time></trkpt><trkpt lat="43.5889583" lon="11.19662"><ele>212.0</ele><time>2026-04-25T09:15:33.724Z</time></trkpt><trkpt lat="43.5888233" lon="11.196535"><ele>212.0</ele><time>2026-04-25T09:15:34.726Z</time></trkpt><trkpt lat="43.58871" lon="11.196375"><ele>212.0</ele><time>2026-04-25T09:15:35.725Z</time></trkpt><trkpt lat="43.58862" lon="11.1961683"><ele>216.0</ele><time>2026-04-25T09:15:36.725Z</time></trkpt><trkpt lat="43.5885467" lon="11.1959633"><ele>220.0</ele><time>2026-04-25T09:15:37.728Z</time></trkpt><trkpt lat="43.5884717" lon="11.195795"><ele>224.0</ele><time>2026-04-25T09:15:38.726Z</time></trkpt><trkpt lat="43.5883617" lon="11.195675"><ele>228.0</ele><time>2026-04-25T09:15:39.726Z</time></trkpt><trkpt lat="43.58821" lon="11.19561"><ele>232.0</ele><time>2026-04-25T09:15:40.724Z</time></trkpt><trkpt lat="43.5880217" lon="11.1955967"><ele>236.0</ele><time>2026-04-25T09:15:41.726Z</time></trkpt><trkpt lat="43.587815" lon="11.1956117"><ele>240.0</ele><time>2026-04-25T09:15:42.726Z</time></trkpt><trkpt lat="43.587625" lon="11.195625"><ele>243.0</ele><time>2026-04-25T09:15:43.723Z</time></trkpt><trkpt lat="43.5874583" lon="11.1956267"><ele>246.0</ele><time>2026-04-25T09:15:44.725Z</time></trkpt><trkpt lat="43.5873083" lon="11.1955733"><ele>249.0</ele><time>2026-04-25T09:15:45.725Z</time></trkpt><trkpt lat="43.5871817" lon="11.1954733"><ele>249.0</ele><time>2026-04-25T09:15:46.726Z</time></trkpt><trkpt lat="43.58709" lon="11.1953267"><ele>249.0</ele><time>2026-04-25T09:15:47.726Z</time></trkpt><trkpt lat="43.5870233" lon="11.1951617"><ele>249.0</ele><time>2026-04-25T09:15:48.726Z</time></trkpt><trkpt lat="43.5869417" lon="11.194995"><ele>249.0</ele><time>2026-04-25T09:15:49.727Z</time></trkpt><trkpt lat="43.58683" lon="11.1948683"><ele>251.5</ele><time>2026-04-25T09:15:50.726Z</time></trkpt><trkpt lat="43.5867017" lon="11.1947933"><ele>254.0</ele><time>2026-04-25T09:15:51.726Z</time></trkpt><trkpt lat="43.5865933" lon="11.1947133"><ele>256.5</ele><time>2026-04-25T09:15:52.725Z</time></trkpt><trkpt lat="43.5865117" lon="11.1945833"><ele>259.0</ele><time>2026-04-25T09:15:53.723Z</time></trkpt><trkpt lat="43.5864583" lon="11.1944083"><ele>259.0</ele><time>2026-04-25T09:15:54.726Z</time></trkpt><trkpt lat="43.5864383" lon="11.19418"><ele>259.0</ele><time>2026-04-25T09:15:55.726Z</time></trkpt><trkpt lat="43.586405" lon="11.19392"><ele>259.0</ele><time>2026-04-25T09:15:56.723Z</time></trkpt><trkpt lat="43.586365" lon="11.1936367"><ele>259.66666666666663</ele><time>2026-04-25T09:15:57.726Z</time></trkpt><trkpt lat="43.5863133" lon="11.1933617"><ele>260.3333333333333</ele><time>2026-04-25T09:15:58.725Z</time></trkpt><trkpt lat="43.5862467" lon="11.1930883"><ele>261.0</ele><time>2026-04-25T09:15:59.726Z</time></trkpt><trkpt lat="43.586145" lon="11.1928267"><ele>261.0</ele><time>2026-04-25T09:16:00.727Z</time></trkpt><trkpt lat="43.586015" lon="11.1925667"><ele>261.0</ele><time>2026-04-25T09:16:01.723Z</time></trkpt><trkpt lat="43.5858733" lon="11.1922967"><ele>269.5</ele><time>2026-04-25T09:16:02.726Z</time></trkpt><trkpt lat="43.5857333" lon="11.1920233"><ele>278.0</ele><time>2026-04-25T09:16:03.723Z</time></trkpt><trkpt lat="43.5855983" lon="11.1917567"><ele>277.5</ele><time>2026-04-25T09:16:04.727Z</time></trkpt><trkpt lat="43.5854617" lon="11.191495"><ele>277.0</ele><time>2026-04-25T09:16:05.726Z</time></trkpt><trkpt lat="43.5853167" lon="11.1912483"><ele>277.0</ele><time>2026-04-25T09:16:06.723Z</time></trkpt><trkpt lat="43.5851567" lon="11.1910283"><ele>277.0</ele><time>2026-04-25T09:16:07.725Z</time></trkpt><trkpt lat="43.5849833" lon="11.1908233"><ele>285.0</ele><time>2026-04-25T09:16:08.726Z</time></trkpt><trkpt lat="43.5848" lon="11.1906317"><ele>293.0</ele><time>2026-04-25T09:16:09.724Z</time></trkpt><trkpt lat="43.5846133" lon="11.1904383"><ele>289.0</ele><time>2026-04-25T09:16:10.726Z</time></trkpt><trkpt lat="43.5844283" lon="11.190245"><ele>285.0</ele><time>2026-04-25T09:16:11.724Z</time></trkpt><trkpt lat="43.5842367" lon="11.19006"><ele>285.0</ele><time>2026-04-25T09:16:12.724Z</time></trkpt><trkpt lat="43.5840383" lon="11.189895"><ele>285.0</ele><time>2026-04-25T09:16:13.725Z</time></trkpt><trkpt lat="43.5838317" lon="11.1897333"><ele>288.0</ele><time>2026-04-25T09:16:14.727Z</time></trkpt><trkpt lat="43.5836133" lon="11.1895967"><ele>291.0</ele><time>2026-04-25T09:16:15.726Z</time></trkpt><trkpt lat="43.5833833" lon="11.1894767"><ele>291.0</ele><time>2026-04-25T09:16:16.724Z</time></trkpt><trkpt lat="43.5831583" lon="11.1893533"><ele>291.0</ele><time>2026-04-25T09:16:17.726Z</time></trkpt><trkpt lat="43.5829417" lon="11.1892333"><ele>290.5</ele><time>2026-04-25T09:16:18.727Z</time></trkpt><trkpt lat="43.5827283" lon="11.1891133"><ele>290.0</ele><time>2026-04-25T09:16:19.726Z</time></trkpt><trkpt lat="43.5825217" lon="11.188995"><ele>294.33333333333337</ele><time>2026-04-25T09:16:20.726Z</time></trkpt><trkpt lat="43.5823233" lon="11.1888867"><ele>298.6666666666667</ele><time>2026-04-25T09:16:21.725Z</time></trkpt><trkpt lat="43.5821367" lon="11.188785"><ele>303.0</ele><time>2026-04-25T09:16:22.726Z</time></trkpt><trkpt lat="43.581965" lon="11.188695"><ele>303.5</ele><time>2026-04-25T09:16:23.725Z</time></trkpt><trkpt lat="43.5818117" lon="11.18861"><ele>304.0</ele><time>2026-04-25T09:16:24.728Z</time></trkpt><trkpt lat="43.58168" lon="11.1885167"><ele>304.5</ele><time>2026-04-25T09:16:25.724Z</time></trkpt><trkpt lat="43.5815683" lon="11.1884167"><ele>305.0</ele><time>2026-04-25T09:16:26.727Z</time></trkpt><trkpt lat="43.5814717" lon="11.1883"><ele>305.0</ele><time>2026-04-25T09:16:27.725Z</time></trkpt><trkpt lat="43.581385" lon="11.1881767"><ele>305.0</ele><time>2026-04-25T09:16:28.726Z</time></trkpt><trkpt lat="43.5813" lon="11.1880483"><ele>305.0</ele><time>2026-04-25T09:16:29.727Z</time></trkpt><trkpt lat="43.5812083" lon="11.187915"><ele>305.0</ele><time>2026-04-25T09:16:30.724Z</time></trkpt><trkpt lat="43.5810917" lon="11.1877883"><ele>304.33333333333337</ele><time>2026-04-25T09:16:31.725Z</time></trkpt><trkpt lat="43.58095" lon="11.1876733"><ele>303.6666666666667</ele><time>2026-04-25T09:16:32.724Z</time></trkpt><trkpt lat="43.5807983" lon="11.1875567"><ele>303.0</ele><time>2026-04-25T09:16:33.725Z</time></trkpt><trkpt lat="43.580635" lon="11.1874417"><ele>302.0</ele><time>2026-04-25T09:16:34.726Z</time></trkpt><trkpt lat="43.5804583" lon="11.187325"><ele>301.0</ele><time>2026-04-25T09:16:35.727Z</time></trkpt><trkpt lat="43.5802683" lon="11.18726"><ele>300.0</ele><time>2026-04-25T09:16:36.724Z</time></trkpt><trkpt lat="43.5800567" lon="11.1872617"><ele>298.6666666666667</ele><time>2026-04-25T09:16:37.728Z</time></trkpt><trkpt lat="43.5798467" lon="11.1872983"><ele>297.33333333333337</ele><time>2026-04-25T09:16:38.726Z</time></trkpt><trkpt lat="43.5796483" lon="11.1873533"><ele>296.0</ele><time>2026-04-25T09:16:39.726Z</time></trkpt><trkpt lat="43.5794567" lon="11.187385"><ele>294.0</ele><time>2026-04-25T09:16:40.726Z</time></trkpt><trkpt lat="43.5792683" lon="11.1873733"><ele>292.0</ele><time>2026-04-25T09:16:41.725Z</time></trkpt><trkpt lat="43.579085" lon="11.1872917"><ele>290.0</ele><time>2026-04-25T09:16:42.726Z</time></trkpt><trkpt lat="43.5789083" lon="11.187155"><ele>290.0</ele><time>2026-04-25T09:16:43.725Z</time></trkpt><trkpt lat="43.5787383" lon="11.187"><ele>290.0</ele><time>2026-04-25T09:16:44.726Z</time></trkpt><trkpt lat="43.578575" lon="11.1868633"><ele>290.0</ele><time>2026-04-25T09:16:45.726Z</time></trkpt><trkpt lat="43.57841" lon="11.186775"><ele>290.0</ele><time>2026-04-25T09:16:46.726Z</time></trkpt><trkpt lat="43.5782267" lon="11.1867567"><ele>290.0</ele><time>2026-04-25T09:16:47.725Z</time></trkpt><trkpt lat="43.5780267" lon="11.1868283"><ele>290.0</ele><time>2026-04-25T09:16:48.725Z</time></trkpt><trkpt lat="43.57782" lon="11.1868783"><ele>292.5</ele><time>2026-04-25T09:16:49.723Z</time></trkpt><trkpt lat="43.5776" lon="11.1868883"><ele>295.0</ele><time>2026-04-25T09:16:50.725Z</time></trkpt><trkpt lat="43.5773683" lon="11.1868483"><ele>295.0</ele><time>2026-04-25T09:16:51.725Z</time></trkpt><trkpt lat="43.5771317" lon="11.1867917"><ele>295.0</ele><time>2026-04-25T09:16:52.724Z</time></trkpt><trkpt lat="43.5768883" lon="11.1867183"><ele>299.5</ele><time>2026-04-25T09:16:53.726Z</time></trkpt><trkpt lat="43.57665" lon="11.1866417"><ele>304.0</ele><time>2026-04-25T09:16:54.726Z</time></trkpt><trkpt lat="43.57643" lon="11.1865517"><ele>306.0</ele><time>2026-04-25T09:16:55.726Z</time></trkpt><trkpt lat="43.5762333" lon="11.1864467"><ele>308.0</ele><time>2026-04-25T09:16:56.724Z</time></trkpt><trkpt lat="43.5760567" lon="11.1863567"><ele>310.0</ele><time>2026-04-25T09:16:57.725Z</time></trkpt><trkpt lat="43.5758833" lon="11.186325"><ele>313.0</ele><time>2026-04-25T09:16:58.725Z</time></trkpt><trkpt lat="43.5757067" lon="11.1863433"><ele>316.0</ele><time>2026-04-25T09:16:59.726Z</time></trkpt><trkpt lat="43.5755433" lon="11.1863867"><ele>319.0</ele><time>2026-04-25T09:17:00.725Z</time></trkpt><trkpt lat="43.5754133" lon="11.1864067"><ele>319.0</ele><time>2026-04-25T09:17:01.725Z</time></trkpt><trkpt lat="43.5753083" lon="11.1863667"><ele>319.0</ele><time>2026-04-25T09:17:02.725Z</time></trkpt><trkpt lat="43.57523" lon="11.1862417"><ele>319.0</ele><time>2026-04-25T09:17:03.724Z</time></trkpt><trkpt lat="43.5751833" lon="11.18606"><ele>319.0</ele><time>2026-04-25T09:17:04.725Z</time></trkpt><trkpt lat="43.5751617" lon="11.1858117"><ele>321.66666666666663</ele><time>2026-04-25T09:17:05.725Z</time></trkpt><trkpt lat="43.575135" lon="11.1855317"><ele>324.3333333333333</ele><time>2026-04-25T09:17:06.726Z</time></trkpt><trkpt lat="43.5751083" lon="11.18523"><ele>327.0</ele><time>2026-04-25T09:17:07.726Z</time></trkpt><trkpt lat="43.5750767" lon="11.18495"><ele>328.6666666666667</ele><time>2026-04-25T09:17:08.726Z</time></trkpt><trkpt lat="43.5750367" lon="11.1847117"><ele>330.33333333333337</ele><time>2026-04-25T09:17:09.726Z</time></trkpt><trkpt lat="43.574965" lon="11.18452"><ele>332.0</ele><time>2026-04-25T09:17:10.726Z</time></trkpt><trkpt lat="43.5748517" lon="11.1843833"><ele>332.0</ele><time>2026-04-25T09:17:11.724Z</time></trkpt><trkpt lat="43.5747" lon="11.1843"><ele>332.0</ele><time>2026-04-25T09:17:12.724Z</time></trkpt><trkpt lat="43.574515" lon="11.1842467"><ele>332.0</ele><time>2026-04-25T09:17:13.724Z</time></trkpt><trkpt lat="43.5743067" lon="11.1841967"><ele>333.33333333333337</ele><time>2026-04-25T09:17:14.725Z</time></trkpt><trkpt lat="43.5740983" lon="11.1841367"><ele>334.6666666666667</ele><time>2026-04-25T09:17:15.725Z</time></trkpt><trkpt lat="43.57391" lon="11.1840783"><ele>336.0</ele><time>2026-04-25T09:17:16.725Z</time></trkpt><trkpt lat="43.5737383" lon="11.1840267"><ele>337.3333333333333</ele><time>2026-04-25T09:17:17.726Z</time></trkpt><trkpt lat="43.573585" lon="11.1839733"><ele>338.66666666666663</ele><time>2026-04-25T09:17:18.726Z</time></trkpt><trkpt lat="43.5734417" lon="11.1839067"><ele>340.0</ele><time>2026-04-25T09:17:19.723Z</time></trkpt><trkpt lat="43.5733133" lon="11.183815"><ele>340.0</ele><time>2026-04-25T09:17:20.724Z</time></trkpt><trkpt lat="43.5731933" lon="11.183695"><ele>340.0</ele><time>2026-04-25T09:17:21.724Z</time></trkpt><trkpt lat="43.57307" lon="11.1835467"><ele>340.0</ele><time>2026-04-25T09:17:22.725Z</time></trkpt><trkpt lat="43.5729467" lon="11.183375"><ele>339.0</ele><time>2026-04-25T09:17:23.724Z</time></trkpt><trkpt lat="43.57282" lon="11.1832067"><ele>338.0</ele><time>2026-04-25T09:17:24.724Z</time></trkpt><trkpt lat="43.5726883" lon="11.1830333"><ele>337.0</ele><time>2026-04-25T09:17:25.726Z</time></trkpt><trkpt lat="43.5725533" lon="11.1828633"><ele>336.3333333333333</ele><time>2026-04-25T09:17:26.725Z</time></trkpt><trkpt lat="43.57242" lon="11.1826967"><ele>335.6666666666667</ele><time>2026-04-25T09:17:27.727Z</time></trkpt><trkpt lat="43.5722917" lon="11.1825333"><ele>335.0</ele><time>2026-04-25T09:17:28.723Z</time></trkpt><trkpt lat="43.5721717" lon="11.1823867"><ele>335.0</ele><time>2026-04-25T09:17:29.725Z</time></trkpt><trkpt lat="43.57206" lon="11.1822583"><ele>335.0</ele><time>2026-04-25T09:17:30.725Z</time></trkpt><trkpt lat="43.571955" lon="11.1821433"><ele>335.0</ele><time>2026-04-25T09:17:31.725Z</time></trkpt><trkpt lat="43.571855" lon="11.1820383"><ele>335.0</ele><time>2026-04-25T09:17:32.726Z</time></trkpt><trkpt lat="43.5717633" lon="11.1819417"><ele>335.0</ele><time>2026-04-25T09:17:33.725Z</time></trkpt><trkpt lat="43.5716883" lon="11.1818367"><ele>335.0</ele><time>2026-04-25T09:17:34.723Z</time></trkpt><trkpt lat="43.571625" lon="11.1817183"><ele>335.0</ele><time>2026-04-25T09:17:35.725Z</time></trkpt><trkpt lat="43.5715783" lon="11.1815767"><ele>335.0</ele><time>2026-04-25T09:17:36.725Z</time></trkpt><trkpt lat="43.57156" lon="11.1814217"><ele>335.0</ele><time>2026-04-25T09:17:37.727Z</time></trkpt><trkpt lat="43.5715717" lon="11.181245"><ele>336.0</ele><time>2026-04-25T09:17:38.725Z</time></trkpt><trkpt lat="43.5716167" lon="11.1810617"><ele>337.0</ele><time>2026-04-25T09:17:39.725Z</time></trkpt><trkpt lat="43.5716867" lon="11.1808633"><ele>338.0</ele><time>2026-04-25T09:17:40.723Z</time></trkpt><trkpt lat="43.571765" lon="11.1806483"><ele>339.6666666666667</ele><time>2026-04-25T09:17:41.724Z</time></trkpt><trkpt lat="43.5718333" lon="11.1804317"><ele>341.3333333333333</ele><time>2026-04-25T09:17:42.725Z</time></trkpt><trkpt lat="43.571895" lon="11.1802033"><ele>343.0</ele><time>2026-04-25T09:17:43.726Z</time></trkpt><trkpt lat="43.5719417" lon="11.17996"><ele>342.66666666666663</ele><time>2026-04-25T09:17:44.724Z</time></trkpt><trkpt lat="43.5719683" lon="11.179705"><ele>342.3333333333333</ele><time>2026-04-25T09:17:45.725Z</time></trkpt><trkpt lat="43.5719733" lon="11.1794467"><ele>342.0</ele><time>2026-04-25T09:17:46.724Z</time></trkpt><trkpt lat="43.5719417" lon="11.1791867"><ele>338.0</ele><time>2026-04-25T09:17:47.726Z</time></trkpt><trkpt lat="43.5718783" lon="11.17893"><ele>334.0</ele><time>2026-04-25T09:17:48.725Z</time></trkpt><trkpt lat="43.5717833" lon="11.17869"><ele>330.0</ele><time>2026-04-25T09:17:49.726Z</time></trkpt><trkpt lat="43.5716633" lon="11.1784633"><ele>330.0</ele><time>2026-04-25T09:17:50.726Z</time></trkpt><trkpt lat="43.5715233" lon="11.1782633"><ele>330.0</ele><time>2026-04-25T09:17:51.726Z</time></trkpt><trkpt lat="43.5713583" lon="11.1780967"><ele>330.0</ele><time>2026-04-25T09:17:52.724Z</time></trkpt><trkpt lat="43.5711717" lon="11.1779683"><ele>329.6666666666667</ele><time>2026-04-25T09:17:53.725Z</time></trkpt><trkpt lat="43.5709767" lon="11.17786"><ele>329.33333333333337</ele><time>2026-04-25T09:17:54.727Z</time></trkpt><trkpt lat="43.5707817" lon="11.1777633"><ele>329.0</ele><time>2026-04-25T09:17:55.726Z</time></trkpt><trkpt lat="43.5705833" lon="11.17768"><ele>329.0</ele><time>2026-04-25T09:17:56.727Z</time></trkpt><trkpt lat="43.5703817" lon="11.1776133"><ele>329.0</ele><time>2026-04-25T09:17:57.726Z</time></trkpt><trkpt lat="43.5701833" lon="11.1775533"><ele>329.0</ele><time>2026-04-25T09:17:58.725Z</time></trkpt><trkpt lat="43.569985" lon="11.1774933"><ele>328.33333333333337</ele><time>2026-04-25T09:17:59.725Z</time></trkpt><trkpt lat="43.5697917" lon="11.1774283"><ele>327.6666666666667</ele><time>2026-04-25T09:18:00.726Z</time></trkpt><trkpt lat="43.5695933" lon="11.1773567"><ele>327.0</ele><time>2026-04-25T09:18:01.724Z</time></trkpt><trkpt lat="43.5693867" lon="11.1772733"><ele>327.0</ele><time>2026-04-25T09:18:02.726Z</time></trkpt><trkpt lat="43.5691767" lon="11.1771833"><ele>327.0</ele><time>2026-04-25T09:18:03.725Z</time></trkpt><trkpt lat="43.5689717" lon="11.17706"><ele>327.0</ele><time>2026-04-25T09:18:04.724Z</time></trkpt><trkpt lat="43.5687867" lon="11.1768983"><ele>327.6666666666667</ele><time>2026-04-25T09:18:05.727Z</time></trkpt><trkpt lat="43.568625" lon="11.1766917"><ele>328.33333333333337</ele><time>2026-04-25T09:18:06.726Z</time></trkpt><trkpt lat="43.5684867" lon="11.176445"><ele>329.0</ele><time>2026-04-25T09:18:07.728Z</time></trkpt><trkpt lat="43.5683717" lon="11.1761733"><ele>329.0</ele><time>2026-04-25T09:18:08.724Z</time></trkpt><trkpt lat="43.5682783" lon="11.1758867"><ele>329.0</ele><time>2026-04-25T09:18:09.727Z</time></trkpt><trkpt lat="43.5681983" lon="11.1755867"><ele>333.0</ele><time>2026-04-25T09:18:10.726Z</time></trkpt><trkpt lat="43.5681167" lon="11.1752817"><ele>337.0</ele><time>2026-04-25T09:18:11.726Z</time></trkpt><trkpt lat="43.5680317" lon="11.1749833"><ele>339.0</ele><time>2026-04-25T09:18:12.723Z</time></trkpt><trkpt lat="43.5679333" lon="11.1746933"><ele>341.0</ele><time>2026-04-25T09:18:13.724Z</time></trkpt><trkpt lat="43.5678133" lon="11.1744217"><ele>341.0</ele><time>2026-04-25T09:18:14.725Z</time></trkpt><trkpt lat="43.5676717" lon="11.1741733"><ele>341.0</ele><time>2026-04-25T09:18:15.726Z</time></trkpt><trkpt lat="43.567515" lon="11.1739433"><ele>345.0</ele><time>2026-04-25T09:18:16.724Z</time></trkpt><trkpt lat="43.5673483" lon="11.173735"><ele>349.0</ele><time>2026-04-25T09:18:17.726Z</time></trkpt><trkpt lat="43.56717" lon="11.17353"><ele>349.5</ele><time>2026-04-25T09:18:18.725Z</time></trkpt><trkpt lat="43.56699" lon="11.1733233"><ele>350.0</ele><time>2026-04-25T09:18:19.727Z</time></trkpt><trkpt lat="43.566815" lon="11.173115"><ele>351.33333333333337</ele><time>2026-04-25T09:18:20.727Z</time></trkpt><trkpt lat="43.5666567" lon="11.1729133"><ele>352.6666666666667</ele><time>2026-04-25T09:18:21.725Z</time></trkpt><trkpt lat="43.56652" lon="11.1727183"><ele>354.0</ele><time>2026-04-25T09:18:22.724Z</time></trkpt><trkpt lat="43.5664067" lon="11.1725317"><ele>356.25</ele><time>2026-04-25T09:18:23.725Z</time></trkpt><trkpt lat="43.5663117" lon="11.1723533"><ele>358.5</ele><time>2026-04-25T09:18:24.724Z</time></trkpt><trkpt lat="43.5662283" lon="11.1721867"><ele>360.75</ele><time>2026-04-25T09:18:25.724Z</time></trkpt><trkpt lat="43.5661517" lon="11.1720217"><ele>363.0</ele><time>2026-04-25T09:18:26.727Z</time></trkpt><trkpt lat="43.56608" lon="11.1718567"><ele>363.75</ele><time>2026-04-25T09:18:27.726Z</time></trkpt><trkpt lat="43.5660117" lon="11.1716983"><ele>364.5</ele><time>2026-04-25T09:18:28.724Z</time></trkpt><trkpt lat="43.565955" lon="11.1715533"><ele>365.25</ele><time>2026-04-25T09:18:29.726Z</time></trkpt><trkpt lat="43.5659067" lon="11.1714183"><ele>366.0</ele><time>2026-04-25T09:18:30.725Z</time></trkpt><trkpt lat="43.565875" lon="11.171305"><ele>366.6</ele><time>2026-04-25T09:18:31.723Z</time></trkpt><trkpt lat="43.565855" lon="11.1711917"><ele>367.20000000000005</ele><time>2026-04-25T09:18:33.725Z</time></trkpt><trkpt lat="43.565845" lon="11.1710617"><ele>367.79999999999995</ele><time>2026-04-25T09:18:36.724Z</time></trkpt><trkpt lat="43.56584" lon="11.1709017"><ele>368.4</ele><time>2026-04-25T09:18:38.724Z</time></trkpt><trkpt lat="43.5657583" lon="11.1707917"><ele>369.0</ele><time>2026-04-25T09:18:40.725Z</time></trkpt><trkpt lat="43.5656817" lon="11.1707583"><ele>369.0</ele><time>2026-04-25T09:18:41.725Z</time></trkpt><trkpt lat="43.5655917" lon="11.1707317"><ele>369.0</ele><time>2026-04-25T09:18:42.724Z</time></trkpt><trkpt lat="43.5654767" lon="11.1706767"><ele>369.0</ele><time>2026-04-25T09:18:43.725Z</time></trkpt><trkpt lat="43.5653683" lon="11.1705917"><ele>369.0</ele><time>2026-04-25T09:18:44.725Z</time></trkpt><trkpt lat="43.5652633" lon="11.1705017"><ele>368.5</ele><time>2026-04-25T09:18:45.725Z</time></trkpt><trkpt lat="43.56516" lon="11.1704017"><ele>368.0</ele><time>2026-04-25T09:18:46.725Z</time></trkpt><trkpt lat="43.5650533" lon="11.1702933"><ele>367.5</ele><time>2026-04-25T09:18:47.724Z</time></trkpt><trkpt lat="43.564945" lon="11.1701883"><ele>367.0</ele><time>2026-04-25T09:18:48.725Z</time></trkpt><trkpt lat="43.5648317" lon="11.1700767"><ele>367.0</ele><time>2026-04-25T09:18:49.724Z</time></trkpt><trkpt lat="43.5647167" lon="11.1699617"><ele>367.0</ele><time>2026-04-25T09:18:50.723Z</time></trkpt><trkpt lat="43.5646" lon="11.1698433"><ele>367.0</ele><time>2026-04-25T09:18:51.723Z</time></trkpt><trkpt lat="43.5644817" lon="11.16972"><ele>367.0</ele><time>2026-04-25T09:18:52.725Z</time></trkpt><trkpt lat="43.5643633" lon="11.169605"><ele>362.5</ele><time>2026-04-25T09:18:53.723Z</time></trkpt><trkpt lat="43.5641233" lon="11.169385"><ele>358.0</ele><time>2026-04-25T09:18:55.723Z</time></trkpt><trkpt lat="43.5638817" lon="11.1691983"><ele>358.0</ele><time>2026-04-25T09:18:57.723Z</time></trkpt><trkpt lat="43.563765" lon="11.1691233"><ele>358.0</ele><time>2026-04-25T09:18:58.723Z</time></trkpt><trkpt lat="43.5636517" lon="11.16906"><ele>358.0</ele><time>2026-04-25T09:18:59.723Z</time></trkpt><trkpt lat="43.5635483" lon="11.1690117"><ele>358.0</ele><time>2026-04-25T09:19:00.724Z</time></trkpt><trkpt lat="43.56345" lon="11.1689783"><ele>357.0</ele><time>2026-04-25T09:19:01.722Z</time></trkpt><trkpt lat="43.5633683" lon="11.1689483"><ele>356.0</ele><time>2026-04-25T09:19:02.723Z</time></trkpt><trkpt lat="43.5632983" lon="11.1688917"><ele>355.0</ele><time>2026-04-25T09:19:03.723Z</time></trkpt><trkpt lat="43.5632367" lon="11.1688083"><ele>354.0</ele><time>2026-04-25T09:19:04.723Z</time></trkpt><trkpt lat="43.5631817" lon="11.1687383"><ele>353.0</ele><time>2026-04-25T09:19:05.723Z</time></trkpt><trkpt lat="43.5631233" lon="11.168695"><ele>352.0</ele><time>2026-04-25T09:19:06.723Z</time></trkpt><trkpt lat="43.56304" lon="11.1686883"><ele>352.0</ele><time>2026-04-25T09:19:07.723Z</time></trkpt><trkpt lat="43.5629433" lon="11.168715"><ele>352.0</ele><time>2026-04-25T09:19:08.723Z</time></trkpt><trkpt lat="43.5628533" lon="11.1687117"><ele>352.0</ele><time>2026-04-25T09:19:09.723Z</time></trkpt><trkpt lat="43.5627333" lon="11.1686783"><ele>352.0</ele><time>2026-04-25T09:19:10.724Z</time></trkpt><trkpt lat="43.56261" lon="11.1686233"><ele>352.0</ele><time>2026-04-25T09:19:11.723Z</time></trkpt><trkpt lat="43.5624833" lon="11.168575"><ele>352.5</ele><time>2026-04-25T09:19:12.724Z</time></trkpt><trkpt lat="43.5623533" lon="11.1685117"><ele>353.0</ele><time>2026-04-25T09:19:13.723Z</time></trkpt><trkpt lat="43.5622167" lon="11.1684433"><ele>353.5</ele><time>2026-04-25T09:19:14.724Z</time></trkpt><trkpt lat="43.56208" lon="11.16837"><ele>354.0</ele><time>2026-04-25T09:19:15.724Z</time></trkpt><trkpt lat="43.5619467" lon="11.1682967"><ele>354.5</ele><time>2026-04-25T09:19:16.724Z</time></trkpt><trkpt lat="43.56181" lon="11.168215"><ele>355.0</ele><time>2026-04-25T09:19:17.722Z</time></trkpt><trkpt lat="43.5616717" lon="11.168125"><ele>355.5</ele><time>2026-04-25T09:19:18.723Z</time></trkpt><trkpt lat="43.5615383" lon="11.1680383"><ele>356.0</ele><time>2026-04-25T09:19:19.722Z</time></trkpt><trkpt lat="43.5614083" lon="11.1679483"><ele>357.25</ele><time>2026-04-25T09:19:20.724Z</time></trkpt><trkpt lat="43.5612767" lon="11.1678567"><ele>358.5</ele><time>2026-04-25T09:19:21.723Z</time></trkpt><trkpt lat="43.5611533" lon="11.1677567"><ele>359.75</ele><time>2026-04-25T09:19:22.723Z</time></trkpt><trkpt lat="43.561035" lon="11.167655"><ele>361.0</ele><time>2026-04-25T09:19:23.724Z</time></trkpt><trkpt lat="43.5609283" lon="11.167555"><ele>361.6</ele><time>2026-04-25T09:19:24.723Z</time></trkpt><trkpt lat="43.56083" lon="11.16746"><ele>362.20000000000005</ele><time>2026-04-25T09:19:25.723Z</time></trkpt><trkpt lat="43.5607367" lon="11.1673733"><ele>362.79999999999995</ele><time>2026-04-25T09:19:26.724Z</time></trkpt><trkpt lat="43.5606617" lon="11.1673"><ele>363.4</ele><time>2026-04-25T09:19:27.724Z</time></trkpt><trkpt lat="43.5606" lon="11.16723"><ele>364.0</ele><time>2026-04-25T09:19:28.724Z</time></trkpt><trkpt lat="43.5605467" lon="11.1671633"><ele>365.2</ele><time>2026-04-25T09:19:29.724Z</time></trkpt><trkpt lat="43.5605" lon="11.1670967"><ele>366.4</ele><time>2026-04-25T09:19:30.724Z</time></trkpt><trkpt lat="43.56043" lon="11.16699"><ele>367.6</ele><time>2026-04-25T09:19:32.724Z</time></trkpt><trkpt lat="43.5603717" lon="11.166945"><ele>368.8</ele><time>2026-04-25T09:19:39.723Z</time></trkpt><trkpt lat="43.5602817" lon="11.1668117"><ele>370.0</ele><time>2026-04-25T09:19:41.724Z</time></trkpt><trkpt lat="43.560225" lon="11.166735"><ele>370.0</ele><time>2026-04-25T09:19:42.723Z</time></trkpt><trkpt lat="43.5601633" lon="11.166645"><ele>370.0</ele><time>2026-04-25T09:19:43.723Z</time></trkpt><trkpt lat="43.5601017" lon="11.1665483"><ele>370.0</ele><time>2026-04-25T09:19:44.724Z</time></trkpt><trkpt lat="43.5600383" lon="11.166445"><ele>370.0</ele><time>2026-04-25T09:19:45.723Z</time></trkpt><trkpt lat="43.5599733" lon="11.1663367"><ele>370.0</ele><time>2026-04-25T09:19:46.723Z</time></trkpt><trkpt lat="43.55991" lon="11.1662267"><ele>371.0</ele><time>2026-04-25T09:19:47.724Z</time></trkpt><trkpt lat="43.5598517" lon="11.16612"><ele>372.0</ele><time>2026-04-25T09:19:48.723Z</time></trkpt><trkpt lat="43.5598" lon="11.1660267"><ele>373.0</ele><time>2026-04-25T09:19:49.724Z</time></trkpt><trkpt lat="43.5597567" lon="11.1659383"><ele>374.0</ele><time>2026-04-25T09:19:50.723Z</time></trkpt><trkpt lat="43.559715" lon="11.165865"><ele>375.0</ele><time>2026-04-25T09:19:51.724Z</time></trkpt><trkpt lat="43.559655" lon="11.1657367"><ele>376.0</ele><time>2026-04-25T09:19:53.722Z</time></trkpt><trkpt lat="43.55963" lon="11.1656217"><ele>376.25</ele><time>2026-04-25T09:19:55.723Z</time></trkpt><trkpt lat="43.5596033" lon="11.1654683"><ele>376.5</ele><time>2026-04-25T09:19:57.73Z</time></trkpt><trkpt lat="43.559535" lon="11.1653517"><ele>376.75</ele><time>2026-04-25T09:19:59.726Z</time></trkpt><trkpt lat="43.5594317" lon="11.1653817"><ele>377.0</ele><time>2026-04-25T09:20:01.725Z</time></trkpt><trkpt lat="43.5593467" lon="11.165545"><ele>377.0</ele><time>2026-04-25T09:20:03.724Z</time></trkpt><trkpt lat="43.5592883" lon="11.1656467"><ele>377.0</ele><time>2026-04-25T09:20:04.724Z</time></trkpt><trkpt lat="43.5592067" lon="11.1657567"><ele>377.0</ele><time>2026-04-25T09:20:05.726Z</time></trkpt><trkpt lat="43.5591117" lon="11.1658717"><ele>377.0</ele><time>2026-04-25T09:20:06.724Z</time></trkpt><trkpt lat="43.5590183" lon="11.16599"><ele>376.75</ele><time>2026-04-25T09:20:07.725Z</time></trkpt><trkpt lat="43.5589317" lon="11.166115"><ele>376.5</ele><time>2026-04-25T09:20:08.728Z</time></trkpt><trkpt lat="43.55886" lon="11.16625"><ele>376.25</ele><time>2026-04-25T09:20:09.727Z</time></trkpt><trkpt lat="43.5587933" lon="11.16639"><ele>376.0</ele><time>2026-04-25T09:20:10.732Z</time></trkpt><trkpt lat="43.55873" lon="11.1665367"><ele>376.8</ele><time>2026-04-25T09:20:11.727Z</time></trkpt><trkpt lat="43.558665" lon="11.1666767"><ele>377.6</ele><time>2026-04-25T09:20:12.728Z</time></trkpt><trkpt lat="43.5586067" lon="11.1668067"><ele>378.4</ele><time>2026-04-25T09:20:13.727Z</time></trkpt><trkpt lat="43.5585467" lon="11.16693"><ele>379.2</ele><time>2026-04-25T09:20:14.728Z</time></trkpt><trkpt lat="43.5584883" lon="11.16705"><ele>380.0</ele><time>2026-04-25T09:20:15.725Z</time></trkpt><trkpt lat="43.5584217" lon="11.16716"><ele>380.0</ele><time>2026-04-25T09:20:16.729Z</time></trkpt><trkpt lat="43.5583617" lon="11.167285"><ele>380.0</ele><time>2026-04-25T09:20:17.725Z</time></trkpt><trkpt lat="43.55829" lon="11.1674017"><ele>380.0</ele><time>2026-04-25T09:20:18.724Z</time></trkpt><trkpt lat="43.558215" lon="11.1675267"><ele>380.0</ele><time>2026-04-25T09:20:19.726Z</time></trkpt><trkpt lat="43.5581433" lon="11.167655"><ele>380.0</ele><time>2026-04-25T09:20:20.726Z</time></trkpt><trkpt lat="43.5580733" lon="11.167775"><ele>380.0</ele><time>2026-04-25T09:20:21.726Z</time></trkpt><trkpt lat="43.5580117" lon="11.1678883"><ele>380.0</ele><time>2026-04-25T09:20:22.725Z</time></trkpt><trkpt lat="43.5579583" lon="11.1680083"><ele>380.0</ele><time>2026-04-25T09:20:23.726Z</time></trkpt><trkpt lat="43.557905" lon="11.1681317"><ele>380.0</ele><time>2026-04-25T09:20:24.726Z</time></trkpt><trkpt lat="43.5578533" lon="11.1682583"><ele>380.4</ele><time>2026-04-25T09:20:25.726Z</time></trkpt><trkpt lat="43.557805" lon="11.1683883"><ele>380.8</ele><time>2026-04-25T09:20:26.726Z</time></trkpt><trkpt lat="43.5577567" lon="11.16852"><ele>381.20000000000005</ele><time>2026-04-25T09:20:27.726Z</time></trkpt><trkpt lat="43.5577067" lon="11.16865"><ele>381.6</ele><time>2026-04-25T09:20:28.723Z</time></trkpt><trkpt lat="43.5576533" lon="11.168775"><ele>382.0</ele><time>2026-04-25T09:20:29.726Z</time></trkpt><trkpt lat="43.5575933" lon="11.168905"><ele>382.8</ele><time>2026-04-25T09:20:30.726Z</time></trkpt><trkpt lat="43.557545" lon="11.1690367"><ele>383.6</ele><time>2026-04-25T09:20:31.726Z</time></trkpt><trkpt lat="43.557505" lon="11.1691667"><ele>384.40000000000003</ele><time>2026-04-25T09:20:32.726Z</time></trkpt><trkpt lat="43.557445" lon="11.16929"><ele>385.20000000000005</ele><time>2026-04-25T09:20:33.725Z</time></trkpt><trkpt lat="43.5573967" lon="11.1694117"><ele>386.0</ele><time>2026-04-25T09:20:34.725Z</time></trkpt><trkpt lat="43.55735" lon="11.1695333"><ele>385.99999999999994</ele><time>2026-04-25T09:20:35.727Z</time></trkpt><trkpt lat="43.557305" lon="11.16965"><ele>386.0</ele><time>2026-04-25T09:20:36.727Z</time></trkpt><trkpt lat="43.5572667" lon="11.1697567"><ele>386.0</ele><time>2026-04-25T09:20:37.725Z</time></trkpt><trkpt lat="43.557225" lon="11.16986"><ele>386.0</ele><time>2026-04-25T09:20:38.734Z</time></trkpt><trkpt lat="43.5571867" lon="11.169945"><ele>385.99999999999994</ele><time>2026-04-25T09:20:39.725Z</time></trkpt><trkpt lat="43.5571517" lon="11.1700283"><ele>386.0</ele><time>2026-04-25T09:20:40.727Z</time></trkpt><trkpt lat="43.557115" lon="11.1701283"><ele>386.20000000000005</ele><time>2026-04-25T09:20:41.726Z</time></trkpt><trkpt lat="43.557075" lon="11.170235"><ele>386.40000000000003</ele><time>2026-04-25T09:20:42.725Z</time></trkpt><trkpt lat="43.5570317" lon="11.1703433"><ele>386.6</ele><time>2026-04-25T09:20:43.724Z</time></trkpt><trkpt lat="43.5569867" lon="11.1704617"><ele>386.8</ele><time>2026-04-25T09:20:44.726Z</time></trkpt><trkpt lat="43.5569483" lon="11.17059"><ele>387.0</ele><time>2026-04-25T09:20:45.726Z</time></trkpt><trkpt lat="43.5569067" lon="11.1707183"><ele>387.0</ele><time>2026-04-25T09:20:46.726Z</time></trkpt><trkpt lat="43.5568667" lon="11.1708517"><ele>387.0</ele><time>2026-04-25T09:20:47.725Z</time></trkpt><trkpt lat="43.5568367" lon="11.1709833"><ele>387.0</ele><time>2026-04-25T09:20:48.726Z</time></trkpt><trkpt lat="43.556805" lon="11.171115"><ele>387.0</ele><time>2026-04-25T09:20:49.726Z</time></trkpt><trkpt lat="43.5567717" lon="11.17126"><ele>387.0</ele><time>2026-04-25T09:20:50.728Z</time></trkpt><trkpt lat="43.55674" lon="11.1713867"><ele>387.0</ele><time>2026-04-25T09:20:51.725Z</time></trkpt><trkpt lat="43.5567117" lon="11.1715017"><ele>387.0</ele><time>2026-04-25T09:20:52.726Z</time></trkpt><trkpt lat="43.55669" lon="11.1716033"><ele>387.0</ele><time>2026-04-25T09:20:53.725Z</time></trkpt><trkpt lat="43.5566717" lon="11.1716967"><ele>387.0</ele><time>2026-04-25T09:20:54.726Z</time></trkpt><trkpt lat="43.5566467" lon="11.1717883"><ele>387.0</ele><time>2026-04-25T09:20:55.726Z</time></trkpt><trkpt lat="43.5566083" lon="11.171865"><ele>387.0</ele><time>2026-04-25T09:20:56.724Z</time></trkpt><trkpt lat="43.5565517" lon="11.1719383"><ele>386.40000000000003</ele><time>2026-04-25T09:20:57.726Z</time></trkpt><trkpt lat="43.5564767" lon="11.1719917"><ele>385.8</ele><time>2026-04-25T09:20:58.725Z</time></trkpt><trkpt lat="43.5563783" lon="11.1720283"><ele>385.2</ele><time>2026-04-25T09:20:59.725Z</time></trkpt><trkpt lat="43.5562883" lon="11.17206"><ele>384.6</ele><time>2026-04-25T09:21:00.726Z</time></trkpt><trkpt lat="43.55614" lon="11.1721033"><ele>384.0</ele><time>2026-04-25T09:21:01.725Z</time></trkpt><trkpt lat="43.5560017" lon="11.1721467"><ele>383.0</ele><time>2026-04-25T09:21:02.726Z</time></trkpt><trkpt lat="43.5558717" lon="11.17219"><ele>382.0</ele><time>2026-04-25T09:21:03.724Z</time></trkpt><trkpt lat="43.5557317" lon="11.1722367"><ele>381.0</ele><time>2026-04-25T09:21:04.725Z</time></trkpt><trkpt lat="43.555585" lon="11.172285"><ele>380.0</ele><time>2026-04-25T09:21:05.726Z</time></trkpt><trkpt lat="43.555445" lon="11.1723317"><ele>380.0</ele><time>2026-04-25T09:21:06.725Z</time></trkpt><trkpt lat="43.5553033" lon="11.1723767"><ele>380.0</ele><time>2026-04-25T09:21:07.726Z</time></trkpt><trkpt lat="43.5551617" lon="11.172425"><ele>380.0</ele><time>2026-04-25T09:21:08.727Z</time></trkpt><trkpt lat="43.5550233" lon="11.172485"><ele>380.0</ele><time>2026-04-25T09:21:09.726Z</time></trkpt><trkpt lat="43.5548867" lon="11.1725533"><ele>380.0</ele><time>2026-04-25T09:21:10.725Z</time></trkpt><trkpt lat="43.5547517" lon="11.172645"><ele>380.0</ele><time>2026-04-25T09:21:11.725Z</time></trkpt><trkpt lat="43.5546117" lon="11.1727383"><ele>380.0</ele><time>2026-04-25T09:21:12.726Z</time></trkpt><trkpt lat="43.5544867" lon="11.1728383"><ele>379.5</ele><time>2026-04-25T09:21:13.724Z</time></trkpt><trkpt lat="43.55436" lon="11.1729383"><ele>379.0</ele><time>2026-04-25T09:21:14.726Z</time></trkpt><trkpt lat="43.5542333" lon="11.173025"><ele>378.5</ele><time>2026-04-25T09:21:15.726Z</time></trkpt><trkpt lat="43.5541067" lon="11.173115"><ele>378.0</ele><time>2026-04-25T09:21:16.727Z</time></trkpt><trkpt lat="43.55398" lon="11.1732017"><ele>378.0</ele><time>2026-04-25T09:21:17.726Z</time></trkpt><trkpt lat="43.55385" lon="11.1732883"><ele>378.0</ele><time>2026-04-25T09:21:18.727Z</time></trkpt><trkpt lat="43.5537167" lon="11.17338"><ele>378.0</ele><time>2026-04-25T09:21:19.726Z</time></trkpt><trkpt lat="43.5535817" lon="11.17347"><ele>378.0</ele><time>2026-04-25T09:21:20.726Z</time></trkpt><trkpt lat="43.5534467" lon="11.173555"><ele>377.0</ele><time>2026-04-25T09:21:21.725Z</time></trkpt><trkpt lat="43.553315" lon="11.1736417"><ele>376.0</ele><time>2026-04-25T09:21:22.725Z</time></trkpt><trkpt lat="43.5531817" lon="11.17373"><ele>375.0</ele><time>2026-04-25T09:21:23.725Z</time></trkpt><trkpt lat="43.55304" lon="11.1738183"><ele>374.0</ele><time>2026-04-25T09:21:24.725Z</time></trkpt><trkpt lat="43.5528967" lon="11.1739033"><ele>374.0</ele><time>2026-04-25T09:21:25.725Z</time></trkpt><trkpt lat="43.5527533" lon="11.1739833"><ele>374.0</ele><time>2026-04-25T09:21:26.727Z</time></trkpt><trkpt lat="43.55261" lon="11.1740583"><ele>374.0</ele><time>2026-04-25T09:21:27.725Z</time></trkpt><trkpt lat="43.5524733" lon="11.1741383"><ele>372.5</ele><time>2026-04-25T09:21:28.726Z</time></trkpt><trkpt lat="43.5523367" lon="11.1742167"><ele>371.0</ele><time>2026-04-25T09:21:29.725Z</time></trkpt><trkpt lat="43.552205" lon="11.1742917"><ele>369.5</ele><time>2026-04-25T09:21:30.725Z</time></trkpt><trkpt lat="43.5520817" lon="11.174365"><ele>368.0</ele><time>2026-04-25T09:21:31.725Z</time></trkpt><trkpt lat="43.55196" lon="11.17443"><ele>367.75</ele><time>2026-04-25T09:21:32.727Z</time></trkpt><trkpt lat="43.551845" lon="11.1744967"><ele>367.5</ele><time>2026-04-25T09:21:33.724Z</time></trkpt><trkpt lat="43.5517283" lon="11.174565"><ele>367.25</ele><time>2026-04-25T09:21:34.727Z</time></trkpt><trkpt lat="43.55161" lon="11.1746333"><ele>367.0</ele><time>2026-04-25T09:21:35.726Z</time></trkpt><trkpt lat="43.5514867" lon="11.174705"><ele>367.0</ele><time>2026-04-25T09:21:36.729Z</time></trkpt><trkpt lat="43.5513633" lon="11.17478"><ele>367.0</ele><time>2026-04-25T09:21:37.725Z</time></trkpt><trkpt lat="43.5512383" lon="11.17486"><ele>367.0</ele><time>2026-04-25T09:21:38.728Z</time></trkpt><trkpt lat="43.5511183" lon="11.1749417"><ele>367.0</ele><time>2026-04-25T09:21:39.727Z</time></trkpt><trkpt lat="43.551005" lon="11.1750267"><ele>364.5</ele><time>2026-04-25T09:21:40.729Z</time></trkpt><trkpt lat="43.5508967" lon="11.1751183"><ele>362.0</ele><time>2026-04-25T09:21:41.725Z</time></trkpt><trkpt lat="43.5507917" lon="11.1752233"><ele>359.5</ele><time>2026-04-25T09:21:42.725Z</time></trkpt><trkpt lat="43.550695" lon="11.1753467"><ele>357.0</ele><time>2026-04-25T09:21:43.728Z</time></trkpt><trkpt lat="43.5506033" lon="11.1754817"><ele>357.0</ele><time>2026-04-25T09:21:44.727Z</time></trkpt><trkpt lat="43.5505133" lon="11.1756233"><ele>357.0</ele><time>2026-04-25T09:21:45.726Z</time></trkpt><trkpt lat="43.55042" lon="11.175765"><ele>357.0</ele><time>2026-04-25T09:21:46.726Z</time></trkpt><trkpt lat="43.5503167" lon="11.1759067"><ele>357.0</ele><time>2026-04-25T09:21:47.725Z</time></trkpt><trkpt lat="43.55021" lon="11.176045"><ele>354.5</ele><time>2026-04-25T09:21:48.725Z</time></trkpt><trkpt lat="43.5501067" lon="11.176175"><ele>352.0</ele><time>2026-04-25T09:21:49.727Z</time></trkpt><trkpt lat="43.550005" lon="11.1762983"><ele>349.5</ele><time>2026-04-25T09:21:50.727Z</time></trkpt><trkpt lat="43.5499133" lon="11.1764133"><ele>347.0</ele><time>2026-04-25T09:21:51.725Z</time></trkpt><trkpt lat="43.5498333" lon="11.176525"><ele>347.0</ele><time>2026-04-25T09:21:52.722Z</time></trkpt><trkpt lat="43.549755" lon="11.1766317"><ele>347.0</ele><time>2026-04-25T09:21:53.723Z</time></trkpt><trkpt lat="43.54968" lon="11.17673"><ele>347.0</ele><time>2026-04-25T09:21:54.724Z</time></trkpt><trkpt lat="43.54961" lon="11.1768233"><ele>347.0</ele><time>2026-04-25T09:21:55.724Z</time></trkpt><trkpt lat="43.54954" lon="11.1769117"><ele>347.0</ele><time>2026-04-25T09:21:56.724Z</time></trkpt><trkpt lat="43.5494733" lon="11.1769883"><ele>345.0</ele><time>2026-04-25T09:21:57.723Z</time></trkpt><trkpt lat="43.5494033" lon="11.1770517"><ele>343.0</ele><time>2026-04-25T09:21:58.722Z</time></trkpt><trkpt lat="43.5493383" lon="11.1770967"><ele>341.0</ele><time>2026-04-25T09:21:59.725Z</time></trkpt><trkpt lat="43.5492233" lon="11.1771467"><ele>339.0</ele><time>2026-04-25T09:22:01.724Z</time></trkpt><trkpt lat="43.5491183" lon="11.1771717"><ele>337.0</ele><time>2026-04-25T09:22:03.725Z</time></trkpt><trkpt lat="43.5490033" lon="11.1771733"><ele>337.0</ele><time>2026-04-25T09:22:05.725Z</time></trkpt><trkpt lat="43.54894" lon="11.1771383"><ele>337.0</ele><time>2026-04-25T09:22:06.725Z</time></trkpt><trkpt lat="43.5488783" lon="11.177095"><ele>337.0</ele><time>2026-04-25T09:22:07.722Z</time></trkpt><trkpt lat="43.548815" lon="11.1770367"><ele>337.0</ele><time>2026-04-25T09:22:08.725Z</time></trkpt><trkpt lat="43.54874" lon="11.1769733"><ele>337.0</ele><time>2026-04-25T09:22:09.724Z</time></trkpt><trkpt lat="43.5486533" lon="11.1768983"><ele>337.0</ele><time>2026-04-25T09:22:10.725Z</time></trkpt><trkpt lat="43.54855" lon="11.1768167"><ele>337.75</ele><time>2026-04-25T09:22:11.724Z</time></trkpt><trkpt lat="43.54844" lon="11.176735"><ele>338.5</ele><time>2026-04-25T09:22:12.723Z</time></trkpt><trkpt lat="43.5483267" lon="11.1766517"><ele>339.25</ele><time>2026-04-25T09:22:13.723Z</time></trkpt><trkpt lat="43.5482083" lon="11.1765617"><ele>340.0</ele><time>2026-04-25T09:22:14.725Z</time></trkpt><trkpt lat="43.5480883" lon="11.1764733"><ele>339.0</ele><time>2026-04-25T09:22:15.723Z</time></trkpt><trkpt lat="43.54797" lon="11.1763933"><ele>338.0</ele><time>2026-04-25T09:22:16.724Z</time></trkpt><trkpt lat="43.5478533" lon="11.1763067"><ele>337.0</ele><time>2026-04-25T09:22:17.724Z</time></trkpt><trkpt lat="43.5477317" lon="11.176235"><ele>336.0</ele><time>2026-04-25T09:22:18.724Z</time></trkpt><trkpt lat="43.5476117" lon="11.1761617"><ele>336.0</ele><time>2026-04-25T09:22:19.724Z</time></trkpt><trkpt lat="43.5474967" lon="11.17609"><ele>336.0</ele><time>2026-04-25T09:22:20.725Z</time></trkpt><trkpt lat="43.5473833" lon="11.176025"><ele>336.0</ele><time>2026-04-25T09:22:21.724Z</time></trkpt><trkpt lat="43.54727" lon="11.1759633"><ele>336.0</ele><time>2026-04-25T09:22:22.723Z</time></trkpt><trkpt lat="43.5471633" lon="11.1759083"><ele>336.0</ele><time>2026-04-25T09:22:23.724Z</time></trkpt><trkpt lat="43.5470583" lon="11.1758583"><ele>336.0</ele><time>2026-04-25T09:22:24.724Z</time></trkpt><trkpt lat="43.5469633" lon="11.1758067"><ele>336.0</ele><time>2026-04-25T09:22:25.724Z</time></trkpt><trkpt lat="43.5468683" lon="11.1757517"><ele>336.0</ele><time>2026-04-25T09:22:26.724Z</time></trkpt><trkpt lat="43.5467783" lon="11.1756933"><ele>336.0</ele><time>2026-04-25T09:22:27.724Z</time></trkpt><trkpt lat="43.546685" lon="11.1756417"><ele>335.0</ele><time>2026-04-25T09:22:28.725Z</time></trkpt><trkpt lat="43.5465883" lon="11.1755917"><ele>334.0</ele><time>2026-04-25T09:22:29.723Z</time></trkpt><trkpt lat="43.54649" lon="11.1755367"><ele>333.0</ele><time>2026-04-25T09:22:30.725Z</time></trkpt><trkpt lat="43.5463883" lon="11.17548"><ele>332.0</ele><time>2026-04-25T09:22:31.726Z</time></trkpt><trkpt lat="43.5462867" lon="11.1754217"><ele>331.0</ele><time>2026-04-25T09:22:32.725Z</time></trkpt><trkpt lat="43.5461883" lon="11.175365"><ele>334.20000000000005</ele><time>2026-04-25T09:22:33.723Z</time></trkpt><trkpt lat="43.5460967" lon="11.1753233"><ele>337.40000000000003</ele><time>2026-04-25T09:22:34.724Z</time></trkpt><trkpt lat="43.54601" lon="11.1752783"><ele>340.6</ele><time>2026-04-25T09:22:35.725Z</time></trkpt><trkpt lat="43.5459217" lon="11.1752333"><ele>343.8</ele><time>2026-04-25T09:22:36.725Z</time></trkpt><trkpt lat="43.5458283" lon="11.1751833"><ele>347.0</ele><time>2026-04-25T09:22:37.725Z</time></trkpt><trkpt lat="43.5457317" lon="11.1751217"><ele>347.0</ele><time>2026-04-25T09:22:38.726Z</time></trkpt><trkpt lat="43.545635" lon="11.1750567"><ele>347.0</ele><time>2026-04-25T09:22:39.726Z</time></trkpt><trkpt lat="43.5455417" lon="11.174985"><ele>347.0</ele><time>2026-04-25T09:22:40.725Z</time></trkpt><trkpt lat="43.54545" lon="11.174905"><ele>347.0</ele><time>2026-04-25T09:22:41.726Z</time></trkpt><trkpt lat="43.5453633" lon="11.174815"><ele>347.0</ele><time>2026-04-25T09:22:42.726Z</time></trkpt><trkpt lat="43.5452733" lon="11.1747183"><ele>347.75</ele><time>2026-04-25T09:22:43.725Z</time></trkpt><trkpt lat="43.5451833" lon="11.1746217"><ele>348.5</ele><time>2026-04-25T09:22:44.723Z</time></trkpt><trkpt lat="43.5450983" lon="11.1745233"><ele>349.25</ele><time>2026-04-25T09:22:45.723Z</time></trkpt><trkpt lat="43.5450133" lon="11.1744233"><ele>350.0</ele><time>2026-04-25T09:22:46.726Z</time></trkpt><trkpt lat="43.544925" lon="11.1743183"><ele>350.0</ele><time>2026-04-25T09:22:47.725Z</time></trkpt><trkpt lat="43.5448367" lon="11.174205"><ele>350.0</ele><time>2026-04-25T09:22:48.724Z</time></trkpt><trkpt lat="43.5447483" lon="11.17409"><ele>350.0</ele><time>2026-04-25T09:22:49.724Z</time></trkpt><trkpt lat="43.5446583" lon="11.1739783"><ele>350.0</ele><time>2026-04-25T09:22:50.725Z</time></trkpt><trkpt lat="43.544575" lon="11.173865"><ele>352.0</ele><time>2026-04-25T09:22:51.725Z</time></trkpt><trkpt lat="43.5444917" lon="11.17376"><ele>354.0</ele><time>2026-04-25T09:22:52.726Z</time></trkpt><trkpt lat="43.5444117" lon="11.1736667"><ele>356.0</ele><time>2026-04-25T09:22:53.726Z</time></trkpt><trkpt lat="43.54433" lon="11.1735917"><ele>358.0</ele><time>2026-04-25T09:22:54.725Z</time></trkpt><trkpt lat="43.544245" lon="11.1735317"><ele>360.0</ele><time>2026-04-25T09:22:55.725Z</time></trkpt><trkpt lat="43.5441717" lon="11.17349"><ele>360.0</ele><time>2026-04-25T09:22:56.723Z</time></trkpt><trkpt lat="43.544105" lon="11.1734667"><ele>360.0</ele><time>2026-04-25T09:22:57.723Z</time></trkpt><trkpt lat="43.5440333" lon="11.1734667"><ele>360.0</ele><time>2026-04-25T09:22:58.722Z</time></trkpt><trkpt lat="43.5439533" lon="11.1734633"><ele>360.0</ele><time>2026-04-25T09:22:59.724Z</time></trkpt><trkpt lat="43.5438767" lon="11.1734417"><ele>360.0</ele><time>2026-04-25T09:23:00.724Z</time></trkpt><trkpt lat="43.5437917" lon="11.173405"><ele>360.0</ele><time>2026-04-25T09:23:01.724Z</time></trkpt><trkpt lat="43.5437017" lon="11.1733483"><ele>358.8</ele><time>2026-04-25T09:23:02.725Z</time></trkpt><trkpt lat="43.5436167" lon="11.1732883"><ele>357.6</ele><time>2026-04-25T09:23:03.724Z</time></trkpt><trkpt lat="43.5435367" lon="11.1732217"><ele>356.4</ele><time>2026-04-25T09:23:04.724Z</time></trkpt><trkpt lat="43.5434367" lon="11.1731417"><ele>355.2</ele><time>2026-04-25T09:23:05.725Z</time></trkpt><trkpt lat="43.5433517" lon="11.1730567"><ele>354.0</ele><time>2026-04-25T09:23:06.725Z</time></trkpt><trkpt lat="43.543265" lon="11.172975"><ele>353.6</ele><time>2026-04-25T09:23:07.726Z</time></trkpt><trkpt lat="43.5431767" lon="11.1728933"><ele>353.2</ele><time>2026-04-25T09:23:08.725Z</time></trkpt><trkpt lat="43.5430833" lon="11.1728083"><ele>352.8</ele><time>2026-04-25T09:23:09.725Z</time></trkpt><trkpt lat="43.54299" lon="11.172715"><ele>352.40000000000003</ele><time>2026-04-25T09:23:10.726Z</time></trkpt><trkpt lat="43.542895" lon="11.1726267"><ele>352.0</ele><time>2026-04-25T09:23:11.723Z</time></trkpt><trkpt lat="43.5428" lon="11.1725317"><ele>352.0</ele><time>2026-04-25T09:23:12.726Z</time></trkpt><trkpt lat="43.5427033" lon="11.17243"><ele>352.0</ele><time>2026-04-25T09:23:13.724Z</time></trkpt><trkpt lat="43.5426067" lon="11.17233"><ele>352.0</ele><time>2026-04-25T09:23:14.723Z</time></trkpt><trkpt lat="43.5425133" lon="11.1722433"><ele>352.0</ele><time>2026-04-25T09:23:15.724Z</time></trkpt><trkpt lat="43.5424317" lon="11.1721517"><ele>354.3333333333333</ele><time>2026-04-25T09:23:16.724Z</time></trkpt><trkpt lat="43.5423533" lon="11.1720583"><ele>356.66666666666663</ele><time>2026-04-25T09:23:17.724Z</time></trkpt><trkpt lat="43.5422817" lon="11.1719583"><ele>359.0</ele><time>2026-04-25T09:23:18.725Z</time></trkpt><trkpt lat="43.5422233" lon="11.1718667"><ele>361.3333333333333</ele><time>2026-04-25T09:23:19.725Z</time></trkpt><trkpt lat="43.5421733" lon="11.17178"><ele>363.6666666666667</ele><time>2026-04-25T09:23:20.725Z</time></trkpt><trkpt lat="43.5421283" lon="11.1717017"><ele>366.0</ele><time>2026-04-25T09:23:21.724Z</time></trkpt><trkpt lat="43.5420867" lon="11.1716317"><ele>364.20000000000005</ele><time>2026-04-25T09:23:22.724Z</time></trkpt><trkpt lat="43.54202" lon="11.1715117"><ele>362.40000000000003</ele><time>2026-04-25T09:23:24.726Z</time></trkpt><trkpt lat="43.5419633" lon="11.1714217"><ele>360.6</ele><time>2026-04-25T09:23:26.726Z</time></trkpt><trkpt lat="43.5418883" lon="11.171305"><ele>358.8</ele><time>2026-04-25T09:23:28.723Z</time></trkpt><trkpt lat="43.5418283" lon="11.1712467"><ele>357.0</ele><time>2026-04-25T09:23:29.726Z</time></trkpt><trkpt lat="43.5417617" lon="11.1711933"><ele>357.0</ele><time>2026-04-25T09:23:30.725Z</time></trkpt><trkpt lat="43.541695" lon="11.1711517"><ele>357.0</ele><time>2026-04-25T09:23:31.725Z</time></trkpt><trkpt lat="43.5416233" lon="11.1711183"><ele>357.0</ele><time>2026-04-25T09:23:32.724Z</time></trkpt><trkpt lat="43.5415467" lon="11.1710833"><ele>357.0</ele><time>2026-04-25T09:23:33.724Z</time></trkpt><trkpt lat="43.54146" lon="11.171055"><ele>357.0</ele><time>2026-04-25T09:23:34.725Z</time></trkpt><trkpt lat="43.5413633" lon="11.1710317"><ele>357.0</ele><time>2026-04-25T09:23:35.724Z</time></trkpt><trkpt lat="43.5412633" lon="11.1710183"><ele>355.25</ele><time>2026-04-25T09:23:36.726Z</time></trkpt><trkpt lat="43.5411467" lon="11.1710133"><ele>353.5</ele><time>2026-04-25T09:23:37.726Z</time></trkpt><trkpt lat="43.541025" lon="11.17101"><ele>351.75</ele><time>2026-04-25T09:23:38.725Z</time></trkpt><trkpt lat="43.5409133" lon="11.1709933"><ele>350.0</ele><time>2026-04-25T09:23:39.724Z</time></trkpt><trkpt lat="43.5408083" lon="11.170975"><ele>350.0</ele><time>2026-04-25T09:23:40.726Z</time></trkpt><trkpt lat="43.5407067" lon="11.1709583"><ele>350.0</ele><time>2026-04-25T09:23:41.726Z</time></trkpt><trkpt lat="43.540615" lon="11.1709533"><ele>350.0</ele><time>2026-04-25T09:23:42.725Z</time></trkpt><trkpt lat="43.5405217" lon="11.1709367"><ele>350.0</ele><time>2026-04-25T09:23:43.724Z</time></trkpt><trkpt lat="43.5404417" lon="11.1709067"><ele>350.0</ele><time>2026-04-25T09:23:44.725Z</time></trkpt><trkpt lat="43.540345" lon="11.1708633"><ele>348.0</ele><time>2026-04-25T09:23:45.725Z</time></trkpt><trkpt lat="43.5402433" lon="11.170805"><ele>346.0</ele><time>2026-04-25T09:23:46.723Z</time></trkpt><trkpt lat="43.5401383" lon="11.1707467"><ele>344.0</ele><time>2026-04-25T09:23:47.726Z</time></trkpt><trkpt lat="43.54003" lon="11.17068"><ele>342.0</ele><time>2026-04-25T09:23:48.725Z</time></trkpt><trkpt lat="43.5399217" lon="11.170595"><ele>341.75</ele><time>2026-04-25T09:23:49.725Z</time></trkpt><trkpt lat="43.5398167" lon="11.1705117"><ele>341.5</ele><time>2026-04-25T09:23:50.725Z</time></trkpt><trkpt lat="43.5397133" lon="11.1704333"><ele>341.25</ele><time>2026-04-25T09:23:51.725Z</time></trkpt><trkpt lat="43.5396117" lon="11.1703667"><ele>341.0</ele><time>2026-04-25T09:23:52.724Z</time></trkpt><trkpt lat="43.539515" lon="11.1703"><ele>339.4</ele><time>2026-04-25T09:23:53.724Z</time></trkpt><trkpt lat="43.53942" lon="11.1702333"><ele>337.8</ele><time>2026-04-25T09:23:54.724Z</time></trkpt><trkpt lat="43.5393333" lon="11.1701717"><ele>336.2</ele><time>2026-04-25T09:23:55.726Z</time></trkpt><trkpt lat="43.53924" lon="11.1701083"><ele>334.59999999999997</ele><time>2026-04-25T09:23:56.726Z</time></trkpt><trkpt lat="43.5391367" lon="11.170045"><ele>333.0</ele><time>2026-04-25T09:23:57.725Z</time></trkpt><trkpt lat="43.5390133" lon="11.1699683"><ele>333.0</ele><time>2026-04-25T09:23:58.724Z</time></trkpt><trkpt lat="43.53888" lon="11.169885"><ele>333.0</ele><time>2026-04-25T09:23:59.725Z</time></trkpt><trkpt lat="43.5387267" lon="11.1698217"><ele>333.0</ele><time>2026-04-25T09:24:00.724Z</time></trkpt><trkpt lat="43.538565" lon="11.1697667"><ele>331.6666666666667</ele><time>2026-04-25T09:24:01.725Z</time></trkpt><trkpt lat="43.5383983" lon="11.169705"><ele>330.33333333333337</ele><time>2026-04-25T09:24:02.725Z</time></trkpt><trkpt lat="43.5382267" lon="11.1696367"><ele>329.0</ele><time>2026-04-25T09:24:03.725Z</time></trkpt><trkpt lat="43.5380517" lon="11.1695617"><ele>326.0</ele><time>2026-04-25T09:24:04.723Z</time></trkpt><trkpt lat="43.5378817" lon="11.1694717"><ele>323.0</ele><time>2026-04-25T09:24:05.723Z</time></trkpt><trkpt lat="43.5377133" lon="11.169365"><ele>320.0</ele><time>2026-04-25T09:24:06.725Z</time></trkpt><trkpt lat="43.5375467" lon="11.1692517"><ele>320.0</ele><time>2026-04-25T09:24:07.726Z</time></trkpt><trkpt lat="43.53738" lon="11.1691267"><ele>320.0</ele><time>2026-04-25T09:24:08.723Z</time></trkpt><trkpt lat="43.5372117" lon="11.169"><ele>320.0</ele><time>2026-04-25T09:24:09.726Z</time></trkpt><trkpt lat="43.53704" lon="11.1688833"><ele>320.0</ele><time>2026-04-25T09:24:10.724Z</time></trkpt><trkpt lat="43.5368667" lon="11.1687683"><ele>320.0</ele><time>2026-04-25T09:24:11.724Z</time></trkpt><trkpt lat="43.5366833" lon="11.1686883"><ele>320.0</ele><time>2026-04-25T09:24:12.725Z</time></trkpt><trkpt lat="43.5364967" lon="11.1686483"><ele>320.0</ele><time>2026-04-25T09:24:13.724Z</time></trkpt><trkpt lat="43.536315" lon="11.1686283"><ele>320.0</ele><time>2026-04-25T09:24:14.723Z</time></trkpt><trkpt lat="43.5361367" lon="11.1685833"><ele>320.0</ele><time>2026-04-25T09:24:15.724Z</time></trkpt><trkpt lat="43.5359617" lon="11.1685233"><ele>316.6666666666667</ele><time>2026-04-25T09:24:16.724Z</time></trkpt><trkpt lat="43.5357983" lon="11.16842"><ele>313.3333333333333</ele><time>2026-04-25T09:24:17.723Z</time></trkpt><trkpt lat="43.5356417" lon="11.168305"><ele>310.0</ele><time>2026-04-25T09:24:18.724Z</time></trkpt><trkpt lat="43.5354917" lon="11.168195"><ele>314.0</ele><time>2026-04-25T09:24:19.724Z</time></trkpt><trkpt lat="43.5353433" lon="11.16813"><ele>318.0</ele><time>2026-04-25T09:24:20.726Z</time></trkpt><trkpt lat="43.5351933" lon="11.16812"><ele>322.0</ele><time>2026-04-25T09:24:21.724Z</time></trkpt><trkpt lat="43.5350333" lon="11.1681667"><ele>320.3333333333333</ele><time>2026-04-25T09:24:22.725Z</time></trkpt><trkpt lat="43.5348633" lon="11.1681983"><ele>318.6666666666667</ele><time>2026-04-25T09:24:23.724Z</time></trkpt><trkpt lat="43.534685" lon="11.1681983"><ele>317.0</ele><time>2026-04-25T09:24:24.725Z</time></trkpt><trkpt lat="43.534505" lon="11.168165"><ele>317.0</ele><time>2026-04-25T09:24:25.726Z</time></trkpt><trkpt lat="43.5343183" lon="11.1680917"><ele>317.0</ele><time>2026-04-25T09:24:26.724Z</time></trkpt><trkpt lat="43.5341283" lon="11.1680017"><ele>317.0</ele><time>2026-04-25T09:24:27.723Z</time></trkpt><trkpt lat="43.5339383" lon="11.167925"><ele>317.0</ele><time>2026-04-25T09:24:28.724Z</time></trkpt><trkpt lat="43.533755" lon="11.1678517"><ele>317.0</ele><time>2026-04-25T09:24:29.726Z</time></trkpt><trkpt lat="43.5335783" lon="11.16779"><ele>317.0</ele><time>2026-04-25T09:24:30.725Z</time></trkpt><trkpt lat="43.5334133" lon="11.1677417"><ele>315.0</ele><time>2026-04-25T09:24:31.723Z</time></trkpt><trkpt lat="43.5332517" lon="11.16773"><ele>313.0</ele><time>2026-04-25T09:24:32.726Z</time></trkpt><trkpt lat="43.5330917" lon="11.1677717"><ele>311.0</ele><time>2026-04-25T09:24:33.724Z</time></trkpt><trkpt lat="43.5329333" lon="11.1678533"><ele>309.6666666666667</ele><time>2026-04-25T09:24:34.724Z</time></trkpt><trkpt lat="43.5327683" lon="11.167955"><ele>308.3333333333333</ele><time>2026-04-25T09:24:35.724Z</time></trkpt><trkpt lat="43.5325867" lon="11.1680283"><ele>307.0</ele><time>2026-04-25T09:24:36.725Z</time></trkpt><trkpt lat="43.5323867" lon="11.1680483"><ele>307.0</ele><time>2026-04-25T09:24:37.724Z</time></trkpt><trkpt lat="43.5321817" lon="11.16808"><ele>307.0</ele><time>2026-04-25T09:24:38.724Z</time></trkpt><trkpt lat="43.5319817" lon="11.168155"><ele>307.0</ele><time>2026-04-25T09:24:39.725Z</time></trkpt><trkpt lat="43.53179" lon="11.1682883"><ele>305.3333333333333</ele><time>2026-04-25T09:24:40.724Z</time></trkpt><trkpt lat="43.531605" lon="11.1684283"><ele>303.6666666666667</ele><time>2026-04-25T09:24:41.723Z</time></trkpt><trkpt lat="43.53142" lon="11.1685483"><ele>302.0</ele><time>2026-04-25T09:24:42.724Z</time></trkpt><trkpt lat="43.5312317" lon="11.1686383"><ele>300.33333333333337</ele><time>2026-04-25T09:24:43.725Z</time></trkpt><trkpt lat="43.5310367" lon="11.1687017"><ele>298.6666666666667</ele><time>2026-04-25T09:24:44.725Z</time></trkpt><trkpt lat="43.530835" lon="11.168745"><ele>297.0</ele><time>2026-04-25T09:24:45.725Z</time></trkpt><trkpt lat="43.5306283" lon="11.1687867"><ele>297.0</ele><time>2026-04-25T09:24:46.723Z</time></trkpt><trkpt lat="43.530415" lon="11.1688483"><ele>297.0</ele><time>2026-04-25T09:24:47.724Z</time></trkpt><trkpt lat="43.5301933" lon="11.168925"><ele>297.0</ele><time>2026-04-25T09:24:48.724Z</time></trkpt><trkpt lat="43.52997" lon="11.169015"><ele>296.3333333333333</ele><time>2026-04-25T09:24:49.725Z</time></trkpt><trkpt lat="43.5297583" lon="11.1691"><ele>295.66666666666663</ele><time>2026-04-25T09:24:50.725Z</time></trkpt><trkpt lat="43.5295617" lon="11.1691717"><ele>295.0</ele><time>2026-04-25T09:24:51.725Z</time></trkpt><trkpt lat="43.5293783" lon="11.16924"><ele>295.0</ele><time>2026-04-25T09:24:52.725Z</time></trkpt><trkpt lat="43.5292133" lon="11.1692983"><ele>295.0</ele><time>2026-04-25T09:24:53.726Z</time></trkpt><trkpt lat="43.5290733" lon="11.1693617"><ele>295.0</ele><time>2026-04-25T09:24:54.726Z</time></trkpt><trkpt lat="43.528955" lon="11.1694567"><ele>295.0</ele><time>2026-04-25T09:24:55.726Z</time></trkpt><trkpt lat="43.5288583" lon="11.16959"><ele>295.0</ele><time>2026-04-25T09:24:56.724Z</time></trkpt><trkpt lat="43.5287883" lon="11.169775"><ele>295.0</ele><time>2026-04-25T09:24:57.724Z</time></trkpt><trkpt lat="43.5287533" lon="11.169985"><ele>295.0</ele><time>2026-04-25T09:24:58.725Z</time></trkpt><trkpt lat="43.5287367" lon="11.1701933"><ele>296.3333333333333</ele><time>2026-04-25T09:24:59.723Z</time></trkpt><trkpt lat="43.5287283" lon="11.1703917"><ele>297.6666666666667</ele><time>2026-04-25T09:25:00.724Z</time></trkpt><trkpt lat="43.528685" lon="11.1705883"><ele>299.0</ele><time>2026-04-25T09:25:01.724Z</time></trkpt><trkpt lat="43.5286117" lon="11.17078"><ele>296.33333333333337</ele><time>2026-04-25T09:25:02.726Z</time></trkpt><trkpt lat="43.528525" lon="11.170965"><ele>293.6666666666667</ele><time>2026-04-25T09:25:03.725Z</time></trkpt><trkpt lat="43.5284317" lon="11.1711267"><ele>291.0</ele><time>2026-04-25T09:25:04.726Z</time></trkpt><trkpt lat="43.52833" lon="11.1712617"><ele>291.0</ele><time>2026-04-25T09:25:05.724Z</time></trkpt><trkpt lat="43.52822" lon="11.1713633"><ele>291.0</ele><time>2026-04-25T09:25:06.724Z</time></trkpt><trkpt lat="43.5281" lon="11.1714217"><ele>291.0</ele><time>2026-04-25T09:25:07.725Z</time></trkpt><trkpt lat="43.527965" lon="11.1714317"><ele>291.0</ele><time>2026-04-25T09:25:08.724Z</time></trkpt><trkpt lat="43.5278167" lon="11.1714017"><ele>290.0</ele><time>2026-04-25T09:25:09.725Z</time></trkpt><trkpt lat="43.5276483" lon="11.1713567"><ele>289.0</ele><time>2026-04-25T09:25:10.726Z</time></trkpt><trkpt lat="43.5274667" lon="11.1713133"><ele>288.0</ele><time>2026-04-25T09:25:11.725Z</time></trkpt><trkpt lat="43.527285" lon="11.17127"><ele>288.0</ele><time>2026-04-25T09:25:12.723Z</time></trkpt><trkpt lat="43.5271" lon="11.1712267"><ele>288.0</ele><time>2026-04-25T09:25:13.725Z</time></trkpt><trkpt lat="43.5269117" lon="11.1712017"><ele>288.0</ele><time>2026-04-25T09:25:14.726Z</time></trkpt><trkpt lat="43.526725" lon="11.171225"><ele>285.3333333333333</ele><time>2026-04-25T09:25:15.724Z</time></trkpt><trkpt lat="43.52654" lon="11.17128"><ele>282.66666666666663</ele><time>2026-04-25T09:25:16.725Z</time></trkpt><trkpt lat="43.5263633" lon="11.1713567"><ele>280.0</ele><time>2026-04-25T09:25:17.727Z</time></trkpt><trkpt lat="43.5261817" lon="11.1714667"><ele>278.0</ele><time>2026-04-25T09:25:18.725Z</time></trkpt><trkpt lat="43.526015" lon="11.1715917"><ele>276.0</ele><time>2026-04-25T09:25:19.726Z</time></trkpt><trkpt lat="43.5258683" lon="11.1717333"><ele>274.0</ele><time>2026-04-25T09:25:20.725Z</time></trkpt><trkpt lat="43.52572" lon="11.1718783"><ele>274.0</ele><time>2026-04-25T09:25:21.723Z</time></trkpt><trkpt lat="43.5255717" lon="11.1720217"><ele>274.0</ele><time>2026-04-25T09:25:22.724Z</time></trkpt><trkpt lat="43.5254167" lon="11.1721533"><ele>274.0</ele><time>2026-04-25T09:25:23.725Z</time></trkpt><trkpt lat="43.5252533" lon="11.1722583"><ele>272.66666666666663</ele><time>2026-04-25T09:25:24.725Z</time></trkpt><trkpt lat="43.52507" lon="11.17232"><ele>271.3333333333333</ele><time>2026-04-25T09:25:25.726Z</time></trkpt><trkpt lat="43.5248817" lon="11.1723533"><ele>270.0</ele><time>2026-04-25T09:25:26.726Z</time></trkpt><trkpt lat="43.524685" lon="11.172375"><ele>269.3333333333333</ele><time>2026-04-25T09:25:27.724Z</time></trkpt><trkpt lat="43.5244833" lon="11.1723983"><ele>268.66666666666663</ele><time>2026-04-25T09:25:28.723Z</time></trkpt><trkpt lat="43.524295" lon="11.172425"><ele>268.0</ele><time>2026-04-25T09:25:29.725Z</time></trkpt><trkpt lat="43.524115" lon="11.1724283"><ele>268.0</ele><time>2026-04-25T09:25:30.725Z</time></trkpt><trkpt lat="43.5239433" lon="11.1724033"><ele>268.0</ele><time>2026-04-25T09:25:31.724Z</time></trkpt><trkpt lat="43.5237817" lon="11.17236"><ele>268.0</ele><time>2026-04-25T09:25:32.727Z</time></trkpt><trkpt lat="43.5236267" lon="11.17229"><ele>266.3333333333333</ele><time>2026-04-25T09:25:33.723Z</time></trkpt><trkpt lat="43.523485" lon="11.17218"><ele>264.6666666666667</ele><time>2026-04-25T09:25:34.726Z</time></trkpt><trkpt lat="43.5233667" lon="11.1720233"><ele>263.0</ele><time>2026-04-25T09:25:35.724Z</time></trkpt><trkpt lat="43.5232667" lon="11.171835"><ele>263.0</ele><time>2026-04-25T09:25:36.727Z</time></trkpt><trkpt lat="43.5231717" lon="11.1716383"><ele>263.0</ele><time>2026-04-25T09:25:37.727Z</time></trkpt><trkpt lat="43.5230733" lon="11.171455"><ele>263.0</ele><time>2026-04-25T09:25:38.726Z</time></trkpt><trkpt lat="43.5229567" lon="11.171295"><ele>260.0</ele><time>2026-04-25T09:25:39.723Z</time></trkpt><trkpt lat="43.5228283" lon="11.17118"><ele>257.0</ele><time>2026-04-25T09:25:40.725Z</time></trkpt><trkpt lat="43.52269" lon="11.171115"><ele>254.0</ele><time>2026-04-25T09:25:41.726Z</time></trkpt><trkpt lat="43.5225317" lon="11.1710983"><ele>254.0</ele><time>2026-04-25T09:25:42.725Z</time></trkpt><trkpt lat="43.5223867" lon="11.171105"><ele>254.0</ele><time>2026-04-25T09:25:43.726Z</time></trkpt><trkpt lat="43.522225" lon="11.1711117"><ele>254.0</ele><time>2026-04-25T09:25:44.726Z</time></trkpt><trkpt lat="43.5220817" lon="11.1710717"><ele>255.66666666666669</ele><time>2026-04-25T09:25:45.725Z</time></trkpt><trkpt lat="43.5219317" lon="11.170985"><ele>257.3333333333333</ele><time>2026-04-25T09:25:46.725Z</time></trkpt><trkpt lat="43.5217867" lon="11.1708717"><ele>259.0</ele><time>2026-04-25T09:25:47.725Z</time></trkpt><trkpt lat="43.5216433" lon="11.17076"><ele>255.33333333333331</ele><time>2026-04-25T09:25:48.724Z</time></trkpt><trkpt lat="43.521515" lon="11.1706267"><ele>251.66666666666669</ele><time>2026-04-25T09:25:49.725Z</time></trkpt><trkpt lat="43.5214167" lon="11.1704667"><ele>248.0</ele><time>2026-04-25T09:25:50.726Z</time></trkpt><trkpt lat="43.5213533" lon="11.17029"><ele>248.0</ele><time>2026-04-25T09:25:51.724Z</time></trkpt><trkpt lat="43.5213333" lon="11.1700817"><ele>248.0</ele><time>2026-04-25T09:25:52.724Z</time></trkpt><trkpt lat="43.52132" lon="11.1698667"><ele>248.0</ele><time>2026-04-25T09:25:53.725Z</time></trkpt><trkpt lat="43.5212783" lon="11.16967"><ele>249.33333333333334</ele><time>2026-04-25T09:25:54.726Z</time></trkpt><trkpt lat="43.5212067" lon="11.1694867"><ele>250.66666666666669</ele><time>2026-04-25T09:25:55.725Z</time></trkpt><trkpt lat="43.5210967" lon="11.16932"><ele>252.0</ele><time>2026-04-25T09:25:56.726Z</time></trkpt><trkpt lat="43.5209633" lon="11.1691633"><ele>248.33333333333331</ele><time>2026-04-25T09:25:57.726Z</time></trkpt><trkpt lat="43.52082" lon="11.1690067"><ele>244.66666666666666</ele><time>2026-04-25T09:25:58.726Z</time></trkpt><trkpt lat="43.5206783" lon="11.168845"><ele>241.0</ele><time>2026-04-25T09:25:59.724Z</time></trkpt><trkpt lat="43.52054" lon="11.1686633"><ele>241.0</ele><time>2026-04-25T09:26:00.727Z</time></trkpt><trkpt lat="43.5204117" lon="11.1684783"><ele>241.0</ele><time>2026-04-25T09:26:01.725Z</time></trkpt><trkpt lat="43.520285" lon="11.1682833"><ele>241.0</ele><time>2026-04-25T09:26:02.727Z</time></trkpt><trkpt lat="43.5201767" lon="11.1680683"><ele>240.0</ele><time>2026-04-25T09:26:03.726Z</time></trkpt><trkpt lat="43.5200883" lon="11.167825"><ele>239.0</ele><time>2026-04-25T09:26:04.725Z</time></trkpt><trkpt lat="43.5200167" lon="11.167585"><ele>238.0</ele><time>2026-04-25T09:26:05.725Z</time></trkpt><trkpt lat="43.5199483" lon="11.1673617"><ele>235.66666666666666</ele><time>2026-04-25T09:26:06.726Z</time></trkpt><trkpt lat="43.519865" lon="11.16717"><ele>233.33333333333331</ele><time>2026-04-25T09:26:07.725Z</time></trkpt><trkpt lat="43.5197683" lon="11.1670017"><ele>231.0</ele><time>2026-04-25T09:26:08.725Z</time></trkpt><trkpt lat="43.5196567" lon="11.1668567"><ele>232.0</ele><time>2026-04-25T09:26:09.726Z</time></trkpt><trkpt lat="43.5195267" lon="11.16674"><ele>233.0</ele><time>2026-04-25T09:26:10.723Z</time></trkpt><trkpt lat="43.5193783" lon="11.1666467"><ele>234.0</ele><time>2026-04-25T09:26:11.726Z</time></trkpt><trkpt lat="43.5192217" lon="11.1665717"><ele>231.0</ele><time>2026-04-25T09:26:12.725Z</time></trkpt><trkpt lat="43.5190617" lon="11.16652"><ele>228.0</ele><time>2026-04-25T09:26:13.724Z</time></trkpt><trkpt lat="43.518905" lon="11.1664717"><ele>225.0</ele><time>2026-04-25T09:26:14.726Z</time></trkpt><trkpt lat="43.5187533" lon="11.166415"><ele>226.0</ele><time>2026-04-25T09:26:15.724Z</time></trkpt><trkpt lat="43.51861" lon="11.1663067"><ele>227.0</ele><time>2026-04-25T09:26:16.725Z</time></trkpt><trkpt lat="43.518475" lon="11.166145"><ele>228.0</ele><time>2026-04-25T09:26:17.725Z</time></trkpt><trkpt lat="43.5183383" lon="11.1659767"><ele>228.0</ele><time>2026-04-25T09:26:18.724Z</time></trkpt><trkpt lat="43.5182" lon="11.165815"><ele>228.0</ele><time>2026-04-25T09:26:19.725Z</time></trkpt><trkpt lat="43.5180567" lon="11.1656583"><ele>228.0</ele><time>2026-04-25T09:26:20.725Z</time></trkpt><trkpt lat="43.5179167" lon="11.1655217"><ele>225.33333333333331</ele><time>2026-04-25T09:26:21.725Z</time></trkpt><trkpt lat="43.517775" lon="11.1654017"><ele>222.66666666666666</ele><time>2026-04-25T09:26:22.723Z</time></trkpt><trkpt lat="43.5176267" lon="11.1653167"><ele>220.0</ele><time>2026-04-25T09:26:23.726Z</time></trkpt><trkpt lat="43.5174517" lon="11.1652967"><ele>220.0</ele><time>2026-04-25T09:26:24.726Z</time></trkpt><trkpt lat="43.5172683" lon="11.1653117"><ele>220.0</ele><time>2026-04-25T09:26:25.726Z</time></trkpt><trkpt lat="43.51707" lon="11.1653517"><ele>220.0</ele><time>2026-04-25T09:26:26.726Z</time></trkpt><trkpt lat="43.51687" lon="11.1653817"><ele>219.0</ele><time>2026-04-25T09:26:27.722Z</time></trkpt><trkpt lat="43.5166733" lon="11.16542"><ele>218.0</ele><time>2026-04-25T09:26:28.724Z</time></trkpt><trkpt lat="43.5164833" lon="11.16546"><ele>217.0</ele><time>2026-04-25T09:26:29.725Z</time></trkpt><trkpt lat="43.5162817" lon="11.1654767"><ele>215.33333333333331</ele><time>2026-04-25T09:26:30.726Z</time></trkpt><trkpt lat="43.5160817" lon="11.1654517"><ele>213.66666666666669</ele><time>2026-04-25T09:26:31.726Z</time></trkpt><trkpt lat="43.5158833" lon="11.16539"><ele>212.0</ele><time>2026-04-25T09:26:32.725Z</time></trkpt><trkpt lat="43.5156817" lon="11.1652967"><ele>212.0</ele><time>2026-04-25T09:26:33.725Z</time></trkpt><trkpt lat="43.515475" lon="11.1651817"><ele>212.0</ele><time>2026-04-25T09:26:34.726Z</time></trkpt><trkpt lat="43.51526" lon="11.165065"><ele>210.5</ele><time>2026-04-25T09:26:35.726Z</time></trkpt><trkpt lat="43.5150417" lon="11.164945"><ele>209.0</ele><time>2026-04-25T09:26:36.726Z</time></trkpt><trkpt lat="43.5148167" lon="11.164835"><ele>205.5</ele><time>2026-04-25T09:26:37.725Z</time></trkpt><trkpt lat="43.514595" lon="11.1647117"><ele>202.0</ele><time>2026-04-25T09:26:38.727Z</time></trkpt><trkpt lat="43.5143767" lon="11.164585"><ele>202.0</ele><time>2026-04-25T09:26:39.726Z</time></trkpt><trkpt lat="43.5141567" lon="11.1644517"><ele>202.0</ele><time>2026-04-25T09:26:40.725Z</time></trkpt><trkpt lat="43.513935" lon="11.16432"><ele>199.5</ele><time>2026-04-25T09:26:41.727Z</time></trkpt><trkpt lat="43.5137133" lon="11.164185"><ele>197.0</ele><time>2026-04-25T09:26:42.722Z</time></trkpt><trkpt lat="43.5134917" lon="11.16404"><ele>196.5</ele><time>2026-04-25T09:26:43.726Z</time></trkpt><trkpt lat="43.5132767" lon="11.1638733"><ele>196.0</ele><time>2026-04-25T09:26:44.726Z</time></trkpt><trkpt lat="43.5130667" lon="11.163705"><ele>197.5</ele><time>2026-04-25T09:26:45.725Z</time></trkpt><trkpt lat="43.5128583" lon="11.16354"><ele>199.0</ele><time>2026-04-25T09:26:46.726Z</time></trkpt><trkpt lat="43.512655" lon="11.163365"><ele>199.0</ele><time>2026-04-25T09:26:47.725Z</time></trkpt><trkpt lat="43.5124583" lon="11.16318"><ele>199.0</ele><time>2026-04-25T09:26:48.725Z</time></trkpt><trkpt lat="43.51226" lon="11.1629883"><ele>199.5</ele><time>2026-04-25T09:26:49.724Z</time></trkpt><trkpt lat="43.51207" lon="11.1628033"><ele>200.0</ele><time>2026-04-25T09:26:50.726Z</time></trkpt><trkpt lat="43.51188" lon="11.1626167"><ele>200.0</ele><time>2026-04-25T09:26:51.725Z</time></trkpt><trkpt lat="43.5116883" lon="11.162425"><ele>200.0</ele><time>2026-04-25T09:26:52.724Z</time></trkpt><trkpt lat="43.5115" lon="11.1622433"><ele>200.0</ele><time>2026-04-25T09:26:53.726Z</time></trkpt><trkpt lat="43.5113133" lon="11.162065"><ele>200.0</ele><time>2026-04-25T09:26:54.725Z</time></trkpt><trkpt lat="43.51112" lon="11.1618967"><ele>201.5</ele><time>2026-04-25T09:26:55.725Z</time></trkpt><trkpt lat="43.510915" lon="11.1617483"><ele>203.0</ele><time>2026-04-25T09:26:56.728Z</time></trkpt><trkpt lat="43.5107033" lon="11.1616167"><ele>204.0</ele><time>2026-04-25T09:26:57.725Z</time></trkpt><trkpt lat="43.5104917" lon="11.1614967"><ele>205.0</ele><time>2026-04-25T09:26:58.726Z</time></trkpt><trkpt lat="43.5102817" lon="11.1613783"><ele>205.0</ele><time>2026-04-25T09:26:59.726Z</time></trkpt><trkpt lat="43.5100717" lon="11.1612617"><ele>205.0</ele><time>2026-04-25T09:27:00.725Z</time></trkpt><trkpt lat="43.5098583" lon="11.161145"><ele>205.0</ele><time>2026-04-25T09:27:01.726Z</time></trkpt><trkpt lat="43.509645" lon="11.1610317"><ele>205.0</ele><time>2026-04-25T09:27:02.725Z</time></trkpt><trkpt lat="43.50943" lon="11.1609183"><ele>208.5</ele><time>2026-04-25T09:27:03.724Z</time></trkpt><trkpt lat="43.5092167" lon="11.1608183"><ele>212.0</ele><time>2026-04-25T09:27:04.726Z</time></trkpt><trkpt lat="43.509005" lon="11.1607067"><ele>212.0</ele><time>2026-04-25T09:27:05.725Z</time></trkpt><trkpt lat="43.5087933" lon="11.1605883"><ele>212.0</ele><time>2026-04-25T09:27:06.726Z</time></trkpt><trkpt lat="43.5085833" lon="11.1604667"><ele>212.0</ele><time>2026-04-25T09:27:07.726Z</time></trkpt><trkpt lat="43.5083783" lon="11.1603317"><ele>212.0</ele><time>2026-04-25T09:27:08.726Z</time></trkpt><trkpt lat="43.5081767" lon="11.1601783"><ele>212.0</ele><time>2026-04-25T09:27:09.724Z</time></trkpt><trkpt lat="43.5079767" lon="11.160025"><ele>212.0</ele><time>2026-04-25T09:27:10.725Z</time></trkpt><trkpt lat="43.5077767" lon="11.1598733"><ele>212.5</ele><time>2026-04-25T09:27:11.726Z</time></trkpt><trkpt lat="43.5075717" lon="11.159725"><ele>213.0</ele><time>2026-04-25T09:27:12.725Z</time></trkpt><trkpt lat="43.507365" lon="11.1595883"><ele>213.0</ele><time>2026-04-25T09:27:13.725Z</time></trkpt><trkpt lat="43.5071583" lon="11.1594633"><ele>213.0</ele><time>2026-04-25T09:27:14.725Z</time></trkpt><trkpt lat="43.5069583" lon="11.15935"><ele>213.0</ele><time>2026-04-25T09:27:15.724Z</time></trkpt><trkpt lat="43.50675" lon="11.1592733"><ele>215.66666666666669</ele><time>2026-04-25T09:27:16.724Z</time></trkpt><trkpt lat="43.506545" lon="11.1592333"><ele>218.33333333333334</ele><time>2026-04-25T09:27:17.727Z</time></trkpt><trkpt lat="43.5063417" lon="11.1592083"><ele>221.0</ele><time>2026-04-25T09:27:18.726Z</time></trkpt><trkpt lat="43.5061467" lon="11.1591767"><ele>223.33333333333334</ele><time>2026-04-25T09:27:19.725Z</time></trkpt><trkpt lat="43.5059583" lon="11.159145"><ele>225.66666666666669</ele><time>2026-04-25T09:27:20.727Z</time></trkpt><trkpt lat="43.5057783" lon="11.1590983"><ele>228.0</ele><time>2026-04-25T09:27:21.724Z</time></trkpt><trkpt lat="43.5056" lon="11.1590283"><ele>226.66666666666669</ele><time>2026-04-25T09:27:22.724Z</time></trkpt><trkpt lat="43.5054283" lon="11.1589533"><ele>225.33333333333334</ele><time>2026-04-25T09:27:23.725Z</time></trkpt><trkpt lat="43.5052583" lon="11.1588417"><ele>224.0</ele><time>2026-04-25T09:27:24.725Z</time></trkpt><trkpt lat="43.5051067" lon="11.1586933"><ele>224.0</ele><time>2026-04-25T09:27:25.726Z</time></trkpt><trkpt lat="43.5049717" lon="11.1585067"><ele>224.0</ele><time>2026-04-25T09:27:26.726Z</time></trkpt><trkpt lat="43.5048333" lon="11.1582983"><ele>224.0</ele><time>2026-04-25T09:27:27.726Z</time></trkpt><trkpt lat="43.5046833" lon="11.158095"><ele>223.33333333333334</ele><time>2026-04-25T09:27:28.726Z</time></trkpt><trkpt lat="43.5045183" lon="11.1578967"><ele>222.66666666666669</ele><time>2026-04-25T09:27:29.727Z</time></trkpt><trkpt lat="43.5043483" lon="11.1577017"><ele>222.0</ele><time>2026-04-25T09:27:30.724Z</time></trkpt><trkpt lat="43.5041783" lon="11.1575117"><ele>222.33333333333331</ele><time>2026-04-25T09:27:31.725Z</time></trkpt><trkpt lat="43.5040017" lon="11.1573217"><ele>222.66666666666666</ele><time>2026-04-25T09:27:32.726Z</time></trkpt><trkpt lat="43.50383" lon="11.15714"><ele>223.0</ele><time>2026-04-25T09:27:33.723Z</time></trkpt><trkpt lat="43.5036667" lon="11.156975"><ele>223.0</ele><time>2026-04-25T09:27:34.727Z</time></trkpt><trkpt lat="43.5035067" lon="11.1568217"><ele>223.0</ele><time>2026-04-25T09:27:35.726Z</time></trkpt><trkpt lat="43.5033483" lon="11.156675"><ele>223.0</ele><time>2026-04-25T09:27:36.728Z</time></trkpt><trkpt lat="43.5031817" lon="11.156535"><ele>221.66666666666666</ele><time>2026-04-25T09:27:37.726Z</time></trkpt><trkpt lat="43.50301" lon="11.1563933"><ele>220.33333333333331</ele><time>2026-04-25T09:27:38.726Z</time></trkpt><trkpt lat="43.5028333" lon="11.15625"><ele>219.0</ele><time>2026-04-25T09:27:39.725Z</time></trkpt><trkpt lat="43.5026517" lon="11.156125"><ele>219.0</ele><time>2026-04-25T09:27:40.725Z</time></trkpt><trkpt lat="43.5024583" lon="11.1559967"><ele>219.0</ele><time>2026-04-25T09:27:41.726Z</time></trkpt><trkpt lat="43.5022717" lon="11.15585"><ele>219.0</ele><time>2026-04-25T09:27:42.726Z</time></trkpt><trkpt lat="43.5020967" lon="11.1556967"><ele>220.0</ele><time>2026-04-25T09:27:43.725Z</time></trkpt><trkpt lat="43.5019333" lon="11.155535"><ele>221.0</ele><time>2026-04-25T09:27:44.725Z</time></trkpt><trkpt lat="43.5017783" lon="11.155365"><ele>222.0</ele><time>2026-04-25T09:27:45.724Z</time></trkpt><trkpt lat="43.5016367" lon="11.1551783"><ele>222.0</ele><time>2026-04-25T09:27:46.724Z</time></trkpt><trkpt lat="43.5015033" lon="11.1549867"><ele>222.0</ele><time>2026-04-25T09:27:47.726Z</time></trkpt><trkpt lat="43.5013667" lon="11.154815"><ele>222.0</ele><time>2026-04-25T09:27:48.727Z</time></trkpt><trkpt lat="43.5012283" lon="11.1546617"><ele>222.66666666666669</ele><time>2026-04-25T09:27:49.724Z</time></trkpt><trkpt lat="43.501085" lon="11.1545367"><ele>223.33333333333334</ele><time>2026-04-25T09:27:50.726Z</time></trkpt><trkpt lat="43.5009317" lon="11.15444"><ele>224.0</ele><time>2026-04-25T09:27:51.724Z</time></trkpt><trkpt lat="43.5007633" lon="11.15438"><ele>224.0</ele><time>2026-04-25T09:27:52.725Z</time></trkpt><trkpt lat="43.5005883" lon="11.1543733"><ele>224.0</ele><time>2026-04-25T09:27:53.727Z</time></trkpt><trkpt lat="43.50042" lon="11.1543683"><ele>224.0</ele><time>2026-04-25T09:27:54.725Z</time></trkpt><trkpt lat="43.5002583" lon="11.1543333"><ele>222.0</ele><time>2026-04-25T09:27:55.726Z</time></trkpt><trkpt lat="43.5001083" lon="11.1542433"><ele>220.0</ele><time>2026-04-25T09:27:56.727Z</time></trkpt><trkpt lat="43.4999617" lon="11.15411"><ele>218.0</ele><time>2026-04-25T09:27:57.724Z</time></trkpt><trkpt lat="43.4998217" lon="11.1539417"><ele>218.0</ele><time>2026-04-25T09:27:58.727Z</time></trkpt><trkpt lat="43.4996883" lon="11.1537317"><ele>218.0</ele><time>2026-04-25T09:27:59.726Z</time></trkpt><trkpt lat="43.4995633" lon="11.1535017"><ele>218.0</ele><time>2026-04-25T09:28:00.724Z</time></trkpt><trkpt lat="43.49943" lon="11.1532667"><ele>212.66666666666669</ele><time>2026-04-25T09:28:01.726Z</time></trkpt><trkpt lat="43.4992817" lon="11.153055"><ele>207.33333333333331</ele><time>2026-04-25T09:28:02.724Z</time></trkpt><trkpt lat="43.4991167" lon="11.1528733"><ele>202.0</ele><time>2026-04-25T09:28:03.724Z</time></trkpt><trkpt lat="43.4989433" lon="11.1527167"><ele>202.0</ele><time>2026-04-25T09:28:04.724Z</time></trkpt><trkpt lat="43.49877" lon="11.1525867"><ele>202.0</ele><time>2026-04-25T09:28:05.726Z</time></trkpt><trkpt lat="43.4985933" lon="11.152485"><ele>202.0</ele><time>2026-04-25T09:28:06.725Z</time></trkpt><trkpt lat="43.49841" lon="11.1524133"><ele>199.66666666666666</ele><time>2026-04-25T09:28:07.723Z</time></trkpt><trkpt lat="43.4982117" lon="11.152385"><ele>197.33333333333331</ele><time>2026-04-25T09:28:08.724Z</time></trkpt><trkpt lat="43.4980083" lon="11.152375"><ele>195.0</ele><time>2026-04-25T09:28:09.724Z</time></trkpt><trkpt lat="43.4977983" lon="11.1523917"><ele>194.66666666666669</ele><time>2026-04-25T09:28:10.724Z</time></trkpt><trkpt lat="43.4975883" lon="11.15244"><ele>194.33333333333334</ele><time>2026-04-25T09:28:11.726Z</time></trkpt><trkpt lat="43.4973817" lon="11.1525133"><ele>194.0</ele><time>2026-04-25T09:28:12.726Z</time></trkpt><trkpt lat="43.4971767" lon="11.1525917"><ele>193.66666666666669</ele><time>2026-04-25T09:28:13.724Z</time></trkpt><trkpt lat="43.4969783" lon="11.1526683"><ele>193.33333333333331</ele><time>2026-04-25T09:28:14.725Z</time></trkpt><trkpt lat="43.496785" lon="11.15274"><ele>193.0</ele><time>2026-04-25T09:28:15.725Z</time></trkpt><trkpt lat="43.4965917" lon="11.1527933"><ele>193.0</ele><time>2026-04-25T09:28:16.725Z</time></trkpt><trkpt lat="43.4964017" lon="11.1528067"><ele>193.0</ele><time>2026-04-25T09:28:17.726Z</time></trkpt><trkpt lat="43.4962067" lon="11.1527833"><ele>193.0</ele><time>2026-04-25T09:28:18.725Z</time></trkpt><trkpt lat="43.496015" lon="11.1527367"><ele>189.66666666666666</ele><time>2026-04-25T09:28:19.726Z</time></trkpt><trkpt lat="43.4958217" lon="11.1526783"><ele>186.33333333333331</ele><time>2026-04-25T09:28:20.727Z</time></trkpt><trkpt lat="43.4956283" lon="11.1526083"><ele>183.0</ele><time>2026-04-25T09:28:21.725Z</time></trkpt><trkpt lat="43.495435" lon="11.1525317"><ele>179.66666666666666</ele><time>2026-04-25T09:28:22.726Z</time></trkpt><trkpt lat="43.4952467" lon="11.1524583"><ele>176.33333333333331</ele><time>2026-04-25T09:28:23.725Z</time></trkpt><trkpt lat="43.4950617" lon="11.1523817"><ele>173.0</ele><time>2026-04-25T09:28:24.726Z</time></trkpt><trkpt lat="43.4948783" lon="11.1522983"><ele>171.0</ele><time>2026-04-25T09:28:25.725Z</time></trkpt><trkpt lat="43.49469" lon="11.1522233"><ele>169.0</ele><time>2026-04-25T09:28:26.726Z</time></trkpt><trkpt lat="43.4944933" lon="11.15215"><ele>167.0</ele><time>2026-04-25T09:28:27.723Z</time></trkpt><trkpt lat="43.494295" lon="11.1520767"><ele>165.0</ele><time>2026-04-25T09:28:28.725Z</time></trkpt><trkpt lat="43.4941017" lon="11.15201"><ele>163.0</ele><time>2026-04-25T09:28:29.725Z</time></trkpt><trkpt lat="43.4939067" lon="11.1519517"><ele>161.0</ele><time>2026-04-25T09:28:30.724Z</time></trkpt><trkpt lat="43.4937133" lon="11.1519017"><ele>159.66666666666666</ele><time>2026-04-25T09:28:31.725Z</time></trkpt><trkpt lat="43.4935217" lon="11.1518483"><ele>158.33333333333334</ele><time>2026-04-25T09:28:32.724Z</time></trkpt><trkpt lat="43.493335" lon="11.1518"><ele>157.0</ele><time>2026-04-25T09:28:33.725Z</time></trkpt><trkpt lat="43.4931517" lon="11.1517517"><ele>157.0</ele><time>2026-04-25T09:28:34.726Z</time></trkpt><trkpt lat="43.4929733" lon="11.151705"><ele>157.0</ele><time>2026-04-25T09:28:35.726Z</time></trkpt><trkpt lat="43.4928" lon="11.1516517"><ele>157.0</ele><time>2026-04-25T09:28:36.726Z</time></trkpt><trkpt lat="43.4926333" lon="11.151595"><ele>153.66666666666669</ele><time>2026-04-25T09:28:37.726Z</time></trkpt><trkpt lat="43.4924717" lon="11.1515283"><ele>150.33333333333334</ele><time>2026-04-25T09:28:38.725Z</time></trkpt><trkpt lat="43.4923133" lon="11.1514667"><ele>147.0</ele><time>2026-04-25T09:28:39.725Z</time></trkpt><trkpt lat="43.492165" lon="11.151405"><ele>146.0</ele><time>2026-04-25T09:28:40.728Z</time></trkpt><trkpt lat="43.49202" lon="11.1513417"><ele>145.0</ele><time>2026-04-25T09:28:41.726Z</time></trkpt><trkpt lat="43.4918817" lon="11.151275"><ele>144.0</ele><time>2026-04-25T09:28:42.726Z</time></trkpt><trkpt lat="43.4917467" lon="11.1512033"><ele>143.0</ele><time>2026-04-25T09:28:43.725Z</time></trkpt><trkpt lat="43.4916117" lon="11.1511417"><ele>143.0</ele><time>2026-04-25T09:28:44.725Z</time></trkpt><trkpt lat="43.4914783" lon="11.1510933"><ele>143.0</ele><time>2026-04-25T09:28:45.723Z</time></trkpt><trkpt lat="43.4913533" lon="11.1510467"><ele>143.0</ele><time>2026-04-25T09:28:46.727Z</time></trkpt><trkpt lat="43.4912367" lon="11.1510083"><ele>143.0</ele><time>2026-04-25T09:28:47.725Z</time></trkpt><trkpt lat="43.4911283" lon="11.1509783"><ele>141.6</ele><time>2026-04-25T09:28:48.724Z</time></trkpt><trkpt lat="43.491025" lon="11.1509533"><ele>140.20000000000002</ele><time>2026-04-25T09:28:49.726Z</time></trkpt><trkpt lat="43.490925" lon="11.1509333"><ele>138.8</ele><time>2026-04-25T09:28:50.723Z</time></trkpt><trkpt lat="43.4908317" lon="11.1509117"><ele>137.4</ele><time>2026-04-25T09:28:51.727Z</time></trkpt><trkpt lat="43.49074" lon="11.1508917"><ele>136.0</ele><time>2026-04-25T09:28:52.725Z</time></trkpt><trkpt lat="43.4906417" lon="11.1508783"><ele>136.0</ele><time>2026-04-25T09:28:53.725Z</time></trkpt><trkpt lat="43.4905417" lon="11.1508583"><ele>136.0</ele><time>2026-04-25T09:28:54.724Z</time></trkpt><trkpt lat="43.4904367" lon="11.1508383"><ele>136.0</ele><time>2026-04-25T09:28:55.726Z</time></trkpt><trkpt lat="43.49033" lon="11.1508183"><ele>136.0</ele><time>2026-04-25T09:28:56.726Z</time></trkpt><trkpt lat="43.490225" lon="11.1508017"><ele>136.0</ele><time>2026-04-25T09:28:57.725Z</time></trkpt><trkpt lat="43.490125" lon="11.1507833"><ele>134.6</ele><time>2026-04-25T09:28:58.726Z</time></trkpt><trkpt lat="43.490025" lon="11.1507667"><ele>133.2</ele><time>2026-04-25T09:28:59.726Z</time></trkpt><trkpt lat="43.4899267" lon="11.15075"><ele>131.8</ele><time>2026-04-25T09:29:00.727Z</time></trkpt><trkpt lat="43.4898267" lon="11.150725"><ele>130.4</ele><time>2026-04-25T09:29:01.723Z</time></trkpt><trkpt lat="43.4897267" lon="11.150705"><ele>129.0</ele><time>2026-04-25T09:29:02.726Z</time></trkpt><trkpt lat="43.489625" lon="11.15069"><ele>126.6</ele><time>2026-04-25T09:29:03.725Z</time></trkpt><trkpt lat="43.4895233" lon="11.1506783"><ele>124.2</ele><time>2026-04-25T09:29:04.726Z</time></trkpt><trkpt lat="43.4894217" lon="11.1506633"><ele>121.79999999999998</ele><time>2026-04-25T09:29:05.725Z</time></trkpt><trkpt lat="43.4893183" lon="11.15065"><ele>119.39999999999999</ele><time>2026-04-25T09:29:06.726Z</time></trkpt><trkpt lat="43.48921" lon="11.1506333"><ele>117.0</ele><time>2026-04-25T09:29:07.725Z</time></trkpt><trkpt lat="43.489095" lon="11.1506167"><ele>117.0</ele><time>2026-04-25T09:29:08.725Z</time></trkpt><trkpt lat="43.4889783" lon="11.1506017"><ele>116.99999999999999</ele><time>2026-04-25T09:29:09.726Z</time></trkpt><trkpt lat="43.4888633" lon="11.1505867"><ele>116.99999999999999</ele><time>2026-04-25T09:29:10.725Z</time></trkpt><trkpt lat="43.4887517" lon="11.150575"><ele>117.0</ele><time>2026-04-25T09:29:11.724Z</time></trkpt><trkpt lat="43.48865" lon="11.1505583"><ele>117.0</ele><time>2026-04-25T09:29:12.725Z</time></trkpt><trkpt lat="43.4885633" lon="11.1505483"><ele>115.83333333333333</ele><time>2026-04-25T09:29:13.728Z</time></trkpt><trkpt lat="43.488495" lon="11.15054"><ele>114.66666666666666</ele><time>2026-04-25T09:29:14.726Z</time></trkpt><trkpt lat="43.4883683" lon="11.1505283"><ele>113.5</ele><time>2026-04-25T09:29:16.727Z</time></trkpt><trkpt lat="43.4883033" lon="11.1505267"><ele>112.33333333333333</ele><time>2026-04-25T09:29:17.727Z</time></trkpt><trkpt lat="43.4882367" lon="11.1505233"><ele>111.16666666666666</ele><time>2026-04-25T09:29:18.726Z</time></trkpt><trkpt lat="43.488165" lon="11.150515"><ele>110.0</ele><time>2026-04-25T09:29:19.727Z</time></trkpt><trkpt lat="43.4880933" lon="11.1505117"><ele>109.99999999999999</ele><time>2026-04-25T09:29:20.728Z</time></trkpt><trkpt lat="43.4880117" lon="11.1505033"><ele>110.0</ele><time>2026-04-25T09:29:21.727Z</time></trkpt><trkpt lat="43.487925" lon="11.1504967"><ele>110.0</ele><time>2026-04-25T09:29:22.726Z</time></trkpt><trkpt lat="43.4878333" lon="11.1505"><ele>110.0</ele><time>2026-04-25T09:29:23.727Z</time></trkpt><trkpt lat="43.48774" lon="11.150515"><ele>109.99999999999999</ele><time>2026-04-25T09:29:24.725Z</time></trkpt><trkpt lat="43.48765" lon="11.150525"><ele>110.0</ele><time>2026-04-25T09:29:25.725Z</time></trkpt><trkpt lat="43.4875567" lon="11.1505367"><ele>109.66666666666666</ele><time>2026-04-25T09:29:26.727Z</time></trkpt><trkpt lat="43.4874583" lon="11.1505433"><ele>109.33333333333333</ele><time>2026-04-25T09:29:27.725Z</time></trkpt><trkpt lat="43.4873733" lon="11.1505567"><ele>109.0</ele><time>2026-04-25T09:29:28.725Z</time></trkpt><trkpt lat="43.4872983" lon="11.15057"><ele>108.66666666666666</ele><time>2026-04-25T09:29:29.725Z</time></trkpt><trkpt lat="43.48723" lon="11.150585"><ele>108.33333333333333</ele><time>2026-04-25T09:29:30.726Z</time></trkpt><trkpt lat="43.4871217" lon="11.1505967"><ele>108.0</ele><time>2026-04-25T09:29:32.724Z</time></trkpt><trkpt lat="43.4870533" lon="11.1505967"><ele>107.83333333333333</ele><time>2026-04-25T09:29:34.723Z</time></trkpt><trkpt lat="43.4869617" lon="11.1505817"><ele>107.66666666666666</ele><time>2026-04-25T09:29:37.725Z</time></trkpt><trkpt lat="43.486905" lon="11.1505417"><ele>107.5</ele><time>2026-04-25T09:29:39.724Z</time></trkpt><trkpt lat="43.486835" lon="11.1504583"><ele>107.33333333333333</ele><time>2026-04-25T09:29:41.725Z</time></trkpt><trkpt lat="43.48678" lon="11.15039"><ele>107.16666666666666</ele><time>2026-04-25T09:29:42.723Z</time></trkpt><trkpt lat="43.48671" lon="11.15029"><ele>107.0</ele><time>2026-04-25T09:29:43.725Z</time></trkpt><trkpt lat="43.48664" lon="11.150155"><ele>107.0</ele><time>2026-04-25T09:29:44.725Z</time></trkpt><trkpt lat="43.486585" lon="11.149975"><ele>107.0</ele><time>2026-04-25T09:29:45.725Z</time></trkpt><trkpt lat="43.48655" lon="11.149775"><ele>107.0</ele><time>2026-04-25T09:29:46.726Z</time></trkpt><trkpt lat="43.4865333" lon="11.1495583"><ele>107.0</ele><time>2026-04-25T09:29:47.724Z</time></trkpt><trkpt lat="43.48653" lon="11.1493233"><ele>107.0</ele><time>2026-04-25T09:29:48.725Z</time></trkpt><trkpt lat="43.48653" lon="11.14908"><ele>107.0</ele><time>2026-04-25T09:29:49.733Z</time></trkpt><trkpt lat="43.4865267" lon="11.148835"><ele>107.0</ele><time>2026-04-25T09:29:50.724Z</time></trkpt><trkpt lat="43.4865183" lon="11.14859"><ele>106.66666666666666</ele><time>2026-04-25T09:29:51.722Z</time></trkpt><trkpt lat="43.4865033" lon="11.148345"><ele>106.33333333333334</ele><time>2026-04-25T09:29:52.723Z</time></trkpt><trkpt lat="43.486475" lon="11.1481"><ele>106.0</ele><time>2026-04-25T09:29:53.722Z</time></trkpt><trkpt lat="43.4864317" lon="11.1478583"><ele>106.0</ele><time>2026-04-25T09:29:54.722Z</time></trkpt><trkpt lat="43.4863767" lon="11.1476033"><ele>106.0</ele><time>2026-04-25T09:29:55.724Z</time></trkpt><trkpt lat="43.486315" lon="11.1473483"><ele>106.0</ele><time>2026-04-25T09:29:56.724Z</time></trkpt><trkpt lat="43.4862333" lon="11.1470883"><ele>106.0</ele><time>2026-04-25T09:29:57.723Z</time></trkpt><trkpt lat="43.48615" lon="11.1468283"><ele>106.0</ele><time>2026-04-25T09:29:58.723Z</time></trkpt><trkpt lat="43.486055" lon="11.1465917"><ele>106.0</ele><time>2026-04-25T09:29:59.725Z</time></trkpt><trkpt lat="43.4859567" lon="11.1463833"><ele>106.0</ele><time>2026-04-25T09:30:00.723Z</time></trkpt><trkpt lat="43.4858617" lon="11.1461933"><ele>106.0</ele><time>2026-04-25T09:30:01.724Z</time></trkpt><trkpt lat="43.4857667" lon="11.14601"><ele>106.0</ele><time>2026-04-25T09:30:02.723Z</time></trkpt><trkpt lat="43.4856767" lon="11.145845"><ele>105.8</ele><time>2026-04-25T09:30:03.723Z</time></trkpt><trkpt lat="43.4855983" lon="11.1456917"><ele>105.6</ele><time>2026-04-25T09:30:04.724Z</time></trkpt><trkpt lat="43.485535" lon="11.1455617"><ele>105.4</ele><time>2026-04-25T09:30:05.726Z</time></trkpt><trkpt lat="43.4854917" lon="11.145445"><ele>105.2</ele><time>2026-04-25T09:30:06.726Z</time></trkpt><trkpt lat="43.4854633" lon="11.1453367"><ele>105.0</ele><time>2026-04-25T09:30:07.725Z</time></trkpt><trkpt lat="43.485445" lon="11.1452483"><ele>104.75</ele><time>2026-04-25T09:30:08.724Z</time></trkpt><trkpt lat="43.4854183" lon="11.14511"><ele>104.5</ele><time>2026-04-25T09:30:10.727Z</time></trkpt><trkpt lat="43.4853933" lon="11.1450083"><ele>104.25</ele><time>2026-04-25T09:30:12.724Z</time></trkpt><trkpt lat="43.4853667" lon="11.1449283"><ele>104.0</ele><time>2026-04-25T09:30:15.726Z</time></trkpt><trkpt lat="43.4851718" lon="11.144732"><ele>103.99999999999999</ele><time>2026-04-25T09:35:54.725Z</time></trkpt><trkpt lat="43.4851129" lon="11.1446817"><ele>104.0</ele><time>2026-04-25T09:35:55.725Z</time></trkpt><trkpt lat="43.4850578" lon="11.1446221"><ele>104.0</ele><time>2026-04-25T09:35:56.724Z</time></trkpt><trkpt lat="43.4850053" lon="11.1445445"><ele>104.0</ele><time>2026-04-25T09:35:57.723Z</time></trkpt><trkpt lat="43.4849486" lon="11.1444469"><ele>103.99999999999999</ele><time>2026-04-25T09:35:58.723Z</time></trkpt><trkpt lat="43.4848943" lon="11.1443428"><ele>104.0</ele><time>2026-04-25T09:35:59.725Z</time></trkpt><trkpt lat="43.4848422" lon="11.1442492"><ele>104.0</ele><time>2026-04-25T09:36:00.726Z</time></trkpt><trkpt lat="43.4847858" lon="11.1441571"><ele>104.0</ele><time>2026-04-25T09:36:01.724Z</time></trkpt><trkpt lat="43.4847137" lon="11.144056"><ele>104.0</ele><time>2026-04-25T09:36:02.725Z</time></trkpt><trkpt lat="43.4846296" lon="11.1439302"><ele>104.0</ele><time>2026-04-25T09:36:03.724Z</time></trkpt><trkpt lat="43.484539" lon="11.1437785"><ele>103.33333333333333</ele><time>2026-04-25T09:36:04.723Z</time></trkpt><trkpt lat="43.4844407" lon="11.1436041"><ele>102.66666666666666</ele><time>2026-04-25T09:36:05.724Z</time></trkpt><trkpt lat="43.4843367" lon="11.143422"><ele>102.0</ele><time>2026-04-25T09:36:06.725Z</time></trkpt><trkpt lat="43.4842307" lon="11.1432327"><ele>102.66666666666666</ele><time>2026-04-25T09:36:07.723Z</time></trkpt><trkpt lat="43.484122" lon="11.1430365"><ele>103.33333333333333</ele><time>2026-04-25T09:36:08.725Z</time></trkpt><trkpt lat="43.4840089" lon="11.1428267"><ele>104.0</ele><time>2026-04-25T09:36:09.728Z</time></trkpt><trkpt lat="43.4838982" lon="11.1426064"><ele>104.33333333333333</ele><time>2026-04-25T09:36:10.724Z</time></trkpt><trkpt lat="43.4837922" lon="11.1423805"><ele>104.66666666666666</ele><time>2026-04-25T09:36:11.724Z</time></trkpt><trkpt lat="43.4836928" lon="11.1421555"><ele>105.0</ele><time>2026-04-25T09:36:12.726Z</time></trkpt><trkpt lat="43.483599" lon="11.1419302"><ele>104.33333333333334</ele><time>2026-04-25T09:36:13.723Z</time></trkpt><trkpt lat="43.4835133" lon="11.1417017"><ele>103.66666666666667</ele><time>2026-04-25T09:36:14.725Z</time></trkpt><trkpt lat="43.4834333" lon="11.14147"><ele>103.0</ele><time>2026-04-25T09:36:15.725Z</time></trkpt><trkpt lat="43.48336" lon="11.1412367"><ele>103.0</ele><time>2026-04-25T09:36:16.726Z</time></trkpt><trkpt lat="43.4832917" lon="11.1409983"><ele>103.0</ele><time>2026-04-25T09:36:17.724Z</time></trkpt><trkpt lat="43.48323" lon="11.1407583"><ele>103.0</ele><time>2026-04-25T09:36:18.725Z</time></trkpt><trkpt lat="43.4831733" lon="11.1405233"><ele>103.66666666666667</ele><time>2026-04-25T09:36:19.724Z</time></trkpt><trkpt lat="43.4831217" lon="11.1402917"><ele>104.33333333333334</ele><time>2026-04-25T09:36:20.724Z</time></trkpt><trkpt lat="43.4830767" lon="11.1400567"><ele>105.0</ele><time>2026-04-25T09:36:21.725Z</time></trkpt><trkpt lat="43.483035" lon="11.1398283"><ele>105.0</ele><time>2026-04-25T09:36:22.724Z</time></trkpt><trkpt lat="43.4830017" lon="11.1395883"><ele>105.0</ele><time>2026-04-25T09:36:23.724Z</time></trkpt><trkpt lat="43.48297" lon="11.1393533"><ele>105.0</ele><time>2026-04-25T09:36:24.725Z</time></trkpt><trkpt lat="43.4829433" lon="11.1391117"><ele>104.0</ele><time>2026-04-25T09:36:25.723Z</time></trkpt><trkpt lat="43.4829233" lon="11.1388583"><ele>103.0</ele><time>2026-04-25T09:36:26.724Z</time></trkpt><trkpt lat="43.4829083" lon="11.1385967"><ele>102.0</ele><time>2026-04-25T09:36:27.725Z</time></trkpt><trkpt lat="43.4828917" lon="11.138335"><ele>102.33333333333334</ele><time>2026-04-25T09:36:28.722Z</time></trkpt><trkpt lat="43.4828733" lon="11.1380717"><ele>102.66666666666667</ele><time>2026-04-25T09:36:29.723Z</time></trkpt><trkpt lat="43.4828517" lon="11.13781"><ele>103.0</ele><time>2026-04-25T09:36:30.724Z</time></trkpt><trkpt lat="43.4828333" lon="11.1375433"><ele>103.33333333333334</ele><time>2026-04-25T09:36:31.723Z</time></trkpt><trkpt lat="43.4828183" lon="11.137275"><ele>103.66666666666666</ele><time>2026-04-25T09:36:32.726Z</time></trkpt><trkpt lat="43.4828033" lon="11.137015"><ele>104.0</ele><time>2026-04-25T09:36:33.725Z</time></trkpt><trkpt lat="43.4827883" lon="11.1367567"><ele>104.0</ele><time>2026-04-25T09:36:34.723Z</time></trkpt><trkpt lat="43.4827767" lon="11.1364967"><ele>104.0</ele><time>2026-04-25T09:36:35.725Z</time></trkpt><trkpt lat="43.4827633" lon="11.13623"><ele>104.0</ele><time>2026-04-25T09:36:36.724Z</time></trkpt><trkpt lat="43.48275" lon="11.13597"><ele>104.0</ele><time>2026-04-25T09:36:37.724Z</time></trkpt><trkpt lat="43.482735" lon="11.1357083"><ele>104.0</ele><time>2026-04-25T09:36:38.723Z</time></trkpt><trkpt lat="43.4827217" lon="11.1354533"><ele>104.0</ele><time>2026-04-25T09:36:39.725Z</time></trkpt><trkpt lat="43.482705" lon="11.1351917"><ele>104.0</ele><time>2026-04-25T09:36:40.723Z</time></trkpt><trkpt lat="43.48269" lon="11.1349267"><ele>104.0</ele><time>2026-04-25T09:36:41.725Z</time></trkpt><trkpt lat="43.4826717" lon="11.134665"><ele>104.0</ele><time>2026-04-25T09:36:42.723Z</time></trkpt><trkpt lat="43.482655" lon="11.1343983"><ele>104.0</ele><time>2026-04-25T09:36:43.725Z</time></trkpt><trkpt lat="43.48264" lon="11.1341267"><ele>104.0</ele><time>2026-04-25T09:36:44.723Z</time></trkpt><trkpt lat="43.482625" lon="11.1338567"><ele>104.0</ele><time>2026-04-25T09:36:45.725Z</time></trkpt><trkpt lat="43.4826067" lon="11.1335867"><ele>103.33333333333333</ele><time>2026-04-25T09:36:46.727Z</time></trkpt><trkpt lat="43.4825867" lon="11.1333167"><ele>102.66666666666666</ele><time>2026-04-25T09:36:47.725Z</time></trkpt><trkpt lat="43.48257" lon="11.13305"><ele>102.0</ele><time>2026-04-25T09:36:48.725Z</time></trkpt><trkpt lat="43.482555" lon="11.13278"><ele>101.33333333333334</ele><time>2026-04-25T09:36:49.725Z</time></trkpt><trkpt lat="43.48254" lon="11.1325067"><ele>100.66666666666667</ele><time>2026-04-25T09:36:50.724Z</time></trkpt><trkpt lat="43.4825217" lon="11.1322367"><ele>100.0</ele><time>2026-04-25T09:36:51.724Z</time></trkpt><trkpt lat="43.4825" lon="11.1319717"><ele>99.33333333333334</ele><time>2026-04-25T09:36:52.724Z</time></trkpt><trkpt lat="43.4824783" lon="11.13171"><ele>98.66666666666666</ele><time>2026-04-25T09:36:53.723Z</time></trkpt><trkpt lat="43.4824583" lon="11.131435"><ele>98.0</ele><time>2026-04-25T09:36:54.725Z</time></trkpt><trkpt lat="43.4824383" lon="11.1311633"><ele>97.33333333333333</ele><time>2026-04-25T09:36:55.726Z</time></trkpt><trkpt lat="43.4824217" lon="11.1308883"><ele>96.66666666666666</ele><time>2026-04-25T09:36:56.724Z</time></trkpt><trkpt lat="43.4824083" lon="11.13061"><ele>96.0</ele><time>2026-04-25T09:36:57.724Z</time></trkpt><trkpt lat="43.4823933" lon="11.130325"><ele>94.0</ele><time>2026-04-25T09:36:58.723Z</time></trkpt><trkpt lat="43.4823733" lon="11.130045"><ele>92.0</ele><time>2026-04-25T09:36:59.726Z</time></trkpt><trkpt lat="43.482355" lon="11.1297583"><ele>90.0</ele><time>2026-04-25T09:37:00.725Z</time></trkpt><trkpt lat="43.4823367" lon="11.1294683"><ele>89.0</ele><time>2026-04-25T09:37:01.725Z</time></trkpt><trkpt lat="43.4823217" lon="11.1291767"><ele>88.0</ele><time>2026-04-25T09:37:02.726Z</time></trkpt><trkpt lat="43.4823067" lon="11.1288833"><ele>87.0</ele><time>2026-04-25T09:37:03.725Z</time></trkpt><trkpt lat="43.4822967" lon="11.1285917"><ele>86.33333333333333</ele><time>2026-04-25T09:37:04.726Z</time></trkpt><trkpt lat="43.4822867" lon="11.1282967"><ele>85.66666666666666</ele><time>2026-04-25T09:37:05.724Z</time></trkpt><trkpt lat="43.4822767" lon="11.1280067"><ele>85.0</ele><time>2026-04-25T09:37:06.725Z</time></trkpt><trkpt lat="43.4822683" lon="11.1277183"><ele>85.0</ele><time>2026-04-25T09:37:07.726Z</time></trkpt><trkpt lat="43.4822667" lon="11.1274317"><ele>85.0</ele><time>2026-04-25T09:37:08.724Z</time></trkpt><trkpt lat="43.4822733" lon="11.1271467"><ele>85.0</ele><time>2026-04-25T09:37:09.725Z</time></trkpt><trkpt lat="43.4822783" lon="11.1268633"><ele>85.33333333333333</ele><time>2026-04-25T09:37:10.725Z</time></trkpt><trkpt lat="43.4822817" lon="11.1265883"><ele>85.66666666666667</ele><time>2026-04-25T09:37:11.724Z</time></trkpt><trkpt lat="43.482285" lon="11.12633"><ele>86.0</ele><time>2026-04-25T09:37:12.725Z</time></trkpt><trkpt lat="43.4822917" lon="11.126075"><ele>86.0</ele><time>2026-04-25T09:37:13.725Z</time></trkpt><trkpt lat="43.4823017" lon="11.1258383"><ele>86.0</ele><time>2026-04-25T09:37:14.724Z</time></trkpt><trkpt lat="43.482315" lon="11.1256133"><ele>86.0</ele><time>2026-04-25T09:37:15.725Z</time></trkpt><trkpt lat="43.482345" lon="11.12541"><ele>86.0</ele><time>2026-04-25T09:37:16.724Z</time></trkpt><trkpt lat="43.4824" lon="11.1252267"><ele>86.0</ele><time>2026-04-25T09:37:17.724Z</time></trkpt><trkpt lat="43.48248" lon="11.1250683"><ele>86.0</ele><time>2026-04-25T09:37:18.725Z</time></trkpt><trkpt lat="43.4825867" lon="11.1249433"><ele>86.0</ele><time>2026-04-25T09:37:19.723Z</time></trkpt><trkpt lat="43.48271" lon="11.1248533"><ele>86.0</ele><time>2026-04-25T09:37:20.725Z</time></trkpt><trkpt lat="43.4828517" lon="11.1248033"><ele>86.0</ele><time>2026-04-25T09:37:21.724Z</time></trkpt><trkpt lat="43.483005" lon="11.1248"><ele>86.0</ele><time>2026-04-25T09:37:22.724Z</time></trkpt><trkpt lat="43.4831567" lon="11.1248433"><ele>85.33333333333334</ele><time>2026-04-25T09:37:23.725Z</time></trkpt><trkpt lat="43.4832983" lon="11.1249283"><ele>84.66666666666667</ele><time>2026-04-25T09:37:24.724Z</time></trkpt><trkpt lat="43.483425" lon="11.12506"><ele>84.0</ele><time>2026-04-25T09:37:25.724Z</time></trkpt><trkpt lat="43.4835283" lon="11.125225"><ele>84.0</ele><time>2026-04-25T09:37:26.725Z</time></trkpt><trkpt lat="43.4835967" lon="11.1254217"><ele>84.0</ele><time>2026-04-25T09:37:27.726Z</time></trkpt><trkpt lat="43.4836283" lon="11.125645"><ele>84.0</ele><time>2026-04-25T09:37:28.725Z</time></trkpt><trkpt lat="43.4836183" lon="11.1258667"><ele>84.33333333333333</ele><time>2026-04-25T09:37:29.724Z</time></trkpt><trkpt lat="43.4835683" lon="11.1260683"><ele>84.66666666666666</ele><time>2026-04-25T09:37:30.724Z</time></trkpt><trkpt lat="43.4834883" lon="11.1262467"><ele>85.0</ele><time>2026-04-25T09:37:31.724Z</time></trkpt><trkpt lat="43.483375" lon="11.12639"><ele>85.0</ele><time>2026-04-25T09:37:32.726Z</time></trkpt><trkpt lat="43.4832383" lon="11.126505"><ele>85.0</ele><time>2026-04-25T09:37:33.725Z</time></trkpt><trkpt lat="43.48309" lon="11.1265767"><ele>85.0</ele><time>2026-04-25T09:37:34.725Z</time></trkpt><trkpt lat="43.4829283" lon="11.1266067"><ele>85.33333333333333</ele><time>2026-04-25T09:37:35.724Z</time></trkpt><trkpt lat="43.4827683" lon="11.1266017"><ele>85.66666666666667</ele><time>2026-04-25T09:37:36.725Z</time></trkpt><trkpt lat="43.4826033" lon="11.1265917"><ele>86.0</ele><time>2026-04-25T09:37:37.725Z</time></trkpt><trkpt lat="43.4824433" lon="11.1265817"><ele>86.0</ele><time>2026-04-25T09:37:38.726Z</time></trkpt><trkpt lat="43.48228" lon="11.1265767"><ele>86.0</ele><time>2026-04-25T09:37:39.723Z</time></trkpt><trkpt lat="43.4821167" lon="11.1265717"><ele>86.0</ele><time>2026-04-25T09:37:40.724Z</time></trkpt><trkpt lat="43.481955" lon="11.126565"><ele>86.33333333333334</ele><time>2026-04-25T09:37:41.726Z</time></trkpt><trkpt lat="43.4817867" lon="11.126555"><ele>86.66666666666667</ele><time>2026-04-25T09:37:42.725Z</time></trkpt><trkpt lat="43.4816217" lon="11.1265483"><ele>87.0</ele><time>2026-04-25T09:37:43.727Z</time></trkpt><trkpt lat="43.4814583" lon="11.1265433"><ele>87.0</ele><time>2026-04-25T09:37:44.727Z</time></trkpt><trkpt lat="43.481285" lon="11.1265433"><ele>87.0</ele><time>2026-04-25T09:37:45.726Z</time></trkpt><trkpt lat="43.4810933" lon="11.126555"><ele>87.0</ele><time>2026-04-25T09:37:46.724Z</time></trkpt><trkpt lat="43.4808817" lon="11.126595"><ele>87.0</ele><time>2026-04-25T09:37:47.727Z</time></trkpt><trkpt lat="43.48067" lon="11.12666"><ele>87.0</ele><time>2026-04-25T09:37:48.724Z</time></trkpt><trkpt lat="43.4804717" lon="11.12675"><ele>87.0</ele><time>2026-04-25T09:37:49.724Z</time></trkpt><trkpt lat="43.480285" lon="11.1268667"><ele>86.66666666666667</ele><time>2026-04-25T09:37:50.725Z</time></trkpt><trkpt lat="43.480105" lon="11.127015"><ele>86.33333333333334</ele><time>2026-04-25T09:37:51.725Z</time></trkpt><trkpt lat="43.479935" lon="11.127195"><ele>86.0</ele><time>2026-04-25T09:37:52.723Z</time></trkpt><trkpt lat="43.4797767" lon="11.1274033"><ele>86.66666666666667</ele><time>2026-04-25T09:37:53.725Z</time></trkpt><trkpt lat="43.4796317" lon="11.1276367"><ele>87.33333333333333</ele><time>2026-04-25T09:37:54.724Z</time></trkpt><trkpt lat="43.4795" lon="11.1278833"><ele>88.0</ele><time>2026-04-25T09:37:55.724Z</time></trkpt><trkpt lat="43.4793783" lon="11.1281333"><ele>88.33333333333333</ele><time>2026-04-25T09:37:56.724Z</time></trkpt><trkpt lat="43.4792583" lon="11.1283783"><ele>88.66666666666667</ele><time>2026-04-25T09:37:57.724Z</time></trkpt><trkpt lat="43.4791433" lon="11.1286133"><ele>89.0</ele><time>2026-04-25T09:37:58.724Z</time></trkpt><trkpt lat="43.4790333" lon="11.1288383"><ele>89.0</ele><time>2026-04-25T09:37:59.724Z</time></trkpt><trkpt lat="43.47893" lon="11.1290483"><ele>89.0</ele><time>2026-04-25T09:38:00.725Z</time></trkpt><trkpt lat="43.4788317" lon="11.1292367"><ele>89.0</ele><time>2026-04-25T09:38:01.725Z</time></trkpt><trkpt lat="43.4787383" lon="11.1294033"><ele>89.5</ele><time>2026-04-25T09:38:02.726Z</time></trkpt><trkpt lat="43.4786417" lon="11.1295483"><ele>90.0</ele><time>2026-04-25T09:38:03.725Z</time></trkpt><trkpt lat="43.4785517" lon="11.12967"><ele>90.5</ele><time>2026-04-25T09:38:04.724Z</time></trkpt><trkpt lat="43.47847" lon="11.1297683"><ele>91.0</ele><time>2026-04-25T09:38:05.726Z</time></trkpt><trkpt lat="43.478395" lon="11.12985"><ele>90.5</ele><time>2026-04-25T09:38:06.725Z</time></trkpt><trkpt lat="43.47832" lon="11.1299233"><ele>90.0</ele><time>2026-04-25T09:38:07.724Z</time></trkpt><trkpt lat="43.4782433" lon="11.1299867"><ele>89.5</ele><time>2026-04-25T09:38:08.726Z</time></trkpt><trkpt lat="43.47817" lon="11.1300433"><ele>89.0</ele><time>2026-04-25T09:38:09.723Z</time></trkpt><trkpt lat="43.4781033" lon="11.1300983"><ele>88.5</ele><time>2026-04-25T09:38:10.724Z</time></trkpt><trkpt lat="43.47804" lon="11.13015"><ele>88.0</ele><time>2026-04-25T09:38:11.725Z</time></trkpt><trkpt lat="43.4779717" lon="11.1302"><ele>87.83333333333333</ele><time>2026-04-25T09:38:12.725Z</time></trkpt><trkpt lat="43.4779" lon="11.1302333"><ele>87.66666666666666</ele><time>2026-04-25T09:38:13.725Z</time></trkpt><trkpt lat="43.477825" lon="11.1302467"><ele>87.5</ele><time>2026-04-25T09:38:14.726Z</time></trkpt><trkpt lat="43.4777483" lon="11.13024"><ele>87.33333333333333</ele><time>2026-04-25T09:38:15.725Z</time></trkpt><trkpt lat="43.4776633" lon="11.1302217"><ele>87.16666666666667</ele><time>2026-04-25T09:38:16.724Z</time></trkpt><trkpt lat="43.4775783" lon="11.1301967"><ele>87.0</ele><time>2026-04-25T09:38:17.725Z</time></trkpt><trkpt lat="43.4774883" lon="11.1301667"><ele>87.0</ele><time>2026-04-25T09:38:18.725Z</time></trkpt><trkpt lat="43.477395" lon="11.130145"><ele>87.0</ele><time>2026-04-25T09:38:19.726Z</time></trkpt><trkpt lat="43.4772967" lon="11.1301233"><ele>87.0</ele><time>2026-04-25T09:38:20.727Z</time></trkpt><trkpt lat="43.4771933" lon="11.130105"><ele>87.0</ele><time>2026-04-25T09:38:21.725Z</time></trkpt><trkpt lat="43.4770817" lon="11.1300783"><ele>87.0</ele><time>2026-04-25T09:38:22.727Z</time></trkpt><trkpt lat="43.47697" lon="11.1300417"><ele>87.5</ele><time>2026-04-25T09:38:23.725Z</time></trkpt><trkpt lat="43.4768567" lon="11.1299983"><ele>88.0</ele><time>2026-04-25T09:38:24.724Z</time></trkpt><trkpt lat="43.4767367" lon="11.1299633"><ele>88.5</ele><time>2026-04-25T09:38:25.725Z</time></trkpt><trkpt lat="43.476615" lon="11.1299433"><ele>89.0</ele><time>2026-04-25T09:38:26.725Z</time></trkpt><trkpt lat="43.4764867" lon="11.12994"><ele>89.0</ele><time>2026-04-25T09:38:27.725Z</time></trkpt><trkpt lat="43.4763117" lon="11.1298733"><ele>89.0</ele><time>2026-04-25T09:38:29.234Z</time></trkpt><trkpt lat="43.476095" lon="11.12989"><ele>89.0</ele><time>2026-04-25T09:38:30.224Z</time></trkpt><trkpt lat="43.475885" lon="11.1298783"><ele>89.0</ele><time>2026-04-25T09:38:31.726Z</time></trkpt><trkpt lat="43.4757417" lon="11.1298683"><ele>89.0</ele><time>2026-04-25T09:38:32.724Z</time></trkpt><trkpt lat="43.47557" lon="11.1298417"><ele>89.0</ele><time>2026-04-25T09:38:33.724Z</time></trkpt><trkpt lat="43.4753867" lon="11.12981"><ele>88.66666666666667</ele><time>2026-04-25T09:38:34.726Z</time></trkpt><trkpt lat="43.4751983" lon="11.1297733"><ele>88.33333333333333</ele><time>2026-04-25T09:38:35.725Z</time></trkpt><trkpt lat="43.47501" lon="11.129735"><ele>88.0</ele><time>2026-04-25T09:38:36.722Z</time></trkpt><trkpt lat="43.4748167" lon="11.1296917"><ele>88.0</ele><time>2026-04-25T09:38:37.724Z</time></trkpt><trkpt lat="43.4746233" lon="11.12965"><ele>88.0</ele><time>2026-04-25T09:38:38.725Z</time></trkpt><trkpt lat="43.4744267" lon="11.1296117"><ele>88.0</ele><time>2026-04-25T09:38:39.724Z</time></trkpt><trkpt lat="43.474235" lon="11.1295733"><ele>87.66666666666666</ele><time>2026-04-25T09:38:40.725Z</time></trkpt><trkpt lat="43.4740467" lon="11.1295367"><ele>87.33333333333333</ele><time>2026-04-25T09:38:41.724Z</time></trkpt><trkpt lat="43.4738667" lon="11.1295017"><ele>87.0</ele><time>2026-04-25T09:38:42.724Z</time></trkpt><trkpt lat="43.4736933" lon="11.1294683"><ele>87.0</ele><time>2026-04-25T09:38:43.725Z</time></trkpt><trkpt lat="43.4735183" lon="11.1294367"><ele>87.0</ele><time>2026-04-25T09:38:44.724Z</time></trkpt><trkpt lat="43.4733367" lon="11.1294117"><ele>87.0</ele><time>2026-04-25T09:38:45.725Z</time></trkpt><trkpt lat="43.47315" lon="11.1293833"><ele>87.0</ele><time>2026-04-25T09:38:46.726Z</time></trkpt><trkpt lat="43.4729583" lon="11.1293483"><ele>87.0</ele><time>2026-04-25T09:38:47.724Z</time></trkpt><trkpt lat="43.4727617" lon="11.1293083"><ele>87.0</ele><time>2026-04-25T09:38:48.726Z</time></trkpt><trkpt lat="43.472565" lon="11.1292683"><ele>87.0</ele><time>2026-04-25T09:38:49.725Z</time></trkpt><trkpt lat="43.47237" lon="11.1292233"><ele>87.0</ele><time>2026-04-25T09:38:50.726Z</time></trkpt><trkpt lat="43.4721783" lon="11.1291717"><ele>87.0</ele><time>2026-04-25T09:38:51.725Z</time></trkpt><trkpt lat="43.4719917" lon="11.1291067"><ele>87.66666666666667</ele><time>2026-04-25T09:38:52.726Z</time></trkpt><trkpt lat="43.4718117" lon="11.1290267"><ele>88.33333333333334</ele><time>2026-04-25T09:38:53.726Z</time></trkpt><trkpt lat="43.4716367" lon="11.1289383"><ele>89.0</ele><time>2026-04-25T09:38:54.725Z</time></trkpt><trkpt lat="43.4714683" lon="11.1288467"><ele>89.0</ele><time>2026-04-25T09:38:55.724Z</time></trkpt><trkpt lat="43.471305" lon="11.128755"><ele>89.0</ele><time>2026-04-25T09:38:56.727Z</time></trkpt><trkpt lat="43.4711483" lon="11.1286733"><ele>89.0</ele><time>2026-04-25T09:38:57.727Z</time></trkpt><trkpt lat="43.4710033" lon="11.1285983"><ele>90.0</ele><time>2026-04-25T09:38:58.727Z</time></trkpt><trkpt lat="43.4708717" lon="11.1285317"><ele>91.0</ele><time>2026-04-25T09:38:59.726Z</time></trkpt><trkpt lat="43.47075" lon="11.1284733"><ele>92.0</ele><time>2026-04-25T09:39:00.727Z</time></trkpt><trkpt lat="43.4706417" lon="11.1284233"><ele>93.0</ele><time>2026-04-25T09:39:01.726Z</time></trkpt><trkpt lat="43.470545" lon="11.12836"><ele>93.0</ele><time>2026-04-25T09:39:02.726Z</time></trkpt><trkpt lat="43.47045" lon="11.1282767"><ele>93.0</ele><time>2026-04-25T09:39:03.726Z</time></trkpt><trkpt lat="43.4703383" lon="11.128165"><ele>93.0</ele><time>2026-04-25T09:39:04.724Z</time></trkpt><trkpt lat="43.4702317" lon="11.1280367"><ele>93.0</ele><time>2026-04-25T09:39:05.727Z</time></trkpt><trkpt lat="43.470125" lon="11.1278983"><ele>93.5</ele><time>2026-04-25T09:39:06.726Z</time></trkpt><trkpt lat="43.4700233" lon="11.1277533"><ele>94.0</ele><time>2026-04-25T09:39:07.726Z</time></trkpt><trkpt lat="43.4699283" lon="11.1276067"><ele>94.5</ele><time>2026-04-25T09:39:08.726Z</time></trkpt><trkpt lat="43.469855" lon="11.1274667"><ele>95.0</ele><time>2026-04-25T09:39:09.726Z</time></trkpt><trkpt lat="43.4698" lon="11.1273283"><ele>95.0</ele><time>2026-04-25T09:39:10.725Z</time></trkpt><trkpt lat="43.4697517" lon="11.1271933"><ele>95.0</ele><time>2026-04-25T09:39:11.725Z</time></trkpt><trkpt lat="43.469695" lon="11.1270717"><ele>95.0</ele><time>2026-04-25T09:39:12.725Z</time></trkpt><trkpt lat="43.46962" lon="11.12696"><ele>95.0</ele><time>2026-04-25T09:39:13.726Z</time></trkpt><trkpt lat="43.4695283" lon="11.1268683"><ele>95.0</ele><time>2026-04-25T09:39:14.728Z</time></trkpt><trkpt lat="43.46942" lon="11.1267717"><ele>95.5</ele><time>2026-04-25T09:39:15.726Z</time></trkpt><trkpt lat="43.4692967" lon="11.1266833"><ele>96.0</ele><time>2026-04-25T09:39:16.728Z</time></trkpt><trkpt lat="43.4691633" lon="11.1266117"><ele>96.5</ele><time>2026-04-25T09:39:17.726Z</time></trkpt><trkpt lat="43.4690167" lon="11.126555"><ele>97.0</ele><time>2026-04-25T09:39:18.727Z</time></trkpt><trkpt lat="43.46885" lon="11.1265183"><ele>96.66666666666667</ele><time>2026-04-25T09:39:19.726Z</time></trkpt><trkpt lat="43.468675" lon="11.12649"><ele>96.33333333333334</ele><time>2026-04-25T09:39:20.726Z</time></trkpt><trkpt lat="43.4684967" lon="11.1264683"><ele>96.0</ele><time>2026-04-25T09:39:21.726Z</time></trkpt><trkpt lat="43.46831" lon="11.1264467"><ele>96.0</ele><time>2026-04-25T09:39:22.727Z</time></trkpt><trkpt lat="43.4681233" lon="11.1264167"><ele>96.0</ele><time>2026-04-25T09:39:23.726Z</time></trkpt><trkpt lat="43.4679267" lon="11.1263667"><ele>96.0</ele><time>2026-04-25T09:39:24.725Z</time></trkpt><trkpt lat="43.4677333" lon="11.12633"><ele>95.66666666666667</ele><time>2026-04-25T09:39:25.726Z</time></trkpt><trkpt lat="43.46754" lon="11.1262867"><ele>95.33333333333334</ele><time>2026-04-25T09:39:26.726Z</time></trkpt><trkpt lat="43.467345" lon="11.1262333"><ele>95.0</ele><time>2026-04-25T09:39:27.725Z</time></trkpt><trkpt lat="43.4671483" lon="11.1261667"><ele>96.0</ele><time>2026-04-25T09:39:28.726Z</time></trkpt><trkpt lat="43.4669567" lon="11.1260883"><ele>97.0</ele><time>2026-04-25T09:39:29.727Z</time></trkpt><trkpt lat="43.4667717" lon="11.1259967"><ele>98.0</ele><time>2026-04-25T09:39:30.727Z</time></trkpt><trkpt lat="43.4665917" lon="11.1259017"><ele>98.0</ele><time>2026-04-25T09:39:31.726Z</time></trkpt><trkpt lat="43.466415" lon="11.1258033"><ele>98.0</ele><time>2026-04-25T09:39:32.727Z</time></trkpt><trkpt lat="43.4662333" lon="11.1257083"><ele>98.0</ele><time>2026-04-25T09:39:33.727Z</time></trkpt><trkpt lat="43.466055" lon="11.1256117"><ele>98.33333333333333</ele><time>2026-04-25T09:39:34.727Z</time></trkpt><trkpt lat="43.465875" lon="11.1255167"><ele>98.66666666666666</ele><time>2026-04-25T09:39:35.728Z</time></trkpt><trkpt lat="43.4656917" lon="11.1254167"><ele>99.0</ele><time>2026-04-25T09:39:36.725Z</time></trkpt><trkpt lat="43.4655133" lon="11.125315"><ele>99.66666666666666</ele><time>2026-04-25T09:39:37.726Z</time></trkpt><trkpt lat="43.4653367" lon="11.1252133"><ele>100.33333333333333</ele><time>2026-04-25T09:39:38.725Z</time></trkpt><trkpt lat="43.465155" lon="11.1251117"><ele>101.0</ele><time>2026-04-25T09:39:39.726Z</time></trkpt><trkpt lat="43.4649683" lon="11.1250133"><ele>101.0</ele><time>2026-04-25T09:39:40.726Z</time></trkpt><trkpt lat="43.4647817" lon="11.1249083"><ele>101.0</ele><time>2026-04-25T09:39:41.726Z</time></trkpt><trkpt lat="43.4645883" lon="11.12481"><ele>101.0</ele><time>2026-04-25T09:39:42.726Z</time></trkpt><trkpt lat="43.464405" lon="11.124705"><ele>99.66666666666666</ele><time>2026-04-25T09:39:43.729Z</time></trkpt><trkpt lat="43.46423" lon="11.1246"><ele>98.33333333333334</ele><time>2026-04-25T09:39:44.725Z</time></trkpt><trkpt lat="43.4640533" lon="11.1245017"><ele>97.0</ele><time>2026-04-25T09:39:45.726Z</time></trkpt><trkpt lat="43.4638883" lon="11.1243933"><ele>96.66666666666667</ele><time>2026-04-25T09:39:46.727Z</time></trkpt><trkpt lat="43.4637233" lon="11.124285"><ele>96.33333333333334</ele><time>2026-04-25T09:39:47.728Z</time></trkpt><trkpt lat="43.4635717" lon="11.1241617"><ele>96.0</ele><time>2026-04-25T09:39:48.727Z</time></trkpt><trkpt lat="43.4634283" lon="11.12402"><ele>96.0</ele><time>2026-04-25T09:39:49.724Z</time></trkpt><trkpt lat="43.4632967" lon="11.1238683"><ele>96.0</ele><time>2026-04-25T09:39:50.727Z</time></trkpt><trkpt lat="43.46317" lon="11.1237117"><ele>96.0</ele><time>2026-04-25T09:39:51.728Z</time></trkpt><trkpt lat="43.4630467" lon="11.1235567"><ele>96.33333333333334</ele><time>2026-04-25T09:39:52.727Z</time></trkpt><trkpt lat="43.4629217" lon="11.1233983"><ele>96.66666666666667</ele><time>2026-04-25T09:39:53.726Z</time></trkpt><trkpt lat="43.4628067" lon="11.12325"><ele>97.0</ele><time>2026-04-25T09:39:54.727Z</time></trkpt><trkpt lat="43.4627033" lon="11.1231083"><ele>97.0</ele><time>2026-04-25T09:39:55.728Z</time></trkpt><trkpt lat="43.462615" lon="11.12297"><ele>97.0</ele><time>2026-04-25T09:39:56.727Z</time></trkpt><trkpt lat="43.4625333" lon="11.1228367"><ele>97.0</ele><time>2026-04-25T09:39:57.727Z</time></trkpt><trkpt lat="43.4624633" lon="11.1227083"><ele>97.0</ele><time>2026-04-25T09:39:58.726Z</time></trkpt><trkpt lat="43.4624017" lon="11.122575"><ele>97.00000000000001</ele><time>2026-04-25T09:39:59.726Z</time></trkpt><trkpt lat="43.4623433" lon="11.1224617"><ele>97.0</ele><time>2026-04-25T09:40:00.728Z</time></trkpt><trkpt lat="43.4622917" lon="11.1223633"><ele>97.0</ele><time>2026-04-25T09:40:01.726Z</time></trkpt><trkpt lat="43.4622467" lon="11.1222683"><ele>97.0</ele><time>2026-04-25T09:40:02.727Z</time></trkpt><trkpt lat="43.4622017" lon="11.1221833"><ele>97.00000000000001</ele><time>2026-04-25T09:40:03.724Z</time></trkpt><trkpt lat="43.4621683" lon="11.1221"><ele>97.0</ele><time>2026-04-25T09:40:04.725Z</time></trkpt><trkpt lat="43.462135" lon="11.1220217"><ele>97.0</ele><time>2026-04-25T09:40:05.728Z</time></trkpt><trkpt lat="43.4621017" lon="11.1219433"><ele>97.0</ele><time>2026-04-25T09:40:06.728Z</time></trkpt><trkpt lat="43.4620683" lon="11.121855"><ele>97.0</ele><time>2026-04-25T09:40:07.726Z</time></trkpt><trkpt lat="43.4620467" lon="11.1217533"><ele>97.0</ele><time>2026-04-25T09:40:08.726Z</time></trkpt><trkpt lat="43.4620433" lon="11.1216483"><ele>97.0</ele><time>2026-04-25T09:40:09.728Z</time></trkpt><trkpt lat="43.46204" lon="11.121545"><ele>97.0</ele><time>2026-04-25T09:40:10.728Z</time></trkpt><trkpt lat="43.462025" lon="11.12144"><ele>97.0</ele><time>2026-04-25T09:40:11.723Z</time></trkpt><trkpt lat="43.4619867" lon="11.1213367"><ele>97.0</ele><time>2026-04-25T09:40:12.728Z</time></trkpt><trkpt lat="43.4619417" lon="11.1212283"><ele>97.0</ele><time>2026-04-25T09:40:13.725Z</time></trkpt><trkpt lat="43.46189" lon="11.1211317"><ele>97.0</ele><time>2026-04-25T09:40:14.726Z</time></trkpt><trkpt lat="43.461845" lon="11.1210183"><ele>97.0</ele><time>2026-04-25T09:40:15.726Z</time></trkpt><trkpt lat="43.4618033" lon="11.1208833"><ele>97.0</ele><time>2026-04-25T09:40:16.726Z</time></trkpt><trkpt lat="43.461765" lon="11.1207417"><ele>96.75</ele><time>2026-04-25T09:40:17.724Z</time></trkpt><trkpt lat="43.4617317" lon="11.12059"><ele>96.5</ele><time>2026-04-25T09:40:18.726Z</time></trkpt><trkpt lat="43.4616983" lon="11.12043"><ele>96.25</ele><time>2026-04-25T09:40:19.726Z</time></trkpt><trkpt lat="43.4616683" lon="11.120265"><ele>96.0</ele><time>2026-04-25T09:40:20.726Z</time></trkpt><trkpt lat="43.461635" lon="11.1201083"><ele>96.0</ele><time>2026-04-25T09:40:21.724Z</time></trkpt><trkpt lat="43.4616017" lon="11.11995"><ele>96.0</ele><time>2026-04-25T09:40:22.724Z</time></trkpt><trkpt lat="43.4615683" lon="11.1197883"><ele>96.0</ele><time>2026-04-25T09:40:23.723Z</time></trkpt><trkpt lat="43.4615367" lon="11.11962"><ele>96.0</ele><time>2026-04-25T09:40:24.723Z</time></trkpt><trkpt lat="43.461505" lon="11.11945"><ele>96.25</ele><time>2026-04-25T09:40:25.725Z</time></trkpt><trkpt lat="43.4614717" lon="11.1192817"><ele>96.5</ele><time>2026-04-25T09:40:26.724Z</time></trkpt><trkpt lat="43.46144" lon="11.11911"><ele>96.75</ele><time>2026-04-25T09:40:27.723Z</time></trkpt><trkpt lat="43.4614083" lon="11.1189367"><ele>97.0</ele><time>2026-04-25T09:40:28.723Z</time></trkpt><trkpt lat="43.4613767" lon="11.11876"><ele>97.0</ele><time>2026-04-25T09:40:29.723Z</time></trkpt><trkpt lat="43.4613417" lon="11.1185867"><ele>97.0</ele><time>2026-04-25T09:40:30.722Z</time></trkpt><trkpt lat="43.4613083" lon="11.11841"><ele>97.0</ele><time>2026-04-25T09:40:31.723Z</time></trkpt><trkpt lat="43.4612783" lon="11.1182267"><ele>97.0</ele><time>2026-04-25T09:40:32.726Z</time></trkpt><trkpt lat="43.461245" lon="11.1180467"><ele>97.0</ele><time>2026-04-25T09:40:33.726Z</time></trkpt><trkpt lat="43.46121" lon="11.1178517"><ele>97.0</ele><time>2026-04-25T09:40:34.726Z</time></trkpt><trkpt lat="43.4611733" lon="11.1176633"><ele>97.0</ele><time>2026-04-25T09:40:35.726Z</time></trkpt><trkpt lat="43.4611383" lon="11.1174667"><ele>97.0</ele><time>2026-04-25T09:40:36.725Z</time></trkpt><trkpt lat="43.4611017" lon="11.1172817"><ele>97.0</ele><time>2026-04-25T09:40:37.725Z</time></trkpt><trkpt lat="43.461065" lon="11.1170933"><ele>97.0</ele><time>2026-04-25T09:40:38.726Z</time></trkpt><trkpt lat="43.4610267" lon="11.1169083"><ele>97.0</ele><time>2026-04-25T09:40:39.725Z</time></trkpt><trkpt lat="43.4609883" lon="11.1167167"><ele>97.0</ele><time>2026-04-25T09:40:40.724Z</time></trkpt><trkpt lat="43.46095" lon="11.1165183"><ele>97.0</ele><time>2026-04-25T09:40:41.726Z</time></trkpt><trkpt lat="43.46091" lon="11.1163133"><ele>97.0</ele><time>2026-04-25T09:40:42.726Z</time></trkpt><trkpt lat="43.4608683" lon="11.1161167"><ele>97.0</ele><time>2026-04-25T09:40:43.726Z</time></trkpt><trkpt lat="43.4608283" lon="11.1159117"><ele>96.66666666666667</ele><time>2026-04-25T09:40:44.724Z</time></trkpt><trkpt lat="43.46079" lon="11.115705"><ele>96.33333333333334</ele><time>2026-04-25T09:40:45.726Z</time></trkpt><trkpt lat="43.46075" lon="11.1155033"><ele>96.0</ele><time>2026-04-25T09:40:46.726Z</time></trkpt><trkpt lat="43.46071" lon="11.1152983"><ele>96.0</ele><time>2026-04-25T09:40:47.725Z</time></trkpt><trkpt lat="43.4606717" lon="11.1150883"><ele>96.0</ele><time>2026-04-25T09:40:48.725Z</time></trkpt><trkpt lat="43.46063" lon="11.1148767"><ele>96.0</ele><time>2026-04-25T09:40:49.726Z</time></trkpt><trkpt lat="43.46059" lon="11.11466"><ele>96.33333333333334</ele><time>2026-04-25T09:40:50.725Z</time></trkpt><trkpt lat="43.4605483" lon="11.1144383"><ele>96.66666666666667</ele><time>2026-04-25T09:40:51.727Z</time></trkpt><trkpt lat="43.4605067" lon="11.1142183"><ele>97.0</ele><time>2026-04-25T09:40:52.726Z</time></trkpt><trkpt lat="43.460465" lon="11.1139967"><ele>96.66666666666667</ele><time>2026-04-25T09:40:53.726Z</time></trkpt><trkpt lat="43.4604217" lon="11.1137733"><ele>96.33333333333334</ele><time>2026-04-25T09:40:54.725Z</time></trkpt><trkpt lat="43.4603783" lon="11.1135517"><ele>96.0</ele><time>2026-04-25T09:40:55.726Z</time></trkpt><trkpt lat="43.460335" lon="11.113325"><ele>96.66666666666666</ele><time>2026-04-25T09:40:56.725Z</time></trkpt><trkpt lat="43.4602917" lon="11.113105"><ele>97.33333333333333</ele><time>2026-04-25T09:40:57.724Z</time></trkpt><trkpt lat="43.460245" lon="11.1128817"><ele>98.0</ele><time>2026-04-25T09:40:58.724Z</time></trkpt><trkpt lat="43.4602033" lon="11.1126533"><ele>98.0</ele><time>2026-04-25T09:40:59.725Z</time></trkpt><trkpt lat="43.4601633" lon="11.11243"><ele>98.0</ele><time>2026-04-25T09:41:00.725Z</time></trkpt><trkpt lat="43.46012" lon="11.1122067"><ele>98.0</ele><time>2026-04-25T09:41:01.726Z</time></trkpt><trkpt lat="43.4600783" lon="11.1119867"><ele>98.0</ele><time>2026-04-25T09:41:02.725Z</time></trkpt><trkpt lat="43.46004" lon="11.1117817"><ele>98.0</ele><time>2026-04-25T09:41:03.726Z</time></trkpt><trkpt lat="43.4600083" lon="11.1115933"><ele>98.0</ele><time>2026-04-25T09:41:04.726Z</time></trkpt><trkpt lat="43.459975" lon="11.11142"><ele>98.0</ele><time>2026-04-25T09:41:05.726Z</time></trkpt><trkpt lat="43.45995" lon="11.1112567"><ele>98.0</ele><time>2026-04-25T09:41:06.727Z</time></trkpt><trkpt lat="43.459925" lon="11.11111"><ele>98.0</ele><time>2026-04-25T09:41:07.727Z</time></trkpt><trkpt lat="43.459905" lon="11.1109883"><ele>98.0</ele><time>2026-04-25T09:41:08.725Z</time></trkpt><trkpt lat="43.4598867" lon="11.1108917"><ele>98.0</ele><time>2026-04-25T09:41:09.725Z</time></trkpt><trkpt lat="43.45987" lon="11.11073"><ele>98.0</ele><time>2026-04-25T09:41:11.726Z</time></trkpt><trkpt lat="43.459855" lon="11.1105833"><ele>98.0</ele><time>2026-04-25T09:41:13.726Z</time></trkpt><trkpt lat="43.4598383" lon="11.1104433"><ele>98.0</ele><time>2026-04-25T09:41:15.724Z</time></trkpt><trkpt lat="43.4598467" lon="11.11029"><ele>98.0</ele><time>2026-04-25T09:41:17.726Z</time></trkpt><trkpt lat="43.459865" lon="11.1101267"><ele>98.0</ele><time>2026-04-25T09:41:19.726Z</time></trkpt><trkpt lat="43.4598567" lon="11.1100383"><ele>98.0</ele><time>2026-04-25T09:41:20.726Z</time></trkpt><trkpt lat="43.4598317" lon="11.109955"><ele>97.66666666666666</ele><time>2026-04-25T09:41:21.726Z</time></trkpt><trkpt lat="43.4597933" lon="11.1098733"><ele>97.33333333333333</ele><time>2026-04-25T09:41:22.724Z</time></trkpt><trkpt lat="43.4597467" lon="11.1097883"><ele>97.0</ele><time>2026-04-25T09:41:23.725Z</time></trkpt><trkpt lat="43.4596967" lon="11.1096867"><ele>96.66666666666666</ele><time>2026-04-25T09:41:24.724Z</time></trkpt><trkpt lat="43.4596533" lon="11.1095683"><ele>96.33333333333333</ele><time>2026-04-25T09:41:25.725Z</time></trkpt><trkpt lat="43.45962" lon="11.10943"><ele>96.0</ele><time>2026-04-25T09:41:26.725Z</time></trkpt><trkpt lat="43.4595883" lon="11.10928"><ele>96.75</ele><time>2026-04-25T09:41:27.726Z</time></trkpt><trkpt lat="43.4595567" lon="11.1091183"><ele>97.5</ele><time>2026-04-25T09:41:28.726Z</time></trkpt><trkpt lat="43.4595233" lon="11.1089467"><ele>98.25</ele><time>2026-04-25T09:41:29.726Z</time></trkpt><trkpt lat="43.45949" lon="11.108765"><ele>99.0</ele><time>2026-04-25T09:41:30.726Z</time></trkpt><trkpt lat="43.4594483" lon="11.1085683"><ele>99.0</ele><time>2026-04-25T09:41:31.725Z</time></trkpt><trkpt lat="43.4594017" lon="11.1083333"><ele>99.0</ele><time>2026-04-25T09:41:32.725Z</time></trkpt><trkpt lat="43.4593467" lon="11.1080733"><ele>99.0</ele><time>2026-04-25T09:41:33.725Z</time></trkpt><trkpt lat="43.4592933" lon="11.1078"><ele>99.0</ele><time>2026-04-25T09:41:34.726Z</time></trkpt><trkpt lat="43.4592483" lon="11.1075317"><ele>99.0</ele><time>2026-04-25T09:41:35.725Z</time></trkpt><trkpt lat="43.4592083" lon="11.10728"><ele>99.0</ele><time>2026-04-25T09:41:36.727Z</time></trkpt><trkpt lat="43.459165" lon="11.1070333"><ele>98.66666666666666</ele><time>2026-04-25T09:41:37.724Z</time></trkpt><trkpt lat="43.4591233" lon="11.1067833"><ele>98.33333333333333</ele><time>2026-04-25T09:41:38.727Z</time></trkpt><trkpt lat="43.4590933" lon="11.1065267"><ele>98.0</ele><time>2026-04-25T09:41:39.726Z</time></trkpt><trkpt lat="43.4590683" lon="11.1062683"><ele>97.66666666666666</ele><time>2026-04-25T09:41:40.727Z</time></trkpt><trkpt lat="43.459065" lon="11.1059967"><ele>97.33333333333334</ele><time>2026-04-25T09:41:41.726Z</time></trkpt><trkpt lat="43.4590767" lon="11.10572"><ele>97.0</ele><time>2026-04-25T09:41:42.724Z</time></trkpt><trkpt lat="43.4590967" lon="11.1054417"><ele>97.33333333333334</ele><time>2026-04-25T09:41:43.725Z</time></trkpt><trkpt lat="43.4591267" lon="11.1051583"><ele>97.66666666666666</ele><time>2026-04-25T09:41:44.726Z</time></trkpt><trkpt lat="43.4591633" lon="11.1048617"><ele>98.0</ele><time>2026-04-25T09:41:45.724Z</time></trkpt><trkpt lat="43.4591983" lon="11.1045683"><ele>98.0</ele><time>2026-04-25T09:41:46.725Z</time></trkpt><trkpt lat="43.459235" lon="11.1042717"><ele>98.0</ele><time>2026-04-25T09:41:47.726Z</time></trkpt><trkpt lat="43.45927" lon="11.10398"><ele>98.0</ele><time>2026-04-25T09:41:48.725Z</time></trkpt><trkpt lat="43.459305" lon="11.103685"><ele>99.0</ele><time>2026-04-25T09:41:49.726Z</time></trkpt><trkpt lat="43.4593383" lon="11.1033933"><ele>100.0</ele><time>2026-04-25T09:41:50.726Z</time></trkpt><trkpt lat="43.4593717" lon="11.1030983"><ele>101.0</ele><time>2026-04-25T09:41:51.726Z</time></trkpt><trkpt lat="43.4594017" lon="11.1028133"><ele>101.33333333333333</ele><time>2026-04-25T09:41:52.726Z</time></trkpt><trkpt lat="43.4594267" lon="11.102535"><ele>101.66666666666666</ele><time>2026-04-25T09:41:53.725Z</time></trkpt><trkpt lat="43.4594533" lon="11.1022683"><ele>102.0</ele><time>2026-04-25T09:41:54.727Z</time></trkpt><trkpt lat="43.4594783" lon="11.1020117"><ele>102.0</ele><time>2026-04-25T09:41:55.725Z</time></trkpt><trkpt lat="43.4595033" lon="11.1017533"><ele>102.0</ele><time>2026-04-25T09:41:56.726Z</time></trkpt><trkpt lat="43.4595217" lon="11.10149"><ele>102.0</ele><time>2026-04-25T09:41:57.726Z</time></trkpt><trkpt lat="43.459535" lon="11.1012333"><ele>102.33333333333334</ele><time>2026-04-25T09:41:58.726Z</time></trkpt><trkpt lat="43.4595367" lon="11.1009633"><ele>102.66666666666667</ele><time>2026-04-25T09:41:59.725Z</time></trkpt><trkpt lat="43.459525" lon="11.1006883"><ele>103.0</ele><time>2026-04-25T09:42:00.727Z</time></trkpt><trkpt lat="43.4595017" lon="11.1003983"><ele>103.0</ele><time>2026-04-25T09:42:01.727Z</time></trkpt><trkpt lat="43.4594733" lon="11.1001"><ele>103.0</ele><time>2026-04-25T09:42:02.726Z</time></trkpt><trkpt lat="43.4594467" lon="11.099795"><ele>103.0</ele><time>2026-04-25T09:42:03.725Z</time></trkpt><trkpt lat="43.4594267" lon="11.0994833"><ele>103.0</ele><time>2026-04-25T09:42:04.726Z</time></trkpt><trkpt lat="43.459415" lon="11.0991667"><ele>103.0</ele><time>2026-04-25T09:42:05.727Z</time></trkpt><trkpt lat="43.45941" lon="11.0988467"><ele>103.5</ele><time>2026-04-25T09:42:06.726Z</time></trkpt><trkpt lat="43.45941" lon="11.0985233"><ele>104.0</ele><time>2026-04-25T09:42:07.724Z</time></trkpt><trkpt lat="43.4594067" lon="11.098205"><ele>104.5</ele><time>2026-04-25T09:42:08.726Z</time></trkpt><trkpt lat="43.4593983" lon="11.0978867"><ele>105.0</ele><time>2026-04-25T09:42:09.725Z</time></trkpt><trkpt lat="43.4593833" lon="11.097565"><ele>105.5</ele><time>2026-04-25T09:42:10.724Z</time></trkpt><trkpt lat="43.4593617" lon="11.0972417"><ele>106.0</ele><time>2026-04-25T09:42:11.723Z</time></trkpt><trkpt lat="43.4593383" lon="11.0969167"><ele>106.5</ele><time>2026-04-25T09:42:12.728Z</time></trkpt><trkpt lat="43.4593133" lon="11.096585"><ele>107.0</ele><time>2026-04-25T09:42:13.723Z</time></trkpt><trkpt lat="43.459285" lon="11.0962567"><ele>107.0</ele><time>2026-04-25T09:42:14.724Z</time></trkpt><trkpt lat="43.4592567" lon="11.09593"><ele>107.0</ele><time>2026-04-25T09:42:15.722Z</time></trkpt><trkpt lat="43.4592183" lon="11.0956117"><ele>107.0</ele><time>2026-04-25T09:42:16.723Z</time></trkpt><trkpt lat="43.4591817" lon="11.095295"><ele>107.0</ele><time>2026-04-25T09:42:17.724Z</time></trkpt><trkpt lat="43.4591433" lon="11.0949767"><ele>107.0</ele><time>2026-04-25T09:42:18.724Z</time></trkpt><trkpt lat="43.4591033" lon="11.094675"><ele>107.0</ele><time>2026-04-25T09:42:19.723Z</time></trkpt><trkpt lat="43.4590633" lon="11.0944"><ele>107.0</ele><time>2026-04-25T09:42:20.724Z</time></trkpt><trkpt lat="43.4590233" lon="11.09414"><ele>107.66666666666666</ele><time>2026-04-25T09:42:21.724Z</time></trkpt><trkpt lat="43.458985" lon="11.0938967"><ele>108.33333333333334</ele><time>2026-04-25T09:42:22.722Z</time></trkpt><trkpt lat="43.4589433" lon="11.0936633"><ele>109.0</ele><time>2026-04-25T09:42:23.723Z</time></trkpt><trkpt lat="43.458895" lon="11.0934467"><ele>111.0</ele><time>2026-04-25T09:42:24.723Z</time></trkpt><trkpt lat="43.45884" lon="11.0932517"><ele>113.0</ele><time>2026-04-25T09:42:25.725Z</time></trkpt><trkpt lat="43.4587733" lon="11.0930633"><ele>115.0</ele><time>2026-04-25T09:42:26.725Z</time></trkpt><trkpt lat="43.4586983" lon="11.0928817"><ele>115.0</ele><time>2026-04-25T09:42:27.726Z</time></trkpt><trkpt lat="43.45861" lon="11.09271"><ele>115.0</ele><time>2026-04-25T09:42:28.726Z</time></trkpt><trkpt lat="43.4585133" lon="11.0925333"><ele>115.0</ele><time>2026-04-25T09:42:29.726Z</time></trkpt><trkpt lat="43.458405" lon="11.09235"><ele>117.0</ele><time>2026-04-25T09:42:30.726Z</time></trkpt><trkpt lat="43.4582867" lon="11.092145"><ele>119.0</ele><time>2026-04-25T09:42:31.726Z</time></trkpt><trkpt lat="43.4581583" lon="11.0919333"><ele>121.0</ele><time>2026-04-25T09:42:32.724Z</time></trkpt><trkpt lat="43.458025" lon="11.0917067"><ele>118.66666666666667</ele><time>2026-04-25T09:42:33.726Z</time></trkpt><trkpt lat="43.4578783" lon="11.0914767"><ele>116.33333333333334</ele><time>2026-04-25T09:42:34.725Z</time></trkpt><trkpt lat="43.457735" lon="11.091235"><ele>114.0</ele><time>2026-04-25T09:42:35.725Z</time></trkpt><trkpt lat="43.4575883" lon="11.0909767"><ele>115.5</ele><time>2026-04-25T09:42:36.725Z</time></trkpt><trkpt lat="43.4574367" lon="11.0907183"><ele>117.0</ele><time>2026-04-25T09:42:37.726Z</time></trkpt><trkpt lat="43.4572867" lon="11.0904583"><ele>117.0</ele><time>2026-04-25T09:42:38.724Z</time></trkpt><trkpt lat="43.4571383" lon="11.0901983"><ele>117.0</ele><time>2026-04-25T09:42:39.723Z</time></trkpt><trkpt lat="43.4569867" lon="11.08995"><ele>114.0</ele><time>2026-04-25T09:42:40.725Z</time></trkpt><trkpt lat="43.456835" lon="11.0896967"><ele>111.0</ele><time>2026-04-25T09:42:41.724Z</time></trkpt><trkpt lat="43.4566867" lon="11.0894517"><ele>111.0</ele><time>2026-04-25T09:42:42.725Z</time></trkpt><trkpt lat="43.45654" lon="11.0892133"><ele>111.0</ele><time>2026-04-25T09:42:43.725Z</time></trkpt><trkpt lat="43.4563983" lon="11.0889717"><ele>111.33333333333334</ele><time>2026-04-25T09:42:44.725Z</time></trkpt><trkpt lat="43.4562583" lon="11.0887317"><ele>111.66666666666667</ele><time>2026-04-25T09:42:45.724Z</time></trkpt><trkpt lat="43.45612" lon="11.0884917"><ele>112.0</ele><time>2026-04-25T09:42:46.726Z</time></trkpt><trkpt lat="43.45598" lon="11.088255"><ele>113.0</ele><time>2026-04-25T09:42:47.726Z</time></trkpt><trkpt lat="43.4558417" lon="11.0880167"><ele>114.0</ele><time>2026-04-25T09:42:48.726Z</time></trkpt><trkpt lat="43.4557033" lon="11.0877817"><ele>115.0</ele><time>2026-04-25T09:42:49.727Z</time></trkpt><trkpt lat="43.4555583" lon="11.087555"><ele>114.66666666666667</ele><time>2026-04-25T09:42:50.726Z</time></trkpt><trkpt lat="43.45541" lon="11.0873317"><ele>114.33333333333334</ele><time>2026-04-25T09:42:51.725Z</time></trkpt><trkpt lat="43.4552533" lon="11.0871183"><ele>114.0</ele><time>2026-04-25T09:42:52.726Z</time></trkpt><trkpt lat="43.4550967" lon="11.0869067"><ele>114.0</ele><time>2026-04-25T09:42:53.726Z</time></trkpt><trkpt lat="43.454945" lon="11.0866933"><ele>114.0</ele><time>2026-04-25T09:42:54.726Z</time></trkpt><trkpt lat="43.454795" lon="11.0864733"><ele>114.0</ele><time>2026-04-25T09:42:55.726Z</time></trkpt><trkpt lat="43.45464" lon="11.0862567"><ele>114.0</ele><time>2026-04-25T09:42:56.725Z</time></trkpt><trkpt lat="43.4544833" lon="11.0860433"><ele>114.0</ele><time>2026-04-25T09:42:57.726Z</time></trkpt><trkpt lat="43.45433" lon="11.085835"><ele>114.0</ele><time>2026-04-25T09:42:58.726Z</time></trkpt><trkpt lat="43.4541783" lon="11.08563"><ele>114.33333333333334</ele><time>2026-04-25T09:42:59.724Z</time></trkpt><trkpt lat="43.4540317" lon="11.0854283"><ele>114.66666666666667</ele><time>2026-04-25T09:43:00.725Z</time></trkpt><trkpt lat="43.4538867" lon="11.0852333"><ele>115.0</ele><time>2026-04-25T09:43:01.724Z</time></trkpt><trkpt lat="43.4537517" lon="11.08505"><ele>117.33333333333334</ele><time>2026-04-25T09:43:02.725Z</time></trkpt><trkpt lat="43.4536233" lon="11.0848767"><ele>119.66666666666666</ele><time>2026-04-25T09:43:03.726Z</time></trkpt><trkpt lat="43.4535017" lon="11.0847183"><ele>122.0</ele><time>2026-04-25T09:43:04.726Z</time></trkpt><trkpt lat="43.4533917" lon="11.0845683"><ele>122.0</ele><time>2026-04-25T09:43:05.725Z</time></trkpt><trkpt lat="43.4532933" lon="11.08442"><ele>122.0</ele><time>2026-04-25T09:43:06.725Z</time></trkpt><trkpt lat="43.4532083" lon="11.0842717"><ele>122.0</ele><time>2026-04-25T09:43:07.725Z</time></trkpt><trkpt lat="43.4531333" lon="11.0841333"><ele>122.0</ele><time>2026-04-25T09:43:08.726Z</time></trkpt><trkpt lat="43.4530767" lon="11.0840133"><ele>123.19999999999999</ele><time>2026-04-25T09:43:09.725Z</time></trkpt><trkpt lat="43.45304" lon="11.0839117"><ele>124.39999999999999</ele><time>2026-04-25T09:43:10.726Z</time></trkpt><trkpt lat="43.4530133" lon="11.0838217"><ele>125.60000000000001</ele><time>2026-04-25T09:43:11.725Z</time></trkpt><trkpt lat="43.452965" lon="11.0836917"><ele>126.80000000000001</ele><time>2026-04-25T09:43:13.725Z</time></trkpt><trkpt lat="43.4528683" lon="11.0836417"><ele>128.0</ele><time>2026-04-25T09:43:15.723Z</time></trkpt><trkpt lat="43.4527867" lon="11.083735"><ele>123.66666666666666</ele><time>2026-04-25T09:43:17.726Z</time></trkpt><trkpt lat="43.45275" lon="11.083915"><ele>119.33333333333334</ele><time>2026-04-25T09:43:18.727Z</time></trkpt><trkpt lat="43.4527133" lon="11.0841183"><ele>115.0</ele><time>2026-04-25T09:43:19.726Z</time></trkpt><trkpt lat="43.4526733" lon="11.08434"><ele>114.66666666666667</ele><time>2026-04-25T09:43:20.726Z</time></trkpt><trkpt lat="43.4526233" lon="11.0845917"><ele>114.33333333333334</ele><time>2026-04-25T09:43:21.726Z</time></trkpt><trkpt lat="43.4525733" lon="11.084845"><ele>114.0</ele><time>2026-04-25T09:43:22.726Z</time></trkpt><trkpt lat="43.45252" lon="11.0851"><ele>113.66666666666666</ele><time>2026-04-25T09:43:23.725Z</time></trkpt><trkpt lat="43.452465" lon="11.0853633"><ele>113.33333333333333</ele><time>2026-04-25T09:43:24.727Z</time></trkpt><trkpt lat="43.4524117" lon="11.08563"><ele>113.0</ele><time>2026-04-25T09:43:25.727Z</time></trkpt><trkpt lat="43.45235" lon="11.0858983"><ele>112.33333333333333</ele><time>2026-04-25T09:43:26.726Z</time></trkpt><trkpt lat="43.452285" lon="11.086165"><ele>111.66666666666666</ele><time>2026-04-25T09:43:27.724Z</time></trkpt><trkpt lat="43.4522233" lon="11.086435"><ele>111.0</ele><time>2026-04-25T09:43:28.725Z</time></trkpt><trkpt lat="43.4521667" lon="11.0867033"><ele>110.0</ele><time>2026-04-25T09:43:29.725Z</time></trkpt><trkpt lat="43.4521117" lon="11.0869667"><ele>109.0</ele><time>2026-04-25T09:43:30.725Z</time></trkpt><trkpt lat="43.4520583" lon="11.0872283"><ele>108.0</ele><time>2026-04-25T09:43:31.726Z</time></trkpt><trkpt lat="43.452005" lon="11.0874833"><ele>107.66666666666666</ele><time>2026-04-25T09:43:32.725Z</time></trkpt><trkpt lat="43.45195" lon="11.087725"><ele>107.33333333333333</ele><time>2026-04-25T09:43:33.726Z</time></trkpt><trkpt lat="43.451885" lon="11.08796"><ele>107.0</ele><time>2026-04-25T09:43:34.723Z</time></trkpt><trkpt lat="43.4517983" lon="11.0881767"><ele>107.0</ele><time>2026-04-25T09:43:35.726Z</time></trkpt><trkpt lat="43.451685" lon="11.0883733"><ele>107.0</ele><time>2026-04-25T09:43:36.726Z</time></trkpt><trkpt lat="43.45155" lon="11.0885367"><ele>107.0</ele><time>2026-04-25T09:43:37.725Z</time></trkpt><trkpt lat="43.4513883" lon="11.088655"><ele>107.0</ele><time>2026-04-25T09:43:38.726Z</time></trkpt><trkpt lat="43.4512" lon="11.088735"><ele>107.0</ele><time>2026-04-25T09:43:39.726Z</time></trkpt><trkpt lat="43.4509967" lon="11.088795"><ele>107.0</ele><time>2026-04-25T09:43:40.724Z</time></trkpt><trkpt lat="43.4507867" lon="11.0888567"><ele>107.0</ele><time>2026-04-25T09:43:41.726Z</time></trkpt><trkpt lat="43.450575" lon="11.0889233"><ele>107.0</ele><time>2026-04-25T09:43:42.725Z</time></trkpt><trkpt lat="43.450365" lon="11.0889917"><ele>107.0</ele><time>2026-04-25T09:43:43.727Z</time></trkpt><trkpt lat="43.4501583" lon="11.089055"><ele>109.0</ele><time>2026-04-25T09:43:44.725Z</time></trkpt><trkpt lat="43.44995" lon="11.0891267"><ele>111.0</ele><time>2026-04-25T09:43:45.727Z</time></trkpt><trkpt lat="43.4497417" lon="11.0892017"><ele>113.0</ele><time>2026-04-25T09:43:46.725Z</time></trkpt><trkpt lat="43.449535" lon="11.0892683"><ele>114.0</ele><time>2026-04-25T09:43:47.726Z</time></trkpt><trkpt lat="43.4493233" lon="11.0893133"><ele>115.0</ele><time>2026-04-25T09:43:48.726Z</time></trkpt><trkpt lat="43.449105" lon="11.0893267"><ele>116.0</ele><time>2026-04-25T09:43:49.725Z</time></trkpt><trkpt lat="43.448875" lon="11.0893267"><ele>118.5</ele><time>2026-04-25T09:43:50.727Z</time></trkpt><trkpt lat="43.4486417" lon="11.08933"><ele>121.0</ele><time>2026-04-25T09:43:51.726Z</time></trkpt><trkpt lat="43.44841" lon="11.0893417"><ele>121.0</ele><time>2026-04-25T09:43:52.727Z</time></trkpt><trkpt lat="43.4481867" lon="11.089375"><ele>121.0</ele><time>2026-04-25T09:43:53.727Z</time></trkpt><trkpt lat="43.4479833" lon="11.08941"><ele>121.0</ele><time>2026-04-25T09:43:54.727Z</time></trkpt><trkpt lat="43.4477883" lon="11.0894683"><ele>121.66666666666667</ele><time>2026-04-25T09:43:55.726Z</time></trkpt><trkpt lat="43.4476117" lon="11.0895317"><ele>122.33333333333334</ele><time>2026-04-25T09:43:56.727Z</time></trkpt><trkpt lat="43.4474467" lon="11.0895917"><ele>123.0</ele><time>2026-04-25T09:43:57.727Z</time></trkpt><trkpt lat="43.4473017" lon="11.0896683"><ele>123.0</ele><time>2026-04-25T09:43:58.725Z</time></trkpt><trkpt lat="43.4471967" lon="11.0897733"><ele>123.0</ele><time>2026-04-25T09:43:59.726Z</time></trkpt><trkpt lat="43.44712" lon="11.0898983"><ele>123.0</ele><time>2026-04-25T09:44:00.726Z</time></trkpt><trkpt lat="43.4470883" lon="11.090065"><ele>123.0</ele><time>2026-04-25T09:44:01.726Z</time></trkpt><trkpt lat="43.4471617" lon="11.0902533"><ele>126.5</ele><time>2026-04-25T09:44:02.726Z</time></trkpt><trkpt lat="43.4472533" lon="11.0904117"><ele>130.0</ele><time>2026-04-25T09:44:03.725Z</time></trkpt><trkpt lat="43.4473417" lon="11.0905117"><ele>133.5</ele><time>2026-04-25T09:44:04.724Z</time></trkpt><trkpt lat="43.4474733" lon="11.09056"><ele>137.0</ele><time>2026-04-25T09:44:05.724Z</time></trkpt><trkpt lat="43.4475967" lon="11.09054"><ele>137.0</ele><time>2026-04-25T09:44:06.726Z</time></trkpt><trkpt lat="43.4477267" lon="11.0904567"><ele>137.0</ele><time>2026-04-25T09:44:07.726Z</time></trkpt><trkpt lat="43.4478483" lon="11.090315"><ele>137.0</ele><time>2026-04-25T09:44:08.727Z</time></trkpt><trkpt lat="43.44796" lon="11.090155"><ele>138.5</ele><time>2026-04-25T09:44:09.726Z</time></trkpt><trkpt lat="43.4480867" lon="11.0900317"><ele>140.0</ele><time>2026-04-25T09:44:10.726Z</time></trkpt><trkpt lat="43.4482283" lon="11.0899733"><ele>141.5</ele><time>2026-04-25T09:44:11.724Z</time></trkpt><trkpt lat="43.448365" lon="11.0899733"><ele>143.0</ele><time>2026-04-25T09:44:12.725Z</time></trkpt><trkpt lat="43.4484967" lon="11.0900417"><ele>143.0</ele><time>2026-04-25T09:44:13.725Z</time></trkpt><trkpt lat="43.44862" lon="11.09018"><ele>143.0</ele><time>2026-04-25T09:44:14.726Z</time></trkpt><trkpt lat="43.4487367" lon="11.090355"><ele>143.0</ele><time>2026-04-25T09:44:15.725Z</time></trkpt><trkpt lat="43.4488417" lon="11.09053"><ele>140.33333333333331</ele><time>2026-04-25T09:44:16.726Z</time></trkpt><trkpt lat="43.44897" lon="11.0906867"><ele>137.66666666666666</ele><time>2026-04-25T09:44:17.726Z</time></trkpt><trkpt lat="43.4491067" lon="11.0908117"><ele>135.0</ele><time>2026-04-25T09:44:18.726Z</time></trkpt><trkpt lat="43.4492333" lon="11.0909317"><ele>139.25</ele><time>2026-04-25T09:44:19.725Z</time></trkpt><trkpt lat="43.4493333" lon="11.091075"><ele>143.5</ele><time>2026-04-25T09:44:20.727Z</time></trkpt><trkpt lat="43.449405" lon="11.0912367"><ele>147.75</ele><time>2026-04-25T09:44:21.726Z</time></trkpt><trkpt lat="43.4494467" lon="11.0914067"><ele>152.0</ele><time>2026-04-25T09:44:22.725Z</time></trkpt><trkpt lat="43.44945" lon="11.0915867"><ele>154.75</ele><time>2026-04-25T09:44:23.726Z</time></trkpt><trkpt lat="43.449405" lon="11.09175"><ele>157.5</ele><time>2026-04-25T09:44:24.726Z</time></trkpt><trkpt lat="43.4493833" lon="11.0918983"><ele>160.25</ele><time>2026-04-25T09:44:25.724Z</time></trkpt><trkpt lat="43.4493467" lon="11.09204"><ele>163.0</ele><time>2026-04-25T09:44:26.725Z</time></trkpt><trkpt lat="43.4493117" lon="11.09218"><ele>163.0</ele><time>2026-04-25T09:44:27.726Z</time></trkpt><trkpt lat="43.449275" lon="11.0923217"><ele>163.0</ele><time>2026-04-25T09:44:28.725Z</time></trkpt><trkpt lat="43.4492367" lon="11.09246"><ele>163.0</ele><time>2026-04-25T09:44:29.727Z</time></trkpt><trkpt lat="43.449195" lon="11.09259"><ele>163.0</ele><time>2026-04-25T09:44:30.727Z</time></trkpt><trkpt lat="43.4491317" lon="11.0927217"><ele>163.0</ele><time>2026-04-25T09:44:31.727Z</time></trkpt><trkpt lat="43.449045" lon="11.0928383"><ele>163.0</ele><time>2026-04-25T09:44:32.728Z</time></trkpt><trkpt lat="43.4489433" lon="11.09293"><ele>163.0</ele><time>2026-04-25T09:44:33.724Z</time></trkpt><trkpt lat="43.4488283" lon="11.093"><ele>163.0</ele><time>2026-04-25T09:44:34.727Z</time></trkpt><trkpt lat="43.44869" lon="11.0930517"><ele>163.0</ele><time>2026-04-25T09:44:35.726Z</time></trkpt><trkpt lat="43.4485167" lon="11.0930933"><ele>166.33333333333334</ele><time>2026-04-25T09:44:36.727Z</time></trkpt><trkpt lat="43.448325" lon="11.093125"><ele>169.66666666666666</ele><time>2026-04-25T09:44:37.727Z</time></trkpt><trkpt lat="43.4481133" lon="11.0931517"><ele>173.0</ele><time>2026-04-25T09:44:38.727Z</time></trkpt><trkpt lat="43.447915" lon="11.0931833"><ele>173.0</ele><time>2026-04-25T09:44:39.728Z</time></trkpt><trkpt lat="43.4477317" lon="11.0932233"><ele>173.0</ele><time>2026-04-25T09:44:40.726Z</time></trkpt><trkpt lat="43.4475817" lon="11.0932883"><ele>173.0</ele><time>2026-04-25T09:44:41.726Z</time></trkpt><trkpt lat="43.44744" lon="11.0933783"><ele>172.33333333333331</ele><time>2026-04-25T09:44:42.725Z</time></trkpt><trkpt lat="43.4473133" lon="11.09351"><ele>171.66666666666666</ele><time>2026-04-25T09:44:43.725Z</time></trkpt><trkpt lat="43.4471967" lon="11.0936767"><ele>171.0</ele><time>2026-04-25T09:44:44.725Z</time></trkpt><trkpt lat="43.4470617" lon="11.0938367"><ele>172.0</ele><time>2026-04-25T09:44:45.727Z</time></trkpt><trkpt lat="43.446915" lon="11.0939667"><ele>173.0</ele><time>2026-04-25T09:44:46.727Z</time></trkpt><trkpt lat="43.4467633" lon="11.0940767"><ele>174.0</ele><time>2026-04-25T09:44:47.726Z</time></trkpt><trkpt lat="43.4466217" lon="11.0941883"><ele>174.0</ele><time>2026-04-25T09:44:48.726Z</time></trkpt><trkpt lat="43.4465033" lon="11.0943317"><ele>174.0</ele><time>2026-04-25T09:44:49.725Z</time></trkpt><trkpt lat="43.4464067" lon="11.09452"><ele>174.0</ele><time>2026-04-25T09:44:50.728Z</time></trkpt><trkpt lat="43.446325" lon="11.0947333"><ele>176.66666666666666</ele><time>2026-04-25T09:44:51.725Z</time></trkpt><trkpt lat="43.44623" lon="11.0949367"><ele>179.33333333333331</ele><time>2026-04-25T09:44:52.725Z</time></trkpt><trkpt lat="43.4461083" lon="11.09511"><ele>182.0</ele><time>2026-04-25T09:44:53.725Z</time></trkpt><trkpt lat="43.445955" lon="11.09526"><ele>182.0</ele><time>2026-04-25T09:44:54.725Z</time></trkpt><trkpt lat="43.4457933" lon="11.095405"><ele>182.0</ele><time>2026-04-25T09:44:55.725Z</time></trkpt><trkpt lat="43.4456183" lon="11.0955567"><ele>182.0</ele><time>2026-04-25T09:44:56.726Z</time></trkpt><trkpt lat="43.4454267" lon="11.0957167"><ele>184.33333333333331</ele><time>2026-04-25T09:44:57.724Z</time></trkpt><trkpt lat="43.4452333" lon="11.09588"><ele>186.66666666666666</ele><time>2026-04-25T09:44:58.724Z</time></trkpt><trkpt lat="43.4450467" lon="11.09604"><ele>189.0</ele><time>2026-04-25T09:44:59.725Z</time></trkpt><trkpt lat="43.4448667" lon="11.0961917"><ele>189.0</ele><time>2026-04-25T09:45:00.725Z</time></trkpt><trkpt lat="43.4447067" lon="11.09634"><ele>189.0</ele><time>2026-04-25T09:45:01.727Z</time></trkpt><trkpt lat="43.4445583" lon="11.09649"><ele>189.0</ele><time>2026-04-25T09:45:02.725Z</time></trkpt><trkpt lat="43.444435" lon="11.09665"><ele>191.0</ele><time>2026-04-25T09:45:03.726Z</time></trkpt><trkpt lat="43.44434" lon="11.09683"><ele>193.0</ele><time>2026-04-25T09:45:04.726Z</time></trkpt><trkpt lat="43.4442883" lon="11.09703"><ele>195.0</ele><time>2026-04-25T09:45:05.726Z</time></trkpt><trkpt lat="43.44427" lon="11.097245"><ele>195.33333333333331</ele><time>2026-04-25T09:45:06.725Z</time></trkpt><trkpt lat="43.4443" lon="11.0974733"><ele>195.66666666666666</ele><time>2026-04-25T09:45:07.725Z</time></trkpt><trkpt lat="43.4443667" lon="11.0977167"><ele>196.0</ele><time>2026-04-25T09:45:08.725Z</time></trkpt><trkpt lat="43.4444433" lon="11.0979717"><ele>196.0</ele><time>2026-04-25T09:45:09.725Z</time></trkpt><trkpt lat="43.4445383" lon="11.0982417"><ele>196.0</ele><time>2026-04-25T09:45:10.725Z</time></trkpt><trkpt lat="43.4446317" lon="11.0985233"><ele>196.0</ele><time>2026-04-25T09:45:11.727Z</time></trkpt><trkpt lat="43.4447183" lon="11.0987967"><ele>195.66666666666666</ele><time>2026-04-25T09:45:12.726Z</time></trkpt><trkpt lat="43.4447983" lon="11.0990533"><ele>195.33333333333331</ele><time>2026-04-25T09:45:13.725Z</time></trkpt><trkpt lat="43.4448783" lon="11.0992983"><ele>195.0</ele><time>2026-04-25T09:45:14.728Z</time></trkpt><trkpt lat="43.444945" lon="11.0995133"><ele>196.75</ele><time>2026-04-25T09:45:15.724Z</time></trkpt><trkpt lat="43.4449767" lon="11.0997083"><ele>198.5</ele><time>2026-04-25T09:45:16.723Z</time></trkpt><trkpt lat="43.4449683" lon="11.0998933"><ele>200.25</ele><time>2026-04-25T09:45:17.724Z</time></trkpt><trkpt lat="43.4449217" lon="11.1000633"><ele>202.0</ele><time>2026-04-25T09:45:18.726Z</time></trkpt><trkpt lat="43.444835" lon="11.100205"><ele>203.25</ele><time>2026-04-25T09:45:19.725Z</time></trkpt><trkpt lat="43.444725" lon="11.100295"><ele>204.5</ele><time>2026-04-25T09:45:20.724Z</time></trkpt><trkpt lat="43.4445917" lon="11.1003233"><ele>205.75</ele><time>2026-04-25T09:45:21.724Z</time></trkpt><trkpt lat="43.4444483" lon="11.1002783"><ele>207.0</ele><time>2026-04-25T09:45:22.725Z</time></trkpt><trkpt lat="43.4443017" lon="11.100175"><ele>206.33333333333331</ele><time>2026-04-25T09:45:23.726Z</time></trkpt><trkpt lat="43.444155" lon="11.100025"><ele>205.66666666666666</ele><time>2026-04-25T09:45:24.725Z</time></trkpt><trkpt lat="43.4440017" lon="11.09985"><ele>205.0</ele><time>2026-04-25T09:45:25.725Z</time></trkpt><trkpt lat="43.44385" lon="11.0996667"><ele>207.66666666666666</ele><time>2026-04-25T09:45:26.726Z</time></trkpt><trkpt lat="43.4436833" lon="11.0994867"><ele>210.33333333333331</ele><time>2026-04-25T09:45:27.726Z</time></trkpt><trkpt lat="43.4435183" lon="11.099305"><ele>213.0</ele><time>2026-04-25T09:45:28.726Z</time></trkpt><trkpt lat="43.44335" lon="11.09912"><ele>213.33333333333331</ele><time>2026-04-25T09:45:29.726Z</time></trkpt><trkpt lat="43.44318" lon="11.0989367"><ele>213.66666666666666</ele><time>2026-04-25T09:45:30.725Z</time></trkpt><trkpt lat="43.4430117" lon="11.098755"><ele>214.0</ele><time>2026-04-25T09:45:31.725Z</time></trkpt><trkpt lat="43.44285" lon="11.0985617"><ele>214.0</ele><time>2026-04-25T09:45:32.726Z</time></trkpt><trkpt lat="43.4426983" lon="11.0983583"><ele>214.0</ele><time>2026-04-25T09:45:33.725Z</time></trkpt><trkpt lat="43.4425533" lon="11.0981483"><ele>214.0</ele><time>2026-04-25T09:45:34.726Z</time></trkpt><trkpt lat="43.4424133" lon="11.0979283"><ele>215.0</ele><time>2026-04-25T09:45:35.724Z</time></trkpt><trkpt lat="43.4422733" lon="11.0977067"><ele>216.0</ele><time>2026-04-25T09:45:36.726Z</time></trkpt><trkpt lat="43.4421267" lon="11.0974833"><ele>217.0</ele><time>2026-04-25T09:45:37.726Z</time></trkpt><trkpt lat="43.4419833" lon="11.0972733"><ele>218.66666666666666</ele><time>2026-04-25T09:45:38.726Z</time></trkpt><trkpt lat="43.4418283" lon="11.0970917"><ele>220.33333333333331</ele><time>2026-04-25T09:45:39.728Z</time></trkpt><trkpt lat="43.4416533" lon="11.096945"><ele>222.0</ele><time>2026-04-25T09:45:40.726Z</time></trkpt><trkpt lat="43.4414617" lon="11.0968367"><ele>222.0</ele><time>2026-04-25T09:45:41.725Z</time></trkpt><trkpt lat="43.4412633" lon="11.0967367"><ele>222.0</ele><time>2026-04-25T09:45:42.724Z</time></trkpt><trkpt lat="43.441055" lon="11.0966333"><ele>222.0</ele><time>2026-04-25T09:45:43.722Z</time></trkpt><trkpt lat="43.440845" lon="11.096525"><ele>223.0</ele><time>2026-04-25T09:45:44.726Z</time></trkpt><trkpt lat="43.4406367" lon="11.0964017"><ele>224.0</ele><time>2026-04-25T09:45:45.724Z</time></trkpt><trkpt lat="43.4404417" lon="11.0962467"><ele>224.0</ele><time>2026-04-25T09:45:46.724Z</time></trkpt><trkpt lat="43.4402517" lon="11.096065"><ele>224.0</ele><time>2026-04-25T09:45:47.726Z</time></trkpt><trkpt lat="43.44006" lon="11.0958833"><ele>225.0</ele><time>2026-04-25T09:45:48.726Z</time></trkpt><trkpt lat="43.4398667" lon="11.0956983"><ele>226.0</ele><time>2026-04-25T09:45:49.723Z</time></trkpt><trkpt lat="43.439675" lon="11.0955117"><ele>226.5</ele><time>2026-04-25T09:45:50.725Z</time></trkpt><trkpt lat="43.4394817" lon="11.0953233"><ele>227.0</ele><time>2026-04-25T09:45:51.725Z</time></trkpt><trkpt lat="43.4392867" lon="11.0951367"><ele>227.0</ele><time>2026-04-25T09:45:52.726Z</time></trkpt><trkpt lat="43.439095" lon="11.0949633"><ele>227.0</ele><time>2026-04-25T09:45:53.726Z</time></trkpt><trkpt lat="43.4389117" lon="11.0947967"><ele>227.0</ele><time>2026-04-25T09:45:54.724Z</time></trkpt><trkpt lat="43.4387283" lon="11.094635"><ele>227.66666666666669</ele><time>2026-04-25T09:45:55.724Z</time></trkpt><trkpt lat="43.4385367" lon="11.0945083"><ele>228.33333333333331</ele><time>2026-04-25T09:45:56.728Z</time></trkpt><trkpt lat="43.4383267" lon="11.0944267"><ele>229.0</ele><time>2026-04-25T09:45:57.724Z</time></trkpt><trkpt lat="43.43811" lon="11.09437"><ele>229.0</ele><time>2026-04-25T09:45:58.724Z</time></trkpt><trkpt lat="43.43789" lon="11.0943367"><ele>229.0</ele><time>2026-04-25T09:45:59.724Z</time></trkpt><trkpt lat="43.4376683" lon="11.0943117"><ele>229.0</ele><time>2026-04-25T09:46:00.725Z</time></trkpt><trkpt lat="43.4374517" lon="11.0942883"><ele>229.0</ele><time>2026-04-25T09:46:01.724Z</time></trkpt><trkpt lat="43.4372317" lon="11.0942683"><ele>229.0</ele><time>2026-04-25T09:46:02.725Z</time></trkpt><trkpt lat="43.43701" lon="11.0942483"><ele>229.0</ele><time>2026-04-25T09:46:03.726Z</time></trkpt><trkpt lat="43.4367867" lon="11.0942217"><ele>230.0</ele><time>2026-04-25T09:46:04.725Z</time></trkpt><trkpt lat="43.4365583" lon="11.0941933"><ele>231.0</ele><time>2026-04-25T09:46:05.724Z</time></trkpt><trkpt lat="43.43633" lon="11.0941383"><ele>231.5</ele><time>2026-04-25T09:46:06.726Z</time></trkpt><trkpt lat="43.4361017" lon="11.0940583"><ele>232.0</ele><time>2026-04-25T09:46:07.725Z</time></trkpt><trkpt lat="43.4358667" lon="11.093965"><ele>232.0</ele><time>2026-04-25T09:46:08.725Z</time></trkpt><trkpt lat="43.43563" lon="11.0938683"><ele>232.0</ele><time>2026-04-25T09:46:09.723Z</time></trkpt><trkpt lat="43.4354" lon="11.093775"><ele>233.5</ele><time>2026-04-25T09:46:10.726Z</time></trkpt><trkpt lat="43.4351683" lon="11.093685"><ele>235.0</ele><time>2026-04-25T09:46:11.727Z</time></trkpt><trkpt lat="43.43494" lon="11.0935933"><ele>235.0</ele><time>2026-04-25T09:46:12.725Z</time></trkpt><trkpt lat="43.4347083" lon="11.0934867"><ele>235.0</ele><time>2026-04-25T09:46:13.725Z</time></trkpt><trkpt lat="43.4344817" lon="11.0933683"><ele>236.0</ele><time>2026-04-25T09:46:14.725Z</time></trkpt><trkpt lat="43.4342567" lon="11.0932317"><ele>237.0</ele><time>2026-04-25T09:46:15.726Z</time></trkpt><trkpt lat="43.4340333" lon="11.0930883"><ele>237.0</ele><time>2026-04-25T09:46:16.726Z</time></trkpt><trkpt lat="43.4338083" lon="11.0929333"><ele>237.0</ele><time>2026-04-25T09:46:17.726Z</time></trkpt><trkpt lat="43.433585" lon="11.0927717"><ele>238.0</ele><time>2026-04-25T09:46:18.724Z</time></trkpt><trkpt lat="43.4333617" lon="11.09261"><ele>239.0</ele><time>2026-04-25T09:46:19.728Z</time></trkpt><trkpt lat="43.43314" lon="11.092455"><ele>240.0</ele><time>2026-04-25T09:46:20.727Z</time></trkpt><trkpt lat="43.43293" lon="11.0922933"><ele>241.0</ele><time>2026-04-25T09:46:21.726Z</time></trkpt><trkpt lat="43.432735" lon="11.0921217"><ele>241.0</ele><time>2026-04-25T09:46:22.726Z</time></trkpt><trkpt lat="43.4325483" lon="11.091915"><ele>241.0</ele><time>2026-04-25T09:46:23.726Z</time></trkpt><trkpt lat="43.4323733" lon="11.091695"><ele>241.0</ele><time>2026-04-25T09:46:24.726Z</time></trkpt><trkpt lat="43.4321933" lon="11.09148"><ele>241.0</ele><time>2026-04-25T09:46:25.726Z</time></trkpt><trkpt lat="43.4320067" lon="11.09128"><ele>241.5</ele><time>2026-04-25T09:46:26.725Z</time></trkpt><trkpt lat="43.43181" lon="11.0911"><ele>242.0</ele><time>2026-04-25T09:46:27.727Z</time></trkpt><trkpt lat="43.43161" lon="11.0909367"><ele>242.0</ele><time>2026-04-25T09:46:28.725Z</time></trkpt><trkpt lat="43.43141" lon="11.0908017"><ele>242.0</ele><time>2026-04-25T09:46:29.728Z</time></trkpt><trkpt lat="43.43121" lon="11.0907033"><ele>242.0</ele><time>2026-04-25T09:46:30.727Z</time></trkpt><trkpt lat="43.431005" lon="11.0906583"><ele>242.66666666666669</ele><time>2026-04-25T09:46:31.723Z</time></trkpt><trkpt lat="43.4307917" lon="11.0906483"><ele>243.33333333333331</ele><time>2026-04-25T09:46:32.723Z</time></trkpt><trkpt lat="43.4305767" lon="11.090665"><ele>244.0</ele><time>2026-04-25T09:46:33.725Z</time></trkpt><trkpt lat="43.4303583" lon="11.09069"><ele>244.33333333333331</ele><time>2026-04-25T09:46:34.726Z</time></trkpt><trkpt lat="43.4301383" lon="11.0907117"><ele>244.66666666666669</ele><time>2026-04-25T09:46:35.724Z</time></trkpt><trkpt lat="43.4299117" lon="11.0907317"><ele>245.0</ele><time>2026-04-25T09:46:36.725Z</time></trkpt><trkpt lat="43.4296933" lon="11.090745"><ele>244.66666666666669</ele><time>2026-04-25T09:46:37.726Z</time></trkpt><trkpt lat="43.4294717" lon="11.0907617"><ele>244.33333333333331</ele><time>2026-04-25T09:46:38.726Z</time></trkpt><trkpt lat="43.4292567" lon="11.09078"><ele>244.0</ele><time>2026-04-25T09:46:39.726Z</time></trkpt><trkpt lat="43.4290433" lon="11.0907917"><ele>244.0</ele><time>2026-04-25T09:46:40.725Z</time></trkpt><trkpt lat="43.428835" lon="11.090805"><ele>244.0</ele><time>2026-04-25T09:46:41.725Z</time></trkpt><trkpt lat="43.42863" lon="11.0908183"><ele>244.0</ele><time>2026-04-25T09:46:42.724Z</time></trkpt><trkpt lat="43.4284367" lon="11.0908333"><ele>245.0</ele><time>2026-04-25T09:46:43.726Z</time></trkpt><trkpt lat="43.428255" lon="11.0908533"><ele>246.0</ele><time>2026-04-25T09:46:44.726Z</time></trkpt><trkpt lat="43.42809" lon="11.0908817"><ele>247.0</ele><time>2026-04-25T09:46:45.726Z</time></trkpt><trkpt lat="43.4279317" lon="11.09093"><ele>247.25</ele><time>2026-04-25T09:46:46.724Z</time></trkpt><trkpt lat="43.4277867" lon="11.0909867"><ele>247.5</ele><time>2026-04-25T09:46:47.725Z</time></trkpt><trkpt lat="43.42765" lon="11.0910483"><ele>247.75</ele><time>2026-04-25T09:46:48.725Z</time></trkpt><trkpt lat="43.427515" lon="11.0911167"><ele>248.0</ele><time>2026-04-25T09:46:49.726Z</time></trkpt><trkpt lat="43.4273817" lon="11.09118"><ele>248.0</ele><time>2026-04-25T09:46:50.726Z</time></trkpt><trkpt lat="43.4272533" lon="11.09124"><ele>248.0</ele><time>2026-04-25T09:46:51.726Z</time></trkpt><trkpt lat="43.4271283" lon="11.0912983"><ele>248.0</ele><time>2026-04-25T09:46:52.725Z</time></trkpt><trkpt lat="43.4270033" lon="11.091355"><ele>248.0</ele><time>2026-04-25T09:46:53.726Z</time></trkpt><trkpt lat="43.4268883" lon="11.0914017"><ele>248.60000000000002</ele><time>2026-04-25T09:46:54.724Z</time></trkpt><trkpt lat="43.4267883" lon="11.09144"><ele>249.20000000000002</ele><time>2026-04-25T09:46:55.725Z</time></trkpt><trkpt lat="43.4266867" lon="11.0914733"><ele>249.8</ele><time>2026-04-25T09:46:56.726Z</time></trkpt><trkpt lat="43.426595" lon="11.0915"><ele>250.4</ele><time>2026-04-25T09:46:57.725Z</time></trkpt><trkpt lat="43.426515" lon="11.0915167"><ele>251.0</ele><time>2026-04-25T09:46:58.726Z</time></trkpt><trkpt lat="43.4264317" lon="11.0915317"><ele>251.0</ele><time>2026-04-25T09:46:59.726Z</time></trkpt><trkpt lat="43.4263383" lon="11.0915583"><ele>251.00000000000003</ele><time>2026-04-25T09:47:00.728Z</time></trkpt><trkpt lat="43.4262383" lon="11.0916"><ele>251.00000000000003</ele><time>2026-04-25T09:47:01.725Z</time></trkpt><trkpt lat="43.4261333" lon="11.0916517"><ele>251.0</ele><time>2026-04-25T09:47:02.725Z</time></trkpt><trkpt lat="43.4260133" lon="11.0917083"><ele>251.0</ele><time>2026-04-25T09:47:03.724Z</time></trkpt><trkpt lat="43.4258883" lon="11.0917683"><ele>250.25</ele><time>2026-04-25T09:47:04.725Z</time></trkpt><trkpt lat="43.42576" lon="11.0918283"><ele>249.5</ele><time>2026-04-25T09:47:05.724Z</time></trkpt><trkpt lat="43.42562" lon="11.09189"><ele>248.75</ele><time>2026-04-25T09:47:06.725Z</time></trkpt><trkpt lat="43.4254733" lon="11.091955"><ele>248.0</ele><time>2026-04-25T09:47:07.724Z</time></trkpt><trkpt lat="43.4253217" lon="11.0920217"><ele>248.0</ele><time>2026-04-25T09:47:08.725Z</time></trkpt><trkpt lat="43.425165" lon="11.09209"><ele>248.0</ele><time>2026-04-25T09:47:09.725Z</time></trkpt><trkpt lat="43.4250133" lon="11.0921667"><ele>248.0</ele><time>2026-04-25T09:47:10.725Z</time></trkpt><trkpt lat="43.4248533" lon="11.0922417"><ele>248.0</ele><time>2026-04-25T09:47:11.724Z</time></trkpt><trkpt lat="43.4246933" lon="11.0923133"><ele>248.0</ele><time>2026-04-25T09:47:12.725Z</time></trkpt><trkpt lat="43.42453" lon="11.0923883"><ele>248.0</ele><time>2026-04-25T09:47:13.725Z</time></trkpt><trkpt lat="43.4243717" lon="11.0924683"><ele>248.66666666666669</ele><time>2026-04-25T09:47:14.726Z</time></trkpt><trkpt lat="43.424215" lon="11.0925533"><ele>249.33333333333331</ele><time>2026-04-25T09:47:15.725Z</time></trkpt><trkpt lat="43.424065" lon="11.092645"><ele>250.0</ele><time>2026-04-25T09:47:16.726Z</time></trkpt><trkpt lat="43.4239233" lon="11.0927467"><ele>250.0</ele><time>2026-04-25T09:47:17.726Z</time></trkpt><trkpt lat="43.4237833" lon="11.0928483"><ele>250.0</ele><time>2026-04-25T09:47:18.725Z</time></trkpt><trkpt lat="43.423635" lon="11.0929533"><ele>250.0</ele><time>2026-04-25T09:47:19.723Z</time></trkpt><trkpt lat="43.42349" lon="11.0930617"><ele>250.0</ele><time>2026-04-25T09:47:20.725Z</time></trkpt><trkpt lat="43.42334" lon="11.0931683"><ele>250.0</ele><time>2026-04-25T09:47:21.725Z</time></trkpt><trkpt lat="43.4232017" lon="11.0932683"><ele>250.0</ele><time>2026-04-25T09:47:22.725Z</time></trkpt><trkpt lat="43.423075" lon="11.0933717"><ele>249.25</ele><time>2026-04-25T09:47:23.724Z</time></trkpt><trkpt lat="43.4229517" lon="11.0934783"><ele>248.5</ele><time>2026-04-25T09:47:24.725Z</time></trkpt><trkpt lat="43.4228317" lon="11.0935933"><ele>247.75</ele><time>2026-04-25T09:47:25.725Z</time></trkpt><trkpt lat="43.4227117" lon="11.093725"><ele>247.0</ele><time>2026-04-25T09:47:26.724Z</time></trkpt><trkpt lat="43.4225867" lon="11.0938767"><ele>247.0</ele><time>2026-04-25T09:47:27.723Z</time></trkpt><trkpt lat="43.422465" lon="11.0940383"><ele>247.0</ele><time>2026-04-25T09:47:28.725Z</time></trkpt><trkpt lat="43.422335" lon="11.0942133"><ele>247.0</ele><time>2026-04-25T09:47:29.725Z</time></trkpt><trkpt lat="43.422215" lon="11.0943933"><ele>246.33333333333331</ele><time>2026-04-25T09:47:30.725Z</time></trkpt><trkpt lat="43.42209" lon="11.09457"><ele>245.66666666666669</ele><time>2026-04-25T09:47:31.726Z</time></trkpt><trkpt lat="43.42196" lon="11.09474"><ele>245.0</ele><time>2026-04-25T09:47:32.725Z</time></trkpt><trkpt lat="43.4218217" lon="11.0949033"><ele>245.33333333333334</ele><time>2026-04-25T09:47:33.723Z</time></trkpt><trkpt lat="43.4216733" lon="11.09506"><ele>245.66666666666669</ele><time>2026-04-25T09:47:34.726Z</time></trkpt><trkpt lat="43.4215183" lon="11.095205"><ele>246.0</ele><time>2026-04-25T09:47:35.728Z</time></trkpt><trkpt lat="43.4213533" lon="11.0953483"><ele>245.66666666666669</ele><time>2026-04-25T09:47:36.725Z</time></trkpt><trkpt lat="43.4211883" lon="11.0954917"><ele>245.33333333333334</ele><time>2026-04-25T09:47:37.725Z</time></trkpt><trkpt lat="43.4210217" lon="11.0956383"><ele>245.0</ele><time>2026-04-25T09:47:38.726Z</time></trkpt><trkpt lat="43.4208567" lon="11.09579"><ele>244.66666666666669</ele><time>2026-04-25T09:47:39.726Z</time></trkpt><trkpt lat="43.4206933" lon="11.0959383"><ele>244.33333333333331</ele><time>2026-04-25T09:47:40.724Z</time></trkpt><trkpt lat="43.42053" lon="11.0960817"><ele>244.0</ele><time>2026-04-25T09:47:41.725Z</time></trkpt><trkpt lat="43.4203733" lon="11.09622"><ele>243.66666666666666</ele><time>2026-04-25T09:47:42.727Z</time></trkpt><trkpt lat="43.42022" lon="11.0963517"><ele>243.33333333333331</ele><time>2026-04-25T09:47:43.724Z</time></trkpt><trkpt lat="43.4200767" lon="11.0964667"><ele>243.0</ele><time>2026-04-25T09:47:44.726Z</time></trkpt><trkpt lat="43.419935" lon="11.09656"><ele>243.0</ele><time>2026-04-25T09:47:45.723Z</time></trkpt><trkpt lat="43.4198" lon="11.0966317"><ele>243.0</ele><time>2026-04-25T09:47:46.726Z</time></trkpt><trkpt lat="43.4196667" lon="11.0966883"><ele>243.0</ele><time>2026-04-25T09:47:47.725Z</time></trkpt><trkpt lat="43.4195433" lon="11.0967267"><ele>243.0</ele><time>2026-04-25T09:47:48.725Z</time></trkpt><trkpt lat="43.4194317" lon="11.0967367"><ele>242.8</ele><time>2026-04-25T09:47:49.725Z</time></trkpt><trkpt lat="43.4193283" lon="11.0967183"><ele>242.60000000000002</ele><time>2026-04-25T09:47:50.725Z</time></trkpt><trkpt lat="43.41923" lon="11.096675"><ele>242.39999999999998</ele><time>2026-04-25T09:47:51.726Z</time></trkpt><trkpt lat="43.4191367" lon="11.0966017"><ele>242.2</ele><time>2026-04-25T09:47:52.725Z</time></trkpt><trkpt lat="43.41905" lon="11.096495"><ele>242.0</ele><time>2026-04-25T09:47:53.726Z</time></trkpt><trkpt lat="43.4189717" lon="11.0963617"><ele>242.0</ele><time>2026-04-25T09:47:54.727Z</time></trkpt><trkpt lat="43.41891" lon="11.0961933"><ele>242.0</ele><time>2026-04-25T09:47:55.726Z</time></trkpt><trkpt lat="43.418855" lon="11.0959933"><ele>242.0</ele><time>2026-04-25T09:47:56.725Z</time></trkpt><trkpt lat="43.4187983" lon="11.0957633"><ele>240.66666666666669</ele><time>2026-04-25T09:47:57.725Z</time></trkpt><trkpt lat="43.418735" lon="11.0955233"><ele>239.33333333333331</ele><time>2026-04-25T09:47:58.725Z</time></trkpt><trkpt lat="43.4186733" lon="11.0952833"><ele>238.0</ele><time>2026-04-25T09:47:59.726Z</time></trkpt><trkpt lat="43.4186133" lon="11.0950283"><ele>237.33333333333331</ele><time>2026-04-25T09:48:00.727Z</time></trkpt><trkpt lat="43.4185517" lon="11.0947617"><ele>236.66666666666669</ele><time>2026-04-25T09:48:01.724Z</time></trkpt><trkpt lat="43.41849" lon="11.0944883"><ele>236.0</ele><time>2026-04-25T09:48:02.726Z</time></trkpt><trkpt lat="43.41843" lon="11.0942233"><ele>235.66666666666669</ele><time>2026-04-25T09:48:03.724Z</time></trkpt><trkpt lat="43.4183667" lon="11.0939567"><ele>235.33333333333331</ele><time>2026-04-25T09:48:04.725Z</time></trkpt><trkpt lat="43.418305" lon="11.0936717"><ele>235.0</ele><time>2026-04-25T09:48:05.724Z</time></trkpt><trkpt lat="43.4182417" lon="11.0933983"><ele>235.66666666666666</ele><time>2026-04-25T09:48:06.726Z</time></trkpt><trkpt lat="43.4181783" lon="11.0931317"><ele>236.33333333333331</ele><time>2026-04-25T09:48:07.726Z</time></trkpt><trkpt lat="43.4181183" lon="11.0928567"><ele>237.0</ele><time>2026-04-25T09:48:08.725Z</time></trkpt><trkpt lat="43.418055" lon="11.0925817"><ele>237.33333333333331</ele><time>2026-04-25T09:48:09.725Z</time></trkpt><trkpt lat="43.4179917" lon="11.0923117"><ele>237.66666666666666</ele><time>2026-04-25T09:48:10.725Z</time></trkpt><trkpt lat="43.41793" lon="11.0920367"><ele>238.0</ele><time>2026-04-25T09:48:11.726Z</time></trkpt><trkpt lat="43.41787" lon="11.0917567"><ele>238.33333333333331</ele><time>2026-04-25T09:48:12.726Z</time></trkpt><trkpt lat="43.4178067" lon="11.091495"><ele>238.66666666666669</ele><time>2026-04-25T09:48:13.725Z</time></trkpt><trkpt lat="43.417745" lon="11.0912217"><ele>239.0</ele><time>2026-04-25T09:48:14.725Z</time></trkpt><trkpt lat="43.4176817" lon="11.0909567"><ele>239.33333333333334</ele><time>2026-04-25T09:48:15.725Z</time></trkpt><trkpt lat="43.4176217" lon="11.090685"><ele>239.66666666666669</ele><time>2026-04-25T09:48:16.724Z</time></trkpt><trkpt lat="43.4175617" lon="11.090415"><ele>240.0</ele><time>2026-04-25T09:48:17.727Z</time></trkpt><trkpt lat="43.4175" lon="11.0901383"><ele>240.0</ele><time>2026-04-25T09:48:18.726Z</time></trkpt><trkpt lat="43.4174367" lon="11.0898617"><ele>240.0</ele><time>2026-04-25T09:48:19.725Z</time></trkpt><trkpt lat="43.4173717" lon="11.08958"><ele>240.0</ele><time>2026-04-25T09:48:20.727Z</time></trkpt><trkpt lat="43.4173083" lon="11.0892983"><ele>240.33333333333331</ele><time>2026-04-25T09:48:21.725Z</time></trkpt><trkpt lat="43.417245" lon="11.0890083"><ele>240.66666666666666</ele><time>2026-04-25T09:48:22.726Z</time></trkpt><trkpt lat="43.4171817" lon="11.0887217"><ele>241.0</ele><time>2026-04-25T09:48:23.726Z</time></trkpt><trkpt lat="43.41712" lon="11.0884383"><ele>241.33333333333331</ele><time>2026-04-25T09:48:24.724Z</time></trkpt><trkpt lat="43.4170583" lon="11.0881667"><ele>241.66666666666669</ele><time>2026-04-25T09:48:25.725Z</time></trkpt><trkpt lat="43.4169933" lon="11.087895"><ele>242.0</ele><time>2026-04-25T09:48:26.726Z</time></trkpt><trkpt lat="43.4169267" lon="11.0876183"><ele>241.66666666666669</ele><time>2026-04-25T09:48:27.725Z</time></trkpt><trkpt lat="43.4168617" lon="11.0873483"><ele>241.33333333333331</ele><time>2026-04-25T09:48:28.726Z</time></trkpt><trkpt lat="43.416795" lon="11.08708"><ele>241.0</ele><time>2026-04-25T09:48:29.726Z</time></trkpt><trkpt lat="43.41673" lon="11.0868083"><ele>241.66666666666666</ele><time>2026-04-25T09:48:30.726Z</time></trkpt><trkpt lat="43.41667" lon="11.086535"><ele>242.33333333333331</ele><time>2026-04-25T09:48:31.725Z</time></trkpt><trkpt lat="43.4166083" lon="11.086255"><ele>243.0</ele><time>2026-04-25T09:48:32.725Z</time></trkpt><trkpt lat="43.4165467" lon="11.08598"><ele>243.33333333333331</ele><time>2026-04-25T09:48:33.725Z</time></trkpt><trkpt lat="43.4164817" lon="11.08571"><ele>243.66666666666666</ele><time>2026-04-25T09:48:34.725Z</time></trkpt><trkpt lat="43.4164167" lon="11.0854317"><ele>244.0</ele><time>2026-04-25T09:48:35.724Z</time></trkpt><trkpt lat="43.41635" lon="11.0851567"><ele>243.66666666666666</ele><time>2026-04-25T09:48:36.725Z</time></trkpt><trkpt lat="43.4162817" lon="11.084885"><ele>243.33333333333331</ele><time>2026-04-25T09:48:37.726Z</time></trkpt><trkpt lat="43.4162117" lon="11.0846233"><ele>243.0</ele><time>2026-04-25T09:48:38.727Z</time></trkpt><trkpt lat="43.4161367" lon="11.08437"><ele>243.0</ele><time>2026-04-25T09:48:39.724Z</time></trkpt><trkpt lat="43.416065" lon="11.084125"><ele>243.0</ele><time>2026-04-25T09:48:40.724Z</time></trkpt><trkpt lat="43.4159933" lon="11.0838817"><ele>243.0</ele><time>2026-04-25T09:48:41.726Z</time></trkpt><trkpt lat="43.4159233" lon="11.083645"><ele>243.0</ele><time>2026-04-25T09:48:42.725Z</time></trkpt><trkpt lat="43.415855" lon="11.0834133"><ele>243.0</ele><time>2026-04-25T09:48:43.724Z</time></trkpt><trkpt lat="43.4157933" lon="11.0831917"><ele>243.0</ele><time>2026-04-25T09:48:44.727Z</time></trkpt><trkpt lat="43.4157367" lon="11.0829767"><ele>243.0</ele><time>2026-04-25T09:48:45.726Z</time></trkpt><trkpt lat="43.41568" lon="11.0827633"><ele>243.0</ele><time>2026-04-25T09:48:46.725Z</time></trkpt><trkpt lat="43.4156217" lon="11.0825533"><ele>243.0</ele><time>2026-04-25T09:48:47.726Z</time></trkpt><trkpt lat="43.4155633" lon="11.0823467"><ele>243.66666666666669</ele><time>2026-04-25T09:48:48.726Z</time></trkpt><trkpt lat="43.4155033" lon="11.082145"><ele>244.33333333333334</ele><time>2026-04-25T09:48:49.726Z</time></trkpt><trkpt lat="43.4154467" lon="11.0819483"><ele>245.0</ele><time>2026-04-25T09:48:50.725Z</time></trkpt><trkpt lat="43.41539" lon="11.0817683"><ele>245.75</ele><time>2026-04-25T09:48:51.726Z</time></trkpt><trkpt lat="43.4153383" lon="11.0815983"><ele>246.5</ele><time>2026-04-25T09:48:52.727Z</time></trkpt><trkpt lat="43.4152933" lon="11.0814283"><ele>247.25</ele><time>2026-04-25T09:48:53.725Z</time></trkpt><trkpt lat="43.41525" lon="11.0812683"><ele>248.0</ele><time>2026-04-25T09:48:54.727Z</time></trkpt><trkpt lat="43.4152067" lon="11.08111"><ele>248.0</ele><time>2026-04-25T09:48:55.726Z</time></trkpt><trkpt lat="43.4151633" lon="11.0809567"><ele>248.0</ele><time>2026-04-25T09:48:56.726Z</time></trkpt><trkpt lat="43.41512" lon="11.0808117"><ele>248.0</ele><time>2026-04-25T09:48:57.726Z</time></trkpt><trkpt lat="43.4150783" lon="11.0806717"><ele>248.0</ele><time>2026-04-25T09:48:58.726Z</time></trkpt><trkpt lat="43.41504" lon="11.08054"><ele>248.0</ele><time>2026-04-25T09:48:59.726Z</time></trkpt><trkpt lat="43.415" lon="11.0804117"><ele>248.2</ele><time>2026-04-25T09:49:00.727Z</time></trkpt><trkpt lat="43.41496" lon="11.0802767"><ele>248.4</ele><time>2026-04-25T09:49:01.726Z</time></trkpt><trkpt lat="43.4149183" lon="11.0801483"><ele>248.59999999999997</ele><time>2026-04-25T09:49:02.725Z</time></trkpt><trkpt lat="43.4148767" lon="11.0800267"><ele>248.79999999999998</ele><time>2026-04-25T09:49:03.725Z</time></trkpt><trkpt lat="43.4148333" lon="11.07991"><ele>249.0</ele><time>2026-04-25T09:49:04.725Z</time></trkpt><trkpt lat="43.414785" lon="11.0797967"><ele>249.0</ele><time>2026-04-25T09:49:05.723Z</time></trkpt><trkpt lat="43.4147233" lon="11.0796983"><ele>249.0</ele><time>2026-04-25T09:49:06.726Z</time></trkpt><trkpt lat="43.414645" lon="11.0796183"><ele>249.0</ele><time>2026-04-25T09:49:07.726Z</time></trkpt><trkpt lat="43.414565" lon="11.0795733"><ele>249.0</ele><time>2026-04-25T09:49:08.727Z</time></trkpt><trkpt lat="43.4144883" lon="11.0795517"><ele>249.0</ele><time>2026-04-25T09:49:09.727Z</time></trkpt><trkpt lat="43.4144167" lon="11.0795417"><ele>249.0</ele><time>2026-04-25T09:49:10.726Z</time></trkpt><trkpt lat="43.41435" lon="11.0795483"><ele>248.83333333333334</ele><time>2026-04-25T09:49:11.726Z</time></trkpt><trkpt lat="43.4142833" lon="11.0795533"><ele>248.66666666666669</ele><time>2026-04-25T09:49:12.728Z</time></trkpt><trkpt lat="43.414215" lon="11.0795533"><ele>248.5</ele><time>2026-04-25T09:49:13.726Z</time></trkpt><trkpt lat="43.4141417" lon="11.07956"><ele>248.33333333333334</ele><time>2026-04-25T09:49:14.728Z</time></trkpt><trkpt lat="43.4140733" lon="11.07957"><ele>248.16666666666669</ele><time>2026-04-25T09:49:15.726Z</time></trkpt><trkpt lat="43.4139417" lon="11.07953"><ele>248.0</ele><time>2026-04-25T09:49:17.725Z</time></trkpt><trkpt lat="43.41389" lon="11.0794717"><ele>248.0</ele><time>2026-04-25T09:49:18.727Z</time></trkpt><trkpt lat="43.413845" lon="11.0793867"><ele>248.0</ele><time>2026-04-25T09:49:19.725Z</time></trkpt><trkpt lat="43.4138183" lon="11.07925"><ele>248.0</ele><time>2026-04-25T09:49:20.726Z</time></trkpt><trkpt lat="43.41379" lon="11.0791217"><ele>248.0</ele><time>2026-04-25T09:49:21.727Z</time></trkpt><trkpt lat="43.413785" lon="11.0789483"><ele>248.0</ele><time>2026-04-25T09:49:22.726Z</time></trkpt><trkpt lat="43.4137833" lon="11.0787717"><ele>247.0</ele><time>2026-04-25T09:49:23.725Z</time></trkpt><trkpt lat="43.4137783" lon="11.078575"><ele>246.0</ele><time>2026-04-25T09:49:24.726Z</time></trkpt><trkpt lat="43.4137667" lon="11.0784017"><ele>245.0</ele><time>2026-04-25T09:49:25.726Z</time></trkpt><trkpt lat="43.413755" lon="11.0782383"><ele>244.0</ele><time>2026-04-25T09:49:26.728Z</time></trkpt><trkpt lat="43.41374" lon="11.0780783"><ele>243.75</ele><time>2026-04-25T09:49:27.726Z</time></trkpt><trkpt lat="43.4137333" lon="11.0779133"><ele>243.5</ele><time>2026-04-25T09:49:28.725Z</time></trkpt><trkpt lat="43.4137267" lon="11.077755"><ele>243.25</ele><time>2026-04-25T09:49:29.725Z</time></trkpt><trkpt lat="43.4137317" lon="11.077585"><ele>243.0</ele><time>2026-04-25T09:49:30.726Z</time></trkpt><trkpt lat="43.4137417" lon="11.0774117"><ele>243.0</ele><time>2026-04-25T09:49:31.726Z</time></trkpt><trkpt lat="43.4137667" lon="11.0772367"><ele>243.0</ele><time>2026-04-25T09:49:32.727Z</time></trkpt><trkpt lat="43.4138033" lon="11.0770683"><ele>243.0</ele><time>2026-04-25T09:49:33.726Z</time></trkpt><trkpt lat="43.41384" lon="11.0769117"><ele>243.0</ele><time>2026-04-25T09:49:34.726Z</time></trkpt><trkpt lat="43.4138817" lon="11.0767567"><ele>242.25</ele><time>2026-04-25T09:49:35.725Z</time></trkpt><trkpt lat="43.4139283" lon="11.0765983"><ele>241.5</ele><time>2026-04-25T09:49:36.726Z</time></trkpt><trkpt lat="43.4139783" lon="11.07644"><ele>240.75</ele><time>2026-04-25T09:49:37.724Z</time></trkpt><trkpt lat="43.41402" lon="11.0762917"><ele>240.0</ele><time>2026-04-25T09:49:38.725Z</time></trkpt><trkpt lat="43.4140467" lon="11.07615"><ele>240.0</ele><time>2026-04-25T09:49:39.724Z</time></trkpt><trkpt lat="43.4140467" lon="11.0760217"><ele>240.0</ele><time>2026-04-25T09:49:40.724Z</time></trkpt><trkpt lat="43.4140183" lon="11.0759"><ele>240.0</ele><time>2026-04-25T09:49:41.727Z</time></trkpt><trkpt lat="43.41396" lon="11.0757717"><ele>240.0</ele><time>2026-04-25T09:49:42.728Z</time></trkpt><trkpt lat="43.4138983" lon="11.07564"><ele>240.0</ele><time>2026-04-25T09:49:43.727Z</time></trkpt><trkpt lat="43.41385" lon="11.0755017"><ele>239.4</ele><time>2026-04-25T09:49:44.727Z</time></trkpt><trkpt lat="43.4138233" lon="11.075365"><ele>238.8</ele><time>2026-04-25T09:49:45.724Z</time></trkpt><trkpt lat="43.413825" lon="11.0752183"><ele>238.2</ele><time>2026-04-25T09:49:46.726Z</time></trkpt><trkpt lat="43.4138517" lon="11.07508"><ele>237.6</ele><time>2026-04-25T09:49:47.725Z</time></trkpt><trkpt lat="43.4138983" lon="11.0749417"><ele>237.0</ele><time>2026-04-25T09:49:48.724Z</time></trkpt><trkpt lat="43.4139633" lon="11.0748083"><ele>233.75</ele><time>2026-04-25T09:49:49.725Z</time></trkpt><trkpt lat="43.4140467" lon="11.0746817"><ele>230.5</ele><time>2026-04-25T09:49:50.723Z</time></trkpt><trkpt lat="43.4141433" lon="11.0745567"><ele>227.25</ele><time>2026-04-25T09:49:51.724Z</time></trkpt><trkpt lat="43.414245" lon="11.0744417"><ele>224.0</ele><time>2026-04-25T09:49:52.724Z</time></trkpt><trkpt lat="43.4143417" lon="11.0743367"><ele>224.0</ele><time>2026-04-25T09:49:53.726Z</time></trkpt><trkpt lat="43.4144333" lon="11.0742383"><ele>223.99999999999997</ele><time>2026-04-25T09:49:54.725Z</time></trkpt><trkpt lat="43.4145233" lon="11.0741567"><ele>223.99999999999997</ele><time>2026-04-25T09:49:55.725Z</time></trkpt><trkpt lat="43.4146217" lon="11.0741017"><ele>224.0</ele><time>2026-04-25T09:49:56.727Z</time></trkpt><trkpt lat="43.4147133" lon="11.0740683"><ele>224.0</ele><time>2026-04-25T09:49:57.725Z</time></trkpt><trkpt lat="43.414805" lon="11.0740417"><ele>222.66666666666669</ele><time>2026-04-25T09:49:58.726Z</time></trkpt><trkpt lat="43.4148883" lon="11.0740217"><ele>221.33333333333334</ele><time>2026-04-25T09:49:59.726Z</time></trkpt><trkpt lat="43.4149617" lon="11.0740067"><ele>220.0</ele><time>2026-04-25T09:50:00.727Z</time></trkpt><trkpt lat="43.4150633" lon="11.0739467"><ele>218.66666666666669</ele><time>2026-04-25T09:50:02.728Z</time></trkpt><trkpt lat="43.415085" lon="11.0738317"><ele>217.33333333333334</ele><time>2026-04-25T09:50:04.727Z</time></trkpt><trkpt lat="43.4150233" lon="11.0737767"><ele>216.0</ele><time>2026-04-25T09:50:05.724Z</time></trkpt><trkpt lat="43.4149433" lon="11.0737783"><ele>216.0</ele><time>2026-04-25T09:50:06.724Z</time></trkpt><trkpt lat="43.414805" lon="11.0738333"><ele>216.0</ele><time>2026-04-25T09:50:07.726Z</time></trkpt><trkpt lat="43.4146533" lon="11.0739167"><ele>216.0</ele><time>2026-04-25T09:50:08.725Z</time></trkpt><trkpt lat="43.41447" lon="11.074015"><ele>218.66666666666669</ele><time>2026-04-25T09:50:09.724Z</time></trkpt><trkpt lat="43.4142867" lon="11.0741083"><ele>221.33333333333334</ele><time>2026-04-25T09:50:10.724Z</time></trkpt><trkpt lat="43.414105" lon="11.0742167"><ele>224.0</ele><time>2026-04-25T09:50:11.725Z</time></trkpt><trkpt lat="43.4139317" lon="11.0743383"><ele>219.0</ele><time>2026-04-25T09:50:12.726Z</time></trkpt><trkpt lat="43.4137833" lon="11.0744633"><ele>214.0</ele><time>2026-04-25T09:50:13.726Z</time></trkpt><trkpt lat="43.4136583" lon="11.07459"><ele>209.0</ele><time>2026-04-25T09:50:14.726Z</time></trkpt><trkpt lat="43.4135617" lon="11.0747117"><ele>209.0</ele><time>2026-04-25T09:50:15.725Z</time></trkpt><trkpt lat="43.4134783" lon="11.074825"><ele>209.0</ele><time>2026-04-25T09:50:16.726Z</time></trkpt><trkpt lat="43.4134033" lon="11.074915"><ele>209.0</ele><time>2026-04-25T09:50:17.726Z</time></trkpt><trkpt lat="43.413335" lon="11.074945"><ele>209.0</ele><time>2026-04-25T09:50:18.727Z</time></trkpt><trkpt lat="43.41326" lon="11.074905"><ele>209.0</ele><time>2026-04-25T09:50:19.726Z</time></trkpt><trkpt lat="43.413195" lon="11.0747833"><ele>209.0</ele><time>2026-04-25T09:50:20.726Z</time></trkpt><trkpt lat="43.4131267" lon="11.0746317"><ele>209.0</ele><time>2026-04-25T09:50:21.726Z</time></trkpt><trkpt lat="43.4130567" lon="11.0744717"><ele>209.0</ele><time>2026-04-25T09:50:22.724Z</time></trkpt><trkpt lat="43.4129817" lon="11.0743333"><ele>209.0</ele><time>2026-04-25T09:50:23.726Z</time></trkpt><trkpt lat="43.4128883" lon="11.0742267"><ele>208.5</ele><time>2026-04-25T09:50:24.726Z</time></trkpt><trkpt lat="43.4127767" lon="11.07418"><ele>208.0</ele><time>2026-04-25T09:50:25.723Z</time></trkpt><trkpt lat="43.4126483" lon="11.0741967"><ele>207.5</ele><time>2026-04-25T09:50:26.728Z</time></trkpt><trkpt lat="43.4125017" lon="11.0742683"><ele>207.0</ele><time>2026-04-25T09:50:27.725Z</time></trkpt><trkpt lat="43.41237" lon="11.074335"><ele>207.0</ele><time>2026-04-25T09:50:28.724Z</time></trkpt><trkpt lat="43.41225" lon="11.0743867"><ele>207.0</ele><time>2026-04-25T09:50:29.724Z</time></trkpt><trkpt lat="43.4121483" lon="11.0744083"><ele>207.0</ele><time>2026-04-25T09:50:30.724Z</time></trkpt><trkpt lat="43.4120583" lon="11.0744033"><ele>207.0</ele><time>2026-04-25T09:50:31.724Z</time></trkpt><trkpt lat="43.4119783" lon="11.0743733"><ele>207.0</ele><time>2026-04-25T09:50:32.727Z</time></trkpt><trkpt lat="43.4119033" lon="11.074275"><ele>204.5</ele><time>2026-04-25T09:50:34.726Z</time></trkpt><trkpt lat="43.41194" lon="11.07419"><ele>202.0</ele><time>2026-04-25T09:50:35.725Z</time></trkpt><trkpt lat="43.4121017" lon="11.0740483"><ele>199.5</ele><time>2026-04-25T09:50:36.726Z</time></trkpt><trkpt lat="43.4122217" lon="11.073945"><ele>197.0</ele><time>2026-04-25T09:50:37.728Z</time></trkpt><trkpt lat="43.4123333" lon="11.0738333"><ele>196.5</ele><time>2026-04-25T09:50:38.727Z</time></trkpt><trkpt lat="43.412395" lon="11.073705"><ele>196.0</ele><time>2026-04-25T09:50:39.723Z</time></trkpt><trkpt lat="43.4124117" lon="11.0735583"><ele>195.5</ele><time>2026-04-25T09:50:40.725Z</time></trkpt><trkpt lat="43.4123717" lon="11.073415"><ele>195.0</ele><time>2026-04-25T09:50:41.727Z</time></trkpt><trkpt lat="43.4122767" lon="11.073245"><ele>193.33333333333334</ele><time>2026-04-25T09:50:42.726Z</time></trkpt><trkpt lat="43.41216" lon="11.0730417"><ele>191.66666666666669</ele><time>2026-04-25T09:50:43.725Z</time></trkpt><trkpt lat="43.4120517" lon="11.0728117"><ele>190.0</ele><time>2026-04-25T09:50:44.724Z</time></trkpt><trkpt lat="43.4119567" lon="11.0725567"><ele>189.66666666666669</ele><time>2026-04-25T09:50:45.724Z</time></trkpt><trkpt lat="43.411875" lon="11.072285"><ele>189.33333333333334</ele><time>2026-04-25T09:50:46.724Z</time></trkpt><trkpt lat="43.4117967" lon="11.0720117"><ele>189.0</ele><time>2026-04-25T09:50:47.725Z</time></trkpt><trkpt lat="43.4117217" lon="11.0717367"><ele>187.66666666666666</ele><time>2026-04-25T09:50:48.725Z</time></trkpt><trkpt lat="43.4116483" lon="11.0714567"><ele>186.33333333333331</ele><time>2026-04-25T09:50:49.724Z</time></trkpt><trkpt lat="43.411575" lon="11.0711867"><ele>185.0</ele><time>2026-04-25T09:50:50.726Z</time></trkpt><trkpt lat="43.4115017" lon="11.070915"><ele>184.66666666666666</ele><time>2026-04-25T09:50:51.726Z</time></trkpt><trkpt lat="43.4114283" lon="11.0706467"><ele>184.33333333333334</ele><time>2026-04-25T09:50:52.726Z</time></trkpt><trkpt lat="43.41136" lon="11.0703867"><ele>184.0</ele><time>2026-04-25T09:50:53.725Z</time></trkpt><trkpt lat="43.41129" lon="11.0701267"><ele>183.66666666666669</ele><time>2026-04-25T09:50:54.725Z</time></trkpt><trkpt lat="43.41122" lon="11.0698733"><ele>183.33333333333334</ele><time>2026-04-25T09:50:55.725Z</time></trkpt><trkpt lat="43.411145" lon="11.069615"><ele>183.0</ele><time>2026-04-25T09:50:56.726Z</time></trkpt><trkpt lat="43.4110667" lon="11.0693483"><ele>183.0</ele><time>2026-04-25T09:50:57.726Z</time></trkpt><trkpt lat="43.41099" lon="11.06907"><ele>183.0</ele><time>2026-04-25T09:50:58.724Z</time></trkpt><trkpt lat="43.4109183" lon="11.0688"><ele>183.0</ele><time>2026-04-25T09:50:59.724Z</time></trkpt><trkpt lat="43.4108533" lon="11.0685317"><ele>183.33333333333334</ele><time>2026-04-25T09:51:00.725Z</time></trkpt><trkpt lat="43.4107867" lon="11.0682717"><ele>183.66666666666669</ele><time>2026-04-25T09:51:01.726Z</time></trkpt><trkpt lat="43.410725" lon="11.0680367"><ele>184.0</ele><time>2026-04-25T09:51:02.725Z</time></trkpt><trkpt lat="43.41067" lon="11.0678167"><ele>184.0</ele><time>2026-04-25T09:51:03.725Z</time></trkpt><trkpt lat="43.4106233" lon="11.0676117"><ele>184.0</ele><time>2026-04-25T09:51:04.725Z</time></trkpt><trkpt lat="43.4105767" lon="11.067405"><ele>184.0</ele><time>2026-04-25T09:51:05.725Z</time></trkpt><trkpt lat="43.4105167" lon="11.0671733"><ele>184.66666666666669</ele><time>2026-04-25T09:51:06.724Z</time></trkpt><trkpt lat="43.4104417" lon="11.0669117"><ele>185.33333333333334</ele><time>2026-04-25T09:51:07.726Z</time></trkpt><trkpt lat="43.4103683" lon="11.0666267"><ele>186.0</ele><time>2026-04-25T09:51:08.725Z</time></trkpt><trkpt lat="43.4103017" lon="11.0663417"><ele>186.0</ele><time>2026-04-25T09:51:09.724Z</time></trkpt><trkpt lat="43.410245" lon="11.06607"><ele>186.0</ele><time>2026-04-25T09:51:10.725Z</time></trkpt><trkpt lat="43.4102117" lon="11.06582"><ele>186.0</ele><time>2026-04-25T09:51:11.726Z</time></trkpt><trkpt lat="43.4102183" lon="11.0655733"><ele>186.66666666666666</ele><time>2026-04-25T09:51:12.724Z</time></trkpt><trkpt lat="43.4102633" lon="11.0653467"><ele>187.33333333333331</ele><time>2026-04-25T09:51:13.724Z</time></trkpt><trkpt lat="43.410335" lon="11.065155"><ele>188.0</ele><time>2026-04-25T09:51:14.725Z</time></trkpt><trkpt lat="43.4104317" lon="11.065"><ele>191.33333333333331</ele><time>2026-04-25T09:51:15.724Z</time></trkpt><trkpt lat="43.4105483" lon="11.06488"><ele>194.66666666666666</ele><time>2026-04-25T09:51:16.725Z</time></trkpt><trkpt lat="43.4106833" lon="11.0647867"><ele>198.0</ele><time>2026-04-25T09:51:17.726Z</time></trkpt><trkpt lat="43.4108517" lon="11.0647133"><ele>198.0</ele><time>2026-04-25T09:51:18.723Z</time></trkpt><trkpt lat="43.411055" lon="11.064655"><ele>198.0</ele><time>2026-04-25T09:51:19.724Z</time></trkpt><trkpt lat="43.4112917" lon="11.0645967"><ele>198.0</ele><time>2026-04-25T09:51:20.724Z</time></trkpt><trkpt lat="43.4115517" lon="11.0645217"><ele>201.0</ele><time>2026-04-25T09:51:21.725Z</time></trkpt><trkpt lat="43.4118333" lon="11.06443"><ele>204.0</ele><time>2026-04-25T09:51:22.724Z</time></trkpt><trkpt lat="43.4121017" lon="11.0643333"><ele>206.5</ele><time>2026-04-25T09:51:23.725Z</time></trkpt><trkpt lat="43.41235" lon="11.06424"><ele>209.0</ele><time>2026-04-25T09:51:24.724Z</time></trkpt><trkpt lat="43.4125717" lon="11.0641583"><ele>212.66666666666669</ele><time>2026-04-25T09:51:25.725Z</time></trkpt><trkpt lat="43.41277" lon="11.0640867"><ele>216.33333333333331</ele><time>2026-04-25T09:51:26.726Z</time></trkpt><trkpt lat="43.4129367" lon="11.0640233"><ele>220.0</ele><time>2026-04-25T09:51:27.724Z</time></trkpt><trkpt lat="43.4130617" lon="11.063955"><ele>219.99999999999997</ele><time>2026-04-25T09:51:28.724Z</time></trkpt><trkpt lat="43.4131367" lon="11.0638633"><ele>220.0</ele><time>2026-04-25T09:51:29.727Z</time></trkpt><trkpt lat="43.4131767" lon="11.0637667"><ele>220.0</ele><time>2026-04-25T09:51:30.724Z</time></trkpt><trkpt lat="43.4131683" lon="11.0636667"><ele>220.0</ele><time>2026-04-25T09:51:31.726Z</time></trkpt><trkpt lat="43.4131333" lon="11.0635767"><ele>219.99999999999997</ele><time>2026-04-25T09:51:32.725Z</time></trkpt><trkpt lat="43.4130783" lon="11.063475"><ele>220.0</ele><time>2026-04-25T09:51:33.725Z</time></trkpt><trkpt lat="43.41297" lon="11.0633567"><ele>225.5</ele><time>2026-04-25T09:51:34.723Z</time></trkpt><trkpt lat="43.4127483" lon="11.0631683"><ele>231.0</ele><time>2026-04-25T09:51:35.726Z</time></trkpt><trkpt lat="43.4125633" lon="11.0629833"><ele>231.0</ele><time>2026-04-25T09:51:36.726Z</time></trkpt><trkpt lat="43.4123983" lon="11.0627933"><ele>231.0</ele><time>2026-04-25T09:51:37.725Z</time></trkpt><trkpt lat="43.4122517" lon="11.0625833"><ele>231.0</ele><time>2026-04-25T09:51:38.725Z</time></trkpt><trkpt lat="43.4121133" lon="11.0623483"><ele>232.0</ele><time>2026-04-25T09:51:39.726Z</time></trkpt><trkpt lat="43.41201" lon="11.0620733"><ele>233.0</ele><time>2026-04-25T09:51:40.725Z</time></trkpt><trkpt lat="43.4119167" lon="11.0617733"><ele>237.5</ele><time>2026-04-25T09:51:41.724Z</time></trkpt><trkpt lat="43.4118417" lon="11.061475"><ele>242.0</ele><time>2026-04-25T09:51:42.726Z</time></trkpt><trkpt lat="43.411785" lon="11.0611533"><ele>242.0</ele><time>2026-04-25T09:51:43.724Z</time></trkpt><trkpt lat="43.4117517" lon="11.0608183"><ele>242.0</ele><time>2026-04-25T09:51:44.726Z</time></trkpt><trkpt lat="43.41173" lon="11.0604617"><ele>246.0</ele><time>2026-04-25T09:51:45.726Z</time></trkpt><trkpt lat="43.411705" lon="11.060105"><ele>250.0</ele><time>2026-04-25T09:51:46.725Z</time></trkpt><trkpt lat="43.41168" lon="11.0597733"><ele>252.66666666666666</ele><time>2026-04-25T09:51:47.726Z</time></trkpt><trkpt lat="43.4116533" lon="11.0594767"><ele>255.33333333333331</ele><time>2026-04-25T09:51:48.724Z</time></trkpt><trkpt lat="43.41163" lon="11.0592167"><ele>258.0</ele><time>2026-04-25T09:51:49.725Z</time></trkpt><trkpt lat="43.4115967" lon="11.058995"><ele>259.5</ele><time>2026-04-25T09:51:50.727Z</time></trkpt><trkpt lat="43.4115483" lon="11.0588117"><ele>261.0</ele><time>2026-04-25T09:51:51.725Z</time></trkpt><trkpt lat="43.4114617" lon="11.0587"><ele>262.5</ele><time>2026-04-25T09:51:52.727Z</time></trkpt><trkpt lat="43.4113317" lon="11.05864"><ele>264.0</ele><time>2026-04-25T09:51:53.725Z</time></trkpt><trkpt lat="43.4111533" lon="11.0586033"><ele>264.0</ele><time>2026-04-25T09:51:54.725Z</time></trkpt><trkpt lat="43.410955" lon="11.0585167"><ele>264.0</ele><time>2026-04-25T09:51:55.726Z</time></trkpt><trkpt lat="43.410765" lon="11.05841"><ele>264.0</ele><time>2026-04-25T09:51:56.725Z</time></trkpt><trkpt lat="43.4105933" lon="11.05832"><ele>264.6666666666667</ele><time>2026-04-25T09:51:57.725Z</time></trkpt><trkpt lat="43.4104283" lon="11.0582833"><ele>265.33333333333337</ele><time>2026-04-25T09:51:58.725Z</time></trkpt><trkpt lat="43.4102517" lon="11.0583117"><ele>266.0</ele><time>2026-04-25T09:51:59.725Z</time></trkpt><trkpt lat="43.4100817" lon="11.0583533"><ele>266.0</ele><time>2026-04-25T09:52:00.727Z</time></trkpt><trkpt lat="43.4099267" lon="11.0583833"><ele>266.0</ele><time>2026-04-25T09:52:01.727Z</time></trkpt><trkpt lat="43.4097883" lon="11.05837"><ele>266.0</ele><time>2026-04-25T09:52:02.727Z</time></trkpt><trkpt lat="43.4096817" lon="11.0583083"><ele>266.0</ele><time>2026-04-25T09:52:03.724Z</time></trkpt><trkpt lat="43.4096383" lon="11.0582117"><ele>267.8</ele><time>2026-04-25T09:52:04.726Z</time></trkpt><trkpt lat="43.40966" lon="11.0580733"><ele>269.6</ele><time>2026-04-25T09:52:05.723Z</time></trkpt><trkpt lat="43.4097167" lon="11.0579733"><ele>271.4</ele><time>2026-04-25T09:52:06.725Z</time></trkpt><trkpt lat="43.4098167" lon="11.0579067"><ele>273.2</ele><time>2026-04-25T09:52:07.727Z</time></trkpt><trkpt lat="43.40994" lon="11.0578583"><ele>275.0</ele><time>2026-04-25T09:52:08.726Z</time></trkpt><trkpt lat="43.41007" lon="11.057795"><ele>275.0</ele><time>2026-04-25T09:52:09.724Z</time></trkpt><trkpt lat="43.4102033" lon="11.057715"><ele>275.0</ele><time>2026-04-25T09:52:10.727Z</time></trkpt><trkpt lat="43.410315" lon="11.0576283"><ele>275.0</ele><time>2026-04-25T09:52:11.725Z</time></trkpt><trkpt lat="43.41039" lon="11.057535"><ele>275.0</ele><time>2026-04-25T09:52:12.727Z</time></trkpt><trkpt lat="43.41044" lon="11.05744"><ele>276.6666666666667</ele><time>2026-04-25T09:52:13.727Z</time></trkpt><trkpt lat="43.41046" lon="11.0573533"><ele>278.33333333333337</ele><time>2026-04-25T09:52:14.725Z</time></trkpt><trkpt lat="43.41035" lon="11.0572767"><ele>280.0</ele><time>2026-04-25T09:52:16.728Z</time></trkpt><trkpt lat="43.4102833" lon="11.057275"><ele>281.6666666666667</ele><time>2026-04-25T09:52:17.726Z</time></trkpt><trkpt lat="43.4101983" lon="11.057315"><ele>283.3333333333333</ele><time>2026-04-25T09:52:18.727Z</time></trkpt><trkpt lat="43.4101233" lon="11.0573417"><ele>285.0</ele><time>2026-04-25T09:52:19.725Z</time></trkpt><trkpt lat="43.41005" lon="11.0573483"><ele>285.0</ele><time>2026-04-25T09:52:20.725Z</time></trkpt><trkpt lat="43.4099767" lon="11.057325"><ele>285.0</ele><time>2026-04-25T09:52:21.725Z</time></trkpt><trkpt lat="43.4099133" lon="11.0572717"><ele>285.0</ele><time>2026-04-25T09:52:22.728Z</time></trkpt><trkpt lat="43.4098633" lon="11.0571767"><ele>285.0</ele><time>2026-04-25T09:52:23.727Z</time></trkpt><trkpt lat="43.4098333" lon="11.05705"><ele>285.0</ele><time>2026-04-25T09:52:24.726Z</time></trkpt><trkpt lat="43.4098183" lon="11.0569067"><ele>285.0</ele><time>2026-04-25T09:52:25.728Z</time></trkpt><trkpt lat="43.409805" lon="11.0567567"><ele>284.6</ele><time>2026-04-25T09:52:26.726Z</time></trkpt><trkpt lat="43.4097917" lon="11.0566083"><ele>284.2</ele><time>2026-04-25T09:52:27.726Z</time></trkpt><trkpt lat="43.40977" lon="11.056465"><ele>283.8</ele><time>2026-04-25T09:52:28.727Z</time></trkpt><trkpt lat="43.4097283" lon="11.056325"><ele>283.4</ele><time>2026-04-25T09:52:29.726Z</time></trkpt><trkpt lat="43.4096717" lon="11.0561767"><ele>283.0</ele><time>2026-04-25T09:52:30.725Z</time></trkpt><trkpt lat="43.4095983" lon="11.0560317"><ele>283.0</ele><time>2026-04-25T09:52:31.725Z</time></trkpt><trkpt lat="43.4095217" lon="11.05588"><ele>283.0</ele><time>2026-04-25T09:52:32.725Z</time></trkpt><trkpt lat="43.4094367" lon="11.055715"><ele>283.0</ele><time>2026-04-25T09:52:33.726Z</time></trkpt><trkpt lat="43.4093367" lon="11.055545"><ele>283.0</ele><time>2026-04-25T09:52:34.725Z</time></trkpt><trkpt lat="43.4092183" lon="11.0553583"><ele>282.3333333333333</ele><time>2026-04-25T09:52:35.725Z</time></trkpt><trkpt lat="43.409075" lon="11.0551583"><ele>281.6666666666667</ele><time>2026-04-25T09:52:36.726Z</time></trkpt><trkpt lat="43.4089317" lon="11.05495"><ele>281.0</ele><time>2026-04-25T09:52:37.725Z</time></trkpt><trkpt lat="43.4087933" lon="11.0547567"><ele>281.6666666666667</ele><time>2026-04-25T09:52:38.727Z</time></trkpt><trkpt lat="43.408655" lon="11.0545567"><ele>282.3333333333333</ele><time>2026-04-25T09:52:39.727Z</time></trkpt><trkpt lat="43.408525" lon="11.054335"><ele>283.0</ele><time>2026-04-25T09:52:40.726Z</time></trkpt><trkpt lat="43.4084033" lon="11.0540967"><ele>283.0</ele><time>2026-04-25T09:52:41.726Z</time></trkpt><trkpt lat="43.40829" lon="11.0538467"><ele>283.0</ele><time>2026-04-25T09:52:42.726Z</time></trkpt><trkpt lat="43.408185" lon="11.05359"><ele>283.0</ele><time>2026-04-25T09:52:43.726Z</time></trkpt><trkpt lat="43.40808" lon="11.05333"><ele>284.66666666666663</ele><time>2026-04-25T09:52:44.726Z</time></trkpt><trkpt lat="43.4079683" lon="11.0530833"><ele>286.3333333333333</ele><time>2026-04-25T09:52:45.726Z</time></trkpt><trkpt lat="43.407845" lon="11.0528517"><ele>288.0</ele><time>2026-04-25T09:52:46.726Z</time></trkpt><trkpt lat="43.4077017" lon="11.0526333"><ele>288.3333333333333</ele><time>2026-04-25T09:52:47.725Z</time></trkpt><trkpt lat="43.407555" lon="11.052415"><ele>288.66666666666663</ele><time>2026-04-25T09:52:48.726Z</time></trkpt><trkpt lat="43.4074167" lon="11.05218"><ele>289.0</ele><time>2026-04-25T09:52:49.724Z</time></trkpt><trkpt lat="43.4072917" lon="11.0519417"><ele>289.0</ele><time>2026-04-25T09:52:50.725Z</time></trkpt><trkpt lat="43.40717" lon="11.0517083"><ele>289.0</ele><time>2026-04-25T09:52:51.726Z</time></trkpt><trkpt lat="43.4070583" lon="11.0514767"><ele>289.0</ele><time>2026-04-25T09:52:52.726Z</time></trkpt><trkpt lat="43.40695" lon="11.0512633"><ele>291.3333333333333</ele><time>2026-04-25T09:52:53.725Z</time></trkpt><trkpt lat="43.40685" lon="11.05106"><ele>293.6666666666667</ele><time>2026-04-25T09:52:54.726Z</time></trkpt><trkpt lat="43.4067583" lon="11.050855"><ele>296.0</ele><time>2026-04-25T09:52:55.726Z</time></trkpt><trkpt lat="43.4066683" lon="11.0506533"><ele>296.33333333333337</ele><time>2026-04-25T09:52:56.725Z</time></trkpt><trkpt lat="43.40658" lon="11.0504583"><ele>296.6666666666667</ele><time>2026-04-25T09:52:57.726Z</time></trkpt><trkpt lat="43.4065133" lon="11.0502617"><ele>297.0</ele><time>2026-04-25T09:52:58.726Z</time></trkpt><trkpt lat="43.4064583" lon="11.0500683"><ele>296.6666666666667</ele><time>2026-04-25T09:52:59.726Z</time></trkpt><trkpt lat="43.406415" lon="11.049845"><ele>296.33333333333337</ele><time>2026-04-25T09:53:00.723Z</time></trkpt><trkpt lat="43.4063583" lon="11.0496017"><ele>296.0</ele><time>2026-04-25T09:53:01.727Z</time></trkpt><trkpt lat="43.4062717" lon="11.04933"><ele>295.5</ele><time>2026-04-25T09:53:02.727Z</time></trkpt><trkpt lat="43.406165" lon="11.0490367"><ele>295.0</ele><time>2026-04-25T09:53:03.725Z</time></trkpt><trkpt lat="43.4060533" lon="11.0487333"><ele>295.0</ele><time>2026-04-25T09:53:04.726Z</time></trkpt><trkpt lat="43.40595" lon="11.04842"><ele>295.0</ele><time>2026-04-25T09:53:05.726Z</time></trkpt><trkpt lat="43.4058583" lon="11.048105"><ele>295.5</ele><time>2026-04-25T09:53:06.726Z</time></trkpt><trkpt lat="43.405775" lon="11.0477717"><ele>296.0</ele><time>2026-04-25T09:53:07.725Z</time></trkpt><trkpt lat="43.4056933" lon="11.0474483"><ele>297.5</ele><time>2026-04-25T09:53:08.725Z</time></trkpt><trkpt lat="43.4056267" lon="11.0471217"><ele>299.0</ele><time>2026-04-25T09:53:09.725Z</time></trkpt><trkpt lat="43.4055833" lon="11.0468017"><ele>303.0</ele><time>2026-04-25T09:53:10.726Z</time></trkpt><trkpt lat="43.4055733" lon="11.0464783"><ele>307.0</ele><time>2026-04-25T09:53:11.723Z</time></trkpt><trkpt lat="43.4055833" lon="11.046155"><ele>307.0</ele><time>2026-04-25T09:53:12.728Z</time></trkpt><trkpt lat="43.405595" lon="11.0458433"><ele>307.0</ele><time>2026-04-25T09:53:13.725Z</time></trkpt><trkpt lat="43.4055983" lon="11.0455567"><ele>307.0</ele><time>2026-04-25T09:53:14.723Z</time></trkpt><trkpt lat="43.4055933" lon="11.0452967"><ele>307.66666666666663</ele><time>2026-04-25T09:53:15.726Z</time></trkpt><trkpt lat="43.4055733" lon="11.04505"><ele>308.3333333333333</ele><time>2026-04-25T09:53:16.726Z</time></trkpt><trkpt lat="43.4055367" lon="11.04479"><ele>309.0</ele><time>2026-04-25T09:53:17.724Z</time></trkpt><trkpt lat="43.4054817" lon="11.0445183"><ele>307.6666666666667</ele><time>2026-04-25T09:53:18.724Z</time></trkpt><trkpt lat="43.4054083" lon="11.0442367"><ele>306.33333333333337</ele><time>2026-04-25T09:53:19.726Z</time></trkpt><trkpt lat="43.4053233" lon="11.0439467"><ele>305.0</ele><time>2026-04-25T09:53:20.726Z</time></trkpt><trkpt lat="43.405235" lon="11.0436417"><ele>304.0</ele><time>2026-04-25T09:53:21.725Z</time></trkpt><trkpt lat="43.4051483" lon="11.04333"><ele>303.0</ele><time>2026-04-25T09:53:22.725Z</time></trkpt><trkpt lat="43.4050617" lon="11.0430233"><ele>302.0</ele><time>2026-04-25T09:53:23.727Z</time></trkpt><trkpt lat="43.404985" lon="11.0427"><ele>301.0</ele><time>2026-04-25T09:53:24.728Z</time></trkpt><trkpt lat="43.4049183" lon="11.0423683"><ele>299.5</ele><time>2026-04-25T09:53:25.726Z</time></trkpt><trkpt lat="43.4048633" lon="11.04203"><ele>298.0</ele><time>2026-04-25T09:53:26.726Z</time></trkpt><trkpt lat="43.40481" lon="11.0416933"><ele>297.0</ele><time>2026-04-25T09:53:27.726Z</time></trkpt><trkpt lat="43.404755" lon="11.0413483"><ele>296.0</ele><time>2026-04-25T09:53:28.726Z</time></trkpt><trkpt lat="43.4046933" lon="11.04101"><ele>297.0</ele><time>2026-04-25T09:53:29.726Z</time></trkpt><trkpt lat="43.4046217" lon="11.0406767"><ele>298.0</ele><time>2026-04-25T09:53:30.725Z</time></trkpt><trkpt lat="43.40453" lon="11.0403533"><ele>298.0</ele><time>2026-04-25T09:53:31.725Z</time></trkpt><trkpt lat="43.4044183" lon="11.0400417"><ele>298.0</ele><time>2026-04-25T09:53:32.727Z</time></trkpt><trkpt lat="43.4042983" lon="11.0397383"><ele>299.0</ele><time>2026-04-25T09:53:33.725Z</time></trkpt><trkpt lat="43.4041717" lon="11.0394333"><ele>300.0</ele><time>2026-04-25T09:53:34.724Z</time></trkpt><trkpt lat="43.4040433" lon="11.039125"><ele>300.0</ele><time>2026-04-25T09:53:35.726Z</time></trkpt><trkpt lat="43.40392" lon="11.0388117"><ele>300.0</ele><time>2026-04-25T09:53:36.726Z</time></trkpt><trkpt lat="43.4037967" lon="11.0384983"><ele>302.5</ele><time>2026-04-25T09:53:37.727Z</time></trkpt><trkpt lat="43.4036683" lon="11.0381883"><ele>305.0</ele><time>2026-04-25T09:53:38.727Z</time></trkpt><trkpt lat="43.4035383" lon="11.0378833"><ele>305.0</ele><time>2026-04-25T09:53:39.725Z</time></trkpt><trkpt lat="43.4034133" lon="11.037575"><ele>305.0</ele><time>2026-04-25T09:53:40.724Z</time></trkpt><trkpt lat="43.4032917" lon="11.0372817"><ele>304.5</ele><time>2026-04-25T09:53:41.726Z</time></trkpt><trkpt lat="43.4031733" lon="11.0369983"><ele>304.0</ele><time>2026-04-25T09:53:42.726Z</time></trkpt><trkpt lat="43.40306" lon="11.036725"><ele>307.66666666666663</ele><time>2026-04-25T09:53:43.725Z</time></trkpt><trkpt lat="43.40296" lon="11.03645"><ele>311.3333333333333</ele><time>2026-04-25T09:53:44.725Z</time></trkpt><trkpt lat="43.4028817" lon="11.0361717"><ele>315.0</ele><time>2026-04-25T09:53:45.726Z</time></trkpt><trkpt lat="43.4028233" lon="11.0358917"><ele>315.3333333333333</ele><time>2026-04-25T09:53:46.727Z</time></trkpt><trkpt lat="43.402785" lon="11.0356283"><ele>315.66666666666663</ele><time>2026-04-25T09:53:47.726Z</time></trkpt><trkpt lat="43.4027667" lon="11.0353767"><ele>316.0</ele><time>2026-04-25T09:53:48.727Z</time></trkpt><trkpt lat="43.40279" lon="11.0351233"><ele>317.0</ele><time>2026-04-25T09:53:49.726Z</time></trkpt><trkpt lat="43.4028667" lon="11.0348683"><ele>318.0</ele><time>2026-04-25T09:53:50.726Z</time></trkpt><trkpt lat="43.402975" lon="11.0346217"><ele>319.0</ele><time>2026-04-25T09:53:51.726Z</time></trkpt><trkpt lat="43.4030817" lon="11.0343883"><ele>317.66666666666663</ele><time>2026-04-25T09:53:52.728Z</time></trkpt><trkpt lat="43.4031717" lon="11.0341717"><ele>316.3333333333333</ele><time>2026-04-25T09:53:53.726Z</time></trkpt><trkpt lat="43.4032333" lon="11.0339533"><ele>315.0</ele><time>2026-04-25T09:53:54.726Z</time></trkpt><trkpt lat="43.403255" lon="11.0337133"><ele>315.0</ele><time>2026-04-25T09:53:55.726Z</time></trkpt><trkpt lat="43.4032483" lon="11.033455"><ele>315.0</ele><time>2026-04-25T09:53:56.727Z</time></trkpt><trkpt lat="43.4032183" lon="11.033175"><ele>315.0</ele><time>2026-04-25T09:53:57.726Z</time></trkpt><trkpt lat="43.40318" lon="11.0328883"><ele>314.6666666666667</ele><time>2026-04-25T09:53:58.724Z</time></trkpt><trkpt lat="43.4031383" lon="11.032595"><ele>314.33333333333337</ele><time>2026-04-25T09:53:59.725Z</time></trkpt><trkpt lat="43.40308" lon="11.0323033"><ele>314.0</ele><time>2026-04-25T09:54:00.726Z</time></trkpt><trkpt lat="43.4029917" lon="11.0320317"><ele>315.0</ele><time>2026-04-25T09:54:01.726Z</time></trkpt><trkpt lat="43.4028883" lon="11.0317617"><ele>316.0</ele><time>2026-04-25T09:54:02.725Z</time></trkpt><trkpt lat="43.402785" lon="11.0314967"><ele>317.0</ele><time>2026-04-25T09:54:03.724Z</time></trkpt><trkpt lat="43.4026817" lon="11.0312667"><ele>317.0</ele><time>2026-04-25T09:54:04.726Z</time></trkpt><trkpt lat="43.402585" lon="11.0310467"><ele>317.0</ele><time>2026-04-25T09:54:05.726Z</time></trkpt><trkpt lat="43.4025133" lon="11.030815"><ele>317.0</ele><time>2026-04-25T09:54:06.727Z</time></trkpt><trkpt lat="43.40247" lon="11.0305567"><ele>315.6666666666667</ele><time>2026-04-25T09:54:07.726Z</time></trkpt><trkpt lat="43.402445" lon="11.0302783"><ele>314.3333333333333</ele><time>2026-04-25T09:54:08.726Z</time></trkpt><trkpt lat="43.4024267" lon="11.0299733"><ele>313.0</ele><time>2026-04-25T09:54:09.725Z</time></trkpt><trkpt lat="43.4024067" lon="11.0296533"><ele>313.0</ele><time>2026-04-25T09:54:10.725Z</time></trkpt><trkpt lat="43.402385" lon="11.0293367"><ele>313.0</ele><time>2026-04-25T09:54:11.727Z</time></trkpt><trkpt lat="43.4023667" lon="11.0290317"><ele>314.66666666666663</ele><time>2026-04-25T09:54:12.726Z</time></trkpt><trkpt lat="43.4023483" lon="11.028755"><ele>316.3333333333333</ele><time>2026-04-25T09:54:13.725Z</time></trkpt><trkpt lat="43.4023283" lon="11.0285067"><ele>318.0</ele><time>2026-04-25T09:54:14.725Z</time></trkpt><trkpt lat="43.4023117" lon="11.02829"><ele>319.6</ele><time>2026-04-25T09:54:15.728Z</time></trkpt><trkpt lat="43.4022983" lon="11.0281067"><ele>321.20000000000005</ele><time>2026-04-25T09:54:16.723Z</time></trkpt><trkpt lat="43.4023" lon="11.0279567"><ele>322.8</ele><time>2026-04-25T09:54:17.723Z</time></trkpt><trkpt lat="43.402325" lon="11.027835"><ele>324.40000000000003</ele><time>2026-04-25T09:54:18.725Z</time></trkpt><trkpt lat="43.4023817" lon="11.0277383"><ele>326.0</ele><time>2026-04-25T09:54:19.726Z</time></trkpt><trkpt lat="43.4024683" lon="11.0276467"><ele>326.0</ele><time>2026-04-25T09:54:20.727Z</time></trkpt><trkpt lat="43.402595" lon="11.0275833"><ele>326.0</ele><time>2026-04-25T09:54:21.726Z</time></trkpt><trkpt lat="43.40274" lon="11.0275283"><ele>326.0</ele><time>2026-04-25T09:54:22.726Z</time></trkpt><trkpt lat="43.4028767" lon="11.0274433"><ele>326.0</ele><time>2026-04-25T09:54:23.725Z</time></trkpt><trkpt lat="43.4029867" lon="11.0273383"><ele>325.6666666666667</ele><time>2026-04-25T09:54:24.725Z</time></trkpt><trkpt lat="43.4030783" lon="11.0271867"><ele>325.3333333333333</ele><time>2026-04-25T09:54:25.725Z</time></trkpt><trkpt lat="43.4031433" lon="11.026975"><ele>325.0</ele><time>2026-04-25T09:54:26.726Z</time></trkpt><trkpt lat="43.4031833" lon="11.0267467"><ele>325.66666666666663</ele><time>2026-04-25T09:54:27.726Z</time></trkpt><trkpt lat="43.4032083" lon="11.0265133"><ele>326.3333333333333</ele><time>2026-04-25T09:54:28.723Z</time></trkpt><trkpt lat="43.4031083" lon="11.0261733"><ele>327.0</ele><time>2026-04-25T09:54:29.725Z</time></trkpt><trkpt lat="43.4030983" lon="11.0258567"><ele>329.3333333333333</ele><time>2026-04-25T09:54:30.724Z</time></trkpt><trkpt lat="43.4031067" lon="11.025545"><ele>331.66666666666663</ele><time>2026-04-25T09:54:31.725Z</time></trkpt><trkpt lat="43.4031317" lon="11.0252517"><ele>334.0</ele><time>2026-04-25T09:54:32.726Z</time></trkpt><trkpt lat="43.4031833" lon="11.02498"><ele>335.0</ele><time>2026-04-25T09:54:33.725Z</time></trkpt><trkpt lat="43.40327" lon="11.024745"><ele>336.0</ele><time>2026-04-25T09:54:34.726Z</time></trkpt><trkpt lat="43.403395" lon="11.0245517"><ele>337.0</ele><time>2026-04-25T09:54:35.725Z</time></trkpt><trkpt lat="43.4035383" lon="11.0243967"><ele>337.0</ele><time>2026-04-25T09:54:36.725Z</time></trkpt><trkpt lat="43.403705" lon="11.024295"><ele>337.0</ele><time>2026-04-25T09:54:37.726Z</time></trkpt><trkpt lat="43.4039067" lon="11.02422"><ele>337.0</ele><time>2026-04-25T09:54:38.726Z</time></trkpt><trkpt lat="43.4041317" lon="11.0241283"><ele>340.66666666666663</ele><time>2026-04-25T09:54:39.724Z</time></trkpt><trkpt lat="43.4043417" lon="11.0240333"><ele>344.3333333333333</ele><time>2026-04-25T09:54:40.724Z</time></trkpt><trkpt lat="43.404525" lon="11.02393"><ele>348.0</ele><time>2026-04-25T09:54:41.727Z</time></trkpt><trkpt lat="43.4046717" lon="11.0238"><ele>348.0</ele><time>2026-04-25T09:54:42.727Z</time></trkpt><trkpt lat="43.4047933" lon="11.023655"><ele>348.0</ele><time>2026-04-25T09:54:43.726Z</time></trkpt><trkpt lat="43.4048883" lon="11.0234917"><ele>348.0</ele><time>2026-04-25T09:54:44.728Z</time></trkpt><trkpt lat="43.4049383" lon="11.0233"><ele>349.0</ele><time>2026-04-25T09:54:45.723Z</time></trkpt><trkpt lat="43.4049533" lon="11.0230817"><ele>350.0</ele><time>2026-04-25T09:54:46.726Z</time></trkpt><trkpt lat="43.4049367" lon="11.0228417"><ele>351.0</ele><time>2026-04-25T09:54:47.727Z</time></trkpt><trkpt lat="43.4048883" lon="11.0226033"><ele>352.6666666666667</ele><time>2026-04-25T09:54:48.726Z</time></trkpt><trkpt lat="43.4048017" lon="11.02237"><ele>354.33333333333337</ele><time>2026-04-25T09:54:49.726Z</time></trkpt><trkpt lat="43.4046967" lon="11.0221583"><ele>356.0</ele><time>2026-04-25T09:54:50.728Z</time></trkpt><trkpt lat="43.40461" lon="11.02194"><ele>358.33333333333337</ele><time>2026-04-25T09:54:51.725Z</time></trkpt><trkpt lat="43.40455" lon="11.021725"><ele>360.6666666666667</ele><time>2026-04-25T09:54:52.726Z</time></trkpt><trkpt lat="43.4045233" lon="11.0215217"><ele>363.0</ele><time>2026-04-25T09:54:53.726Z</time></trkpt><trkpt lat="43.404535" lon="11.0213267"><ele>364.0</ele><time>2026-04-25T09:54:54.726Z</time></trkpt><trkpt lat="43.404575" lon="11.02116"><ele>365.0</ele><time>2026-04-25T09:54:55.724Z</time></trkpt><trkpt lat="43.4046433" lon="11.0210033"><ele>366.0</ele><time>2026-04-25T09:54:56.728Z</time></trkpt><trkpt lat="43.4047367" lon="11.0208783"><ele>367.0</ele><time>2026-04-25T09:54:57.726Z</time></trkpt><trkpt lat="43.404845" lon="11.0207883"><ele>368.5</ele><time>2026-04-25T09:54:58.728Z</time></trkpt><trkpt lat="43.4049433" lon="11.0207217"><ele>370.0</ele><time>2026-04-25T09:54:59.725Z</time></trkpt><trkpt lat="43.4050167" lon="11.020655"><ele>371.5</ele><time>2026-04-25T09:55:00.726Z</time></trkpt><trkpt lat="43.4050717" lon="11.0205817"><ele>373.0</ele><time>2026-04-25T09:55:01.725Z</time></trkpt><trkpt lat="43.4050533" lon="11.02049"><ele>374.5</ele><time>2026-04-25T09:55:02.727Z</time></trkpt><trkpt lat="43.4050067" lon="11.0204117"><ele>376.0</ele><time>2026-04-25T09:55:03.725Z</time></trkpt><trkpt lat="43.4049417" lon="11.0203533"><ele>376.0</ele><time>2026-04-25T09:55:04.728Z</time></trkpt><trkpt lat="43.404845" lon="11.0203083"><ele>376.0</ele><time>2026-04-25T09:55:05.726Z</time></trkpt><trkpt lat="43.40475" lon="11.02026"><ele>376.0</ele><time>2026-04-25T09:55:06.725Z</time></trkpt><trkpt lat="43.4046617" lon="11.0201983"><ele>376.0</ele><time>2026-04-25T09:55:07.724Z</time></trkpt><trkpt lat="43.404575" lon="11.02011"><ele>376.0</ele><time>2026-04-25T09:55:08.725Z</time></trkpt><trkpt lat="43.4044967" lon="11.0200133"><ele>375.0</ele><time>2026-04-25T09:55:09.724Z</time></trkpt><trkpt lat="43.40443" lon="11.0198917"><ele>374.0</ele><time>2026-04-25T09:55:10.725Z</time></trkpt><trkpt lat="43.40438" lon="11.01975"><ele>373.0</ele><time>2026-04-25T09:55:11.726Z</time></trkpt><trkpt lat="43.4043483" lon="11.0195817"><ele>372.0</ele><time>2026-04-25T09:55:12.726Z</time></trkpt><trkpt lat="43.4043417" lon="11.0193983"><ele>372.0</ele><time>2026-04-25T09:55:13.726Z</time></trkpt><trkpt lat="43.404345" lon="11.01921"><ele>372.0</ele><time>2026-04-25T09:55:14.725Z</time></trkpt><trkpt lat="43.4043517" lon="11.019025"><ele>372.0</ele><time>2026-04-25T09:55:15.726Z</time></trkpt><trkpt lat="43.4043567" lon="11.0188433"><ele>372.0</ele><time>2026-04-25T09:55:16.724Z</time></trkpt><trkpt lat="43.4043633" lon="11.018655"><ele>372.0</ele><time>2026-04-25T09:55:17.727Z</time></trkpt><trkpt lat="43.404375" lon="11.0184683"><ele>372.0</ele><time>2026-04-25T09:55:18.724Z</time></trkpt><trkpt lat="43.404385" lon="11.0182783"><ele>372.0</ele><time>2026-04-25T09:55:19.727Z</time></trkpt><trkpt lat="43.404385" lon="11.0181"><ele>372.0</ele><time>2026-04-25T09:55:20.726Z</time></trkpt><trkpt lat="43.404365" lon="11.017925"><ele>370.5</ele><time>2026-04-25T09:55:21.725Z</time></trkpt><trkpt lat="43.4043317" lon="11.0177517"><ele>369.0</ele><time>2026-04-25T09:55:22.725Z</time></trkpt><trkpt lat="43.4042917" lon="11.0175733"><ele>367.5</ele><time>2026-04-25T09:55:23.725Z</time></trkpt><trkpt lat="43.404225" lon="11.0174083"><ele>366.0</ele><time>2026-04-25T09:55:24.726Z</time></trkpt><trkpt lat="43.4041383" lon="11.0172083"><ele>365.0</ele><time>2026-04-25T09:55:25.722Z</time></trkpt><trkpt lat="43.4040417" lon="11.017"><ele>364.0</ele><time>2026-04-25T09:55:26.726Z</time></trkpt><trkpt lat="43.4039433" lon="11.0167883"><ele>363.0</ele><time>2026-04-25T09:55:27.725Z</time></trkpt><trkpt lat="43.4038467" lon="11.0165633"><ele>360.6666666666667</ele><time>2026-04-25T09:55:28.726Z</time></trkpt><trkpt lat="43.4037483" lon="11.0163333"><ele>358.33333333333337</ele><time>2026-04-25T09:55:29.725Z</time></trkpt><trkpt lat="43.4036533" lon="11.01609"><ele>356.0</ele><time>2026-04-25T09:55:30.726Z</time></trkpt><trkpt lat="43.40358" lon="11.015825"><ele>357.33333333333337</ele><time>2026-04-25T09:55:31.723Z</time></trkpt><trkpt lat="43.4035233" lon="11.0155567"><ele>358.6666666666667</ele><time>2026-04-25T09:55:32.725Z</time></trkpt><trkpt lat="43.4034917" lon="11.0152983"><ele>360.0</ele><time>2026-04-25T09:55:33.724Z</time></trkpt><trkpt lat="43.403495" lon="11.0150483"><ele>361.0</ele><time>2026-04-25T09:55:34.724Z</time></trkpt><trkpt lat="43.403535" lon="11.0148017"><ele>362.0</ele><time>2026-04-25T09:55:35.725Z</time></trkpt><trkpt lat="43.4036" lon="11.0145833"><ele>363.0</ele><time>2026-04-25T09:55:36.724Z</time></trkpt><trkpt lat="43.4036833" lon="11.01435"><ele>364.3333333333333</ele><time>2026-04-25T09:55:37.726Z</time></trkpt><trkpt lat="43.4037733" lon="11.0141167"><ele>365.66666666666663</ele><time>2026-04-25T09:55:38.726Z</time></trkpt><trkpt lat="43.4038667" lon="11.0138967"><ele>367.0</ele><time>2026-04-25T09:55:39.726Z</time></trkpt><trkpt lat="43.4039683" lon="11.0137183"><ele>369.66666666666663</ele><time>2026-04-25T09:55:40.725Z</time></trkpt><trkpt lat="43.4040983" lon="11.0135883"><ele>372.3333333333333</ele><time>2026-04-25T09:55:41.727Z</time></trkpt><trkpt lat="43.4042517" lon="11.0135167"><ele>375.0</ele><time>2026-04-25T09:55:42.725Z</time></trkpt><trkpt lat="43.4044017" lon="11.0134683"><ele>375.0</ele><time>2026-04-25T09:55:43.726Z</time></trkpt><trkpt lat="43.4045283" lon="11.0134117"><ele>375.0</ele><time>2026-04-25T09:55:44.726Z</time></trkpt><trkpt lat="43.404635" lon="11.01333"><ele>375.0</ele><time>2026-04-25T09:55:45.724Z</time></trkpt><trkpt lat="43.4046967" lon="11.013225"><ele>375.0</ele><time>2026-04-25T09:55:46.725Z</time></trkpt><trkpt lat="43.4047117" lon="11.0130833"><ele>376.6666666666667</ele><time>2026-04-25T09:55:47.726Z</time></trkpt><trkpt lat="43.4046667" lon="11.012925"><ele>378.33333333333337</ele><time>2026-04-25T09:55:48.724Z</time></trkpt><trkpt lat="43.40458" lon="11.012745"><ele>380.0</ele><time>2026-04-25T09:55:49.727Z</time></trkpt><trkpt lat="43.4044783" lon="11.012535"><ele>381.33333333333337</ele><time>2026-04-25T09:55:50.725Z</time></trkpt><trkpt lat="43.4043833" lon="11.0123083"><ele>382.6666666666667</ele><time>2026-04-25T09:55:51.725Z</time></trkpt><trkpt lat="43.4043133" lon="11.0120583"><ele>384.0</ele><time>2026-04-25T09:55:52.724Z</time></trkpt><trkpt lat="43.4042767" lon="11.0117883"><ele>384.0</ele><time>2026-04-25T09:55:53.726Z</time></trkpt><trkpt lat="43.4042517" lon="11.0115233"><ele>384.0</ele><time>2026-04-25T09:55:54.726Z</time></trkpt><trkpt lat="43.40424" lon="11.0112683"><ele>384.0</ele><time>2026-04-25T09:55:55.724Z</time></trkpt><trkpt lat="43.404255" lon="11.0110183"><ele>383.0</ele><time>2026-04-25T09:55:56.724Z</time></trkpt><trkpt lat="43.4042967" lon="11.01077"><ele>382.0</ele><time>2026-04-25T09:55:57.725Z</time></trkpt><trkpt lat="43.4043483" lon="11.0105333"><ele>381.0</ele><time>2026-04-25T09:55:58.723Z</time></trkpt><trkpt lat="43.40438" lon="11.0103083"><ele>381.0</ele><time>2026-04-25T09:55:59.727Z</time></trkpt><trkpt lat="43.4043733" lon="11.0100767"><ele>381.0</ele><time>2026-04-25T09:56:00.724Z</time></trkpt><trkpt lat="43.4043283" lon="11.00981"><ele>381.0</ele><time>2026-04-25T09:56:01.724Z</time></trkpt><trkpt lat="43.4042617" lon="11.009525"><ele>379.5</ele><time>2026-04-25T09:56:02.725Z</time></trkpt><trkpt lat="43.404195" lon="11.0092183"><ele>378.0</ele><time>2026-04-25T09:56:03.725Z</time></trkpt><trkpt lat="43.4041267" lon="11.0089017"><ele>378.0</ele><time>2026-04-25T09:56:04.725Z</time></trkpt><trkpt lat="43.40405" lon="11.0085783"><ele>378.0</ele><time>2026-04-25T09:56:05.723Z</time></trkpt><trkpt lat="43.4039667" lon="11.0082583"><ele>377.0</ele><time>2026-04-25T09:56:06.724Z</time></trkpt><trkpt lat="43.403875" lon="11.00795"><ele>376.0</ele><time>2026-04-25T09:56:07.724Z</time></trkpt><trkpt lat="43.4037783" lon="11.0076417"><ele>376.5</ele><time>2026-04-25T09:56:08.726Z</time></trkpt><trkpt lat="43.4036767" lon="11.0073333"><ele>377.0</ele><time>2026-04-25T09:56:09.724Z</time></trkpt><trkpt lat="43.4035783" lon="11.007025"><ele>377.0</ele><time>2026-04-25T09:56:10.726Z</time></trkpt><trkpt lat="43.4034883" lon="11.0067233"><ele>377.0</ele><time>2026-04-25T09:56:11.726Z</time></trkpt><trkpt lat="43.403395" lon="11.0064183"><ele>376.0</ele><time>2026-04-25T09:56:12.726Z</time></trkpt><trkpt lat="43.4033" lon="11.0061167"><ele>375.0</ele><time>2026-04-25T09:56:13.726Z</time></trkpt><trkpt lat="43.4031983" lon="11.0058267"><ele>375.0</ele><time>2026-04-25T09:56:14.725Z</time></trkpt><trkpt lat="43.4030817" lon="11.005545"><ele>375.0</ele><time>2026-04-25T09:56:15.724Z</time></trkpt><trkpt lat="43.4029467" lon="11.005295"><ele>375.0</ele><time>2026-04-25T09:56:16.725Z</time></trkpt><trkpt lat="43.402815" lon="11.00506"><ele>375.0</ele><time>2026-04-25T09:56:17.723Z</time></trkpt><trkpt lat="43.4026933" lon="11.0048333"><ele>375.0</ele><time>2026-04-25T09:56:18.725Z</time></trkpt><trkpt lat="43.4025883" lon="11.0045967"><ele>375.6666666666667</ele><time>2026-04-25T09:56:19.723Z</time></trkpt><trkpt lat="43.4025133" lon="11.00433"><ele>376.33333333333337</ele><time>2026-04-25T09:56:20.726Z</time></trkpt><trkpt lat="43.40246" lon="11.004045"><ele>377.0</ele><time>2026-04-25T09:56:21.726Z</time></trkpt><trkpt lat="43.40239" lon="11.0037617"><ele>378.33333333333337</ele><time>2026-04-25T09:56:22.726Z</time></trkpt><trkpt lat="43.4023017" lon="11.0035"><ele>379.6666666666667</ele><time>2026-04-25T09:56:23.724Z</time></trkpt><trkpt lat="43.4022183" lon="11.0032633"><ele>381.0</ele><time>2026-04-25T09:56:24.726Z</time></trkpt><trkpt lat="43.40213" lon="11.00306"><ele>384.0</ele><time>2026-04-25T09:56:25.725Z</time></trkpt><trkpt lat="43.4020283" lon="11.0028933"><ele>387.0</ele><time>2026-04-25T09:56:26.727Z</time></trkpt><trkpt lat="43.4019133" lon="11.0027783"><ele>390.0</ele><time>2026-04-25T09:56:27.726Z</time></trkpt><trkpt lat="43.4017667" lon="11.0027483"><ele>393.0</ele><time>2026-04-25T09:56:28.727Z</time></trkpt><trkpt lat="43.401615" lon="11.0027433"><ele>393.0</ele><time>2026-04-25T09:56:29.726Z</time></trkpt><trkpt lat="43.4014817" lon="11.0027217"><ele>393.0</ele><time>2026-04-25T09:56:30.725Z</time></trkpt><trkpt lat="43.4013767" lon="11.002665"><ele>393.0</ele><time>2026-04-25T09:56:31.724Z</time></trkpt><trkpt lat="43.40131" lon="11.002575"><ele>393.0</ele><time>2026-04-25T09:56:32.726Z</time></trkpt><trkpt lat="43.401295" lon="11.0024533"><ele>393.0</ele><time>2026-04-25T09:56:33.724Z</time></trkpt><trkpt lat="43.40133" lon="11.0023283"><ele>396.25</ele><time>2026-04-25T09:56:34.726Z</time></trkpt><trkpt lat="43.4014083" lon="11.0021867"><ele>399.5</ele><time>2026-04-25T09:56:35.723Z</time></trkpt><trkpt lat="43.4014983" lon="11.0020667"><ele>402.75</ele><time>2026-04-25T09:56:36.726Z</time></trkpt><trkpt lat="43.401605" lon="11.00196"><ele>406.0</ele><time>2026-04-25T09:56:37.725Z</time></trkpt><trkpt lat="43.401705" lon="11.0018817"><ele>406.0</ele><time>2026-04-25T09:56:38.725Z</time></trkpt><trkpt lat="43.4017933" lon="11.0018383"><ele>406.0</ele><time>2026-04-25T09:56:39.724Z</time></trkpt><trkpt lat="43.40189" lon="11.0018217"><ele>406.0</ele><time>2026-04-25T09:56:40.725Z</time></trkpt><trkpt lat="43.4019883" lon="11.00182"><ele>406.0</ele><time>2026-04-25T09:56:41.726Z</time></trkpt><trkpt lat="43.4020883" lon="11.0018583"><ele>406.0</ele><time>2026-04-25T09:56:42.724Z</time></trkpt><trkpt lat="43.40218" lon="11.0018917"><ele>405.1666666666667</ele><time>2026-04-25T09:56:43.723Z</time></trkpt><trkpt lat="43.4022567" lon="11.0019167"><ele>404.33333333333337</ele><time>2026-04-25T09:56:44.727Z</time></trkpt><trkpt lat="43.402345" lon="11.0019483"><ele>403.5</ele><time>2026-04-25T09:56:45.724Z</time></trkpt><trkpt lat="43.402435" lon="11.001935"><ele>402.66666666666663</ele><time>2026-04-25T09:56:46.724Z</time></trkpt><trkpt lat="43.4025183" lon="11.0018883"><ele>401.8333333333333</ele><time>2026-04-25T09:56:47.726Z</time></trkpt><trkpt lat="43.4025967" lon="11.001845"><ele>401.0</ele><time>2026-04-25T09:56:48.726Z</time></trkpt><trkpt lat="43.4026433" lon="11.0017267"><ele>402.8</ele><time>2026-04-25T09:56:49.726Z</time></trkpt><trkpt lat="43.4026717" lon="11.00159"><ele>404.6</ele><time>2026-04-25T09:56:50.726Z</time></trkpt><trkpt lat="43.40269" lon="11.0014517"><ele>406.4</ele><time>2026-04-25T09:56:51.726Z</time></trkpt><trkpt lat="43.4027083" lon="11.0013133"><ele>408.2</ele><time>2026-04-25T09:56:52.725Z</time></trkpt><trkpt lat="43.4027317" lon="11.00119"><ele>410.0</ele><time>2026-04-25T09:56:53.723Z</time></trkpt><trkpt lat="43.4027517" lon="11.0010667"><ele>410.0</ele><time>2026-04-25T09:56:54.725Z</time></trkpt><trkpt lat="43.4027683" lon="11.0009283"><ele>410.0</ele><time>2026-04-25T09:56:55.726Z</time></trkpt><trkpt lat="43.4027883" lon="11.0007883"><ele>410.0</ele><time>2026-04-25T09:56:56.726Z</time></trkpt><trkpt lat="43.402805" lon="11.0006633"><ele>410.0</ele><time>2026-04-25T09:56:57.724Z</time></trkpt><trkpt lat="43.4028183" lon="11.000545"><ele>410.0</ele><time>2026-04-25T09:56:58.726Z</time></trkpt><trkpt lat="43.4028367" lon="11.0004233"><ele>411.2</ele><time>2026-04-25T09:56:59.727Z</time></trkpt><trkpt lat="43.402845" lon="11.0002967"><ele>412.4</ele><time>2026-04-25T09:57:00.725Z</time></trkpt><trkpt lat="43.4028267" lon="11.0001833"><ele>413.6</ele><time>2026-04-25T09:57:01.723Z</time></trkpt><trkpt lat="43.4027433" lon="11.00007"><ele>414.8</ele><time>2026-04-25T09:57:02.725Z</time></trkpt><trkpt lat="43.4026433" lon="10.9999483"><ele>416.0</ele><time>2026-04-25T09:57:03.725Z</time></trkpt><trkpt lat="43.4025117" lon="10.9997917"><ele>416.0</ele><time>2026-04-25T09:57:04.727Z</time></trkpt><trkpt lat="43.402365" lon="10.99962"><ele>416.0</ele><time>2026-04-25T09:57:05.726Z</time></trkpt><trkpt lat="43.402195" lon="10.9993867"><ele>416.0</ele><time>2026-04-25T09:57:06.726Z</time></trkpt><trkpt lat="43.402025" lon="10.9991583"><ele>420.0</ele><time>2026-04-25T09:57:07.726Z</time></trkpt><trkpt lat="43.401855" lon="10.99895"><ele>424.0</ele><time>2026-04-25T09:57:08.725Z</time></trkpt><trkpt lat="43.401695" lon="10.9987667"><ele>428.0</ele><time>2026-04-25T09:57:09.726Z</time></trkpt><trkpt lat="43.4015583" lon="10.998595"><ele>428.0</ele><time>2026-04-25T09:57:10.725Z</time></trkpt><trkpt lat="43.401455" lon="10.9984033"><ele>428.0</ele><time>2026-04-25T09:57:11.726Z</time></trkpt><trkpt lat="43.4014133" lon="10.9981767"><ele>428.0</ele><time>2026-04-25T09:57:12.724Z</time></trkpt><trkpt lat="43.4014117" lon="10.9979333"><ele>427.0</ele><time>2026-04-25T09:57:13.725Z</time></trkpt><trkpt lat="43.401435" lon="10.99768"><ele>426.0</ele><time>2026-04-25T09:57:14.726Z</time></trkpt><trkpt lat="43.4014633" lon="10.997435"><ele>425.0</ele><time>2026-04-25T09:57:15.726Z</time></trkpt><trkpt lat="43.4015033" lon="10.9972133"><ele>425.0</ele><time>2026-04-25T09:57:16.724Z</time></trkpt><trkpt lat="43.40157" lon="10.997015"><ele>425.0</ele><time>2026-04-25T09:57:17.726Z</time></trkpt><trkpt lat="43.40167" lon="10.996835"><ele>425.0</ele><time>2026-04-25T09:57:18.726Z</time></trkpt><trkpt lat="43.4017817" lon="10.9966433"><ele>426.66666666666663</ele><time>2026-04-25T09:57:19.726Z</time></trkpt><trkpt lat="43.4018817" lon="10.9964117"><ele>428.33333333333337</ele><time>2026-04-25T09:57:20.726Z</time></trkpt><trkpt lat="43.40198" lon="10.9961667"><ele>430.0</ele><time>2026-04-25T09:57:21.725Z</time></trkpt><trkpt lat="43.4020883" lon="10.9959483"><ele>428.6666666666667</ele><time>2026-04-25T09:57:22.725Z</time></trkpt><trkpt lat="43.4022017" lon="10.9957733"><ele>427.33333333333337</ele><time>2026-04-25T09:57:23.724Z</time></trkpt><trkpt lat="43.4023017" lon="10.9956183"><ele>426.0</ele><time>2026-04-25T09:57:24.726Z</time></trkpt><trkpt lat="43.4023817" lon="10.9954533"><ele>426.0</ele><time>2026-04-25T09:57:25.726Z</time></trkpt><trkpt lat="43.4024433" lon="10.9952733"><ele>426.0</ele><time>2026-04-25T09:57:26.725Z</time></trkpt><trkpt lat="43.4024367" lon="10.9950383"><ele>426.0</ele><time>2026-04-25T09:57:27.726Z</time></trkpt><trkpt lat="43.4024017" lon="10.9948067"><ele>427.33333333333337</ele><time>2026-04-25T09:57:28.725Z</time></trkpt><trkpt lat="43.4023267" lon="10.9945533"><ele>428.6666666666667</ele><time>2026-04-25T09:57:29.725Z</time></trkpt><trkpt lat="43.4022267" lon="10.9942933"><ele>430.0</ele><time>2026-04-25T09:57:30.724Z</time></trkpt><trkpt lat="43.4021017" lon="10.994055"><ele>431.0</ele><time>2026-04-25T09:57:31.723Z</time></trkpt><trkpt lat="43.4019633" lon="10.99383"><ele>432.0</ele><time>2026-04-25T09:57:32.724Z</time></trkpt><trkpt lat="43.4018483" lon="10.99361"><ele>433.0</ele><time>2026-04-25T09:57:33.725Z</time></trkpt><trkpt lat="43.40176" lon="10.9933783"><ele>430.6666666666667</ele><time>2026-04-25T09:57:34.725Z</time></trkpt><trkpt lat="43.401705" lon="10.9931217"><ele>428.33333333333337</ele><time>2026-04-25T09:57:35.725Z</time></trkpt><trkpt lat="43.40168" lon="10.99285"><ele>426.0</ele><time>2026-04-25T09:57:36.726Z</time></trkpt><trkpt lat="43.4016667" lon="10.9925783"><ele>425.66666666666663</ele><time>2026-04-25T09:57:37.726Z</time></trkpt><trkpt lat="43.4016217" lon="10.9923033"><ele>425.3333333333333</ele><time>2026-04-25T09:57:38.724Z</time></trkpt><trkpt lat="43.4015333" lon="10.9920367"><ele>425.0</ele><time>2026-04-25T09:57:39.726Z</time></trkpt><trkpt lat="43.4014333" lon="10.9917783"><ele>424.66666666666663</ele><time>2026-04-25T09:57:40.725Z</time></trkpt><trkpt lat="43.40134" lon="10.99153"><ele>424.33333333333337</ele><time>2026-04-25T09:57:41.726Z</time></trkpt><trkpt lat="43.4012733" lon="10.9912733"><ele>424.0</ele><time>2026-04-25T09:57:42.725Z</time></trkpt><trkpt lat="43.4012467" lon="10.991005"><ele>426.0</ele><time>2026-04-25T09:57:43.724Z</time></trkpt><trkpt lat="43.4012583" lon="10.99074"><ele>428.0</ele><time>2026-04-25T09:57:44.725Z</time></trkpt><trkpt lat="43.401285" lon="10.99047"><ele>430.0</ele><time>2026-04-25T09:57:45.724Z</time></trkpt><trkpt lat="43.40131" lon="10.9901967"><ele>429.33333333333337</ele><time>2026-04-25T09:57:46.725Z</time></trkpt><trkpt lat="43.4013367" lon="10.9899117"><ele>428.66666666666663</ele><time>2026-04-25T09:57:47.725Z</time></trkpt><trkpt lat="43.401365" lon="10.9896283"><ele>428.0</ele><time>2026-04-25T09:57:48.724Z</time></trkpt><trkpt lat="43.4014033" lon="10.98935"><ele>429.66666666666663</ele><time>2026-04-25T09:57:49.725Z</time></trkpt><trkpt lat="43.4014617" lon="10.9890833"><ele>431.33333333333337</ele><time>2026-04-25T09:57:50.724Z</time></trkpt><trkpt lat="43.4015417" lon="10.9888333"><ele>433.0</ele><time>2026-04-25T09:57:51.724Z</time></trkpt><trkpt lat="43.40163" lon="10.9885967"><ele>433.0</ele><time>2026-04-25T09:57:52.821Z</time></trkpt><trkpt lat="43.4017133" lon="10.988375"><ele>433.0</ele><time>2026-04-25T09:57:53.725Z</time></trkpt><trkpt lat="43.4017833" lon="10.9881483"><ele>433.0</ele><time>2026-04-25T09:57:54.726Z</time></trkpt><trkpt lat="43.4018433" lon="10.9879067"><ele>434.0</ele><time>2026-04-25T09:57:55.725Z</time></trkpt><trkpt lat="43.4018917" lon="10.9876417"><ele>435.0</ele><time>2026-04-25T09:57:56.725Z</time></trkpt><trkpt lat="43.4019217" lon="10.9873617"><ele>436.0</ele><time>2026-04-25T09:57:57.727Z</time></trkpt><trkpt lat="43.401945" lon="10.9870717"><ele>437.6666666666667</ele><time>2026-04-25T09:57:58.726Z</time></trkpt><trkpt lat="43.4019717" lon="10.9867667"><ele>439.33333333333337</ele><time>2026-04-25T09:57:59.726Z</time></trkpt><trkpt lat="43.402015" lon="10.9864617"><ele>441.0</ele><time>2026-04-25T09:58:00.727Z</time></trkpt><trkpt lat="43.402075" lon="10.9861567"><ele>443.5</ele><time>2026-04-25T09:58:01.724Z</time></trkpt><trkpt lat="43.402145" lon="10.9858483"><ele>446.0</ele><time>2026-04-25T09:58:02.725Z</time></trkpt><trkpt lat="43.4022183" lon="10.985545"><ele>449.5</ele><time>2026-04-25T09:58:03.725Z</time></trkpt><trkpt lat="43.4022933" lon="10.9852283"><ele>453.0</ele><time>2026-04-25T09:58:04.724Z</time></trkpt><trkpt lat="43.40237" lon="10.9849167"><ele>456.0</ele><time>2026-04-25T09:58:05.725Z</time></trkpt><trkpt lat="43.4024467" lon="10.9845983"><ele>459.0</ele><time>2026-04-25T09:58:06.726Z</time></trkpt><trkpt lat="43.4025267" lon="10.9842783"><ele>461.0</ele><time>2026-04-25T09:58:07.722Z</time></trkpt><trkpt lat="43.4026017" lon="10.9839633"><ele>463.0</ele><time>2026-04-25T09:58:08.726Z</time></trkpt><trkpt lat="43.4026783" lon="10.98364"><ele>464.5</ele><time>2026-04-25T09:58:09.725Z</time></trkpt><trkpt lat="43.4027617" lon="10.9833167"><ele>466.0</ele><time>2026-04-25T09:58:10.725Z</time></trkpt><trkpt lat="43.4028433" lon="10.98299"><ele>466.0</ele><time>2026-04-25T09:58:11.723Z</time></trkpt><trkpt lat="43.4029217" lon="10.98266"><ele>466.0</ele><time>2026-04-25T09:58:12.725Z</time></trkpt><trkpt lat="43.4029967" lon="10.9823383"><ele>471.5</ele><time>2026-04-25T09:58:13.725Z</time></trkpt><trkpt lat="43.403075" lon="10.9820167"><ele>477.0</ele><time>2026-04-25T09:58:14.724Z</time></trkpt><trkpt lat="43.4031517" lon="10.9816983"><ele>478.5</ele><time>2026-04-25T09:58:15.725Z</time></trkpt><trkpt lat="43.4032267" lon="10.9813817"><ele>480.0</ele><time>2026-04-25T09:58:16.727Z</time></trkpt><trkpt lat="43.4033" lon="10.9810683"><ele>477.0</ele><time>2026-04-25T09:58:17.724Z</time></trkpt><trkpt lat="43.4033767" lon="10.9807483"><ele>474.0</ele><time>2026-04-25T09:58:18.725Z</time></trkpt><trkpt lat="43.40345" lon="10.9804317"><ele>474.0</ele><time>2026-04-25T09:58:19.726Z</time></trkpt><trkpt lat="43.4035233" lon="10.98012"><ele>474.0</ele><time>2026-04-25T09:58:20.726Z</time></trkpt><trkpt lat="43.4035983" lon="10.9798033"><ele>471.5</ele><time>2026-04-25T09:58:21.725Z</time></trkpt><trkpt lat="43.403675" lon="10.9794817"><ele>469.0</ele><time>2026-04-25T09:58:22.726Z</time></trkpt><trkpt lat="43.4037517" lon="10.9791633"><ele>467.0</ele><time>2026-04-25T09:58:23.725Z</time></trkpt><trkpt lat="43.40383" lon="10.9788383"><ele>465.0</ele><time>2026-04-25T09:58:24.723Z</time></trkpt><trkpt lat="43.4039083" lon="10.9785133"><ele>472.0</ele><time>2026-04-25T09:58:25.728Z</time></trkpt><trkpt lat="43.4039917" lon="10.9781933"><ele>479.0</ele><time>2026-04-25T09:58:26.724Z</time></trkpt><trkpt lat="43.404075" lon="10.977875"><ele>479.0</ele><time>2026-04-25T09:58:27.724Z</time></trkpt><trkpt lat="43.4041483" lon="10.9775533"><ele>479.0</ele><time>2026-04-25T09:58:28.722Z</time></trkpt><trkpt lat="43.40421" lon="10.977225"><ele>477.5</ele><time>2026-04-25T09:58:29.726Z</time></trkpt><trkpt lat="43.4042517" lon="10.9768933"><ele>476.0</ele><time>2026-04-25T09:58:30.726Z</time></trkpt><trkpt lat="43.404275" lon="10.976565"><ele>475.0</ele><time>2026-04-25T09:58:31.726Z</time></trkpt><trkpt lat="43.404285" lon="10.97624"><ele>474.0</ele><time>2026-04-25T09:58:32.726Z</time></trkpt><trkpt lat="43.4042883" lon="10.9759233"><ele>473.0</ele><time>2026-04-25T09:58:33.724Z</time></trkpt><trkpt lat="43.4042783" lon="10.9756083"><ele>472.0</ele><time>2026-04-25T09:58:34.724Z</time></trkpt><trkpt lat="43.4042567" lon="10.9752967"><ele>471.33333333333337</ele><time>2026-04-25T09:58:35.726Z</time></trkpt><trkpt lat="43.404215" lon="10.9749967"><ele>470.66666666666663</ele><time>2026-04-25T09:58:36.725Z</time></trkpt><trkpt lat="43.40415" lon="10.9747083"><ele>470.0</ele><time>2026-04-25T09:58:37.728Z</time></trkpt><trkpt lat="43.4040683" lon="10.974415"><ele>467.5</ele><time>2026-04-25T09:58:38.725Z</time></trkpt><trkpt lat="43.4039683" lon="10.9741317"><ele>465.0</ele><time>2026-04-25T09:58:39.725Z</time></trkpt><trkpt lat="43.4038533" lon="10.97385"><ele>464.5</ele><time>2026-04-25T09:58:40.726Z</time></trkpt><trkpt lat="43.4037283" lon="10.9735667"><ele>464.0</ele><time>2026-04-25T09:58:41.725Z</time></trkpt><trkpt lat="43.4036" lon="10.9732783"><ele>464.0</ele><time>2026-04-25T09:58:42.725Z</time></trkpt><trkpt lat="43.403465" lon="10.9729833"><ele>464.0</ele><time>2026-04-25T09:58:43.727Z</time></trkpt><trkpt lat="43.4033333" lon="10.9726833"><ele>461.5</ele><time>2026-04-25T09:58:44.726Z</time></trkpt><trkpt lat="43.4032033" lon="10.9723867"><ele>459.0</ele><time>2026-04-25T09:58:45.724Z</time></trkpt><trkpt lat="43.40307" lon="10.9720917"><ele>459.0</ele><time>2026-04-25T09:58:46.723Z</time></trkpt><trkpt lat="43.4029333" lon="10.9718017"><ele>459.0</ele><time>2026-04-25T09:58:47.725Z</time></trkpt><trkpt lat="43.4027933" lon="10.971515"><ele>458.0</ele><time>2026-04-25T09:58:48.727Z</time></trkpt><trkpt lat="43.40264" lon="10.9712417"><ele>457.0</ele><time>2026-04-25T09:58:49.726Z</time></trkpt><trkpt lat="43.4024817" lon="10.9709683"><ele>452.0</ele><time>2026-04-25T09:58:50.727Z</time></trkpt><trkpt lat="43.4023233" lon="10.9706917"><ele>447.0</ele><time>2026-04-25T09:58:51.726Z</time></trkpt><trkpt lat="43.4021667" lon="10.9704183"><ele>446.5</ele><time>2026-04-25T09:58:52.726Z</time></trkpt><trkpt lat="43.4020167" lon="10.9701383"><ele>446.0</ele><time>2026-04-25T09:58:53.726Z</time></trkpt><trkpt lat="43.401875" lon="10.9698567"><ele>446.0</ele><time>2026-04-25T09:58:54.725Z</time></trkpt><trkpt lat="43.4017483" lon="10.9695633"><ele>446.0</ele><time>2026-04-25T09:58:55.725Z</time></trkpt><trkpt lat="43.4016333" lon="10.9692583"><ele>443.5</ele><time>2026-04-25T09:58:56.726Z</time></trkpt><trkpt lat="43.4015267" lon="10.9689483"><ele>441.0</ele><time>2026-04-25T09:58:57.725Z</time></trkpt><trkpt lat="43.4014217" lon="10.968635"><ele>436.5</ele><time>2026-04-25T09:58:58.724Z</time></trkpt><trkpt lat="43.4013133" lon="10.9683267"><ele>432.0</ele><time>2026-04-25T09:58:59.725Z</time></trkpt><trkpt lat="43.4012033" lon="10.9680167"><ele>432.0</ele><time>2026-04-25T09:59:00.725Z</time></trkpt><trkpt lat="43.4010933" lon="10.9677067"><ele>432.0</ele><time>2026-04-25T09:59:01.723Z</time></trkpt><trkpt lat="43.4009817" lon="10.9673933"><ele>431.0</ele><time>2026-04-25T09:59:02.726Z</time></trkpt><trkpt lat="43.40087" lon="10.9670833"><ele>430.0</ele><time>2026-04-25T09:59:03.724Z</time></trkpt><trkpt lat="43.4007533" lon="10.96677"><ele>428.5</ele><time>2026-04-25T09:59:04.726Z</time></trkpt><trkpt lat="43.4006317" lon="10.9664633"><ele>427.0</ele><time>2026-04-25T09:59:05.726Z</time></trkpt><trkpt lat="43.4004967" lon="10.96616"><ele>425.0</ele><time>2026-04-25T09:59:06.724Z</time></trkpt><trkpt lat="43.4003617" lon="10.9658617"><ele>423.0</ele><time>2026-04-25T09:59:07.725Z</time></trkpt><trkpt lat="43.4002267" lon="10.9655633"><ele>423.0</ele><time>2026-04-25T09:59:08.726Z</time></trkpt><trkpt lat="43.4000883" lon="10.96527"><ele>423.0</ele><time>2026-04-25T09:59:09.727Z</time></trkpt><trkpt lat="43.3999483" lon="10.9649767"><ele>421.0</ele><time>2026-04-25T09:59:10.726Z</time></trkpt><trkpt lat="43.3997983" lon="10.9647033"><ele>419.0</ele><time>2026-04-25T09:59:11.727Z</time></trkpt><trkpt lat="43.39964" lon="10.96445"><ele>419.0</ele><time>2026-04-25T09:59:12.724Z</time></trkpt><trkpt lat="43.3994783" lon="10.9642"><ele>419.0</ele><time>2026-04-25T09:59:13.725Z</time></trkpt><trkpt lat="43.3993083" lon="10.9639567"><ele>419.0</ele><time>2026-04-25T09:59:14.725Z</time></trkpt><trkpt lat="43.3991333" lon="10.9637167"><ele>419.0</ele><time>2026-04-25T09:59:15.725Z</time></trkpt><trkpt lat="43.3989533" lon="10.9634833"><ele>417.0</ele><time>2026-04-25T09:59:16.724Z</time></trkpt><trkpt lat="43.3987717" lon="10.9632483"><ele>415.0</ele><time>2026-04-25T09:59:17.725Z</time></trkpt><trkpt lat="43.39859" lon="10.9630167"><ele>415.0</ele><time>2026-04-25T09:59:18.728Z</time></trkpt><trkpt lat="43.3984067" lon="10.9627817"><ele>415.0</ele><time>2026-04-25T09:59:19.728Z</time></trkpt><trkpt lat="43.3982217" lon="10.9625433"><ele>415.0</ele><time>2026-04-25T09:59:20.728Z</time></trkpt><trkpt lat="43.3980317" lon="10.9623033"><ele>415.0</ele><time>2026-04-25T09:59:21.723Z</time></trkpt><trkpt lat="43.3978383" lon="10.962065"><ele>415.0</ele><time>2026-04-25T09:59:22.725Z</time></trkpt><trkpt lat="43.39764" lon="10.9618233"><ele>415.0</ele><time>2026-04-25T09:59:23.728Z</time></trkpt><trkpt lat="43.3974417" lon="10.9615783"><ele>413.5</ele><time>2026-04-25T09:59:24.724Z</time></trkpt><trkpt lat="43.3972417" lon="10.96133"><ele>412.0</ele><time>2026-04-25T09:59:25.726Z</time></trkpt><trkpt lat="43.3970433" lon="10.9610883"><ele>409.5</ele><time>2026-04-25T09:59:26.724Z</time></trkpt><trkpt lat="43.3968433" lon="10.960845"><ele>407.0</ele><time>2026-04-25T09:59:27.726Z</time></trkpt><trkpt lat="43.3966483" lon="10.9605967"><ele>407.0</ele><time>2026-04-25T09:59:28.726Z</time></trkpt><trkpt lat="43.3964583" lon="10.960345"><ele>407.0</ele><time>2026-04-25T09:59:29.722Z</time></trkpt><trkpt lat="43.3962783" lon="10.9600817"><ele>407.5</ele><time>2026-04-25T09:59:30.726Z</time></trkpt><trkpt lat="43.3961083" lon="10.9598083"><ele>408.0</ele><time>2026-04-25T09:59:31.725Z</time></trkpt><trkpt lat="43.395955" lon="10.9595217"><ele>408.0</ele><time>2026-04-25T09:59:32.725Z</time></trkpt><trkpt lat="43.3958183" lon="10.95922"><ele>408.0</ele><time>2026-04-25T09:59:33.727Z</time></trkpt><trkpt lat="43.395695" lon="10.95891"><ele>407.5</ele><time>2026-04-25T09:59:34.726Z</time></trkpt><trkpt lat="43.3955817" lon="10.9585967"><ele>407.0</ele><time>2026-04-25T09:59:35.724Z</time></trkpt><trkpt lat="43.3954733" lon="10.95828"><ele>416.0</ele><time>2026-04-25T09:59:36.725Z</time></trkpt><trkpt lat="43.3953633" lon="10.9579633"><ele>425.0</ele><time>2026-04-25T09:59:37.724Z</time></trkpt><trkpt lat="43.3952533" lon="10.95765"><ele>423.5</ele><time>2026-04-25T09:59:38.727Z</time></trkpt><trkpt lat="43.3951433" lon="10.957335"><ele>422.0</ele><time>2026-04-25T09:59:39.726Z</time></trkpt><trkpt lat="43.3950367" lon="10.9570217"><ele>422.0</ele><time>2026-04-25T09:59:40.725Z</time></trkpt><trkpt lat="43.3949267" lon="10.9567117"><ele>422.0</ele><time>2026-04-25T09:59:41.726Z</time></trkpt><trkpt lat="43.3948117" lon="10.956405"><ele>422.0</ele><time>2026-04-25T09:59:42.725Z</time></trkpt><trkpt lat="43.3946783" lon="10.95611"><ele>422.0</ele><time>2026-04-25T09:59:43.726Z</time></trkpt><trkpt lat="43.3945267" lon="10.95583"><ele>425.5</ele><time>2026-04-25T09:59:44.726Z</time></trkpt><trkpt lat="43.3943583" lon="10.9555767"><ele>429.0</ele><time>2026-04-25T09:59:45.726Z</time></trkpt><trkpt lat="43.394175" lon="10.955345"><ele>429.0</ele><time>2026-04-25T09:59:46.726Z</time></trkpt><trkpt lat="43.3939783" lon="10.9551433"><ele>429.0</ele><time>2026-04-25T09:59:47.724Z</time></trkpt><trkpt lat="43.3937717" lon="10.9549717"><ele>430.5</ele><time>2026-04-25T09:59:48.727Z</time></trkpt><trkpt lat="43.39356" lon="10.9548217"><ele>432.0</ele><time>2026-04-25T09:59:49.728Z</time></trkpt><trkpt lat="43.393345" lon="10.95469"><ele>432.0</ele><time>2026-04-25T09:59:50.726Z</time></trkpt><trkpt lat="43.393135" lon="10.9545667"><ele>432.0</ele><time>2026-04-25T09:59:51.725Z</time></trkpt><trkpt lat="43.3929383" lon="10.95446"><ele>432.0</ele><time>2026-04-25T09:59:52.726Z</time></trkpt><trkpt lat="43.3927517" lon="10.954355"><ele>434.0</ele><time>2026-04-25T09:59:53.726Z</time></trkpt><trkpt lat="43.3925733" lon="10.9542467"><ele>436.0</ele><time>2026-04-25T09:59:54.725Z</time></trkpt><trkpt lat="43.3923967" lon="10.954135"><ele>438.0</ele><time>2026-04-25T09:59:55.725Z</time></trkpt><trkpt lat="43.3922217" lon="10.9540233"><ele>435.66666666666663</ele><time>2026-04-25T09:59:56.725Z</time></trkpt><trkpt lat="43.39204" lon="10.9538917"><ele>433.3333333333333</ele><time>2026-04-25T09:59:57.726Z</time></trkpt><trkpt lat="43.3918583" lon="10.9537517"><ele>431.0</ele><time>2026-04-25T09:59:58.727Z</time></trkpt><trkpt lat="43.3916683" lon="10.9535883"><ele>431.0</ele><time>2026-04-25T09:59:59.727Z</time></trkpt><trkpt lat="43.39147" lon="10.95341"><ele>431.0</ele><time>2026-04-25T10:00:00.726Z</time></trkpt><trkpt lat="43.391285" lon="10.9532117"><ele>428.0</ele><time>2026-04-25T10:00:01.724Z</time></trkpt><trkpt lat="43.391095" lon="10.9529983"><ele>425.0</ele><time>2026-04-25T10:00:02.726Z</time></trkpt><trkpt lat="43.3909133" lon="10.9527717"><ele>422.5</ele><time>2026-04-25T10:00:03.725Z</time></trkpt><trkpt lat="43.3907183" lon="10.9525317"><ele>420.0</ele><time>2026-04-25T10:00:04.726Z</time></trkpt><trkpt lat="43.3905283" lon="10.9522783"><ele>417.5</ele><time>2026-04-25T10:00:05.726Z</time></trkpt><trkpt lat="43.3903383" lon="10.9520167"><ele>415.0</ele><time>2026-04-25T10:00:06.726Z</time></trkpt><trkpt lat="43.39015" lon="10.9517533"><ele>415.5</ele><time>2026-04-25T10:00:07.727Z</time></trkpt><trkpt lat="43.3899617" lon="10.9514967"><ele>416.0</ele><time>2026-04-25T10:00:08.726Z</time></trkpt><trkpt lat="43.389785" lon="10.9512183"><ele>417.0</ele><time>2026-04-25T10:00:09.725Z</time></trkpt><trkpt lat="43.38962" lon="10.950945"><ele>418.0</ele><time>2026-04-25T10:00:10.726Z</time></trkpt><trkpt lat="43.38947" lon="10.9506667"><ele>418.0</ele><time>2026-04-25T10:00:11.725Z</time></trkpt><trkpt lat="43.389335" lon="10.95038"><ele>418.0</ele><time>2026-04-25T10:00:12.726Z</time></trkpt><trkpt lat="43.3892167" lon="10.9500817"><ele>413.5</ele><time>2026-04-25T10:00:13.725Z</time></trkpt><trkpt lat="43.3891117" lon="10.9497767"><ele>409.0</ele><time>2026-04-25T10:00:14.725Z</time></trkpt><trkpt lat="43.3890233" lon="10.9494633"><ele>406.5</ele><time>2026-04-25T10:00:15.724Z</time></trkpt><trkpt lat="43.3889417" lon="10.949145"><ele>404.0</ele><time>2026-04-25T10:00:16.726Z</time></trkpt><trkpt lat="43.3888617" lon="10.948825"><ele>399.5</ele><time>2026-04-25T10:00:17.726Z</time></trkpt><trkpt lat="43.38878" lon="10.9485033"><ele>395.0</ele><time>2026-04-25T10:00:18.725Z</time></trkpt><trkpt lat="43.3887" lon="10.9481717"><ele>394.5</ele><time>2026-04-25T10:00:19.727Z</time></trkpt><trkpt lat="43.3886267" lon="10.9478267"><ele>394.0</ele><time>2026-04-25T10:00:20.726Z</time></trkpt><trkpt lat="43.3885583" lon="10.9474833"><ele>396.0</ele><time>2026-04-25T10:00:21.724Z</time></trkpt><trkpt lat="43.3884917" lon="10.947135"><ele>398.0</ele><time>2026-04-25T10:00:22.727Z</time></trkpt><trkpt lat="43.3884217" lon="10.946795"><ele>397.5</ele><time>2026-04-25T10:00:23.727Z</time></trkpt><trkpt lat="43.3883483" lon="10.94645"><ele>397.0</ele><time>2026-04-25T10:00:24.724Z</time></trkpt><trkpt lat="43.3882783" lon="10.94611"><ele>395.0</ele><time>2026-04-25T10:00:25.723Z</time></trkpt><trkpt lat="43.3882067" lon="10.94577"><ele>393.0</ele><time>2026-04-25T10:00:26.727Z</time></trkpt><trkpt lat="43.3881317" lon="10.94543"><ele>393.0</ele><time>2026-04-25T10:00:27.725Z</time></trkpt><trkpt lat="43.388055" lon="10.945095"><ele>393.0</ele><time>2026-04-25T10:00:28.726Z</time></trkpt><trkpt lat="43.3879817" lon="10.9447567"><ele>386.0</ele><time>2026-04-25T10:00:29.726Z</time></trkpt><trkpt lat="43.3879133" lon="10.9444183"><ele>379.0</ele><time>2026-04-25T10:00:30.727Z</time></trkpt><trkpt lat="43.3878383" lon="10.9440917"><ele>379.0</ele><time>2026-04-25T10:00:31.726Z</time></trkpt><trkpt lat="43.3877583" lon="10.94377"><ele>379.0</ele><time>2026-04-25T10:00:32.725Z</time></trkpt><trkpt lat="43.387675" lon="10.94346"><ele>379.5</ele><time>2026-04-25T10:00:33.726Z</time></trkpt><trkpt lat="43.3875867" lon="10.9431567"><ele>380.0</ele><time>2026-04-25T10:00:34.723Z</time></trkpt><trkpt lat="43.3874917" lon="10.94285"><ele>380.0</ele><time>2026-04-25T10:00:35.725Z</time></trkpt><trkpt lat="43.3873817" lon="10.94256"><ele>380.0</ele><time>2026-04-25T10:00:36.725Z</time></trkpt><trkpt lat="43.3872633" lon="10.9422667"><ele>375.5</ele><time>2026-04-25T10:00:37.726Z</time></trkpt><trkpt lat="43.387135" lon="10.9419733"><ele>371.0</ele><time>2026-04-25T10:00:38.726Z</time></trkpt><trkpt lat="43.387" lon="10.9416867"><ele>371.0</ele><time>2026-04-25T10:00:39.727Z</time></trkpt><trkpt lat="43.3868633" lon="10.9413967"><ele>371.0</ele><time>2026-04-25T10:00:40.725Z</time></trkpt><trkpt lat="43.386725" lon="10.9411083"><ele>375.0</ele><time>2026-04-25T10:00:41.725Z</time></trkpt><trkpt lat="43.3865817" lon="10.94082"><ele>379.0</ele><time>2026-04-25T10:00:42.725Z</time></trkpt><trkpt lat="43.38644" lon="10.94053"><ele>375.0</ele><time>2026-04-25T10:00:43.727Z</time></trkpt><trkpt lat="43.3862983" lon="10.9402317"><ele>371.0</ele><time>2026-04-25T10:00:44.723Z</time></trkpt><trkpt lat="43.38615" lon="10.9399517"><ele>371.0</ele><time>2026-04-25T10:00:45.726Z</time></trkpt><trkpt lat="43.3859817" lon="10.9396883"><ele>371.0</ele><time>2026-04-25T10:00:46.725Z</time></trkpt><trkpt lat="43.3858067" lon="10.939435"><ele>369.5</ele><time>2026-04-25T10:00:47.722Z</time></trkpt><trkpt lat="43.385625" lon="10.9391883"><ele>368.0</ele><time>2026-04-25T10:00:48.727Z</time></trkpt><trkpt lat="43.385435" lon="10.938945"><ele>368.0</ele><time>2026-04-25T10:00:49.727Z</time></trkpt><trkpt lat="43.3852383" lon="10.9387133"><ele>368.0</ele><time>2026-04-25T10:00:50.724Z</time></trkpt><trkpt lat="43.3850383" lon="10.9384783"><ele>364.5</ele><time>2026-04-25T10:00:51.724Z</time></trkpt><trkpt lat="43.3848383" lon="10.9382483"><ele>361.0</ele><time>2026-04-25T10:00:52.724Z</time></trkpt><trkpt lat="43.3846367" lon="10.93802"><ele>361.0</ele><time>2026-04-25T10:00:53.725Z</time></trkpt><trkpt lat="43.3844367" lon="10.9377833"><ele>361.0</ele><time>2026-04-25T10:00:54.725Z</time></trkpt><trkpt lat="43.3842333" lon="10.937555"><ele>358.0</ele><time>2026-04-25T10:00:55.726Z</time></trkpt><trkpt lat="43.384035" lon="10.937325"><ele>355.0</ele><time>2026-04-25T10:00:56.723Z</time></trkpt><trkpt lat="43.3838383" lon="10.937095"><ele>351.0</ele><time>2026-04-25T10:00:57.724Z</time></trkpt><trkpt lat="43.3836483" lon="10.9368683"><ele>347.0</ele><time>2026-04-25T10:00:58.725Z</time></trkpt><trkpt lat="43.38347" lon="10.9366317"><ele>346.0</ele><time>2026-04-25T10:00:59.726Z</time></trkpt><trkpt lat="43.3833117" lon="10.9363783"><ele>345.0</ele><time>2026-04-25T10:01:00.724Z</time></trkpt><trkpt lat="43.38317" lon="10.93611"><ele>344.0</ele><time>2026-04-25T10:01:01.726Z</time></trkpt><trkpt lat="43.383045" lon="10.93583"><ele>343.0</ele><time>2026-04-25T10:01:02.726Z</time></trkpt><trkpt lat="43.3829417" lon="10.935535"><ele>343.0</ele><time>2026-04-25T10:01:03.725Z</time></trkpt><trkpt lat="43.3828533" lon="10.935235"><ele>343.0</ele><time>2026-04-25T10:01:04.723Z</time></trkpt><trkpt lat="43.3827867" lon="10.9349317"><ele>343.0</ele><time>2026-04-25T10:01:05.725Z</time></trkpt><trkpt lat="43.3827383" lon="10.934625"><ele>343.0</ele><time>2026-04-25T10:01:06.723Z</time></trkpt><trkpt lat="43.38269" lon="10.934315"><ele>343.5</ele><time>2026-04-25T10:01:07.727Z</time></trkpt><trkpt lat="43.3826217" lon="10.9340133"><ele>344.0</ele><time>2026-04-25T10:01:08.725Z</time></trkpt><trkpt lat="43.3825367" lon="10.9337217"><ele>344.0</ele><time>2026-04-25T10:01:09.727Z</time></trkpt><trkpt lat="43.3824433" lon="10.9334333"><ele>344.0</ele><time>2026-04-25T10:01:10.724Z</time></trkpt><trkpt lat="43.3823433" lon="10.9331483"><ele>343.0</ele><time>2026-04-25T10:01:11.724Z</time></trkpt><trkpt lat="43.3822483" lon="10.9328617"><ele>342.0</ele><time>2026-04-25T10:01:12.725Z</time></trkpt><trkpt lat="43.3821583" lon="10.9325767"><ele>341.3333333333333</ele><time>2026-04-25T10:01:13.723Z</time></trkpt><trkpt lat="43.3820867" lon="10.93229"><ele>340.66666666666663</ele><time>2026-04-25T10:01:14.726Z</time></trkpt><trkpt lat="43.3820433" lon="10.932"><ele>340.0</ele><time>2026-04-25T10:01:15.724Z</time></trkpt><trkpt lat="43.3820433" lon="10.931705"><ele>340.0</ele><time>2026-04-25T10:01:16.725Z</time></trkpt><trkpt lat="43.3820783" lon="10.931415"><ele>340.0</ele><time>2026-04-25T10:01:17.724Z</time></trkpt><trkpt lat="43.3821567" lon="10.9311417"><ele>340.0</ele><time>2026-04-25T10:01:18.725Z</time></trkpt><trkpt lat="43.3822667" lon="10.9308817"><ele>341.66666666666663</ele><time>2026-04-25T10:01:19.726Z</time></trkpt><trkpt lat="43.3823917" lon="10.9306317"><ele>343.3333333333333</ele><time>2026-04-25T10:01:20.728Z</time></trkpt><trkpt lat="43.3825083" lon="10.9303867"><ele>345.0</ele><time>2026-04-25T10:01:21.724Z</time></trkpt><trkpt lat="43.3826067" lon="10.9301267"><ele>347.6666666666667</ele><time>2026-04-25T10:01:22.724Z</time></trkpt><trkpt lat="43.38267" lon="10.929855"><ele>350.33333333333337</ele><time>2026-04-25T10:01:23.726Z</time></trkpt><trkpt lat="43.3826983" lon="10.9295733"><ele>353.0</ele><time>2026-04-25T10:01:24.725Z</time></trkpt><trkpt lat="43.382705" lon="10.9293083"><ele>356.33333333333337</ele><time>2026-04-25T10:01:25.725Z</time></trkpt><trkpt lat="43.3827067" lon="10.9290583"><ele>359.6666666666667</ele><time>2026-04-25T10:01:26.725Z</time></trkpt><trkpt lat="43.3827033" lon="10.9288383"><ele>363.0</ele><time>2026-04-25T10:01:27.724Z</time></trkpt><trkpt lat="43.3826967" lon="10.9286417"><ele>363.0</ele><time>2026-04-25T10:01:28.726Z</time></trkpt><trkpt lat="43.3826833" lon="10.9284683"><ele>363.0</ele><time>2026-04-25T10:01:29.726Z</time></trkpt><trkpt lat="43.3826567" lon="10.9283"><ele>363.0</ele><time>2026-04-25T10:01:30.726Z</time></trkpt><trkpt lat="43.3826167" lon="10.928125"><ele>363.0</ele><time>2026-04-25T10:01:31.726Z</time></trkpt><trkpt lat="43.38256" lon="10.9279583"><ele>363.0</ele><time>2026-04-25T10:01:32.725Z</time></trkpt><trkpt lat="43.3825" lon="10.927805"><ele>363.0</ele><time>2026-04-25T10:01:33.727Z</time></trkpt><trkpt lat="43.3824467" lon="10.9276683"><ele>363.0</ele><time>2026-04-25T10:01:34.724Z</time></trkpt><trkpt lat="43.3824017" lon="10.9275317"><ele>363.0</ele><time>2026-04-25T10:01:35.726Z</time></trkpt><trkpt lat="43.3823617" lon="10.927385"><ele>363.0</ele><time>2026-04-25T10:01:36.723Z</time></trkpt><trkpt lat="43.3823333" lon="10.92722"><ele>363.0</ele><time>2026-04-25T10:01:37.725Z</time></trkpt><trkpt lat="43.3823183" lon="10.9270533"><ele>363.0</ele><time>2026-04-25T10:01:38.728Z</time></trkpt><trkpt lat="43.38232" lon="10.9268833"><ele>363.0</ele><time>2026-04-25T10:01:39.727Z</time></trkpt><trkpt lat="43.3823333" lon="10.9267167"><ele>362.4</ele><time>2026-04-25T10:01:40.727Z</time></trkpt><trkpt lat="43.382355" lon="10.926565"><ele>361.79999999999995</ele><time>2026-04-25T10:01:41.727Z</time></trkpt><trkpt lat="43.3823817" lon="10.9264233"><ele>361.2</ele><time>2026-04-25T10:01:42.727Z</time></trkpt><trkpt lat="43.3824183" lon="10.9262917"><ele>360.6</ele><time>2026-04-25T10:01:43.725Z</time></trkpt><trkpt lat="43.3824717" lon="10.9261617"><ele>360.0</ele><time>2026-04-25T10:01:44.725Z</time></trkpt><trkpt lat="43.3825417" lon="10.92603"><ele>360.0</ele><time>2026-04-25T10:01:45.728Z</time></trkpt><trkpt lat="43.382615" lon="10.9259017"><ele>360.0</ele><time>2026-04-25T10:01:46.727Z</time></trkpt><trkpt lat="43.3826783" lon="10.9257733"><ele>360.0</ele><time>2026-04-25T10:01:47.724Z</time></trkpt><trkpt lat="43.3827367" lon="10.92563"><ele>360.0</ele><time>2026-04-25T10:01:48.728Z</time></trkpt><trkpt lat="43.3827917" lon="10.9254667"><ele>360.75</ele><time>2026-04-25T10:01:49.724Z</time></trkpt><trkpt lat="43.382835" lon="10.925285"><ele>361.5</ele><time>2026-04-25T10:01:50.728Z</time></trkpt><trkpt lat="43.38287" lon="10.92509"><ele>362.25</ele><time>2026-04-25T10:01:51.724Z</time></trkpt><trkpt lat="43.3829033" lon="10.92487"><ele>363.0</ele><time>2026-04-25T10:01:52.726Z</time></trkpt><trkpt lat="43.382935" lon="10.9246183"><ele>363.0</ele><time>2026-04-25T10:01:53.727Z</time></trkpt><trkpt lat="43.3829883" lon="10.92435"><ele>363.0</ele><time>2026-04-25T10:01:54.726Z</time></trkpt><trkpt lat="43.3830767" lon="10.9240883"><ele>363.0</ele><time>2026-04-25T10:01:55.725Z</time></trkpt><trkpt lat="43.3831983" lon="10.9238417"><ele>356.5</ele><time>2026-04-25T10:01:56.724Z</time></trkpt><trkpt lat="43.3833517" lon="10.9236217"><ele>350.0</ele><time>2026-04-25T10:01:57.726Z</time></trkpt><trkpt lat="43.3835317" lon="10.9234233"><ele>351.5</ele><time>2026-04-25T10:01:58.726Z</time></trkpt><trkpt lat="43.3837367" lon="10.9232417"><ele>353.0</ele><time>2026-04-25T10:01:59.725Z</time></trkpt><trkpt lat="43.3839467" lon="10.9230767"><ele>353.0</ele><time>2026-04-25T10:02:00.728Z</time></trkpt><trkpt lat="43.3841467" lon="10.9229283"><ele>353.0</ele><time>2026-04-25T10:02:01.725Z</time></trkpt><trkpt lat="43.3843333" lon="10.922785"><ele>353.0</ele><time>2026-04-25T10:02:02.727Z</time></trkpt><trkpt lat="43.3845133" lon="10.9226217"><ele>351.0</ele><time>2026-04-25T10:02:03.726Z</time></trkpt><trkpt lat="43.3846883" lon="10.9224267"><ele>349.0</ele><time>2026-04-25T10:02:04.722Z</time></trkpt><trkpt lat="43.38486" lon="10.9222133"><ele>349.0</ele><time>2026-04-25T10:02:05.725Z</time></trkpt><trkpt lat="43.385025" lon="10.92201"><ele>349.0</ele><time>2026-04-25T10:02:06.725Z</time></trkpt><trkpt lat="43.385185" lon="10.92182"><ele>349.0</ele><time>2026-04-25T10:02:07.725Z</time></trkpt><trkpt lat="43.3853383" lon="10.9216433"><ele>349.3333333333333</ele><time>2026-04-25T10:02:08.727Z</time></trkpt><trkpt lat="43.3854633" lon="10.9214717"><ele>349.6666666666667</ele><time>2026-04-25T10:02:09.726Z</time></trkpt><trkpt lat="43.38555" lon="10.9212783"><ele>350.0</ele><time>2026-04-25T10:02:10.725Z</time></trkpt><trkpt lat="43.3856017" lon="10.92106"><ele>351.5</ele><time>2026-04-25T10:02:11.725Z</time></trkpt><trkpt lat="43.38564" lon="10.920845"><ele>353.0</ele><time>2026-04-25T10:02:12.726Z</time></trkpt><trkpt lat="43.38567" lon="10.9206467"><ele>354.5</ele><time>2026-04-25T10:02:13.727Z</time></trkpt><trkpt lat="43.3856933" lon="10.9204683"><ele>356.0</ele><time>2026-04-25T10:02:14.726Z</time></trkpt><trkpt lat="43.3857133" lon="10.9202717"><ele>358.6666666666667</ele><time>2026-04-25T10:02:15.725Z</time></trkpt><trkpt lat="43.3857083" lon="10.9200467"><ele>361.3333333333333</ele><time>2026-04-25T10:02:16.726Z</time></trkpt><trkpt lat="43.3856783" lon="10.91983"><ele>364.0</ele><time>2026-04-25T10:02:17.726Z</time></trkpt><trkpt lat="43.3856583" lon="10.9196333"><ele>364.0</ele><time>2026-04-25T10:02:18.726Z</time></trkpt><trkpt lat="43.385665" lon="10.9194733"><ele>364.0</ele><time>2026-04-25T10:02:19.726Z</time></trkpt><trkpt lat="43.3857183" lon="10.919345"><ele>364.0</ele><time>2026-04-25T10:02:20.727Z</time></trkpt><trkpt lat="43.38579" lon="10.91927"><ele>364.0</ele><time>2026-04-25T10:02:21.723Z</time></trkpt><trkpt lat="43.3858883" lon="10.9192833"><ele>364.0</ele><time>2026-04-25T10:02:22.726Z</time></trkpt><trkpt lat="43.385985" lon="10.9193617"><ele>364.0</ele><time>2026-04-25T10:02:23.726Z</time></trkpt><trkpt lat="43.386095" lon="10.9194867"><ele>364.0</ele><time>2026-04-25T10:02:24.726Z</time></trkpt><trkpt lat="43.3862283" lon="10.9196333"><ele>364.0</ele><time>2026-04-25T10:02:25.725Z</time></trkpt><trkpt lat="43.3863917" lon="10.9197617"><ele>366.66666666666663</ele><time>2026-04-25T10:02:26.726Z</time></trkpt><trkpt lat="43.3865883" lon="10.91985"><ele>369.3333333333333</ele><time>2026-04-25T10:02:27.724Z</time></trkpt><trkpt lat="43.386795" lon="10.9199067"><ele>372.0</ele><time>2026-04-25T10:02:28.726Z</time></trkpt><trkpt lat="43.386995" lon="10.9199133"><ele>373.3333333333333</ele><time>2026-04-25T10:02:29.725Z</time></trkpt><trkpt lat="43.3871883" lon="10.9198733"><ele>374.66666666666663</ele><time>2026-04-25T10:02:30.725Z</time></trkpt><trkpt lat="43.3873733" lon="10.9197767"><ele>376.0</ele><time>2026-04-25T10:02:31.726Z</time></trkpt><trkpt lat="43.38754" lon="10.9196767"><ele>376.0</ele><time>2026-04-25T10:02:32.725Z</time></trkpt><trkpt lat="43.3876733" lon="10.9195783"><ele>376.0</ele><time>2026-04-25T10:02:33.726Z</time></trkpt><trkpt lat="43.3877683" lon="10.9194567"><ele>376.0</ele><time>2026-04-25T10:02:34.725Z</time></trkpt><trkpt lat="43.3878183" lon="10.919305"><ele>376.0</ele><time>2026-04-25T10:02:35.727Z</time></trkpt><trkpt lat="43.3878233" lon="10.919125"><ele>379.66666666666663</ele><time>2026-04-25T10:02:36.725Z</time></trkpt><trkpt lat="43.3877933" lon="10.918915"><ele>383.3333333333333</ele><time>2026-04-25T10:02:37.728Z</time></trkpt><trkpt lat="43.3877467" lon="10.91869"><ele>387.0</ele><time>2026-04-25T10:02:38.726Z</time></trkpt><trkpt lat="43.38767" lon="10.918475"><ele>388.33333333333337</ele><time>2026-04-25T10:02:39.726Z</time></trkpt><trkpt lat="43.3875467" lon="10.91827"><ele>389.6666666666667</ele><time>2026-04-25T10:02:40.725Z</time></trkpt><trkpt lat="43.387385" lon="10.9180583"><ele>391.0</ele><time>2026-04-25T10:02:41.727Z</time></trkpt><trkpt lat="43.387215" lon="10.9178333"><ele>392.33333333333337</ele><time>2026-04-25T10:02:42.726Z</time></trkpt><trkpt lat="43.38706" lon="10.9176267"><ele>393.66666666666663</ele><time>2026-04-25T10:02:43.726Z</time></trkpt><trkpt lat="43.38692" lon="10.9174467"><ele>395.0</ele><time>2026-04-25T10:02:44.729Z</time></trkpt><trkpt lat="43.3868117" lon="10.9172717"><ele>396.0</ele><time>2026-04-25T10:02:45.726Z</time></trkpt><trkpt lat="43.3867483" lon="10.9170883"><ele>397.0</ele><time>2026-04-25T10:02:46.724Z</time></trkpt><trkpt lat="43.386735" lon="10.916875"><ele>398.0</ele><time>2026-04-25T10:02:47.727Z</time></trkpt><trkpt lat="43.3867683" lon="10.9166317"><ele>399.0</ele><time>2026-04-25T10:02:48.727Z</time></trkpt><trkpt lat="43.3868283" lon="10.9163817"><ele>400.0</ele><time>2026-04-25T10:02:49.725Z</time></trkpt><trkpt lat="43.3869233" lon="10.9161433"><ele>401.0</ele><time>2026-04-25T10:02:50.727Z</time></trkpt><trkpt lat="43.3870417" lon="10.915905"><ele>402.66666666666663</ele><time>2026-04-25T10:02:51.725Z</time></trkpt><trkpt lat="43.3871633" lon="10.9156583"><ele>404.33333333333337</ele><time>2026-04-25T10:02:52.727Z</time></trkpt><trkpt lat="43.3872783" lon="10.9154267"><ele>406.0</ele><time>2026-04-25T10:02:53.725Z</time></trkpt><trkpt lat="43.3873767" lon="10.9152067"><ele>405.33333333333337</ele><time>2026-04-25T10:02:54.725Z</time></trkpt><trkpt lat="43.38745" lon="10.9149867"><ele>404.66666666666663</ele><time>2026-04-25T10:02:55.725Z</time></trkpt><trkpt lat="43.3875067" lon="10.9147667"><ele>404.0</ele><time>2026-04-25T10:02:56.727Z</time></trkpt><trkpt lat="43.387545" lon="10.9145733"><ele>404.0</ele><time>2026-04-25T10:02:57.724Z</time></trkpt><trkpt lat="43.38755" lon="10.9143967"><ele>404.0</ele><time>2026-04-25T10:02:58.725Z</time></trkpt><trkpt lat="43.387515" lon="10.9142167"><ele>404.0</ele><time>2026-04-25T10:02:59.726Z</time></trkpt><trkpt lat="43.387445" lon="10.9140233"><ele>404.0</ele><time>2026-04-25T10:03:00.727Z</time></trkpt><trkpt lat="43.3873617" lon="10.9138133"><ele>403.66666666666663</ele><time>2026-04-25T10:03:01.726Z</time></trkpt><trkpt lat="43.3872917" lon="10.913575"><ele>403.33333333333337</ele><time>2026-04-25T10:03:02.725Z</time></trkpt><trkpt lat="43.387225" lon="10.9133333"><ele>403.0</ele><time>2026-04-25T10:03:03.724Z</time></trkpt><trkpt lat="43.3871517" lon="10.913105"><ele>403.6666666666667</ele><time>2026-04-25T10:03:04.725Z</time></trkpt><trkpt lat="43.38705" lon="10.912895"><ele>404.33333333333337</ele><time>2026-04-25T10:03:05.726Z</time></trkpt><trkpt lat="43.3869283" lon="10.9127067"><ele>405.0</ele><time>2026-04-25T10:03:06.726Z</time></trkpt><trkpt lat="43.386795" lon="10.9125317"><ele>405.0</ele><time>2026-04-25T10:03:07.727Z</time></trkpt><trkpt lat="43.38665" lon="10.9123733"><ele>405.0</ele><time>2026-04-25T10:03:08.726Z</time></trkpt><trkpt lat="43.3864967" lon="10.91221"><ele>405.0</ele><time>2026-04-25T10:03:09.724Z</time></trkpt><trkpt lat="43.3863517" lon="10.9120567"><ele>406.33333333333337</ele><time>2026-04-25T10:03:10.725Z</time></trkpt><trkpt lat="43.3862133" lon="10.9118983"><ele>407.6666666666667</ele><time>2026-04-25T10:03:11.726Z</time></trkpt><trkpt lat="43.3860833" lon="10.9117367"><ele>409.0</ele><time>2026-04-25T10:03:12.727Z</time></trkpt><trkpt lat="43.38596" lon="10.9115633"><ele>409.0</ele><time>2026-04-25T10:03:13.724Z</time></trkpt><trkpt lat="43.3858483" lon="10.9113767"><ele>409.0</ele><time>2026-04-25T10:03:14.726Z</time></trkpt><trkpt lat="43.385735" lon="10.911195"><ele>409.0</ele><time>2026-04-25T10:03:15.725Z</time></trkpt><trkpt lat="43.385625" lon="10.911035"><ele>410.33333333333337</ele><time>2026-04-25T10:03:16.726Z</time></trkpt><trkpt lat="43.385505" lon="10.91087"><ele>411.66666666666663</ele><time>2026-04-25T10:03:17.724Z</time></trkpt><trkpt lat="43.3853817" lon="10.9107"><ele>413.0</ele><time>2026-04-25T10:03:18.724Z</time></trkpt><trkpt lat="43.38527" lon="10.9105283"><ele>413.0</ele><time>2026-04-25T10:03:19.726Z</time></trkpt><trkpt lat="43.3851767" lon="10.9103517"><ele>413.0</ele><time>2026-04-25T10:03:20.724Z</time></trkpt><trkpt lat="43.3851167" lon="10.910165"><ele>413.0</ele><time>2026-04-25T10:03:21.725Z</time></trkpt><trkpt lat="43.385095" lon="10.909965"><ele>411.0</ele><time>2026-04-25T10:03:22.724Z</time></trkpt><trkpt lat="43.385115" lon="10.90975"><ele>409.0</ele><time>2026-04-25T10:03:23.728Z</time></trkpt><trkpt lat="43.3851717" lon="10.9095317"><ele>407.0</ele><time>2026-04-25T10:03:24.724Z</time></trkpt><trkpt lat="43.38525" lon="10.9093067"><ele>408.0</ele><time>2026-04-25T10:03:25.728Z</time></trkpt><trkpt lat="43.38533" lon="10.9090833"><ele>409.0</ele><time>2026-04-25T10:03:26.725Z</time></trkpt><trkpt lat="43.3854233" lon="10.9088633"><ele>410.0</ele><time>2026-04-25T10:03:27.726Z</time></trkpt><trkpt lat="43.385535" lon="10.9086633"><ele>406.0</ele><time>2026-04-25T10:03:28.726Z</time></trkpt><trkpt lat="43.385655" lon="10.9084817"><ele>402.0</ele><time>2026-04-25T10:03:29.726Z</time></trkpt><trkpt lat="43.3857817" lon="10.9083267"><ele>398.0</ele><time>2026-04-25T10:03:30.727Z</time></trkpt><trkpt lat="43.3858983" lon="10.9082017"><ele>398.0</ele><time>2026-04-25T10:03:31.726Z</time></trkpt><trkpt lat="43.386005" lon="10.9080967"><ele>398.0</ele><time>2026-04-25T10:03:32.726Z</time></trkpt><trkpt lat="43.3860917" lon="10.908"><ele>398.0</ele><time>2026-04-25T10:03:33.725Z</time></trkpt><trkpt lat="43.38615" lon="10.9078967"><ele>398.0</ele><time>2026-04-25T10:03:34.723Z</time></trkpt><trkpt lat="43.386185" lon="10.90777"><ele>398.0</ele><time>2026-04-25T10:03:35.726Z</time></trkpt><trkpt lat="43.3862033" lon="10.907615"><ele>397.0</ele><time>2026-04-25T10:03:36.726Z</time></trkpt><trkpt lat="43.386205" lon="10.9074433"><ele>396.0</ele><time>2026-04-25T10:03:37.726Z</time></trkpt><trkpt lat="43.38619" lon="10.9072633"><ele>395.0</ele><time>2026-04-25T10:03:38.728Z</time></trkpt><trkpt lat="43.38617" lon="10.9070667"><ele>394.0</ele><time>2026-04-25T10:03:39.726Z</time></trkpt><trkpt lat="43.3861583" lon="10.9068567"><ele>392.6666666666667</ele><time>2026-04-25T10:03:40.725Z</time></trkpt><trkpt lat="43.3861717" lon="10.9066367"><ele>391.33333333333337</ele><time>2026-04-25T10:03:41.725Z</time></trkpt><trkpt lat="43.386195" lon="10.9064183"><ele>390.0</ele><time>2026-04-25T10:03:42.724Z</time></trkpt><trkpt lat="43.3862117" lon="10.9062017"><ele>390.0</ele><time>2026-04-25T10:03:43.727Z</time></trkpt><trkpt lat="43.3862083" lon="10.9059767"><ele>390.0</ele><time>2026-04-25T10:03:44.727Z</time></trkpt><trkpt lat="43.3861883" lon="10.9057367"><ele>390.0</ele><time>2026-04-25T10:03:45.727Z</time></trkpt><trkpt lat="43.38616" lon="10.90551"><ele>388.5</ele><time>2026-04-25T10:03:46.729Z</time></trkpt><trkpt lat="43.386145" lon="10.905295"><ele>387.0</ele><time>2026-04-25T10:03:47.727Z</time></trkpt><trkpt lat="43.38616" lon="10.9050967"><ele>385.5</ele><time>2026-04-25T10:03:48.725Z</time></trkpt><trkpt lat="43.3862133" lon="10.904925"><ele>384.0</ele><time>2026-04-25T10:03:49.727Z</time></trkpt><trkpt lat="43.38629" lon="10.9048067"><ele>380.75</ele><time>2026-04-25T10:03:50.727Z</time></trkpt><trkpt lat="43.3863733" lon="10.9046933"><ele>377.5</ele><time>2026-04-25T10:03:51.725Z</time></trkpt><trkpt lat="43.3864383" lon="10.9045567"><ele>374.25</ele><time>2026-04-25T10:03:52.725Z</time></trkpt><trkpt lat="43.3864733" lon="10.9043817"><ele>371.0</ele><time>2026-04-25T10:03:53.724Z</time></trkpt><trkpt lat="43.386475" lon="10.90418"><ele>370.0</ele><time>2026-04-25T10:03:54.726Z</time></trkpt><trkpt lat="43.3864617" lon="10.9039833"><ele>369.0</ele><time>2026-04-25T10:03:55.725Z</time></trkpt><trkpt lat="43.3864433" lon="10.9038"><ele>368.0</ele><time>2026-04-25T10:03:56.728Z</time></trkpt><trkpt lat="43.3864283" lon="10.9036283"><ele>367.0</ele><time>2026-04-25T10:03:57.726Z</time></trkpt><trkpt lat="43.38642" lon="10.90347"><ele>366.6</ele><time>2026-04-25T10:03:58.725Z</time></trkpt><trkpt lat="43.386425" lon="10.9033267"><ele>366.20000000000005</ele><time>2026-04-25T10:03:59.728Z</time></trkpt><trkpt lat="43.3864583" lon="10.9032033"><ele>365.8</ele><time>2026-04-25T10:04:00.727Z</time></trkpt><trkpt lat="43.3865133" lon="10.9031017"><ele>365.4</ele><time>2026-04-25T10:04:01.725Z</time></trkpt><trkpt lat="43.3865983" lon="10.903045"><ele>365.0</ele><time>2026-04-25T10:04:02.726Z</time></trkpt><trkpt lat="43.3866933" lon="10.9030167"><ele>365.0</ele><time>2026-04-25T10:04:03.726Z</time></trkpt><trkpt lat="43.386795" lon="10.9030083"><ele>365.0</ele><time>2026-04-25T10:04:04.725Z</time></trkpt><trkpt lat="43.3869017" lon="10.9029917"><ele>365.0</ele><time>2026-04-25T10:04:05.727Z</time></trkpt><trkpt lat="43.387015" lon="10.9029567"><ele>365.0</ele><time>2026-04-25T10:04:06.726Z</time></trkpt><trkpt lat="43.38713" lon="10.9029067"><ele>365.0</ele><time>2026-04-25T10:04:07.726Z</time></trkpt><trkpt lat="43.387255" lon="10.9028667"><ele>363.0</ele><time>2026-04-25T10:04:08.726Z</time></trkpt><trkpt lat="43.38738" lon="10.9028183"><ele>361.0</ele><time>2026-04-25T10:04:09.727Z</time></trkpt><trkpt lat="43.3875083" lon="10.9027467"><ele>359.0</ele><time>2026-04-25T10:04:10.727Z</time></trkpt><trkpt lat="43.3876383" lon="10.9026483"><ele>357.0</ele><time>2026-04-25T10:04:11.724Z</time></trkpt><trkpt lat="43.387765" lon="10.9025267"><ele>357.0</ele><time>2026-04-25T10:04:12.725Z</time></trkpt><trkpt lat="43.3878917" lon="10.9024"><ele>357.0</ele><time>2026-04-25T10:04:13.726Z</time></trkpt><trkpt lat="43.3880217" lon="10.9022683"><ele>357.0</ele><time>2026-04-25T10:04:14.726Z</time></trkpt><trkpt lat="43.38815" lon="10.9021267"><ele>354.3333333333333</ele><time>2026-04-25T10:04:15.728Z</time></trkpt><trkpt lat="43.38828" lon="10.9019783"><ele>351.66666666666663</ele><time>2026-04-25T10:04:16.726Z</time></trkpt><trkpt lat="43.3884017" lon="10.9018167"><ele>349.0</ele><time>2026-04-25T10:04:17.726Z</time></trkpt><trkpt lat="43.388515" lon="10.9016483"><ele>349.0</ele><time>2026-04-25T10:04:18.726Z</time></trkpt><trkpt lat="43.3886267" lon="10.90148"><ele>349.0</ele><time>2026-04-25T10:04:19.726Z</time></trkpt><trkpt lat="43.3887417" lon="10.9013133"><ele>349.0</ele><time>2026-04-25T10:04:20.726Z</time></trkpt><trkpt lat="43.3888633" lon="10.901145"><ele>347.0</ele><time>2026-04-25T10:04:21.725Z</time></trkpt><trkpt lat="43.388985" lon="10.90098"><ele>345.0</ele><time>2026-04-25T10:04:22.725Z</time></trkpt><trkpt lat="43.3891083" lon="10.90081"><ele>343.0</ele><time>2026-04-25T10:04:23.726Z</time></trkpt><trkpt lat="43.3892333" lon="10.9006367"><ele>343.0</ele><time>2026-04-25T10:04:24.727Z</time></trkpt><trkpt lat="43.38936" lon="10.9004633"><ele>343.0</ele><time>2026-04-25T10:04:25.725Z</time></trkpt><trkpt lat="43.3894867" lon="10.9002933"><ele>343.0</ele><time>2026-04-25T10:04:26.724Z</time></trkpt><trkpt lat="43.3896117" lon="10.9001233"><ele>341.66666666666663</ele><time>2026-04-25T10:04:27.725Z</time></trkpt><trkpt lat="43.3897383" lon="10.8999483"><ele>340.3333333333333</ele><time>2026-04-25T10:04:28.724Z</time></trkpt><trkpt lat="43.38986" lon="10.8997733"><ele>339.0</ele><time>2026-04-25T10:04:29.725Z</time></trkpt><trkpt lat="43.38997" lon="10.89959"><ele>339.0</ele><time>2026-04-25T10:04:30.726Z</time></trkpt><trkpt lat="43.3900833" lon="10.8993967"><ele>339.0</ele><time>2026-04-25T10:04:31.724Z</time></trkpt><trkpt lat="43.3902033" lon="10.8992017"><ele>339.0</ele><time>2026-04-25T10:04:32.725Z</time></trkpt><trkpt lat="43.390325" lon="10.8990083"><ele>339.3333333333333</ele><time>2026-04-25T10:04:33.726Z</time></trkpt><trkpt lat="43.3904533" lon="10.8988183"><ele>339.66666666666663</ele><time>2026-04-25T10:04:34.726Z</time></trkpt><trkpt lat="43.3905933" lon="10.89864"><ele>340.0</ele><time>2026-04-25T10:04:35.725Z</time></trkpt><trkpt lat="43.3907433" lon="10.8984667"><ele>337.0</ele><time>2026-04-25T10:04:36.727Z</time></trkpt><trkpt lat="43.3909" lon="10.8982967"><ele>334.0</ele><time>2026-04-25T10:04:37.727Z</time></trkpt><trkpt lat="43.3910617" lon="10.8981183"><ele>331.0</ele><time>2026-04-25T10:04:38.727Z</time></trkpt><trkpt lat="43.3912233" lon="10.8979233"><ele>329.66666666666663</ele><time>2026-04-25T10:04:39.726Z</time></trkpt><trkpt lat="43.391375" lon="10.8977233"><ele>328.3333333333333</ele><time>2026-04-25T10:04:40.727Z</time></trkpt><trkpt lat="43.3915317" lon="10.897525"><ele>327.0</ele><time>2026-04-25T10:04:41.726Z</time></trkpt><trkpt lat="43.3916833" lon="10.89733"><ele>327.0</ele><time>2026-04-25T10:04:42.725Z</time></trkpt><trkpt lat="43.39182" lon="10.89714"><ele>327.0</ele><time>2026-04-25T10:04:43.726Z</time></trkpt><trkpt lat="43.3919517" lon="10.8969433"><ele>327.0</ele><time>2026-04-25T10:04:44.727Z</time></trkpt><trkpt lat="43.3920667" lon="10.8967333"><ele>327.6666666666667</ele><time>2026-04-25T10:04:45.726Z</time></trkpt><trkpt lat="43.3921683" lon="10.896505"><ele>328.33333333333337</ele><time>2026-04-25T10:04:46.726Z</time></trkpt><trkpt lat="43.3922633" lon="10.8962617"><ele>329.0</ele><time>2026-04-25T10:04:47.727Z</time></trkpt><trkpt lat="43.3923417" lon="10.896"><ele>330.33333333333337</ele><time>2026-04-25T10:04:48.725Z</time></trkpt><trkpt lat="43.392405" lon="10.89572"><ele>331.6666666666667</ele><time>2026-04-25T10:04:49.726Z</time></trkpt><trkpt lat="43.39245" lon="10.8954483"><ele>333.0</ele><time>2026-04-25T10:04:50.725Z</time></trkpt><trkpt lat="43.3924783" lon="10.8952017"><ele>334.0</ele><time>2026-04-25T10:04:51.724Z</time></trkpt><trkpt lat="43.3924967" lon="10.8949867"><ele>335.0</ele><time>2026-04-25T10:04:52.726Z</time></trkpt><trkpt lat="43.39252" lon="10.8948"><ele>336.0</ele><time>2026-04-25T10:04:53.725Z</time></trkpt><trkpt lat="43.39256" lon="10.8946367"><ele>337.0</ele><time>2026-04-25T10:04:54.724Z</time></trkpt><trkpt lat="43.3926183" lon="10.8944983"><ele>337.0</ele><time>2026-04-25T10:04:55.727Z</time></trkpt><trkpt lat="43.392695" lon="10.8943717"><ele>337.0</ele><time>2026-04-25T10:04:56.725Z</time></trkpt><trkpt lat="43.39278" lon="10.8942583"><ele>337.0</ele><time>2026-04-25T10:04:57.727Z</time></trkpt><trkpt lat="43.3928733" lon="10.8941517"><ele>337.0</ele><time>2026-04-25T10:04:58.728Z</time></trkpt><trkpt lat="43.3929717" lon="10.8940517"><ele>339.75</ele><time>2026-04-25T10:04:59.723Z</time></trkpt><trkpt lat="43.3930717" lon="10.89396"><ele>342.5</ele><time>2026-04-25T10:05:00.724Z</time></trkpt><trkpt lat="43.3931767" lon="10.8938767"><ele>345.25</ele><time>2026-04-25T10:05:01.725Z</time></trkpt><trkpt lat="43.39329" lon="10.8938017"><ele>348.0</ele><time>2026-04-25T10:05:02.727Z</time></trkpt><trkpt lat="43.3934" lon="10.8937183"><ele>348.0</ele><time>2026-04-25T10:05:03.725Z</time></trkpt><trkpt lat="43.3935033" lon="10.8936167"><ele>348.0</ele><time>2026-04-25T10:05:04.727Z</time></trkpt><trkpt lat="43.3936" lon="10.8934967"><ele>348.0</ele><time>2026-04-25T10:05:05.727Z</time></trkpt><trkpt lat="43.3936817" lon="10.8933517"><ele>348.0</ele><time>2026-04-25T10:05:06.728Z</time></trkpt><trkpt lat="43.39376" lon="10.893205"><ele>346.25</ele><time>2026-04-25T10:05:07.727Z</time></trkpt><trkpt lat="43.3938317" lon="10.8930633"><ele>344.5</ele><time>2026-04-25T10:05:08.725Z</time></trkpt><trkpt lat="43.393885" lon="10.8929217"><ele>342.75</ele><time>2026-04-25T10:05:09.725Z</time></trkpt><trkpt lat="43.3939283" lon="10.8927817"><ele>341.0</ele><time>2026-04-25T10:05:10.728Z</time></trkpt><trkpt lat="43.3939483" lon="10.8926283"><ele>340.6</ele><time>2026-04-25T10:05:11.727Z</time></trkpt><trkpt lat="43.3939333" lon="10.89248"><ele>340.20000000000005</ele><time>2026-04-25T10:05:12.727Z</time></trkpt><trkpt lat="43.3938883" lon="10.8923367"><ele>339.79999999999995</ele><time>2026-04-25T10:05:13.725Z</time></trkpt><trkpt lat="43.3938217" lon="10.892215"><ele>339.4</ele><time>2026-04-25T10:05:14.728Z</time></trkpt><trkpt lat="43.3937467" lon="10.8921083"><ele>339.0</ele><time>2026-04-25T10:05:15.727Z</time></trkpt><trkpt lat="43.3936717" lon="10.8920067"><ele>339.0</ele><time>2026-04-25T10:05:16.726Z</time></trkpt><trkpt lat="43.393595" lon="10.8919017"><ele>339.0</ele><time>2026-04-25T10:05:17.726Z</time></trkpt><trkpt lat="43.3935083" lon="10.8917867"><ele>339.0</ele><time>2026-04-25T10:05:18.726Z</time></trkpt><trkpt lat="43.39343" lon="10.891675"><ele>339.0</ele><time>2026-04-25T10:05:19.725Z</time></trkpt><trkpt lat="43.3933683" lon="10.8915633"><ele>339.0</ele><time>2026-04-25T10:05:20.726Z</time></trkpt><trkpt lat="43.39332" lon="10.8914433"><ele>341.3333333333333</ele><time>2026-04-25T10:05:21.725Z</time></trkpt><trkpt lat="43.3932717" lon="10.8913233"><ele>343.6666666666667</ele><time>2026-04-25T10:05:22.726Z</time></trkpt><trkpt lat="43.3932233" lon="10.89121"><ele>346.0</ele><time>2026-04-25T10:05:23.727Z</time></trkpt><trkpt lat="43.39318" lon="10.89111"><ele>348.33333333333337</ele><time>2026-04-25T10:05:24.725Z</time></trkpt><trkpt lat="43.3931383" lon="10.8910167"><ele>350.6666666666667</ele><time>2026-04-25T10:05:25.727Z</time></trkpt><trkpt lat="43.3931" lon="10.8909183"><ele>353.0</ele><time>2026-04-25T10:05:26.727Z</time></trkpt><trkpt lat="43.3930767" lon="10.8908"><ele>356.5</ele><time>2026-04-25T10:05:27.726Z</time></trkpt><trkpt lat="43.3930767" lon="10.8906733"><ele>360.0</ele><time>2026-04-25T10:05:28.726Z</time></trkpt><trkpt lat="43.393105" lon="10.890525"><ele>363.5</ele><time>2026-04-25T10:05:29.726Z</time></trkpt><trkpt lat="43.393165" lon="10.8903367"><ele>367.0</ele><time>2026-04-25T10:05:30.725Z</time></trkpt><trkpt lat="43.3932483" lon="10.8901283"><ele>366.3333333333333</ele><time>2026-04-25T10:05:31.727Z</time></trkpt><trkpt lat="43.3933483" lon="10.8899067"><ele>365.6666666666667</ele><time>2026-04-25T10:05:32.727Z</time></trkpt><trkpt lat="43.39345" lon="10.88969"><ele>365.0</ele><time>2026-04-25T10:05:33.725Z</time></trkpt><trkpt lat="43.3935467" lon="10.889495"><ele>365.0</ele><time>2026-04-25T10:05:34.725Z</time></trkpt><trkpt lat="43.3936567" lon="10.889325"><ele>365.0</ele><time>2026-04-25T10:05:35.727Z</time></trkpt><trkpt lat="43.3937967" lon="10.88918"><ele>365.0</ele><time>2026-04-25T10:05:36.727Z</time></trkpt><trkpt lat="43.39396" lon="10.8890533"><ele>368.6666666666667</ele><time>2026-04-25T10:05:37.726Z</time></trkpt><trkpt lat="43.3941317" lon="10.8889267"><ele>372.3333333333333</ele><time>2026-04-25T10:05:38.727Z</time></trkpt><trkpt lat="43.3942867" lon="10.8888"><ele>376.0</ele><time>2026-04-25T10:05:39.725Z</time></trkpt><trkpt lat="43.3944083" lon="10.8886533"><ele>376.0</ele><time>2026-04-25T10:05:40.726Z</time></trkpt><trkpt lat="43.3945" lon="10.8884833"><ele>376.0</ele><time>2026-04-25T10:05:41.725Z</time></trkpt><trkpt lat="43.3945633" lon="10.8883133"><ele>376.0</ele><time>2026-04-25T10:05:42.726Z</time></trkpt><trkpt lat="43.39462" lon="10.8881783"><ele>376.0</ele><time>2026-04-25T10:05:43.728Z</time></trkpt><trkpt lat="43.3946867" lon="10.8880983"><ele>377.0</ele><time>2026-04-25T10:05:44.727Z</time></trkpt><trkpt lat="43.3947617" lon="10.8881033"><ele>378.0</ele><time>2026-04-25T10:05:45.728Z</time></trkpt><trkpt lat="43.3948233" lon="10.88817"><ele>379.0</ele><time>2026-04-25T10:05:46.725Z</time></trkpt><trkpt lat="43.39487" lon="10.8882983"><ele>380.0</ele><time>2026-04-25T10:05:47.726Z</time></trkpt><trkpt lat="43.394885" lon="10.8884767"><ele>381.0</ele><time>2026-04-25T10:05:48.728Z</time></trkpt><trkpt lat="43.394865" lon="10.88866"><ele>381.6</ele><time>2026-04-25T10:05:49.728Z</time></trkpt><trkpt lat="43.3948417" lon="10.8888283"><ele>382.20000000000005</ele><time>2026-04-25T10:05:50.729Z</time></trkpt><trkpt lat="43.39483" lon="10.888995"><ele>382.79999999999995</ele><time>2026-04-25T10:05:51.727Z</time></trkpt><trkpt lat="43.3948417" lon="10.8891433"><ele>383.4</ele><time>2026-04-25T10:05:52.727Z</time></trkpt><trkpt lat="43.3948783" lon="10.8892633"><ele>384.0</ele><time>2026-04-25T10:05:53.728Z</time></trkpt><trkpt lat="43.394935" lon="10.8893517"><ele>384.0</ele><time>2026-04-25T10:05:54.726Z</time></trkpt><trkpt lat="43.395005" lon="10.8894"><ele>384.0</ele><time>2026-04-25T10:05:55.728Z</time></trkpt><trkpt lat="43.3950933" lon="10.88934"><ele>384.0</ele><time>2026-04-25T10:05:56.725Z</time></trkpt><trkpt lat="43.395155" lon="10.889225"><ele>384.0</ele><time>2026-04-25T10:05:57.727Z</time></trkpt><trkpt lat="43.3952167" lon="10.88907"><ele>384.0</ele><time>2026-04-25T10:05:58.728Z</time></trkpt><trkpt lat="43.3953017" lon="10.88888"><ele>384.0</ele><time>2026-04-25T10:05:59.727Z</time></trkpt><trkpt lat="43.3953917" lon="10.88868"><ele>384.0</ele><time>2026-04-25T10:06:00.725Z</time></trkpt><trkpt lat="43.3954883" lon="10.8884717"><ele>384.0</ele><time>2026-04-25T10:06:01.724Z</time></trkpt><trkpt lat="43.3955867" lon="10.8882633"><ele>386.33333333333337</ele><time>2026-04-25T10:06:02.727Z</time></trkpt><trkpt lat="43.3957" lon="10.8880833"><ele>388.6666666666667</ele><time>2026-04-25T10:06:03.724Z</time></trkpt><trkpt lat="43.39583" lon="10.8879517"><ele>391.0</ele><time>2026-04-25T10:06:04.723Z</time></trkpt><trkpt lat="43.3959533" lon="10.887855"><ele>391.0</ele><time>2026-04-25T10:06:05.726Z</time></trkpt><trkpt lat="43.39604" lon="10.8877383"><ele>391.0</ele><time>2026-04-25T10:06:06.725Z</time></trkpt><trkpt lat="43.3960867" lon="10.8875917"><ele>391.0</ele><time>2026-04-25T10:06:07.725Z</time></trkpt><trkpt lat="43.39608" lon="10.887415"><ele>391.0</ele><time>2026-04-25T10:06:08.726Z</time></trkpt><trkpt lat="43.3960383" lon="10.8872167"><ele>393.0</ele><time>2026-04-25T10:06:09.726Z</time></trkpt><trkpt lat="43.39599" lon="10.8870083"><ele>395.0</ele><time>2026-04-25T10:06:10.724Z</time></trkpt><trkpt lat="43.3959617" lon="10.8868033"><ele>397.0</ele><time>2026-04-25T10:06:11.725Z</time></trkpt><trkpt lat="43.3959633" lon="10.8865917"><ele>398.0</ele><time>2026-04-25T10:06:12.726Z</time></trkpt><trkpt lat="43.3959967" lon="10.8863833"><ele>399.0</ele><time>2026-04-25T10:06:13.723Z</time></trkpt><trkpt lat="43.3960717" lon="10.8861717"><ele>400.0</ele><time>2026-04-25T10:06:14.724Z</time></trkpt><trkpt lat="43.396185" lon="10.8859617"><ele>399.6666666666667</ele><time>2026-04-25T10:06:15.724Z</time></trkpt><trkpt lat="43.3963133" lon="10.8857567"><ele>399.33333333333337</ele><time>2026-04-25T10:06:16.723Z</time></trkpt><trkpt lat="43.39644" lon="10.8855467"><ele>399.0</ele><time>2026-04-25T10:06:17.725Z</time></trkpt><trkpt lat="43.3965717" lon="10.885325"><ele>401.33333333333337</ele><time>2026-04-25T10:06:18.723Z</time></trkpt><trkpt lat="43.396705" lon="10.885095"><ele>403.6666666666667</ele><time>2026-04-25T10:06:19.725Z</time></trkpt><trkpt lat="43.39684" lon="10.8848617"><ele>406.0</ele><time>2026-04-25T10:06:20.722Z</time></trkpt><trkpt lat="43.3969717" lon="10.8846367"><ele>406.0</ele><time>2026-04-25T10:06:21.723Z</time></trkpt><trkpt lat="43.3970917" lon="10.88443"><ele>406.0</ele><time>2026-04-25T10:06:22.725Z</time></trkpt><trkpt lat="43.3971917" lon="10.8842333"><ele>406.0</ele><time>2026-04-25T10:06:23.726Z</time></trkpt><trkpt lat="43.3972517" lon="10.8840383"><ele>407.0</ele><time>2026-04-25T10:06:24.724Z</time></trkpt><trkpt lat="43.3972667" lon="10.88383"><ele>408.0</ele><time>2026-04-25T10:06:25.724Z</time></trkpt><trkpt lat="43.3972417" lon="10.8835967"><ele>409.0</ele><time>2026-04-25T10:06:26.727Z</time></trkpt><trkpt lat="43.3972033" lon="10.883345"><ele>411.33333333333337</ele><time>2026-04-25T10:06:27.724Z</time></trkpt><trkpt lat="43.397175" lon="10.883065"><ele>413.66666666666663</ele><time>2026-04-25T10:06:28.725Z</time></trkpt><trkpt lat="43.3971617" lon="10.8827767"><ele>416.0</ele><time>2026-04-25T10:06:29.724Z</time></trkpt><trkpt lat="43.3971533" lon="10.882485"><ele>415.3333333333333</ele><time>2026-04-25T10:06:30.725Z</time></trkpt><trkpt lat="43.3971333" lon="10.8821883"><ele>414.66666666666663</ele><time>2026-04-25T10:06:31.722Z</time></trkpt><trkpt lat="43.397085" lon="10.8818967"><ele>414.0</ele><time>2026-04-25T10:06:32.723Z</time></trkpt><trkpt lat="43.39703" lon="10.8815983"><ele>414.0</ele><time>2026-04-25T10:06:33.725Z</time></trkpt><trkpt lat="43.3969717" lon="10.8813033"><ele>414.0</ele><time>2026-04-25T10:06:34.724Z</time></trkpt><trkpt lat="43.396915" lon="10.8810217"><ele>414.0</ele><time>2026-04-25T10:06:35.724Z</time></trkpt><trkpt lat="43.39687" lon="10.8807433"><ele>417.33333333333337</ele><time>2026-04-25T10:06:36.726Z</time></trkpt><trkpt lat="43.3968367" lon="10.88048"><ele>420.6666666666667</ele><time>2026-04-25T10:06:37.726Z</time></trkpt><trkpt lat="43.3968183" lon="10.88023"><ele>424.0</ele><time>2026-04-25T10:06:38.726Z</time></trkpt><trkpt lat="43.3967917" lon="10.88002"><ele>426.25</ele><time>2026-04-25T10:06:39.722Z</time></trkpt><trkpt lat="43.396755" lon="10.8798283"><ele>428.5</ele><time>2026-04-25T10:06:40.725Z</time></trkpt><trkpt lat="43.3967217" lon="10.8796433"><ele>430.75</ele><time>2026-04-25T10:06:41.722Z</time></trkpt><trkpt lat="43.3966967" lon="10.87947"><ele>433.0</ele><time>2026-04-25T10:06:42.725Z</time></trkpt><trkpt lat="43.3966783" lon="10.8792717"><ele>434.75</ele><time>2026-04-25T10:06:43.726Z</time></trkpt><trkpt lat="43.3966717" lon="10.8790867"><ele>436.5</ele><time>2026-04-25T10:06:44.727Z</time></trkpt><trkpt lat="43.3966783" lon="10.8789083"><ele>438.25</ele><time>2026-04-25T10:06:45.723Z</time></trkpt><trkpt lat="43.3966933" lon="10.878735"><ele>440.0</ele><time>2026-04-25T10:06:46.723Z</time></trkpt><trkpt lat="43.3967267" lon="10.87857"><ele>439.75</ele><time>2026-04-25T10:06:47.723Z</time></trkpt><trkpt lat="43.3967733" lon="10.8784333"><ele>439.5</ele><time>2026-04-25T10:06:48.726Z</time></trkpt><trkpt lat="43.39683" lon="10.8782967"><ele>439.25</ele><time>2026-04-25T10:06:49.726Z</time></trkpt><trkpt lat="43.3968817" lon="10.8781317"><ele>439.0</ele><time>2026-04-25T10:06:50.724Z</time></trkpt><trkpt lat="43.3969283" lon="10.87793"><ele>439.0</ele><time>2026-04-25T10:06:51.723Z</time></trkpt><trkpt lat="43.3969767" lon="10.8776867"><ele>439.0</ele><time>2026-04-25T10:06:52.725Z</time></trkpt><trkpt lat="43.39703" lon="10.8774283"><ele>439.0</ele><time>2026-04-25T10:06:53.727Z</time></trkpt><trkpt lat="43.3970717" lon="10.8771717"><ele>439.0</ele><time>2026-04-25T10:06:54.726Z</time></trkpt><trkpt lat="43.3970983" lon="10.8769183"><ele>439.0</ele><time>2026-04-25T10:06:55.722Z</time></trkpt><trkpt lat="43.39712" lon="10.8766717"><ele>439.0</ele><time>2026-04-25T10:06:56.726Z</time></trkpt><trkpt lat="43.3971517" lon="10.8764383"><ele>448.33333333333337</ele><time>2026-04-25T10:06:57.725Z</time></trkpt><trkpt lat="43.3972017" lon="10.8762133"><ele>457.66666666666663</ele><time>2026-04-25T10:06:58.724Z</time></trkpt><trkpt lat="43.39727" lon="10.8759917"><ele>467.0</ele><time>2026-04-25T10:06:59.726Z</time></trkpt><trkpt lat="43.3973467" lon="10.8757733"><ele>467.0</ele><time>2026-04-25T10:07:00.725Z</time></trkpt><trkpt lat="43.39743" lon="10.87555"><ele>467.0</ele><time>2026-04-25T10:07:01.727Z</time></trkpt><trkpt lat="43.39751" lon="10.8753317"><ele>467.0</ele><time>2026-04-25T10:07:02.724Z</time></trkpt><trkpt lat="43.39758" lon="10.8751217"><ele>466.25</ele><time>2026-04-25T10:07:03.725Z</time></trkpt><trkpt lat="43.39764" lon="10.8749233"><ele>465.5</ele><time>2026-04-25T10:07:04.726Z</time></trkpt><trkpt lat="43.397695" lon="10.8747417"><ele>464.75</ele><time>2026-04-25T10:07:05.725Z</time></trkpt><trkpt lat="43.3977617" lon="10.8745767"><ele>464.0</ele><time>2026-04-25T10:07:06.725Z</time></trkpt><trkpt lat="43.3978467" lon="10.8744267"><ele>464.0</ele><time>2026-04-25T10:07:07.723Z</time></trkpt><trkpt lat="43.3979433" lon="10.874285"><ele>464.0</ele><time>2026-04-25T10:07:08.727Z</time></trkpt><trkpt lat="43.398045" lon="10.8741417"><ele>464.0</ele><time>2026-04-25T10:07:09.723Z</time></trkpt><trkpt lat="43.3981467" lon="10.874"><ele>464.0</ele><time>2026-04-25T10:07:10.723Z</time></trkpt><trkpt lat="43.3982467" lon="10.8738617"><ele>467.5</ele><time>2026-04-25T10:07:11.726Z</time></trkpt><trkpt lat="43.3983483" lon="10.8737133"><ele>471.0</ele><time>2026-04-25T10:07:12.725Z</time></trkpt><trkpt lat="43.3984433" lon="10.8735517"><ele>474.5</ele><time>2026-04-25T10:07:13.724Z</time></trkpt><trkpt lat="43.3985267" lon="10.8733867"><ele>478.0</ele><time>2026-04-25T10:07:14.725Z</time></trkpt><trkpt lat="43.3985967" lon="10.8732217"><ele>478.0</ele><time>2026-04-25T10:07:15.726Z</time></trkpt><trkpt lat="43.398665" lon="10.873055"><ele>478.0</ele><time>2026-04-25T10:07:16.726Z</time></trkpt><trkpt lat="43.398745" lon="10.8728817"><ele>478.0</ele><time>2026-04-25T10:07:17.725Z</time></trkpt><trkpt lat="43.3988333" lon="10.8727083"><ele>478.0</ele><time>2026-04-25T10:07:18.726Z</time></trkpt><trkpt lat="43.3989167" lon="10.8725533"><ele>481.0</ele><time>2026-04-25T10:07:19.724Z</time></trkpt><trkpt lat="43.3989983" lon="10.8724017"><ele>484.0</ele><time>2026-04-25T10:07:20.724Z</time></trkpt><trkpt lat="43.3990867" lon="10.87227"><ele>487.0</ele><time>2026-04-25T10:07:21.725Z</time></trkpt><trkpt lat="43.3991683" lon="10.8721567"><ele>490.0</ele><time>2026-04-25T10:07:22.724Z</time></trkpt><trkpt lat="43.3992433" lon="10.8720483"><ele>490.0</ele><time>2026-04-25T10:07:23.724Z</time></trkpt><trkpt lat="43.3993133" lon="10.8719467"><ele>490.0</ele><time>2026-04-25T10:07:24.724Z</time></trkpt><trkpt lat="43.3993767" lon="10.8718217"><ele>490.0</ele><time>2026-04-25T10:07:25.726Z</time></trkpt><trkpt lat="43.3994533" lon="10.8717017"><ele>490.0</ele><time>2026-04-25T10:07:26.727Z</time></trkpt><trkpt lat="43.3995267" lon="10.8715783"><ele>490.0</ele><time>2026-04-25T10:07:27.728Z</time></trkpt><trkpt lat="43.3995783" lon="10.8714583"><ele>490.4</ele><time>2026-04-25T10:07:28.723Z</time></trkpt><trkpt lat="43.399615" lon="10.87133"><ele>490.8</ele><time>2026-04-25T10:07:29.723Z</time></trkpt><trkpt lat="43.39964" lon="10.8711967"><ele>491.20000000000005</ele><time>2026-04-25T10:07:30.726Z</time></trkpt><trkpt lat="43.399665" lon="10.8710433"><ele>491.6</ele><time>2026-04-25T10:07:31.723Z</time></trkpt><trkpt lat="43.399685" lon="10.8708767"><ele>492.0</ele><time>2026-04-25T10:07:32.723Z</time></trkpt><trkpt lat="43.3996917" lon="10.8707133"><ele>492.5</ele><time>2026-04-25T10:07:33.722Z</time></trkpt><trkpt lat="43.39968" lon="10.87055"><ele>493.0</ele><time>2026-04-25T10:07:34.724Z</time></trkpt><trkpt lat="43.3996767" lon="10.8703867"><ele>493.5</ele><time>2026-04-25T10:07:35.723Z</time></trkpt><trkpt lat="43.3996633" lon="10.87022"><ele>494.0</ele><time>2026-04-25T10:07:36.726Z</time></trkpt><trkpt lat="43.3996533" lon="10.8700517"><ele>495.5</ele><time>2026-04-25T10:07:37.724Z</time></trkpt><trkpt lat="43.3996433" lon="10.86988"><ele>497.0</ele><time>2026-04-25T10:07:38.723Z</time></trkpt><trkpt lat="43.399625" lon="10.8696983"><ele>498.5</ele><time>2026-04-25T10:07:39.724Z</time></trkpt><trkpt lat="43.3996017" lon="10.869495"><ele>500.0</ele><time>2026-04-25T10:07:40.725Z</time></trkpt><trkpt lat="43.3995783" lon="10.8692983"><ele>500.25</ele><time>2026-04-25T10:07:41.724Z</time></trkpt><trkpt lat="43.3995383" lon="10.869125"><ele>500.5</ele><time>2026-04-25T10:07:42.724Z</time></trkpt><trkpt lat="43.3995017" lon="10.868945"><ele>500.75</ele><time>2026-04-25T10:07:43.726Z</time></trkpt><trkpt lat="43.39946" lon="10.8687633"><ele>501.0</ele><time>2026-04-25T10:07:44.726Z</time></trkpt><trkpt lat="43.39942" lon="10.868575"><ele>501.0</ele><time>2026-04-25T10:07:45.726Z</time></trkpt><trkpt lat="43.3993817" lon="10.868385"><ele>501.0</ele><time>2026-04-25T10:07:46.723Z</time></trkpt><trkpt lat="43.3993433" lon="10.8681967"><ele>501.0</ele><time>2026-04-25T10:07:47.726Z</time></trkpt><trkpt lat="43.399305" lon="10.8680117"><ele>501.0</ele><time>2026-04-25T10:07:48.725Z</time></trkpt><trkpt lat="43.3992717" lon="10.867825"><ele>501.0</ele><time>2026-04-25T10:07:49.724Z</time></trkpt><trkpt lat="43.3992533" lon="10.8676417"><ele>501.0</ele><time>2026-04-25T10:07:50.726Z</time></trkpt><trkpt lat="43.3992467" lon="10.8674467"><ele>501.0</ele><time>2026-04-25T10:07:51.725Z</time></trkpt><trkpt lat="43.3992417" lon="10.8672683"><ele>501.0</ele><time>2026-04-25T10:07:52.725Z</time></trkpt><trkpt lat="43.3992483" lon="10.8670967"><ele>502.20000000000005</ele><time>2026-04-25T10:07:53.725Z</time></trkpt><trkpt lat="43.399255" lon="10.86694"><ele>503.40000000000003</ele><time>2026-04-25T10:07:54.724Z</time></trkpt><trkpt lat="43.3992533" lon="10.8668117"><ele>504.6</ele><time>2026-04-25T10:07:55.726Z</time></trkpt><trkpt lat="43.3992533" lon="10.8666917"><ele>505.8</ele><time>2026-04-25T10:07:56.727Z</time></trkpt><trkpt lat="43.399255" lon="10.8665717"><ele>507.0</ele><time>2026-04-25T10:07:57.723Z</time></trkpt><trkpt lat="43.3992517" lon="10.8664583"><ele>508.1666666666667</ele><time>2026-04-25T10:07:58.724Z</time></trkpt><trkpt lat="43.39925" lon="10.8663567"><ele>509.33333333333337</ele><time>2026-04-25T10:07:59.725Z</time></trkpt><trkpt lat="43.3992467" lon="10.8662017"><ele>510.5</ele><time>2026-04-25T10:08:01.725Z</time></trkpt><trkpt lat="43.3992467" lon="10.8661"><ele>511.6666666666667</ele><time>2026-04-25T10:08:02.726Z</time></trkpt><trkpt lat="43.3992517" lon="10.86598"><ele>512.8333333333334</ele><time>2026-04-25T10:08:03.725Z</time></trkpt><trkpt lat="43.399255" lon="10.8658717"><ele>514.0</ele><time>2026-04-25T10:08:04.726Z</time></trkpt><trkpt lat="43.3992617" lon="10.86576"><ele>514.5</ele><time>2026-04-25T10:08:05.727Z</time></trkpt><trkpt lat="43.3992467" lon="10.8656733"><ele>515.0</ele><time>2026-04-25T10:08:06.726Z</time></trkpt><trkpt lat="43.3992067" lon="10.8655367"><ele>515.5</ele><time>2026-04-25T10:08:08.724Z</time></trkpt><trkpt lat="43.399175" lon="10.8653817"><ele>516.0</ele><time>2026-04-25T10:08:10.726Z</time></trkpt><trkpt lat="43.3991683" lon="10.865295"><ele>516.5</ele><time>2026-04-25T10:08:11.725Z</time></trkpt><trkpt lat="43.3991633" lon="10.8652"><ele>517.0</ele><time>2026-04-25T10:08:12.725Z</time></trkpt><trkpt lat="43.3991617" lon="10.865095"><ele>517.0</ele><time>2026-04-25T10:08:13.723Z</time></trkpt><trkpt lat="43.399165" lon="10.8649867"><ele>517.0</ele><time>2026-04-25T10:08:14.724Z</time></trkpt><trkpt lat="43.39917" lon="10.8648783"><ele>517.0</ele><time>2026-04-25T10:08:15.725Z</time></trkpt><trkpt lat="43.39917" lon="10.8647817"><ele>517.0</ele><time>2026-04-25T10:08:16.726Z</time></trkpt><trkpt lat="43.39917" lon="10.8646233"><ele>517.0</ele><time>2026-04-25T10:08:18.724Z</time></trkpt><trkpt lat="43.3991667" lon="10.864535"><ele>517.0</ele><time>2026-04-25T10:08:20.725Z</time></trkpt><trkpt lat="43.3992" lon="10.864445"><ele>517.0</ele><time>2026-04-25T10:08:28.725Z</time></trkpt><trkpt lat="43.3992633" lon="10.8643667"><ele>517.0</ele><time>2026-04-25T10:08:29.727Z</time></trkpt><trkpt lat="43.3992817" lon="10.8641867"><ele>517.0</ele><time>2026-04-25T10:08:31.727Z</time></trkpt><trkpt lat="43.399265" lon="10.86405"><ele>517.0</ele><time>2026-04-25T10:08:32.725Z</time></trkpt><trkpt lat="43.3992733" lon="10.8639167"><ele>517.0</ele><time>2026-04-25T10:08:33.725Z</time></trkpt><trkpt lat="43.3992733" lon="10.8637833"><ele>516.6</ele><time>2026-04-25T10:08:34.723Z</time></trkpt><trkpt lat="43.399285" lon="10.8636533"><ele>516.2</ele><time>2026-04-25T10:08:35.724Z</time></trkpt><trkpt lat="43.3992883" lon="10.8634967"><ele>515.8</ele><time>2026-04-25T10:08:36.725Z</time></trkpt><trkpt lat="43.3992933" lon="10.863335"><ele>515.4</ele><time>2026-04-25T10:08:37.725Z</time></trkpt><trkpt lat="43.3993017" lon="10.8631733"><ele>515.0</ele><time>2026-04-25T10:08:38.725Z</time></trkpt><trkpt lat="43.39931" lon="10.863"><ele>513.75</ele><time>2026-04-25T10:08:39.726Z</time></trkpt><trkpt lat="43.3993183" lon="10.8628233"><ele>512.5</ele><time>2026-04-25T10:08:40.724Z</time></trkpt><trkpt lat="43.3993317" lon="10.8626483"><ele>511.25</ele><time>2026-04-25T10:08:41.725Z</time></trkpt><trkpt lat="43.3993383" lon="10.8624717"><ele>510.0</ele><time>2026-04-25T10:08:42.725Z</time></trkpt><trkpt lat="43.39935" lon="10.862295"><ele>508.25</ele><time>2026-04-25T10:08:43.724Z</time></trkpt><trkpt lat="43.3993633" lon="10.862115"><ele>506.5</ele><time>2026-04-25T10:08:44.726Z</time></trkpt><trkpt lat="43.3993767" lon="10.861935"><ele>504.75</ele><time>2026-04-25T10:08:45.726Z</time></trkpt><trkpt lat="43.3993917" lon="10.8617583"><ele>503.0</ele><time>2026-04-25T10:08:46.726Z</time></trkpt><trkpt lat="43.3994083" lon="10.8615783"><ele>501.0</ele><time>2026-04-25T10:08:47.726Z</time></trkpt><trkpt lat="43.3994233" lon="10.8613967"><ele>499.0</ele><time>2026-04-25T10:08:48.725Z</time></trkpt><trkpt lat="43.3994417" lon="10.8612167"><ele>497.0</ele><time>2026-04-25T10:08:49.726Z</time></trkpt><trkpt lat="43.3994683" lon="10.86104"><ele>495.0</ele><time>2026-04-25T10:08:50.726Z</time></trkpt><trkpt lat="43.39948" lon="10.8608667"><ele>494.0</ele><time>2026-04-25T10:08:51.726Z</time></trkpt><trkpt lat="43.39949" lon="10.8607033"><ele>493.0</ele><time>2026-04-25T10:08:52.724Z</time></trkpt><trkpt lat="43.3994983" lon="10.86055"><ele>492.0</ele><time>2026-04-25T10:08:53.724Z</time></trkpt><trkpt lat="43.399505" lon="10.8604"><ele>491.0</ele><time>2026-04-25T10:08:54.725Z</time></trkpt><trkpt lat="43.3995217" lon="10.8602533"><ele>490.0</ele><time>2026-04-25T10:08:55.724Z</time></trkpt><trkpt lat="43.3995367" lon="10.86011"><ele>489.2</ele><time>2026-04-25T10:08:56.725Z</time></trkpt><trkpt lat="43.399545" lon="10.859965"><ele>488.4</ele><time>2026-04-25T10:08:57.726Z</time></trkpt><trkpt lat="43.399555" lon="10.8598267"><ele>487.6</ele><time>2026-04-25T10:08:58.725Z</time></trkpt><trkpt lat="43.39957" lon="10.8596933"><ele>486.8</ele><time>2026-04-25T10:08:59.725Z</time></trkpt><trkpt lat="43.3995867" lon="10.85956"><ele>486.0</ele><time>2026-04-25T10:09:00.725Z</time></trkpt><trkpt lat="43.399615" lon="10.8594417"><ele>486.0</ele><time>2026-04-25T10:09:01.725Z</time></trkpt><trkpt lat="43.3996633" lon="10.859335"><ele>486.0</ele><time>2026-04-25T10:09:02.726Z</time></trkpt><trkpt lat="43.3997183" lon="10.859245"><ele>486.0</ele><time>2026-04-25T10:09:03.726Z</time></trkpt><trkpt lat="43.3997717" lon="10.8591667"><ele>486.0</ele><time>2026-04-25T10:09:04.725Z</time></trkpt><trkpt lat="43.3998267" lon="10.8590883"><ele>486.0</ele><time>2026-04-25T10:09:05.724Z</time></trkpt><trkpt lat="43.39988" lon="10.8590183"><ele>486.0</ele><time>2026-04-25T10:09:06.725Z</time></trkpt><trkpt lat="43.3999417" lon="10.85895"><ele>488.1666666666667</ele><time>2026-04-25T10:09:07.726Z</time></trkpt><trkpt lat="43.3999967" lon="10.8588767"><ele>490.33333333333337</ele><time>2026-04-25T10:09:08.724Z</time></trkpt><trkpt lat="43.4000583" lon="10.8588017"><ele>492.5</ele><time>2026-04-25T10:09:09.726Z</time></trkpt><trkpt lat="43.400125" lon="10.858725"><ele>494.6666666666667</ele><time>2026-04-25T10:09:10.724Z</time></trkpt><trkpt lat="43.400185" lon="10.85864"><ele>496.83333333333337</ele><time>2026-04-25T10:09:11.726Z</time></trkpt><trkpt lat="43.4002483" lon="10.8585517"><ele>499.0</ele><time>2026-04-25T10:09:12.726Z</time></trkpt><trkpt lat="43.4003033" lon="10.85847"><ele>501.00000000000006</ele><time>2026-04-25T10:09:13.725Z</time></trkpt><trkpt lat="43.400355" lon="10.8583917"><ele>503.0</ele><time>2026-04-25T10:09:14.726Z</time></trkpt><trkpt lat="43.4004017" lon="10.858325"><ele>505.0</ele><time>2026-04-25T10:09:15.725Z</time></trkpt><trkpt lat="43.4004467" lon="10.8582617"><ele>507.0</ele><time>2026-04-25T10:09:16.726Z</time></trkpt><trkpt lat="43.4004917" lon="10.85819"><ele>509.00000000000006</ele><time>2026-04-25T10:09:17.725Z</time></trkpt><trkpt lat="43.4005433" lon="10.8580467"><ele>511.0</ele><time>2026-04-25T10:09:19.725Z</time></trkpt><trkpt lat="43.40049" lon="10.85796"><ele>506.0</ele><time>2026-04-25T10:09:21.725Z</time></trkpt><trkpt lat="43.4004083" lon="10.857985"><ele>501.0</ele><time>2026-04-25T10:09:22.725Z</time></trkpt><trkpt lat="43.40032" lon="10.8580317"><ele>496.0</ele><time>2026-04-25T10:09:23.726Z</time></trkpt><trkpt lat="43.4002433" lon="10.8580733"><ele>491.0</ele><time>2026-04-25T10:09:24.725Z</time></trkpt><trkpt lat="43.40011" lon="10.8581433"><ele>486.0</ele><time>2026-04-25T10:09:25.725Z</time></trkpt><trkpt lat="43.399965" lon="10.8582033"><ele>486.0</ele><time>2026-04-25T10:09:26.725Z</time></trkpt><trkpt lat="43.3998083" lon="10.8582617"><ele>486.0</ele><time>2026-04-25T10:09:27.723Z</time></trkpt><trkpt lat="43.399655" lon="10.8583133"><ele>486.0</ele><time>2026-04-25T10:09:28.726Z</time></trkpt><trkpt lat="43.3995183" lon="10.8583733"><ele>484.5</ele><time>2026-04-25T10:09:29.723Z</time></trkpt><trkpt lat="43.3993933" lon="10.858435"><ele>483.0</ele><time>2026-04-25T10:09:30.726Z</time></trkpt><trkpt lat="43.399275" lon="10.8585233"><ele>481.5</ele><time>2026-04-25T10:09:31.724Z</time></trkpt><trkpt lat="43.39917" lon="10.8586317"><ele>480.0</ele><time>2026-04-25T10:09:32.724Z</time></trkpt><trkpt lat="43.399065" lon="10.8587583"><ele>480.0</ele><time>2026-04-25T10:09:33.725Z</time></trkpt><trkpt lat="43.3989817" lon="10.8588933"><ele>480.0</ele><time>2026-04-25T10:09:34.724Z</time></trkpt><trkpt lat="43.398915" lon="10.8590333"><ele>480.0</ele><time>2026-04-25T10:09:35.726Z</time></trkpt><trkpt lat="43.3988567" lon="10.8591617"><ele>480.0</ele><time>2026-04-25T10:09:36.725Z</time></trkpt><trkpt lat="43.39881" lon="10.8592633"><ele>480.0</ele><time>2026-04-25T10:09:37.723Z</time></trkpt><trkpt lat="43.3987567" lon="10.8593417"><ele>476.0</ele><time>2026-04-25T10:09:38.725Z</time></trkpt><trkpt lat="43.39867" lon="10.85936"><ele>472.0</ele><time>2026-04-25T10:09:40.724Z</time></trkpt><trkpt lat="43.39864" lon="10.859245"><ele>468.0</ele><time>2026-04-25T10:09:41.724Z</time></trkpt><trkpt lat="43.3986333" lon="10.859095"><ele>464.0</ele><time>2026-04-25T10:09:42.725Z</time></trkpt><trkpt lat="43.3986217" lon="10.8589183"><ele>460.0</ele><time>2026-04-25T10:09:43.725Z</time></trkpt><trkpt lat="43.3985933" lon="10.85873"><ele>459.25</ele><time>2026-04-25T10:09:44.724Z</time></trkpt><trkpt lat="43.39857" lon="10.8585283"><ele>458.5</ele><time>2026-04-25T10:09:45.724Z</time></trkpt><trkpt lat="43.3985533" lon="10.8583483"><ele>457.75</ele><time>2026-04-25T10:09:46.722Z</time></trkpt><trkpt lat="43.3985517" lon="10.8581817"><ele>457.0</ele><time>2026-04-25T10:09:47.725Z</time></trkpt><trkpt lat="43.398575" lon="10.8580083"><ele>456.75</ele><time>2026-04-25T10:09:48.724Z</time></trkpt><trkpt lat="43.398615" lon="10.8578333"><ele>456.5</ele><time>2026-04-25T10:09:49.722Z</time></trkpt><trkpt lat="43.3986683" lon="10.857655"><ele>456.25</ele><time>2026-04-25T10:09:50.725Z</time></trkpt><trkpt lat="43.3987333" lon="10.8574633"><ele>456.0</ele><time>2026-04-25T10:09:51.725Z</time></trkpt><trkpt lat="43.39878" lon="10.85727"><ele>455.5</ele><time>2026-04-25T10:09:52.724Z</time></trkpt><trkpt lat="43.3988033" lon="10.8570733"><ele>455.0</ele><time>2026-04-25T10:09:53.723Z</time></trkpt><trkpt lat="43.3988167" lon="10.8568667"><ele>454.5</ele><time>2026-04-25T10:09:54.724Z</time></trkpt><trkpt lat="43.3988183" lon="10.85666"><ele>454.0</ele><time>2026-04-25T10:09:55.725Z</time></trkpt><trkpt lat="43.398825" lon="10.856455"><ele>453.5</ele><time>2026-04-25T10:09:56.724Z</time></trkpt><trkpt lat="43.398835" lon="10.85626"><ele>453.0</ele><time>2026-04-25T10:09:57.724Z</time></trkpt><trkpt lat="43.3988433" lon="10.8560767"><ele>452.5</ele><time>2026-04-25T10:09:58.724Z</time></trkpt><trkpt lat="43.3988567" lon="10.8559117"><ele>452.0</ele><time>2026-04-25T10:09:59.725Z</time></trkpt><trkpt lat="43.39889" lon="10.8557717"><ele>452.0</ele><time>2026-04-25T10:10:00.726Z</time></trkpt><trkpt lat="43.3989517" lon="10.855655"><ele>452.0</ele><time>2026-04-25T10:10:01.726Z</time></trkpt><trkpt lat="43.399055" lon="10.85557"><ele>452.0</ele><time>2026-04-25T10:10:02.726Z</time></trkpt><trkpt lat="43.3991817" lon="10.855525"><ele>452.0</ele><time>2026-04-25T10:10:03.726Z</time></trkpt><trkpt lat="43.3993233" lon="10.8554983"><ele>452.0</ele><time>2026-04-25T10:10:04.728Z</time></trkpt><trkpt lat="43.39947" lon="10.85546"><ele>452.0</ele><time>2026-04-25T10:10:05.726Z</time></trkpt><trkpt lat="43.3996133" lon="10.85541"><ele>452.0</ele><time>2026-04-25T10:10:06.726Z</time></trkpt><trkpt lat="43.3997467" lon="10.8553433"><ele>452.0</ele><time>2026-04-25T10:10:07.726Z</time></trkpt><trkpt lat="43.39987" lon="10.8552667"><ele>452.5</ele><time>2026-04-25T10:10:08.726Z</time></trkpt><trkpt lat="43.3999817" lon="10.855185"><ele>453.0</ele><time>2026-04-25T10:10:09.723Z</time></trkpt><trkpt lat="43.4000867" lon="10.8551083"><ele>453.5</ele><time>2026-04-25T10:10:10.726Z</time></trkpt><trkpt lat="43.4001867" lon="10.8550333"><ele>454.0</ele><time>2026-04-25T10:10:11.726Z</time></trkpt><trkpt lat="43.40028" lon="10.85496"><ele>453.4</ele><time>2026-04-25T10:10:12.724Z</time></trkpt><trkpt lat="43.4003683" lon="10.8548833"><ele>452.79999999999995</ele><time>2026-04-25T10:10:13.726Z</time></trkpt><trkpt lat="43.400455" lon="10.854805"><ele>452.20000000000005</ele><time>2026-04-25T10:10:14.726Z</time></trkpt><trkpt lat="43.4005317" lon="10.8547133"><ele>451.6</ele><time>2026-04-25T10:10:15.724Z</time></trkpt><trkpt lat="43.400595" lon="10.854605"><ele>451.0</ele><time>2026-04-25T10:10:16.723Z</time></trkpt><trkpt lat="43.4006433" lon="10.85448"><ele>451.0</ele><time>2026-04-25T10:10:17.724Z</time></trkpt><trkpt lat="43.40068" lon="10.8543433"><ele>451.0</ele><time>2026-04-25T10:10:18.724Z</time></trkpt><trkpt lat="43.4006983" lon="10.8541983"><ele>451.0</ele><time>2026-04-25T10:10:19.724Z</time></trkpt><trkpt lat="43.40071" lon="10.8540367"><ele>451.0</ele><time>2026-04-25T10:10:20.725Z</time></trkpt><trkpt lat="43.400735" lon="10.853865"><ele>447.0</ele><time>2026-04-25T10:10:21.725Z</time></trkpt><trkpt lat="43.4007783" lon="10.8536883"><ele>443.0</ele><time>2026-04-25T10:10:22.724Z</time></trkpt><trkpt lat="43.40085" lon="10.8534933"><ele>439.0</ele><time>2026-04-25T10:10:23.724Z</time></trkpt><trkpt lat="43.4009283" lon="10.8532767"><ele>436.33333333333337</ele><time>2026-04-25T10:10:24.725Z</time></trkpt><trkpt lat="43.4009917" lon="10.8530533"><ele>433.66666666666663</ele><time>2026-04-25T10:10:25.725Z</time></trkpt><trkpt lat="43.4010233" lon="10.85284"><ele>431.0</ele><time>2026-04-25T10:10:26.724Z</time></trkpt><trkpt lat="43.4010467" lon="10.8526333"><ele>428.3333333333333</ele><time>2026-04-25T10:10:27.724Z</time></trkpt><trkpt lat="43.4011017" lon="10.852435"><ele>425.66666666666663</ele><time>2026-04-25T10:10:28.724Z</time></trkpt><trkpt lat="43.4011883" lon="10.8522617"><ele>423.0</ele><time>2026-04-25T10:10:29.724Z</time></trkpt><trkpt lat="43.4013017" lon="10.852105"><ele>424.0</ele><time>2026-04-25T10:10:30.725Z</time></trkpt><trkpt lat="43.4014233" lon="10.8519633"><ele>425.0</ele><time>2026-04-25T10:10:31.724Z</time></trkpt><trkpt lat="43.4015533" lon="10.8518483"><ele>426.0</ele><time>2026-04-25T10:10:32.728Z</time></trkpt><trkpt lat="43.401685" lon="10.8517517"><ele>426.0</ele><time>2026-04-25T10:10:33.726Z</time></trkpt><trkpt lat="43.401815" lon="10.85168"><ele>426.0</ele><time>2026-04-25T10:10:34.725Z</time></trkpt><trkpt lat="43.4019233" lon="10.851615"><ele>426.0</ele><time>2026-04-25T10:10:35.727Z</time></trkpt><trkpt lat="43.4020017" lon="10.8515467"><ele>426.0</ele><time>2026-04-25T10:10:36.726Z</time></trkpt><trkpt lat="43.4020533" lon="10.8514667"><ele>426.0</ele><time>2026-04-25T10:10:37.725Z</time></trkpt><trkpt lat="43.4020917" lon="10.8513917"><ele>426.0</ele><time>2026-04-25T10:10:38.724Z</time></trkpt><trkpt lat="43.4020817" lon="10.8513"><ele>426.0</ele><time>2026-04-25T10:10:39.725Z</time></trkpt><trkpt lat="43.4019733" lon="10.8512767"><ele>426.0</ele><time>2026-04-25T10:10:40.726Z</time></trkpt><trkpt lat="43.40184" lon="10.8513217"><ele>426.0</ele><time>2026-04-25T10:10:41.725Z</time></trkpt><trkpt lat="43.40168" lon="10.8513667"><ele>426.0</ele><time>2026-04-25T10:10:42.727Z</time></trkpt><trkpt lat="43.4015017" lon="10.85142"><ele>426.0</ele><time>2026-04-25T10:10:43.727Z</time></trkpt><trkpt lat="43.4013183" lon="10.8514817"><ele>426.0</ele><time>2026-04-25T10:10:44.726Z</time></trkpt><trkpt lat="43.4011383" lon="10.8515467"><ele>425.0</ele><time>2026-04-25T10:10:45.726Z</time></trkpt><trkpt lat="43.4009667" lon="10.8516233"><ele>424.0</ele><time>2026-04-25T10:10:46.726Z</time></trkpt><trkpt lat="43.4008117" lon="10.8517183"><ele>423.0</ele><time>2026-04-25T10:10:47.726Z</time></trkpt><trkpt lat="43.40066" lon="10.85184"><ele>423.0</ele><time>2026-04-25T10:10:48.725Z</time></trkpt><trkpt lat="43.4005133" lon="10.8519717"><ele>423.0</ele><time>2026-04-25T10:10:49.727Z</time></trkpt><trkpt lat="43.40037" lon="10.8520983"><ele>423.0</ele><time>2026-04-25T10:10:50.726Z</time></trkpt><trkpt lat="43.4002333" lon="10.8522283"><ele>422.0</ele><time>2026-04-25T10:10:51.726Z</time></trkpt><trkpt lat="43.4001033" lon="10.852355"><ele>421.0</ele><time>2026-04-25T10:10:52.725Z</time></trkpt><trkpt lat="43.3999867" lon="10.8524867"><ele>420.0</ele><time>2026-04-25T10:10:53.725Z</time></trkpt><trkpt lat="43.3998917" lon="10.8526283"><ele>420.0</ele><time>2026-04-25T10:10:54.725Z</time></trkpt><trkpt lat="43.3998117" lon="10.8527817"><ele>420.0</ele><time>2026-04-25T10:10:55.725Z</time></trkpt><trkpt lat="43.399735" lon="10.8529267"><ele>420.0</ele><time>2026-04-25T10:10:56.726Z</time></trkpt><trkpt lat="43.39965" lon="10.8530283"><ele>420.0</ele><time>2026-04-25T10:10:57.724Z</time></trkpt><trkpt lat="43.399545" lon="10.8530867"><ele>417.5</ele><time>2026-04-25T10:10:58.723Z</time></trkpt><trkpt lat="43.3994367" lon="10.8530883"><ele>415.0</ele><time>2026-04-25T10:10:59.724Z</time></trkpt><trkpt lat="43.3993233" lon="10.8530283"><ele>412.5</ele><time>2026-04-25T10:11:00.724Z</time></trkpt><trkpt lat="43.399215" lon="10.8529283"><ele>410.0</ele><time>2026-04-25T10:11:01.724Z</time></trkpt><trkpt lat="43.3991133" lon="10.8528017"><ele>410.0</ele><time>2026-04-25T10:11:02.726Z</time></trkpt><trkpt lat="43.39901" lon="10.8526817"><ele>410.0</ele><time>2026-04-25T10:11:03.722Z</time></trkpt><trkpt lat="43.3989083" lon="10.85257"><ele>410.0</ele><time>2026-04-25T10:11:04.724Z</time></trkpt><trkpt lat="43.3988133" lon="10.8524467"><ele>410.0</ele><time>2026-04-25T10:11:05.725Z</time></trkpt><trkpt lat="43.3987383" lon="10.852295"><ele>408.25</ele><time>2026-04-25T10:11:06.725Z</time></trkpt><trkpt lat="43.3986817" lon="10.8521283"><ele>406.5</ele><time>2026-04-25T10:11:07.725Z</time></trkpt><trkpt lat="43.3986367" lon="10.8519483"><ele>404.75</ele><time>2026-04-25T10:11:08.724Z</time></trkpt><trkpt lat="43.3985983" lon="10.8517717"><ele>403.0</ele><time>2026-04-25T10:11:09.723Z</time></trkpt><trkpt lat="43.3985617" lon="10.8516067"><ele>402.0</ele><time>2026-04-25T10:11:10.724Z</time></trkpt><trkpt lat="43.3985217" lon="10.8514517"><ele>401.0</ele><time>2026-04-25T10:11:11.725Z</time></trkpt><trkpt lat="43.3984633" lon="10.8513267"><ele>400.0</ele><time>2026-04-25T10:11:12.728Z</time></trkpt><trkpt lat="43.3983833" lon="10.851225"><ele>399.0</ele><time>2026-04-25T10:11:13.727Z</time></trkpt><trkpt lat="43.398295" lon="10.851165"><ele>398.0</ele><time>2026-04-25T10:11:14.728Z</time></trkpt><trkpt lat="43.398195" lon="10.85115"><ele>398.0</ele><time>2026-04-25T10:11:15.724Z</time></trkpt><trkpt lat="43.3980883" lon="10.8511983"><ele>398.0</ele><time>2026-04-25T10:11:16.728Z</time></trkpt><trkpt lat="43.39795" lon="10.851295"><ele>398.0</ele><time>2026-04-25T10:11:17.726Z</time></trkpt><trkpt lat="43.3978217" lon="10.8513883"><ele>398.0</ele><time>2026-04-25T10:11:18.726Z</time></trkpt><trkpt lat="43.3977033" lon="10.8514783"><ele>397.0</ele><time>2026-04-25T10:11:19.724Z</time></trkpt><trkpt lat="43.3975783" lon="10.851585"><ele>396.0</ele><time>2026-04-25T10:11:20.728Z</time></trkpt><trkpt lat="43.39746" lon="10.85174"><ele>395.0</ele><time>2026-04-25T10:11:21.727Z</time></trkpt><trkpt lat="43.3973217" lon="10.8519517"><ele>395.0</ele><time>2026-04-25T10:11:22.725Z</time></trkpt><trkpt lat="43.39718" lon="10.8521767"><ele>395.0</ele><time>2026-04-25T10:11:23.726Z</time></trkpt><trkpt lat="43.3970367" lon="10.8523867"><ele>395.0</ele><time>2026-04-25T10:11:24.725Z</time></trkpt><trkpt lat="43.3968817" lon="10.85259"><ele>392.66666666666663</ele><time>2026-04-25T10:11:25.724Z</time></trkpt><trkpt lat="43.3967183" lon="10.8527683"><ele>390.33333333333337</ele><time>2026-04-25T10:11:26.724Z</time></trkpt><trkpt lat="43.3965483" lon="10.852915"><ele>388.0</ele><time>2026-04-25T10:11:27.726Z</time></trkpt><trkpt lat="43.396395" lon="10.8530383"><ele>384.0</ele><time>2026-04-25T10:11:28.723Z</time></trkpt><trkpt lat="43.3962583" lon="10.8531517"><ele>380.0</ele><time>2026-04-25T10:11:29.725Z</time></trkpt><trkpt lat="43.396135" lon="10.853255"><ele>376.0</ele><time>2026-04-25T10:11:30.724Z</time></trkpt><trkpt lat="43.3960317" lon="10.8533433"><ele>372.0</ele><time>2026-04-25T10:11:31.724Z</time></trkpt><trkpt lat="43.3959433" lon="10.853415"><ele>372.0</ele><time>2026-04-25T10:11:32.725Z</time></trkpt><trkpt lat="43.39586" lon="10.8534633"><ele>372.0</ele><time>2026-04-25T10:11:33.726Z</time></trkpt><trkpt lat="43.3957767" lon="10.853485"><ele>372.0</ele><time>2026-04-25T10:11:34.726Z</time></trkpt><trkpt lat="43.3957133" lon="10.8534733"><ele>372.0</ele><time>2026-04-25T10:11:35.724Z</time></trkpt><trkpt lat="43.39569" lon="10.853305"><ele>372.0</ele><time>2026-04-25T10:11:37.724Z</time></trkpt><trkpt lat="43.3957267" lon="10.8531883"><ele>372.0</ele><time>2026-04-25T10:11:38.726Z</time></trkpt><trkpt lat="43.3957833" lon="10.8530933"><ele>372.0</ele><time>2026-04-25T10:11:39.725Z</time></trkpt><trkpt lat="43.3958667" lon="10.8529983"><ele>372.0</ele><time>2026-04-25T10:11:40.725Z</time></trkpt><trkpt lat="43.39596" lon="10.8529083"><ele>372.0</ele><time>2026-04-25T10:11:41.725Z</time></trkpt><trkpt lat="43.3960517" lon="10.8528083"><ele>372.0</ele><time>2026-04-25T10:11:42.725Z</time></trkpt><trkpt lat="43.39613" lon="10.85269"><ele>370.0</ele><time>2026-04-25T10:11:43.724Z</time></trkpt><trkpt lat="43.396195" lon="10.852555"><ele>368.0</ele><time>2026-04-25T10:11:44.725Z</time></trkpt><trkpt lat="43.396245" lon="10.8523817"><ele>366.0</ele><time>2026-04-25T10:11:45.723Z</time></trkpt><trkpt lat="43.3962783" lon="10.8521467"><ele>364.0</ele><time>2026-04-25T10:11:46.725Z</time></trkpt><trkpt lat="43.3963133" lon="10.85186"><ele>367.3333333333333</ele><time>2026-04-25T10:11:47.725Z</time></trkpt><trkpt lat="43.3963533" lon="10.8515633"><ele>370.6666666666667</ele><time>2026-04-25T10:11:48.723Z</time></trkpt><trkpt lat="43.3964017" lon="10.8512667"><ele>374.0</ele><time>2026-04-25T10:11:49.724Z</time></trkpt><trkpt lat="43.396455" lon="10.8509767"><ele>372.0</ele><time>2026-04-25T10:11:50.725Z</time></trkpt><trkpt lat="43.39651" lon="10.8506983"><ele>370.0</ele><time>2026-04-25T10:11:51.725Z</time></trkpt><trkpt lat="43.3965667" lon="10.85043"><ele>368.0</ele><time>2026-04-25T10:11:52.724Z</time></trkpt><trkpt lat="43.39663" lon="10.850165"><ele>365.33333333333337</ele><time>2026-04-25T10:11:53.725Z</time></trkpt><trkpt lat="43.396705" lon="10.84991"><ele>362.6666666666667</ele><time>2026-04-25T10:11:54.724Z</time></trkpt><trkpt lat="43.396795" lon="10.8496633"><ele>360.0</ele><time>2026-04-25T10:11:55.724Z</time></trkpt><trkpt lat="43.3968917" lon="10.8494217"><ele>356.6666666666667</ele><time>2026-04-25T10:11:56.725Z</time></trkpt><trkpt lat="43.3969883" lon="10.8491917"><ele>353.33333333333337</ele><time>2026-04-25T10:11:57.723Z</time></trkpt><trkpt lat="43.3970817" lon="10.8489733"><ele>350.0</ele><time>2026-04-25T10:11:58.724Z</time></trkpt><trkpt lat="43.397165" lon="10.84878"><ele>348.8</ele><time>2026-04-25T10:11:59.725Z</time></trkpt><trkpt lat="43.3972217" lon="10.8486083"><ele>347.6</ele><time>2026-04-25T10:12:00.726Z</time></trkpt><trkpt lat="43.3972467" lon="10.8484483"><ele>346.4</ele><time>2026-04-25T10:12:01.724Z</time></trkpt><trkpt lat="43.3972233" lon="10.8483217"><ele>345.2</ele><time>2026-04-25T10:12:02.725Z</time></trkpt><trkpt lat="43.3971683" lon="10.8482317"><ele>344.0</ele><time>2026-04-25T10:12:03.724Z</time></trkpt><trkpt lat="43.3970667" lon="10.848245"><ele>344.0</ele><time>2026-04-25T10:12:04.725Z</time></trkpt><trkpt lat="43.3969433" lon="10.8483283"><ele>344.0</ele><time>2026-04-25T10:12:05.725Z</time></trkpt><trkpt lat="43.396825" lon="10.848455"><ele>344.0</ele><time>2026-04-25T10:12:06.725Z</time></trkpt><trkpt lat="43.3966767" lon="10.84864"><ele>346.0</ele><time>2026-04-25T10:12:07.723Z</time></trkpt><trkpt lat="43.39652" lon="10.84883"><ele>348.0</ele><time>2026-04-25T10:12:08.724Z</time></trkpt><trkpt lat="43.3963533" lon="10.8489967"><ele>350.0</ele><time>2026-04-25T10:12:09.725Z</time></trkpt><trkpt lat="43.3961733" lon="10.8491167"><ele>349.0</ele><time>2026-04-25T10:12:10.725Z</time></trkpt><trkpt lat="43.39598" lon="10.84921"><ele>348.0</ele><time>2026-04-25T10:12:11.725Z</time></trkpt><trkpt lat="43.3957833" lon="10.849305"><ele>347.0</ele><time>2026-04-25T10:12:12.724Z</time></trkpt><trkpt lat="43.395595" lon="10.8494333"><ele>342.6666666666667</ele><time>2026-04-25T10:12:13.725Z</time></trkpt><trkpt lat="43.3954217" lon="10.8495867"><ele>338.3333333333333</ele><time>2026-04-25T10:12:14.725Z</time></trkpt><trkpt lat="43.3952633" lon="10.8497333"><ele>334.0</ele><time>2026-04-25T10:12:15.724Z</time></trkpt><trkpt lat="43.3951333" lon="10.8498817"><ele>334.0</ele><time>2026-04-25T10:12:16.725Z</time></trkpt><trkpt lat="43.3950367" lon="10.8500383"><ele>334.0</ele><time>2026-04-25T10:12:17.725Z</time></trkpt><trkpt lat="43.3949817" lon="10.8502083"><ele>334.0</ele><time>2026-04-25T10:12:18.724Z</time></trkpt><trkpt lat="43.394935" lon="10.8503483"><ele>334.0</ele><time>2026-04-25T10:12:19.725Z</time></trkpt><trkpt lat="43.39488" lon="10.850445"><ele>334.0</ele><time>2026-04-25T10:12:20.725Z</time></trkpt><trkpt lat="43.394775" lon="10.8504583"><ele>334.0</ele><time>2026-04-25T10:12:22.726Z</time></trkpt><trkpt lat="43.394765" lon="10.850235"><ele>334.0</ele><time>2026-04-25T10:12:24.724Z</time></trkpt><trkpt lat="43.3948133" lon="10.8500633"><ele>334.0</ele><time>2026-04-25T10:12:25.726Z</time></trkpt><trkpt lat="43.394895" lon="10.84983"><ele>334.0</ele><time>2026-04-25T10:12:26.727Z</time></trkpt><trkpt lat="43.39498" lon="10.8495783"><ele>334.0</ele><time>2026-04-25T10:12:27.724Z</time></trkpt><trkpt lat="43.3950617" lon="10.8493117"><ele>334.0</ele><time>2026-04-25T10:12:28.725Z</time></trkpt><trkpt lat="43.3951333" lon="10.84905"><ele>331.0</ele><time>2026-04-25T10:12:29.726Z</time></trkpt><trkpt lat="43.3951933" lon="10.8488067"><ele>328.0</ele><time>2026-04-25T10:12:30.725Z</time></trkpt><trkpt lat="43.3952517" lon="10.8485883"><ele>325.0</ele><time>2026-04-25T10:12:31.726Z</time></trkpt><trkpt lat="43.3952917" lon="10.8484083"><ele>323.8</ele><time>2026-04-25T10:12:32.725Z</time></trkpt><trkpt lat="43.395305" lon="10.84826"><ele>322.6</ele><time>2026-04-25T10:12:33.724Z</time></trkpt><trkpt lat="43.395285" lon="10.8481317"><ele>321.4</ele><time>2026-04-25T10:12:34.726Z</time></trkpt><trkpt lat="43.3952267" lon="10.8480383"><ele>320.2</ele><time>2026-04-25T10:12:35.724Z</time></trkpt><trkpt lat="43.3951333" lon="10.8480017"><ele>319.0</ele><time>2026-04-25T10:12:36.724Z</time></trkpt><trkpt lat="43.395015" lon="10.8480233"><ele>319.0</ele><time>2026-04-25T10:12:37.725Z</time></trkpt><trkpt lat="43.394895" lon="10.8480917"><ele>319.0</ele><time>2026-04-25T10:12:38.725Z</time></trkpt><trkpt lat="43.3947683" lon="10.8482517"><ele>319.0</ele><time>2026-04-25T10:12:39.725Z</time></trkpt><trkpt lat="43.39468" lon="10.848445"><ele>317.3333333333333</ele><time>2026-04-25T10:12:40.725Z</time></trkpt><trkpt lat="43.3946167" lon="10.8486883"><ele>315.6666666666667</ele><time>2026-04-25T10:12:41.723Z</time></trkpt><trkpt lat="43.3945383" lon="10.8489067"><ele>314.0</ele><time>2026-04-25T10:12:42.725Z</time></trkpt><trkpt lat="43.3944383" lon="10.8490517"><ele>314.0</ele><time>2026-04-25T10:12:43.725Z</time></trkpt><trkpt lat="43.39432" lon="10.8491233"><ele>314.0</ele><time>2026-04-25T10:12:44.724Z</time></trkpt><trkpt lat="43.3941833" lon="10.8491383"><ele>314.0</ele><time>2026-04-25T10:12:45.725Z</time></trkpt><trkpt lat="43.3939933" lon="10.849095"><ele>312.6666666666667</ele><time>2026-04-25T10:12:46.724Z</time></trkpt><trkpt lat="43.3937917" lon="10.8490733"><ele>311.3333333333333</ele><time>2026-04-25T10:12:47.725Z</time></trkpt><trkpt lat="43.3935833" lon="10.8490717"><ele>310.0</ele><time>2026-04-25T10:12:48.724Z</time></trkpt><trkpt lat="43.3933683" lon="10.84909"><ele>310.0</ele><time>2026-04-25T10:12:49.725Z</time></trkpt><trkpt lat="43.3931533" lon="10.8491017"><ele>310.0</ele><time>2026-04-25T10:12:50.724Z</time></trkpt><trkpt lat="43.3929433" lon="10.8490917"><ele>310.0</ele><time>2026-04-25T10:12:51.725Z</time></trkpt><trkpt lat="43.3927367" lon="10.8490367"><ele>306.3333333333333</ele><time>2026-04-25T10:12:52.726Z</time></trkpt><trkpt lat="43.392535" lon="10.848945"><ele>302.6666666666667</ele><time>2026-04-25T10:12:53.723Z</time></trkpt><trkpt lat="43.3923417" lon="10.8488117"><ele>299.0</ele><time>2026-04-25T10:12:54.724Z</time></trkpt><trkpt lat="43.3921583" lon="10.8486433"><ele>295.0</ele><time>2026-04-25T10:12:55.724Z</time></trkpt><trkpt lat="43.3919767" lon="10.848455"><ele>291.0</ele><time>2026-04-25T10:12:56.726Z</time></trkpt><trkpt lat="43.3917983" lon="10.848265"><ele>291.0</ele><time>2026-04-25T10:12:57.724Z</time></trkpt><trkpt lat="43.3916233" lon="10.8480683"><ele>291.0</ele><time>2026-04-25T10:12:58.725Z</time></trkpt><trkpt lat="43.3914617" lon="10.8478583"><ele>291.0</ele><time>2026-04-25T10:12:59.726Z</time></trkpt><trkpt lat="43.391315" lon="10.8476217"><ele>291.6666666666667</ele><time>2026-04-25T10:13:00.723Z</time></trkpt><trkpt lat="43.391185" lon="10.847365"><ele>292.33333333333337</ele><time>2026-04-25T10:13:01.724Z</time></trkpt><trkpt lat="43.391065" lon="10.8471083"><ele>293.0</ele><time>2026-04-25T10:13:02.725Z</time></trkpt><trkpt lat="43.3909583" lon="10.8468567"><ele>292.33333333333337</ele><time>2026-04-25T10:13:03.724Z</time></trkpt><trkpt lat="43.39086" lon="10.84662"><ele>291.6666666666667</ele><time>2026-04-25T10:13:04.725Z</time></trkpt><trkpt lat="43.39077" lon="10.8464083"><ele>291.0</ele><time>2026-04-25T10:13:05.725Z</time></trkpt><trkpt lat="43.3906767" lon="10.8462283"><ele>291.0</ele><time>2026-04-25T10:13:06.724Z</time></trkpt><trkpt lat="43.3905683" lon="10.8460917"><ele>291.0</ele><time>2026-04-25T10:13:07.725Z</time></trkpt><trkpt lat="43.3904433" lon="10.846"><ele>291.0</ele><time>2026-04-25T10:13:08.723Z</time></trkpt><trkpt lat="43.3903117" lon="10.8459533"><ele>291.0</ele><time>2026-04-25T10:13:09.726Z</time></trkpt><trkpt lat="43.39017" lon="10.8459667"><ele>290.75</ele><time>2026-04-25T10:13:10.725Z</time></trkpt><trkpt lat="43.3900333" lon="10.8460283"><ele>290.5</ele><time>2026-04-25T10:13:11.724Z</time></trkpt><trkpt lat="43.389905" lon="10.846115"><ele>290.25</ele><time>2026-04-25T10:13:12.725Z</time></trkpt><trkpt lat="43.38979" lon="10.8462017"><ele>290.0</ele><time>2026-04-25T10:13:13.725Z</time></trkpt><trkpt lat="43.3896783" lon="10.846275"><ele>286.75</ele><time>2026-04-25T10:13:14.725Z</time></trkpt><trkpt lat="43.3895667" lon="10.84632"><ele>283.5</ele><time>2026-04-25T10:13:15.724Z</time></trkpt><trkpt lat="43.3894483" lon="10.846325"><ele>280.25</ele><time>2026-04-25T10:13:16.724Z</time></trkpt><trkpt lat="43.3893267" lon="10.8462917"><ele>277.0</ele><time>2026-04-25T10:13:17.724Z</time></trkpt><trkpt lat="43.3892033" lon="10.846235"><ele>277.0</ele><time>2026-04-25T10:13:18.723Z</time></trkpt><trkpt lat="43.3890867" lon="10.84617"><ele>277.0</ele><time>2026-04-25T10:13:19.724Z</time></trkpt><trkpt lat="43.388975" lon="10.8461017"><ele>277.0</ele><time>2026-04-25T10:13:20.725Z</time></trkpt><trkpt lat="43.3888767" lon="10.8460217"><ele>277.0</ele><time>2026-04-25T10:13:21.725Z</time></trkpt><trkpt lat="43.3887983" lon="10.8459183"><ele>273.75</ele><time>2026-04-25T10:13:22.724Z</time></trkpt><trkpt lat="43.38874" lon="10.8457883"><ele>270.5</ele><time>2026-04-25T10:13:23.728Z</time></trkpt><trkpt lat="43.388705" lon="10.8456417"><ele>267.25</ele><time>2026-04-25T10:13:24.724Z</time></trkpt><trkpt lat="43.38869" lon="10.8454767"><ele>264.0</ele><time>2026-04-25T10:13:25.724Z</time></trkpt><trkpt lat="43.38869" lon="10.8453033"><ele>264.0</ele><time>2026-04-25T10:13:26.725Z</time></trkpt><trkpt lat="43.3887" lon="10.8451367"><ele>264.0</ele><time>2026-04-25T10:13:27.725Z</time></trkpt><trkpt lat="43.38872" lon="10.84498"><ele>264.0</ele><time>2026-04-25T10:13:28.725Z</time></trkpt><trkpt lat="43.388755" lon="10.8448383"><ele>264.0</ele><time>2026-04-25T10:13:29.725Z</time></trkpt><trkpt lat="43.38881" lon="10.844695"><ele>267.0</ele><time>2026-04-25T10:13:30.723Z</time></trkpt><trkpt lat="43.38889" lon="10.8445617"><ele>270.0</ele><time>2026-04-25T10:13:31.726Z</time></trkpt><trkpt lat="43.3889933" lon="10.8444583"><ele>273.0</ele><time>2026-04-25T10:13:32.725Z</time></trkpt><trkpt lat="43.3891167" lon="10.8443767"><ele>276.0</ele><time>2026-04-25T10:13:33.725Z</time></trkpt><trkpt lat="43.3892467" lon="10.844325"><ele>273.25</ele><time>2026-04-25T10:13:34.725Z</time></trkpt><trkpt lat="43.3893733" lon="10.8442867"><ele>270.5</ele><time>2026-04-25T10:13:35.725Z</time></trkpt><trkpt lat="43.3894983" lon="10.84425"><ele>267.75</ele><time>2026-04-25T10:13:36.725Z</time></trkpt><trkpt lat="43.3896217" lon="10.8442067"><ele>265.0</ele><time>2026-04-25T10:13:37.725Z</time></trkpt><trkpt lat="43.3897467" lon="10.8441617"><ele>265.0</ele><time>2026-04-25T10:13:38.724Z</time></trkpt><trkpt lat="43.3898633" lon="10.844125"><ele>265.0</ele><time>2026-04-25T10:13:39.724Z</time></trkpt><trkpt lat="43.3899933" lon="10.8441133"><ele>265.0</ele><time>2026-04-25T10:13:40.725Z</time></trkpt><trkpt lat="43.390155" lon="10.8441317"><ele>265.0</ele><time>2026-04-25T10:13:41.725Z</time></trkpt><trkpt lat="43.3903317" lon="10.84418"><ele>265.0</ele><time>2026-04-25T10:13:42.725Z</time></trkpt><trkpt lat="43.390495" lon="10.8442383"><ele>265.0</ele><time>2026-04-25T10:13:43.725Z</time></trkpt><trkpt lat="43.3906367" lon="10.8442867"><ele>265.0</ele><time>2026-04-25T10:13:44.724Z</time></trkpt><trkpt lat="43.3907567" lon="10.8443033"><ele>265.0</ele><time>2026-04-25T10:13:45.723Z</time></trkpt><trkpt lat="43.390855" lon="10.8442717"><ele>264.0</ele><time>2026-04-25T10:13:46.725Z</time></trkpt><trkpt lat="43.3909217" lon="10.8441833"><ele>263.0</ele><time>2026-04-25T10:13:47.726Z</time></trkpt><trkpt lat="43.39096" lon="10.844065"><ele>262.0</ele><time>2026-04-25T10:13:48.725Z</time></trkpt><trkpt lat="43.3909533" lon="10.8439367"><ele>261.0</ele><time>2026-04-25T10:13:49.725Z</time></trkpt><trkpt lat="43.390885" lon="10.8437933"><ele>260.0</ele><time>2026-04-25T10:13:50.725Z</time></trkpt><trkpt lat="43.390765" lon="10.8436633"><ele>260.0</ele><time>2026-04-25T10:13:51.725Z</time></trkpt><trkpt lat="43.390615" lon="10.843535"><ele>260.0</ele><time>2026-04-25T10:13:52.725Z</time></trkpt><trkpt lat="43.3904817" lon="10.843415"><ele>260.0</ele><time>2026-04-25T10:13:53.725Z</time></trkpt><trkpt lat="43.3903683" lon="10.843285"><ele>258.75</ele><time>2026-04-25T10:13:54.726Z</time></trkpt><trkpt lat="43.3903" lon="10.84313"><ele>257.5</ele><time>2026-04-25T10:13:55.723Z</time></trkpt><trkpt lat="43.3902833" lon="10.8429483"><ele>256.25</ele><time>2026-04-25T10:13:56.726Z</time></trkpt><trkpt lat="43.3903233" lon="10.8427633"><ele>255.0</ele><time>2026-04-25T10:13:57.724Z</time></trkpt><trkpt lat="43.3903967" lon="10.84262"><ele>251.5</ele><time>2026-04-25T10:13:58.724Z</time></trkpt><trkpt lat="43.3905017" lon="10.84253"><ele>248.0</ele><time>2026-04-25T10:13:59.724Z</time></trkpt><trkpt lat="43.39062" lon="10.8425067"><ele>244.5</ele><time>2026-04-25T10:14:00.724Z</time></trkpt><trkpt lat="43.3907467" lon="10.8425483"><ele>241.0</ele><time>2026-04-25T10:14:01.725Z</time></trkpt><trkpt lat="43.39086" lon="10.8426267"><ele>243.60000000000002</ele><time>2026-04-25T10:14:02.725Z</time></trkpt><trkpt lat="43.39096" lon="10.8427183"><ele>246.20000000000002</ele><time>2026-04-25T10:14:03.724Z</time></trkpt><trkpt lat="43.39105" lon="10.8427883"><ele>248.79999999999998</ele><time>2026-04-25T10:14:04.724Z</time></trkpt><trkpt lat="43.39114" lon="10.8428333"><ele>251.39999999999998</ele><time>2026-04-25T10:14:05.725Z</time></trkpt><trkpt lat="43.3912267" lon="10.8428367"><ele>254.0</ele><time>2026-04-25T10:14:06.723Z</time></trkpt><trkpt lat="43.3912917" lon="10.8427783"><ele>254.0</ele><time>2026-04-25T10:14:07.725Z</time></trkpt><trkpt lat="43.3913217" lon="10.842675"><ele>253.99999999999997</ele><time>2026-04-25T10:14:08.726Z</time></trkpt><trkpt lat="43.39133" lon="10.8425533"><ele>253.99999999999997</ele><time>2026-04-25T10:14:09.728Z</time></trkpt><trkpt lat="43.3912817" lon="10.8424317"><ele>254.0</ele><time>2026-04-25T10:14:10.725Z</time></trkpt><trkpt lat="43.3912033" lon="10.84231"><ele>254.0</ele><time>2026-04-25T10:14:11.726Z</time></trkpt><trkpt lat="43.3911217" lon="10.8422"><ele>250.75</ele><time>2026-04-25T10:14:12.725Z</time></trkpt><trkpt lat="43.3910367" lon="10.8420833"><ele>247.5</ele><time>2026-04-25T10:14:13.723Z</time></trkpt><trkpt lat="43.3909433" lon="10.841975"><ele>244.25</ele><time>2026-04-25T10:14:14.725Z</time></trkpt><trkpt lat="43.3908417" lon="10.84188"><ele>241.0</ele><time>2026-04-25T10:14:15.727Z</time></trkpt><trkpt lat="43.39073" lon="10.8418033"><ele>237.75</ele><time>2026-04-25T10:14:16.724Z</time></trkpt><trkpt lat="43.3906083" lon="10.84175"><ele>234.5</ele><time>2026-04-25T10:14:17.726Z</time></trkpt><trkpt lat="43.3904783" lon="10.8417283"><ele>231.25</ele><time>2026-04-25T10:14:18.725Z</time></trkpt><trkpt lat="43.3903417" lon="10.84173"><ele>228.0</ele><time>2026-04-25T10:14:19.725Z</time></trkpt><trkpt lat="43.39021" lon="10.8417367"><ele>228.0</ele><time>2026-04-25T10:14:20.728Z</time></trkpt><trkpt lat="43.39008" lon="10.84174"><ele>228.0</ele><time>2026-04-25T10:14:21.727Z</time></trkpt><trkpt lat="43.3899517" lon="10.8417433"><ele>228.0</ele><time>2026-04-25T10:14:22.726Z</time></trkpt><trkpt lat="43.38982" lon="10.8417433"><ele>228.0</ele><time>2026-04-25T10:14:23.725Z</time></trkpt><trkpt lat="43.38969" lon="10.8417483"><ele>227.5</ele><time>2026-04-25T10:14:24.726Z</time></trkpt><trkpt lat="43.3895567" lon="10.8417517"><ele>227.0</ele><time>2026-04-25T10:14:25.726Z</time></trkpt><trkpt lat="43.389425" lon="10.84175"><ele>226.5</ele><time>2026-04-25T10:14:26.728Z</time></trkpt><trkpt lat="43.3893017" lon="10.8417417"><ele>226.0</ele><time>2026-04-25T10:14:27.726Z</time></trkpt><trkpt lat="43.3891917" lon="10.8417167"><ele>226.0</ele><time>2026-04-25T10:14:28.725Z</time></trkpt><trkpt lat="43.3890917" lon="10.841665"><ele>226.00000000000003</ele><time>2026-04-25T10:14:29.725Z</time></trkpt><trkpt lat="43.38901" lon="10.8415867"><ele>226.00000000000003</ele><time>2026-04-25T10:14:30.726Z</time></trkpt><trkpt lat="43.3889483" lon="10.84147"><ele>226.0</ele><time>2026-04-25T10:14:31.724Z</time></trkpt><trkpt lat="43.388895" lon="10.8413383"><ele>226.0</ele><time>2026-04-25T10:14:32.725Z</time></trkpt><trkpt lat="43.3888317" lon="10.8412"><ele>227.0</ele><time>2026-04-25T10:14:33.726Z</time></trkpt><trkpt lat="43.3887383" lon="10.841045"><ele>228.0</ele><time>2026-04-25T10:14:34.724Z</time></trkpt><trkpt lat="43.388625" lon="10.8408767"><ele>229.0</ele><time>2026-04-25T10:14:35.727Z</time></trkpt><trkpt lat="43.3885117" lon="10.8407033"><ele>226.33333333333331</ele><time>2026-04-25T10:14:36.724Z</time></trkpt><trkpt lat="43.388395" lon="10.8405317"><ele>223.66666666666669</ele><time>2026-04-25T10:14:37.725Z</time></trkpt><trkpt lat="43.388265" lon="10.8403617"><ele>221.0</ele><time>2026-04-25T10:14:38.724Z</time></trkpt><trkpt lat="43.3881217" lon="10.8401917"><ele>220.0</ele><time>2026-04-25T10:14:39.725Z</time></trkpt><trkpt lat="43.3879733" lon="10.8400167"><ele>219.0</ele><time>2026-04-25T10:14:40.724Z</time></trkpt><trkpt lat="43.387825" lon="10.8398467"><ele>218.0</ele><time>2026-04-25T10:14:41.725Z</time></trkpt><trkpt lat="43.3876833" lon="10.8396867"><ele>218.0</ele><time>2026-04-25T10:14:42.725Z</time></trkpt><trkpt lat="43.3875417" lon="10.8395333"><ele>218.0</ele><time>2026-04-25T10:14:43.724Z</time></trkpt><trkpt lat="43.387405" lon="10.8393867"><ele>218.0</ele><time>2026-04-25T10:14:44.724Z</time></trkpt><trkpt lat="43.3872867" lon="10.8392367"><ele>216.5</ele><time>2026-04-25T10:14:45.725Z</time></trkpt><trkpt lat="43.3871967" lon="10.8390833"><ele>215.0</ele><time>2026-04-25T10:14:46.724Z</time></trkpt><trkpt lat="43.3871317" lon="10.8389217"><ele>213.5</ele><time>2026-04-25T10:14:47.724Z</time></trkpt><trkpt lat="43.3870867" lon="10.8387667"><ele>212.0</ele><time>2026-04-25T10:14:48.725Z</time></trkpt><trkpt lat="43.3870367" lon="10.8386233"><ele>212.0</ele><time>2026-04-25T10:14:49.725Z</time></trkpt><trkpt lat="43.386955" lon="10.8385017"><ele>212.0</ele><time>2026-04-25T10:14:50.725Z</time></trkpt><trkpt lat="43.3868383" lon="10.8384067"><ele>212.0</ele><time>2026-04-25T10:14:51.724Z</time></trkpt><trkpt lat="43.3866817" lon="10.83831"><ele>212.0</ele><time>2026-04-25T10:14:52.726Z</time></trkpt><trkpt lat="43.3865" lon="10.838195"><ele>207.33333333333334</ele><time>2026-04-25T10:14:53.726Z</time></trkpt><trkpt lat="43.3863267" lon="10.8380683"><ele>202.66666666666669</ele><time>2026-04-25T10:14:54.724Z</time></trkpt><trkpt lat="43.3861617" lon="10.8379533"><ele>198.0</ele><time>2026-04-25T10:14:55.724Z</time></trkpt><trkpt lat="43.386" lon="10.8378583"><ele>198.0</ele><time>2026-04-25T10:14:56.725Z</time></trkpt><trkpt lat="43.3858333" lon="10.8377717"><ele>198.0</ele><time>2026-04-25T10:14:57.727Z</time></trkpt><trkpt lat="43.38567" lon="10.837705"><ele>198.0</ele><time>2026-04-25T10:14:58.726Z</time></trkpt><trkpt lat="43.3855083" lon="10.837655"><ele>195.5</ele><time>2026-04-25T10:14:59.723Z</time></trkpt><trkpt lat="43.385355" lon="10.8376317"><ele>193.0</ele><time>2026-04-25T10:15:00.725Z</time></trkpt><trkpt lat="43.3852067" lon="10.8376183"><ele>190.5</ele><time>2026-04-25T10:15:01.725Z</time></trkpt><trkpt lat="43.385065" lon="10.83762"><ele>188.0</ele><time>2026-04-25T10:15:02.726Z</time></trkpt><trkpt lat="43.38493" lon="10.8376117"><ele>188.0</ele><time>2026-04-25T10:15:03.724Z</time></trkpt><trkpt lat="43.3848017" lon="10.8375817"><ele>188.0</ele><time>2026-04-25T10:15:04.725Z</time></trkpt><trkpt lat="43.3846717" lon="10.8375233"><ele>188.0</ele><time>2026-04-25T10:15:05.723Z</time></trkpt><trkpt lat="43.38454" lon="10.8374283"><ele>188.0</ele><time>2026-04-25T10:15:06.725Z</time></trkpt><trkpt lat="43.3843983" lon="10.8372933"><ele>186.33333333333331</ele><time>2026-04-25T10:15:07.725Z</time></trkpt><trkpt lat="43.3842467" lon="10.8371233"><ele>184.66666666666666</ele><time>2026-04-25T10:15:08.725Z</time></trkpt><trkpt lat="43.38409" lon="10.8369383"><ele>183.0</ele><time>2026-04-25T10:15:09.724Z</time></trkpt><trkpt lat="43.383925" lon="10.8367433"><ele>180.5</ele><time>2026-04-25T10:15:10.723Z</time></trkpt><trkpt lat="43.3837517" lon="10.8365367"><ele>178.0</ele><time>2026-04-25T10:15:11.723Z</time></trkpt><trkpt lat="43.3835817" lon="10.8363367"><ele>178.0</ele><time>2026-04-25T10:15:12.726Z</time></trkpt><trkpt lat="43.3834183" lon="10.8361433"><ele>178.0</ele><time>2026-04-25T10:15:13.725Z</time></trkpt><trkpt lat="43.38326" lon="10.8359467"><ele>178.0</ele><time>2026-04-25T10:15:14.723Z</time></trkpt><trkpt lat="43.3831017" lon="10.8357367"><ele>177.0</ele><time>2026-04-25T10:15:15.723Z</time></trkpt><trkpt lat="43.3829417" lon="10.8355083"><ele>176.0</ele><time>2026-04-25T10:15:16.723Z</time></trkpt><trkpt lat="43.3827733" lon="10.8352683"><ele>176.5</ele><time>2026-04-25T10:15:17.724Z</time></trkpt><trkpt lat="43.3826017" lon="10.8350367"><ele>177.0</ele><time>2026-04-25T10:15:18.725Z</time></trkpt><trkpt lat="43.3824417" lon="10.834815"><ele>177.0</ele><time>2026-04-25T10:15:19.725Z</time></trkpt><trkpt lat="43.3822867" lon="10.8345867"><ele>177.0</ele><time>2026-04-25T10:15:20.724Z</time></trkpt><trkpt lat="43.3821367" lon="10.834355"><ele>176.0</ele><time>2026-04-25T10:15:21.723Z</time></trkpt><trkpt lat="43.3819883" lon="10.83411"><ele>175.0</ele><time>2026-04-25T10:15:22.723Z</time></trkpt><trkpt lat="43.38184" lon="10.8338533"><ele>175.0</ele><time>2026-04-25T10:15:23.725Z</time></trkpt><trkpt lat="43.3816933" lon="10.833595"><ele>175.0</ele><time>2026-04-25T10:15:24.725Z</time></trkpt><trkpt lat="43.3815483" lon="10.8333333"><ele>171.5</ele><time>2026-04-25T10:15:25.726Z</time></trkpt><trkpt lat="43.3814067" lon="10.8330733"><ele>168.0</ele><time>2026-04-25T10:15:26.726Z</time></trkpt><trkpt lat="43.3812733" lon="10.8328117"><ele>166.5</ele><time>2026-04-25T10:15:27.725Z</time></trkpt><trkpt lat="43.3811583" lon="10.8325333"><ele>165.0</ele><time>2026-04-25T10:15:28.724Z</time></trkpt><trkpt lat="43.381055" lon="10.8322533"><ele>165.0</ele><time>2026-04-25T10:15:29.724Z</time></trkpt><trkpt lat="43.38097" lon="10.8319567"><ele>165.0</ele><time>2026-04-25T10:15:30.723Z</time></trkpt><trkpt lat="43.3809033" lon="10.8316733"><ele>165.0</ele><time>2026-04-25T10:15:31.725Z</time></trkpt><trkpt lat="43.3808533" lon="10.8314"><ele>165.0</ele><time>2026-04-25T10:15:32.726Z</time></trkpt><trkpt lat="43.3808167" lon="10.8311317"><ele>165.0</ele><time>2026-04-25T10:15:33.724Z</time></trkpt><trkpt lat="43.3808083" lon="10.830855"><ele>165.0</ele><time>2026-04-25T10:15:34.724Z</time></trkpt><trkpt lat="43.3808267" lon="10.8305717"><ele>163.66666666666666</ele><time>2026-04-25T10:15:35.725Z</time></trkpt><trkpt lat="43.3808567" lon="10.830285"><ele>162.33333333333331</ele><time>2026-04-25T10:15:36.724Z</time></trkpt><trkpt lat="43.38089" lon="10.8299833"><ele>161.0</ele><time>2026-04-25T10:15:37.725Z</time></trkpt><trkpt lat="43.3809217" lon="10.8296717"><ele>160.5</ele><time>2026-04-25T10:15:38.725Z</time></trkpt><trkpt lat="43.380955" lon="10.82936"><ele>160.0</ele><time>2026-04-25T10:15:39.725Z</time></trkpt><trkpt lat="43.3809933" lon="10.82905"><ele>159.33333333333334</ele><time>2026-04-25T10:15:40.725Z</time></trkpt><trkpt lat="43.3810283" lon="10.8287517"><ele>158.66666666666666</ele><time>2026-04-25T10:15:41.726Z</time></trkpt><trkpt lat="43.3810617" lon="10.8284733"><ele>158.0</ele><time>2026-04-25T10:15:42.724Z</time></trkpt><trkpt lat="43.3810767" lon="10.82821"><ele>159.33333333333331</ele><time>2026-04-25T10:15:43.726Z</time></trkpt><trkpt lat="43.3810617" lon="10.82796"><ele>160.66666666666666</ele><time>2026-04-25T10:15:44.724Z</time></trkpt><trkpt lat="43.3810217" lon="10.8277217"><ele>162.0</ele><time>2026-04-25T10:15:45.725Z</time></trkpt><trkpt lat="43.3809633" lon="10.8275"><ele>162.5</ele><time>2026-04-25T10:15:46.725Z</time></trkpt><trkpt lat="43.3808917" lon="10.82731"><ele>163.0</ele><time>2026-04-25T10:15:47.725Z</time></trkpt><trkpt lat="43.3807933" lon="10.827155"><ele>163.5</ele><time>2026-04-25T10:15:48.725Z</time></trkpt><trkpt lat="43.3806817" lon="10.8270333"><ele>164.0</ele><time>2026-04-25T10:15:49.724Z</time></trkpt><trkpt lat="43.3805717" lon="10.82692"><ele>162.5</ele><time>2026-04-25T10:15:50.727Z</time></trkpt><trkpt lat="43.3804717" lon="10.8267967"><ele>161.0</ele><time>2026-04-25T10:15:51.725Z</time></trkpt><trkpt lat="43.3803967" lon="10.8266417"><ele>159.5</ele><time>2026-04-25T10:15:52.725Z</time></trkpt><trkpt lat="43.3803533" lon="10.8264567"><ele>158.0</ele><time>2026-04-25T10:15:53.726Z</time></trkpt><trkpt lat="43.3803367" lon="10.8262633"><ele>158.0</ele><time>2026-04-25T10:15:54.725Z</time></trkpt><trkpt lat="43.3803317" lon="10.82608"><ele>158.0</ele><time>2026-04-25T10:15:55.725Z</time></trkpt><trkpt lat="43.3803317" lon="10.8258967"><ele>158.0</ele><time>2026-04-25T10:15:56.726Z</time></trkpt><trkpt lat="43.38033" lon="10.8257167"><ele>158.0</ele><time>2026-04-25T10:15:57.725Z</time></trkpt><trkpt lat="43.380325" lon="10.8255367"><ele>158.5</ele><time>2026-04-25T10:15:58.725Z</time></trkpt><trkpt lat="43.3803067" lon="10.8253583"><ele>159.0</ele><time>2026-04-25T10:15:59.725Z</time></trkpt><trkpt lat="43.3802683" lon="10.8251983"><ele>159.5</ele><time>2026-04-25T10:16:00.727Z</time></trkpt><trkpt lat="43.380205" lon="10.8250583"><ele>160.0</ele><time>2026-04-25T10:16:01.726Z</time></trkpt><trkpt lat="43.3801133" lon="10.82493"><ele>157.66666666666669</ele><time>2026-04-25T10:16:02.723Z</time></trkpt><trkpt lat="43.3799917" lon="10.8248233"><ele>155.33333333333334</ele><time>2026-04-25T10:16:03.727Z</time></trkpt><trkpt lat="43.3798283" lon="10.8247133"><ele>153.0</ele><time>2026-04-25T10:16:04.725Z</time></trkpt><trkpt lat="43.3796483" lon="10.8245933"><ele>152.0</ele><time>2026-04-25T10:16:05.724Z</time></trkpt><trkpt lat="43.3794683" lon="10.8244533"><ele>151.0</ele><time>2026-04-25T10:16:06.723Z</time></trkpt><trkpt lat="43.3792933" lon="10.82429"><ele>150.0</ele><time>2026-04-25T10:16:07.724Z</time></trkpt><trkpt lat="43.379135" lon="10.8241117"><ele>148.0</ele><time>2026-04-25T10:16:08.725Z</time></trkpt><trkpt lat="43.3789883" lon="10.8239433"><ele>146.0</ele><time>2026-04-25T10:16:09.724Z</time></trkpt><trkpt lat="43.3788267" lon="10.8238033"><ele>144.0</ele><time>2026-04-25T10:16:10.724Z</time></trkpt><trkpt lat="43.378645" lon="10.82371"><ele>141.66666666666666</ele><time>2026-04-25T10:16:11.725Z</time></trkpt><trkpt lat="43.3784583" lon="10.8236467"><ele>139.33333333333331</ele><time>2026-04-25T10:16:12.724Z</time></trkpt><trkpt lat="43.3782733" lon="10.8235967"><ele>137.0</ele><time>2026-04-25T10:16:13.725Z</time></trkpt><trkpt lat="43.3781" lon="10.823525"><ele>135.0</ele><time>2026-04-25T10:16:14.725Z</time></trkpt><trkpt lat="43.3779483" lon="10.8234083"><ele>133.0</ele><time>2026-04-25T10:16:15.724Z</time></trkpt><trkpt lat="43.37783" lon="10.82324"><ele>131.0</ele><time>2026-04-25T10:16:16.726Z</time></trkpt><trkpt lat="43.3777283" lon="10.82303"><ele>131.0</ele><time>2026-04-25T10:16:17.724Z</time></trkpt><trkpt lat="43.377625" lon="10.8228217"><ele>131.0</ele><time>2026-04-25T10:16:18.725Z</time></trkpt><trkpt lat="43.3775033" lon="10.8226433"><ele>131.0</ele><time>2026-04-25T10:16:19.724Z</time></trkpt><trkpt lat="43.377355" lon="10.8225167"><ele>130.33333333333331</ele><time>2026-04-25T10:16:20.726Z</time></trkpt><trkpt lat="43.377175" lon="10.8224483"><ele>129.66666666666666</ele><time>2026-04-25T10:16:21.726Z</time></trkpt><trkpt lat="43.3769683" lon="10.8224217"><ele>129.0</ele><time>2026-04-25T10:16:22.725Z</time></trkpt><trkpt lat="43.3767433" lon="10.822405"><ele>129.0</ele><time>2026-04-25T10:16:23.724Z</time></trkpt><trkpt lat="43.376515" lon="10.82238"><ele>129.0</ele><time>2026-04-25T10:16:24.725Z</time></trkpt><trkpt lat="43.3762833" lon="10.82236"><ele>129.0</ele><time>2026-04-25T10:16:25.725Z</time></trkpt><trkpt lat="43.376045" lon="10.8223383"><ele>129.0</ele><time>2026-04-25T10:16:26.726Z</time></trkpt><trkpt lat="43.375805" lon="10.8223167"><ele>129.0</ele><time>2026-04-25T10:16:27.727Z</time></trkpt><trkpt lat="43.3755717" lon="10.8222783"><ele>129.0</ele><time>2026-04-25T10:16:28.725Z</time></trkpt><trkpt lat="43.3753533" lon="10.8222233"><ele>130.33333333333334</ele><time>2026-04-25T10:16:29.724Z</time></trkpt><trkpt lat="43.3751533" lon="10.82217"><ele>131.66666666666669</ele><time>2026-04-25T10:16:30.728Z</time></trkpt><trkpt lat="43.3749683" lon="10.8221467"><ele>133.0</ele><time>2026-04-25T10:16:31.724Z</time></trkpt><trkpt lat="43.3747867" lon="10.8221767"><ele>133.0</ele><time>2026-04-25T10:16:32.725Z</time></trkpt><trkpt lat="43.3746083" lon="10.8222617"><ele>133.0</ele><time>2026-04-25T10:16:33.725Z</time></trkpt><trkpt lat="43.3744283" lon="10.8223617"><ele>133.0</ele><time>2026-04-25T10:16:34.726Z</time></trkpt><trkpt lat="43.3742417" lon="10.8224467"><ele>133.0</ele><time>2026-04-25T10:16:35.724Z</time></trkpt><trkpt lat="43.3740483" lon="10.8225"><ele>133.0</ele><time>2026-04-25T10:16:36.725Z</time></trkpt><trkpt lat="43.3738617" lon="10.8225167"><ele>133.0</ele><time>2026-04-25T10:16:37.725Z</time></trkpt><trkpt lat="43.3736917" lon="10.8225083"><ele>130.66666666666669</ele><time>2026-04-25T10:16:38.724Z</time></trkpt><trkpt lat="43.3735317" lon="10.8224617"><ele>128.33333333333334</ele><time>2026-04-25T10:16:39.723Z</time></trkpt><trkpt lat="43.373385" lon="10.8223617"><ele>126.0</ele><time>2026-04-25T10:16:40.726Z</time></trkpt><trkpt lat="43.3732567" lon="10.822215"><ele>126.0</ele><time>2026-04-25T10:16:41.723Z</time></trkpt><trkpt lat="43.373135" lon="10.82204"><ele>126.0</ele><time>2026-04-25T10:16:42.723Z</time></trkpt><trkpt lat="43.3730083" lon="10.8218817"><ele>126.0</ele><time>2026-04-25T10:16:43.724Z</time></trkpt><trkpt lat="43.3728667" lon="10.8217717"><ele>125.33333333333334</ele><time>2026-04-25T10:16:44.725Z</time></trkpt><trkpt lat="43.372705" lon="10.8217183"><ele>124.66666666666667</ele><time>2026-04-25T10:16:45.724Z</time></trkpt><trkpt lat="43.372525" lon="10.8217283"><ele>124.0</ele><time>2026-04-25T10:16:46.726Z</time></trkpt><trkpt lat="43.372335" lon="10.8217167"><ele>124.0</ele><time>2026-04-25T10:16:47.727Z</time></trkpt><trkpt lat="43.3721467" lon="10.8216417"><ele>124.0</ele><time>2026-04-25T10:16:48.726Z</time></trkpt><trkpt lat="43.371955" lon="10.8215017"><ele>124.0</ele><time>2026-04-25T10:16:49.726Z</time></trkpt><trkpt lat="43.37176" lon="10.8213267"><ele>124.0</ele><time>2026-04-25T10:16:50.725Z</time></trkpt><trkpt lat="43.3715617" lon="10.8211467"><ele>124.0</ele><time>2026-04-25T10:16:51.725Z</time></trkpt><trkpt lat="43.3713517" lon="10.8209667"><ele>123.5</ele><time>2026-04-25T10:16:52.727Z</time></trkpt><trkpt lat="43.3711433" lon="10.8207867"><ele>123.0</ele><time>2026-04-25T10:16:53.724Z</time></trkpt><trkpt lat="43.3709417" lon="10.8206167"><ele>123.0</ele><time>2026-04-25T10:16:54.726Z</time></trkpt><trkpt lat="43.3707433" lon="10.8204417"><ele>123.0</ele><time>2026-04-25T10:16:55.726Z</time></trkpt><trkpt lat="43.3705583" lon="10.8202717"><ele>123.0</ele><time>2026-04-25T10:16:56.727Z</time></trkpt><trkpt lat="43.3703867" lon="10.8200833"><ele>123.0</ele><time>2026-04-25T10:16:57.725Z</time></trkpt><trkpt lat="43.37023" lon="10.819865"><ele>123.0</ele><time>2026-04-25T10:16:58.727Z</time></trkpt><trkpt lat="43.3700867" lon="10.8196283"><ele>123.0</ele><time>2026-04-25T10:16:59.723Z</time></trkpt><trkpt lat="43.3699517" lon="10.81939"><ele>123.0</ele><time>2026-04-25T10:17:00.724Z</time></trkpt><trkpt lat="43.3698267" lon="10.8191617"><ele>123.0</ele><time>2026-04-25T10:17:01.723Z</time></trkpt><trkpt lat="43.3697083" lon="10.8189383"><ele>123.66666666666666</ele><time>2026-04-25T10:17:02.723Z</time></trkpt><trkpt lat="43.3695933" lon="10.8187083"><ele>124.33333333333333</ele><time>2026-04-25T10:17:03.724Z</time></trkpt><trkpt lat="43.3694867" lon="10.818465"><ele>125.0</ele><time>2026-04-25T10:17:04.724Z</time></trkpt><trkpt lat="43.3693983" lon="10.8182067"><ele>123.0</ele><time>2026-04-25T10:17:05.723Z</time></trkpt><trkpt lat="43.36932" lon="10.8179467"><ele>121.0</ele><time>2026-04-25T10:17:06.725Z</time></trkpt><trkpt lat="43.3692467" lon="10.817695"><ele>119.0</ele><time>2026-04-25T10:17:07.723Z</time></trkpt><trkpt lat="43.3691817" lon="10.8174717"><ele>117.0</ele><time>2026-04-25T10:17:08.724Z</time></trkpt><trkpt lat="43.369125" lon="10.817275"><ele>115.0</ele><time>2026-04-25T10:17:09.723Z</time></trkpt><trkpt lat="43.369075" lon="10.8170967"><ele>113.0</ele><time>2026-04-25T10:17:10.723Z</time></trkpt><trkpt lat="43.3690317" lon="10.8169367"><ele>111.0</ele><time>2026-04-25T10:17:11.725Z</time></trkpt><trkpt lat="43.36899" lon="10.8167867"><ele>110.0</ele><time>2026-04-25T10:17:12.725Z</time></trkpt><trkpt lat="43.368935" lon="10.8166683"><ele>109.0</ele><time>2026-04-25T10:17:13.724Z</time></trkpt><trkpt lat="43.3688683" lon="10.8165717"><ele>108.0</ele><time>2026-04-25T10:17:14.725Z</time></trkpt><trkpt lat="43.3687867" lon="10.8164917"><ele>107.0</ele><time>2026-04-25T10:17:15.724Z</time></trkpt><trkpt lat="43.3687033" lon="10.8164167"><ele>106.0</ele><time>2026-04-25T10:17:16.724Z</time></trkpt><trkpt lat="43.36863" lon="10.81633"><ele>106.0</ele><time>2026-04-25T10:17:17.723Z</time></trkpt><trkpt lat="43.3685733" lon="10.8162167"><ele>106.0</ele><time>2026-04-25T10:17:18.723Z</time></trkpt><trkpt lat="43.36853" lon="10.816085"><ele>106.0</ele><time>2026-04-25T10:17:19.723Z</time></trkpt><trkpt lat="43.368505" lon="10.815935"><ele>106.0</ele><time>2026-04-25T10:17:20.724Z</time></trkpt><trkpt lat="43.3684967" lon="10.8157767"><ele>106.0</ele><time>2026-04-25T10:17:21.723Z</time></trkpt><trkpt lat="43.3685017" lon="10.8156233"><ele>105.0</ele><time>2026-04-25T10:17:22.723Z</time></trkpt><trkpt lat="43.3685083" lon="10.815465"><ele>104.0</ele><time>2026-04-25T10:17:23.723Z</time></trkpt><trkpt lat="43.3685117" lon="10.8153167"><ele>103.0</ele><time>2026-04-25T10:17:24.726Z</time></trkpt><trkpt lat="43.368505" lon="10.8151733"><ele>102.0</ele><time>2026-04-25T10:17:25.726Z</time></trkpt><trkpt lat="43.3684783" lon="10.8150433"><ele>101.0</ele><time>2026-04-25T10:17:26.726Z</time></trkpt><trkpt lat="43.368425" lon="10.814925"><ele>100.0</ele><time>2026-04-25T10:17:27.726Z</time></trkpt><trkpt lat="43.368355" lon="10.8148367"><ele>99.0</ele><time>2026-04-25T10:17:28.726Z</time></trkpt><trkpt lat="43.36826" lon="10.8147933"><ele>98.0</ele><time>2026-04-25T10:17:29.725Z</time></trkpt><trkpt lat="43.3681517" lon="10.8147783"><ele>97.0</ele><time>2026-04-25T10:17:30.726Z</time></trkpt><trkpt lat="43.368025" lon="10.8147833"><ele>96.0</ele><time>2026-04-25T10:17:31.726Z</time></trkpt><trkpt lat="43.36787" lon="10.8148133"><ele>95.33333333333333</ele><time>2026-04-25T10:17:32.727Z</time></trkpt><trkpt lat="43.36771" lon="10.814865"><ele>94.66666666666666</ele><time>2026-04-25T10:17:33.726Z</time></trkpt><trkpt lat="43.3675467" lon="10.814935"><ele>94.0</ele><time>2026-04-25T10:17:34.725Z</time></trkpt><trkpt lat="43.3673867" lon="10.815"><ele>94.0</ele><time>2026-04-25T10:17:35.728Z</time></trkpt><trkpt lat="43.3672267" lon="10.8150567"><ele>94.0</ele><time>2026-04-25T10:17:36.726Z</time></trkpt><trkpt lat="43.36706" lon="10.8151017"><ele>94.0</ele><time>2026-04-25T10:17:37.725Z</time></trkpt><trkpt lat="43.3668983" lon="10.8151133"><ele>93.33333333333333</ele><time>2026-04-25T10:17:38.724Z</time></trkpt><trkpt lat="43.366735" lon="10.8150817"><ele>92.66666666666667</ele><time>2026-04-25T10:17:39.725Z</time></trkpt><trkpt lat="43.3665783" lon="10.8150233"><ele>92.0</ele><time>2026-04-25T10:17:40.726Z</time></trkpt><trkpt lat="43.3664183" lon="10.8149517"><ele>89.0</ele><time>2026-04-25T10:17:41.726Z</time></trkpt><trkpt lat="43.3662733" lon="10.8148817"><ele>86.0</ele><time>2026-04-25T10:17:42.724Z</time></trkpt><trkpt lat="43.36613" lon="10.814805"><ele>83.0</ele><time>2026-04-25T10:17:43.725Z</time></trkpt><trkpt lat="43.3659917" lon="10.8147233"><ele>83.0</ele><time>2026-04-25T10:17:44.725Z</time></trkpt><trkpt lat="43.3658633" lon="10.81463"><ele>83.0</ele><time>2026-04-25T10:17:45.724Z</time></trkpt><trkpt lat="43.365745" lon="10.81453"><ele>83.0</ele><time>2026-04-25T10:17:46.723Z</time></trkpt><trkpt lat="43.36563" lon="10.81443"><ele>83.0</ele><time>2026-04-25T10:17:47.725Z</time></trkpt><trkpt lat="43.3655217" lon="10.8143333"><ele>82.0</ele><time>2026-04-25T10:17:48.723Z</time></trkpt><trkpt lat="43.3654133" lon="10.8142333"><ele>81.0</ele><time>2026-04-25T10:17:49.724Z</time></trkpt><trkpt lat="43.3653117" lon="10.814135"><ele>80.0</ele><time>2026-04-25T10:17:50.725Z</time></trkpt><trkpt lat="43.3652117" lon="10.81404"><ele>79.0</ele><time>2026-04-25T10:17:51.724Z</time></trkpt><trkpt lat="43.365105" lon="10.8139633"><ele>79.0</ele><time>2026-04-25T10:17:52.724Z</time></trkpt><trkpt lat="43.3650033" lon="10.8138867"><ele>79.0</ele><time>2026-04-25T10:17:53.724Z</time></trkpt><trkpt lat="43.3649083" lon="10.8138033"><ele>79.0</ele><time>2026-04-25T10:17:54.724Z</time></trkpt><trkpt lat="43.3648167" lon="10.8137183"><ele>79.0</ele><time>2026-04-25T10:17:55.725Z</time></trkpt><trkpt lat="43.3647217" lon="10.8136367"><ele>78.8</ele><time>2026-04-25T10:17:56.723Z</time></trkpt><trkpt lat="43.3646283" lon="10.813555"><ele>78.60000000000001</ele><time>2026-04-25T10:17:57.725Z</time></trkpt><trkpt lat="43.3645367" lon="10.8134733"><ele>78.4</ele><time>2026-04-25T10:17:58.727Z</time></trkpt><trkpt lat="43.36444" lon="10.8133917"><ele>78.2</ele><time>2026-04-25T10:17:59.725Z</time></trkpt><trkpt lat="43.36435" lon="10.81331"><ele>78.0</ele><time>2026-04-25T10:18:00.725Z</time></trkpt><trkpt lat="43.36426" lon="10.8132317"><ele>78.0</ele><time>2026-04-25T10:18:01.722Z</time></trkpt><trkpt lat="43.3641767" lon="10.8131483"><ele>78.0</ele><time>2026-04-25T10:18:02.725Z</time></trkpt><trkpt lat="43.3640967" lon="10.81308"><ele>78.0</ele><time>2026-04-25T10:18:03.723Z</time></trkpt><trkpt lat="43.3640317" lon="10.81302"><ele>78.0</ele><time>2026-04-25T10:18:04.723Z</time></trkpt><trkpt lat="43.3639717" lon="10.8129733"><ele>78.0</ele><time>2026-04-25T10:18:05.724Z</time></trkpt><trkpt lat="43.3638817" lon="10.8128717"><ele>77.2</ele><time>2026-04-25T10:18:07.724Z</time></trkpt><trkpt lat="43.363815" lon="10.8127833"><ele>76.4</ele><time>2026-04-25T10:18:09.724Z</time></trkpt><trkpt lat="43.3636933" lon="10.812715"><ele>75.60000000000001</ele><time>2026-04-25T10:18:11.725Z</time></trkpt><trkpt lat="43.363605" lon="10.8126967"><ele>74.8</ele><time>2026-04-25T10:18:12.724Z</time></trkpt><trkpt lat="43.363505" lon="10.8126833"><ele>74.0</ele><time>2026-04-25T10:18:13.724Z</time></trkpt><trkpt lat="43.3633833" lon="10.8126817"><ele>74.0</ele><time>2026-04-25T10:18:14.724Z</time></trkpt><trkpt lat="43.3632583" lon="10.81268"><ele>74.0</ele><time>2026-04-25T10:18:15.723Z</time></trkpt><trkpt lat="43.36313" lon="10.8126717"><ele>74.0</ele><time>2026-04-25T10:18:16.724Z</time></trkpt><trkpt lat="43.363005" lon="10.8126667"><ele>74.0</ele><time>2026-04-25T10:18:17.723Z</time></trkpt><trkpt lat="43.36288" lon="10.81267"><ele>73.8</ele><time>2026-04-25T10:18:18.725Z</time></trkpt><trkpt lat="43.3627633" lon="10.8126683"><ele>73.60000000000001</ele><time>2026-04-25T10:18:19.725Z</time></trkpt><trkpt lat="43.3626467" lon="10.8126633"><ele>73.4</ele><time>2026-04-25T10:18:20.726Z</time></trkpt><trkpt lat="43.362535" lon="10.812665"><ele>73.2</ele><time>2026-04-25T10:18:21.724Z</time></trkpt><trkpt lat="43.3624333" lon="10.8126683"><ele>73.0</ele><time>2026-04-25T10:18:22.724Z</time></trkpt><trkpt lat="43.3623383" lon="10.8126733"><ele>73.0</ele><time>2026-04-25T10:18:23.723Z</time></trkpt><trkpt lat="43.3622533" lon="10.81268"><ele>73.0</ele><time>2026-04-25T10:18:24.725Z</time></trkpt><trkpt lat="43.3621683" lon="10.8126717"><ele>73.0</ele><time>2026-04-25T10:18:25.724Z</time></trkpt><trkpt lat="43.3620783" lon="10.8126517"><ele>73.0</ele><time>2026-04-25T10:18:26.724Z</time></trkpt><trkpt lat="43.36198" lon="10.812625"><ele>73.0</ele><time>2026-04-25T10:18:27.724Z</time></trkpt><trkpt lat="43.3618767" lon="10.8125933"><ele>73.6</ele><time>2026-04-25T10:18:28.724Z</time></trkpt><trkpt lat="43.3617667" lon="10.8125583"><ele>74.19999999999999</ele><time>2026-04-25T10:18:29.723Z</time></trkpt><trkpt lat="43.3616667" lon="10.8125017"><ele>74.8</ele><time>2026-04-25T10:18:30.725Z</time></trkpt><trkpt lat="43.361575" lon="10.81244"><ele>75.39999999999999</ele><time>2026-04-25T10:18:31.723Z</time></trkpt><trkpt lat="43.3614967" lon="10.8123783"><ele>76.0</ele><time>2026-04-25T10:18:32.726Z</time></trkpt><trkpt lat="43.3614317" lon="10.812325"><ele>76.0</ele><time>2026-04-25T10:18:33.723Z</time></trkpt><trkpt lat="43.3613733" lon="10.8122783"><ele>76.0</ele><time>2026-04-25T10:18:34.724Z</time></trkpt><trkpt lat="43.3612583" lon="10.8122567"><ele>76.0</ele><time>2026-04-25T10:18:36.725Z</time></trkpt><trkpt lat="43.3611933" lon="10.8122683"><ele>76.0</ele><time>2026-04-25T10:18:37.725Z</time></trkpt><trkpt lat="43.3611217" lon="10.8122933"><ele>76.0</ele><time>2026-04-25T10:18:38.726Z</time></trkpt><trkpt lat="43.36104" lon="10.8123217"><ele>76.0</ele><time>2026-04-25T10:18:39.727Z</time></trkpt><trkpt lat="43.36096" lon="10.8123467"><ele>75.39999999999999</ele><time>2026-04-25T10:18:40.724Z</time></trkpt><trkpt lat="43.3608867" lon="10.812355"><ele>74.8</ele><time>2026-04-25T10:18:41.724Z</time></trkpt><trkpt lat="43.3608183" lon="10.81235"><ele>74.19999999999999</ele><time>2026-04-25T10:18:42.724Z</time></trkpt><trkpt lat="43.360735" lon="10.812325"><ele>73.6</ele><time>2026-04-25T10:18:44.726Z</time></trkpt><trkpt lat="43.3606383" lon="10.8122933"><ele>73.0</ele><time>2026-04-25T10:19:06.724Z</time></trkpt><trkpt lat="43.360515" lon="10.8122867"><ele>72.75</ele><time>2026-04-25T10:19:08.725Z</time></trkpt><trkpt lat="43.3604067" lon="10.8123217"><ele>72.5</ele><time>2026-04-25T10:19:10.726Z</time></trkpt><trkpt lat="43.3603083" lon="10.81241"><ele>72.25</ele><time>2026-04-25T10:19:12.726Z</time></trkpt><trkpt lat="43.3602133" lon="10.8124967"><ele>72.0</ele><time>2026-04-25T10:19:14.726Z</time></trkpt><trkpt lat="43.3601017" lon="10.81258"><ele>72.0</ele><time>2026-04-25T10:19:16.724Z</time></trkpt><trkpt lat="43.3600333" lon="10.8126383"><ele>72.0</ele><time>2026-04-25T10:19:17.724Z</time></trkpt><trkpt lat="43.35996" lon="10.81271"><ele>72.0</ele><time>2026-04-25T10:19:18.725Z</time></trkpt><trkpt lat="43.3598883" lon="10.8127967"><ele>72.0</ele><time>2026-04-25T10:19:19.726Z</time></trkpt><trkpt lat="43.3598167" lon="10.81289"><ele>72.0</ele><time>2026-04-25T10:19:20.724Z</time></trkpt><trkpt lat="43.359745" lon="10.812985"><ele>74.0</ele><time>2026-04-25T10:19:21.723Z</time></trkpt><trkpt lat="43.359675" lon="10.813085"><ele>76.0</ele><time>2026-04-25T10:19:22.723Z</time></trkpt><trkpt lat="43.3596" lon="10.8131817"><ele>78.0</ele><time>2026-04-25T10:19:23.726Z</time></trkpt><trkpt lat="43.3595217" lon="10.8132817"><ele>80.0</ele><time>2026-04-25T10:19:24.723Z</time></trkpt><trkpt lat="43.3594433" lon="10.8133833"><ele>82.0</ele><time>2026-04-25T10:19:25.726Z</time></trkpt><trkpt lat="43.3593633" lon="10.8134867"><ele>80.5</ele><time>2026-04-25T10:19:26.725Z</time></trkpt><trkpt lat="43.3592783" lon="10.8135917"><ele>79.0</ele><time>2026-04-25T10:19:27.726Z</time></trkpt><trkpt lat="43.3591967" lon="10.8137017"><ele>77.5</ele><time>2026-04-25T10:19:28.727Z</time></trkpt><trkpt lat="43.35911" lon="10.8138133"><ele>76.0</ele><time>2026-04-25T10:19:29.726Z</time></trkpt><trkpt lat="43.3590233" lon="10.8139267"><ele>76.0</ele><time>2026-04-25T10:19:30.725Z</time></trkpt><trkpt lat="43.3589433" lon="10.8140267"><ele>76.0</ele><time>2026-04-25T10:19:31.726Z</time></trkpt><trkpt lat="43.3588567" lon="10.8141167"><ele>76.0</ele><time>2026-04-25T10:19:32.724Z</time></trkpt><trkpt lat="43.3587517" lon="10.81419"><ele>76.0</ele><time>2026-04-25T10:19:33.726Z</time></trkpt><trkpt lat="43.358635" lon="10.8142583"><ele>77.33333333333333</ele><time>2026-04-25T10:19:34.725Z</time></trkpt><trkpt lat="43.3584733" lon="10.81433"><ele>78.66666666666667</ele><time>2026-04-25T10:19:35.726Z</time></trkpt><trkpt lat="43.3582967" lon="10.8144117"><ele>80.0</ele><time>2026-04-25T10:19:36.725Z</time></trkpt><trkpt lat="43.35811" lon="10.81449"><ele>82.33333333333334</ele><time>2026-04-25T10:19:37.726Z</time></trkpt><trkpt lat="43.35793" lon="10.81456"><ele>84.66666666666667</ele><time>2026-04-25T10:19:38.725Z</time></trkpt><trkpt lat="43.3577733" lon="10.8146183"><ele>87.0</ele><time>2026-04-25T10:19:39.723Z</time></trkpt><trkpt lat="43.35763" lon="10.8146483"><ele>87.0</ele><time>2026-04-25T10:19:40.725Z</time></trkpt><trkpt lat="43.3575167" lon="10.8146467"><ele>87.0</ele><time>2026-04-25T10:19:41.726Z</time></trkpt><trkpt lat="43.35744" lon="10.8146167"><ele>87.0</ele><time>2026-04-25T10:19:42.723Z</time></trkpt><trkpt lat="43.357425" lon="10.814475"><ele>87.0</ele><time>2026-04-25T10:19:44.725Z</time></trkpt><trkpt lat="43.3574617" lon="10.8143733"><ele>87.0</ele><time>2026-04-25T10:19:45.723Z</time></trkpt><trkpt lat="43.35757" lon="10.81421"><ele>89.33333333333333</ele><time>2026-04-25T10:19:46.724Z</time></trkpt><trkpt lat="43.3576917" lon="10.814025"><ele>91.66666666666666</ele><time>2026-04-25T10:19:47.727Z</time></trkpt><trkpt lat="43.35782" lon="10.81384"><ele>94.0</ele><time>2026-04-25T10:19:48.726Z</time></trkpt><trkpt lat="43.3579483" lon="10.8136533"><ele>93.66666666666666</ele><time>2026-04-25T10:19:49.727Z</time></trkpt><trkpt lat="43.3580683" lon="10.8134783"><ele>93.33333333333333</ele><time>2026-04-25T10:19:50.725Z</time></trkpt><trkpt lat="43.3581733" lon="10.8133167"><ele>93.0</ele><time>2026-04-25T10:19:51.723Z</time></trkpt><trkpt lat="43.3582517" lon="10.8131683"><ele>93.0</ele><time>2026-04-25T10:19:52.726Z</time></trkpt><trkpt lat="43.3582883" lon="10.81302"><ele>93.0</ele><time>2026-04-25T10:19:53.726Z</time></trkpt><trkpt lat="43.358285" lon="10.8128867"><ele>93.0</ele><time>2026-04-25T10:19:54.726Z</time></trkpt><trkpt lat="43.3582417" lon="10.8127783"><ele>93.0</ele><time>2026-04-25T10:19:55.726Z</time></trkpt><trkpt lat="43.3581633" lon="10.8126933"><ele>93.0</ele><time>2026-04-25T10:19:56.725Z</time></trkpt><trkpt lat="43.358045" lon="10.8126467"><ele>95.75</ele><time>2026-04-25T10:19:57.724Z</time></trkpt><trkpt lat="43.3578967" lon="10.8126267"><ele>98.5</ele><time>2026-04-25T10:19:58.726Z</time></trkpt><trkpt lat="43.3577517" lon="10.8126083"><ele>101.25</ele><time>2026-04-25T10:19:59.726Z</time></trkpt><trkpt lat="43.357615" lon="10.8126133"><ele>104.0</ele><time>2026-04-25T10:20:00.724Z</time></trkpt><trkpt lat="43.3574883" lon="10.8126733"><ele>104.0</ele><time>2026-04-25T10:20:01.726Z</time></trkpt><trkpt lat="43.357375" lon="10.81278"><ele>104.0</ele><time>2026-04-25T10:20:02.726Z</time></trkpt><trkpt lat="43.3572567" lon="10.81294"><ele>104.0</ele><time>2026-04-25T10:20:03.725Z</time></trkpt><trkpt lat="43.357135" lon="10.8131183"><ele>106.33333333333333</ele><time>2026-04-25T10:20:04.726Z</time></trkpt><trkpt lat="43.35701" lon="10.8133067"><ele>108.66666666666666</ele><time>2026-04-25T10:20:05.726Z</time></trkpt><trkpt lat="43.3568983" lon="10.813495"><ele>111.0</ele><time>2026-04-25T10:20:06.724Z</time></trkpt><trkpt lat="43.3567833" lon="10.8136767"><ele>111.0</ele><time>2026-04-25T10:20:07.725Z</time></trkpt><trkpt lat="43.3566667" lon="10.8138367"><ele>111.0</ele><time>2026-04-25T10:20:08.725Z</time></trkpt><trkpt lat="43.3565417" lon="10.81397"><ele>111.0</ele><time>2026-04-25T10:20:09.723Z</time></trkpt><trkpt lat="43.3563967" lon="10.8140833"><ele>113.66666666666666</ele><time>2026-04-25T10:20:10.726Z</time></trkpt><trkpt lat="43.356235" lon="10.81418"><ele>116.33333333333333</ele><time>2026-04-25T10:20:11.725Z</time></trkpt><trkpt lat="43.3560717" lon="10.8142667"><ele>119.0</ele><time>2026-04-25T10:20:12.725Z</time></trkpt><trkpt lat="43.35591" lon="10.8143567"><ele>119.0</ele><time>2026-04-25T10:20:13.723Z</time></trkpt><trkpt lat="43.3557683" lon="10.8144717"><ele>119.0</ele><time>2026-04-25T10:20:14.727Z</time></trkpt><trkpt lat="43.3556467" lon="10.814615"><ele>119.0</ele><time>2026-04-25T10:20:15.725Z</time></trkpt><trkpt lat="43.3555583" lon="10.8148017"><ele>123.0</ele><time>2026-04-25T10:20:16.725Z</time></trkpt><trkpt lat="43.355505" lon="10.8150383"><ele>127.0</ele><time>2026-04-25T10:20:17.726Z</time></trkpt><trkpt lat="43.35545" lon="10.8153017"><ele>131.0</ele><time>2026-04-25T10:20:18.726Z</time></trkpt><trkpt lat="43.35539" lon="10.81558"><ele>131.0</ele><time>2026-04-25T10:20:19.725Z</time></trkpt><trkpt lat="43.3553183" lon="10.81587"><ele>131.0</ele><time>2026-04-25T10:20:20.726Z</time></trkpt><trkpt lat="43.35524" lon="10.8161667"><ele>129.0</ele><time>2026-04-25T10:20:21.726Z</time></trkpt><trkpt lat="43.3551583" lon="10.8164633"><ele>127.0</ele><time>2026-04-25T10:20:22.725Z</time></trkpt><trkpt lat="43.3550817" lon="10.8167567"><ele>125.66666666666667</ele><time>2026-04-25T10:20:23.727Z</time></trkpt><trkpt lat="43.3550033" lon="10.817035"><ele>124.33333333333334</ele><time>2026-04-25T10:20:24.724Z</time></trkpt><trkpt lat="43.3549183" lon="10.8172833"><ele>123.0</ele><time>2026-04-25T10:20:25.725Z</time></trkpt><trkpt lat="43.3548033" lon="10.8175"><ele>123.66666666666666</ele><time>2026-04-25T10:20:26.725Z</time></trkpt><trkpt lat="43.3546567" lon="10.8176767"><ele>124.33333333333333</ele><time>2026-04-25T10:20:27.724Z</time></trkpt><trkpt lat="43.3544933" lon="10.817815"><ele>125.0</ele><time>2026-04-25T10:20:28.726Z</time></trkpt><trkpt lat="43.3543167" lon="10.817915"><ele>125.0</ele><time>2026-04-25T10:20:29.724Z</time></trkpt><trkpt lat="43.3541383" lon="10.8179917"><ele>125.0</ele><time>2026-04-25T10:20:30.725Z</time></trkpt><trkpt lat="43.35397" lon="10.8180817"><ele>125.0</ele><time>2026-04-25T10:20:31.723Z</time></trkpt><trkpt lat="43.3538233" lon="10.81821"><ele>125.33333333333333</ele><time>2026-04-25T10:20:32.725Z</time></trkpt><trkpt lat="43.3537133" lon="10.8184"><ele>125.66666666666666</ele><time>2026-04-25T10:20:33.726Z</time></trkpt><trkpt lat="43.3536167" lon="10.818645"><ele>126.0</ele><time>2026-04-25T10:20:34.726Z</time></trkpt><trkpt lat="43.3535283" lon="10.8189133"><ele>127.0</ele><time>2026-04-25T10:20:35.725Z</time></trkpt><trkpt lat="43.353445" lon="10.819185"><ele>128.0</ele><time>2026-04-25T10:20:36.725Z</time></trkpt><trkpt lat="43.35338" lon="10.819465"><ele>129.0</ele><time>2026-04-25T10:20:37.726Z</time></trkpt><trkpt lat="43.3533533" lon="10.819755"><ele>129.33333333333334</ele><time>2026-04-25T10:20:38.724Z</time></trkpt><trkpt lat="43.35337" lon="10.8200517"><ele>129.66666666666669</ele><time>2026-04-25T10:20:39.726Z</time></trkpt><trkpt lat="43.35341" lon="10.8203583"><ele>130.0</ele><time>2026-04-25T10:20:40.723Z</time></trkpt><trkpt lat="43.353465" lon="10.8206617"><ele>129.66666666666669</ele><time>2026-04-25T10:20:41.724Z</time></trkpt><trkpt lat="43.3535167" lon="10.8209583"><ele>129.33333333333334</ele><time>2026-04-25T10:20:42.725Z</time></trkpt><trkpt lat="43.3535433" lon="10.8212333"><ele>129.0</ele><time>2026-04-25T10:20:43.725Z</time></trkpt><trkpt lat="43.3535283" lon="10.8215117"><ele>129.0</ele><time>2026-04-25T10:20:44.725Z</time></trkpt><trkpt lat="43.3534733" lon="10.821785"><ele>129.0</ele><time>2026-04-25T10:20:45.723Z</time></trkpt><trkpt lat="43.35339" lon="10.8220517"><ele>129.0</ele><time>2026-04-25T10:20:46.724Z</time></trkpt><trkpt lat="43.3532967" lon="10.8223183"><ele>129.66666666666666</ele><time>2026-04-25T10:20:47.725Z</time></trkpt><trkpt lat="43.3532067" lon="10.8225683"><ele>130.33333333333331</ele><time>2026-04-25T10:20:48.724Z</time></trkpt><trkpt lat="43.353135" lon="10.82282"><ele>131.0</ele><time>2026-04-25T10:20:49.726Z</time></trkpt><trkpt lat="43.3531" lon="10.82308"><ele>131.66666666666666</ele><time>2026-04-25T10:20:50.724Z</time></trkpt><trkpt lat="43.3531017" lon="10.8233633"><ele>132.33333333333334</ele><time>2026-04-25T10:20:51.726Z</time></trkpt><trkpt lat="43.3531217" lon="10.8236483"><ele>133.0</ele><time>2026-04-25T10:20:52.726Z</time></trkpt><trkpt lat="43.35313" lon="10.8239283"><ele>133.0</ele><time>2026-04-25T10:20:53.724Z</time></trkpt><trkpt lat="43.3531017" lon="10.8241917"><ele>133.0</ele><time>2026-04-25T10:20:54.726Z</time></trkpt><trkpt lat="43.3530333" lon="10.8244267"><ele>133.0</ele><time>2026-04-25T10:20:55.725Z</time></trkpt><trkpt lat="43.3529283" lon="10.82463"><ele>133.0</ele><time>2026-04-25T10:20:56.724Z</time></trkpt><trkpt lat="43.3527933" lon="10.8247933"><ele>133.0</ele><time>2026-04-25T10:20:57.726Z</time></trkpt><trkpt lat="43.3526233" lon="10.8249117"><ele>133.0</ele><time>2026-04-25T10:20:58.727Z</time></trkpt><trkpt lat="43.352435" lon="10.8249817"><ele>133.0</ele><time>2026-04-25T10:20:59.726Z</time></trkpt><trkpt lat="43.3522533" lon="10.825045"><ele>133.0</ele><time>2026-04-25T10:21:00.724Z</time></trkpt><trkpt lat="43.3520833" lon="10.8251433"><ele>133.0</ele><time>2026-04-25T10:21:01.726Z</time></trkpt><trkpt lat="43.3519283" lon="10.82528"><ele>132.0</ele><time>2026-04-25T10:21:02.723Z</time></trkpt><trkpt lat="43.351805" lon="10.8254717"><ele>131.0</ele><time>2026-04-25T10:21:03.723Z</time></trkpt><trkpt lat="43.3517117" lon="10.8257167"><ele>130.0</ele><time>2026-04-25T10:21:04.726Z</time></trkpt><trkpt lat="43.3516383" lon="10.8259967"><ele>130.0</ele><time>2026-04-25T10:21:05.724Z</time></trkpt><trkpt lat="43.351555" lon="10.8262667"><ele>130.0</ele><time>2026-04-25T10:21:06.726Z</time></trkpt><trkpt lat="43.351435" lon="10.8264967"><ele>130.0</ele><time>2026-04-25T10:21:07.724Z</time></trkpt><trkpt lat="43.3512817" lon="10.8266883"><ele>126.33333333333334</ele><time>2026-04-25T10:21:08.722Z</time></trkpt><trkpt lat="43.351125" lon="10.8268667"><ele>122.66666666666666</ele><time>2026-04-25T10:21:09.727Z</time></trkpt><trkpt lat="43.3509733" lon="10.8270533"><ele>119.0</ele><time>2026-04-25T10:21:10.727Z</time></trkpt><trkpt lat="43.3508483" lon="10.82728"><ele>119.0</ele><time>2026-04-25T10:21:11.727Z</time></trkpt><trkpt lat="43.35075" lon="10.827535"><ele>119.0</ele><time>2026-04-25T10:21:12.726Z</time></trkpt><trkpt lat="43.35065" lon="10.827785"><ele>119.0</ele><time>2026-04-25T10:21:13.725Z</time></trkpt><trkpt lat="43.3505417" lon="10.82803"><ele>115.33333333333333</ele><time>2026-04-25T10:21:14.726Z</time></trkpt><trkpt lat="43.3504067" lon="10.8282567"><ele>111.66666666666666</ele><time>2026-04-25T10:21:15.725Z</time></trkpt><trkpt lat="43.3502433" lon="10.82847"><ele>108.0</ele><time>2026-04-25T10:21:16.725Z</time></trkpt><trkpt lat="43.350065" lon="10.8286667"><ele>108.0</ele><time>2026-04-25T10:21:17.726Z</time></trkpt><trkpt lat="43.3498783" lon="10.82886"><ele>108.0</ele><time>2026-04-25T10:21:18.726Z</time></trkpt><trkpt lat="43.3496883" lon="10.8290633"><ele>103.0</ele><time>2026-04-25T10:21:19.726Z</time></trkpt><trkpt lat="43.349505" lon="10.82927"><ele>98.0</ele><time>2026-04-25T10:21:20.727Z</time></trkpt><trkpt lat="43.3493483" lon="10.8294883"><ele>98.0</ele><time>2026-04-25T10:21:21.726Z</time></trkpt><trkpt lat="43.3492133" lon="10.829725"><ele>98.0</ele><time>2026-04-25T10:21:22.726Z</time></trkpt><trkpt lat="43.34908" lon="10.82997"><ele>98.0</ele><time>2026-04-25T10:21:23.727Z</time></trkpt><trkpt lat="43.3489483" lon="10.8301983"><ele>93.66666666666666</ele><time>2026-04-25T10:21:24.726Z</time></trkpt><trkpt lat="43.348815" lon="10.8304183"><ele>89.33333333333333</ele><time>2026-04-25T10:21:25.724Z</time></trkpt><trkpt lat="43.3486783" lon="10.8306317"><ele>85.0</ele><time>2026-04-25T10:21:26.724Z</time></trkpt><trkpt lat="43.3485433" lon="10.83084"><ele>87.33333333333333</ele><time>2026-04-25T10:21:27.725Z</time></trkpt><trkpt lat="43.3484133" lon="10.8310367"><ele>89.66666666666667</ele><time>2026-04-25T10:21:28.725Z</time></trkpt><trkpt lat="43.3482833" lon="10.8312283"><ele>92.0</ele><time>2026-04-25T10:21:29.726Z</time></trkpt><trkpt lat="43.3481633" lon="10.8314083"><ele>92.0</ele><time>2026-04-25T10:21:30.726Z</time></trkpt><trkpt lat="43.34805" lon="10.831575"><ele>92.0</ele><time>2026-04-25T10:21:31.724Z</time></trkpt><trkpt lat="43.347945" lon="10.83173"><ele>92.0</ele><time>2026-04-25T10:21:32.726Z</time></trkpt><trkpt lat="43.3478433" lon="10.8318817"><ele>88.0</ele><time>2026-04-25T10:21:33.724Z</time></trkpt><trkpt lat="43.3477483" lon="10.8320333"><ele>84.0</ele><time>2026-04-25T10:21:34.725Z</time></trkpt><trkpt lat="43.3476617" lon="10.8322"><ele>80.0</ele><time>2026-04-25T10:21:35.725Z</time></trkpt><trkpt lat="43.34758" lon="10.8324017"><ele>80.0</ele><time>2026-04-25T10:21:36.725Z</time></trkpt><trkpt lat="43.3475017" lon="10.832645"><ele>80.0</ele><time>2026-04-25T10:21:37.724Z</time></trkpt><trkpt lat="43.347425" lon="10.8329167"><ele>80.0</ele><time>2026-04-25T10:21:38.726Z</time></trkpt><trkpt lat="43.3473417" lon="10.8332117"><ele>82.0</ele><time>2026-04-25T10:21:39.726Z</time></trkpt><trkpt lat="43.3472617" lon="10.8335083"><ele>84.0</ele><time>2026-04-25T10:21:40.724Z</time></trkpt><trkpt lat="43.34718" lon="10.8338067"><ele>80.0</ele><time>2026-04-25T10:21:41.725Z</time></trkpt><trkpt lat="43.3470967" lon="10.8341083"><ele>76.0</ele><time>2026-04-25T10:21:42.724Z</time></trkpt><trkpt lat="43.347015" lon="10.83441"><ele>76.0</ele><time>2026-04-25T10:21:43.726Z</time></trkpt><trkpt lat="43.3469283" lon="10.83471"><ele>76.0</ele><time>2026-04-25T10:21:44.723Z</time></trkpt><trkpt lat="43.3468367" lon="10.83501"><ele>79.0</ele><time>2026-04-25T10:21:45.724Z</time></trkpt><trkpt lat="43.3467417" lon="10.8353117"><ele>82.0</ele><time>2026-04-25T10:21:46.723Z</time></trkpt><trkpt lat="43.3466533" lon="10.8356117"><ele>82.0</ele><time>2026-04-25T10:21:47.725Z</time></trkpt><trkpt lat="43.3465683" lon="10.835915"><ele>82.0</ele><time>2026-04-25T10:21:48.725Z</time></trkpt><trkpt lat="43.3464917" lon="10.83622"><ele>84.5</ele><time>2026-04-25T10:21:49.727Z</time></trkpt><trkpt lat="43.34642" lon="10.836525"><ele>87.0</ele><time>2026-04-25T10:21:50.726Z</time></trkpt><trkpt lat="43.3463483" lon="10.8368317"><ele>82.0</ele><time>2026-04-25T10:21:51.726Z</time></trkpt><trkpt lat="43.3462783" lon="10.837135"><ele>77.0</ele><time>2026-04-25T10:21:52.726Z</time></trkpt><trkpt lat="43.3462033" lon="10.8374217"><ele>78.33333333333334</ele><time>2026-04-25T10:21:53.726Z</time></trkpt><trkpt lat="43.34612" lon="10.8376867"><ele>79.66666666666667</ele><time>2026-04-25T10:21:54.726Z</time></trkpt><trkpt lat="43.3460083" lon="10.837935"><ele>81.0</ele><time>2026-04-25T10:21:55.723Z</time></trkpt><trkpt lat="43.3458683" lon="10.838155"><ele>81.0</ele><time>2026-04-25T10:21:56.726Z</time></trkpt><trkpt lat="43.3457083" lon="10.8383583"><ele>81.0</ele><time>2026-04-25T10:21:57.725Z</time></trkpt><trkpt lat="43.345535" lon="10.8385483"><ele>81.0</ele><time>2026-04-25T10:21:58.726Z</time></trkpt><trkpt lat="43.34535" lon="10.83872"><ele>81.66666666666667</ele><time>2026-04-25T10:21:59.726Z</time></trkpt><trkpt lat="43.3451633" lon="10.8388633"><ele>82.33333333333334</ele><time>2026-04-25T10:22:00.727Z</time></trkpt><trkpt lat="43.3449767" lon="10.8389733"><ele>83.0</ele><time>2026-04-25T10:22:01.725Z</time></trkpt><trkpt lat="43.3447983" lon="10.839085"><ele>82.33333333333334</ele><time>2026-04-25T10:22:02.726Z</time></trkpt><trkpt lat="43.3446367" lon="10.8392317"><ele>81.66666666666667</ele><time>2026-04-25T10:22:03.726Z</time></trkpt><trkpt lat="43.3444933" lon="10.839425"><ele>81.0</ele><time>2026-04-25T10:22:04.725Z</time></trkpt><trkpt lat="43.3443617" lon="10.8396667"><ele>81.0</ele><time>2026-04-25T10:22:05.725Z</time></trkpt><trkpt lat="43.3442333" lon="10.83993"><ele>81.0</ele><time>2026-04-25T10:22:06.725Z</time></trkpt><trkpt lat="43.3441" lon="10.84021"><ele>83.0</ele><time>2026-04-25T10:22:07.726Z</time></trkpt><trkpt lat="43.3439667" lon="10.8404933"><ele>85.0</ele><time>2026-04-25T10:22:08.726Z</time></trkpt><trkpt lat="43.3438267" lon="10.8407783"><ele>83.5</ele><time>2026-04-25T10:22:09.727Z</time></trkpt><trkpt lat="43.3436817" lon="10.8410667"><ele>82.0</ele><time>2026-04-25T10:22:10.725Z</time></trkpt><trkpt lat="43.343535" lon="10.8413583"><ele>82.0</ele><time>2026-04-25T10:22:11.725Z</time></trkpt><trkpt lat="43.3433883" lon="10.841655"><ele>82.0</ele><time>2026-04-25T10:22:12.726Z</time></trkpt><trkpt lat="43.3432433" lon="10.8419517"><ele>80.5</ele><time>2026-04-25T10:22:13.726Z</time></trkpt><trkpt lat="43.3430933" lon="10.84225"><ele>79.0</ele><time>2026-04-25T10:22:14.726Z</time></trkpt><trkpt lat="43.3429533" lon="10.8425483"><ele>81.0</ele><time>2026-04-25T10:22:15.724Z</time></trkpt><trkpt lat="43.3428167" lon="10.8428417"><ele>83.0</ele><time>2026-04-25T10:22:16.726Z</time></trkpt><trkpt lat="43.3426817" lon="10.8431183"><ele>83.0</ele><time>2026-04-25T10:22:17.725Z</time></trkpt><trkpt lat="43.34255" lon="10.8433833"><ele>83.0</ele><time>2026-04-25T10:22:18.724Z</time></trkpt><trkpt lat="43.3424083" lon="10.8436317"><ele>82.5</ele><time>2026-04-25T10:22:19.725Z</time></trkpt><trkpt lat="43.3422433" lon="10.8438433"><ele>82.0</ele><time>2026-04-25T10:22:20.726Z</time></trkpt><trkpt lat="43.3420533" lon="10.8440283"><ele>82.0</ele><time>2026-04-25T10:22:21.726Z</time></trkpt><trkpt lat="43.34184" lon="10.84419"><ele>82.0</ele><time>2026-04-25T10:22:22.725Z</time></trkpt><trkpt lat="43.3416217" lon="10.8443517"><ele>83.0</ele><time>2026-04-25T10:22:23.726Z</time></trkpt><trkpt lat="43.3413967" lon="10.84452"><ele>84.0</ele><time>2026-04-25T10:22:24.726Z</time></trkpt><trkpt lat="43.3411667" lon="10.8446933"><ele>84.0</ele><time>2026-04-25T10:22:25.723Z</time></trkpt><trkpt lat="43.3409383" lon="10.844865"><ele>84.0</ele><time>2026-04-25T10:22:26.726Z</time></trkpt><trkpt lat="43.340725" lon="10.8450283"><ele>85.0</ele><time>2026-04-25T10:22:27.725Z</time></trkpt><trkpt lat="43.3405217" lon="10.8451767"><ele>86.0</ele><time>2026-04-25T10:22:28.725Z</time></trkpt><trkpt lat="43.3403283" lon="10.8453217"><ele>86.0</ele><time>2026-04-25T10:22:29.726Z</time></trkpt><trkpt lat="43.3401433" lon="10.845465"><ele>86.0</ele><time>2026-04-25T10:22:30.726Z</time></trkpt><trkpt lat="43.3399733" lon="10.84563"><ele>86.0</ele><time>2026-04-25T10:22:31.725Z</time></trkpt><trkpt lat="43.3398167" lon="10.8458417"><ele>85.5</ele><time>2026-04-25T10:22:32.725Z</time></trkpt><trkpt lat="43.339665" lon="10.84608"><ele>85.0</ele><time>2026-04-25T10:22:33.725Z</time></trkpt><trkpt lat="43.3395133" lon="10.84633"><ele>85.0</ele><time>2026-04-25T10:22:34.726Z</time></trkpt><trkpt lat="43.33936" lon="10.846585"><ele>85.0</ele><time>2026-04-25T10:22:35.725Z</time></trkpt><trkpt lat="43.33921" lon="10.8468383"><ele>87.0</ele><time>2026-04-25T10:22:36.726Z</time></trkpt><trkpt lat="43.3390683" lon="10.84709"><ele>89.0</ele><time>2026-04-25T10:22:37.725Z</time></trkpt><trkpt lat="43.3389367" lon="10.847355"><ele>86.0</ele><time>2026-04-25T10:22:38.725Z</time></trkpt><trkpt lat="43.3388083" lon="10.847635"><ele>83.0</ele><time>2026-04-25T10:22:39.725Z</time></trkpt><trkpt lat="43.338685" lon="10.847925"><ele>83.0</ele><time>2026-04-25T10:22:40.725Z</time></trkpt><trkpt lat="43.3385583" lon="10.8482217"><ele>83.0</ele><time>2026-04-25T10:22:41.725Z</time></trkpt><trkpt lat="43.3384367" lon="10.8485217"><ele>84.0</ele><time>2026-04-25T10:22:42.725Z</time></trkpt><trkpt lat="43.3383133" lon="10.8488183"><ele>85.0</ele><time>2026-04-25T10:22:43.726Z</time></trkpt><trkpt lat="43.3381917" lon="10.8491183"><ele>84.5</ele><time>2026-04-25T10:22:44.727Z</time></trkpt><trkpt lat="43.33807" lon="10.8494167"><ele>84.0</ele><time>2026-04-25T10:22:45.726Z</time></trkpt><trkpt lat="43.337945" lon="10.8497167"><ele>84.0</ele><time>2026-04-25T10:22:46.726Z</time></trkpt><trkpt lat="43.3378167" lon="10.85001"><ele>84.0</ele><time>2026-04-25T10:22:47.726Z</time></trkpt><trkpt lat="43.3376867" lon="10.8503033"><ele>84.0</ele><time>2026-04-25T10:22:48.726Z</time></trkpt><trkpt lat="43.3375567" lon="10.8505933"><ele>84.0</ele><time>2026-04-25T10:22:49.725Z</time></trkpt><trkpt lat="43.3374317" lon="10.85088"><ele>82.0</ele><time>2026-04-25T10:22:50.726Z</time></trkpt><trkpt lat="43.3373083" lon="10.85117"><ele>80.0</ele><time>2026-04-25T10:22:51.726Z</time></trkpt><trkpt lat="43.33719" lon="10.8514583"><ele>80.0</ele><time>2026-04-25T10:22:52.726Z</time></trkpt><trkpt lat="43.3370783" lon="10.8517517"><ele>80.0</ele><time>2026-04-25T10:22:53.726Z</time></trkpt><trkpt lat="43.336975" lon="10.8520517"><ele>82.5</ele><time>2026-04-25T10:22:54.725Z</time></trkpt><trkpt lat="43.33688" lon="10.85235"><ele>85.0</ele><time>2026-04-25T10:22:55.726Z</time></trkpt><trkpt lat="43.3367983" lon="10.8526383"><ele>86.33333333333333</ele><time>2026-04-25T10:22:56.726Z</time></trkpt><trkpt lat="43.3367117" lon="10.8529117"><ele>87.66666666666667</ele><time>2026-04-25T10:22:57.726Z</time></trkpt><trkpt lat="43.3366317" lon="10.8531717"><ele>89.0</ele><time>2026-04-25T10:22:58.726Z</time></trkpt><trkpt lat="43.33657" lon="10.85343"><ele>90.66666666666667</ele><time>2026-04-25T10:22:59.725Z</time></trkpt><trkpt lat="43.3365267" lon="10.8536967"><ele>92.33333333333333</ele><time>2026-04-25T10:23:00.726Z</time></trkpt><trkpt lat="43.33648" lon="10.8539683"><ele>94.0</ele><time>2026-04-25T10:23:01.726Z</time></trkpt><trkpt lat="43.3364067" lon="10.854225"><ele>92.33333333333333</ele><time>2026-04-25T10:23:02.725Z</time></trkpt><trkpt lat="43.3362933" lon="10.8544667"><ele>90.66666666666667</ele><time>2026-04-25T10:23:03.725Z</time></trkpt><trkpt lat="43.3361533" lon="10.8547067"><ele>89.0</ele><time>2026-04-25T10:23:04.725Z</time></trkpt><trkpt lat="43.3360117" lon="10.8549517"><ele>91.5</ele><time>2026-04-25T10:23:05.724Z</time></trkpt><trkpt lat="43.33587" lon="10.85521"><ele>94.0</ele><time>2026-04-25T10:23:06.725Z</time></trkpt><trkpt lat="43.33574" lon="10.8554883"><ele>94.0</ele><time>2026-04-25T10:23:07.726Z</time></trkpt><trkpt lat="43.33562" lon="10.8557783"><ele>94.0</ele><time>2026-04-25T10:23:08.724Z</time></trkpt><trkpt lat="43.3355083" lon="10.8560633"><ele>92.33333333333333</ele><time>2026-04-25T10:23:09.726Z</time></trkpt><trkpt lat="43.3354033" lon="10.8563367"><ele>90.66666666666667</ele><time>2026-04-25T10:23:10.725Z</time></trkpt><trkpt lat="43.3352917" lon="10.8566017"><ele>89.0</ele><time>2026-04-25T10:23:11.725Z</time></trkpt><trkpt lat="43.3351683" lon="10.8568533"><ele>89.0</ele><time>2026-04-25T10:23:12.726Z</time></trkpt><trkpt lat="43.3350317" lon="10.8570983"><ele>89.0</ele><time>2026-04-25T10:23:13.724Z</time></trkpt><trkpt lat="43.3348767" lon="10.8573317"><ele>86.0</ele><time>2026-04-25T10:23:14.724Z</time></trkpt><trkpt lat="43.3347083" lon="10.8575517"><ele>83.0</ele><time>2026-04-25T10:23:15.724Z</time></trkpt><trkpt lat="43.33453" lon="10.85776"><ele>83.0</ele><time>2026-04-25T10:23:16.726Z</time></trkpt><trkpt lat="43.3343483" lon="10.85795"><ele>83.0</ele><time>2026-04-25T10:23:17.727Z</time></trkpt><trkpt lat="43.3341617" lon="10.85812"><ele>83.0</ele><time>2026-04-25T10:23:18.725Z</time></trkpt><trkpt lat="43.3339717" lon="10.8582717"><ele>83.0</ele><time>2026-04-25T10:23:19.726Z</time></trkpt><trkpt lat="43.3337817" lon="10.858405"><ele>83.0</ele><time>2026-04-25T10:23:20.725Z</time></trkpt><trkpt lat="43.3335917" lon="10.8585217"><ele>83.0</ele><time>2026-04-25T10:23:21.725Z</time></trkpt><trkpt lat="43.3334" lon="10.858625"><ele>83.0</ele><time>2026-04-25T10:23:22.725Z</time></trkpt><trkpt lat="43.3332083" lon="10.8587117"><ele>83.0</ele><time>2026-04-25T10:23:23.725Z</time></trkpt><trkpt lat="43.3330183" lon="10.8587767"><ele>83.0</ele><time>2026-04-25T10:23:24.725Z</time></trkpt><trkpt lat="43.3328267" lon="10.8588217"><ele>83.0</ele><time>2026-04-25T10:23:25.725Z</time></trkpt><trkpt lat="43.33263" lon="10.858845"><ele>83.0</ele><time>2026-04-25T10:23:26.726Z</time></trkpt><trkpt lat="43.33243" lon="10.858855"><ele>83.0</ele><time>2026-04-25T10:23:27.724Z</time></trkpt><trkpt lat="43.3322417" lon="10.8588683"><ele>83.0</ele><time>2026-04-25T10:23:28.725Z</time></trkpt><trkpt lat="43.33205" lon="10.858885"><ele>83.0</ele><time>2026-04-25T10:23:29.726Z</time></trkpt><trkpt lat="43.3318633" lon="10.8589067"><ele>84.0</ele><time>2026-04-25T10:23:30.725Z</time></trkpt><trkpt lat="43.331675" lon="10.8589217"><ele>85.0</ele><time>2026-04-25T10:23:31.725Z</time></trkpt><trkpt lat="43.331485" lon="10.8589367"><ele>86.0</ele><time>2026-04-25T10:23:32.725Z</time></trkpt><trkpt lat="43.3312967" lon="10.8589517"><ele>86.66666666666667</ele><time>2026-04-25T10:23:33.726Z</time></trkpt><trkpt lat="43.3310983" lon="10.8589683"><ele>87.33333333333333</ele><time>2026-04-25T10:23:34.726Z</time></trkpt><trkpt lat="43.3309033" lon="10.85899"><ele>88.0</ele><time>2026-04-25T10:23:35.725Z</time></trkpt><trkpt lat="43.3307133" lon="10.8590067"><ele>91.0</ele><time>2026-04-25T10:23:36.726Z</time></trkpt><trkpt lat="43.33054" lon="10.8590233"><ele>94.0</ele><time>2026-04-25T10:23:37.726Z</time></trkpt><trkpt lat="43.3303817" lon="10.8590317"><ele>97.0</ele><time>2026-04-25T10:23:38.727Z</time></trkpt><trkpt lat="43.3302217" lon="10.859005"><ele>97.0</ele><time>2026-04-25T10:23:39.726Z</time></trkpt><trkpt lat="43.3300817" lon="10.8589233"><ele>97.0</ele><time>2026-04-25T10:23:40.724Z</time></trkpt><trkpt lat="43.3299633" lon="10.858785"><ele>97.0</ele><time>2026-04-25T10:23:41.725Z</time></trkpt><trkpt lat="43.3298717" lon="10.8586017"><ele>96.33333333333334</ele><time>2026-04-25T10:23:42.727Z</time></trkpt><trkpt lat="43.3298133" lon="10.8583683"><ele>95.66666666666667</ele><time>2026-04-25T10:23:43.726Z</time></trkpt><trkpt lat="43.3297783" lon="10.8580933"><ele>95.0</ele><time>2026-04-25T10:23:44.727Z</time></trkpt><trkpt lat="43.32975" lon="10.8578217"><ele>102.33333333333334</ele><time>2026-04-25T10:23:45.723Z</time></trkpt><trkpt lat="43.3297233" lon="10.85758"><ele>109.66666666666667</ele><time>2026-04-25T10:23:46.724Z</time></trkpt><trkpt lat="43.3296767" lon="10.857385"><ele>117.0</ele><time>2026-04-25T10:23:47.726Z</time></trkpt><trkpt lat="43.3296033" lon="10.8572133"><ele>117.0</ele><time>2026-04-25T10:23:48.727Z</time></trkpt><trkpt lat="43.3295017" lon="10.8570817"><ele>117.0</ele><time>2026-04-25T10:23:49.725Z</time></trkpt><trkpt lat="43.3293617" lon="10.8570167"><ele>117.0</ele><time>2026-04-25T10:23:50.726Z</time></trkpt><trkpt lat="43.3291833" lon="10.8570017"><ele>117.0</ele><time>2026-04-25T10:23:51.725Z</time></trkpt><trkpt lat="43.3289833" lon="10.8569633"><ele>117.0</ele><time>2026-04-25T10:23:52.727Z</time></trkpt><trkpt lat="43.32876" lon="10.8568867"><ele>117.0</ele><time>2026-04-25T10:23:53.725Z</time></trkpt><trkpt lat="43.3285317" lon="10.8567867"><ele>120.5</ele><time>2026-04-25T10:23:54.726Z</time></trkpt><trkpt lat="43.3283033" lon="10.8566783"><ele>124.0</ele><time>2026-04-25T10:23:55.724Z</time></trkpt><trkpt lat="43.3280783" lon="10.856555"><ele>129.0</ele><time>2026-04-25T10:23:56.726Z</time></trkpt><trkpt lat="43.3278733" lon="10.8564"><ele>134.0</ele><time>2026-04-25T10:23:57.727Z</time></trkpt><trkpt lat="43.3276933" lon="10.8562283"><ele>134.0</ele><time>2026-04-25T10:23:58.726Z</time></trkpt><trkpt lat="43.327515" lon="10.8560533"><ele>134.0</ele><time>2026-04-25T10:23:59.726Z</time></trkpt><trkpt lat="43.3273633" lon="10.85588"><ele>134.0</ele><time>2026-04-25T10:24:00.726Z</time></trkpt><trkpt lat="43.3272433" lon="10.85568"><ele>134.0</ele><time>2026-04-25T10:24:01.725Z</time></trkpt><trkpt lat="43.327145" lon="10.85545"><ele>134.0</ele><time>2026-04-25T10:24:02.727Z</time></trkpt><trkpt lat="43.3270467" lon="10.8552017"><ele>134.0</ele><time>2026-04-25T10:24:03.725Z</time></trkpt><trkpt lat="43.326925" lon="10.8549583"><ele>134.0</ele><time>2026-04-25T10:24:04.725Z</time></trkpt><trkpt lat="43.3267867" lon="10.8547167"><ele>134.0</ele><time>2026-04-25T10:24:05.723Z</time></trkpt><trkpt lat="43.3266317" lon="10.8544783"><ele>134.5</ele><time>2026-04-25T10:24:06.725Z</time></trkpt><trkpt lat="43.32646" lon="10.8542517"><ele>135.0</ele><time>2026-04-25T10:24:07.726Z</time></trkpt><trkpt lat="43.3262817" lon="10.8540533"><ele>138.0</ele><time>2026-04-25T10:24:08.726Z</time></trkpt><trkpt lat="43.326095" lon="10.853875"><ele>141.0</ele><time>2026-04-25T10:24:09.725Z</time></trkpt><trkpt lat="43.3258967" lon="10.85372"><ele>141.0</ele><time>2026-04-25T10:24:10.724Z</time></trkpt><trkpt lat="43.32569" lon="10.8536"><ele>141.0</ele><time>2026-04-25T10:24:11.725Z</time></trkpt><trkpt lat="43.3254767" lon="10.8535217"><ele>141.0</ele><time>2026-04-25T10:24:12.725Z</time></trkpt><trkpt lat="43.3252717" lon="10.8534617"><ele>142.66666666666666</ele><time>2026-04-25T10:24:13.724Z</time></trkpt><trkpt lat="43.32508" lon="10.8534317"><ele>144.33333333333331</ele><time>2026-04-25T10:24:14.725Z</time></trkpt><trkpt lat="43.3249033" lon="10.85341"><ele>146.0</ele><time>2026-04-25T10:24:15.724Z</time></trkpt><trkpt lat="43.3247367" lon="10.853395"><ele>148.25</ele><time>2026-04-25T10:24:16.725Z</time></trkpt><trkpt lat="43.3245867" lon="10.8533933"><ele>150.5</ele><time>2026-04-25T10:24:17.725Z</time></trkpt><trkpt lat="43.3244583" lon="10.8534133"><ele>152.75</ele><time>2026-04-25T10:24:18.726Z</time></trkpt><trkpt lat="43.3243383" lon="10.8534633"><ele>155.0</ele><time>2026-04-25T10:24:19.725Z</time></trkpt><trkpt lat="43.32423" lon="10.853545"><ele>155.25</ele><time>2026-04-25T10:24:20.727Z</time></trkpt><trkpt lat="43.3241417" lon="10.8536667"><ele>155.5</ele><time>2026-04-25T10:24:21.727Z</time></trkpt><trkpt lat="43.3240783" lon="10.8538133"><ele>155.75</ele><time>2026-04-25T10:24:22.726Z</time></trkpt><trkpt lat="43.3240317" lon="10.8539667"><ele>156.0</ele><time>2026-04-25T10:24:23.726Z</time></trkpt><trkpt lat="43.3240033" lon="10.8541283"><ele>157.25</ele><time>2026-04-25T10:24:24.726Z</time></trkpt><trkpt lat="43.3240067" lon="10.8543017"><ele>158.5</ele><time>2026-04-25T10:24:25.725Z</time></trkpt><trkpt lat="43.3240317" lon="10.8544867"><ele>159.75</ele><time>2026-04-25T10:24:26.727Z</time></trkpt><trkpt lat="43.3240633" lon="10.8546633"><ele>161.0</ele><time>2026-04-25T10:24:27.726Z</time></trkpt><trkpt lat="43.3240783" lon="10.8548367"><ele>161.0</ele><time>2026-04-25T10:24:28.726Z</time></trkpt><trkpt lat="43.3240767" lon="10.85502"><ele>161.0</ele><time>2026-04-25T10:24:29.727Z</time></trkpt><trkpt lat="43.3240717" lon="10.8552017"><ele>161.0</ele><time>2026-04-25T10:24:30.726Z</time></trkpt><trkpt lat="43.3240833" lon="10.855385"><ele>161.0</ele><time>2026-04-25T10:24:31.725Z</time></trkpt><trkpt lat="43.3241117" lon="10.855565"><ele>162.5</ele><time>2026-04-25T10:24:32.727Z</time></trkpt><trkpt lat="43.3241567" lon="10.85573"><ele>164.0</ele><time>2026-04-25T10:24:33.726Z</time></trkpt><trkpt lat="43.3242183" lon="10.8558767"><ele>165.5</ele><time>2026-04-25T10:24:34.726Z</time></trkpt><trkpt lat="43.324295" lon="10.856005"><ele>167.0</ele><time>2026-04-25T10:24:35.724Z</time></trkpt><trkpt lat="43.3243733" lon="10.85612"><ele>166.8</ele><time>2026-04-25T10:24:36.727Z</time></trkpt><trkpt lat="43.32444" lon="10.8562483"><ele>166.6</ele><time>2026-04-25T10:24:37.726Z</time></trkpt><trkpt lat="43.3244767" lon="10.8563933"><ele>166.4</ele><time>2026-04-25T10:24:38.727Z</time></trkpt><trkpt lat="43.3244833" lon="10.8565467"><ele>166.20000000000002</ele><time>2026-04-25T10:24:39.726Z</time></trkpt><trkpt lat="43.324455" lon="10.856685"><ele>166.0</ele><time>2026-04-25T10:24:40.728Z</time></trkpt><trkpt lat="43.3244033" lon="10.8567967"><ele>166.0</ele><time>2026-04-25T10:24:41.727Z</time></trkpt><trkpt lat="43.3243167" lon="10.85687"><ele>166.0</ele><time>2026-04-25T10:24:42.726Z</time></trkpt><trkpt lat="43.324215" lon="10.8568967"><ele>166.0</ele><time>2026-04-25T10:24:43.726Z</time></trkpt><trkpt lat="43.3241033" lon="10.8568833"><ele>166.0</ele><time>2026-04-25T10:24:44.725Z</time></trkpt><trkpt lat="43.3239933" lon="10.856845"><ele>166.0</ele><time>2026-04-25T10:24:45.723Z</time></trkpt><trkpt lat="43.3238683" lon="10.85679"><ele>169.33333333333334</ele><time>2026-04-25T10:24:46.726Z</time></trkpt><trkpt lat="43.323725" lon="10.856705"><ele>172.66666666666666</ele><time>2026-04-25T10:24:47.726Z</time></trkpt><trkpt lat="43.323575" lon="10.8565883"><ele>176.0</ele><time>2026-04-25T10:24:48.726Z</time></trkpt><trkpt lat="43.3234333" lon="10.85647"><ele>176.0</ele><time>2026-04-25T10:24:49.724Z</time></trkpt><trkpt lat="43.3233033" lon="10.8563667"><ele>176.0</ele><time>2026-04-25T10:24:50.725Z</time></trkpt><trkpt lat="43.3231817" lon="10.8562783"><ele>176.0</ele><time>2026-04-25T10:24:51.726Z</time></trkpt><trkpt lat="43.3230717" lon="10.8561967"><ele>176.0</ele><time>2026-04-25T10:24:52.726Z</time></trkpt><trkpt lat="43.32298" lon="10.8561133"><ele>176.0</ele><time>2026-04-25T10:24:53.723Z</time></trkpt><trkpt lat="43.322895" lon="10.8560033"><ele>176.0</ele><time>2026-04-25T10:24:54.726Z</time></trkpt><trkpt lat="43.32282" lon="10.855865"><ele>176.0</ele><time>2026-04-25T10:24:55.724Z</time></trkpt><trkpt lat="43.3227567" lon="10.8556817"><ele>176.0</ele><time>2026-04-25T10:24:56.727Z</time></trkpt><trkpt lat="43.322705" lon="10.855455"><ele>178.0</ele><time>2026-04-25T10:24:57.726Z</time></trkpt><trkpt lat="43.3226733" lon="10.855195"><ele>180.0</ele><time>2026-04-25T10:24:58.725Z</time></trkpt><trkpt lat="43.3226367" lon="10.8549317"><ele>182.0</ele><time>2026-04-25T10:24:59.725Z</time></trkpt><trkpt lat="43.32258" lon="10.8546833"><ele>184.0</ele><time>2026-04-25T10:25:00.727Z</time></trkpt><trkpt lat="43.322495" lon="10.854445"><ele>186.0</ele><time>2026-04-25T10:25:01.727Z</time></trkpt><trkpt lat="43.3223783" lon="10.8542167"><ele>188.0</ele><time>2026-04-25T10:25:02.726Z</time></trkpt><trkpt lat="43.3222433" lon="10.8539933"><ele>190.0</ele><time>2026-04-25T10:25:03.726Z</time></trkpt><trkpt lat="43.3220933" lon="10.8537733"><ele>192.0</ele><time>2026-04-25T10:25:04.725Z</time></trkpt><trkpt lat="43.3219417" lon="10.8535483"><ele>194.0</ele><time>2026-04-25T10:25:05.724Z</time></trkpt><trkpt lat="43.321795" lon="10.8533183"><ele>194.33333333333334</ele><time>2026-04-25T10:25:06.726Z</time></trkpt><trkpt lat="43.3216483" lon="10.8530933"><ele>194.66666666666669</ele><time>2026-04-25T10:25:07.726Z</time></trkpt><trkpt lat="43.3215" lon="10.85287"><ele>195.0</ele><time>2026-04-25T10:25:08.727Z</time></trkpt><trkpt lat="43.3213517" lon="10.85265"><ele>195.66666666666669</ele><time>2026-04-25T10:25:09.725Z</time></trkpt><trkpt lat="43.3212083" lon="10.8524317"><ele>196.33333333333334</ele><time>2026-04-25T10:25:10.724Z</time></trkpt><trkpt lat="43.3210733" lon="10.8522267"><ele>197.0</ele><time>2026-04-25T10:25:11.726Z</time></trkpt><trkpt lat="43.32094" lon="10.85202"><ele>197.0</ele><time>2026-04-25T10:25:12.726Z</time></trkpt><trkpt lat="43.3208083" lon="10.8518233"><ele>197.0</ele><time>2026-04-25T10:25:13.725Z</time></trkpt><trkpt lat="43.3206783" lon="10.851625"><ele>197.0</ele><time>2026-04-25T10:25:14.726Z</time></trkpt><trkpt lat="43.3205483" lon="10.85143"><ele>196.66666666666669</ele><time>2026-04-25T10:25:15.726Z</time></trkpt><trkpt lat="43.32042" lon="10.8512233"><ele>196.33333333333331</ele><time>2026-04-25T10:25:16.725Z</time></trkpt><trkpt lat="43.3203017" lon="10.8509933"><ele>196.0</ele><time>2026-04-25T10:25:17.725Z</time></trkpt><trkpt lat="43.3201883" lon="10.8507517"><ele>200.66666666666666</ele><time>2026-04-25T10:25:18.726Z</time></trkpt><trkpt lat="43.320075" lon="10.8504917"><ele>205.33333333333331</ele><time>2026-04-25T10:25:19.726Z</time></trkpt><trkpt lat="43.319965" lon="10.8502233"><ele>210.0</ele><time>2026-04-25T10:25:20.727Z</time></trkpt><trkpt lat="43.31985" lon="10.8499567"><ele>216.5</ele><time>2026-04-25T10:25:21.727Z</time></trkpt><trkpt lat="43.3197333" lon="10.8496883"><ele>223.0</ele><time>2026-04-25T10:25:22.726Z</time></trkpt><trkpt lat="43.3196167" lon="10.8494217"><ele>224.66666666666666</ele><time>2026-04-25T10:25:23.724Z</time></trkpt><trkpt lat="43.3195017" lon="10.84915"><ele>226.33333333333331</ele><time>2026-04-25T10:25:24.725Z</time></trkpt><trkpt lat="43.3193967" lon="10.8488833"><ele>228.0</ele><time>2026-04-25T10:25:25.723Z</time></trkpt><trkpt lat="43.3193033" lon="10.8486183"><ele>227.66666666666669</ele><time>2026-04-25T10:25:26.725Z</time></trkpt><trkpt lat="43.3192267" lon="10.848355"><ele>227.33333333333334</ele><time>2026-04-25T10:25:27.726Z</time></trkpt><trkpt lat="43.3191783" lon="10.8480917"><ele>227.0</ele><time>2026-04-25T10:25:28.725Z</time></trkpt><trkpt lat="43.319155" lon="10.8478317"><ele>227.66666666666669</ele><time>2026-04-25T10:25:29.726Z</time></trkpt><trkpt lat="43.3191583" lon="10.8475867"><ele>228.33333333333331</ele><time>2026-04-25T10:25:30.725Z</time></trkpt><trkpt lat="43.3191683" lon="10.8473733"><ele>229.0</ele><time>2026-04-25T10:25:31.725Z</time></trkpt><trkpt lat="43.3191533" lon="10.8471967"><ele>229.0</ele><time>2026-04-25T10:25:32.727Z</time></trkpt><trkpt lat="43.3191" lon="10.8470617"><ele>228.99999999999997</ele><time>2026-04-25T10:25:33.728Z</time></trkpt><trkpt lat="43.319025" lon="10.846975"><ele>228.99999999999997</ele><time>2026-04-25T10:25:34.726Z</time></trkpt><trkpt lat="43.3189333" lon="10.846955"><ele>229.0</ele><time>2026-04-25T10:25:35.726Z</time></trkpt><trkpt lat="43.31882" lon="10.8470233"><ele>229.0</ele><time>2026-04-25T10:25:36.726Z</time></trkpt><trkpt lat="43.3186883" lon="10.8471567"><ele>230.66666666666666</ele><time>2026-04-25T10:25:37.727Z</time></trkpt><trkpt lat="43.3185417" lon="10.84732"><ele>232.33333333333331</ele><time>2026-04-25T10:25:38.727Z</time></trkpt><trkpt lat="43.3183817" lon="10.8474917"><ele>234.0</ele><time>2026-04-25T10:25:39.727Z</time></trkpt><trkpt lat="43.31822" lon="10.847655"><ele>236.0</ele><time>2026-04-25T10:25:40.725Z</time></trkpt><trkpt lat="43.3180567" lon="10.84779"><ele>238.0</ele><time>2026-04-25T10:25:41.727Z</time></trkpt><trkpt lat="43.31788" lon="10.8478817"><ele>240.0</ele><time>2026-04-25T10:25:42.725Z</time></trkpt><trkpt lat="43.3177" lon="10.8479333"><ele>240.0</ele><time>2026-04-25T10:25:43.726Z</time></trkpt><trkpt lat="43.3175083" lon="10.8479417"><ele>240.0</ele><time>2026-04-25T10:25:44.727Z</time></trkpt><trkpt lat="43.3173033" lon="10.8479067"><ele>240.0</ele><time>2026-04-25T10:25:45.726Z</time></trkpt><trkpt lat="43.3170967" lon="10.84787"><ele>241.0</ele><time>2026-04-25T10:25:46.726Z</time></trkpt><trkpt lat="43.3168867" lon="10.8478333"><ele>242.0</ele><time>2026-04-25T10:25:47.725Z</time></trkpt><trkpt lat="43.3166783" lon="10.8478"><ele>243.0</ele><time>2026-04-25T10:25:48.727Z</time></trkpt><trkpt lat="43.3164683" lon="10.8477633"><ele>246.33333333333331</ele><time>2026-04-25T10:25:49.726Z</time></trkpt><trkpt lat="43.3162717" lon="10.84773"><ele>249.66666666666666</ele><time>2026-04-25T10:25:50.724Z</time></trkpt><trkpt lat="43.316085" lon="10.8476967"><ele>253.0</ele><time>2026-04-25T10:25:51.725Z</time></trkpt><trkpt lat="43.3159183" lon="10.8476683"><ele>253.0</ele><time>2026-04-25T10:25:52.727Z</time></trkpt><trkpt lat="43.3157683" lon="10.8476433"><ele>253.0</ele><time>2026-04-25T10:25:53.726Z</time></trkpt><trkpt lat="43.3156267" lon="10.8476333"><ele>253.0</ele><time>2026-04-25T10:25:54.726Z</time></trkpt><trkpt lat="43.3154883" lon="10.8476583"><ele>253.0</ele><time>2026-04-25T10:25:55.724Z</time></trkpt><trkpt lat="43.3153617" lon="10.84773"><ele>255.25</ele><time>2026-04-25T10:25:56.726Z</time></trkpt><trkpt lat="43.3152283" lon="10.8478133"><ele>257.5</ele><time>2026-04-25T10:25:57.725Z</time></trkpt><trkpt lat="43.315095" lon="10.847885"><ele>259.75</ele><time>2026-04-25T10:25:58.725Z</time></trkpt><trkpt lat="43.31496" lon="10.8479"><ele>262.0</ele><time>2026-04-25T10:25:59.726Z</time></trkpt><trkpt lat="43.3148183" lon="10.8478533"><ele>264.0</ele><time>2026-04-25T10:26:00.726Z</time></trkpt><trkpt lat="43.3146717" lon="10.8477867"><ele>266.0</ele><time>2026-04-25T10:26:01.726Z</time></trkpt><trkpt lat="43.3145217" lon="10.84776"><ele>268.0</ele><time>2026-04-25T10:26:02.725Z</time></trkpt><trkpt lat="43.3143533" lon="10.8477767"><ele>268.0</ele><time>2026-04-25T10:26:03.725Z</time></trkpt><trkpt lat="43.3141617" lon="10.84785"><ele>268.0</ele><time>2026-04-25T10:26:04.726Z</time></trkpt><trkpt lat="43.3139617" lon="10.84794"><ele>268.0</ele><time>2026-04-25T10:26:05.724Z</time></trkpt><trkpt lat="43.3137567" lon="10.8480333"><ele>268.0</ele><time>2026-04-25T10:26:06.726Z</time></trkpt><trkpt lat="43.3135583" lon="10.848095"><ele>268.0</ele><time>2026-04-25T10:26:07.725Z</time></trkpt><trkpt lat="43.3133683" lon="10.848105"><ele>268.0</ele><time>2026-04-25T10:26:08.724Z</time></trkpt><trkpt lat="43.3131933" lon="10.8480617"><ele>269.25</ele><time>2026-04-25T10:26:09.723Z</time></trkpt><trkpt lat="43.3130533" lon="10.8479517"><ele>270.5</ele><time>2026-04-25T10:26:10.725Z</time></trkpt><trkpt lat="43.3129367" lon="10.84786"><ele>271.75</ele><time>2026-04-25T10:26:11.724Z</time></trkpt><trkpt lat="43.3128183" lon="10.8478217"><ele>273.0</ele><time>2026-04-25T10:26:12.725Z</time></trkpt><trkpt lat="43.3126917" lon="10.8478433"><ele>273.0</ele><time>2026-04-25T10:26:13.725Z</time></trkpt><trkpt lat="43.3125333" lon="10.8479083"><ele>273.0</ele><time>2026-04-25T10:26:14.725Z</time></trkpt><trkpt lat="43.3123583" lon="10.847965"><ele>273.0</ele><time>2026-04-25T10:26:15.723Z</time></trkpt><trkpt lat="43.3121783" lon="10.84797"><ele>275.0</ele><time>2026-04-25T10:26:16.725Z</time></trkpt><trkpt lat="43.3120317" lon="10.8479117"><ele>277.0</ele><time>2026-04-25T10:26:17.724Z</time></trkpt><trkpt lat="43.3119017" lon="10.847795"><ele>279.0</ele><time>2026-04-25T10:26:18.723Z</time></trkpt><trkpt lat="43.311795" lon="10.8476317"><ele>277.5</ele><time>2026-04-25T10:26:19.725Z</time></trkpt><trkpt lat="43.3116933" lon="10.8474833"><ele>276.0</ele><time>2026-04-25T10:26:20.724Z</time></trkpt><trkpt lat="43.3115783" lon="10.847385"><ele>274.5</ele><time>2026-04-25T10:26:21.726Z</time></trkpt><trkpt lat="43.3114533" lon="10.8473333"><ele>273.0</ele><time>2026-04-25T10:26:22.724Z</time></trkpt><trkpt lat="43.31132" lon="10.8473467"><ele>273.0</ele><time>2026-04-25T10:26:23.723Z</time></trkpt><trkpt lat="43.3111767" lon="10.8474133"><ele>273.0</ele><time>2026-04-25T10:26:24.724Z</time></trkpt><trkpt lat="43.311035" lon="10.847535"><ele>273.0</ele><time>2026-04-25T10:26:25.726Z</time></trkpt><trkpt lat="43.3108817" lon="10.84769"><ele>274.3333333333333</ele><time>2026-04-25T10:26:26.724Z</time></trkpt><trkpt lat="43.31073" lon="10.8478567"><ele>275.66666666666663</ele><time>2026-04-25T10:26:27.726Z</time></trkpt><trkpt lat="43.3105817" lon="10.8480183"><ele>277.0</ele><time>2026-04-25T10:26:28.724Z</time></trkpt><trkpt lat="43.31042" lon="10.8481867"><ele>277.0</ele><time>2026-04-25T10:26:29.723Z</time></trkpt><trkpt lat="43.3102483" lon="10.8483567"><ele>277.0</ele><time>2026-04-25T10:26:30.725Z</time></trkpt><trkpt lat="43.310075" lon="10.8485067"><ele>277.0</ele><time>2026-04-25T10:26:31.726Z</time></trkpt><trkpt lat="43.3099067" lon="10.8486333"><ele>276.3333333333333</ele><time>2026-04-25T10:26:32.725Z</time></trkpt><trkpt lat="43.3097467" lon="10.84875"><ele>275.6666666666667</ele><time>2026-04-25T10:26:33.727Z</time></trkpt><trkpt lat="43.309605" lon="10.848885"><ele>275.0</ele><time>2026-04-25T10:26:34.725Z</time></trkpt><trkpt lat="43.3094867" lon="10.8490533"><ele>275.0</ele><time>2026-04-25T10:26:35.725Z</time></trkpt><trkpt lat="43.30938" lon="10.8492583"><ele>275.0</ele><time>2026-04-25T10:26:36.727Z</time></trkpt><trkpt lat="43.3092933" lon="10.8494933"><ele>275.0</ele><time>2026-04-25T10:26:37.725Z</time></trkpt><trkpt lat="43.3092067" lon="10.8497417"><ele>275.0</ele><time>2026-04-25T10:26:38.725Z</time></trkpt><trkpt lat="43.3091033" lon="10.8499833"><ele>275.0</ele><time>2026-04-25T10:26:39.725Z</time></trkpt><trkpt lat="43.3089783" lon="10.8502"><ele>275.0</ele><time>2026-04-25T10:26:40.725Z</time></trkpt><trkpt lat="43.3088233" lon="10.8503883"><ele>275.0</ele><time>2026-04-25T10:26:41.724Z</time></trkpt><trkpt lat="43.3086483" lon="10.85056"><ele>275.0</ele><time>2026-04-25T10:26:42.724Z</time></trkpt><trkpt lat="43.3084667" lon="10.850715"><ele>275.0</ele><time>2026-04-25T10:26:43.727Z</time></trkpt><trkpt lat="43.3082817" lon="10.850865"><ele>274.0</ele><time>2026-04-25T10:26:44.726Z</time></trkpt><trkpt lat="43.3080933" lon="10.8510167"><ele>273.0</ele><time>2026-04-25T10:26:45.726Z</time></trkpt><trkpt lat="43.3079017" lon="10.8511617"><ele>272.0</ele><time>2026-04-25T10:26:46.727Z</time></trkpt><trkpt lat="43.3077133" lon="10.8513083"><ele>272.0</ele><time>2026-04-25T10:26:47.725Z</time></trkpt><trkpt lat="43.3075217" lon="10.8514517"><ele>272.0</ele><time>2026-04-25T10:26:48.726Z</time></trkpt><trkpt lat="43.30733" lon="10.851595"><ele>272.0</ele><time>2026-04-25T10:26:49.724Z</time></trkpt><trkpt lat="43.3071367" lon="10.8517317"><ele>271.6666666666667</ele><time>2026-04-25T10:26:50.724Z</time></trkpt><trkpt lat="43.3069467" lon="10.8518633"><ele>271.3333333333333</ele><time>2026-04-25T10:26:51.725Z</time></trkpt><trkpt lat="43.3067567" lon="10.8519917"><ele>271.0</ele><time>2026-04-25T10:26:52.726Z</time></trkpt><trkpt lat="43.3065683" lon="10.8521117"><ele>273.0</ele><time>2026-04-25T10:26:53.725Z</time></trkpt><trkpt lat="43.3063917" lon="10.8522183"><ele>275.0</ele><time>2026-04-25T10:26:54.723Z</time></trkpt><trkpt lat="43.3061983" lon="10.85231"><ele>277.0</ele><time>2026-04-25T10:26:55.723Z</time></trkpt><trkpt lat="43.3060267" lon="10.8523933"><ele>277.0</ele><time>2026-04-25T10:26:56.727Z</time></trkpt><trkpt lat="43.305845" lon="10.85247"><ele>277.0</ele><time>2026-04-25T10:26:57.728Z</time></trkpt><trkpt lat="43.3056567" lon="10.852555"><ele>277.0</ele><time>2026-04-25T10:26:58.725Z</time></trkpt><trkpt lat="43.305475" lon="10.8526417"><ele>276.0</ele><time>2026-04-25T10:26:59.723Z</time></trkpt><trkpt lat="43.3053" lon="10.8527283"><ele>275.0</ele><time>2026-04-25T10:27:00.724Z</time></trkpt><trkpt lat="43.3051183" lon="10.852825"><ele>274.0</ele><time>2026-04-25T10:27:01.726Z</time></trkpt><trkpt lat="43.3049483" lon="10.8529267"><ele>274.0</ele><time>2026-04-25T10:27:02.725Z</time></trkpt><trkpt lat="43.3047717" lon="10.853045"><ele>274.0</ele><time>2026-04-25T10:27:03.727Z</time></trkpt><trkpt lat="43.3045983" lon="10.8531817"><ele>274.0</ele><time>2026-04-25T10:27:04.724Z</time></trkpt><trkpt lat="43.3044233" lon="10.8533317"><ele>274.0</ele><time>2026-04-25T10:27:05.725Z</time></trkpt><trkpt lat="43.3042533" lon="10.853495"><ele>274.0</ele><time>2026-04-25T10:27:06.725Z</time></trkpt><trkpt lat="43.30409" lon="10.8536767"><ele>274.0</ele><time>2026-04-25T10:27:07.725Z</time></trkpt><trkpt lat="43.303935" lon="10.8538783"><ele>275.0</ele><time>2026-04-25T10:27:08.726Z</time></trkpt><trkpt lat="43.3037833" lon="10.8540967"><ele>276.0</ele><time>2026-04-25T10:27:09.725Z</time></trkpt><trkpt lat="43.3036383" lon="10.85432"><ele>277.0</ele><time>2026-04-25T10:27:10.725Z</time></trkpt><trkpt lat="43.3035" lon="10.8545467"><ele>277.0</ele><time>2026-04-25T10:27:11.724Z</time></trkpt><trkpt lat="43.30337" lon="10.85477"><ele>277.0</ele><time>2026-04-25T10:27:12.724Z</time></trkpt><trkpt lat="43.3032417" lon="10.8549867"><ele>277.0</ele><time>2026-04-25T10:27:13.725Z</time></trkpt><trkpt lat="43.3031183" lon="10.8551967"><ele>275.3333333333333</ele><time>2026-04-25T10:27:14.723Z</time></trkpt><trkpt lat="43.303005" lon="10.855395"><ele>273.6666666666667</ele><time>2026-04-25T10:27:15.725Z</time></trkpt><trkpt lat="43.3028917" lon="10.855575"><ele>272.0</ele><time>2026-04-25T10:27:16.725Z</time></trkpt><trkpt lat="43.30277" lon="10.8557283"><ele>272.0</ele><time>2026-04-25T10:27:17.724Z</time></trkpt><trkpt lat="43.3026267" lon="10.8558433"><ele>272.0</ele><time>2026-04-25T10:27:18.726Z</time></trkpt><trkpt lat="43.3024717" lon="10.8559133"><ele>272.0</ele><time>2026-04-25T10:27:19.725Z</time></trkpt><trkpt lat="43.30231" lon="10.8559367"><ele>273.6666666666667</ele><time>2026-04-25T10:27:20.727Z</time></trkpt><trkpt lat="43.302135" lon="10.8559333"><ele>275.3333333333333</ele><time>2026-04-25T10:27:21.727Z</time></trkpt><trkpt lat="43.3019633" lon="10.85592"><ele>277.0</ele><time>2026-04-25T10:27:22.726Z</time></trkpt><trkpt lat="43.301815" lon="10.8559033"><ele>277.0</ele><time>2026-04-25T10:27:23.725Z</time></trkpt><trkpt lat="43.3016767" lon="10.8558683"><ele>277.0</ele><time>2026-04-25T10:27:24.725Z</time></trkpt><trkpt lat="43.30155" lon="10.85582"><ele>277.0</ele><time>2026-04-25T10:27:25.724Z</time></trkpt><trkpt lat="43.3014283" lon="10.855775"><ele>277.0</ele><time>2026-04-25T10:27:26.727Z</time></trkpt><trkpt lat="43.301305" lon="10.8557583"><ele>278.4</ele><time>2026-04-25T10:27:27.727Z</time></trkpt><trkpt lat="43.301185" lon="10.8557817"><ele>279.79999999999995</ele><time>2026-04-25T10:27:28.723Z</time></trkpt><trkpt lat="43.3010733" lon="10.8558333"><ele>281.2</ele><time>2026-04-25T10:27:29.723Z</time></trkpt><trkpt lat="43.3009733" lon="10.8558967"><ele>282.59999999999997</ele><time>2026-04-25T10:27:30.725Z</time></trkpt><trkpt lat="43.300885" lon="10.85596"><ele>284.0</ele><time>2026-04-25T10:27:31.726Z</time></trkpt><trkpt lat="43.3008" lon="10.85602"><ele>285.25</ele><time>2026-04-25T10:27:32.724Z</time></trkpt><trkpt lat="43.3007067" lon="10.8560883"><ele>286.5</ele><time>2026-04-25T10:27:33.724Z</time></trkpt><trkpt lat="43.3006117" lon="10.8561683"><ele>287.75</ele><time>2026-04-25T10:27:34.724Z</time></trkpt><trkpt lat="43.300515" lon="10.8562617"><ele>289.0</ele><time>2026-04-25T10:27:35.725Z</time></trkpt><trkpt lat="43.3004267" lon="10.8563667"><ele>291.5</ele><time>2026-04-25T10:27:36.725Z</time></trkpt><trkpt lat="43.3003467" lon="10.8564917"><ele>294.0</ele><time>2026-04-25T10:27:37.725Z</time></trkpt><trkpt lat="43.3002817" lon="10.8566367"><ele>296.5</ele><time>2026-04-25T10:27:38.726Z</time></trkpt><trkpt lat="43.300235" lon="10.8568033"><ele>299.0</ele><time>2026-04-25T10:27:39.725Z</time></trkpt><trkpt lat="43.3002117" lon="10.8569767"><ele>301.25</ele><time>2026-04-25T10:27:40.726Z</time></trkpt><trkpt lat="43.3002133" lon="10.8571533"><ele>303.5</ele><time>2026-04-25T10:27:41.725Z</time></trkpt><trkpt lat="43.3002283" lon="10.8573367"><ele>305.75</ele><time>2026-04-25T10:27:42.726Z</time></trkpt><trkpt lat="43.3002433" lon="10.8575317"><ele>308.0</ele><time>2026-04-25T10:27:43.725Z</time></trkpt><trkpt lat="43.3002367" lon="10.8577333"><ele>308.5</ele><time>2026-04-25T10:27:44.726Z</time></trkpt><trkpt lat="43.3002117" lon="10.857925"><ele>309.0</ele><time>2026-04-25T10:27:45.726Z</time></trkpt><trkpt lat="43.3001617" lon="10.8581033"><ele>309.5</ele><time>2026-04-25T10:27:46.725Z</time></trkpt><trkpt lat="43.3000983" lon="10.8582717"><ele>310.0</ele><time>2026-04-25T10:27:47.725Z</time></trkpt><trkpt lat="43.300025" lon="10.858445"><ele>309.75</ele><time>2026-04-25T10:27:48.724Z</time></trkpt><trkpt lat="43.2999667" lon="10.8586233"><ele>309.5</ele><time>2026-04-25T10:27:49.727Z</time></trkpt><trkpt lat="43.2999317" lon="10.8588083"><ele>309.25</ele><time>2026-04-25T10:27:50.725Z</time></trkpt><trkpt lat="43.2999267" lon="10.85901"><ele>309.0</ele><time>2026-04-25T10:27:51.724Z</time></trkpt><trkpt lat="43.2999417" lon="10.859255"><ele>311.0</ele><time>2026-04-25T10:27:52.725Z</time></trkpt><trkpt lat="43.2999633" lon="10.8595367"><ele>313.0</ele><time>2026-04-25T10:27:53.724Z</time></trkpt><trkpt lat="43.2999933" lon="10.8598383"><ele>315.0</ele><time>2026-04-25T10:27:54.723Z</time></trkpt><trkpt lat="43.300035" lon="10.8601317"><ele>319.0</ele><time>2026-04-25T10:27:55.727Z</time></trkpt><trkpt lat="43.3000917" lon="10.8604017"><ele>323.0</ele><time>2026-04-25T10:27:56.724Z</time></trkpt><trkpt lat="43.30017" lon="10.8606483"><ele>327.0</ele><time>2026-04-25T10:27:57.727Z</time></trkpt><trkpt lat="43.3002517" lon="10.86087"><ele>328.6666666666667</ele><time>2026-04-25T10:27:58.724Z</time></trkpt><trkpt lat="43.3003183" lon="10.8610867"><ele>330.33333333333337</ele><time>2026-04-25T10:27:59.723Z</time></trkpt><trkpt lat="43.3003483" lon="10.8613"><ele>332.0</ele><time>2026-04-25T10:28:00.725Z</time></trkpt><trkpt lat="43.3003317" lon="10.86152"><ele>332.0</ele><time>2026-04-25T10:28:01.725Z</time></trkpt><trkpt lat="43.30028" lon="10.8617517"><ele>332.0</ele><time>2026-04-25T10:28:02.724Z</time></trkpt><trkpt lat="43.3002133" lon="10.8619917"><ele>332.0</ele><time>2026-04-25T10:28:03.727Z</time></trkpt><trkpt lat="43.3001233" lon="10.86225"><ele>331.33333333333337</ele><time>2026-04-25T10:28:04.725Z</time></trkpt><trkpt lat="43.3000483" lon="10.8624983"><ele>330.6666666666667</ele><time>2026-04-25T10:28:05.726Z</time></trkpt><trkpt lat="43.2999917" lon="10.862755"><ele>330.0</ele><time>2026-04-25T10:28:06.722Z</time></trkpt><trkpt lat="43.2999667" lon="10.8630233"><ele>330.0</ele><time>2026-04-25T10:28:07.726Z</time></trkpt><trkpt lat="43.2999833" lon="10.863295"><ele>330.0</ele><time>2026-04-25T10:28:08.723Z</time></trkpt><trkpt lat="43.3000333" lon="10.86355"><ele>330.0</ele><time>2026-04-25T10:28:09.723Z</time></trkpt><trkpt lat="43.3000983" lon="10.8638033"><ele>333.0</ele><time>2026-04-25T10:28:10.724Z</time></trkpt><trkpt lat="43.3001817" lon="10.864055"><ele>336.0</ele><time>2026-04-25T10:28:11.725Z</time></trkpt><trkpt lat="43.30026" lon="10.8642983"><ele>339.0</ele><time>2026-04-25T10:28:12.725Z</time></trkpt><trkpt lat="43.300345" lon="10.8645317"><ele>336.3333333333333</ele><time>2026-04-25T10:28:13.722Z</time></trkpt><trkpt lat="43.30044" lon="10.8647433"><ele>333.66666666666663</ele><time>2026-04-25T10:28:14.724Z</time></trkpt><trkpt lat="43.300545" lon="10.8649233"><ele>331.0</ele><time>2026-04-25T10:28:15.725Z</time></trkpt><trkpt lat="43.3006483" lon="10.8650783"><ele>332.75</ele><time>2026-04-25T10:28:16.724Z</time></trkpt><trkpt lat="43.3007217" lon="10.8652367"><ele>334.5</ele><time>2026-04-25T10:28:17.724Z</time></trkpt><trkpt lat="43.3007633" lon="10.8653917"><ele>336.25</ele><time>2026-04-25T10:28:18.724Z</time></trkpt><trkpt lat="43.3007767" lon="10.8655617"><ele>338.0</ele><time>2026-04-25T10:28:19.727Z</time></trkpt><trkpt lat="43.3007717" lon="10.8657383"><ele>338.0</ele><time>2026-04-25T10:28:20.724Z</time></trkpt><trkpt lat="43.3007567" lon="10.86593"><ele>338.0</ele><time>2026-04-25T10:28:21.726Z</time></trkpt><trkpt lat="43.300735" lon="10.8661317"><ele>338.0</ele><time>2026-04-25T10:28:22.726Z</time></trkpt><trkpt lat="43.3007083" lon="10.8663433"><ele>338.0</ele><time>2026-04-25T10:28:23.726Z</time></trkpt><trkpt lat="43.3006867" lon="10.86656"><ele>339.33333333333337</ele><time>2026-04-25T10:28:24.724Z</time></trkpt><trkpt lat="43.3006683" lon="10.8667817"><ele>340.6666666666667</ele><time>2026-04-25T10:28:25.727Z</time></trkpt><trkpt lat="43.3006533" lon="10.867005"><ele>342.0</ele><time>2026-04-25T10:28:26.726Z</time></trkpt><trkpt lat="43.3006483" lon="10.8672267"><ele>342.0</ele><time>2026-04-25T10:28:27.726Z</time></trkpt><trkpt lat="43.3006367" lon="10.8674433"><ele>342.0</ele><time>2026-04-25T10:28:28.728Z</time></trkpt><trkpt lat="43.3006167" lon="10.8676583"><ele>342.0</ele><time>2026-04-25T10:28:29.724Z</time></trkpt><trkpt lat="43.3005883" lon="10.8678683"><ele>345.3333333333333</ele><time>2026-04-25T10:28:30.726Z</time></trkpt><trkpt lat="43.3005467" lon="10.86808"><ele>348.66666666666663</ele><time>2026-04-25T10:28:31.725Z</time></trkpt><trkpt lat="43.3004917" lon="10.868285"><ele>352.0</ele><time>2026-04-25T10:28:32.726Z</time></trkpt><trkpt lat="43.30043" lon="10.86848"><ele>352.0</ele><time>2026-04-25T10:28:33.725Z</time></trkpt><trkpt lat="43.300365" lon="10.868665"><ele>352.0</ele><time>2026-04-25T10:28:34.724Z</time></trkpt><trkpt lat="43.300285" lon="10.8688483"><ele>352.0</ele><time>2026-04-25T10:28:35.725Z</time></trkpt><trkpt lat="43.300195" lon="10.86903"><ele>352.0</ele><time>2026-04-25T10:28:36.727Z</time></trkpt><trkpt lat="43.3000967" lon="10.8692133"><ele>352.0</ele><time>2026-04-25T10:28:37.726Z</time></trkpt><trkpt lat="43.2999933" lon="10.8693967"><ele>352.0</ele><time>2026-04-25T10:28:38.726Z</time></trkpt><trkpt lat="43.2998883" lon="10.869575"><ele>353.66666666666663</ele><time>2026-04-25T10:28:39.725Z</time></trkpt><trkpt lat="43.29978" lon="10.86975"><ele>355.3333333333333</ele><time>2026-04-25T10:28:40.726Z</time></trkpt><trkpt lat="43.2996767" lon="10.8699217"><ele>357.0</ele><time>2026-04-25T10:28:41.725Z</time></trkpt><trkpt lat="43.29958" lon="10.8700917"><ele>359.3333333333333</ele><time>2026-04-25T10:28:42.725Z</time></trkpt><trkpt lat="43.2994817" lon="10.8702583"><ele>361.66666666666663</ele><time>2026-04-25T10:28:43.725Z</time></trkpt><trkpt lat="43.2993917" lon="10.8704217"><ele>364.0</ele><time>2026-04-25T10:28:44.724Z</time></trkpt><trkpt lat="43.2993" lon="10.870575"><ele>364.0</ele><time>2026-04-25T10:28:45.724Z</time></trkpt><trkpt lat="43.2992117" lon="10.8707217"><ele>364.0</ele><time>2026-04-25T10:28:46.725Z</time></trkpt><trkpt lat="43.2991283" lon="10.8708567"><ele>364.0</ele><time>2026-04-25T10:28:47.727Z</time></trkpt><trkpt lat="43.299055" lon="10.8709817"><ele>364.0</ele><time>2026-04-25T10:28:48.725Z</time></trkpt><trkpt lat="43.2989817" lon="10.87109"><ele>364.0</ele><time>2026-04-25T10:28:49.725Z</time></trkpt><trkpt lat="43.2989133" lon="10.87118"><ele>364.0</ele><time>2026-04-25T10:28:50.728Z</time></trkpt><trkpt lat="43.2988483" lon="10.8712533"><ele>364.0</ele><time>2026-04-25T10:28:51.724Z</time></trkpt><trkpt lat="43.2987883" lon="10.871315"><ele>364.0</ele><time>2026-04-25T10:28:52.724Z</time></trkpt><trkpt lat="43.2987183" lon="10.8713783"><ele>364.0</ele><time>2026-04-25T10:28:53.723Z</time></trkpt><trkpt lat="43.298655" lon="10.87145"><ele>364.0</ele><time>2026-04-25T10:28:54.723Z</time></trkpt><trkpt lat="43.2985967" lon="10.8715467"><ele>364.0</ele><time>2026-04-25T10:28:55.724Z</time></trkpt><trkpt lat="43.2985383" lon="10.8716667"><ele>364.0</ele><time>2026-04-25T10:28:56.725Z</time></trkpt><trkpt lat="43.2984667" lon="10.8717917"><ele>364.0</ele><time>2026-04-25T10:28:57.726Z</time></trkpt><trkpt lat="43.2983783" lon="10.8719233"><ele>364.0</ele><time>2026-04-25T10:28:58.725Z</time></trkpt><trkpt lat="43.2982817" lon="10.8720483"><ele>363.0</ele><time>2026-04-25T10:28:59.726Z</time></trkpt><trkpt lat="43.29817" lon="10.8721833"><ele>362.0</ele><time>2026-04-25T10:29:00.723Z</time></trkpt><trkpt lat="43.2980533" lon="10.8723233"><ele>361.0</ele><time>2026-04-25T10:29:01.725Z</time></trkpt><trkpt lat="43.2979383" lon="10.8724633"><ele>361.0</ele><time>2026-04-25T10:29:02.724Z</time></trkpt><trkpt lat="43.2978233" lon="10.8726033"><ele>361.0</ele><time>2026-04-25T10:29:03.724Z</time></trkpt><trkpt lat="43.2977133" lon="10.87274"><ele>361.0</ele><time>2026-04-25T10:29:04.724Z</time></trkpt><trkpt lat="43.297595" lon="10.87287"><ele>360.0</ele><time>2026-04-25T10:29:05.727Z</time></trkpt><trkpt lat="43.2974767" lon="10.87299"><ele>359.0</ele><time>2026-04-25T10:29:06.725Z</time></trkpt><trkpt lat="43.2973533" lon="10.8730983"><ele>358.0</ele><time>2026-04-25T10:29:07.726Z</time></trkpt><trkpt lat="43.2972283" lon="10.8731967"><ele>357.0</ele><time>2026-04-25T10:29:08.725Z</time></trkpt><trkpt lat="43.297105" lon="10.8732833"><ele>356.75</ele><time>2026-04-25T10:29:09.726Z</time></trkpt><trkpt lat="43.2969917" lon="10.873355"><ele>356.5</ele><time>2026-04-25T10:29:10.724Z</time></trkpt><trkpt lat="43.2968833" lon="10.8734167"><ele>356.25</ele><time>2026-04-25T10:29:11.725Z</time></trkpt><trkpt lat="43.296775" lon="10.8734733"><ele>356.0</ele><time>2026-04-25T10:29:12.725Z</time></trkpt><trkpt lat="43.2966633" lon="10.873525"><ele>354.75</ele><time>2026-04-25T10:29:13.726Z</time></trkpt><trkpt lat="43.2965517" lon="10.873575"><ele>353.5</ele><time>2026-04-25T10:29:14.722Z</time></trkpt><trkpt lat="43.2964367" lon="10.873625"><ele>352.25</ele><time>2026-04-25T10:29:15.726Z</time></trkpt><trkpt lat="43.296315" lon="10.8736683"><ele>351.0</ele><time>2026-04-25T10:29:16.727Z</time></trkpt><trkpt lat="43.29619" lon="10.8737033"><ele>350.5</ele><time>2026-04-25T10:29:17.726Z</time></trkpt><trkpt lat="43.2960717" lon="10.873725"><ele>350.0</ele><time>2026-04-25T10:29:18.726Z</time></trkpt><trkpt lat="43.2959517" lon="10.873745"><ele>349.5</ele><time>2026-04-25T10:29:19.727Z</time></trkpt><trkpt lat="43.2958133" lon="10.87377"><ele>349.0</ele><time>2026-04-25T10:29:20.725Z</time></trkpt><trkpt lat="43.2956733" lon="10.8738117"><ele>347.0</ele><time>2026-04-25T10:29:21.726Z</time></trkpt><trkpt lat="43.2955167" lon="10.873855"><ele>345.0</ele><time>2026-04-25T10:29:22.726Z</time></trkpt><trkpt lat="43.2953567" lon="10.873895"><ele>343.0</ele><time>2026-04-25T10:29:23.727Z</time></trkpt><trkpt lat="43.2951917" lon="10.8739283"><ele>343.0</ele><time>2026-04-25T10:29:24.723Z</time></trkpt><trkpt lat="43.29502" lon="10.8739583"><ele>343.0</ele><time>2026-04-25T10:29:25.726Z</time></trkpt><trkpt lat="43.2948467" lon="10.873995"><ele>343.0</ele><time>2026-04-25T10:29:26.728Z</time></trkpt><trkpt lat="43.29467" lon="10.8740333"><ele>340.66666666666663</ele><time>2026-04-25T10:29:27.726Z</time></trkpt><trkpt lat="43.2944883" lon="10.8740717"><ele>338.3333333333333</ele><time>2026-04-25T10:29:28.723Z</time></trkpt><trkpt lat="43.29431" lon="10.8741117"><ele>336.0</ele><time>2026-04-25T10:29:29.726Z</time></trkpt><trkpt lat="43.294135" lon="10.8741583"><ele>336.0</ele><time>2026-04-25T10:29:30.726Z</time></trkpt><trkpt lat="43.2939617" lon="10.874215"><ele>336.0</ele><time>2026-04-25T10:29:31.725Z</time></trkpt><trkpt lat="43.2937917" lon="10.8742833"><ele>336.0</ele><time>2026-04-25T10:29:32.727Z</time></trkpt><trkpt lat="43.2936233" lon="10.87436"><ele>333.6666666666667</ele><time>2026-04-25T10:29:33.725Z</time></trkpt><trkpt lat="43.29346" lon="10.8744467"><ele>331.33333333333337</ele><time>2026-04-25T10:29:34.725Z</time></trkpt><trkpt lat="43.2933" lon="10.8745517"><ele>329.0</ele><time>2026-04-25T10:29:35.725Z</time></trkpt><trkpt lat="43.2931433" lon="10.874665"><ele>330.33333333333337</ele><time>2026-04-25T10:29:36.725Z</time></trkpt><trkpt lat="43.29299" lon="10.8747833"><ele>331.6666666666667</ele><time>2026-04-25T10:29:37.724Z</time></trkpt><trkpt lat="43.29284" lon="10.8749033"><ele>333.0</ele><time>2026-04-25T10:29:38.725Z</time></trkpt><trkpt lat="43.2927" lon="10.87502"><ele>331.3333333333333</ele><time>2026-04-25T10:29:39.725Z</time></trkpt><trkpt lat="43.2925633" lon="10.87513"><ele>329.66666666666663</ele><time>2026-04-25T10:29:40.724Z</time></trkpt><trkpt lat="43.29243" lon="10.875235"><ele>328.0</ele><time>2026-04-25T10:29:41.725Z</time></trkpt><trkpt lat="43.2923033" lon="10.8753317"><ele>328.0</ele><time>2026-04-25T10:29:42.725Z</time></trkpt><trkpt lat="43.2921817" lon="10.8754167"><ele>328.0</ele><time>2026-04-25T10:29:43.727Z</time></trkpt><trkpt lat="43.2920633" lon="10.8755017"><ele>328.0</ele><time>2026-04-25T10:29:44.725Z</time></trkpt><trkpt lat="43.2919483" lon="10.8755783"><ele>328.0</ele><time>2026-04-25T10:29:45.726Z</time></trkpt><trkpt lat="43.2918267" lon="10.8756467"><ele>328.0</ele><time>2026-04-25T10:29:46.727Z</time></trkpt><trkpt lat="43.2917" lon="10.8757117"><ele>328.0</ele><time>2026-04-25T10:29:47.726Z</time></trkpt><trkpt lat="43.2915617" lon="10.8757667"><ele>328.0</ele><time>2026-04-25T10:29:48.725Z</time></trkpt><trkpt lat="43.2914167" lon="10.87582"><ele>328.0</ele><time>2026-04-25T10:29:49.727Z</time></trkpt><trkpt lat="43.2912683" lon="10.8758733"><ele>327.0</ele><time>2026-04-25T10:29:50.726Z</time></trkpt><trkpt lat="43.29112" lon="10.8759283"><ele>326.0</ele><time>2026-04-25T10:29:51.725Z</time></trkpt><trkpt lat="43.29098" lon="10.875985"><ele>325.0</ele><time>2026-04-25T10:29:52.726Z</time></trkpt><trkpt lat="43.2908417" lon="10.8760583"><ele>324.0</ele><time>2026-04-25T10:29:53.725Z</time></trkpt><trkpt lat="43.2907117" lon="10.8761383"><ele>322.5</ele><time>2026-04-25T10:29:54.724Z</time></trkpt><trkpt lat="43.2905883" lon="10.8762417"><ele>321.0</ele><time>2026-04-25T10:29:55.726Z</time></trkpt><trkpt lat="43.2904833" lon="10.87635"><ele>319.5</ele><time>2026-04-25T10:29:56.726Z</time></trkpt><trkpt lat="43.29039" lon="10.8764667"><ele>318.0</ele><time>2026-04-25T10:29:57.725Z</time></trkpt><trkpt lat="43.2903017" lon="10.8765883"><ele>318.0</ele><time>2026-04-25T10:29:58.726Z</time></trkpt><trkpt lat="43.2902167" lon="10.8767167"><ele>318.0</ele><time>2026-04-25T10:29:59.727Z</time></trkpt><trkpt lat="43.290135" lon="10.8768583"><ele>318.0</ele><time>2026-04-25T10:30:00.725Z</time></trkpt><trkpt lat="43.2900417" lon="10.877005"><ele>318.0</ele><time>2026-04-25T10:30:01.726Z</time></trkpt><trkpt lat="43.2899467" lon="10.87716"><ele>317.0</ele><time>2026-04-25T10:30:02.725Z</time></trkpt><trkpt lat="43.2898483" lon="10.8773267"><ele>316.0</ele><time>2026-04-25T10:30:03.726Z</time></trkpt><trkpt lat="43.28975" lon="10.8775033"><ele>315.0</ele><time>2026-04-25T10:30:04.725Z</time></trkpt><trkpt lat="43.28965" lon="10.877685"><ele>315.0</ele><time>2026-04-25T10:30:05.726Z</time></trkpt><trkpt lat="43.2895467" lon="10.8778733"><ele>315.0</ele><time>2026-04-25T10:30:06.726Z</time></trkpt><trkpt lat="43.2894383" lon="10.8780667"><ele>315.0</ele><time>2026-04-25T10:30:07.725Z</time></trkpt><trkpt lat="43.289325" lon="10.878265"><ele>313.6666666666667</ele><time>2026-04-25T10:30:08.725Z</time></trkpt><trkpt lat="43.28921" lon="10.8784733"><ele>312.33333333333337</ele><time>2026-04-25T10:30:09.726Z</time></trkpt><trkpt lat="43.289085" lon="10.8786817"><ele>311.0</ele><time>2026-04-25T10:30:10.724Z</time></trkpt><trkpt lat="43.2889667" lon="10.8788933"><ele>312.33333333333337</ele><time>2026-04-25T10:30:11.724Z</time></trkpt><trkpt lat="43.2888517" lon="10.8791017"><ele>313.6666666666667</ele><time>2026-04-25T10:30:12.725Z</time></trkpt><trkpt lat="43.2887467" lon="10.87931"><ele>315.0</ele><time>2026-04-25T10:30:13.724Z</time></trkpt><trkpt lat="43.2886433" lon="10.8795267"><ele>315.0</ele><time>2026-04-25T10:30:14.725Z</time></trkpt><trkpt lat="43.28856" lon="10.8797633"><ele>315.0</ele><time>2026-04-25T10:30:15.725Z</time></trkpt><trkpt lat="43.2885017" lon="10.8800133"><ele>315.0</ele><time>2026-04-25T10:30:16.725Z</time></trkpt><trkpt lat="43.2884617" lon="10.8802767"><ele>314.0</ele><time>2026-04-25T10:30:17.723Z</time></trkpt><trkpt lat="43.2884383" lon="10.8805417"><ele>313.0</ele><time>2026-04-25T10:30:18.726Z</time></trkpt><trkpt lat="43.2884417" lon="10.8808133"><ele>312.0</ele><time>2026-04-25T10:30:19.723Z</time></trkpt><trkpt lat="43.2884617" lon="10.8810833"><ele>312.0</ele><time>2026-04-25T10:30:20.724Z</time></trkpt><trkpt lat="43.2885017" lon="10.88135"><ele>312.0</ele><time>2026-04-25T10:30:21.728Z</time></trkpt><trkpt lat="43.2885667" lon="10.8816117"><ele>312.0</ele><time>2026-04-25T10:30:22.726Z</time></trkpt><trkpt lat="43.2886483" lon="10.8818583"><ele>312.0</ele><time>2026-04-25T10:30:23.725Z</time></trkpt><trkpt lat="43.28873" lon="10.8820983"><ele>312.0</ele><time>2026-04-25T10:30:24.725Z</time></trkpt><trkpt lat="43.28879" lon="10.88234"><ele>312.0</ele><time>2026-04-25T10:30:25.726Z</time></trkpt><trkpt lat="43.2888167" lon="10.8825867"><ele>313.6666666666667</ele><time>2026-04-25T10:30:26.727Z</time></trkpt><trkpt lat="43.2888083" lon="10.8828367"><ele>315.33333333333337</ele><time>2026-04-25T10:30:27.724Z</time></trkpt><trkpt lat="43.288775" lon="10.883085"><ele>317.0</ele><time>2026-04-25T10:30:28.724Z</time></trkpt><trkpt lat="43.288725" lon="10.8833217"><ele>320.0</ele><time>2026-04-25T10:30:29.726Z</time></trkpt><trkpt lat="43.288645" lon="10.8835233"><ele>323.0</ele><time>2026-04-25T10:30:30.726Z</time></trkpt><trkpt lat="43.2885317" lon="10.883695"><ele>326.0</ele><time>2026-04-25T10:30:31.723Z</time></trkpt><trkpt lat="43.2883983" lon="10.88384"><ele>326.0</ele><time>2026-04-25T10:30:32.725Z</time></trkpt><trkpt lat="43.2882517" lon="10.8839617"><ele>326.0</ele><time>2026-04-25T10:30:33.726Z</time></trkpt><trkpt lat="43.288095" lon="10.88407"><ele>326.0</ele><time>2026-04-25T10:30:34.726Z</time></trkpt><trkpt lat="43.287945" lon="10.8841867"><ele>327.33333333333337</ele><time>2026-04-25T10:30:35.726Z</time></trkpt><trkpt lat="43.2878117" lon="10.884325"><ele>328.6666666666667</ele><time>2026-04-25T10:30:36.724Z</time></trkpt><trkpt lat="43.2877017" lon="10.8844867"><ele>330.0</ele><time>2026-04-25T10:30:37.723Z</time></trkpt><trkpt lat="43.2875983" lon="10.8846567"><ele>330.0</ele><time>2026-04-25T10:30:38.726Z</time></trkpt><trkpt lat="43.2874933" lon="10.8848017"><ele>330.0</ele><time>2026-04-25T10:30:39.725Z</time></trkpt><trkpt lat="43.2873883" lon="10.8849233"><ele>330.0</ele><time>2026-04-25T10:30:40.723Z</time></trkpt><trkpt lat="43.2872783" lon="10.885025"><ele>330.0</ele><time>2026-04-25T10:30:41.726Z</time></trkpt><trkpt lat="43.2871667" lon="10.88512"><ele>330.25</ele><time>2026-04-25T10:30:42.725Z</time></trkpt><trkpt lat="43.2870567" lon="10.8852083"><ele>330.5</ele><time>2026-04-25T10:30:43.723Z</time></trkpt><trkpt lat="43.2869533" lon="10.8852883"><ele>330.75</ele><time>2026-04-25T10:30:44.725Z</time></trkpt><trkpt lat="43.2868533" lon="10.88537"><ele>331.0</ele><time>2026-04-25T10:30:45.725Z</time></trkpt><trkpt lat="43.286755" lon="10.8854533"><ele>331.0</ele><time>2026-04-25T10:30:46.723Z</time></trkpt><trkpt lat="43.2866583" lon="10.8855433"><ele>331.0</ele><time>2026-04-25T10:30:47.723Z</time></trkpt><trkpt lat="43.28657" lon="10.8856433"><ele>331.0</ele><time>2026-04-25T10:30:48.726Z</time></trkpt><trkpt lat="43.286485" lon="10.8857483"><ele>331.0</ele><time>2026-04-25T10:30:49.725Z</time></trkpt><trkpt lat="43.2864033" lon="10.8858583"><ele>329.4</ele><time>2026-04-25T10:30:50.723Z</time></trkpt><trkpt lat="43.28633" lon="10.8859667"><ele>327.8</ele><time>2026-04-25T10:30:51.725Z</time></trkpt><trkpt lat="43.2862633" lon="10.8860733"><ele>326.2</ele><time>2026-04-25T10:30:52.724Z</time></trkpt><trkpt lat="43.2861967" lon="10.8861783"><ele>324.59999999999997</ele><time>2026-04-25T10:30:53.723Z</time></trkpt><trkpt lat="43.2861267" lon="10.8862833"><ele>323.0</ele><time>2026-04-25T10:30:54.724Z</time></trkpt><trkpt lat="43.286065" lon="10.8863917"><ele>323.0</ele><time>2026-04-25T10:30:55.725Z</time></trkpt><trkpt lat="43.2860083" lon="10.8865083"><ele>323.0</ele><time>2026-04-25T10:30:56.724Z</time></trkpt><trkpt lat="43.285955" lon="10.8866333"><ele>323.0</ele><time>2026-04-25T10:30:57.724Z</time></trkpt><trkpt lat="43.2859167" lon="10.886765"><ele>323.0</ele><time>2026-04-25T10:30:58.725Z</time></trkpt><trkpt lat="43.28589" lon="10.8869067"><ele>323.0</ele><time>2026-04-25T10:30:59.725Z</time></trkpt><trkpt lat="43.285875" lon="10.88705"><ele>323.0</ele><time>2026-04-25T10:31:00.723Z</time></trkpt><trkpt lat="43.2858667" lon="10.8871917"><ele>323.0</ele><time>2026-04-25T10:31:01.724Z</time></trkpt><trkpt lat="43.2858683" lon="10.887335"><ele>323.0</ele><time>2026-04-25T10:31:02.723Z</time></trkpt><trkpt lat="43.2858867" lon="10.8874817"><ele>323.0</ele><time>2026-04-25T10:31:03.724Z</time></trkpt><trkpt lat="43.2859267" lon="10.887635"><ele>323.0</ele><time>2026-04-25T10:31:04.723Z</time></trkpt><trkpt lat="43.2859783" lon="10.88778"><ele>321.79999999999995</ele><time>2026-04-25T10:31:05.723Z</time></trkpt><trkpt lat="43.2860367" lon="10.88791"><ele>320.59999999999997</ele><time>2026-04-25T10:31:06.722Z</time></trkpt><trkpt lat="43.2861" lon="10.8880317"><ele>319.4</ele><time>2026-04-25T10:31:07.724Z</time></trkpt><trkpt lat="43.2861633" lon="10.8881483"><ele>318.2</ele><time>2026-04-25T10:31:08.724Z</time></trkpt><trkpt lat="43.2862283" lon="10.8882683"><ele>317.0</ele><time>2026-04-25T10:31:09.724Z</time></trkpt><trkpt lat="43.28629" lon="10.8883917"><ele>317.75</ele><time>2026-04-25T10:31:10.723Z</time></trkpt><trkpt lat="43.2863467" lon="10.8885267"><ele>318.5</ele><time>2026-04-25T10:31:11.725Z</time></trkpt><trkpt lat="43.286395" lon="10.888685"><ele>319.25</ele><time>2026-04-25T10:31:12.723Z</time></trkpt><trkpt lat="43.2864283" lon="10.8888533"><ele>320.0</ele><time>2026-04-25T10:31:13.726Z</time></trkpt><trkpt lat="43.2864433" lon="10.8890267"><ele>320.0</ele><time>2026-04-25T10:31:14.723Z</time></trkpt><trkpt lat="43.286445" lon="10.8892017"><ele>320.0</ele><time>2026-04-25T10:31:15.725Z</time></trkpt><trkpt lat="43.2864333" lon="10.889365"><ele>320.0</ele><time>2026-04-25T10:31:16.726Z</time></trkpt><trkpt lat="43.286405" lon="10.8895217"><ele>320.0</ele><time>2026-04-25T10:31:17.725Z</time></trkpt><trkpt lat="43.28636" lon="10.8896817"><ele>320.25</ele><time>2026-04-25T10:31:18.727Z</time></trkpt><trkpt lat="43.2863" lon="10.8898333"><ele>320.5</ele><time>2026-04-25T10:31:19.727Z</time></trkpt><trkpt lat="43.286225" lon="10.88997"><ele>320.75</ele><time>2026-04-25T10:31:20.726Z</time></trkpt><trkpt lat="43.2861333" lon="10.8900933"><ele>321.0</ele><time>2026-04-25T10:31:21.724Z</time></trkpt><trkpt lat="43.28603" lon="10.8901983"><ele>319.75</ele><time>2026-04-25T10:31:22.726Z</time></trkpt><trkpt lat="43.2859167" lon="10.89029"><ele>318.5</ele><time>2026-04-25T10:31:23.723Z</time></trkpt><trkpt lat="43.2857983" lon="10.8903683"><ele>317.25</ele><time>2026-04-25T10:31:24.724Z</time></trkpt><trkpt lat="43.2856617" lon="10.89044"><ele>316.0</ele><time>2026-04-25T10:31:25.726Z</time></trkpt><trkpt lat="43.28551" lon="10.89051"><ele>315.3333333333333</ele><time>2026-04-25T10:31:26.725Z</time></trkpt><trkpt lat="43.285345" lon="10.8905767"><ele>314.6666666666667</ele><time>2026-04-25T10:31:27.726Z</time></trkpt><trkpt lat="43.2851767" lon="10.8906467"><ele>314.0</ele><time>2026-04-25T10:31:28.723Z</time></trkpt><trkpt lat="43.285015" lon="10.8907167"><ele>314.0</ele><time>2026-04-25T10:31:29.725Z</time></trkpt><trkpt lat="43.284855" lon="10.8907817"><ele>314.0</ele><time>2026-04-25T10:31:30.726Z</time></trkpt><trkpt lat="43.284705" lon="10.8908367"><ele>314.0</ele><time>2026-04-25T10:31:31.723Z</time></trkpt><trkpt lat="43.2845633" lon="10.890885"><ele>312.0</ele><time>2026-04-25T10:31:32.726Z</time></trkpt><trkpt lat="43.2844317" lon="10.89093"><ele>310.0</ele><time>2026-04-25T10:31:33.726Z</time></trkpt><trkpt lat="43.2843033" lon="10.89096"><ele>308.0</ele><time>2026-04-25T10:31:34.723Z</time></trkpt><trkpt lat="43.284175" lon="10.890965"><ele>306.0</ele><time>2026-04-25T10:31:35.726Z</time></trkpt><trkpt lat="43.28405" lon="10.8909517"><ele>305.0</ele><time>2026-04-25T10:31:36.725Z</time></trkpt><trkpt lat="43.28392" lon="10.8909367"><ele>304.0</ele><time>2026-04-25T10:31:37.726Z</time></trkpt><trkpt lat="43.2837667" lon="10.890915"><ele>303.0</ele><time>2026-04-25T10:31:38.726Z</time></trkpt><trkpt lat="43.28359" lon="10.89088"><ele>304.3333333333333</ele><time>2026-04-25T10:31:39.726Z</time></trkpt><trkpt lat="43.2834117" lon="10.8908483"><ele>305.66666666666663</ele><time>2026-04-25T10:31:40.726Z</time></trkpt><trkpt lat="43.28322" lon="10.890825"><ele>307.0</ele><time>2026-04-25T10:31:41.726Z</time></trkpt><trkpt lat="43.283025" lon="10.890825"><ele>307.0</ele><time>2026-04-25T10:31:42.725Z</time></trkpt><trkpt lat="43.2828233" lon="10.8908567"><ele>307.0</ele><time>2026-04-25T10:31:43.724Z</time></trkpt><trkpt lat="43.2826167" lon="10.8909167"><ele>307.0</ele><time>2026-04-25T10:31:44.724Z</time></trkpt><trkpt lat="43.2824067" lon="10.8909883"><ele>303.66666666666663</ele><time>2026-04-25T10:31:45.726Z</time></trkpt><trkpt lat="43.2821917" lon="10.89106"><ele>300.3333333333333</ele><time>2026-04-25T10:31:46.725Z</time></trkpt><trkpt lat="43.2819817" lon="10.8911283"><ele>297.0</ele><time>2026-04-25T10:31:47.726Z</time></trkpt><trkpt lat="43.28178" lon="10.8912033"><ele>297.0</ele><time>2026-04-25T10:31:48.73Z</time></trkpt><trkpt lat="43.28159" lon="10.891295"><ele>297.0</ele><time>2026-04-25T10:31:49.725Z</time></trkpt><trkpt lat="43.2814183" lon="10.89142"><ele>297.0</ele><time>2026-04-25T10:31:50.724Z</time></trkpt><trkpt lat="43.281265" lon="10.8915867"><ele>295.6666666666667</ele><time>2026-04-25T10:31:51.726Z</time></trkpt><trkpt lat="43.281125" lon="10.8917983"><ele>294.33333333333337</ele><time>2026-04-25T10:31:52.726Z</time></trkpt><trkpt lat="43.2809967" lon="10.8920283"><ele>293.0</ele><time>2026-04-25T10:31:53.724Z</time></trkpt><trkpt lat="43.2808633" lon="10.892245"><ele>293.0</ele><time>2026-04-25T10:31:54.726Z</time></trkpt><trkpt lat="43.2807117" lon="10.8924117"><ele>293.0</ele><time>2026-04-25T10:31:55.724Z</time></trkpt><trkpt lat="43.2805417" lon="10.8925333"><ele>293.0</ele><time>2026-04-25T10:31:56.724Z</time></trkpt><trkpt lat="43.2803517" lon="10.892615"><ele>289.33333333333337</ele><time>2026-04-25T10:31:57.724Z</time></trkpt><trkpt lat="43.2801417" lon="10.8926667"><ele>285.6666666666667</ele><time>2026-04-25T10:31:58.724Z</time></trkpt><trkpt lat="43.2799217" lon="10.8927183"><ele>282.0</ele><time>2026-04-25T10:31:59.726Z</time></trkpt><trkpt lat="43.2796967" lon="10.8928067"><ele>282.0</ele><time>2026-04-25T10:32:00.725Z</time></trkpt><trkpt lat="43.2794817" lon="10.8929317"><ele>282.0</ele><time>2026-04-25T10:32:01.726Z</time></trkpt><trkpt lat="43.2792817" lon="10.8930833"><ele>282.0</ele><time>2026-04-25T10:32:02.725Z</time></trkpt><trkpt lat="43.2790933" lon="10.8932317"><ele>282.0</ele><time>2026-04-25T10:32:03.726Z</time></trkpt><trkpt lat="43.27889" lon="10.8933583"><ele>282.0</ele><time>2026-04-25T10:32:04.725Z</time></trkpt><trkpt lat="43.27868" lon="10.8934567"><ele>280.5</ele><time>2026-04-25T10:32:05.726Z</time></trkpt><trkpt lat="43.278455" lon="10.8935367"><ele>279.0</ele><time>2026-04-25T10:32:06.724Z</time></trkpt><trkpt lat="43.278225" lon="10.8936133"><ele>280.0</ele><time>2026-04-25T10:32:07.726Z</time></trkpt><trkpt lat="43.2779917" lon="10.8936933"><ele>281.0</ele><time>2026-04-25T10:32:08.727Z</time></trkpt><trkpt lat="43.277765" lon="10.8937733"><ele>281.0</ele><time>2026-04-25T10:32:09.724Z</time></trkpt><trkpt lat="43.2775333" lon="10.89385"><ele>281.0</ele><time>2026-04-25T10:32:10.726Z</time></trkpt><trkpt lat="43.277305" lon="10.893925"><ele>279.5</ele><time>2026-04-25T10:32:11.725Z</time></trkpt><trkpt lat="43.2770817" lon="10.8940017"><ele>278.0</ele><time>2026-04-25T10:32:12.726Z</time></trkpt><trkpt lat="43.2768633" lon="10.8940833"><ele>278.0</ele><time>2026-04-25T10:32:13.725Z</time></trkpt><trkpt lat="43.276645" lon="10.8941533"><ele>278.0</ele><time>2026-04-25T10:32:14.724Z</time></trkpt><trkpt lat="43.27643" lon="10.8942"><ele>278.0</ele><time>2026-04-25T10:32:15.725Z</time></trkpt><trkpt lat="43.27622" lon="10.8942067"><ele>278.33333333333337</ele><time>2026-04-25T10:32:16.725Z</time></trkpt><trkpt lat="43.2760133" lon="10.8941767"><ele>278.6666666666667</ele><time>2026-04-25T10:32:17.725Z</time></trkpt><trkpt lat="43.2758067" lon="10.8941167"><ele>279.0</ele><time>2026-04-25T10:32:18.725Z</time></trkpt><trkpt lat="43.275605" lon="10.894035"><ele>279.6666666666667</ele><time>2026-04-25T10:32:19.725Z</time></trkpt><trkpt lat="43.2754067" lon="10.893945"><ele>280.33333333333337</ele><time>2026-04-25T10:32:20.724Z</time></trkpt><trkpt lat="43.27521" lon="10.8938583"><ele>281.0</ele><time>2026-04-25T10:32:21.725Z</time></trkpt><trkpt lat="43.2750183" lon="10.8937667"><ele>281.0</ele><time>2026-04-25T10:32:22.725Z</time></trkpt><trkpt lat="43.2748267" lon="10.89368"><ele>281.0</ele><time>2026-04-25T10:32:23.726Z</time></trkpt><trkpt lat="43.27464" lon="10.89359"><ele>281.0</ele><time>2026-04-25T10:32:24.726Z</time></trkpt><trkpt lat="43.2744633" lon="10.893515"><ele>281.0</ele><time>2026-04-25T10:32:25.726Z</time></trkpt><trkpt lat="43.2742933" lon="10.893475"><ele>281.0</ele><time>2026-04-25T10:32:26.726Z</time></trkpt><trkpt lat="43.2741217" lon="10.8934633"><ele>281.0</ele><time>2026-04-25T10:32:27.723Z</time></trkpt><trkpt lat="43.2739367" lon="10.8934933"><ele>279.0</ele><time>2026-04-25T10:32:28.724Z</time></trkpt><trkpt lat="43.2737483" lon="10.8935533"><ele>277.0</ele><time>2026-04-25T10:32:29.726Z</time></trkpt><trkpt lat="43.2735533" lon="10.8936267"><ele>275.0</ele><time>2026-04-25T10:32:30.727Z</time></trkpt><trkpt lat="43.2733417" lon="10.8937133"><ele>275.0</ele><time>2026-04-25T10:32:31.725Z</time></trkpt><trkpt lat="43.27312" lon="10.893805"><ele>275.0</ele><time>2026-04-25T10:32:32.725Z</time></trkpt><trkpt lat="43.2728983" lon="10.8939017"><ele>274.5</ele><time>2026-04-25T10:32:33.726Z</time></trkpt><trkpt lat="43.272675" lon="10.8940033"><ele>274.0</ele><time>2026-04-25T10:32:34.727Z</time></trkpt><trkpt lat="43.2724533" lon="10.894105"><ele>276.3333333333333</ele><time>2026-04-25T10:32:35.723Z</time></trkpt><trkpt lat="43.2722417" lon="10.8942"><ele>278.6666666666667</ele><time>2026-04-25T10:32:36.725Z</time></trkpt><trkpt lat="43.2720433" lon="10.89427"><ele>281.0</ele><time>2026-04-25T10:32:37.727Z</time></trkpt><trkpt lat="43.2718517" lon="10.8943017"><ele>281.0</ele><time>2026-04-25T10:32:38.726Z</time></trkpt><trkpt lat="43.2716567" lon="10.8942867"><ele>281.0</ele><time>2026-04-25T10:32:39.726Z</time></trkpt><trkpt lat="43.2714533" lon="10.894245"><ele>281.0</ele><time>2026-04-25T10:32:40.725Z</time></trkpt><trkpt lat="43.271245" lon="10.894195"><ele>281.6666666666667</ele><time>2026-04-25T10:32:41.726Z</time></trkpt><trkpt lat="43.2710267" lon="10.8941367"><ele>282.3333333333333</ele><time>2026-04-25T10:32:42.726Z</time></trkpt><trkpt lat="43.2708117" lon="10.894075"><ele>283.0</ele><time>2026-04-25T10:32:43.725Z</time></trkpt><trkpt lat="43.2706" lon="10.893995"><ele>281.0</ele><time>2026-04-25T10:32:44.725Z</time></trkpt><trkpt lat="43.27039" lon="10.893885"><ele>279.0</ele><time>2026-04-25T10:32:45.724Z</time></trkpt><trkpt lat="43.2701883" lon="10.8937333"><ele>279.0</ele><time>2026-04-25T10:32:46.726Z</time></trkpt><trkpt lat="43.2699933" lon="10.89356"><ele>279.0</ele><time>2026-04-25T10:32:47.725Z</time></trkpt><trkpt lat="43.2697983" lon="10.8933783"><ele>281.5</ele><time>2026-04-25T10:32:48.726Z</time></trkpt><trkpt lat="43.2696017" lon="10.8932033"><ele>284.0</ele><time>2026-04-25T10:32:49.726Z</time></trkpt><trkpt lat="43.26941" lon="10.89303"><ele>284.0</ele><time>2026-04-25T10:32:50.725Z</time></trkpt><trkpt lat="43.2692333" lon="10.892875"><ele>284.0</ele><time>2026-04-25T10:32:51.726Z</time></trkpt><trkpt lat="43.2690767" lon="10.8927417"><ele>284.0</ele><time>2026-04-25T10:32:52.725Z</time></trkpt><trkpt lat="43.2689483" lon="10.892625"><ele>287.0</ele><time>2026-04-25T10:32:53.726Z</time></trkpt><trkpt lat="43.268855" lon="10.8925"><ele>290.0</ele><time>2026-04-25T10:32:54.725Z</time></trkpt><trkpt lat="43.2688133" lon="10.8923633"><ele>293.0</ele><time>2026-04-25T10:32:55.724Z</time></trkpt><trkpt lat="43.2688233" lon="10.8922383"><ele>296.0</ele><time>2026-04-25T10:32:56.726Z</time></trkpt><trkpt lat="43.268855" lon="10.8921267"><ele>299.0</ele><time>2026-04-25T10:32:57.725Z</time></trkpt><trkpt lat="43.26891" lon="10.892015"><ele>295.6666666666667</ele><time>2026-04-25T10:32:58.726Z</time></trkpt><trkpt lat="43.269" lon="10.89186"><ele>292.3333333333333</ele><time>2026-04-25T10:32:59.726Z</time></trkpt><trkpt lat="43.269075" lon="10.89164"><ele>289.0</ele><time>2026-04-25T10:33:00.724Z</time></trkpt><trkpt lat="43.2691383" lon="10.891365"><ele>289.0</ele><time>2026-04-25T10:33:01.724Z</time></trkpt><trkpt lat="43.2692017" lon="10.891065"><ele>289.0</ele><time>2026-04-25T10:33:02.726Z</time></trkpt><trkpt lat="43.26926" lon="10.8907833"><ele>289.0</ele><time>2026-04-25T10:33:03.726Z</time></trkpt><trkpt lat="43.26931" lon="10.8905067"><ele>292.3333333333333</ele><time>2026-04-25T10:33:04.726Z</time></trkpt><trkpt lat="43.2693333" lon="10.8902317"><ele>295.6666666666667</ele><time>2026-04-25T10:33:05.726Z</time></trkpt><trkpt lat="43.26933" lon="10.8899467"><ele>299.0</ele><time>2026-04-25T10:33:06.726Z</time></trkpt><trkpt lat="43.2693" lon="10.8896533"><ele>300.33333333333337</ele><time>2026-04-25T10:33:07.725Z</time></trkpt><trkpt lat="43.2692533" lon="10.889375"><ele>301.6666666666667</ele><time>2026-04-25T10:33:08.724Z</time></trkpt><trkpt lat="43.2692067" lon="10.8891117"><ele>303.0</ele><time>2026-04-25T10:33:09.726Z</time></trkpt><trkpt lat="43.2691783" lon="10.888865"><ele>304.0</ele><time>2026-04-25T10:33:10.723Z</time></trkpt><trkpt lat="43.2691917" lon="10.888625"><ele>305.0</ele><time>2026-04-25T10:33:11.724Z</time></trkpt><trkpt lat="43.2692367" lon="10.888405"><ele>306.0</ele><time>2026-04-25T10:33:12.726Z</time></trkpt><trkpt lat="43.2692717" lon="10.8882083"><ele>306.6666666666667</ele><time>2026-04-25T10:33:13.725Z</time></trkpt><trkpt lat="43.2692717" lon="10.8880017"><ele>307.33333333333337</ele><time>2026-04-25T10:33:14.727Z</time></trkpt><trkpt lat="43.269235" lon="10.8877733"><ele>308.0</ele><time>2026-04-25T10:33:15.725Z</time></trkpt><trkpt lat="43.2692017" lon="10.8875267"><ele>309.33333333333337</ele><time>2026-04-25T10:33:16.726Z</time></trkpt><trkpt lat="43.2691933" lon="10.8872733"><ele>310.6666666666667</ele><time>2026-04-25T10:33:17.725Z</time></trkpt><trkpt lat="43.2692233" lon="10.887025"><ele>312.0</ele><time>2026-04-25T10:33:18.724Z</time></trkpt><trkpt lat="43.269285" lon="10.886815"><ele>313.0</ele><time>2026-04-25T10:33:19.727Z</time></trkpt><trkpt lat="43.2693483" lon="10.8866383"><ele>314.0</ele><time>2026-04-25T10:33:20.727Z</time></trkpt><trkpt lat="43.2693767" lon="10.8864767"><ele>315.0</ele><time>2026-04-25T10:33:21.725Z</time></trkpt><trkpt lat="43.2693567" lon="10.8863217"><ele>316.0</ele><time>2026-04-25T10:33:22.726Z</time></trkpt><trkpt lat="43.269285" lon="10.886195"><ele>316.0</ele><time>2026-04-25T10:33:23.727Z</time></trkpt><trkpt lat="43.2691667" lon="10.88609"><ele>316.0</ele><time>2026-04-25T10:33:24.728Z</time></trkpt><trkpt lat="43.2690167" lon="10.8859817"><ele>316.0</ele><time>2026-04-25T10:33:25.726Z</time></trkpt><trkpt lat="43.2688767" lon="10.885855"><ele>319.25</ele><time>2026-04-25T10:33:26.725Z</time></trkpt><trkpt lat="43.26877" lon="10.8857083"><ele>322.5</ele><time>2026-04-25T10:33:27.725Z</time></trkpt><trkpt lat="43.2687167" lon="10.885535"><ele>325.75</ele><time>2026-04-25T10:33:28.725Z</time></trkpt><trkpt lat="43.26871" lon="10.8853517"><ele>329.0</ele><time>2026-04-25T10:33:29.723Z</time></trkpt><trkpt lat="43.268725" lon="10.88517"><ele>328.25</ele><time>2026-04-25T10:33:30.725Z</time></trkpt><trkpt lat="43.2687267" lon="10.88498"><ele>327.5</ele><time>2026-04-25T10:33:31.726Z</time></trkpt><trkpt lat="43.26869" lon="10.8848083"><ele>326.75</ele><time>2026-04-25T10:33:32.726Z</time></trkpt><trkpt lat="43.2686133" lon="10.8846483"><ele>326.0</ele><time>2026-04-25T10:33:33.726Z</time></trkpt><trkpt lat="43.2684833" lon="10.8844867"><ele>326.0</ele><time>2026-04-25T10:33:34.725Z</time></trkpt><trkpt lat="43.26833" lon="10.8843033"><ele>326.0</ele><time>2026-04-25T10:33:35.726Z</time></trkpt><trkpt lat="43.268175" lon="10.8841117"><ele>326.0</ele><time>2026-04-25T10:33:36.726Z</time></trkpt><trkpt lat="43.268025" lon="10.883945"><ele>328.0</ele><time>2026-04-25T10:33:37.727Z</time></trkpt><trkpt lat="43.2678617" lon="10.883815"><ele>330.0</ele><time>2026-04-25T10:33:38.727Z</time></trkpt><trkpt lat="43.2677" lon="10.883735"><ele>332.0</ele><time>2026-04-25T10:33:39.726Z</time></trkpt><trkpt lat="43.2675417" lon="10.8836833"><ele>332.0</ele><time>2026-04-25T10:33:40.724Z</time></trkpt><trkpt lat="43.2674083" lon="10.8836233"><ele>332.0</ele><time>2026-04-25T10:33:41.725Z</time></trkpt><trkpt lat="43.2673117" lon="10.883525"><ele>332.0</ele><time>2026-04-25T10:33:42.726Z</time></trkpt><trkpt lat="43.2672633" lon="10.8833983"><ele>332.0</ele><time>2026-04-25T10:33:43.726Z</time></trkpt><trkpt lat="43.267265" lon="10.8832367"><ele>331.33333333333337</ele><time>2026-04-25T10:33:44.725Z</time></trkpt><trkpt lat="43.2672983" lon="10.8830367"><ele>330.6666666666667</ele><time>2026-04-25T10:33:45.725Z</time></trkpt><trkpt lat="43.2673533" lon="10.8827717"><ele>330.0</ele><time>2026-04-25T10:33:46.723Z</time></trkpt><trkpt lat="43.2674067" lon="10.8824883"><ele>330.0</ele><time>2026-04-25T10:33:47.725Z</time></trkpt><trkpt lat="43.26746" lon="10.88221"><ele>330.0</ele><time>2026-04-25T10:33:48.727Z</time></trkpt><trkpt lat="43.2675317" lon="10.8819617"><ele>330.0</ele><time>2026-04-25T10:33:49.726Z</time></trkpt><trkpt lat="43.2676333" lon="10.8817383"><ele>333.6666666666667</ele><time>2026-04-25T10:33:50.726Z</time></trkpt><trkpt lat="43.2677617" lon="10.8815533"><ele>337.33333333333337</ele><time>2026-04-25T10:33:51.724Z</time></trkpt><trkpt lat="43.2678867" lon="10.8813833"><ele>341.0</ele><time>2026-04-25T10:33:52.724Z</time></trkpt><trkpt lat="43.267985" lon="10.8811817"><ele>341.0</ele><time>2026-04-25T10:33:53.726Z</time></trkpt><trkpt lat="43.2680533" lon="10.8809533"><ele>341.0</ele><time>2026-04-25T10:33:54.725Z</time></trkpt><trkpt lat="43.2681" lon="10.8806867"><ele>341.0</ele><time>2026-04-25T10:33:55.726Z</time></trkpt><trkpt lat="43.2681483" lon="10.88041"><ele>340.33333333333337</ele><time>2026-04-25T10:33:56.725Z</time></trkpt><trkpt lat="43.2682083" lon="10.8801567"><ele>339.6666666666667</ele><time>2026-04-25T10:33:57.727Z</time></trkpt><trkpt lat="43.2682767" lon="10.8799417"><ele>339.0</ele><time>2026-04-25T10:33:58.723Z</time></trkpt><trkpt lat="43.26832" lon="10.8797533"><ele>339.0</ele><time>2026-04-25T10:33:59.726Z</time></trkpt><trkpt lat="43.2683133" lon="10.87959"><ele>339.0</ele><time>2026-04-25T10:34:00.724Z</time></trkpt><trkpt lat="43.2682517" lon="10.87944"><ele>339.0</ele><time>2026-04-25T10:34:01.725Z</time></trkpt><trkpt lat="43.2681417" lon="10.8792817"><ele>339.0</ele><time>2026-04-25T10:34:02.727Z</time></trkpt><trkpt lat="43.268005" lon="10.8790967"><ele>341.3333333333333</ele><time>2026-04-25T10:34:03.725Z</time></trkpt><trkpt lat="43.2678667" lon="10.8788767"><ele>343.66666666666663</ele><time>2026-04-25T10:34:04.725Z</time></trkpt><trkpt lat="43.2677483" lon="10.8786383"><ele>346.0</ele><time>2026-04-25T10:34:05.725Z</time></trkpt><trkpt lat="43.26764" lon="10.8784067"><ele>346.0</ele><time>2026-04-25T10:34:06.726Z</time></trkpt><trkpt lat="43.2675183" lon="10.8782017"><ele>346.0</ele><time>2026-04-25T10:34:07.726Z</time></trkpt><trkpt lat="43.2673633" lon="10.8780283"><ele>346.0</ele><time>2026-04-25T10:34:08.726Z</time></trkpt><trkpt lat="43.2671967" lon="10.8778933"><ele>353.0</ele><time>2026-04-25T10:34:09.725Z</time></trkpt><trkpt lat="43.2670433" lon="10.8777867"><ele>360.0</ele><time>2026-04-25T10:34:10.726Z</time></trkpt><trkpt lat="43.2668967" lon="10.87773"><ele>367.0</ele><time>2026-04-25T10:34:11.725Z</time></trkpt><trkpt lat="43.266755" lon="10.8777317"><ele>367.0</ele><time>2026-04-25T10:34:12.726Z</time></trkpt><trkpt lat="43.2666033" lon="10.8778117"><ele>367.0</ele><time>2026-04-25T10:34:13.726Z</time></trkpt><trkpt lat="43.2664383" lon="10.8779517"><ele>367.0</ele><time>2026-04-25T10:34:14.727Z</time></trkpt><trkpt lat="43.266265" lon="10.8780933"><ele>366.0</ele><time>2026-04-25T10:34:15.726Z</time></trkpt><trkpt lat="43.26609" lon="10.8782033"><ele>365.0</ele><time>2026-04-25T10:34:16.724Z</time></trkpt><trkpt lat="43.2659117" lon="10.87824"><ele>364.0</ele><time>2026-04-25T10:34:17.725Z</time></trkpt><trkpt lat="43.2657233" lon="10.87822"><ele>364.66666666666663</ele><time>2026-04-25T10:34:18.726Z</time></trkpt><trkpt lat="43.2655067" lon="10.8781533"><ele>365.3333333333333</ele><time>2026-04-25T10:34:19.726Z</time></trkpt><trkpt lat="43.2652833" lon="10.8781"><ele>366.0</ele><time>2026-04-25T10:34:20.725Z</time></trkpt><trkpt lat="43.265055" lon="10.8780983"><ele>366.0</ele><time>2026-04-25T10:34:21.725Z</time></trkpt><trkpt lat="43.264835" lon="10.87813"><ele>366.0</ele><time>2026-04-25T10:34:22.725Z</time></trkpt><trkpt lat="43.264635" lon="10.8781983"><ele>366.0</ele><time>2026-04-25T10:34:23.724Z</time></trkpt><trkpt lat="43.26446" lon="10.8782983"><ele>366.0</ele><time>2026-04-25T10:34:24.726Z</time></trkpt><trkpt lat="43.2643183" lon="10.8784283"><ele>366.0</ele><time>2026-04-25T10:34:25.725Z</time></trkpt><trkpt lat="43.26421" lon="10.8786117"><ele>366.0</ele><time>2026-04-25T10:34:26.726Z</time></trkpt><trkpt lat="43.2641333" lon="10.8788467"><ele>366.0</ele><time>2026-04-25T10:34:27.725Z</time></trkpt><trkpt lat="43.2640583" lon="10.8790717"><ele>366.0</ele><time>2026-04-25T10:34:28.724Z</time></trkpt><trkpt lat="43.2639583" lon="10.87926"><ele>366.0</ele><time>2026-04-25T10:34:29.725Z</time></trkpt><trkpt lat="43.2638167" lon="10.8794033"><ele>366.6666666666667</ele><time>2026-04-25T10:34:30.725Z</time></trkpt><trkpt lat="43.2636483" lon="10.8795517"><ele>367.33333333333337</ele><time>2026-04-25T10:34:31.724Z</time></trkpt><trkpt lat="43.2634833" lon="10.879735"><ele>368.0</ele><time>2026-04-25T10:34:32.725Z</time></trkpt><trkpt lat="43.2633483" lon="10.879945"><ele>369.0</ele><time>2026-04-25T10:34:33.724Z</time></trkpt><trkpt lat="43.2632367" lon="10.8801533"><ele>370.0</ele><time>2026-04-25T10:34:34.725Z</time></trkpt><trkpt lat="43.2631317" lon="10.8803383"><ele>371.0</ele><time>2026-04-25T10:34:35.725Z</time></trkpt><trkpt lat="43.2630183" lon="10.880465"><ele>371.0</ele><time>2026-04-25T10:34:36.725Z</time></trkpt><trkpt lat="43.2628817" lon="10.8805233"><ele>371.0</ele><time>2026-04-25T10:34:37.726Z</time></trkpt><trkpt lat="43.2627267" lon="10.8805417"><ele>371.0</ele><time>2026-04-25T10:34:38.726Z</time></trkpt><trkpt lat="43.2625633" lon="10.8805767"><ele>371.0</ele><time>2026-04-25T10:34:39.726Z</time></trkpt><trkpt lat="43.2623983" lon="10.8806717"><ele>371.0</ele><time>2026-04-25T10:34:40.724Z</time></trkpt><trkpt lat="43.2622517" lon="10.8808233"><ele>371.0</ele><time>2026-04-25T10:34:41.725Z</time></trkpt><trkpt lat="43.26211" lon="10.88104"><ele>372.6666666666667</ele><time>2026-04-25T10:34:42.726Z</time></trkpt><trkpt lat="43.2619533" lon="10.8812483"><ele>374.3333333333333</ele><time>2026-04-25T10:34:43.726Z</time></trkpt><trkpt lat="43.2617767" lon="10.8814433"><ele>376.0</ele><time>2026-04-25T10:34:44.726Z</time></trkpt><trkpt lat="43.2615983" lon="10.88163"><ele>377.3333333333333</ele><time>2026-04-25T10:34:45.724Z</time></trkpt><trkpt lat="43.2614317" lon="10.88182"><ele>378.6666666666667</ele><time>2026-04-25T10:34:46.723Z</time></trkpt><trkpt lat="43.2612983" lon="10.8820133"><ele>380.0</ele><time>2026-04-25T10:34:47.726Z</time></trkpt><trkpt lat="43.2611717" lon="10.8821933"><ele>380.0</ele><time>2026-04-25T10:34:48.725Z</time></trkpt><trkpt lat="43.261035" lon="10.8823317"><ele>380.0</ele><time>2026-04-25T10:34:49.725Z</time></trkpt><trkpt lat="43.2608867" lon="10.8824117"><ele>380.0</ele><time>2026-04-25T10:34:50.725Z</time></trkpt><trkpt lat="43.26072" lon="10.88243"><ele>380.0</ele><time>2026-04-25T10:34:51.725Z</time></trkpt><trkpt lat="43.2605367" lon="10.88239"><ele>380.0</ele><time>2026-04-25T10:34:52.726Z</time></trkpt><trkpt lat="43.260365" lon="10.8822933"><ele>380.0</ele><time>2026-04-25T10:34:53.725Z</time></trkpt><trkpt lat="43.260235" lon="10.8821417"><ele>380.0</ele><time>2026-04-25T10:34:54.725Z</time></trkpt><trkpt lat="43.2601483" lon="10.88195"><ele>380.0</ele><time>2026-04-25T10:34:55.725Z</time></trkpt><trkpt lat="43.260095" lon="10.8817067"><ele>380.0</ele><time>2026-04-25T10:34:56.726Z</time></trkpt><trkpt lat="43.26004" lon="10.8814267"><ele>382.0</ele><time>2026-04-25T10:34:57.725Z</time></trkpt><trkpt lat="43.2599667" lon="10.8811633"><ele>384.0</ele><time>2026-04-25T10:34:58.725Z</time></trkpt><trkpt lat="43.2598933" lon="10.8809083"><ele>386.0</ele><time>2026-04-25T10:34:59.724Z</time></trkpt><trkpt lat="43.259845" lon="10.8806467"><ele>386.0</ele><time>2026-04-25T10:35:00.724Z</time></trkpt><trkpt lat="43.259835" lon="10.8803717"><ele>386.0</ele><time>2026-04-25T10:35:01.723Z</time></trkpt><trkpt lat="43.2598633" lon="10.8801117"><ele>386.0</ele><time>2026-04-25T10:35:02.726Z</time></trkpt><trkpt lat="43.2598933" lon="10.8798867"><ele>386.66666666666663</ele><time>2026-04-25T10:35:03.724Z</time></trkpt><trkpt lat="43.2598917" lon="10.8796817"><ele>387.33333333333337</ele><time>2026-04-25T10:35:04.724Z</time></trkpt><trkpt lat="43.2598517" lon="10.87948"><ele>388.0</ele><time>2026-04-25T10:35:05.726Z</time></trkpt><trkpt lat="43.2597617" lon="10.8793017"><ele>395.0</ele><time>2026-04-25T10:35:06.725Z</time></trkpt><trkpt lat="43.2596233" lon="10.8791433"><ele>402.0</ele><time>2026-04-25T10:35:07.727Z</time></trkpt><trkpt lat="43.25945" lon="10.8789733"><ele>409.0</ele><time>2026-04-25T10:35:08.726Z</time></trkpt><trkpt lat="43.2592717" lon="10.8787867"><ele>409.0</ele><time>2026-04-25T10:35:09.724Z</time></trkpt><trkpt lat="43.2590967" lon="10.8785817"><ele>409.0</ele><time>2026-04-25T10:35:10.725Z</time></trkpt><trkpt lat="43.2589333" lon="10.8783683"><ele>411.6666666666667</ele><time>2026-04-25T10:35:11.723Z</time></trkpt><trkpt lat="43.25878" lon="10.87817"><ele>414.33333333333337</ele><time>2026-04-25T10:35:12.727Z</time></trkpt><trkpt lat="43.2586183" lon="10.878005"><ele>417.0</ele><time>2026-04-25T10:35:13.726Z</time></trkpt><trkpt lat="43.2584467" lon="10.877885"><ele>417.0</ele><time>2026-04-25T10:35:14.726Z</time></trkpt><trkpt lat="43.2582567" lon="10.877825"><ele>417.0</ele><time>2026-04-25T10:35:15.724Z</time></trkpt><trkpt lat="43.2580667" lon="10.877825"><ele>417.0</ele><time>2026-04-25T10:35:16.726Z</time></trkpt><trkpt lat="43.25787" lon="10.8778433"><ele>420.66666666666663</ele><time>2026-04-25T10:35:17.726Z</time></trkpt><trkpt lat="43.2576733" lon="10.8778167"><ele>424.3333333333333</ele><time>2026-04-25T10:35:18.726Z</time></trkpt><trkpt lat="43.2574917" lon="10.8777383"><ele>428.0</ele><time>2026-04-25T10:35:19.723Z</time></trkpt><trkpt lat="43.2573317" lon="10.8776"><ele>426.0</ele><time>2026-04-25T10:35:20.725Z</time></trkpt><trkpt lat="43.2571767" lon="10.87744"><ele>424.0</ele><time>2026-04-25T10:35:21.723Z</time></trkpt><trkpt lat="43.257025" lon="10.8773083"><ele>422.0</ele><time>2026-04-25T10:35:22.725Z</time></trkpt><trkpt lat="43.2568533" lon="10.8772183"><ele>422.0</ele><time>2026-04-25T10:35:23.724Z</time></trkpt><trkpt lat="43.2566617" lon="10.8771883"><ele>422.0</ele><time>2026-04-25T10:35:24.723Z</time></trkpt><trkpt lat="43.256455" lon="10.877185"><ele>422.0</ele><time>2026-04-25T10:35:25.724Z</time></trkpt><trkpt lat="43.2562467" lon="10.8771983"><ele>420.3333333333333</ele><time>2026-04-25T10:35:26.727Z</time></trkpt><trkpt lat="43.256065" lon="10.877245"><ele>418.66666666666663</ele><time>2026-04-25T10:35:27.724Z</time></trkpt><trkpt lat="43.2559017" lon="10.87735"><ele>417.0</ele><time>2026-04-25T10:35:28.724Z</time></trkpt><trkpt lat="43.25576" lon="10.8774967"><ele>421.33333333333337</ele><time>2026-04-25T10:35:29.723Z</time></trkpt><trkpt lat="43.2556283" lon="10.87765"><ele>425.6666666666667</ele><time>2026-04-25T10:35:30.725Z</time></trkpt><trkpt lat="43.2555117" lon="10.87778"><ele>430.0</ele><time>2026-04-25T10:35:31.725Z</time></trkpt><trkpt lat="43.2553717" lon="10.8778683"><ele>430.0</ele><time>2026-04-25T10:35:32.723Z</time></trkpt><trkpt lat="43.255225" lon="10.87792"><ele>430.0</ele><time>2026-04-25T10:35:33.725Z</time></trkpt><trkpt lat="43.25508" lon="10.8779583"><ele>430.0</ele><time>2026-04-25T10:35:34.726Z</time></trkpt><trkpt lat="43.2549333" lon="10.8779983"><ele>430.0</ele><time>2026-04-25T10:35:35.726Z</time></trkpt><trkpt lat="43.2547817" lon="10.8780483"><ele>429.75</ele><time>2026-04-25T10:35:36.724Z</time></trkpt><trkpt lat="43.2546317" lon="10.878105"><ele>429.5</ele><time>2026-04-25T10:35:37.723Z</time></trkpt><trkpt lat="43.25449" lon="10.8781583"><ele>429.25</ele><time>2026-04-25T10:35:38.726Z</time></trkpt><trkpt lat="43.2543533" lon="10.8782067"><ele>429.0</ele><time>2026-04-25T10:35:39.725Z</time></trkpt><trkpt lat="43.2542233" lon="10.8782517"><ele>429.0</ele><time>2026-04-25T10:35:40.725Z</time></trkpt><trkpt lat="43.2540917" lon="10.87828"><ele>429.0</ele><time>2026-04-25T10:35:41.727Z</time></trkpt><trkpt lat="43.2539633" lon="10.8782917"><ele>429.0</ele><time>2026-04-25T10:35:42.724Z</time></trkpt><trkpt lat="43.2538467" lon="10.87828"><ele>429.0</ele><time>2026-04-25T10:35:43.724Z</time></trkpt><trkpt lat="43.2537367" lon="10.8782433"><ele>429.75</ele><time>2026-04-25T10:35:44.725Z</time></trkpt><trkpt lat="43.2536367" lon="10.878185"><ele>430.5</ele><time>2026-04-25T10:35:45.724Z</time></trkpt><trkpt lat="43.253535" lon="10.8781133"><ele>431.25</ele><time>2026-04-25T10:35:46.724Z</time></trkpt><trkpt lat="43.2534317" lon="10.878045"><ele>432.0</ele><time>2026-04-25T10:35:47.725Z</time></trkpt><trkpt lat="43.2533217" lon="10.8779917"><ele>432.0</ele><time>2026-04-25T10:35:48.725Z</time></trkpt><trkpt lat="43.253205" lon="10.877975"><ele>432.0</ele><time>2026-04-25T10:35:49.723Z</time></trkpt><trkpt lat="43.2530917" lon="10.8779883"><ele>432.0</ele><time>2026-04-25T10:35:50.723Z</time></trkpt><trkpt lat="43.252985" lon="10.8780283"><ele>432.0</ele><time>2026-04-25T10:35:51.725Z</time></trkpt><trkpt lat="43.2528867" lon="10.8780917"><ele>432.20000000000005</ele><time>2026-04-25T10:35:52.725Z</time></trkpt><trkpt lat="43.2527967" lon="10.8781767"><ele>432.40000000000003</ele><time>2026-04-25T10:35:53.724Z</time></trkpt><trkpt lat="43.25271" lon="10.878265"><ele>432.59999999999997</ele><time>2026-04-25T10:35:54.724Z</time></trkpt><trkpt lat="43.252625" lon="10.878355"><ele>432.79999999999995</ele><time>2026-04-25T10:35:55.723Z</time></trkpt><trkpt lat="43.2525383" lon="10.8784483"><ele>433.0</ele><time>2026-04-25T10:35:56.724Z</time></trkpt><trkpt lat="43.25245" lon="10.8785433"><ele>432.25</ele><time>2026-04-25T10:35:57.725Z</time></trkpt><trkpt lat="43.252355" lon="10.87864"><ele>431.5</ele><time>2026-04-25T10:35:58.724Z</time></trkpt><trkpt lat="43.252255" lon="10.8787317"><ele>430.75</ele><time>2026-04-25T10:35:59.724Z</time></trkpt><trkpt lat="43.25215" lon="10.8788183"><ele>430.0</ele><time>2026-04-25T10:36:00.725Z</time></trkpt><trkpt lat="43.252045" lon="10.878905"><ele>430.0</ele><time>2026-04-25T10:36:01.722Z</time></trkpt><trkpt lat="43.2519333" lon="10.8789883"><ele>430.0</ele><time>2026-04-25T10:36:02.725Z</time></trkpt><trkpt lat="43.25182" lon="10.879075"><ele>430.0</ele><time>2026-04-25T10:36:03.724Z</time></trkpt><trkpt lat="43.251705" lon="10.8791683"><ele>430.0</ele><time>2026-04-25T10:36:04.725Z</time></trkpt><trkpt lat="43.2515883" lon="10.8792667"><ele>429.25</ele><time>2026-04-25T10:36:05.725Z</time></trkpt><trkpt lat="43.251475" lon="10.8793617"><ele>428.5</ele><time>2026-04-25T10:36:06.726Z</time></trkpt><trkpt lat="43.25136" lon="10.879455"><ele>427.75</ele><time>2026-04-25T10:36:07.723Z</time></trkpt><trkpt lat="43.2512433" lon="10.8795467"><ele>427.0</ele><time>2026-04-25T10:36:08.724Z</time></trkpt><trkpt lat="43.25113" lon="10.8796383"><ele>427.0</ele><time>2026-04-25T10:36:09.724Z</time></trkpt><trkpt lat="43.2510117" lon="10.8797267"><ele>427.0</ele><time>2026-04-25T10:36:10.724Z</time></trkpt><trkpt lat="43.2508967" lon="10.8798133"><ele>427.0</ele><time>2026-04-25T10:36:11.725Z</time></trkpt><trkpt lat="43.2507867" lon="10.8798983"><ele>427.0</ele><time>2026-04-25T10:36:12.724Z</time></trkpt><trkpt lat="43.2506783" lon="10.87998"><ele>426.5</ele><time>2026-04-25T10:36:13.724Z</time></trkpt><trkpt lat="43.25057" lon="10.88006"><ele>426.0</ele><time>2026-04-25T10:36:14.726Z</time></trkpt><trkpt lat="43.2504633" lon="10.8801383"><ele>425.5</ele><time>2026-04-25T10:36:15.724Z</time></trkpt><trkpt lat="43.25036" lon="10.8802183"><ele>425.0</ele><time>2026-04-25T10:36:16.724Z</time></trkpt><trkpt lat="43.2502533" lon="10.8802983"><ele>423.5</ele><time>2026-04-25T10:36:17.724Z</time></trkpt><trkpt lat="43.25015" lon="10.8803783"><ele>422.0</ele><time>2026-04-25T10:36:18.724Z</time></trkpt><trkpt lat="43.250045" lon="10.8804533"><ele>420.5</ele><time>2026-04-25T10:36:19.725Z</time></trkpt><trkpt lat="43.2499367" lon="10.8805133"><ele>419.0</ele><time>2026-04-25T10:36:20.727Z</time></trkpt><trkpt lat="43.2498217" lon="10.8805433"><ele>416.2</ele><time>2026-04-25T10:36:21.725Z</time></trkpt><trkpt lat="43.24971" lon="10.88056"><ele>413.4</ele><time>2026-04-25T10:36:22.723Z</time></trkpt><trkpt lat="43.2496083" lon="10.8805683"><ele>410.6</ele><time>2026-04-25T10:36:23.727Z</time></trkpt><trkpt lat="43.2495133" lon="10.880555"><ele>407.8</ele><time>2026-04-25T10:36:24.725Z</time></trkpt><trkpt lat="43.2494417" lon="10.8805017"><ele>405.0</ele><time>2026-04-25T10:36:25.724Z</time></trkpt><trkpt lat="43.2494017" lon="10.8804033"><ele>405.0</ele><time>2026-04-25T10:36:26.725Z</time></trkpt><trkpt lat="43.2493867" lon="10.8803"><ele>405.0</ele><time>2026-04-25T10:36:27.726Z</time></trkpt><trkpt lat="43.2494317" lon="10.8801683"><ele>405.0</ele><time>2026-04-25T10:36:28.724Z</time></trkpt><trkpt lat="43.249485" lon="10.880035"><ele>405.0</ele><time>2026-04-25T10:36:29.726Z</time></trkpt><trkpt lat="43.24955" lon="10.879905"><ele>405.0</ele><time>2026-04-25T10:36:30.725Z</time></trkpt><trkpt lat="43.249615" lon="10.8797733"><ele>405.6</ele><time>2026-04-25T10:36:31.724Z</time></trkpt><trkpt lat="43.2496783" lon="10.8796467"><ele>406.2</ele><time>2026-04-25T10:36:32.724Z</time></trkpt><trkpt lat="43.2497317" lon="10.8795267"><ele>406.79999999999995</ele><time>2026-04-25T10:36:33.725Z</time></trkpt><trkpt lat="43.2497683" lon="10.8794083"><ele>407.4</ele><time>2026-04-25T10:36:34.725Z</time></trkpt><trkpt lat="43.2497617" lon="10.8792817"><ele>408.0</ele><time>2026-04-25T10:36:35.724Z</time></trkpt><trkpt lat="43.2497267" lon="10.8791683"><ele>408.5</ele><time>2026-04-25T10:36:36.724Z</time></trkpt><trkpt lat="43.249665" lon="10.879075"><ele>409.0</ele><time>2026-04-25T10:36:37.725Z</time></trkpt><trkpt lat="43.249565" lon="10.87903"><ele>409.5</ele><time>2026-04-25T10:36:38.725Z</time></trkpt><trkpt lat="43.2494467" lon="10.878995"><ele>410.0</ele><time>2026-04-25T10:36:39.725Z</time></trkpt><trkpt lat="43.249315" lon="10.8789617"><ele>410.0</ele><time>2026-04-25T10:36:40.724Z</time></trkpt><trkpt lat="43.2491867" lon="10.8789283"><ele>410.0</ele><time>2026-04-25T10:36:41.724Z</time></trkpt><trkpt lat="43.2490567" lon="10.8788983"><ele>410.0</ele><time>2026-04-25T10:36:42.723Z</time></trkpt><trkpt lat="43.24892" lon="10.8788883"><ele>410.0</ele><time>2026-04-25T10:36:43.725Z</time></trkpt><trkpt lat="43.24879" lon="10.878865"><ele>406.75</ele><time>2026-04-25T10:36:44.726Z</time></trkpt><trkpt lat="43.24867" lon="10.87883"><ele>403.5</ele><time>2026-04-25T10:36:45.728Z</time></trkpt><trkpt lat="43.2485567" lon="10.8787833"><ele>400.25</ele><time>2026-04-25T10:36:46.726Z</time></trkpt><trkpt lat="43.2484533" lon="10.8787117"><ele>397.0</ele><time>2026-04-25T10:36:47.725Z</time></trkpt><trkpt lat="43.2483533" lon="10.87864"><ele>397.0</ele><time>2026-04-25T10:36:48.723Z</time></trkpt><trkpt lat="43.2482617" lon="10.8785467"><ele>397.0</ele><time>2026-04-25T10:36:49.723Z</time></trkpt><trkpt lat="43.248175" lon="10.8784433"><ele>397.0</ele><time>2026-04-25T10:36:50.727Z</time></trkpt><trkpt lat="43.2480933" lon="10.8783283"><ele>397.0</ele><time>2026-04-25T10:36:51.727Z</time></trkpt><trkpt lat="43.248005" lon="10.8782267"><ele>397.20000000000005</ele><time>2026-04-25T10:36:52.727Z</time></trkpt><trkpt lat="43.247905" lon="10.87816"><ele>397.4</ele><time>2026-04-25T10:36:53.724Z</time></trkpt><trkpt lat="43.2477917" lon="10.8781533"><ele>397.6</ele><time>2026-04-25T10:36:54.724Z</time></trkpt><trkpt lat="43.2476833" lon="10.8781683"><ele>397.79999999999995</ele><time>2026-04-25T10:36:55.724Z</time></trkpt><trkpt lat="43.2475717" lon="10.8781883"><ele>398.0</ele><time>2026-04-25T10:36:56.724Z</time></trkpt><trkpt lat="43.2474667" lon="10.878185"><ele>398.0</ele><time>2026-04-25T10:36:57.724Z</time></trkpt><trkpt lat="43.24737" lon="10.8781517"><ele>398.0</ele><time>2026-04-25T10:36:58.723Z</time></trkpt><trkpt lat="43.2472917" lon="10.8780817"><ele>398.0</ele><time>2026-04-25T10:36:59.724Z</time></trkpt><trkpt lat="43.24723" lon="10.877985"><ele>398.0</ele><time>2026-04-25T10:37:00.726Z</time></trkpt><trkpt lat="43.2471833" lon="10.8778733"><ele>398.0</ele><time>2026-04-25T10:37:01.725Z</time></trkpt><trkpt lat="43.2471533" lon="10.8777567"><ele>397.16666666666663</ele><time>2026-04-25T10:37:02.725Z</time></trkpt><trkpt lat="43.2471633" lon="10.877635"><ele>396.3333333333333</ele><time>2026-04-25T10:37:03.724Z</time></trkpt><trkpt lat="43.2471567" lon="10.8775217"><ele>395.5</ele><time>2026-04-25T10:37:04.726Z</time></trkpt><trkpt lat="43.247125" lon="10.87743"><ele>394.66666666666663</ele><time>2026-04-25T10:37:05.726Z</time></trkpt><trkpt lat="43.24704" lon="10.8773817"><ele>393.8333333333333</ele><time>2026-04-25T10:37:06.726Z</time></trkpt><trkpt lat="43.2469533" lon="10.8773517"><ele>393.0</ele><time>2026-04-25T10:37:07.726Z</time></trkpt><trkpt lat="43.2468417" lon="10.8773983"><ele>393.0</ele><time>2026-04-25T10:37:08.727Z</time></trkpt><trkpt lat="43.2467133" lon="10.8774367"><ele>393.0</ele><time>2026-04-25T10:37:09.723Z</time></trkpt><trkpt lat="43.2465833" lon="10.8774467"><ele>393.0</ele><time>2026-04-25T10:37:10.725Z</time></trkpt><trkpt lat="43.2464367" lon="10.877435"><ele>393.0</ele><time>2026-04-25T10:37:11.726Z</time></trkpt><trkpt lat="43.2462983" lon="10.8773883"><ele>390.75</ele><time>2026-04-25T10:37:12.726Z</time></trkpt><trkpt lat="43.2461683" lon="10.8772917"><ele>388.5</ele><time>2026-04-25T10:37:13.727Z</time></trkpt><trkpt lat="43.2460467" lon="10.8771717"><ele>386.25</ele><time>2026-04-25T10:37:14.725Z</time></trkpt><trkpt lat="43.245935" lon="10.87705"><ele>384.0</ele><time>2026-04-25T10:37:15.725Z</time></trkpt><trkpt lat="43.2458233" lon="10.8769467"><ele>384.0</ele><time>2026-04-25T10:37:16.724Z</time></trkpt><trkpt lat="43.2457033" lon="10.8768633"><ele>384.0</ele><time>2026-04-25T10:37:17.726Z</time></trkpt><trkpt lat="43.24558" lon="10.876825"><ele>384.0</ele><time>2026-04-25T10:37:18.726Z</time></trkpt><trkpt lat="43.24545" lon="10.8768333"><ele>384.0</ele><time>2026-04-25T10:37:19.724Z</time></trkpt><trkpt lat="43.2453133" lon="10.876875"><ele>385.0</ele><time>2026-04-25T10:37:20.724Z</time></trkpt><trkpt lat="43.2451667" lon="10.8769267"><ele>386.0</ele><time>2026-04-25T10:37:21.726Z</time></trkpt><trkpt lat="43.2450183" lon="10.8769867"><ele>387.0</ele><time>2026-04-25T10:37:22.727Z</time></trkpt><trkpt lat="43.2448633" lon="10.8770583"><ele>390.0</ele><time>2026-04-25T10:37:23.725Z</time></trkpt><trkpt lat="43.2446933" lon="10.8771283"><ele>393.0</ele><time>2026-04-25T10:37:24.726Z</time></trkpt><trkpt lat="43.2445183" lon="10.8771983"><ele>396.0</ele><time>2026-04-25T10:37:25.727Z</time></trkpt><trkpt lat="43.2443433" lon="10.8772683"><ele>396.0</ele><time>2026-04-25T10:37:26.728Z</time></trkpt><trkpt lat="43.24416" lon="10.8773233"><ele>396.0</ele><time>2026-04-25T10:37:27.726Z</time></trkpt><trkpt lat="43.2439667" lon="10.8773467"><ele>396.0</ele><time>2026-04-25T10:37:28.724Z</time></trkpt><trkpt lat="43.2437767" lon="10.8773183"><ele>397.0</ele><time>2026-04-25T10:37:29.723Z</time></trkpt><trkpt lat="43.2436" lon="10.877245"><ele>398.0</ele><time>2026-04-25T10:37:30.724Z</time></trkpt><trkpt lat="43.243425" lon="10.87713"><ele>399.0</ele><time>2026-04-25T10:37:31.723Z</time></trkpt><trkpt lat="43.24325" lon="10.87699"><ele>398.0</ele><time>2026-04-25T10:37:32.725Z</time></trkpt><trkpt lat="43.2430633" lon="10.87686"><ele>397.0</ele><time>2026-04-25T10:37:33.725Z</time></trkpt><trkpt lat="43.2428633" lon="10.876755"><ele>396.0</ele><time>2026-04-25T10:37:34.724Z</time></trkpt><trkpt lat="43.2426567" lon="10.8766917"><ele>399.66666666666663</ele><time>2026-04-25T10:37:35.725Z</time></trkpt><trkpt lat="43.2424467" lon="10.876675"><ele>403.3333333333333</ele><time>2026-04-25T10:37:36.725Z</time></trkpt><trkpt lat="43.2422317" lon="10.8766867"><ele>407.0</ele><time>2026-04-25T10:37:37.725Z</time></trkpt><trkpt lat="43.2420233" lon="10.87673"><ele>404.3333333333333</ele><time>2026-04-25T10:37:38.725Z</time></trkpt><trkpt lat="43.241825" lon="10.8768067"><ele>401.66666666666663</ele><time>2026-04-25T10:37:39.723Z</time></trkpt><trkpt lat="43.241635" lon="10.87691"><ele>399.0</ele><time>2026-04-25T10:37:40.726Z</time></trkpt><trkpt lat="43.2414517" lon="10.8770433"><ele>404.33333333333337</ele><time>2026-04-25T10:37:41.725Z</time></trkpt><trkpt lat="43.2412717" lon="10.877195"><ele>409.6666666666667</ele><time>2026-04-25T10:37:42.726Z</time></trkpt><trkpt lat="43.2410867" lon="10.8773517"><ele>415.0</ele><time>2026-04-25T10:37:43.726Z</time></trkpt><trkpt lat="43.2409017" lon="10.8775083"><ele>415.6666666666667</ele><time>2026-04-25T10:37:44.727Z</time></trkpt><trkpt lat="43.24072" lon="10.8776583"><ele>416.33333333333337</ele><time>2026-04-25T10:37:45.725Z</time></trkpt><trkpt lat="43.2405583" lon="10.8778033"><ele>417.0</ele><time>2026-04-25T10:37:46.724Z</time></trkpt><trkpt lat="43.24041" lon="10.8779267"><ele>417.0</ele><time>2026-04-25T10:37:47.727Z</time></trkpt><trkpt lat="43.2402567" lon="10.87801"><ele>417.0</ele><time>2026-04-25T10:37:48.725Z</time></trkpt><trkpt lat="43.2400967" lon="10.8780433"><ele>417.0</ele><time>2026-04-25T10:37:49.725Z</time></trkpt><trkpt lat="43.2399333" lon="10.8780217"><ele>419.33333333333337</ele><time>2026-04-25T10:37:50.729Z</time></trkpt><trkpt lat="43.2397817" lon="10.8779333"><ele>421.6666666666667</ele><time>2026-04-25T10:37:51.726Z</time></trkpt><trkpt lat="43.239655" lon="10.8777883"><ele>424.0</ele><time>2026-04-25T10:37:52.724Z</time></trkpt><trkpt lat="43.23957" lon="10.87759"><ele>424.0</ele><time>2026-04-25T10:37:53.726Z</time></trkpt><trkpt lat="43.2395183" lon="10.87735"><ele>424.0</ele><time>2026-04-25T10:37:54.726Z</time></trkpt><trkpt lat="43.2394783" lon="10.8770733"><ele>424.0</ele><time>2026-04-25T10:37:55.724Z</time></trkpt><trkpt lat="43.2394433" lon="10.8767867"><ele>425.33333333333337</ele><time>2026-04-25T10:37:56.726Z</time></trkpt><trkpt lat="43.2394033" lon="10.8765167"><ele>426.66666666666663</ele><time>2026-04-25T10:37:57.724Z</time></trkpt><trkpt lat="43.2393433" lon="10.87628"><ele>428.0</ele><time>2026-04-25T10:37:58.726Z</time></trkpt><trkpt lat="43.239245" lon="10.876085"><ele>429.66666666666663</ele><time>2026-04-25T10:37:59.726Z</time></trkpt><trkpt lat="43.23911" lon="10.87593"><ele>431.33333333333337</ele><time>2026-04-25T10:38:00.724Z</time></trkpt><trkpt lat="43.238935" lon="10.8758267"><ele>433.0</ele><time>2026-04-25T10:38:01.723Z</time></trkpt><trkpt lat="43.2387517" lon="10.8757417"><ele>433.0</ele><time>2026-04-25T10:38:02.726Z</time></trkpt><trkpt lat="43.2385683" lon="10.87565"><ele>433.0</ele><time>2026-04-25T10:38:03.726Z</time></trkpt><trkpt lat="43.2384117" lon="10.8754917"><ele>433.0</ele><time>2026-04-25T10:38:04.724Z</time></trkpt><trkpt lat="43.23828" lon="10.87528"><ele>434.33333333333337</ele><time>2026-04-25T10:38:05.725Z</time></trkpt><trkpt lat="43.2381433" lon="10.87507"><ele>435.66666666666663</ele><time>2026-04-25T10:38:06.724Z</time></trkpt><trkpt lat="43.2379783" lon="10.8749"><ele>437.0</ele><time>2026-04-25T10:38:07.725Z</time></trkpt><trkpt lat="43.23778" lon="10.8747667"><ele>437.0</ele><time>2026-04-25T10:38:08.724Z</time></trkpt><trkpt lat="43.23757" lon="10.8746367"><ele>437.0</ele><time>2026-04-25T10:38:09.723Z</time></trkpt><trkpt lat="43.2373617" lon="10.8745083"><ele>439.0</ele><time>2026-04-25T10:38:10.724Z</time></trkpt><trkpt lat="43.237155" lon="10.8744"><ele>441.0</ele><time>2026-04-25T10:38:11.726Z</time></trkpt><trkpt lat="43.2369383" lon="10.8743233"><ele>443.0</ele><time>2026-04-25T10:38:12.723Z</time></trkpt><trkpt lat="43.236715" lon="10.874255"><ele>447.5</ele><time>2026-04-25T10:38:13.723Z</time></trkpt><trkpt lat="43.2364767" lon="10.8742233"><ele>452.0</ele><time>2026-04-25T10:38:14.724Z</time></trkpt><trkpt lat="43.23624" lon="10.8741967"><ele>453.0</ele><time>2026-04-25T10:38:15.725Z</time></trkpt><trkpt lat="43.2359983" lon="10.874165"><ele>454.0</ele><time>2026-04-25T10:38:16.725Z</time></trkpt><trkpt lat="43.2357567" lon="10.8741267"><ele>455.0</ele><time>2026-04-25T10:38:17.726Z</time></trkpt><trkpt lat="43.2355183" lon="10.8740917"><ele>456.0</ele><time>2026-04-25T10:38:18.725Z</time></trkpt><trkpt lat="43.235285" lon="10.8740717"><ele>456.0</ele><time>2026-04-25T10:38:19.725Z</time></trkpt><trkpt lat="43.2350633" lon="10.87409"><ele>456.0</ele><time>2026-04-25T10:38:20.725Z</time></trkpt><trkpt lat="43.23486" lon="10.874165"><ele>456.0</ele><time>2026-04-25T10:38:21.724Z</time></trkpt><trkpt lat="43.23467" lon="10.87429"><ele>457.33333333333337</ele><time>2026-04-25T10:38:22.725Z</time></trkpt><trkpt lat="43.2344783" lon="10.8744367"><ele>458.6666666666667</ele><time>2026-04-25T10:38:23.725Z</time></trkpt><trkpt lat="43.234285" lon="10.8745817"><ele>460.0</ele><time>2026-04-25T10:38:24.724Z</time></trkpt><trkpt lat="43.23408" lon="10.8746917"><ele>463.33333333333337</ele><time>2026-04-25T10:38:25.726Z</time></trkpt><trkpt lat="43.23387" lon="10.8747567"><ele>466.66666666666663</ele><time>2026-04-25T10:38:26.725Z</time></trkpt><trkpt lat="43.2336533" lon="10.8747933"><ele>470.0</ele><time>2026-04-25T10:38:27.724Z</time></trkpt><trkpt lat="43.2334383" lon="10.87485"><ele>470.0</ele><time>2026-04-25T10:38:28.725Z</time></trkpt><trkpt lat="43.233235" lon="10.8749467"><ele>470.0</ele><time>2026-04-25T10:38:29.724Z</time></trkpt><trkpt lat="43.23305" lon="10.8750683"><ele>470.0</ele><time>2026-04-25T10:38:30.724Z</time></trkpt><trkpt lat="43.2328767" lon="10.8751917"><ele>471.66666666666663</ele><time>2026-04-25T10:38:31.725Z</time></trkpt><trkpt lat="43.2327017" lon="10.875305"><ele>473.33333333333337</ele><time>2026-04-25T10:38:32.725Z</time></trkpt><trkpt lat="43.2325267" lon="10.8754067"><ele>475.0</ele><time>2026-04-25T10:38:33.725Z</time></trkpt><trkpt lat="43.2323433" lon="10.8755033"><ele>478.6666666666667</ele><time>2026-04-25T10:38:34.724Z</time></trkpt><trkpt lat="43.2321483" lon="10.87559"><ele>482.33333333333337</ele><time>2026-04-25T10:38:35.725Z</time></trkpt><trkpt lat="43.2319617" lon="10.87567"><ele>486.0</ele><time>2026-04-25T10:38:36.727Z</time></trkpt><trkpt lat="43.231775" lon="10.8757467"><ele>486.0</ele><time>2026-04-25T10:38:37.726Z</time></trkpt><trkpt lat="43.2315967" lon="10.8758183"><ele>486.0</ele><time>2026-04-25T10:38:38.726Z</time></trkpt><trkpt lat="43.2314217" lon="10.8758833"><ele>486.0</ele><time>2026-04-25T10:38:39.724Z</time></trkpt><trkpt lat="43.23125" lon="10.8759467"><ele>483.0</ele><time>2026-04-25T10:38:40.725Z</time></trkpt><trkpt lat="43.231075" lon="10.8760067"><ele>480.0</ele><time>2026-04-25T10:38:41.725Z</time></trkpt><trkpt lat="43.2308933" lon="10.876065"><ele>477.0</ele><time>2026-04-25T10:38:42.724Z</time></trkpt><trkpt lat="43.23071" lon="10.8761183"><ele>477.66666666666663</ele><time>2026-04-25T10:38:43.724Z</time></trkpt><trkpt lat="43.23052" lon="10.8761617"><ele>478.3333333333333</ele><time>2026-04-25T10:38:44.726Z</time></trkpt><trkpt lat="43.2303217" lon="10.8761967"><ele>479.0</ele><time>2026-04-25T10:38:45.725Z</time></trkpt><trkpt lat="43.2301133" lon="10.8762317"><ele>479.0</ele><time>2026-04-25T10:38:46.725Z</time></trkpt><trkpt lat="43.2299033" lon="10.8762683"><ele>479.0</ele><time>2026-04-25T10:38:47.724Z</time></trkpt><trkpt lat="43.2297" lon="10.8763033"><ele>479.0</ele><time>2026-04-25T10:38:48.726Z</time></trkpt><trkpt lat="43.2295083" lon="10.8763433"><ele>480.3333333333333</ele><time>2026-04-25T10:38:49.725Z</time></trkpt><trkpt lat="43.2293333" lon="10.8764133"><ele>481.66666666666663</ele><time>2026-04-25T10:38:50.726Z</time></trkpt><trkpt lat="43.2291717" lon="10.8765283"><ele>483.0</ele><time>2026-04-25T10:38:51.726Z</time></trkpt><trkpt lat="43.229025" lon="10.8766783"><ele>489.33333333333337</ele><time>2026-04-25T10:38:52.725Z</time></trkpt><trkpt lat="43.228915" lon="10.87688"><ele>495.6666666666667</ele><time>2026-04-25T10:38:53.726Z</time></trkpt><trkpt lat="43.2288383" lon="10.8771133"><ele>502.0</ele><time>2026-04-25T10:38:54.726Z</time></trkpt><trkpt lat="43.2287783" lon="10.8773583"><ele>498.33333333333337</ele><time>2026-04-25T10:38:55.724Z</time></trkpt><trkpt lat="43.2287333" lon="10.877605"><ele>494.66666666666663</ele><time>2026-04-25T10:38:56.725Z</time></trkpt><trkpt lat="43.22871" lon="10.8778517"><ele>491.0</ele><time>2026-04-25T10:38:57.727Z</time></trkpt><trkpt lat="43.2287283" lon="10.8780967"><ele>491.0</ele><time>2026-04-25T10:38:58.725Z</time></trkpt><trkpt lat="43.228765" lon="10.8783433"><ele>491.0</ele><time>2026-04-25T10:38:59.726Z</time></trkpt><trkpt lat="43.228785" lon="10.8785983"><ele>491.0</ele><time>2026-04-25T10:39:00.725Z</time></trkpt><trkpt lat="43.2287783" lon="10.878855"><ele>490.0</ele><time>2026-04-25T10:39:01.724Z</time></trkpt><trkpt lat="43.2287417" lon="10.879115"><ele>489.0</ele><time>2026-04-25T10:39:02.727Z</time></trkpt><trkpt lat="43.22868" lon="10.87938"><ele>488.0</ele><time>2026-04-25T10:39:03.726Z</time></trkpt><trkpt lat="43.2286083" lon="10.8796383"><ele>486.66666666666663</ele><time>2026-04-25T10:39:04.724Z</time></trkpt><trkpt lat="43.2285367" lon="10.8798833"><ele>485.33333333333337</ele><time>2026-04-25T10:39:05.727Z</time></trkpt><trkpt lat="43.2284633" lon="10.8801183"><ele>484.0</ele><time>2026-04-25T10:39:06.727Z</time></trkpt><trkpt lat="43.2283783" lon="10.8803417"><ele>485.0</ele><time>2026-04-25T10:39:07.726Z</time></trkpt><trkpt lat="43.2282717" lon="10.88055"><ele>486.0</ele><time>2026-04-25T10:39:08.725Z</time></trkpt><trkpt lat="43.228145" lon="10.88074"><ele>487.0</ele><time>2026-04-25T10:39:09.726Z</time></trkpt><trkpt lat="43.2279967" lon="10.8809167"><ele>483.6666666666667</ele><time>2026-04-25T10:39:10.724Z</time></trkpt><trkpt lat="43.227835" lon="10.8810867"><ele>480.33333333333337</ele><time>2026-04-25T10:39:11.727Z</time></trkpt><trkpt lat="43.2276617" lon="10.88126"><ele>477.0</ele><time>2026-04-25T10:39:12.726Z</time></trkpt><trkpt lat="43.2274833" lon="10.8814383"><ele>475.0</ele><time>2026-04-25T10:39:13.724Z</time></trkpt><trkpt lat="43.2273017" lon="10.8816283"><ele>473.0</ele><time>2026-04-25T10:39:14.725Z</time></trkpt><trkpt lat="43.2271317" lon="10.8818233"><ele>473.0</ele><time>2026-04-25T10:39:15.724Z</time></trkpt><trkpt lat="43.2269667" lon="10.8820217"><ele>473.0</ele><time>2026-04-25T10:39:16.725Z</time></trkpt><trkpt lat="43.2268117" lon="10.8822183"><ele>473.0</ele><time>2026-04-25T10:39:17.726Z</time></trkpt><trkpt lat="43.22667" lon="10.8824117"><ele>470.3333333333333</ele><time>2026-04-25T10:39:18.725Z</time></trkpt><trkpt lat="43.226555" lon="10.88261"><ele>467.66666666666663</ele><time>2026-04-25T10:39:19.725Z</time></trkpt><trkpt lat="43.22647" lon="10.8828283"><ele>465.0</ele><time>2026-04-25T10:39:20.725Z</time></trkpt><trkpt lat="43.2264133" lon="10.88307"><ele>470.66666666666663</ele><time>2026-04-25T10:39:21.725Z</time></trkpt><trkpt lat="43.226365" lon="10.8833283"><ele>476.3333333333333</ele><time>2026-04-25T10:39:22.726Z</time></trkpt><trkpt lat="43.2263217" lon="10.8835933"><ele>482.0</ele><time>2026-04-25T10:39:23.725Z</time></trkpt><trkpt lat="43.22628" lon="10.8838667"><ele>482.0</ele><time>2026-04-25T10:39:24.724Z</time></trkpt><trkpt lat="43.2262417" lon="10.8841383"><ele>482.0</ele><time>2026-04-25T10:39:25.726Z</time></trkpt><trkpt lat="43.2262017" lon="10.8844133"><ele>482.0</ele><time>2026-04-25T10:39:26.725Z</time></trkpt><trkpt lat="43.22616" lon="10.8846883"><ele>481.66666666666663</ele><time>2026-04-25T10:39:27.726Z</time></trkpt><trkpt lat="43.2261167" lon="10.8849633"><ele>481.33333333333337</ele><time>2026-04-25T10:39:28.726Z</time></trkpt><trkpt lat="43.2260733" lon="10.8852417"><ele>481.0</ele><time>2026-04-25T10:39:29.725Z</time></trkpt><trkpt lat="43.2260283" lon="10.8855167"><ele>477.33333333333337</ele><time>2026-04-25T10:39:30.726Z</time></trkpt><trkpt lat="43.22599" lon="10.8857833"><ele>473.66666666666663</ele><time>2026-04-25T10:39:31.725Z</time></trkpt><trkpt lat="43.2259567" lon="10.886025"><ele>470.0</ele><time>2026-04-25T10:39:32.726Z</time></trkpt><trkpt lat="43.22591" lon="10.8862433"><ele>471.25</ele><time>2026-04-25T10:39:33.725Z</time></trkpt><trkpt lat="43.2258483" lon="10.88643"><ele>472.5</ele><time>2026-04-25T10:39:34.726Z</time></trkpt><trkpt lat="43.2257583" lon="10.8865867"><ele>473.75</ele><time>2026-04-25T10:39:35.725Z</time></trkpt><trkpt lat="43.22564" lon="10.8867117"><ele>475.0</ele><time>2026-04-25T10:39:36.724Z</time></trkpt><trkpt lat="43.22549" lon="10.8868183"><ele>470.33333333333337</ele><time>2026-04-25T10:39:37.724Z</time></trkpt><trkpt lat="43.2253333" lon="10.886925"><ele>465.66666666666663</ele><time>2026-04-25T10:39:38.725Z</time></trkpt><trkpt lat="43.2251767" lon="10.8870367"><ele>461.0</ele><time>2026-04-25T10:39:39.723Z</time></trkpt><trkpt lat="43.2250283" lon="10.887145"><ele>461.0</ele><time>2026-04-25T10:39:40.725Z</time></trkpt><trkpt lat="43.2248867" lon="10.887245"><ele>461.0</ele><time>2026-04-25T10:39:41.726Z</time></trkpt><trkpt lat="43.224765" lon="10.8873367"><ele>461.0</ele><time>2026-04-25T10:39:42.726Z</time></trkpt><trkpt lat="43.22465" lon="10.887415"><ele>461.0</ele><time>2026-04-25T10:39:43.727Z</time></trkpt><trkpt lat="43.22454" lon="10.8874833"><ele>461.49999999999994</ele><time>2026-04-25T10:39:44.726Z</time></trkpt><trkpt lat="43.22444" lon="10.88755"><ele>462.0</ele><time>2026-04-25T10:39:45.726Z</time></trkpt><trkpt lat="43.22436" lon="10.8876317"><ele>462.5</ele><time>2026-04-25T10:39:46.724Z</time></trkpt><trkpt lat="43.2243067" lon="10.8877183"><ele>463.0</ele><time>2026-04-25T10:39:47.726Z</time></trkpt><trkpt lat="43.22426" lon="10.8877983"><ele>463.49999999999994</ele><time>2026-04-25T10:39:48.726Z</time></trkpt><trkpt lat="43.2242683" lon="10.8878967"><ele>464.0</ele><time>2026-04-25T10:39:49.727Z</time></trkpt><trkpt lat="43.224315" lon="10.88799"><ele>464.0</ele><time>2026-04-25T10:39:50.726Z</time></trkpt><trkpt lat="43.2243733" lon="10.8880817"><ele>464.0</ele><time>2026-04-25T10:39:51.723Z</time></trkpt><trkpt lat="43.22446" lon="10.888185"><ele>464.0</ele><time>2026-04-25T10:39:52.727Z</time></trkpt><trkpt lat="43.2246083" lon="10.8883133"><ele>464.0</ele><time>2026-04-25T10:39:53.726Z</time></trkpt><trkpt lat="43.22476" lon="10.88843"><ele>466.2</ele><time>2026-04-25T10:39:54.726Z</time></trkpt><trkpt lat="43.22489" lon="10.888535"><ele>468.4</ele><time>2026-04-25T10:39:55.723Z</time></trkpt><trkpt lat="43.2249883" lon="10.8886317"><ele>470.6</ele><time>2026-04-25T10:39:56.725Z</time></trkpt><trkpt lat="43.2250483" lon="10.8887233"><ele>472.8</ele><time>2026-04-25T10:39:57.724Z</time></trkpt><trkpt lat="43.2250667" lon="10.8888133"><ele>475.0</ele><time>2026-04-25T10:39:58.726Z</time></trkpt><trkpt lat="43.2249967" lon="10.8889117"><ele>475.0</ele><time>2026-04-25T10:40:00.725Z</time></trkpt><trkpt lat="43.2248967" lon="10.8888783"><ele>475.0</ele><time>2026-04-25T10:40:01.726Z</time></trkpt><trkpt lat="43.22478" lon="10.8888"><ele>475.0</ele><time>2026-04-25T10:40:02.726Z</time></trkpt><trkpt lat="43.224675" lon="10.8887217"><ele>475.0</ele><time>2026-04-25T10:40:03.726Z</time></trkpt><trkpt lat="43.2245667" lon="10.8886617"><ele>476.33333333333337</ele><time>2026-04-25T10:40:04.726Z</time></trkpt><trkpt lat="43.224475" lon="10.8886467"><ele>477.6666666666667</ele><time>2026-04-25T10:40:05.726Z</time></trkpt><trkpt lat="43.22439" lon="10.88865"><ele>479.0</ele><time>2026-04-25T10:40:06.726Z</time></trkpt><trkpt lat="43.2243783" lon="10.88877"><ele>480.33333333333337</ele><time>2026-04-25T10:40:07.727Z</time></trkpt><trkpt lat="43.2244083" lon="10.8888533"><ele>481.6666666666667</ele><time>2026-04-25T10:40:08.725Z</time></trkpt><trkpt lat="43.22447" lon="10.888935"><ele>483.0</ele><time>2026-04-25T10:40:09.724Z</time></trkpt><trkpt lat="43.2245817" lon="10.8890167"><ele>483.0</ele><time>2026-04-25T10:40:10.725Z</time></trkpt><trkpt lat="43.22471" lon="10.889105"><ele>483.0</ele><time>2026-04-25T10:40:11.725Z</time></trkpt><trkpt lat="43.2248317" lon="10.889185"><ele>483.0</ele><time>2026-04-25T10:40:12.725Z</time></trkpt><trkpt lat="43.224925" lon="10.8892533"><ele>483.0</ele><time>2026-04-25T10:40:13.723Z</time></trkpt><trkpt lat="43.22498" lon="10.88934"><ele>483.59999999999997</ele><time>2026-04-25T10:40:14.725Z</time></trkpt><trkpt lat="43.2250083" lon="10.8894333"><ele>484.19999999999993</ele><time>2026-04-25T10:40:15.726Z</time></trkpt><trkpt lat="43.2249217" lon="10.8895317"><ele>484.8</ele><time>2026-04-25T10:40:17.724Z</time></trkpt><trkpt lat="43.22481" lon="10.88951"><ele>485.4</ele><time>2026-04-25T10:40:18.726Z</time></trkpt><trkpt lat="43.2246683" lon="10.8894583"><ele>486.0</ele><time>2026-04-25T10:40:19.726Z</time></trkpt><trkpt lat="43.2244983" lon="10.889395"><ele>487.5</ele><time>2026-04-25T10:40:20.723Z</time></trkpt><trkpt lat="43.2243417" lon="10.889335"><ele>489.0</ele><time>2026-04-25T10:40:21.727Z</time></trkpt><trkpt lat="43.2242083" lon="10.8893"><ele>490.5</ele><time>2026-04-25T10:40:22.726Z</time></trkpt><trkpt lat="43.2240867" lon="10.8893117"><ele>492.0</ele><time>2026-04-25T10:40:23.724Z</time></trkpt><trkpt lat="43.2239733" lon="10.8893733"><ele>495.75</ele><time>2026-04-25T10:40:24.726Z</time></trkpt><trkpt lat="43.223905" lon="10.889485"><ele>499.5</ele><time>2026-04-25T10:40:25.725Z</time></trkpt><trkpt lat="43.223875" lon="10.8896267"><ele>503.25</ele><time>2026-04-25T10:40:26.727Z</time></trkpt><trkpt lat="43.2238917" lon="10.889785"><ele>507.0</ele><time>2026-04-25T10:40:27.726Z</time></trkpt><trkpt lat="43.22396" lon="10.8899617"><ele>504.66666666666663</ele><time>2026-04-25T10:40:28.724Z</time></trkpt><trkpt lat="43.2240667" lon="10.8901717"><ele>502.3333333333333</ele><time>2026-04-25T10:40:29.726Z</time></trkpt><trkpt lat="43.2241933" lon="10.890405"><ele>500.0</ele><time>2026-04-25T10:40:30.727Z</time></trkpt><trkpt lat="43.2243117" lon="10.890615"><ele>500.0</ele><time>2026-04-25T10:40:31.726Z</time></trkpt><trkpt lat="43.2244283" lon="10.8907967"><ele>500.0</ele><time>2026-04-25T10:40:32.726Z</time></trkpt><trkpt lat="43.2245317" lon="10.8909617"><ele>500.0</ele><time>2026-04-25T10:40:33.725Z</time></trkpt><trkpt lat="43.2246067" lon="10.8911367"><ele>502.75</ele><time>2026-04-25T10:40:34.726Z</time></trkpt><trkpt lat="43.2246383" lon="10.8913183"><ele>505.5</ele><time>2026-04-25T10:40:35.725Z</time></trkpt><trkpt lat="43.22462" lon="10.8915017"><ele>508.25</ele><time>2026-04-25T10:40:36.727Z</time></trkpt><trkpt lat="43.22456" lon="10.8916583"><ele>511.0</ele><time>2026-04-25T10:40:37.724Z</time></trkpt><trkpt lat="43.224465" lon="10.8917767"><ele>511.0</ele><time>2026-04-25T10:40:38.725Z</time></trkpt><trkpt lat="43.2243383" lon="10.89184"><ele>511.0</ele><time>2026-04-25T10:40:39.726Z</time></trkpt><trkpt lat="43.2242" lon="10.8918283"><ele>511.0</ele><time>2026-04-25T10:40:40.726Z</time></trkpt><trkpt lat="43.2240517" lon="10.891755"><ele>511.0</ele><time>2026-04-25T10:40:41.725Z</time></trkpt><trkpt lat="43.223885" lon="10.89164"><ele>514.0</ele><time>2026-04-25T10:40:42.725Z</time></trkpt><trkpt lat="43.2236983" lon="10.8915"><ele>517.0</ele><time>2026-04-25T10:40:43.726Z</time></trkpt><trkpt lat="43.2235" lon="10.8913517"><ele>520.0</ele><time>2026-04-25T10:40:44.726Z</time></trkpt><trkpt lat="43.223305" lon="10.8911917"><ele>523.3333333333334</ele><time>2026-04-25T10:40:45.725Z</time></trkpt><trkpt lat="43.223125" lon="10.89103"><ele>526.6666666666666</ele><time>2026-04-25T10:40:46.725Z</time></trkpt><trkpt lat="43.2229567" lon="10.8908967"><ele>530.0</ele><time>2026-04-25T10:40:47.726Z</time></trkpt><trkpt lat="43.2227867" lon="10.8907867"><ele>530.0</ele><time>2026-04-25T10:40:48.726Z</time></trkpt><trkpt lat="43.222615" lon="10.890725"><ele>530.0</ele><time>2026-04-25T10:40:49.726Z</time></trkpt><trkpt lat="43.2224483" lon="10.8907333"><ele>530.0</ele><time>2026-04-25T10:40:50.727Z</time></trkpt><trkpt lat="43.2222683" lon="10.8908017"><ele>532.3333333333333</ele><time>2026-04-25T10:40:51.726Z</time></trkpt><trkpt lat="43.2221167" lon="10.8909233"><ele>534.6666666666666</ele><time>2026-04-25T10:40:52.726Z</time></trkpt><trkpt lat="43.2219567" lon="10.8910217"><ele>537.0</ele><time>2026-04-25T10:40:53.725Z</time></trkpt><trkpt lat="43.221785" lon="10.89106"><ele>539.3333333333334</ele><time>2026-04-25T10:40:54.727Z</time></trkpt><trkpt lat="43.22161" lon="10.8910467"><ele>541.6666666666667</ele><time>2026-04-25T10:40:55.723Z</time></trkpt><trkpt lat="43.221425" lon="10.8909883"><ele>544.0</ele><time>2026-04-25T10:40:56.726Z</time></trkpt><trkpt lat="43.2212383" lon="10.8909033"><ele>544.3333333333334</ele><time>2026-04-25T10:40:57.725Z</time></trkpt><trkpt lat="43.22105" lon="10.890825"><ele>544.6666666666666</ele><time>2026-04-25T10:40:58.726Z</time></trkpt><trkpt lat="43.2208583" lon="10.8907817"><ele>545.0</ele><time>2026-04-25T10:40:59.725Z</time></trkpt><trkpt lat="43.2206767" lon="10.890805"><ele>546.6666666666666</ele><time>2026-04-25T10:41:00.726Z</time></trkpt><trkpt lat="43.2204967" lon="10.8909033"><ele>548.3333333333334</ele><time>2026-04-25T10:41:01.725Z</time></trkpt><trkpt lat="43.220345" lon="10.891055"><ele>550.0</ele><time>2026-04-25T10:41:02.725Z</time></trkpt><trkpt lat="43.2202367" lon="10.8912483"><ele>553.0</ele><time>2026-04-25T10:41:03.724Z</time></trkpt><trkpt lat="43.2201683" lon="10.891485"><ele>556.0</ele><time>2026-04-25T10:41:04.725Z</time></trkpt><trkpt lat="43.2201633" lon="10.8917567"><ele>559.0</ele><time>2026-04-25T10:41:05.726Z</time></trkpt><trkpt lat="43.22019" lon="10.892035"><ele>563.5</ele><time>2026-04-25T10:41:06.727Z</time></trkpt><trkpt lat="43.2202333" lon="10.8923317"><ele>568.0</ele><time>2026-04-25T10:41:07.725Z</time></trkpt><trkpt lat="43.2202817" lon="10.892645"><ele>573.5</ele><time>2026-04-25T10:41:08.727Z</time></trkpt><trkpt lat="43.2203367" lon="10.8929717"><ele>579.0</ele><time>2026-04-25T10:41:09.725Z</time></trkpt><trkpt lat="43.2203917" lon="10.893305"><ele>584.0</ele><time>2026-04-25T10:41:10.725Z</time></trkpt><trkpt lat="43.2204467" lon="10.89364"><ele>589.0</ele><time>2026-04-25T10:41:11.727Z</time></trkpt><trkpt lat="43.2205017" lon="10.8939667"><ele>591.0</ele><time>2026-04-25T10:41:12.724Z</time></trkpt><trkpt lat="43.2205517" lon="10.89429"><ele>593.0</ele><time>2026-04-25T10:41:13.725Z</time></trkpt><trkpt lat="43.2205933" lon="10.8945833"><ele>593.0</ele><time>2026-04-25T10:41:14.727Z</time></trkpt><trkpt lat="43.2206117" lon="10.8948583"><ele>593.0</ele><time>2026-04-25T10:41:15.727Z</time></trkpt><trkpt lat="43.2206017" lon="10.8951283"><ele>593.0</ele><time>2026-04-25T10:41:16.726Z</time></trkpt><trkpt lat="43.2205633" lon="10.8953933"><ele>594.0</ele><time>2026-04-25T10:41:17.728Z</time></trkpt><trkpt lat="43.2204933" lon="10.895645"><ele>595.0</ele><time>2026-04-25T10:41:18.726Z</time></trkpt><trkpt lat="43.2203967" lon="10.8958783"><ele>596.0</ele><time>2026-04-25T10:41:19.725Z</time></trkpt><trkpt lat="43.220275" lon="10.8960933"><ele>599.0</ele><time>2026-04-25T10:41:20.725Z</time></trkpt><trkpt lat="43.22013" lon="10.8962767"><ele>602.0</ele><time>2026-04-25T10:41:21.727Z</time></trkpt><trkpt lat="43.2199683" lon="10.896425"><ele>605.0</ele><time>2026-04-25T10:41:22.726Z</time></trkpt><trkpt lat="43.2197917" lon="10.8965483"><ele>606.0</ele><time>2026-04-25T10:41:23.725Z</time></trkpt><trkpt lat="43.21961" lon="10.8966633"><ele>607.0</ele><time>2026-04-25T10:41:24.726Z</time></trkpt><trkpt lat="43.2194317" lon="10.8967733"><ele>608.0</ele><time>2026-04-25T10:41:25.726Z</time></trkpt><trkpt lat="43.2192567" lon="10.8968767"><ele>609.0</ele><time>2026-04-25T10:41:26.727Z</time></trkpt><trkpt lat="43.21908" lon="10.8969733"><ele>610.0</ele><time>2026-04-25T10:41:27.725Z</time></trkpt><trkpt lat="43.218905" lon="10.8970667"><ele>611.0</ele><time>2026-04-25T10:41:28.724Z</time></trkpt><trkpt lat="43.2187283" lon="10.897155"><ele>611.0</ele><time>2026-04-25T10:41:29.725Z</time></trkpt><trkpt lat="43.2185567" lon="10.897245"><ele>611.0</ele><time>2026-04-25T10:41:30.725Z</time></trkpt><trkpt lat="43.2183833" lon="10.8973367"><ele>611.0</ele><time>2026-04-25T10:41:31.726Z</time></trkpt><trkpt lat="43.2182117" lon="10.8974233"><ele>611.3333333333333</ele><time>2026-04-25T10:41:32.725Z</time></trkpt><trkpt lat="43.2180483" lon="10.897505"><ele>611.6666666666666</ele><time>2026-04-25T10:41:33.726Z</time></trkpt><trkpt lat="43.2178967" lon="10.8975833"><ele>612.0</ele><time>2026-04-25T10:41:34.726Z</time></trkpt><trkpt lat="43.2177533" lon="10.8976567"><ele>612.0</ele><time>2026-04-25T10:41:35.726Z</time></trkpt><trkpt lat="43.21762" lon="10.8977233"><ele>612.0</ele><time>2026-04-25T10:41:36.725Z</time></trkpt><trkpt lat="43.21749" lon="10.89779"><ele>612.0</ele><time>2026-04-25T10:41:37.725Z</time></trkpt><trkpt lat="43.2173633" lon="10.8978533"><ele>612.0</ele><time>2026-04-25T10:41:38.724Z</time></trkpt><trkpt lat="43.21723" lon="10.8979217"><ele>612.0</ele><time>2026-04-25T10:41:39.726Z</time></trkpt><trkpt lat="43.2170933" lon="10.8979917"><ele>612.0</ele><time>2026-04-25T10:41:40.726Z</time></trkpt><trkpt lat="43.21696" lon="10.89806"><ele>612.0</ele><time>2026-04-25T10:41:41.725Z</time></trkpt><trkpt lat="43.2168267" lon="10.898125"><ele>612.0</ele><time>2026-04-25T10:41:42.726Z</time></trkpt><trkpt lat="43.2166983" lon="10.8981833"><ele>612.0</ele><time>2026-04-25T10:41:43.725Z</time></trkpt><trkpt lat="43.2165817" lon="10.8982383"><ele>612.0</ele><time>2026-04-25T10:41:44.726Z</time></trkpt><trkpt lat="43.2164717" lon="10.89829"><ele>612.0</ele><time>2026-04-25T10:41:45.725Z</time></trkpt><trkpt lat="43.2163633" lon="10.8983433"><ele>612.0</ele><time>2026-04-25T10:41:46.725Z</time></trkpt><trkpt lat="43.2162567" lon="10.898395"><ele>611.2</ele><time>2026-04-25T10:41:47.726Z</time></trkpt><trkpt lat="43.2161533" lon="10.898445"><ele>610.4000000000001</ele><time>2026-04-25T10:41:48.724Z</time></trkpt><trkpt lat="43.2160533" lon="10.8984967"><ele>609.5999999999999</ele><time>2026-04-25T10:41:49.726Z</time></trkpt><trkpt lat="43.2159617" lon="10.898545"><ele>608.8</ele><time>2026-04-25T10:41:50.727Z</time></trkpt><trkpt lat="43.2158717" lon="10.8985717"><ele>608.0</ele><time>2026-04-25T10:41:51.726Z</time></trkpt><trkpt lat="43.2157833" lon="10.89861"><ele>608.0</ele><time>2026-04-25T10:41:52.725Z</time></trkpt><trkpt lat="43.2157017" lon="10.898645"><ele>608.0</ele><time>2026-04-25T10:41:53.726Z</time></trkpt><trkpt lat="43.2156267" lon="10.8986783"><ele>608.0</ele><time>2026-04-25T10:41:54.727Z</time></trkpt><trkpt lat="43.21555" lon="10.8987033"><ele>608.0</ele><time>2026-04-25T10:41:55.725Z</time></trkpt><trkpt lat="43.2154667" lon="10.898705"><ele>608.0</ele><time>2026-04-25T10:41:56.726Z</time></trkpt><trkpt lat="43.2153833" lon="10.8986967"><ele>608.0</ele><time>2026-04-25T10:41:57.726Z</time></trkpt><trkpt lat="43.21529" lon="10.898695"><ele>607.75</ele><time>2026-04-25T10:41:58.725Z</time></trkpt><trkpt lat="43.2151817" lon="10.8986967"><ele>607.5</ele><time>2026-04-25T10:41:59.726Z</time></trkpt><trkpt lat="43.2150567" lon="10.8986767"><ele>607.25</ele><time>2026-04-25T10:42:00.728Z</time></trkpt><trkpt lat="43.214925" lon="10.8986183"><ele>607.0</ele><time>2026-04-25T10:42:01.726Z</time></trkpt><trkpt lat="43.21478" lon="10.8985383"><ele>606.6666666666667</ele><time>2026-04-25T10:42:02.726Z</time></trkpt><trkpt lat="43.2146283" lon="10.8984483"><ele>606.3333333333334</ele><time>2026-04-25T10:42:03.726Z</time></trkpt><trkpt lat="43.2144683" lon="10.8983483"><ele>606.0</ele><time>2026-04-25T10:42:04.724Z</time></trkpt><trkpt lat="43.214305" lon="10.8982517"><ele>607.3333333333334</ele><time>2026-04-25T10:42:05.727Z</time></trkpt><trkpt lat="43.2141383" lon="10.8981533"><ele>608.6666666666667</ele><time>2026-04-25T10:42:06.725Z</time></trkpt><trkpt lat="43.2139683" lon="10.898055"><ele>610.0</ele><time>2026-04-25T10:42:07.726Z</time></trkpt><trkpt lat="43.2138033" lon="10.89795"><ele>611.0</ele><time>2026-04-25T10:42:08.725Z</time></trkpt><trkpt lat="43.2136367" lon="10.89785"><ele>612.0</ele><time>2026-04-25T10:42:09.727Z</time></trkpt><trkpt lat="43.2134667" lon="10.89775"><ele>613.0</ele><time>2026-04-25T10:42:10.725Z</time></trkpt><trkpt lat="43.2132983" lon="10.8976433"><ele>616.0</ele><time>2026-04-25T10:42:11.724Z</time></trkpt><trkpt lat="43.2131283" lon="10.897535"><ele>619.0</ele><time>2026-04-25T10:42:12.725Z</time></trkpt><trkpt lat="43.2129533" lon="10.897425"><ele>622.0</ele><time>2026-04-25T10:42:13.724Z</time></trkpt><trkpt lat="43.2127783" lon="10.8973133"><ele>622.0</ele><time>2026-04-25T10:42:14.725Z</time></trkpt><trkpt lat="43.2125983" lon="10.8972"><ele>622.0</ele><time>2026-04-25T10:42:15.725Z</time></trkpt><trkpt lat="43.2124133" lon="10.8970833"><ele>622.0</ele><time>2026-04-25T10:42:16.726Z</time></trkpt><trkpt lat="43.2122233" lon="10.8969617"><ele>622.3333333333334</ele><time>2026-04-25T10:42:17.724Z</time></trkpt><trkpt lat="43.2120267" lon="10.8968367"><ele>622.6666666666666</ele><time>2026-04-25T10:42:18.725Z</time></trkpt><trkpt lat="43.2118283" lon="10.896715"><ele>623.0</ele><time>2026-04-25T10:42:19.727Z</time></trkpt><trkpt lat="43.21163" lon="10.896595"><ele>623.6666666666666</ele><time>2026-04-25T10:42:20.725Z</time></trkpt><trkpt lat="43.21143" lon="10.89647"><ele>624.3333333333334</ele><time>2026-04-25T10:42:21.724Z</time></trkpt><trkpt lat="43.21123" lon="10.8963417"><ele>625.0</ele><time>2026-04-25T10:42:22.725Z</time></trkpt><trkpt lat="43.2110283" lon="10.8962183"><ele>625.0</ele><time>2026-04-25T10:42:23.723Z</time></trkpt><trkpt lat="43.2108233" lon="10.896095"><ele>625.0</ele><time>2026-04-25T10:42:24.726Z</time></trkpt><trkpt lat="43.2106183" lon="10.8959783"><ele>625.0</ele><time>2026-04-25T10:42:25.725Z</time></trkpt><trkpt lat="43.2104083" lon="10.8958783"><ele>625.0</ele><time>2026-04-25T10:42:26.727Z</time></trkpt><trkpt lat="43.2101917" lon="10.8958083"><ele>625.0</ele><time>2026-04-25T10:42:27.726Z</time></trkpt><trkpt lat="43.20997" lon="10.8957633"><ele>625.0</ele><time>2026-04-25T10:42:28.726Z</time></trkpt><trkpt lat="43.209745" lon="10.8957567"><ele>629.0</ele><time>2026-04-25T10:42:29.725Z</time></trkpt><trkpt lat="43.20952" lon="10.8957883"><ele>633.0</ele><time>2026-04-25T10:42:30.725Z</time></trkpt><trkpt lat="43.2093" lon="10.89586"><ele>633.0</ele><time>2026-04-25T10:42:31.724Z</time></trkpt><trkpt lat="43.2090833" lon="10.8959733"><ele>633.0</ele><time>2026-04-25T10:42:32.726Z</time></trkpt><trkpt lat="43.208875" lon="10.896125"><ele>638.5</ele><time>2026-04-25T10:42:33.726Z</time></trkpt><trkpt lat="43.2086817" lon="10.89631"><ele>644.0</ele><time>2026-04-25T10:42:34.724Z</time></trkpt><trkpt lat="43.2085083" lon="10.8965333"><ele>637.5</ele><time>2026-04-25T10:42:35.726Z</time></trkpt><trkpt lat="43.2083483" lon="10.8967883"><ele>631.0</ele><time>2026-04-25T10:42:36.726Z</time></trkpt><trkpt lat="43.2082" lon="10.897075"><ele>638.5</ele><time>2026-04-25T10:42:37.726Z</time></trkpt><trkpt lat="43.20806" lon="10.8973817"><ele>646.0</ele><time>2026-04-25T10:42:38.726Z</time></trkpt><trkpt lat="43.20793" lon="10.8976967"><ele>646.0</ele><time>2026-04-25T10:42:39.726Z</time></trkpt><trkpt lat="43.2077933" lon="10.8980133"><ele>646.0</ele><time>2026-04-25T10:42:40.726Z</time></trkpt><trkpt lat="43.207665" lon="10.8983217"><ele>644.0</ele><time>2026-04-25T10:42:41.725Z</time></trkpt><trkpt lat="43.2075383" lon="10.8986233"><ele>642.0</ele><time>2026-04-25T10:42:42.726Z</time></trkpt><trkpt lat="43.2074183" lon="10.8989183"><ele>650.5</ele><time>2026-04-25T10:42:43.725Z</time></trkpt><trkpt lat="43.207295" lon="10.89921"><ele>659.0</ele><time>2026-04-25T10:42:44.725Z</time></trkpt><trkpt lat="43.2071817" lon="10.8994933"><ele>659.0</ele><time>2026-04-25T10:42:45.726Z</time></trkpt><trkpt lat="43.2070667" lon="10.899765"><ele>659.0</ele><time>2026-04-25T10:42:46.725Z</time></trkpt><trkpt lat="43.20695" lon="10.90002"><ele>659.0</ele><time>2026-04-25T10:42:47.726Z</time></trkpt><trkpt lat="43.2068233" lon="10.9002633"><ele>657.3333333333333</ele><time>2026-04-25T10:42:48.725Z</time></trkpt><trkpt lat="43.2066833" lon="10.9004983"><ele>655.6666666666666</ele><time>2026-04-25T10:42:49.727Z</time></trkpt><trkpt lat="43.2065267" lon="10.9007183"><ele>654.0</ele><time>2026-04-25T10:42:50.727Z</time></trkpt><trkpt lat="43.2063517" lon="10.9009183"><ele>653.0</ele><time>2026-04-25T10:42:51.724Z</time></trkpt><trkpt lat="43.20617" lon="10.9011067"><ele>652.0</ele><time>2026-04-25T10:42:52.728Z</time></trkpt><trkpt lat="43.2059633" lon="10.9012783"><ele>652.0</ele><time>2026-04-25T10:42:53.726Z</time></trkpt><trkpt lat="43.2057467" lon="10.9014367"><ele>652.0</ele><time>2026-04-25T10:42:54.726Z</time></trkpt><trkpt lat="43.2055433" lon="10.9016017"><ele>648.0</ele><time>2026-04-25T10:42:55.725Z</time></trkpt><trkpt lat="43.2053533" lon="10.9017767"><ele>644.0</ele><time>2026-04-25T10:42:56.726Z</time></trkpt><trkpt lat="43.2051667" lon="10.90199"><ele>644.0</ele><time>2026-04-25T10:42:57.725Z</time></trkpt><trkpt lat="43.20501" lon="10.9022433"><ele>644.0</ele><time>2026-04-25T10:42:58.727Z</time></trkpt><trkpt lat="43.2048633" lon="10.90252"><ele>645.5</ele><time>2026-04-25T10:42:59.725Z</time></trkpt><trkpt lat="43.204735" lon="10.9028183"><ele>647.0</ele><time>2026-04-25T10:43:00.725Z</time></trkpt><trkpt lat="43.2046283" lon="10.903125"><ele>642.5</ele><time>2026-04-25T10:43:01.726Z</time></trkpt><trkpt lat="43.2045233" lon="10.9034217"><ele>638.0</ele><time>2026-04-25T10:43:02.725Z</time></trkpt><trkpt lat="43.2044083" lon="10.903695"><ele>638.0</ele><time>2026-04-25T10:43:03.725Z</time></trkpt><trkpt lat="43.2042717" lon="10.90394"><ele>638.0</ele><time>2026-04-25T10:43:04.724Z</time></trkpt><trkpt lat="43.2041133" lon="10.9041517"><ele>638.0</ele><time>2026-04-25T10:43:05.725Z</time></trkpt><trkpt lat="43.2039367" lon="10.904315"><ele>637.6666666666666</ele><time>2026-04-25T10:43:06.725Z</time></trkpt><trkpt lat="43.2037333" lon="10.9044267"><ele>637.3333333333334</ele><time>2026-04-25T10:43:07.724Z</time></trkpt><trkpt lat="43.2035217" lon="10.90449"><ele>637.0</ele><time>2026-04-25T10:43:08.723Z</time></trkpt><trkpt lat="43.2033067" lon="10.904505"><ele>630.6666666666667</ele><time>2026-04-25T10:43:09.724Z</time></trkpt><trkpt lat="43.2030933" lon="10.9044683"><ele>624.3333333333334</ele><time>2026-04-25T10:43:10.726Z</time></trkpt><trkpt lat="43.2028883" lon="10.9043917"><ele>618.0</ele><time>2026-04-25T10:43:11.725Z</time></trkpt><trkpt lat="43.20269" lon="10.9042667"><ele>622.0</ele><time>2026-04-25T10:43:12.724Z</time></trkpt><trkpt lat="43.202505" lon="10.904105"><ele>626.0</ele><time>2026-04-25T10:43:13.723Z</time></trkpt><trkpt lat="43.20232" lon="10.9039433"><ele>630.0</ele><time>2026-04-25T10:43:14.725Z</time></trkpt><trkpt lat="43.2021433" lon="10.90379"><ele>632.0</ele><time>2026-04-25T10:43:15.725Z</time></trkpt><trkpt lat="43.2019583" lon="10.9036733"><ele>634.0</ele><time>2026-04-25T10:43:16.726Z</time></trkpt><trkpt lat="43.2017617" lon="10.903605"><ele>636.0</ele><time>2026-04-25T10:43:17.725Z</time></trkpt><trkpt lat="43.2015567" lon="10.903575"><ele>638.3333333333334</ele><time>2026-04-25T10:43:18.725Z</time></trkpt><trkpt lat="43.201345" lon="10.9036017"><ele>640.6666666666667</ele><time>2026-04-25T10:43:19.724Z</time></trkpt><trkpt lat="43.201135" lon="10.9036833"><ele>643.0</ele><time>2026-04-25T10:43:20.725Z</time></trkpt><trkpt lat="43.2009267" lon="10.9038217"><ele>643.0</ele><time>2026-04-25T10:43:21.723Z</time></trkpt><trkpt lat="43.20073" lon="10.904015"><ele>643.0</ele><time>2026-04-25T10:43:22.724Z</time></trkpt><trkpt lat="43.2005667" lon="10.9042083"><ele>643.3333333333334</ele><time>2026-04-25T10:43:23.724Z</time></trkpt><trkpt lat="43.2004183" lon="10.9044117"><ele>643.6666666666666</ele><time>2026-04-25T10:43:24.726Z</time></trkpt><trkpt lat="43.20026" lon="10.904615"><ele>644.0</ele><time>2026-04-25T10:43:25.724Z</time></trkpt><trkpt lat="43.2001033" lon="10.904825"><ele>644.0</ele><time>2026-04-25T10:43:26.724Z</time></trkpt><trkpt lat="43.199945" lon="10.90504"><ele>644.0</ele><time>2026-04-25T10:43:27.726Z</time></trkpt><trkpt lat="43.19978" lon="10.9052517"><ele>644.0</ele><time>2026-04-25T10:43:28.723Z</time></trkpt><trkpt lat="43.199635" lon="10.9054717"><ele>641.3333333333333</ele><time>2026-04-25T10:43:29.725Z</time></trkpt><trkpt lat="43.1995017" lon="10.9056983"><ele>638.6666666666666</ele><time>2026-04-25T10:43:30.726Z</time></trkpt><trkpt lat="43.1993817" lon="10.9059283"><ele>636.0</ele><time>2026-04-25T10:43:31.723Z</time></trkpt><trkpt lat="43.1992733" lon="10.90614"><ele>636.0</ele><time>2026-04-25T10:43:32.726Z</time></trkpt><trkpt lat="43.1991633" lon="10.9063267"><ele>636.0</ele><time>2026-04-25T10:43:33.725Z</time></trkpt><trkpt lat="43.199025" lon="10.9064533"><ele>636.0</ele><time>2026-04-25T10:43:34.724Z</time></trkpt><trkpt lat="43.1988817" lon="10.90652"><ele>639.3333333333334</ele><time>2026-04-25T10:43:35.723Z</time></trkpt><trkpt lat="43.1987167" lon="10.906525"><ele>642.6666666666667</ele><time>2026-04-25T10:43:36.725Z</time></trkpt><trkpt lat="43.1985583" lon="10.90648"><ele>646.0</ele><time>2026-04-25T10:43:37.724Z</time></trkpt><trkpt lat="43.1984033" lon="10.9064483"><ele>646.0</ele><time>2026-04-25T10:43:38.721Z</time></trkpt><trkpt lat="43.1982633" lon="10.9064667"><ele>646.0</ele><time>2026-04-25T10:43:39.723Z</time></trkpt><trkpt lat="43.1981333" lon="10.9065717"><ele>646.0</ele><time>2026-04-25T10:43:40.725Z</time></trkpt><trkpt lat="43.1979833" lon="10.9067133"><ele>646.0</ele><time>2026-04-25T10:43:41.725Z</time></trkpt><trkpt lat="43.197835" lon="10.9068917"><ele>646.0</ele><time>2026-04-25T10:43:42.724Z</time></trkpt><trkpt lat="43.1976883" lon="10.9070917"><ele>646.0</ele><time>2026-04-25T10:43:43.725Z</time></trkpt><trkpt lat="43.197535" lon="10.907255"><ele>646.0</ele><time>2026-04-25T10:43:44.725Z</time></trkpt><trkpt lat="43.19738" lon="10.9073633"><ele>646.0</ele><time>2026-04-25T10:43:45.723Z</time></trkpt><trkpt lat="43.197215" lon="10.9074117"><ele>646.0</ele><time>2026-04-25T10:43:46.725Z</time></trkpt><trkpt lat="43.1970367" lon="10.9073983"><ele>645.0</ele><time>2026-04-25T10:43:47.725Z</time></trkpt><trkpt lat="43.1968617" lon="10.90733"><ele>644.0</ele><time>2026-04-25T10:43:48.726Z</time></trkpt><trkpt lat="43.1967" lon="10.9072133"><ele>643.0</ele><time>2026-04-25T10:43:49.725Z</time></trkpt><trkpt lat="43.1965433" lon="10.907105"><ele>641.0</ele><time>2026-04-25T10:43:50.726Z</time></trkpt><trkpt lat="43.1963817" lon="10.9070333"><ele>639.0</ele><time>2026-04-25T10:43:51.724Z</time></trkpt><trkpt lat="43.196205" lon="10.9069867"><ele>637.0</ele><time>2026-04-25T10:43:52.725Z</time></trkpt><trkpt lat="43.19601" lon="10.906975"><ele>637.0</ele><time>2026-04-25T10:43:53.725Z</time></trkpt><trkpt lat="43.1957967" lon="10.9069867"><ele>637.0</ele><time>2026-04-25T10:43:54.725Z</time></trkpt><trkpt lat="43.1955867" lon="10.90699"><ele>637.0</ele><time>2026-04-25T10:43:55.725Z</time></trkpt><trkpt lat="43.195385" lon="10.9070067"><ele>640.3333333333334</ele><time>2026-04-25T10:43:56.724Z</time></trkpt><trkpt lat="43.195195" lon="10.907075"><ele>643.6666666666666</ele><time>2026-04-25T10:43:57.725Z</time></trkpt><trkpt lat="43.1950233" lon="10.9071967"><ele>647.0</ele><time>2026-04-25T10:43:58.724Z</time></trkpt><trkpt lat="43.1948883" lon="10.9073717"><ele>646.3333333333333</ele><time>2026-04-25T10:43:59.724Z</time></trkpt><trkpt lat="43.19478" lon="10.90759"><ele>645.6666666666666</ele><time>2026-04-25T10:44:00.726Z</time></trkpt><trkpt lat="43.1946633" lon="10.9078133"><ele>645.0</ele><time>2026-04-25T10:44:01.725Z</time></trkpt><trkpt lat="43.194535" lon="10.908025"><ele>645.0</ele><time>2026-04-25T10:44:02.726Z</time></trkpt><trkpt lat="43.1943883" lon="10.9081933"><ele>645.0</ele><time>2026-04-25T10:44:03.724Z</time></trkpt><trkpt lat="43.1942167" lon="10.90832"><ele>645.0</ele><time>2026-04-25T10:44:04.724Z</time></trkpt><trkpt lat="43.194025" lon="10.9084133"><ele>634.6666666666666</ele><time>2026-04-25T10:44:05.725Z</time></trkpt><trkpt lat="43.19382" lon="10.9084667"><ele>624.3333333333333</ele><time>2026-04-25T10:44:06.726Z</time></trkpt><trkpt lat="43.193615" lon="10.9084733"><ele>614.0</ele><time>2026-04-25T10:44:07.723Z</time></trkpt><trkpt lat="43.1934183" lon="10.9084517"><ele>614.0</ele><time>2026-04-25T10:44:08.726Z</time></trkpt><trkpt lat="43.19322" lon="10.908415"><ele>614.0</ele><time>2026-04-25T10:44:09.722Z</time></trkpt><trkpt lat="43.193015" lon="10.9083783"><ele>614.0</ele><time>2026-04-25T10:44:10.724Z</time></trkpt><trkpt lat="43.192795" lon="10.9083383"><ele>615.0</ele><time>2026-04-25T10:44:11.723Z</time></trkpt><trkpt lat="43.1925483" lon="10.9082917"><ele>616.0</ele><time>2026-04-25T10:44:12.725Z</time></trkpt><trkpt lat="43.1922967" lon="10.90823"><ele>616.0</ele><time>2026-04-25T10:44:13.726Z</time></trkpt><trkpt lat="43.19206" lon="10.908175"><ele>616.0</ele><time>2026-04-25T10:44:14.724Z</time></trkpt><trkpt lat="43.191835" lon="10.90811"><ele>616.0</ele><time>2026-04-25T10:44:15.726Z</time></trkpt><trkpt lat="43.1916217" lon="10.9080267"><ele>616.0</ele><time>2026-04-25T10:44:16.725Z</time></trkpt><trkpt lat="43.1914233" lon="10.907915"><ele>616.0</ele><time>2026-04-25T10:44:17.726Z</time></trkpt><trkpt lat="43.19124" lon="10.9077783"><ele>613.3333333333334</ele><time>2026-04-25T10:44:18.723Z</time></trkpt><trkpt lat="43.191065" lon="10.9076117"><ele>610.6666666666666</ele><time>2026-04-25T10:44:19.725Z</time></trkpt><trkpt lat="43.190905" lon="10.9074117"><ele>608.0</ele><time>2026-04-25T10:44:20.726Z</time></trkpt><trkpt lat="43.1907583" lon="10.9071867"><ele>604.0</ele><time>2026-04-25T10:44:21.724Z</time></trkpt><trkpt lat="43.19063" lon="10.9069483"><ele>600.0</ele><time>2026-04-25T10:44:22.722Z</time></trkpt><trkpt lat="43.19051" lon="10.9067267"><ele>596.0</ele><time>2026-04-25T10:44:23.723Z</time></trkpt><trkpt lat="43.1903817" lon="10.9065217"><ele>596.0</ele><time>2026-04-25T10:44:24.727Z</time></trkpt><trkpt lat="43.1902267" lon="10.9063683"><ele>596.0</ele><time>2026-04-25T10:44:25.726Z</time></trkpt><trkpt lat="43.19004" lon="10.9062383"><ele>596.0</ele><time>2026-04-25T10:44:26.725Z</time></trkpt><trkpt lat="43.18982" lon="10.90614"><ele>596.5</ele><time>2026-04-25T10:44:27.725Z</time></trkpt><trkpt lat="43.1895817" lon="10.906055"><ele>597.0</ele><time>2026-04-25T10:44:28.725Z</time></trkpt><trkpt lat="43.1893417" lon="10.9059717"><ele>605.5</ele><time>2026-04-25T10:44:29.726Z</time></trkpt><trkpt lat="43.189105" lon="10.9058833"><ele>614.0</ele><time>2026-04-25T10:44:30.723Z</time></trkpt><trkpt lat="43.1888667" lon="10.9057983"><ele>614.5</ele><time>2026-04-25T10:44:31.723Z</time></trkpt><trkpt lat="43.1886233" lon="10.9057167"><ele>615.0</ele><time>2026-04-25T10:44:32.726Z</time></trkpt><trkpt lat="43.18838" lon="10.9056283"><ele>615.0</ele><time>2026-04-25T10:44:33.726Z</time></trkpt><trkpt lat="43.1881417" lon="10.9055383"><ele>615.0</ele><time>2026-04-25T10:44:34.725Z</time></trkpt><trkpt lat="43.1879217" lon="10.9054483"><ele>615.0</ele><time>2026-04-25T10:44:35.725Z</time></trkpt><trkpt lat="43.187725" lon="10.9053733"><ele>615.0</ele><time>2026-04-25T10:44:36.724Z</time></trkpt><trkpt lat="43.1875433" lon="10.9053183"><ele>615.0</ele><time>2026-04-25T10:44:37.725Z</time></trkpt><trkpt lat="43.1873817" lon="10.9053133"><ele>624.0</ele><time>2026-04-25T10:44:38.726Z</time></trkpt><trkpt lat="43.1872233" lon="10.90537"><ele>633.0</ele><time>2026-04-25T10:44:39.726Z</time></trkpt><trkpt lat="43.1870733" lon="10.9054967"><ele>642.0</ele><time>2026-04-25T10:44:40.724Z</time></trkpt><trkpt lat="43.1869483" lon="10.905675"><ele>642.0</ele><time>2026-04-25T10:44:41.722Z</time></trkpt><trkpt lat="43.1868517" lon="10.9058917"><ele>642.0</ele><time>2026-04-25T10:44:42.724Z</time></trkpt><trkpt lat="43.1867667" lon="10.9061567"><ele>642.0</ele><time>2026-04-25T10:44:43.725Z</time></trkpt><trkpt lat="43.1866733" lon="10.9064417"><ele>641.5</ele><time>2026-04-25T10:44:44.725Z</time></trkpt><trkpt lat="43.1865783" lon="10.9067367"><ele>641.0</ele><time>2026-04-25T10:44:45.724Z</time></trkpt><trkpt lat="43.1864783" lon="10.9070067"><ele>642.3333333333333</ele><time>2026-04-25T10:44:46.724Z</time></trkpt><trkpt lat="43.1863733" lon="10.9072467"><ele>643.6666666666666</ele><time>2026-04-25T10:44:47.723Z</time></trkpt><trkpt lat="43.1862433" lon="10.9074383"><ele>645.0</ele><time>2026-04-25T10:44:48.725Z</time></trkpt><trkpt lat="43.18609" lon="10.9075783"><ele>645.0</ele><time>2026-04-25T10:44:49.725Z</time></trkpt><trkpt lat="43.1859183" lon="10.90767"><ele>645.0</ele><time>2026-04-25T10:44:50.725Z</time></trkpt><trkpt lat="43.1857233" lon="10.90772"><ele>645.0</ele><time>2026-04-25T10:44:51.725Z</time></trkpt><trkpt lat="43.185495" lon="10.9077367"><ele>649.0</ele><time>2026-04-25T10:44:52.725Z</time></trkpt><trkpt lat="43.1852617" lon="10.907755"><ele>653.0</ele><time>2026-04-25T10:44:53.726Z</time></trkpt><trkpt lat="43.18501" lon="10.9077683"><ele>659.5</ele><time>2026-04-25T10:44:54.725Z</time></trkpt><trkpt lat="43.1847483" lon="10.907775"><ele>666.0</ele><time>2026-04-25T10:44:55.726Z</time></trkpt><trkpt lat="43.1844983" lon="10.907785"><ele>666.0</ele><time>2026-04-25T10:44:56.726Z</time></trkpt><trkpt lat="43.1842683" lon="10.9077883"><ele>666.0</ele><time>2026-04-25T10:44:57.726Z</time></trkpt><trkpt lat="43.1840383" lon="10.9077767"><ele>662.5</ele><time>2026-04-25T10:44:58.725Z</time></trkpt><trkpt lat="43.1838083" lon="10.9077433"><ele>659.0</ele><time>2026-04-25T10:44:59.724Z</time></trkpt><trkpt lat="43.1835817" lon="10.9076817"><ele>659.0</ele><time>2026-04-25T10:45:00.725Z</time></trkpt><trkpt lat="43.1833567" lon="10.9075983"><ele>659.0</ele><time>2026-04-25T10:45:01.725Z</time></trkpt><trkpt lat="43.1831267" lon="10.9075033"><ele>660.5</ele><time>2026-04-25T10:45:02.724Z</time></trkpt><trkpt lat="43.182895" lon="10.9074067"><ele>662.0</ele><time>2026-04-25T10:45:03.726Z</time></trkpt><trkpt lat="43.1826617" lon="10.9073233"><ele>662.0</ele><time>2026-04-25T10:45:04.727Z</time></trkpt><trkpt lat="43.18242" lon="10.9072883"><ele>662.0</ele><time>2026-04-25T10:45:05.726Z</time></trkpt><trkpt lat="43.1821767" lon="10.9072883"><ele>667.0</ele><time>2026-04-25T10:45:06.724Z</time></trkpt><trkpt lat="43.1819233" lon="10.9073133"><ele>672.0</ele><time>2026-04-25T10:45:07.725Z</time></trkpt><trkpt lat="43.181665" lon="10.9073483"><ele>675.0</ele><time>2026-04-25T10:45:08.726Z</time></trkpt><trkpt lat="43.1814" lon="10.9073867"><ele>678.0</ele><time>2026-04-25T10:45:09.726Z</time></trkpt><trkpt lat="43.1811417" lon="10.9074283"><ele>678.0</ele><time>2026-04-25T10:45:10.725Z</time></trkpt><trkpt lat="43.180895" lon="10.9074717"><ele>678.0</ele><time>2026-04-25T10:45:11.725Z</time></trkpt><trkpt lat="43.1806717" lon="10.9075133"><ele>677.0</ele><time>2026-04-25T10:45:12.725Z</time></trkpt><trkpt lat="43.180475" lon="10.9075467"><ele>676.0</ele><time>2026-04-25T10:45:13.725Z</time></trkpt><trkpt lat="43.1802983" lon="10.907595"><ele>675.0</ele><time>2026-04-25T10:45:14.725Z</time></trkpt><trkpt lat="43.18014" lon="10.907685"><ele>675.0</ele><time>2026-04-25T10:45:15.724Z</time></trkpt><trkpt lat="43.1800033" lon="10.90782"><ele>675.0</ele><time>2026-04-25T10:45:16.724Z</time></trkpt><trkpt lat="43.1799133" lon="10.9080067"><ele>675.0</ele><time>2026-04-25T10:45:17.726Z</time></trkpt><trkpt lat="43.1798433" lon="10.9082333"><ele>676.0</ele><time>2026-04-25T10:45:18.724Z</time></trkpt><trkpt lat="43.1798383" lon="10.9084833"><ele>677.0</ele><time>2026-04-25T10:45:19.727Z</time></trkpt><trkpt lat="43.179885" lon="10.9087483"><ele>678.0</ele><time>2026-04-25T10:45:20.729Z</time></trkpt><trkpt lat="43.1799217" lon="10.90901"><ele>675.0</ele><time>2026-04-25T10:45:21.726Z</time></trkpt><trkpt lat="43.1799217" lon="10.9092683"><ele>672.0</ele><time>2026-04-25T10:45:22.726Z</time></trkpt><trkpt lat="43.1798967" lon="10.909525"><ele>669.0</ele><time>2026-04-25T10:45:23.724Z</time></trkpt><trkpt lat="43.1798117" lon="10.9097633"><ele>671.0</ele><time>2026-04-25T10:45:24.725Z</time></trkpt><trkpt lat="43.1796833" lon="10.909985"><ele>673.0</ele><time>2026-04-25T10:45:25.724Z</time></trkpt><trkpt lat="43.1795133" lon="10.91019"><ele>675.0</ele><time>2026-04-25T10:45:26.725Z</time></trkpt><trkpt lat="43.1793333" lon="10.9103767"><ele>675.0</ele><time>2026-04-25T10:45:27.726Z</time></trkpt><trkpt lat="43.1791483" lon="10.9105383"><ele>675.0</ele><time>2026-04-25T10:45:28.726Z</time></trkpt><trkpt lat="43.1789533" lon="10.9106617"><ele>675.0</ele><time>2026-04-25T10:45:29.726Z</time></trkpt><trkpt lat="43.178735" lon="10.9107467"><ele>675.0</ele><time>2026-04-25T10:45:30.724Z</time></trkpt><trkpt lat="43.178515" lon="10.9107967"><ele>675.0</ele><time>2026-04-25T10:45:31.724Z</time></trkpt><trkpt lat="43.1782833" lon="10.91081"><ele>675.0</ele><time>2026-04-25T10:45:32.724Z</time></trkpt><trkpt lat="43.1780467" lon="10.9107783"><ele>675.0</ele><time>2026-04-25T10:45:33.722Z</time></trkpt><trkpt lat="43.1777983" lon="10.91072"><ele>675.0</ele><time>2026-04-25T10:45:34.725Z</time></trkpt><trkpt lat="43.1775417" lon="10.910645"><ele>675.0</ele><time>2026-04-25T10:45:35.725Z</time></trkpt><trkpt lat="43.1772783" lon="10.91059"><ele>672.5</ele><time>2026-04-25T10:45:36.725Z</time></trkpt><trkpt lat="43.17702" lon="10.910535"><ele>670.0</ele><time>2026-04-25T10:45:37.726Z</time></trkpt><trkpt lat="43.176775" lon="10.91048"><ele>670.0</ele><time>2026-04-25T10:45:38.724Z</time></trkpt><trkpt lat="43.1765367" lon="10.9104267"><ele>670.0</ele><time>2026-04-25T10:45:39.723Z</time></trkpt><trkpt lat="43.1762983" lon="10.9103783"><ele>666.5</ele><time>2026-04-25T10:45:40.724Z</time></trkpt><trkpt lat="43.176065" lon="10.910315"><ele>663.0</ele><time>2026-04-25T10:45:41.724Z</time></trkpt><trkpt lat="43.17584" lon="10.9102217"><ele>665.5</ele><time>2026-04-25T10:45:42.728Z</time></trkpt><trkpt lat="43.1756233" lon="10.91011"><ele>668.0</ele><time>2026-04-25T10:45:43.728Z</time></trkpt><trkpt lat="43.17542" lon="10.9099683"><ele>668.0</ele><time>2026-04-25T10:45:44.726Z</time></trkpt><trkpt lat="43.17523" lon="10.9097967"><ele>668.0</ele><time>2026-04-25T10:45:45.725Z</time></trkpt><trkpt lat="43.1750567" lon="10.9096067"><ele>668.0</ele><time>2026-04-25T10:45:46.724Z</time></trkpt><trkpt lat="43.1749083" lon="10.90938"><ele>667.6666666666666</ele><time>2026-04-25T10:45:47.725Z</time></trkpt><trkpt lat="43.1747917" lon="10.9091283"><ele>667.3333333333334</ele><time>2026-04-25T10:45:48.725Z</time></trkpt><trkpt lat="43.1746983" lon="10.9088733"><ele>667.0</ele><time>2026-04-25T10:45:49.724Z</time></trkpt><trkpt lat="43.1746317" lon="10.9086083"><ele>667.0</ele><time>2026-04-25T10:45:50.726Z</time></trkpt><trkpt lat="43.1745967" lon="10.9083433"><ele>667.0</ele><time>2026-04-25T10:45:51.726Z</time></trkpt><trkpt lat="43.1745883" lon="10.9080817"><ele>667.0</ele><time>2026-04-25T10:45:52.724Z</time></trkpt><trkpt lat="43.1746133" lon="10.90783"><ele>667.0</ele><time>2026-04-25T10:45:53.725Z</time></trkpt><trkpt lat="43.1746467" lon="10.9075817"><ele>667.0</ele><time>2026-04-25T10:45:54.725Z</time></trkpt><trkpt lat="43.1746483" lon="10.9073167"><ele>667.0</ele><time>2026-04-25T10:45:55.724Z</time></trkpt><trkpt lat="43.1746117" lon="10.907045"><ele>667.5</ele><time>2026-04-25T10:45:56.724Z</time></trkpt><trkpt lat="43.1745467" lon="10.9067583"><ele>668.0</ele><time>2026-04-25T10:45:57.724Z</time></trkpt><trkpt lat="43.1744683" lon="10.90646"><ele>668.0</ele><time>2026-04-25T10:45:58.725Z</time></trkpt><trkpt lat="43.1743767" lon="10.90617"><ele>668.0</ele><time>2026-04-25T10:45:59.724Z</time></trkpt><trkpt lat="43.174275" lon="10.9058933"><ele>668.0</ele><time>2026-04-25T10:46:00.724Z</time></trkpt><trkpt lat="43.1741533" lon="10.9056283"><ele>668.0</ele><time>2026-04-25T10:46:01.724Z</time></trkpt><trkpt lat="43.174005" lon="10.9053867"><ele>662.5</ele><time>2026-04-25T10:46:02.725Z</time></trkpt><trkpt lat="43.1738383" lon="10.9051583"><ele>657.0</ele><time>2026-04-25T10:46:03.726Z</time></trkpt><trkpt lat="43.17367" lon="10.9049317"><ele>657.0</ele><time>2026-04-25T10:46:04.724Z</time></trkpt><trkpt lat="43.1735033" lon="10.90471"><ele>657.0</ele><time>2026-04-25T10:46:05.725Z</time></trkpt><trkpt lat="43.1733433" lon="10.9044917"><ele>654.3333333333334</ele><time>2026-04-25T10:46:06.725Z</time></trkpt><trkpt lat="43.17318" lon="10.9042867"><ele>651.6666666666667</ele><time>2026-04-25T10:46:07.725Z</time></trkpt><trkpt lat="43.173025" lon="10.904085"><ele>649.0</ele><time>2026-04-25T10:46:08.723Z</time></trkpt><trkpt lat="43.17289" lon="10.90386"><ele>649.0</ele><time>2026-04-25T10:46:09.725Z</time></trkpt><trkpt lat="43.1727667" lon="10.90363"><ele>649.0</ele><time>2026-04-25T10:46:10.725Z</time></trkpt><trkpt lat="43.1726617" lon="10.9033733"><ele>649.0</ele><time>2026-04-25T10:46:11.725Z</time></trkpt><trkpt lat="43.1725767" lon="10.9030917"><ele>647.0</ele><time>2026-04-25T10:46:12.724Z</time></trkpt><trkpt lat="43.17251" lon="10.9027917"><ele>645.0</ele><time>2026-04-25T10:46:13.724Z</time></trkpt><trkpt lat="43.1724533" lon="10.9024767"><ele>642.0</ele><time>2026-04-25T10:46:14.725Z</time></trkpt><trkpt lat="43.1724" lon="10.9021517"><ele>639.0</ele><time>2026-04-25T10:46:15.724Z</time></trkpt><trkpt lat="43.1723467" lon="10.9018267"><ele>626.5</ele><time>2026-04-25T10:46:16.724Z</time></trkpt><trkpt lat="43.1722933" lon="10.9015133"><ele>614.0</ele><time>2026-04-25T10:46:17.724Z</time></trkpt><trkpt lat="43.1722433" lon="10.9012067"><ele>616.0</ele><time>2026-04-25T10:46:18.724Z</time></trkpt><trkpt lat="43.172205" lon="10.90091"><ele>618.0</ele><time>2026-04-25T10:46:19.723Z</time></trkpt><trkpt lat="43.1721883" lon="10.9006317"><ele>620.0</ele><time>2026-04-25T10:46:20.726Z</time></trkpt><trkpt lat="43.17219" lon="10.90038"><ele>620.0</ele><time>2026-04-25T10:46:21.724Z</time></trkpt><trkpt lat="43.172215" lon="10.9001467"><ele>620.0</ele><time>2026-04-25T10:46:22.724Z</time></trkpt><trkpt lat="43.17227" lon="10.899925"><ele>620.0</ele><time>2026-04-25T10:46:23.723Z</time></trkpt><trkpt lat="43.172345" lon="10.8997367"><ele>619.3333333333333</ele><time>2026-04-25T10:46:24.727Z</time></trkpt><trkpt lat="43.172445" lon="10.8995533"><ele>618.6666666666666</ele><time>2026-04-25T10:46:25.724Z</time></trkpt><trkpt lat="43.1725483" lon="10.8993833"><ele>618.0</ele><time>2026-04-25T10:46:26.725Z</time></trkpt><trkpt lat="43.172635" lon="10.8992183"><ele>618.0</ele><time>2026-04-25T10:46:27.725Z</time></trkpt><trkpt lat="43.1726883" lon="10.899055"><ele>618.0</ele><time>2026-04-25T10:46:28.726Z</time></trkpt><trkpt lat="43.172695" lon="10.8988733"><ele>618.0</ele><time>2026-04-25T10:46:29.726Z</time></trkpt><trkpt lat="43.17267" lon="10.8986833"><ele>618.0</ele><time>2026-04-25T10:46:30.725Z</time></trkpt><trkpt lat="43.172645" lon="10.8984817"><ele>616.0</ele><time>2026-04-25T10:46:31.726Z</time></trkpt><trkpt lat="43.1726533" lon="10.8982717"><ele>614.0</ele><time>2026-04-25T10:46:32.726Z</time></trkpt><trkpt lat="43.1726983" lon="10.898045"><ele>612.0</ele><time>2026-04-25T10:46:33.724Z</time></trkpt><trkpt lat="43.17276" lon="10.8977983"><ele>609.3333333333334</ele><time>2026-04-25T10:46:34.726Z</time></trkpt><trkpt lat="43.1728283" lon="10.8975333"><ele>606.6666666666667</ele><time>2026-04-25T10:46:35.726Z</time></trkpt><trkpt lat="43.172895" lon="10.8972633"><ele>604.0</ele><time>2026-04-25T10:46:36.724Z</time></trkpt><trkpt lat="43.1729683" lon="10.8969933"><ele>600.6666666666667</ele><time>2026-04-25T10:46:37.726Z</time></trkpt><trkpt lat="43.1730367" lon="10.8967317"><ele>597.3333333333334</ele><time>2026-04-25T10:46:38.725Z</time></trkpt><trkpt lat="43.1730983" lon="10.8964767"><ele>594.0</ele><time>2026-04-25T10:46:39.725Z</time></trkpt><trkpt lat="43.1731333" lon="10.89622"><ele>594.0</ele><time>2026-04-25T10:46:40.726Z</time></trkpt><trkpt lat="43.17314" lon="10.8959517"><ele>594.0</ele><time>2026-04-25T10:46:41.726Z</time></trkpt><trkpt lat="43.17312" lon="10.8956717"><ele>594.0</ele><time>2026-04-25T10:46:42.725Z</time></trkpt><trkpt lat="43.1730617" lon="10.8953983"><ele>593.0</ele><time>2026-04-25T10:46:43.726Z</time></trkpt><trkpt lat="43.1729733" lon="10.8951333"><ele>592.0</ele><time>2026-04-25T10:46:44.726Z</time></trkpt><trkpt lat="43.17286" lon="10.8948817"><ele>591.0</ele><time>2026-04-25T10:46:45.724Z</time></trkpt><trkpt lat="43.17273" lon="10.8946317"><ele>590.5</ele><time>2026-04-25T10:46:46.723Z</time></trkpt><trkpt lat="43.172595" lon="10.8943833"><ele>590.0</ele><time>2026-04-25T10:46:47.725Z</time></trkpt><trkpt lat="43.1724567" lon="10.89414"><ele>583.5</ele><time>2026-04-25T10:46:48.725Z</time></trkpt><trkpt lat="43.17232" lon="10.8938883"><ele>577.0</ele><time>2026-04-25T10:46:49.724Z</time></trkpt><trkpt lat="43.17218" lon="10.8936267"><ele>579.0</ele><time>2026-04-25T10:46:50.725Z</time></trkpt><trkpt lat="43.1720417" lon="10.8933667"><ele>581.0</ele><time>2026-04-25T10:46:51.725Z</time></trkpt><trkpt lat="43.17191" lon="10.8931033"><ele>581.0</ele><time>2026-04-25T10:46:52.725Z</time></trkpt><trkpt lat="43.171775" lon="10.892835"><ele>581.0</ele><time>2026-04-25T10:46:53.727Z</time></trkpt><trkpt lat="43.1716433" lon="10.8925567"><ele>574.5</ele><time>2026-04-25T10:46:54.726Z</time></trkpt><trkpt lat="43.1715083" lon="10.892285"><ele>568.0</ele><time>2026-04-25T10:46:55.726Z</time></trkpt><trkpt lat="43.1713717" lon="10.8920133"><ele>570.5</ele><time>2026-04-25T10:46:56.724Z</time></trkpt><trkpt lat="43.1712333" lon="10.891745"><ele>573.0</ele><time>2026-04-25T10:46:57.726Z</time></trkpt><trkpt lat="43.171095" lon="10.89148"><ele>573.0</ele><time>2026-04-25T10:46:58.725Z</time></trkpt><trkpt lat="43.17095" lon="10.8912267"><ele>573.0</ele><time>2026-04-25T10:46:59.727Z</time></trkpt><trkpt lat="43.1707983" lon="10.8909933"><ele>568.0</ele><time>2026-04-25T10:47:00.725Z</time></trkpt><trkpt lat="43.1706317" lon="10.890775"><ele>563.0</ele><time>2026-04-25T10:47:01.726Z</time></trkpt><trkpt lat="43.170445" lon="10.8905633"><ele>563.0</ele><time>2026-04-25T10:47:02.727Z</time></trkpt><trkpt lat="43.1702483" lon="10.8903633"><ele>563.0</ele><time>2026-04-25T10:47:03.725Z</time></trkpt><trkpt lat="43.1700433" lon="10.8901817"><ele>560.5</ele><time>2026-04-25T10:47:04.725Z</time></trkpt><trkpt lat="43.1698433" lon="10.8899883"><ele>558.0</ele><time>2026-04-25T10:47:05.725Z</time></trkpt><trkpt lat="43.1696367" lon="10.8898067"><ele>558.0</ele><time>2026-04-25T10:47:06.725Z</time></trkpt><trkpt lat="43.16944" lon="10.8896217"><ele>558.0</ele><time>2026-04-25T10:47:07.725Z</time></trkpt><trkpt lat="43.1692483" lon="10.8894467"><ele>558.0</ele><time>2026-04-25T10:47:08.725Z</time></trkpt><trkpt lat="43.1690583" lon="10.88927"><ele>558.0</ele><time>2026-04-25T10:47:09.723Z</time></trkpt><trkpt lat="43.16887" lon="10.8890917"><ele>554.5</ele><time>2026-04-25T10:47:10.728Z</time></trkpt><trkpt lat="43.1686783" lon="10.888915"><ele>551.0</ele><time>2026-04-25T10:47:11.724Z</time></trkpt><trkpt lat="43.1684833" lon="10.8887567"><ele>551.0</ele><time>2026-04-25T10:47:12.727Z</time></trkpt><trkpt lat="43.1682883" lon="10.8885933"><ele>551.0</ele><time>2026-04-25T10:47:13.725Z</time></trkpt><trkpt lat="43.1680967" lon="10.8884283"><ele>548.5</ele><time>2026-04-25T10:47:14.726Z</time></trkpt><trkpt lat="43.167905" lon="10.8882467"><ele>546.0</ele><time>2026-04-25T10:47:15.725Z</time></trkpt><trkpt lat="43.167715" lon="10.8880733"><ele>546.0</ele><time>2026-04-25T10:47:16.725Z</time></trkpt><trkpt lat="43.167525" lon="10.8878967"><ele>546.0</ele><time>2026-04-25T10:47:17.724Z</time></trkpt><trkpt lat="43.1673317" lon="10.8877133"><ele>542.5</ele><time>2026-04-25T10:47:18.726Z</time></trkpt><trkpt lat="43.1671383" lon="10.8875233"><ele>539.0</ele><time>2026-04-25T10:47:19.726Z</time></trkpt><trkpt lat="43.166945" lon="10.8873433"><ele>539.0</ele><time>2026-04-25T10:47:20.725Z</time></trkpt><trkpt lat="43.1667533" lon="10.8871617"><ele>539.0</ele><time>2026-04-25T10:47:21.727Z</time></trkpt><trkpt lat="43.1665667" lon="10.8869683"><ele>535.0</ele><time>2026-04-25T10:47:22.726Z</time></trkpt><trkpt lat="43.1663867" lon="10.88676"><ele>531.0</ele><time>2026-04-25T10:47:23.725Z</time></trkpt><trkpt lat="43.1662183" lon="10.8865417"><ele>531.0</ele><time>2026-04-25T10:47:24.725Z</time></trkpt><trkpt lat="43.16606" lon="10.8863167"><ele>531.0</ele><time>2026-04-25T10:47:25.725Z</time></trkpt><trkpt lat="43.1659083" lon="10.88608"><ele>533.0</ele><time>2026-04-25T10:47:26.727Z</time></trkpt><trkpt lat="43.1657633" lon="10.8858367"><ele>535.0</ele><time>2026-04-25T10:47:27.722Z</time></trkpt><trkpt lat="43.16562" lon="10.8855917"><ele>537.0</ele><time>2026-04-25T10:47:28.724Z</time></trkpt><trkpt lat="43.1654767" lon="10.88535"><ele>539.0</ele><time>2026-04-25T10:47:29.723Z</time></trkpt><trkpt lat="43.165335" lon="10.8851117"><ele>539.6666666666666</ele><time>2026-04-25T10:47:30.725Z</time></trkpt><trkpt lat="43.1651933" lon="10.8848717"><ele>540.3333333333334</ele><time>2026-04-25T10:47:31.723Z</time></trkpt><trkpt lat="43.1650533" lon="10.8846333"><ele>541.0</ele><time>2026-04-25T10:47:32.727Z</time></trkpt><trkpt lat="43.1649117" lon="10.8843933"><ele>541.0</ele><time>2026-04-25T10:47:33.725Z</time></trkpt><trkpt lat="43.1647683" lon="10.8841533"><ele>541.0</ele><time>2026-04-25T10:47:34.725Z</time></trkpt><trkpt lat="43.1646283" lon="10.883915"><ele>541.0</ele><time>2026-04-25T10:47:35.726Z</time></trkpt><trkpt lat="43.164495" lon="10.8836667"><ele>541.5</ele><time>2026-04-25T10:47:36.726Z</time></trkpt><trkpt lat="43.1643683" lon="10.88341"><ele>542.0</ele><time>2026-04-25T10:47:37.722Z</time></trkpt><trkpt lat="43.164245" lon="10.883135"><ele>542.0</ele><time>2026-04-25T10:47:38.725Z</time></trkpt><trkpt lat="43.1641233" lon="10.8828483"><ele>542.0</ele><time>2026-04-25T10:47:39.724Z</time></trkpt><trkpt lat="43.1640033" lon="10.88255"><ele>541.5</ele><time>2026-04-25T10:47:40.724Z</time></trkpt><trkpt lat="43.1638833" lon="10.8822533"><ele>541.0</ele><time>2026-04-25T10:47:41.723Z</time></trkpt><trkpt lat="43.16376" lon="10.8819517"><ele>545.0</ele><time>2026-04-25T10:47:42.724Z</time></trkpt><trkpt lat="43.16364" lon="10.8816517"><ele>549.0</ele><time>2026-04-25T10:47:43.726Z</time></trkpt><trkpt lat="43.163515" lon="10.8813483"><ele>549.0</ele><time>2026-04-25T10:47:44.726Z</time></trkpt><trkpt lat="43.163385" lon="10.88105"><ele>549.0</ele><time>2026-04-25T10:47:45.725Z</time></trkpt><trkpt lat="43.163245" lon="10.88076"><ele>547.0</ele><time>2026-04-25T10:47:46.724Z</time></trkpt><trkpt lat="43.163095" lon="10.8804833"><ele>545.0</ele><time>2026-04-25T10:47:47.727Z</time></trkpt><trkpt lat="43.1629283" lon="10.8802117"><ele>548.0</ele><time>2026-04-25T10:47:48.725Z</time></trkpt><trkpt lat="43.162745" lon="10.879955"><ele>551.0</ele><time>2026-04-25T10:47:49.727Z</time></trkpt><trkpt lat="43.162555" lon="10.8797033"><ele>551.5</ele><time>2026-04-25T10:47:50.726Z</time></trkpt><trkpt lat="43.1623517" lon="10.8794833"><ele>552.0</ele><time>2026-04-25T10:47:51.724Z</time></trkpt><trkpt lat="43.1621517" lon="10.879265"><ele>557.5</ele><time>2026-04-25T10:47:52.726Z</time></trkpt><trkpt lat="43.161945" lon="10.8790733"><ele>563.0</ele><time>2026-04-25T10:47:53.726Z</time></trkpt><trkpt lat="43.161735" lon="10.8789067"><ele>567.0</ele><time>2026-04-25T10:47:54.726Z</time></trkpt><trkpt lat="43.1615167" lon="10.8787833"><ele>571.0</ele><time>2026-04-25T10:47:55.724Z</time></trkpt><trkpt lat="43.1612967" lon="10.8786917"><ele>571.0</ele><time>2026-04-25T10:47:56.726Z</time></trkpt><trkpt lat="43.16107" lon="10.8786383"><ele>571.0</ele><time>2026-04-25T10:47:57.724Z</time></trkpt><trkpt lat="43.160835" lon="10.8785933"><ele>571.0</ele><time>2026-04-25T10:47:58.726Z</time></trkpt><trkpt lat="43.1605933" lon="10.8785633"><ele>571.0</ele><time>2026-04-25T10:47:59.725Z</time></trkpt><trkpt lat="43.1603483" lon="10.87854"><ele>571.0</ele><time>2026-04-25T10:48:00.725Z</time></trkpt><trkpt lat="43.1601" lon="10.8785283"><ele>571.0</ele><time>2026-04-25T10:48:01.725Z</time></trkpt><trkpt lat="43.1598517" lon="10.8785117"><ele>574.0</ele><time>2026-04-25T10:48:02.725Z</time></trkpt><trkpt lat="43.1596" lon="10.8784883"><ele>577.0</ele><time>2026-04-25T10:48:03.725Z</time></trkpt><trkpt lat="43.1593433" lon="10.8784667"><ele>577.0</ele><time>2026-04-25T10:48:04.725Z</time></trkpt><trkpt lat="43.1590883" lon="10.8784433"><ele>577.0</ele><time>2026-04-25T10:48:05.724Z</time></trkpt><trkpt lat="43.1588383" lon="10.8784267"><ele>584.5</ele><time>2026-04-25T10:48:06.725Z</time></trkpt><trkpt lat="43.1585967" lon="10.87842"><ele>592.0</ele><time>2026-04-25T10:48:07.723Z</time></trkpt><trkpt lat="43.1583617" lon="10.8784283"><ele>593.0</ele><time>2026-04-25T10:48:08.725Z</time></trkpt><trkpt lat="43.1581317" lon="10.8784633"><ele>594.0</ele><time>2026-04-25T10:48:09.724Z</time></trkpt><trkpt lat="43.157915" lon="10.878545"><ele>594.0</ele><time>2026-04-25T10:48:10.725Z</time></trkpt><trkpt lat="43.157705" lon="10.8786583"><ele>594.0</ele><time>2026-04-25T10:48:11.723Z</time></trkpt><trkpt lat="43.15751" lon="10.878805"><ele>594.0</ele><time>2026-04-25T10:48:12.726Z</time></trkpt><trkpt lat="43.1573283" lon="10.8789667"><ele>593.6666666666666</ele><time>2026-04-25T10:48:13.726Z</time></trkpt><trkpt lat="43.1571717" lon="10.8791267"><ele>593.3333333333333</ele><time>2026-04-25T10:48:14.726Z</time></trkpt><trkpt lat="43.1570367" lon="10.8792767"><ele>593.0</ele><time>2026-04-25T10:48:15.725Z</time></trkpt><trkpt lat="43.15692" lon="10.8794"><ele>593.0</ele><time>2026-04-25T10:48:16.726Z</time></trkpt><trkpt lat="43.1568067" lon="10.8794867"><ele>593.0</ele><time>2026-04-25T10:48:17.725Z</time></trkpt><trkpt lat="43.156675" lon="10.8795217"><ele>593.0</ele><time>2026-04-25T10:48:18.725Z</time></trkpt><trkpt lat="43.1565733" lon="10.8795083"><ele>593.0</ele><time>2026-04-25T10:48:19.725Z</time></trkpt><trkpt lat="43.1564867" lon="10.87944"><ele>596.6</ele><time>2026-04-25T10:48:20.725Z</time></trkpt><trkpt lat="43.1564267" lon="10.879345"><ele>600.1999999999999</ele><time>2026-04-25T10:48:21.726Z</time></trkpt><trkpt lat="43.156385" lon="10.87925"><ele>603.8</ele><time>2026-04-25T10:48:22.725Z</time></trkpt><trkpt lat="43.156315" lon="10.87921"><ele>607.4</ele><time>2026-04-25T10:48:23.726Z</time></trkpt><trkpt lat="43.1561983" lon="10.8792033"><ele>611.0</ele><time>2026-04-25T10:48:25.727Z</time></trkpt><trkpt lat="43.1561517" lon="10.879535"><ele>611.0</ele><time>2026-04-25T10:48:27.727Z</time></trkpt><trkpt lat="43.156145" lon="10.8797383"><ele>611.0</ele><time>2026-04-25T10:48:28.725Z</time></trkpt><trkpt lat="43.1561417" lon="10.8799233"><ele>611.0</ele><time>2026-04-25T10:48:29.726Z</time></trkpt><trkpt lat="43.1561267" lon="10.88008"><ele>611.0</ele><time>2026-04-25T10:48:30.726Z</time></trkpt><trkpt lat="43.1560933" lon="10.8802167"><ele>612.4</ele><time>2026-04-25T10:48:31.727Z</time></trkpt><trkpt lat="43.1560633" lon="10.88032"><ele>613.8</ele><time>2026-04-25T10:48:32.725Z</time></trkpt><trkpt lat="43.1559717" lon="10.8803933"><ele>615.1999999999999</ele><time>2026-04-25T10:48:33.725Z</time></trkpt><trkpt lat="43.1558917" lon="10.8804783"><ele>616.6</ele><time>2026-04-25T10:48:34.725Z</time></trkpt><trkpt lat="43.1557883" lon="10.8806017"><ele>618.0</ele><time>2026-04-25T10:48:35.725Z</time></trkpt><trkpt lat="43.1556067" lon="10.8808333"><ele>614.0</ele><time>2026-04-25T10:48:36.725Z</time></trkpt><trkpt lat="43.155465" lon="10.8810433"><ele>610.0</ele><time>2026-04-25T10:48:37.723Z</time></trkpt><trkpt lat="43.155315" lon="10.88126"><ele>606.0</ele><time>2026-04-25T10:48:38.725Z</time></trkpt><trkpt lat="43.1551" lon="10.8814867"><ele>606.0</ele><time>2026-04-25T10:48:39.725Z</time></trkpt><trkpt lat="43.154915" lon="10.8816933"><ele>606.0</ele><time>2026-04-25T10:48:40.725Z</time></trkpt><trkpt lat="43.1547883" lon="10.8818833"><ele>606.0</ele><time>2026-04-25T10:48:41.725Z</time></trkpt><trkpt lat="43.1546567" lon="10.8820333"><ele>607.0</ele><time>2026-04-25T10:48:42.722Z</time></trkpt><trkpt lat="43.1545217" lon="10.8821483"><ele>608.0</ele><time>2026-04-25T10:48:43.725Z</time></trkpt><trkpt lat="43.154405" lon="10.8821883"><ele>609.0</ele><time>2026-04-25T10:48:44.725Z</time></trkpt><trkpt lat="43.15428" lon="10.8821617"><ele>610.0</ele><time>2026-04-25T10:48:45.725Z</time></trkpt><trkpt lat="43.154175" lon="10.882145"><ele>610.0</ele><time>2026-04-25T10:48:46.725Z</time></trkpt><trkpt lat="43.1540867" lon="10.8821533"><ele>610.0</ele><time>2026-04-25T10:48:47.725Z</time></trkpt><trkpt lat="43.1540067" lon="10.8822"><ele>610.0</ele><time>2026-04-25T10:48:48.724Z</time></trkpt><trkpt lat="43.15392" lon="10.8822783"><ele>610.0</ele><time>2026-04-25T10:48:49.724Z</time></trkpt><trkpt lat="43.153855" lon="10.8823667"><ele>610.0</ele><time>2026-04-25T10:48:50.725Z</time></trkpt><trkpt lat="43.1538183" lon="10.8824883"><ele>612.25</ele><time>2026-04-25T10:48:51.724Z</time></trkpt><trkpt lat="43.1538067" lon="10.8826617"><ele>614.5</ele><time>2026-04-25T10:48:52.723Z</time></trkpt><trkpt lat="43.1538183" lon="10.8828583"><ele>616.75</ele><time>2026-04-25T10:48:53.725Z</time></trkpt><trkpt lat="43.153825" lon="10.88308"><ele>619.0</ele><time>2026-04-25T10:48:54.726Z</time></trkpt><trkpt lat="43.1538367" lon="10.8833333"><ele>616.0</ele><time>2026-04-25T10:48:55.726Z</time></trkpt><trkpt lat="43.1537783" lon="10.8836217"><ele>613.0</ele><time>2026-04-25T10:48:56.724Z</time></trkpt><trkpt lat="43.153715" lon="10.88389"><ele>610.0</ele><time>2026-04-25T10:48:57.724Z</time></trkpt><trkpt lat="43.1536817" lon="10.884125"><ele>608.25</ele><time>2026-04-25T10:48:58.724Z</time></trkpt><trkpt lat="43.15366" lon="10.8843417"><ele>606.5</ele><time>2026-04-25T10:48:59.726Z</time></trkpt><trkpt lat="43.1536283" lon="10.8845067"><ele>604.75</ele><time>2026-04-25T10:49:00.726Z</time></trkpt><trkpt lat="43.15358" lon="10.8846367"><ele>603.0</ele><time>2026-04-25T10:49:01.726Z</time></trkpt><trkpt lat="43.1535233" lon="10.88475"><ele>603.0</ele><time>2026-04-25T10:49:02.725Z</time></trkpt><trkpt lat="43.1534467" lon="10.88478"><ele>603.0</ele><time>2026-04-25T10:49:03.723Z</time></trkpt><trkpt lat="43.15336" lon="10.884775"><ele>603.0</ele><time>2026-04-25T10:49:04.726Z</time></trkpt><trkpt lat="43.153255" lon="10.8847267"><ele>603.0</ele><time>2026-04-25T10:49:05.724Z</time></trkpt><trkpt lat="43.1531533" lon="10.884555"><ele>603.0</ele><time>2026-04-25T10:49:06.725Z</time></trkpt><trkpt lat="43.1530367" lon="10.884415"><ele>601.6666666666666</ele><time>2026-04-25T10:49:07.726Z</time></trkpt><trkpt lat="43.1529033" lon="10.8842983"><ele>600.3333333333333</ele><time>2026-04-25T10:49:08.725Z</time></trkpt><trkpt lat="43.1527467" lon="10.8842333"><ele>599.0</ele><time>2026-04-25T10:49:09.725Z</time></trkpt><trkpt lat="43.1525717" lon="10.8842133"><ele>600.0</ele><time>2026-04-25T10:49:10.723Z</time></trkpt><trkpt lat="43.1523917" lon="10.88425"><ele>601.0</ele><time>2026-04-25T10:49:11.724Z</time></trkpt><trkpt lat="43.1522133" lon="10.884305"><ele>602.0</ele><time>2026-04-25T10:49:12.724Z</time></trkpt><trkpt lat="43.1520383" lon="10.884335"><ele>602.0</ele><time>2026-04-25T10:49:13.726Z</time></trkpt><trkpt lat="43.1518817" lon="10.8843417"><ele>602.0</ele><time>2026-04-25T10:49:14.726Z</time></trkpt><trkpt lat="43.1517333" lon="10.8843517"><ele>602.0</ele><time>2026-04-25T10:49:15.726Z</time></trkpt><trkpt lat="43.1516017" lon="10.88438"><ele>602.0</ele><time>2026-04-25T10:49:16.725Z</time></trkpt><trkpt lat="43.15148" lon="10.88443"><ele>605.25</ele><time>2026-04-25T10:49:17.726Z</time></trkpt><trkpt lat="43.1513833" lon="10.8845117"><ele>608.5</ele><time>2026-04-25T10:49:18.725Z</time></trkpt><trkpt lat="43.151295" lon="10.88464"><ele>611.75</ele><time>2026-04-25T10:49:19.726Z</time></trkpt><trkpt lat="43.1512817" lon="10.8848733"><ele>615.0</ele><time>2026-04-25T10:49:20.725Z</time></trkpt><trkpt lat="43.1512067" lon="10.8850317"><ele>612.2</ele><time>2026-04-25T10:49:21.725Z</time></trkpt><trkpt lat="43.1511267" lon="10.8851533"><ele>609.4</ele><time>2026-04-25T10:49:22.725Z</time></trkpt><trkpt lat="43.1510517" lon="10.8852467"><ele>606.6</ele><time>2026-04-25T10:49:23.727Z</time></trkpt><trkpt lat="43.15095" lon="10.88529"><ele>603.8</ele><time>2026-04-25T10:49:24.726Z</time></trkpt><trkpt lat="43.15084" lon="10.8852983"><ele>601.0</ele><time>2026-04-25T10:49:25.727Z</time></trkpt><trkpt lat="43.1507267" lon="10.8852917"><ele>602.6</ele><time>2026-04-25T10:49:26.725Z</time></trkpt><trkpt lat="43.1506183" lon="10.8852817"><ele>604.2</ele><time>2026-04-25T10:49:27.726Z</time></trkpt><trkpt lat="43.1505083" lon="10.885275"><ele>605.8</ele><time>2026-04-25T10:49:28.725Z</time></trkpt><trkpt lat="43.1504" lon="10.88528"><ele>607.4</ele><time>2026-04-25T10:49:29.727Z</time></trkpt><trkpt lat="43.1503017" lon="10.8852767"><ele>609.0</ele><time>2026-04-25T10:49:30.725Z</time></trkpt><trkpt lat="43.1502083" lon="10.8852767"><ele>609.0</ele><time>2026-04-25T10:49:31.726Z</time></trkpt><trkpt lat="43.1501167" lon="10.8852867"><ele>609.0</ele><time>2026-04-25T10:49:32.727Z</time></trkpt><trkpt lat="43.1500333" lon="10.885305"><ele>609.0</ele><time>2026-04-25T10:49:33.726Z</time></trkpt><trkpt lat="43.1499433" lon="10.8853233"><ele>609.0</ele><time>2026-04-25T10:49:34.727Z</time></trkpt><trkpt lat="43.149855" lon="10.8853467"><ele>609.0</ele><time>2026-04-25T10:49:35.724Z</time></trkpt><trkpt lat="43.1497717" lon="10.8853783"><ele>609.0</ele><time>2026-04-25T10:49:36.725Z</time></trkpt><trkpt lat="43.1496917" lon="10.8854267"><ele>610.4</ele><time>2026-04-25T10:49:37.725Z</time></trkpt><trkpt lat="43.14962" lon="10.8855067"><ele>611.8</ele><time>2026-04-25T10:49:38.727Z</time></trkpt><trkpt lat="43.1495667" lon="10.885625"><ele>613.2</ele><time>2026-04-25T10:49:39.726Z</time></trkpt><trkpt lat="43.149545" lon="10.88575"><ele>614.6</ele><time>2026-04-25T10:49:40.726Z</time></trkpt><trkpt lat="43.1495283" lon="10.88589"><ele>616.0</ele><time>2026-04-25T10:49:41.727Z</time></trkpt><trkpt lat="43.1495717" lon="10.8860533"><ele>616.0</ele><time>2026-04-25T10:49:42.723Z</time></trkpt><trkpt lat="43.1495933" lon="10.886245"><ele>616.0</ele><time>2026-04-25T10:49:43.725Z</time></trkpt><trkpt lat="43.149565" lon="10.8864"><ele>616.0</ele><time>2026-04-25T10:49:44.726Z</time></trkpt><trkpt lat="43.1495183" lon="10.88654"><ele>616.0</ele><time>2026-04-25T10:49:45.727Z</time></trkpt><trkpt lat="43.14947" lon="10.8866783"><ele>614.0</ele><time>2026-04-25T10:49:46.725Z</time></trkpt><trkpt lat="43.149405" lon="10.88679"><ele>612.0</ele><time>2026-04-25T10:49:47.724Z</time></trkpt><trkpt lat="43.149315" lon="10.8868683"><ele>610.0</ele><time>2026-04-25T10:49:48.726Z</time></trkpt><trkpt lat="43.1492133" lon="10.8869083"><ele>608.0</ele><time>2026-04-25T10:49:49.724Z</time></trkpt><trkpt lat="43.14911" lon="10.8869117"><ele>606.0</ele><time>2026-04-25T10:49:50.724Z</time></trkpt><trkpt lat="43.148985" lon="10.8868883"><ele>606.0</ele><time>2026-04-25T10:49:51.726Z</time></trkpt><trkpt lat="43.14887" lon="10.8868367"><ele>606.0</ele><time>2026-04-25T10:49:52.726Z</time></trkpt><trkpt lat="43.14873" lon="10.8867583"><ele>606.0</ele><time>2026-04-25T10:49:53.725Z</time></trkpt><trkpt lat="43.1485617" lon="10.886625"><ele>606.0</ele><time>2026-04-25T10:49:54.726Z</time></trkpt><trkpt lat="43.1483883" lon="10.886475"><ele>606.0</ele><time>2026-04-25T10:49:55.725Z</time></trkpt><trkpt lat="43.1482167" lon="10.8863167"><ele>606.0</ele><time>2026-04-25T10:49:56.726Z</time></trkpt><trkpt lat="43.148045" lon="10.8861867"><ele>605.6666666666666</ele><time>2026-04-25T10:49:57.725Z</time></trkpt><trkpt lat="43.1478667" lon="10.8860967"><ele>605.3333333333333</ele><time>2026-04-25T10:49:58.726Z</time></trkpt><trkpt lat="43.1476817" lon="10.8860517"><ele>605.0</ele><time>2026-04-25T10:49:59.724Z</time></trkpt><trkpt lat="43.1474867" lon="10.8860567"><ele>611.5</ele><time>2026-04-25T10:50:00.724Z</time></trkpt><trkpt lat="43.14726" lon="10.8860583"><ele>618.0</ele><time>2026-04-25T10:50:01.725Z</time></trkpt><trkpt lat="43.1470333" lon="10.88602"><ele>618.0</ele><time>2026-04-25T10:50:02.726Z</time></trkpt><trkpt lat="43.1468033" lon="10.885955"><ele>618.0</ele><time>2026-04-25T10:50:03.725Z</time></trkpt><trkpt lat="43.1465883" lon="10.88589"><ele>619.0</ele><time>2026-04-25T10:50:04.725Z</time></trkpt><trkpt lat="43.146395" lon="10.885825"><ele>620.0</ele><time>2026-04-25T10:50:05.725Z</time></trkpt><trkpt lat="43.1462333" lon="10.8857683"><ele>621.0</ele><time>2026-04-25T10:50:06.727Z</time></trkpt><trkpt lat="43.146095" lon="10.8857233"><ele>621.0</ele><time>2026-04-25T10:50:07.726Z</time></trkpt><trkpt lat="43.1459867" lon="10.88572"><ele>621.0</ele><time>2026-04-25T10:50:08.726Z</time></trkpt><trkpt lat="43.1458983" lon="10.8857567"><ele>621.0</ele><time>2026-04-25T10:50:09.724Z</time></trkpt><trkpt lat="43.1458483" lon="10.8858433"><ele>621.0</ele><time>2026-04-25T10:50:10.724Z</time></trkpt><trkpt lat="43.14589" lon="10.8860333"><ele>621.0</ele><time>2026-04-25T10:50:11.725Z</time></trkpt><trkpt lat="43.1459417" lon="10.8862383"><ele>621.6666666666666</ele><time>2026-04-25T10:50:12.725Z</time></trkpt><trkpt lat="43.1459767" lon="10.886445"><ele>622.3333333333333</ele><time>2026-04-25T10:50:13.724Z</time></trkpt><trkpt lat="43.1459867" lon="10.8866533"><ele>623.0</ele><time>2026-04-25T10:50:14.726Z</time></trkpt><trkpt lat="43.1459667" lon="10.886865"><ele>623.3333333333333</ele><time>2026-04-25T10:50:15.724Z</time></trkpt><trkpt lat="43.1459083" lon="10.887065"><ele>623.6666666666666</ele><time>2026-04-25T10:50:16.726Z</time></trkpt><trkpt lat="43.1458" lon="10.8872483"><ele>624.0</ele><time>2026-04-25T10:50:17.726Z</time></trkpt><trkpt lat="43.14567" lon="10.8874333"><ele>623.0</ele><time>2026-04-25T10:50:18.726Z</time></trkpt><trkpt lat="43.1455283" lon="10.88762"><ele>622.0</ele><time>2026-04-25T10:50:19.726Z</time></trkpt><trkpt lat="43.1453983" lon="10.8878033"><ele>621.0</ele><time>2026-04-25T10:50:20.726Z</time></trkpt><trkpt lat="43.145285" lon="10.8879783"><ele>621.0</ele><time>2026-04-25T10:50:21.724Z</time></trkpt><trkpt lat="43.1451983" lon="10.888175"><ele>621.0</ele><time>2026-04-25T10:50:22.726Z</time></trkpt><trkpt lat="43.1451583" lon="10.888405"><ele>621.0</ele><time>2026-04-25T10:50:23.725Z</time></trkpt><trkpt lat="43.145155" lon="10.8886717"><ele>620.6666666666666</ele><time>2026-04-25T10:50:24.728Z</time></trkpt><trkpt lat="43.145165" lon="10.888965"><ele>620.3333333333333</ele><time>2026-04-25T10:50:25.726Z</time></trkpt><trkpt lat="43.14518" lon="10.88927"><ele>620.0</ele><time>2026-04-25T10:50:26.726Z</time></trkpt><trkpt lat="43.145195" lon="10.88959"><ele>620.0</ele><time>2026-04-25T10:50:27.724Z</time></trkpt><trkpt lat="43.1452117" lon="10.889915"><ele>620.0</ele><time>2026-04-25T10:50:28.725Z</time></trkpt><trkpt lat="43.1452317" lon="10.8902367"><ele>618.0</ele><time>2026-04-25T10:50:29.725Z</time></trkpt><trkpt lat="43.1452533" lon="10.89054"><ele>616.0</ele><time>2026-04-25T10:50:30.725Z</time></trkpt><trkpt lat="43.1452717" lon="10.8908317"><ele>614.0</ele><time>2026-04-25T10:50:31.727Z</time></trkpt><trkpt lat="43.1452783" lon="10.8911167"><ele>613.3333333333333</ele><time>2026-04-25T10:50:32.726Z</time></trkpt><trkpt lat="43.145255" lon="10.891405"><ele>612.6666666666666</ele><time>2026-04-25T10:50:33.725Z</time></trkpt><trkpt lat="43.1452183" lon="10.89169"><ele>612.0</ele><time>2026-04-25T10:50:34.726Z</time></trkpt><trkpt lat="43.14517" lon="10.89198"><ele>612.0</ele><time>2026-04-25T10:50:35.726Z</time></trkpt><trkpt lat="43.1451217" lon="10.8922733"><ele>612.0</ele><time>2026-04-25T10:50:36.725Z</time></trkpt><trkpt lat="43.14507" lon="10.8925567"><ele>612.0</ele><time>2026-04-25T10:50:37.725Z</time></trkpt><trkpt lat="43.1450133" lon="10.892815"><ele>613.3333333333334</ele><time>2026-04-25T10:50:38.725Z</time></trkpt><trkpt lat="43.1449467" lon="10.8930333"><ele>614.6666666666667</ele><time>2026-04-25T10:50:39.726Z</time></trkpt><trkpt lat="43.1448717" lon="10.8932267"><ele>616.0</ele><time>2026-04-25T10:50:40.725Z</time></trkpt><trkpt lat="43.1447683" lon="10.89339"><ele>613.0</ele><time>2026-04-25T10:50:41.725Z</time></trkpt><trkpt lat="43.1446283" lon="10.8934917"><ele>610.0</ele><time>2026-04-25T10:50:42.726Z</time></trkpt><trkpt lat="43.144475" lon="10.89354"><ele>607.0</ele><time>2026-04-25T10:50:43.726Z</time></trkpt><trkpt lat="43.1443333" lon="10.89358"><ele>607.0</ele><time>2026-04-25T10:50:44.727Z</time></trkpt><trkpt lat="43.144205" lon="10.8936467"><ele>607.0</ele><time>2026-04-25T10:50:45.725Z</time></trkpt><trkpt lat="43.1440983" lon="10.893745"><ele>607.0</ele><time>2026-04-25T10:50:46.725Z</time></trkpt><trkpt lat="43.1440217" lon="10.8938667"><ele>607.0</ele><time>2026-04-25T10:50:47.725Z</time></trkpt><trkpt lat="43.1439833" lon="10.89401"><ele>605.0</ele><time>2026-04-25T10:50:48.727Z</time></trkpt><trkpt lat="43.1439833" lon="10.894165"><ele>603.0</ele><time>2026-04-25T10:50:49.725Z</time></trkpt><trkpt lat="43.144035" lon="10.8943183"><ele>601.0</ele><time>2026-04-25T10:50:50.725Z</time></trkpt><trkpt lat="43.1440983" lon="10.89445"><ele>599.0</ele><time>2026-04-25T10:50:51.724Z</time></trkpt><trkpt lat="43.1442017" lon="10.8945467"><ele>599.0</ele><time>2026-04-25T10:50:52.724Z</time></trkpt><trkpt lat="43.1443083" lon="10.89463"><ele>599.0</ele><time>2026-04-25T10:50:53.726Z</time></trkpt><trkpt lat="43.14439" lon="10.8947133"><ele>599.0</ele><time>2026-04-25T10:50:54.726Z</time></trkpt><trkpt lat="43.1444433" lon="10.8948183"><ele>599.0</ele><time>2026-04-25T10:50:55.726Z</time></trkpt><trkpt lat="43.1444783" lon="10.8949217"><ele>599.0</ele><time>2026-04-25T10:50:56.726Z</time></trkpt><trkpt lat="43.14449" lon="10.8950267"><ele>598.0</ele><time>2026-04-25T10:50:57.726Z</time></trkpt><trkpt lat="43.1444783" lon="10.8951417"><ele>597.0</ele><time>2026-04-25T10:50:58.726Z</time></trkpt><trkpt lat="43.1444417" lon="10.8952567"><ele>596.0</ele><time>2026-04-25T10:50:59.726Z</time></trkpt><trkpt lat="43.1443967" lon="10.8953667"><ele>595.0</ele><time>2026-04-25T10:51:00.727Z</time></trkpt><trkpt lat="43.1443733" lon="10.8954783"><ele>594.0</ele><time>2026-04-25T10:51:01.726Z</time></trkpt><trkpt lat="43.1443733" lon="10.89559"><ele>593.0</ele><time>2026-04-25T10:51:02.725Z</time></trkpt><trkpt lat="43.144395" lon="10.895695"><ele>593.0</ele><time>2026-04-25T10:51:03.726Z</time></trkpt><trkpt lat="43.1444267" lon="10.8957967"><ele>593.0</ele><time>2026-04-25T10:51:04.727Z</time></trkpt><trkpt lat="43.144485" lon="10.8958983"><ele>593.0</ele><time>2026-04-25T10:51:05.728Z</time></trkpt><trkpt lat="43.1445717" lon="10.896005"><ele>593.0</ele><time>2026-04-25T10:51:06.727Z</time></trkpt><trkpt lat="43.1446433" lon="10.896115"><ele>593.0</ele><time>2026-04-25T10:51:07.728Z</time></trkpt><trkpt lat="43.1446967" lon="10.896235"><ele>591.1999999999999</ele><time>2026-04-25T10:51:08.726Z</time></trkpt><trkpt lat="43.1447233" lon="10.89637"><ele>589.4</ele><time>2026-04-25T10:51:09.726Z</time></trkpt><trkpt lat="43.1447283" lon="10.8965083"><ele>587.5999999999999</ele><time>2026-04-25T10:51:10.727Z</time></trkpt><trkpt lat="43.1447267" lon="10.8966617"><ele>585.8</ele><time>2026-04-25T10:51:11.725Z</time></trkpt><trkpt lat="43.1447317" lon="10.89682"><ele>584.0</ele><time>2026-04-25T10:51:12.728Z</time></trkpt><trkpt lat="43.1447433" lon="10.896965"><ele>583.2</ele><time>2026-04-25T10:51:13.725Z</time></trkpt><trkpt lat="43.1447783" lon="10.8971067"><ele>582.4</ele><time>2026-04-25T10:51:14.725Z</time></trkpt><trkpt lat="43.1448333" lon="10.8972467"><ele>581.6</ele><time>2026-04-25T10:51:15.724Z</time></trkpt><trkpt lat="43.144895" lon="10.8973783"><ele>580.8</ele><time>2026-04-25T10:51:16.727Z</time></trkpt><trkpt lat="43.144965" lon="10.8974933"><ele>580.0</ele><time>2026-04-25T10:51:17.725Z</time></trkpt><trkpt lat="43.1450383" lon="10.89761"><ele>582.5</ele><time>2026-04-25T10:51:18.726Z</time></trkpt><trkpt lat="43.1450967" lon="10.897745"><ele>585.0</ele><time>2026-04-25T10:51:19.728Z</time></trkpt><trkpt lat="43.1451417" lon="10.89789"><ele>587.5</ele><time>2026-04-25T10:51:20.727Z</time></trkpt><trkpt lat="43.1451717" lon="10.8980367"><ele>590.0</ele><time>2026-04-25T10:51:21.727Z</time></trkpt><trkpt lat="43.1451667" lon="10.89819"><ele>590.0</ele><time>2026-04-25T10:51:22.725Z</time></trkpt><trkpt lat="43.1451267" lon="10.89836"><ele>590.0</ele><time>2026-04-25T10:51:23.727Z</time></trkpt><trkpt lat="43.145065" lon="10.8985317"><ele>590.0</ele><time>2026-04-25T10:51:24.727Z</time></trkpt><trkpt lat="43.1449983" lon="10.8986883"><ele>590.0</ele><time>2026-04-25T10:51:25.724Z</time></trkpt><trkpt lat="43.1449167" lon="10.8988217"><ele>588.0</ele><time>2026-04-25T10:51:26.727Z</time></trkpt><trkpt lat="43.144825" lon="10.8989217"><ele>586.0</ele><time>2026-04-25T10:51:27.726Z</time></trkpt><trkpt lat="43.1447167" lon="10.8990133"><ele>584.0</ele><time>2026-04-25T10:51:28.724Z</time></trkpt><trkpt lat="43.1446067" lon="10.8991083"><ele>582.0</ele><time>2026-04-25T10:51:29.725Z</time></trkpt><trkpt lat="43.14451" lon="10.8992283"><ele>585.0</ele><time>2026-04-25T10:51:30.727Z</time></trkpt><trkpt lat="43.1444183" lon="10.8994033"><ele>588.0</ele><time>2026-04-25T10:51:31.727Z</time></trkpt><trkpt lat="43.1443317" lon="10.8996367"><ele>591.0</ele><time>2026-04-25T10:51:32.726Z</time></trkpt><trkpt lat="43.1442333" lon="10.899885"><ele>594.0</ele><time>2026-04-25T10:51:33.724Z</time></trkpt><trkpt lat="43.144115" lon="10.9001617"><ele>597.0</ele><time>2026-04-25T10:51:34.727Z</time></trkpt><trkpt lat="43.1440083" lon="10.9004233"><ele>591.3333333333334</ele><time>2026-04-25T10:51:35.726Z</time></trkpt><trkpt lat="43.143905" lon="10.9006967"><ele>585.6666666666667</ele><time>2026-04-25T10:51:36.726Z</time></trkpt><trkpt lat="43.1438183" lon="10.9009783"><ele>580.0</ele><time>2026-04-25T10:51:37.725Z</time></trkpt><trkpt lat="43.1437483" lon="10.90125"><ele>580.0</ele><time>2026-04-25T10:51:38.726Z</time></trkpt><trkpt lat="43.1436833" lon="10.9015167"><ele>580.0</ele><time>2026-04-25T10:51:39.725Z</time></trkpt><trkpt lat="43.1436017" lon="10.901745"><ele>580.0</ele><time>2026-04-25T10:51:40.725Z</time></trkpt><trkpt lat="43.1435" lon="10.9019417"><ele>579.6666666666667</ele><time>2026-04-25T10:51:41.726Z</time></trkpt><trkpt lat="43.1433833" lon="10.902105"><ele>579.3333333333334</ele><time>2026-04-25T10:51:42.727Z</time></trkpt><trkpt lat="43.1432417" lon="10.90223"><ele>579.0</ele><time>2026-04-25T10:51:43.727Z</time></trkpt><trkpt lat="43.143075" lon="10.9023233"><ele>579.0</ele><time>2026-04-25T10:51:44.727Z</time></trkpt><trkpt lat="43.1428967" lon="10.9024"><ele>579.0</ele><time>2026-04-25T10:51:45.726Z</time></trkpt><trkpt lat="43.1427067" lon="10.9024633"><ele>579.0</ele><time>2026-04-25T10:51:46.725Z</time></trkpt><trkpt lat="43.1425067" lon="10.9024967"><ele>576.3333333333334</ele><time>2026-04-25T10:51:47.724Z</time></trkpt><trkpt lat="43.14232" lon="10.9024917"><ele>573.6666666666667</ele><time>2026-04-25T10:51:48.725Z</time></trkpt><trkpt lat="43.1421467" lon="10.9024583"><ele>571.0</ele><time>2026-04-25T10:51:49.726Z</time></trkpt><trkpt lat="43.1419867" lon="10.902435"><ele>571.0</ele><time>2026-04-25T10:51:50.726Z</time></trkpt><trkpt lat="43.1418633" lon="10.902445"><ele>571.0</ele><time>2026-04-25T10:51:51.726Z</time></trkpt><trkpt lat="43.14176" lon="10.9025367"><ele>571.0</ele><time>2026-04-25T10:51:52.725Z</time></trkpt><trkpt lat="43.141665" lon="10.9026933"><ele>571.0</ele><time>2026-04-25T10:51:53.726Z</time></trkpt><trkpt lat="43.141595" lon="10.9028917"><ele>566.0</ele><time>2026-04-25T10:51:54.725Z</time></trkpt><trkpt lat="43.1415167" lon="10.90311"><ele>561.0</ele><time>2026-04-25T10:51:55.726Z</time></trkpt><trkpt lat="43.1414483" lon="10.9033133"><ele>556.0</ele><time>2026-04-25T10:51:56.723Z</time></trkpt><trkpt lat="43.1414133" lon="10.9035033"><ele>556.0</ele><time>2026-04-25T10:51:57.726Z</time></trkpt><trkpt lat="43.141425" lon="10.9036967"><ele>556.0</ele><time>2026-04-25T10:51:58.725Z</time></trkpt><trkpt lat="43.1414867" lon="10.9038817"><ele>556.0</ele><time>2026-04-25T10:51:59.725Z</time></trkpt><trkpt lat="43.141545" lon="10.9040717"><ele>556.0</ele><time>2026-04-25T10:52:00.723Z</time></trkpt><trkpt lat="43.1415783" lon="10.90425"><ele>557.25</ele><time>2026-04-25T10:52:01.724Z</time></trkpt><trkpt lat="43.1415617" lon="10.90442"><ele>558.5</ele><time>2026-04-25T10:52:02.726Z</time></trkpt><trkpt lat="43.1414883" lon="10.9045783"><ele>559.75</ele><time>2026-04-25T10:52:03.726Z</time></trkpt><trkpt lat="43.1413617" lon="10.904725"><ele>561.0</ele><time>2026-04-25T10:52:04.725Z</time></trkpt><trkpt lat="43.141205" lon="10.9048833"><ele>561.0</ele><time>2026-04-25T10:52:05.724Z</time></trkpt><trkpt lat="43.1410267" lon="10.9050583"><ele>561.0</ele><time>2026-04-25T10:52:06.725Z</time></trkpt><trkpt lat="43.14084" lon="10.9052417"><ele>561.0</ele><time>2026-04-25T10:52:07.726Z</time></trkpt><trkpt lat="43.1406467" lon="10.9054283"><ele>562.3333333333334</ele><time>2026-04-25T10:52:08.723Z</time></trkpt><trkpt lat="43.1404633" lon="10.9055983"><ele>563.6666666666667</ele><time>2026-04-25T10:52:09.723Z</time></trkpt><trkpt lat="43.1402867" lon="10.9057283"><ele>565.0</ele><time>2026-04-25T10:52:10.721Z</time></trkpt><trkpt lat="43.1401017" lon="10.9058017"><ele>565.0</ele><time>2026-04-25T10:52:11.723Z</time></trkpt><trkpt lat="43.1399017" lon="10.905815"><ele>565.0</ele><time>2026-04-25T10:52:12.722Z</time></trkpt><trkpt lat="43.1396783" lon="10.9057917"><ele>565.0</ele><time>2026-04-25T10:52:13.722Z</time></trkpt><trkpt lat="43.1394467" lon="10.90576"><ele>569.5</ele><time>2026-04-25T10:52:14.722Z</time></trkpt><trkpt lat="43.1392117" lon="10.9057367"><ele>574.0</ele><time>2026-04-25T10:52:15.722Z</time></trkpt><trkpt lat="43.1389717" lon="10.905715"><ele>576.0</ele><time>2026-04-25T10:52:16.724Z</time></trkpt><trkpt lat="43.1387267" lon="10.9056867"><ele>578.0</ele><time>2026-04-25T10:52:17.722Z</time></trkpt><trkpt lat="43.13849" lon="10.9056583"><ele>578.0</ele><time>2026-04-25T10:52:18.722Z</time></trkpt><trkpt lat="43.1382567" lon="10.9056283"><ele>578.0</ele><time>2026-04-25T10:52:19.723Z</time></trkpt><trkpt lat="43.138035" lon="10.905615"><ele>578.5</ele><time>2026-04-25T10:52:20.723Z</time></trkpt><trkpt lat="43.1378117" lon="10.9056167"><ele>579.0</ele><time>2026-04-25T10:52:21.724Z</time></trkpt><trkpt lat="43.137585" lon="10.9056267"><ele>576.3333333333334</ele><time>2026-04-25T10:52:22.723Z</time></trkpt><trkpt lat="43.1373683" lon="10.9056483"><ele>573.6666666666667</ele><time>2026-04-25T10:52:23.726Z</time></trkpt><trkpt lat="43.13715" lon="10.905685"><ele>571.0</ele><time>2026-04-25T10:52:24.726Z</time></trkpt><trkpt lat="43.1369233" lon="10.9057417"><ele>571.0</ele><time>2026-04-25T10:52:25.725Z</time></trkpt><trkpt lat="43.1366983" lon="10.9058583"><ele>571.0</ele><time>2026-04-25T10:52:26.726Z</time></trkpt><trkpt lat="43.136495" lon="10.9059783"><ele>570.0</ele><time>2026-04-25T10:52:27.725Z</time></trkpt><trkpt lat="43.1363033" lon="10.9061033"><ele>569.0</ele><time>2026-04-25T10:52:28.723Z</time></trkpt><trkpt lat="43.1361333" lon="10.906215"><ele>568.0</ele><time>2026-04-25T10:52:29.724Z</time></trkpt><trkpt lat="43.1359733" lon="10.9063067"><ele>568.0</ele><time>2026-04-25T10:52:30.724Z</time></trkpt><trkpt lat="43.1358433" lon="10.9063917"><ele>568.0</ele><time>2026-04-25T10:52:31.723Z</time></trkpt><trkpt lat="43.1357267" lon="10.9064983"><ele>568.0</ele><time>2026-04-25T10:52:32.723Z</time></trkpt><trkpt lat="43.13566" lon="10.906645"><ele>568.0</ele><time>2026-04-25T10:52:33.724Z</time></trkpt><trkpt lat="43.1355867" lon="10.90684"><ele>565.3333333333334</ele><time>2026-04-25T10:52:34.725Z</time></trkpt><trkpt lat="43.13553" lon="10.90707"><ele>562.6666666666666</ele><time>2026-04-25T10:52:35.724Z</time></trkpt><trkpt lat="43.1354967" lon="10.907325"><ele>560.0</ele><time>2026-04-25T10:52:36.724Z</time></trkpt><trkpt lat="43.1354233" lon="10.9075433"><ele>559.0</ele><time>2026-04-25T10:52:37.725Z</time></trkpt><trkpt lat="43.1353117" lon="10.9077217"><ele>558.0</ele><time>2026-04-25T10:52:38.725Z</time></trkpt><trkpt lat="43.13515" lon="10.9078467"><ele>557.0</ele><time>2026-04-25T10:52:39.725Z</time></trkpt><trkpt lat="43.13498" lon="10.907945"><ele>558.0</ele><time>2026-04-25T10:52:40.724Z</time></trkpt><trkpt lat="43.1348083" lon="10.9080217"><ele>559.0</ele><time>2026-04-25T10:52:41.724Z</time></trkpt><trkpt lat="43.1346383" lon="10.9080633"><ele>560.0</ele><time>2026-04-25T10:52:42.724Z</time></trkpt><trkpt lat="43.13446" lon="10.9080733"><ele>560.0</ele><time>2026-04-25T10:52:43.724Z</time></trkpt><trkpt lat="43.1342717" lon="10.90804"><ele>560.0</ele><time>2026-04-25T10:52:44.723Z</time></trkpt><trkpt lat="43.1341" lon="10.9079983"><ele>560.0</ele><time>2026-04-25T10:52:45.724Z</time></trkpt><trkpt lat="43.1339317" lon="10.907945"><ele>558.25</ele><time>2026-04-25T10:52:46.724Z</time></trkpt><trkpt lat="43.1337767" lon="10.9079167"><ele>556.5</ele><time>2026-04-25T10:52:47.724Z</time></trkpt><trkpt lat="43.133625" lon="10.907915"><ele>554.75</ele><time>2026-04-25T10:52:48.723Z</time></trkpt><trkpt lat="43.1335033" lon="10.90797"><ele>553.0</ele><time>2026-04-25T10:52:49.723Z</time></trkpt><trkpt lat="43.1333833" lon="10.9080467"><ele>553.0</ele><time>2026-04-25T10:52:50.725Z</time></trkpt><trkpt lat="43.1332717" lon="10.9081917"><ele>553.0</ele><time>2026-04-25T10:52:51.724Z</time></trkpt><trkpt lat="43.1332117" lon="10.9084167"><ele>553.0</ele><time>2026-04-25T10:52:52.722Z</time></trkpt><trkpt lat="43.133175" lon="10.9086333"><ele>552.0</ele><time>2026-04-25T10:52:53.724Z</time></trkpt><trkpt lat="43.133105" lon="10.9088333"><ele>551.0</ele><time>2026-04-25T10:52:54.723Z</time></trkpt><trkpt lat="43.1329983" lon="10.90901"><ele>550.0</ele><time>2026-04-25T10:52:55.725Z</time></trkpt><trkpt lat="43.1328683" lon="10.9091533"><ele>554.6666666666667</ele><time>2026-04-25T10:52:56.724Z</time></trkpt><trkpt lat="43.132695" lon="10.9092917"><ele>559.3333333333334</ele><time>2026-04-25T10:52:57.725Z</time></trkpt><trkpt lat="43.13252" lon="10.909435"><ele>564.0</ele><time>2026-04-25T10:52:58.725Z</time></trkpt><trkpt lat="43.132345" lon="10.9095817"><ele>564.0</ele><time>2026-04-25T10:52:59.726Z</time></trkpt><trkpt lat="43.132155" lon="10.9097317"><ele>564.0</ele><time>2026-04-25T10:53:00.724Z</time></trkpt><trkpt lat="43.1319683" lon="10.9098867"><ele>564.0</ele><time>2026-04-25T10:53:01.722Z</time></trkpt><trkpt lat="43.1317867" lon="10.91004"><ele>567.3333333333334</ele><time>2026-04-25T10:53:02.726Z</time></trkpt><trkpt lat="43.1316117" lon="10.9101767"><ele>570.6666666666667</ele><time>2026-04-25T10:53:03.725Z</time></trkpt><trkpt lat="43.13145" lon="10.9102917"><ele>574.0</ele><time>2026-04-25T10:53:04.726Z</time></trkpt><trkpt lat="43.1313033" lon="10.910395"><ele>574.0</ele><time>2026-04-25T10:53:05.726Z</time></trkpt><trkpt lat="43.1311517" lon="10.9104717"><ele>574.0</ele><time>2026-04-25T10:53:06.724Z</time></trkpt><trkpt lat="43.1310367" lon="10.91053"><ele>574.0</ele><time>2026-04-25T10:53:07.724Z</time></trkpt><trkpt lat="43.1309317" lon="10.91058"><ele>574.0</ele><time>2026-04-25T10:53:08.724Z</time></trkpt><trkpt lat="43.1308617" lon="10.91064"><ele>574.0</ele><time>2026-04-25T10:53:09.724Z</time></trkpt><trkpt lat="43.13086" lon="10.9107367"><ele>574.0</ele><time>2026-04-25T10:53:10.724Z</time></trkpt><trkpt lat="43.1308617" lon="10.9108317"><ele>574.0</ele><time>2026-04-25T10:53:11.726Z</time></trkpt><trkpt lat="43.1308817" lon="10.9109267"><ele>574.0</ele><time>2026-04-25T10:53:12.726Z</time></trkpt><trkpt lat="43.1309333" lon="10.91101"><ele>574.0</ele><time>2026-04-25T10:53:13.726Z</time></trkpt><trkpt lat="43.1310117" lon="10.9111083"><ele>574.0</ele><time>2026-04-25T10:53:14.726Z</time></trkpt><trkpt lat="43.1310617" lon="10.9112133"><ele>577.3333333333334</ele><time>2026-04-25T10:53:15.725Z</time></trkpt><trkpt lat="43.1311333" lon="10.9113767"><ele>580.6666666666666</ele><time>2026-04-25T10:53:16.725Z</time></trkpt><trkpt lat="43.1312117" lon="10.91158"><ele>584.0</ele><time>2026-04-25T10:53:17.726Z</time></trkpt><trkpt lat="43.1313333" lon="10.911775"><ele>586.0</ele><time>2026-04-25T10:53:18.725Z</time></trkpt><trkpt lat="43.1314417" lon="10.911945"><ele>588.0</ele><time>2026-04-25T10:53:19.726Z</time></trkpt><trkpt lat="43.13156" lon="10.91211"><ele>590.0</ele><time>2026-04-25T10:53:20.723Z</time></trkpt><trkpt lat="43.131655" lon="10.91225"><ele>590.0</ele><time>2026-04-25T10:53:21.723Z</time></trkpt><trkpt lat="43.131745" lon="10.91238"><ele>590.0</ele><time>2026-04-25T10:53:22.722Z</time></trkpt><trkpt lat="43.1318133" lon="10.9125167"><ele>590.0</ele><time>2026-04-25T10:53:23.724Z</time></trkpt><trkpt lat="43.1318167" lon="10.9126283"><ele>590.0</ele><time>2026-04-25T10:53:24.725Z</time></trkpt><trkpt lat="43.1318217" lon="10.91273"><ele>590.0</ele><time>2026-04-25T10:53:25.724Z</time></trkpt><trkpt lat="43.1316367" lon="10.9126983"><ele>595.3333333333333</ele><time>2026-04-25T10:53:26.725Z</time></trkpt><trkpt lat="43.13144" lon="10.9126817"><ele>600.6666666666666</ele><time>2026-04-25T10:53:27.725Z</time></trkpt><trkpt lat="43.1312783" lon="10.9126717"><ele>606.0</ele><time>2026-04-25T10:53:28.726Z</time></trkpt><trkpt lat="43.1311083" lon="10.9126917"><ele>606.0</ele><time>2026-04-25T10:53:29.724Z</time></trkpt><trkpt lat="43.1309817" lon="10.9127283"><ele>606.0</ele><time>2026-04-25T10:53:30.726Z</time></trkpt><trkpt lat="43.1308433" lon="10.9127883"><ele>606.0</ele><time>2026-04-25T10:53:31.724Z</time></trkpt><trkpt lat="43.1307817" lon="10.912925"><ele>606.0</ele><time>2026-04-25T10:53:32.725Z</time></trkpt><trkpt lat="43.130755" lon="10.913105"><ele>606.0</ele><time>2026-04-25T10:53:33.726Z</time></trkpt><trkpt lat="43.1307367" lon="10.9133133"><ele>606.0</ele><time>2026-04-25T10:53:34.722Z</time></trkpt><trkpt lat="43.1307117" lon="10.9135367"><ele>606.0</ele><time>2026-04-25T10:53:35.725Z</time></trkpt><trkpt lat="43.1306783" lon="10.9137483"><ele>615.0</ele><time>2026-04-25T10:53:36.724Z</time></trkpt><trkpt lat="43.1306233" lon="10.9139617"><ele>624.0</ele><time>2026-04-25T10:53:37.724Z</time></trkpt><trkpt lat="43.1305317" lon="10.9141717"><ele>633.0</ele><time>2026-04-25T10:53:38.724Z</time></trkpt><trkpt lat="43.130485" lon="10.9143617"><ele>633.0</ele><time>2026-04-25T10:53:39.724Z</time></trkpt><trkpt lat="43.13047" lon="10.91455"><ele>633.0</ele><time>2026-04-25T10:53:40.726Z</time></trkpt><trkpt lat="43.130475" lon="10.9147383"><ele>633.0</ele><time>2026-04-25T10:53:41.726Z</time></trkpt><trkpt lat="43.1304567" lon="10.914905"><ele>633.0</ele><time>2026-04-25T10:53:42.724Z</time></trkpt><trkpt lat="43.130415" lon="10.9150717"><ele>631.3333333333334</ele><time>2026-04-25T10:53:43.724Z</time></trkpt><trkpt lat="43.1303467" lon="10.9152367"><ele>629.6666666666667</ele><time>2026-04-25T10:53:44.726Z</time></trkpt><trkpt lat="43.130275" lon="10.9154183"><ele>628.0</ele><time>2026-04-25T10:53:45.725Z</time></trkpt><trkpt lat="43.1302117" lon="10.91564"><ele>628.0</ele><time>2026-04-25T10:53:46.723Z</time></trkpt><trkpt lat="43.1301417" lon="10.9158667"><ele>628.0</ele><time>2026-04-25T10:53:47.723Z</time></trkpt><trkpt lat="43.1300417" lon="10.916075"><ele>628.0</ele><time>2026-04-25T10:53:48.723Z</time></trkpt><trkpt lat="43.1299233" lon="10.9162583"><ele>628.6666666666667</ele><time>2026-04-25T10:53:49.725Z</time></trkpt><trkpt lat="43.1298183" lon="10.9164483"><ele>629.3333333333334</ele><time>2026-04-25T10:53:50.724Z</time></trkpt><trkpt lat="43.1297417" lon="10.916675"><ele>630.0</ele><time>2026-04-25T10:53:51.725Z</time></trkpt><trkpt lat="43.1296583" lon="10.9169133"><ele>630.0</ele><time>2026-04-25T10:53:52.724Z</time></trkpt><trkpt lat="43.12957" lon="10.9171283"><ele>630.0</ele><time>2026-04-25T10:53:53.726Z</time></trkpt><trkpt lat="43.129455" lon="10.91731"><ele>630.0</ele><time>2026-04-25T10:53:54.725Z</time></trkpt><trkpt lat="43.12931" lon="10.9174533"><ele>630.0</ele><time>2026-04-25T10:53:55.724Z</time></trkpt><trkpt lat="43.1291367" lon="10.9175517"><ele>630.0</ele><time>2026-04-25T10:53:56.723Z</time></trkpt><trkpt lat="43.12895" lon="10.9176333"><ele>630.0</ele><time>2026-04-25T10:53:57.724Z</time></trkpt><trkpt lat="43.12874" lon="10.9177217"><ele>629.0</ele><time>2026-04-25T10:53:58.724Z</time></trkpt><trkpt lat="43.1284833" lon="10.9178483"><ele>628.0</ele><time>2026-04-25T10:53:59.724Z</time></trkpt><trkpt lat="43.1282333" lon="10.9179967"><ele>630.0</ele><time>2026-04-25T10:54:00.724Z</time></trkpt><trkpt lat="43.12798" lon="10.9181333"><ele>632.0</ele><time>2026-04-25T10:54:01.724Z</time></trkpt><trkpt lat="43.1277367" lon="10.9182617"><ele>632.0</ele><time>2026-04-25T10:54:02.726Z</time></trkpt><trkpt lat="43.12751" lon="10.9183917"><ele>632.0</ele><time>2026-04-25T10:54:03.725Z</time></trkpt><trkpt lat="43.1273067" lon="10.9185017"><ele>634.6666666666666</ele><time>2026-04-25T10:54:04.726Z</time></trkpt><trkpt lat="43.1271267" lon="10.9185933"><ele>637.3333333333334</ele><time>2026-04-25T10:54:05.724Z</time></trkpt><trkpt lat="43.1269817" lon="10.918685"><ele>640.0</ele><time>2026-04-25T10:54:06.724Z</time></trkpt><trkpt lat="43.1268583" lon="10.9187983"><ele>640.0</ele><time>2026-04-25T10:54:07.723Z</time></trkpt><trkpt lat="43.1267783" lon="10.918915"><ele>640.0</ele><time>2026-04-25T10:54:08.724Z</time></trkpt><trkpt lat="43.12672" lon="10.91904"><ele>640.0</ele><time>2026-04-25T10:54:09.724Z</time></trkpt><trkpt lat="43.12673" lon="10.9192067"><ele>640.0</ele><time>2026-04-25T10:54:10.725Z</time></trkpt><trkpt lat="43.1268317" lon="10.9194267"><ele>642.75</ele><time>2026-04-25T10:54:11.724Z</time></trkpt><trkpt lat="43.1268983" lon="10.919585"><ele>645.5</ele><time>2026-04-25T10:54:12.723Z</time></trkpt><trkpt lat="43.1269633" lon="10.919735"><ele>648.25</ele><time>2026-04-25T10:54:13.725Z</time></trkpt><trkpt lat="43.1270167" lon="10.9198567"><ele>651.0</ele><time>2026-04-25T10:54:14.726Z</time></trkpt><trkpt lat="43.1270483" lon="10.91998"><ele>652.75</ele><time>2026-04-25T10:54:15.723Z</time></trkpt><trkpt lat="43.1270567" lon="10.9201183"><ele>654.5</ele><time>2026-04-25T10:54:16.725Z</time></trkpt><trkpt lat="43.12704" lon="10.92028"><ele>656.25</ele><time>2026-04-25T10:54:17.725Z</time></trkpt><trkpt lat="43.127005" lon="10.9204317"><ele>658.0</ele><time>2026-04-25T10:54:18.724Z</time></trkpt><trkpt lat="43.1269483" lon="10.9205667"><ele>658.0</ele><time>2026-04-25T10:54:19.723Z</time></trkpt><trkpt lat="43.1268933" lon="10.9206917"><ele>658.0</ele><time>2026-04-25T10:54:20.725Z</time></trkpt><trkpt lat="43.126845" lon="10.920825"><ele>658.0</ele><time>2026-04-25T10:54:21.724Z</time></trkpt><trkpt lat="43.126815" lon="10.9209667"><ele>658.0</ele><time>2026-04-25T10:54:22.724Z</time></trkpt><trkpt lat="43.1268067" lon="10.92111"><ele>658.0</ele><time>2026-04-25T10:54:23.724Z</time></trkpt><trkpt lat="43.1268183" lon="10.9212483"><ele>658.25</ele><time>2026-04-25T10:54:24.724Z</time></trkpt><trkpt lat="43.12683" lon="10.9213817"><ele>658.5</ele><time>2026-04-25T10:54:25.724Z</time></trkpt><trkpt lat="43.1268283" lon="10.921525"><ele>658.75</ele><time>2026-04-25T10:54:26.724Z</time></trkpt><trkpt lat="43.12681" lon="10.921695"><ele>659.0</ele><time>2026-04-25T10:54:27.724Z</time></trkpt><trkpt lat="43.1267733" lon="10.92188"><ele>658.0</ele><time>2026-04-25T10:54:28.725Z</time></trkpt><trkpt lat="43.1267317" lon="10.92208"><ele>657.0</ele><time>2026-04-25T10:54:29.726Z</time></trkpt><trkpt lat="43.1266817" lon="10.9222983"><ele>656.0</ele><time>2026-04-25T10:54:30.724Z</time></trkpt><trkpt lat="43.126605" lon="10.92254"><ele>653.3333333333333</ele><time>2026-04-25T10:54:31.724Z</time></trkpt><trkpt lat="43.1265267" lon="10.9227867"><ele>650.6666666666666</ele><time>2026-04-25T10:54:32.724Z</time></trkpt><trkpt lat="43.1264467" lon="10.923015"><ele>648.0</ele><time>2026-04-25T10:54:33.724Z</time></trkpt><trkpt lat="43.1263667" lon="10.923225"><ele>644.6666666666666</ele><time>2026-04-25T10:54:34.724Z</time></trkpt><trkpt lat="43.12628" lon="10.923405"><ele>641.3333333333333</ele><time>2026-04-25T10:54:35.724Z</time></trkpt><trkpt lat="43.1261733" lon="10.9235517"><ele>638.0</ele><time>2026-04-25T10:54:36.723Z</time></trkpt><trkpt lat="43.12604" lon="10.9236617"><ele>638.0</ele><time>2026-04-25T10:54:37.724Z</time></trkpt><trkpt lat="43.12588" lon="10.92375"><ele>638.0</ele><time>2026-04-25T10:54:38.724Z</time></trkpt><trkpt lat="43.1257217" lon="10.9238217"><ele>638.0</ele><time>2026-04-25T10:54:39.725Z</time></trkpt><trkpt lat="43.1255933" lon="10.9238667"><ele>637.4</ele><time>2026-04-25T10:54:40.724Z</time></trkpt><trkpt lat="43.12548" lon="10.92389"><ele>636.8</ele><time>2026-04-25T10:54:41.724Z</time></trkpt><trkpt lat="43.1253733" lon="10.923865"><ele>636.2</ele><time>2026-04-25T10:54:42.725Z</time></trkpt><trkpt lat="43.1252867" lon="10.92379"><ele>635.6</ele><time>2026-04-25T10:54:43.724Z</time></trkpt><trkpt lat="43.1252167" lon="10.92369"><ele>635.0</ele><time>2026-04-25T10:54:44.726Z</time></trkpt><trkpt lat="43.125155" lon="10.9235717"><ele>635.0</ele><time>2026-04-25T10:54:45.725Z</time></trkpt><trkpt lat="43.1251083" lon="10.9234067"><ele>635.0</ele><time>2026-04-25T10:54:46.725Z</time></trkpt><trkpt lat="43.12505" lon="10.92324"><ele>635.0</ele><time>2026-04-25T10:54:47.725Z</time></trkpt><trkpt lat="43.1249783" lon="10.92309"><ele>635.0</ele><time>2026-04-25T10:54:48.724Z</time></trkpt><trkpt lat="43.124915" lon="10.9229683"><ele>634.25</ele><time>2026-04-25T10:54:49.725Z</time></trkpt><trkpt lat="43.1247833" lon="10.9229867"><ele>633.5</ele><time>2026-04-25T10:54:50.725Z</time></trkpt><trkpt lat="43.1246617" lon="10.923035"><ele>632.75</ele><time>2026-04-25T10:54:51.725Z</time></trkpt><trkpt lat="43.12452" lon="10.923105"><ele>632.0</ele><time>2026-04-25T10:54:52.724Z</time></trkpt><trkpt lat="43.1243517" lon="10.923205"><ele>632.0</ele><time>2026-04-25T10:54:53.725Z</time></trkpt><trkpt lat="43.12418" lon="10.9233183"><ele>632.0</ele><time>2026-04-25T10:54:54.724Z</time></trkpt><trkpt lat="43.1240033" lon="10.923445"><ele>632.0</ele><time>2026-04-25T10:54:55.725Z</time></trkpt><trkpt lat="43.123825" lon="10.923575"><ele>629.3333333333333</ele><time>2026-04-25T10:54:56.725Z</time></trkpt><trkpt lat="43.1236533" lon="10.9237267"><ele>626.6666666666666</ele><time>2026-04-25T10:54:57.724Z</time></trkpt><trkpt lat="43.1234883" lon="10.923885"><ele>624.0</ele><time>2026-04-25T10:54:58.725Z</time></trkpt><trkpt lat="43.1233433" lon="10.9240483"><ele>622.6666666666666</ele><time>2026-04-25T10:54:59.724Z</time></trkpt><trkpt lat="43.1231967" lon="10.92419"><ele>621.3333333333333</ele><time>2026-04-25T10:55:00.723Z</time></trkpt><trkpt lat="43.12306" lon="10.9243483"><ele>620.0</ele><time>2026-04-25T10:55:01.722Z</time></trkpt><trkpt lat="43.1229467" lon="10.9245317"><ele>620.0</ele><time>2026-04-25T10:55:02.723Z</time></trkpt><trkpt lat="43.1228517" lon="10.9247333"><ele>620.0</ele><time>2026-04-25T10:55:03.724Z</time></trkpt><trkpt lat="43.12275" lon="10.924935"><ele>620.0</ele><time>2026-04-25T10:55:04.722Z</time></trkpt><trkpt lat="43.1226483" lon="10.9251167"><ele>619.6666666666666</ele><time>2026-04-25T10:55:05.725Z</time></trkpt><trkpt lat="43.1225083" lon="10.9252833"><ele>619.3333333333334</ele><time>2026-04-25T10:55:06.724Z</time></trkpt><trkpt lat="43.1223683" lon="10.92544"><ele>619.0</ele><time>2026-04-25T10:55:07.724Z</time></trkpt><trkpt lat="43.1222217" lon="10.92558"><ele>619.0</ele><time>2026-04-25T10:55:08.726Z</time></trkpt><trkpt lat="43.1220717" lon="10.9257217"><ele>619.0</ele><time>2026-04-25T10:55:09.725Z</time></trkpt><trkpt lat="43.1219433" lon="10.9259067"><ele>619.0</ele><time>2026-04-25T10:55:10.724Z</time></trkpt><trkpt lat="43.1218433" lon="10.92614"><ele>617.0</ele><time>2026-04-25T10:55:11.724Z</time></trkpt><trkpt lat="43.121745" lon="10.926385"><ele>615.0</ele><time>2026-04-25T10:55:12.725Z</time></trkpt><trkpt lat="43.1216467" lon="10.9266233"><ele>613.0</ele><time>2026-04-25T10:55:13.726Z</time></trkpt><trkpt lat="43.1215533" lon="10.9268517"><ele>613.0</ele><time>2026-04-25T10:55:14.725Z</time></trkpt><trkpt lat="43.1214767" lon="10.9270767"><ele>613.0</ele><time>2026-04-25T10:55:15.726Z</time></trkpt><trkpt lat="43.12143" lon="10.9273017"><ele>613.0</ele><time>2026-04-25T10:55:16.724Z</time></trkpt><trkpt lat="43.1214083" lon="10.9275333"><ele>609.0</ele><time>2026-04-25T10:55:17.724Z</time></trkpt><trkpt lat="43.121395" lon="10.9277483"><ele>605.0</ele><time>2026-04-25T10:55:18.724Z</time></trkpt><trkpt lat="43.1213567" lon="10.9279317"><ele>601.0</ele><time>2026-04-25T10:55:19.723Z</time></trkpt><trkpt lat="43.1212717" lon="10.9280983"><ele>597.0</ele><time>2026-04-25T10:55:20.724Z</time></trkpt><trkpt lat="43.1211567" lon="10.92823"><ele>597.0</ele><time>2026-04-25T10:55:21.723Z</time></trkpt><trkpt lat="43.121015" lon="10.9283417"><ele>597.0</ele><time>2026-04-25T10:55:22.725Z</time></trkpt><trkpt lat="43.12085" lon="10.92844"><ele>597.0</ele><time>2026-04-25T10:55:23.724Z</time></trkpt><trkpt lat="43.1206767" lon="10.9285317"><ele>595.0</ele><time>2026-04-25T10:55:24.725Z</time></trkpt><trkpt lat="43.12051" lon="10.9286167"><ele>593.0</ele><time>2026-04-25T10:55:25.725Z</time></trkpt><trkpt lat="43.1203633" lon="10.9286983"><ele>591.0</ele><time>2026-04-25T10:55:26.723Z</time></trkpt><trkpt lat="43.1202267" lon="10.9287867"><ele>591.0</ele><time>2026-04-25T10:55:27.725Z</time></trkpt><trkpt lat="43.12012" lon="10.928905"><ele>591.0</ele><time>2026-04-25T10:55:28.723Z</time></trkpt><trkpt lat="43.1200383" lon="10.9290667"><ele>591.0</ele><time>2026-04-25T10:55:29.725Z</time></trkpt><trkpt lat="43.1199783" lon="10.92928"><ele>591.0</ele><time>2026-04-25T10:55:30.723Z</time></trkpt><trkpt lat="43.1199383" lon="10.92951"><ele>587.6666666666666</ele><time>2026-04-25T10:55:31.725Z</time></trkpt><trkpt lat="43.1198817" lon="10.92973"><ele>584.3333333333333</ele><time>2026-04-25T10:55:32.725Z</time></trkpt><trkpt lat="43.1198" lon="10.9299267"><ele>581.0</ele><time>2026-04-25T10:55:33.725Z</time></trkpt><trkpt lat="43.1196983" lon="10.9300967"><ele>579.3333333333333</ele><time>2026-04-25T10:55:34.723Z</time></trkpt><trkpt lat="43.11957" lon="10.9302567"><ele>577.6666666666666</ele><time>2026-04-25T10:55:35.725Z</time></trkpt><trkpt lat="43.1194433" lon="10.93038"><ele>576.0</ele><time>2026-04-25T10:55:36.725Z</time></trkpt><trkpt lat="43.119305" lon="10.9304583"><ele>576.0</ele><time>2026-04-25T10:55:37.725Z</time></trkpt><trkpt lat="43.1191483" lon="10.93049"><ele>576.0</ele><time>2026-04-25T10:55:38.726Z</time></trkpt><trkpt lat="43.1189767" lon="10.9304833"><ele>576.0</ele><time>2026-04-25T10:55:39.726Z</time></trkpt><trkpt lat="43.1187917" lon="10.9304617"><ele>575.3333333333334</ele><time>2026-04-25T10:55:40.724Z</time></trkpt><trkpt lat="43.1186033" lon="10.9304283"><ele>574.6666666666667</ele><time>2026-04-25T10:55:41.724Z</time></trkpt><trkpt lat="43.118425" lon="10.9303767"><ele>574.0</ele><time>2026-04-25T10:55:42.725Z</time></trkpt><trkpt lat="43.1182617" lon="10.9303117"><ele>571.6666666666667</ele><time>2026-04-25T10:55:43.725Z</time></trkpt><trkpt lat="43.11811" lon="10.9302233"><ele>569.3333333333334</ele><time>2026-04-25T10:55:44.725Z</time></trkpt><trkpt lat="43.1179717" lon="10.9301183"><ele>567.0</ele><time>2026-04-25T10:55:45.726Z</time></trkpt><trkpt lat="43.1178417" lon="10.9300083"><ele>567.0</ele><time>2026-04-25T10:55:46.725Z</time></trkpt><trkpt lat="43.1177133" lon="10.9298967"><ele>567.0</ele><time>2026-04-25T10:55:47.724Z</time></trkpt><trkpt lat="43.117555" lon="10.9298067"><ele>567.0</ele><time>2026-04-25T10:55:48.723Z</time></trkpt><trkpt lat="43.117375" lon="10.9297417"><ele>566.0</ele><time>2026-04-25T10:55:49.724Z</time></trkpt><trkpt lat="43.1171783" lon="10.92968"><ele>565.0</ele><time>2026-04-25T10:55:50.725Z</time></trkpt><trkpt lat="43.1169867" lon="10.9296017"><ele>564.0</ele><time>2026-04-25T10:55:51.722Z</time></trkpt><trkpt lat="43.1167917" lon="10.9295433"><ele>564.0</ele><time>2026-04-25T10:55:52.724Z</time></trkpt><trkpt lat="43.1166" lon="10.9295017"><ele>564.0</ele><time>2026-04-25T10:55:53.723Z</time></trkpt><trkpt lat="43.1164017" lon="10.929495"><ele>564.0</ele><time>2026-04-25T10:55:54.725Z</time></trkpt><trkpt lat="43.116205" lon="10.9295033"><ele>560.0</ele><time>2026-04-25T10:55:55.725Z</time></trkpt><trkpt lat="43.1160067" lon="10.929505"><ele>556.0</ele><time>2026-04-25T10:55:56.725Z</time></trkpt><trkpt lat="43.1158" lon="10.9294783"><ele>552.0</ele><time>2026-04-25T10:55:57.726Z</time></trkpt><trkpt lat="43.1155983" lon="10.9294417"><ele>546.0</ele><time>2026-04-25T10:55:58.722Z</time></trkpt><trkpt lat="43.1154133" lon="10.9294067"><ele>540.0</ele><time>2026-04-25T10:55:59.722Z</time></trkpt><trkpt lat="43.11526" lon="10.9293617"><ele>534.0</ele><time>2026-04-25T10:56:00.723Z</time></trkpt><trkpt lat="43.1151033" lon="10.929365"><ele>534.0</ele><time>2026-04-25T10:56:01.726Z</time></trkpt><trkpt lat="43.114955" lon="10.929405"><ele>534.0</ele><time>2026-04-25T10:56:02.725Z</time></trkpt><trkpt lat="43.11483" lon="10.9295067"><ele>534.0</ele><time>2026-04-25T10:56:03.725Z</time></trkpt><trkpt lat="43.11473" lon="10.92966"><ele>534.0</ele><time>2026-04-25T10:56:04.726Z</time></trkpt><trkpt lat="43.1146233" lon="10.9298217"><ele>530.6666666666666</ele><time>2026-04-25T10:56:05.724Z</time></trkpt><trkpt lat="43.1145017" lon="10.929935"><ele>527.3333333333333</ele><time>2026-04-25T10:56:06.726Z</time></trkpt><trkpt lat="43.114355" lon="10.9299933"><ele>524.0</ele><time>2026-04-25T10:56:07.725Z</time></trkpt><trkpt lat="43.1141867" lon="10.92999"><ele>522.0</ele><time>2026-04-25T10:56:08.724Z</time></trkpt><trkpt lat="43.11401" lon="10.92998"><ele>520.0</ele><time>2026-04-25T10:56:09.726Z</time></trkpt><trkpt lat="43.113835" lon="10.9300067"><ele>518.0</ele><time>2026-04-25T10:56:10.725Z</time></trkpt><trkpt lat="43.1136733" lon="10.9300617"><ele>518.0</ele><time>2026-04-25T10:56:11.724Z</time></trkpt><trkpt lat="43.1135217" lon="10.9301133"><ele>518.0</ele><time>2026-04-25T10:56:12.725Z</time></trkpt><trkpt lat="43.1133733" lon="10.9300983"><ele>518.0</ele><time>2026-04-25T10:56:13.723Z</time></trkpt><trkpt lat="43.1132233" lon="10.9300333"><ele>514.3333333333333</ele><time>2026-04-25T10:56:14.727Z</time></trkpt><trkpt lat="43.113055" lon="10.92991"><ele>510.66666666666663</ele><time>2026-04-25T10:56:15.726Z</time></trkpt><trkpt lat="43.1128717" lon="10.92977"><ele>507.0</ele><time>2026-04-25T10:56:16.725Z</time></trkpt><trkpt lat="43.1126867" lon="10.929625"><ele>507.0</ele><time>2026-04-25T10:56:17.727Z</time></trkpt><trkpt lat="43.1125" lon="10.9294683"><ele>507.0</ele><time>2026-04-25T10:56:18.725Z</time></trkpt><trkpt lat="43.1123167" lon="10.9292867"><ele>507.0</ele><time>2026-04-25T10:56:19.726Z</time></trkpt><trkpt lat="43.11213" lon="10.9291183"><ele>504.0</ele><time>2026-04-25T10:56:20.726Z</time></trkpt><trkpt lat="43.1119467" lon="10.9289683"><ele>501.0</ele><time>2026-04-25T10:56:21.725Z</time></trkpt><trkpt lat="43.1117667" lon="10.9288467"><ele>498.0</ele><time>2026-04-25T10:56:22.722Z</time></trkpt><trkpt lat="43.1115867" lon="10.928755"><ele>495.66666666666663</ele><time>2026-04-25T10:56:23.724Z</time></trkpt><trkpt lat="43.1114067" lon="10.9286983"><ele>493.3333333333333</ele><time>2026-04-25T10:56:24.727Z</time></trkpt><trkpt lat="43.111225" lon="10.928685"><ele>491.0</ele><time>2026-04-25T10:56:25.725Z</time></trkpt><trkpt lat="43.1110483" lon="10.9287033"><ele>491.0</ele><time>2026-04-25T10:56:26.726Z</time></trkpt><trkpt lat="43.11088" lon="10.92869"><ele>491.0</ele><time>2026-04-25T10:56:27.723Z</time></trkpt><trkpt lat="43.11071" lon="10.92863"><ele>491.0</ele><time>2026-04-25T10:56:28.724Z</time></trkpt><trkpt lat="43.110535" lon="10.9285367"><ele>490.3333333333333</ele><time>2026-04-25T10:56:29.723Z</time></trkpt><trkpt lat="43.1103533" lon="10.9283967"><ele>489.66666666666663</ele><time>2026-04-25T10:56:30.725Z</time></trkpt><trkpt lat="43.1101633" lon="10.92824"><ele>489.0</ele><time>2026-04-25T10:56:31.726Z</time></trkpt><trkpt lat="43.10998" lon="10.92808"><ele>491.0</ele><time>2026-04-25T10:56:32.727Z</time></trkpt><trkpt lat="43.1098017" lon="10.92793"><ele>493.0</ele><time>2026-04-25T10:56:33.726Z</time></trkpt><trkpt lat="43.109635" lon="10.927785"><ele>495.0</ele><time>2026-04-25T10:56:34.725Z</time></trkpt><trkpt lat="43.1094833" lon="10.9276267"><ele>493.66666666666663</ele><time>2026-04-25T10:56:35.724Z</time></trkpt><trkpt lat="43.1093483" lon="10.9274417"><ele>492.3333333333333</ele><time>2026-04-25T10:56:36.725Z</time></trkpt><trkpt lat="43.109225" lon="10.9272267"><ele>491.0</ele><time>2026-04-25T10:56:37.727Z</time></trkpt><trkpt lat="43.10911" lon="10.9270017"><ele>492.3333333333333</ele><time>2026-04-25T10:56:38.727Z</time></trkpt><trkpt lat="43.1089933" lon="10.9267667"><ele>493.66666666666663</ele><time>2026-04-25T10:56:39.725Z</time></trkpt><trkpt lat="43.1088733" lon="10.9265333"><ele>495.0</ele><time>2026-04-25T10:56:40.725Z</time></trkpt><trkpt lat="43.1087633" lon="10.92631"><ele>495.0</ele><time>2026-04-25T10:56:41.724Z</time></trkpt><trkpt lat="43.1086567" lon="10.9261017"><ele>495.0</ele><time>2026-04-25T10:56:42.728Z</time></trkpt><trkpt lat="43.1085433" lon="10.9259033"><ele>495.0</ele><time>2026-04-25T10:56:43.725Z</time></trkpt><trkpt lat="43.10843" lon="10.9257367"><ele>493.5</ele><time>2026-04-25T10:56:44.727Z</time></trkpt><trkpt lat="43.1083167" lon="10.9256067"><ele>492.0</ele><time>2026-04-25T10:56:45.724Z</time></trkpt><trkpt lat="43.1081817" lon="10.9255333"><ele>490.5</ele><time>2026-04-25T10:56:46.726Z</time></trkpt><trkpt lat="43.108035" lon="10.9255117"><ele>489.0</ele><time>2026-04-25T10:56:47.725Z</time></trkpt><trkpt lat="43.1078933" lon="10.9255117"><ele>489.0</ele><time>2026-04-25T10:56:48.727Z</time></trkpt><trkpt lat="43.1077433" lon="10.9255417"><ele>489.0</ele><time>2026-04-25T10:56:49.726Z</time></trkpt><trkpt lat="43.10759" lon="10.9255517"><ele>489.0</ele><time>2026-04-25T10:56:50.725Z</time></trkpt><trkpt lat="43.1074283" lon="10.9254917"><ele>486.33333333333337</ele><time>2026-04-25T10:56:51.725Z</time></trkpt><trkpt lat="43.1072833" lon="10.9253817"><ele>483.6666666666667</ele><time>2026-04-25T10:56:52.724Z</time></trkpt><trkpt lat="43.1071317" lon="10.925215"><ele>481.0</ele><time>2026-04-25T10:56:53.726Z</time></trkpt><trkpt lat="43.1069767" lon="10.9250617"><ele>481.0</ele><time>2026-04-25T10:56:54.727Z</time></trkpt><trkpt lat="43.1068317" lon="10.9248983"><ele>481.0</ele><time>2026-04-25T10:56:55.725Z</time></trkpt><trkpt lat="43.1066767" lon="10.92475"><ele>481.0</ele><time>2026-04-25T10:56:56.723Z</time></trkpt><trkpt lat="43.1064983" lon="10.9246417"><ele>478.0</ele><time>2026-04-25T10:56:57.726Z</time></trkpt><trkpt lat="43.10632" lon="10.9245433"><ele>475.0</ele><time>2026-04-25T10:56:58.723Z</time></trkpt><trkpt lat="43.1061483" lon="10.924485"><ele>472.0</ele><time>2026-04-25T10:56:59.724Z</time></trkpt><trkpt lat="43.105985" lon="10.9245133"><ele>472.0</ele><time>2026-04-25T10:57:00.722Z</time></trkpt><trkpt lat="43.1058283" lon="10.9245767"><ele>472.0</ele><time>2026-04-25T10:57:01.726Z</time></trkpt><trkpt lat="43.1056767" lon="10.9246467"><ele>472.0</ele><time>2026-04-25T10:57:02.726Z</time></trkpt><trkpt lat="43.1055283" lon="10.92472"><ele>469.6</ele><time>2026-04-25T10:57:03.725Z</time></trkpt><trkpt lat="43.1053917" lon="10.9247667"><ele>467.20000000000005</ele><time>2026-04-25T10:57:04.725Z</time></trkpt><trkpt lat="43.105285" lon="10.92478"><ele>464.8</ele><time>2026-04-25T10:57:05.726Z</time></trkpt><trkpt lat="43.1051917" lon="10.924745"><ele>462.4</ele><time>2026-04-25T10:57:06.725Z</time></trkpt><trkpt lat="43.1051317" lon="10.9246483"><ele>460.0</ele><time>2026-04-25T10:57:07.723Z</time></trkpt><trkpt lat="43.1051033" lon="10.9245233"><ele>460.0</ele><time>2026-04-25T10:57:08.724Z</time></trkpt><trkpt lat="43.1051017" lon="10.9243867"><ele>460.0</ele><time>2026-04-25T10:57:09.726Z</time></trkpt><trkpt lat="43.1050983" lon="10.9242617"><ele>460.0</ele><time>2026-04-25T10:57:10.726Z</time></trkpt><trkpt lat="43.105035" lon="10.9241567"><ele>460.0</ele><time>2026-04-25T10:57:11.724Z</time></trkpt><trkpt lat="43.1049233" lon="10.9240817"><ele>460.0</ele><time>2026-04-25T10:57:12.725Z</time></trkpt><trkpt lat="43.1047817" lon="10.923985"><ele>459.0</ele><time>2026-04-25T10:57:13.726Z</time></trkpt><trkpt lat="43.1046417" lon="10.9238567"><ele>458.0</ele><time>2026-04-25T10:57:14.725Z</time></trkpt><trkpt lat="43.1045133" lon="10.9237367"><ele>457.0</ele><time>2026-04-25T10:57:15.723Z</time></trkpt><trkpt lat="43.1043867" lon="10.923665"><ele>457.0</ele><time>2026-04-25T10:57:16.725Z</time></trkpt><trkpt lat="43.1042683" lon="10.9236667"><ele>457.0</ele><time>2026-04-25T10:57:17.726Z</time></trkpt><trkpt lat="43.1041667" lon="10.923725"><ele>457.0</ele><time>2026-04-25T10:57:18.725Z</time></trkpt><trkpt lat="43.1040683" lon="10.923845"><ele>457.0</ele><time>2026-04-25T10:57:19.724Z</time></trkpt><trkpt lat="43.103985" lon="10.9240233"><ele>457.33333333333337</ele><time>2026-04-25T10:57:20.726Z</time></trkpt><trkpt lat="43.103885" lon="10.9242117"><ele>457.66666666666663</ele><time>2026-04-25T10:57:21.724Z</time></trkpt><trkpt lat="43.1037667" lon="10.92438"><ele>458.0</ele><time>2026-04-25T10:57:22.724Z</time></trkpt><trkpt lat="43.1036417" lon="10.9245217"><ele>456.0</ele><time>2026-04-25T10:57:23.725Z</time></trkpt><trkpt lat="43.1034783" lon="10.92462"><ele>454.0</ele><time>2026-04-25T10:57:24.727Z</time></trkpt><trkpt lat="43.1032933" lon="10.9246883"><ele>452.0</ele><time>2026-04-25T10:57:25.726Z</time></trkpt><trkpt lat="43.103095" lon="10.9247517"><ele>452.0</ele><time>2026-04-25T10:57:26.725Z</time></trkpt><trkpt lat="43.1028867" lon="10.92483"><ele>452.0</ele><time>2026-04-25T10:57:27.724Z</time></trkpt><trkpt lat="43.1026983" lon="10.9249"><ele>452.0</ele><time>2026-04-25T10:57:28.724Z</time></trkpt><trkpt lat="43.102525" lon="10.924955"><ele>452.3333333333333</ele><time>2026-04-25T10:57:29.725Z</time></trkpt><trkpt lat="43.10236" lon="10.9249883"><ele>452.66666666666663</ele><time>2026-04-25T10:57:30.726Z</time></trkpt><trkpt lat="43.1021917" lon="10.92498"><ele>453.0</ele><time>2026-04-25T10:57:31.722Z</time></trkpt><trkpt lat="43.102045" lon="10.924935"><ele>453.0</ele><time>2026-04-25T10:57:32.725Z</time></trkpt><trkpt lat="43.1019267" lon="10.9248783"><ele>453.0</ele><time>2026-04-25T10:57:33.724Z</time></trkpt><trkpt lat="43.1018133" lon="10.9248533"><ele>453.0</ele><time>2026-04-25T10:57:34.725Z</time></trkpt><trkpt lat="43.1017233" lon="10.9248883"><ele>453.0</ele><time>2026-04-25T10:57:35.725Z</time></trkpt><trkpt lat="43.1016217" lon="10.9249967"><ele>453.66666666666663</ele><time>2026-04-25T10:57:36.726Z</time></trkpt><trkpt lat="43.1015283" lon="10.9251767"><ele>454.3333333333333</ele><time>2026-04-25T10:57:37.726Z</time></trkpt><trkpt lat="43.1014083" lon="10.925405"><ele>455.0</ele><time>2026-04-25T10:57:38.728Z</time></trkpt><trkpt lat="43.1012883" lon="10.9256467"><ele>455.0</ele><time>2026-04-25T10:57:39.726Z</time></trkpt><trkpt lat="43.1011767" lon="10.9258817"><ele>455.0</ele><time>2026-04-25T10:57:40.724Z</time></trkpt><trkpt lat="43.1010783" lon="10.92612"><ele>455.0</ele><time>2026-04-25T10:57:41.727Z</time></trkpt><trkpt lat="43.101005" lon="10.9263583"><ele>455.3333333333333</ele><time>2026-04-25T10:57:42.725Z</time></trkpt><trkpt lat="43.10095" lon="10.9265917"><ele>455.66666666666663</ele><time>2026-04-25T10:57:43.725Z</time></trkpt><trkpt lat="43.1009383" lon="10.92682"><ele>456.0</ele><time>2026-04-25T10:57:44.727Z</time></trkpt><trkpt lat="43.1009483" lon="10.927055"><ele>456.0</ele><time>2026-04-25T10:57:45.724Z</time></trkpt><trkpt lat="43.1009633" lon="10.9272933"><ele>456.0</ele><time>2026-04-25T10:57:46.724Z</time></trkpt><trkpt lat="43.10097" lon="10.927515"><ele>456.0</ele><time>2026-04-25T10:57:47.725Z</time></trkpt><trkpt lat="43.10095" lon="10.92774"><ele>455.66666666666663</ele><time>2026-04-25T10:57:48.726Z</time></trkpt><trkpt lat="43.100895" lon="10.92796"><ele>455.3333333333333</ele><time>2026-04-25T10:57:49.725Z</time></trkpt><trkpt lat="43.100805" lon="10.9281733"><ele>455.0</ele><time>2026-04-25T10:57:50.726Z</time></trkpt><trkpt lat="43.1006967" lon="10.9283767"><ele>452.0</ele><time>2026-04-25T10:57:51.723Z</time></trkpt><trkpt lat="43.1005767" lon="10.928545"><ele>449.0</ele><time>2026-04-25T10:57:52.726Z</time></trkpt><trkpt lat="43.1004317" lon="10.9286717"><ele>446.0</ele><time>2026-04-25T10:57:53.725Z</time></trkpt><trkpt lat="43.1002633" lon="10.928765"><ele>446.0</ele><time>2026-04-25T10:57:54.725Z</time></trkpt><trkpt lat="43.1000767" lon="10.9288217"><ele>446.0</ele><time>2026-04-25T10:57:55.726Z</time></trkpt><trkpt lat="43.0998717" lon="10.9288633"><ele>446.0</ele><time>2026-04-25T10:57:56.726Z</time></trkpt><trkpt lat="43.099665" lon="10.928905"><ele>441.3333333333333</ele><time>2026-04-25T10:57:57.726Z</time></trkpt><trkpt lat="43.0994567" lon="10.928955"><ele>436.66666666666663</ele><time>2026-04-25T10:57:58.724Z</time></trkpt><trkpt lat="43.0992533" lon="10.9290067"><ele>432.0</ele><time>2026-04-25T10:57:59.724Z</time></trkpt><trkpt lat="43.0990467" lon="10.929055"><ele>429.33333333333337</ele><time>2026-04-25T10:58:00.727Z</time></trkpt><trkpt lat="43.098835" lon="10.9291017"><ele>426.6666666666667</ele><time>2026-04-25T10:58:01.724Z</time></trkpt><trkpt lat="43.0986133" lon="10.9291467"><ele>424.0</ele><time>2026-04-25T10:58:02.723Z</time></trkpt><trkpt lat="43.0983933" lon="10.929195"><ele>421.6666666666667</ele><time>2026-04-25T10:58:03.724Z</time></trkpt><trkpt lat="43.098175" lon="10.9292467"><ele>419.33333333333337</ele><time>2026-04-25T10:58:04.724Z</time></trkpt><trkpt lat="43.0979567" lon="10.9293"><ele>417.0</ele><time>2026-04-25T10:58:05.722Z</time></trkpt><trkpt lat="43.0977383" lon="10.9293567"><ele>417.0</ele><time>2026-04-25T10:58:06.725Z</time></trkpt><trkpt lat="43.0975167" lon="10.9294133"><ele>417.0</ele><time>2026-04-25T10:58:07.723Z</time></trkpt><trkpt lat="43.0972933" lon="10.9294667"><ele>415.0</ele><time>2026-04-25T10:58:08.723Z</time></trkpt><trkpt lat="43.0970717" lon="10.9295217"><ele>413.0</ele><time>2026-04-25T10:58:09.724Z</time></trkpt><trkpt lat="43.0968433" lon="10.929575"><ele>413.0</ele><time>2026-04-25T10:58:10.722Z</time></trkpt><trkpt lat="43.0966183" lon="10.9296317"><ele>413.0</ele><time>2026-04-25T10:58:11.724Z</time></trkpt><trkpt lat="43.0963917" lon="10.9296867"><ele>413.0</ele><time>2026-04-25T10:58:12.722Z</time></trkpt><trkpt lat="43.0961667" lon="10.9297383"><ele>413.0</ele><time>2026-04-25T10:58:13.726Z</time></trkpt><trkpt lat="43.09595" lon="10.92979"><ele>413.0</ele><time>2026-04-25T10:58:14.725Z</time></trkpt><trkpt lat="43.0957433" lon="10.9298233"><ele>413.3333333333333</ele><time>2026-04-25T10:58:15.729Z</time></trkpt><trkpt lat="43.0955383" lon="10.9298217"><ele>413.66666666666663</ele><time>2026-04-25T10:58:16.722Z</time></trkpt><trkpt lat="43.0953317" lon="10.9297983"><ele>414.0</ele><time>2026-04-25T10:58:17.726Z</time></trkpt><trkpt lat="43.095125" lon="10.9297817"><ele>413.33333333333337</ele><time>2026-04-25T10:58:18.727Z</time></trkpt><trkpt lat="43.09492" lon="10.9298067"><ele>412.6666666666667</ele><time>2026-04-25T10:58:19.726Z</time></trkpt><trkpt lat="43.09472" lon="10.929865"><ele>412.0</ele><time>2026-04-25T10:58:20.725Z</time></trkpt><trkpt lat="43.0945283" lon="10.92992"><ele>412.0</ele><time>2026-04-25T10:58:21.726Z</time></trkpt><trkpt lat="43.094335" lon="10.929955"><ele>412.0</ele><time>2026-04-25T10:58:22.725Z</time></trkpt><trkpt lat="43.0941317" lon="10.92996"><ele>412.0</ele><time>2026-04-25T10:58:23.726Z</time></trkpt><trkpt lat="43.0939133" lon="10.9299267"><ele>410.0</ele><time>2026-04-25T10:58:24.725Z</time></trkpt><trkpt lat="43.0936967" lon="10.9298833"><ele>408.0</ele><time>2026-04-25T10:58:25.726Z</time></trkpt><trkpt lat="43.093465" lon="10.9298567"><ele>406.5</ele><time>2026-04-25T10:58:26.725Z</time></trkpt><trkpt lat="43.0932333" lon="10.9298467"><ele>405.0</ele><time>2026-04-25T10:58:27.725Z</time></trkpt><trkpt lat="43.093" lon="10.9298317"><ele>405.0</ele><time>2026-04-25T10:58:28.723Z</time></trkpt><trkpt lat="43.09277" lon="10.9298033"><ele>405.0</ele><time>2026-04-25T10:58:29.724Z</time></trkpt><trkpt lat="43.09255" lon="10.9297683"><ele>403.33333333333337</ele><time>2026-04-25T10:58:30.726Z</time></trkpt><trkpt lat="43.0923417" lon="10.9297167"><ele>401.6666666666667</ele><time>2026-04-25T10:58:31.725Z</time></trkpt><trkpt lat="43.09214" lon="10.9296717"><ele>400.0</ele><time>2026-04-25T10:58:32.726Z</time></trkpt><trkpt lat="43.09195" lon="10.9296"><ele>400.0</ele><time>2026-04-25T10:58:33.725Z</time></trkpt><trkpt lat="43.09178" lon="10.9295033"><ele>400.0</ele><time>2026-04-25T10:58:34.724Z</time></trkpt><trkpt lat="43.09161" lon="10.9293783"><ele>400.0</ele><time>2026-04-25T10:58:35.725Z</time></trkpt><trkpt lat="43.09145" lon="10.9292433"><ele>399.33333333333337</ele><time>2026-04-25T10:58:36.724Z</time></trkpt><trkpt lat="43.091285" lon="10.929085"><ele>398.66666666666663</ele><time>2026-04-25T10:58:37.726Z</time></trkpt><trkpt lat="43.0911167" lon="10.9289333"><ele>398.0</ele><time>2026-04-25T10:58:38.725Z</time></trkpt><trkpt lat="43.0909467" lon="10.9287583"><ele>398.0</ele><time>2026-04-25T10:58:39.726Z</time></trkpt><trkpt lat="43.0907767" lon="10.9285617"><ele>398.0</ele><time>2026-04-25T10:58:40.725Z</time></trkpt><trkpt lat="43.0906033" lon="10.92835"><ele>396.0</ele><time>2026-04-25T10:58:41.726Z</time></trkpt><trkpt lat="43.0904283" lon="10.9281333"><ele>394.0</ele><time>2026-04-25T10:58:42.725Z</time></trkpt><trkpt lat="43.0902517" lon="10.92791"><ele>394.0</ele><time>2026-04-25T10:58:43.723Z</time></trkpt><trkpt lat="43.0900733" lon="10.9276833"><ele>394.0</ele><time>2026-04-25T10:58:44.726Z</time></trkpt><trkpt lat="43.0898883" lon="10.9274567"><ele>392.5</ele><time>2026-04-25T10:58:45.726Z</time></trkpt><trkpt lat="43.08971" lon="10.92724"><ele>391.0</ele><time>2026-04-25T10:58:46.726Z</time></trkpt><trkpt lat="43.0895333" lon="10.9270417"><ele>391.0</ele><time>2026-04-25T10:58:47.726Z</time></trkpt><trkpt lat="43.0893467" lon="10.9268717"><ele>391.0</ele><time>2026-04-25T10:58:48.725Z</time></trkpt><trkpt lat="43.0891367" lon="10.92674"><ele>389.5</ele><time>2026-04-25T10:58:49.726Z</time></trkpt><trkpt lat="43.0889" lon="10.92666"><ele>388.0</ele><time>2026-04-25T10:58:50.727Z</time></trkpt><trkpt lat="43.0886567" lon="10.92658"><ele>388.0</ele><time>2026-04-25T10:58:51.724Z</time></trkpt><trkpt lat="43.088405" lon="10.92651"><ele>388.0</ele><time>2026-04-25T10:58:52.726Z</time></trkpt><trkpt lat="43.0881533" lon="10.9264317"><ele>386.5</ele><time>2026-04-25T10:58:53.726Z</time></trkpt><trkpt lat="43.087905" lon="10.9263567"><ele>385.0</ele><time>2026-04-25T10:58:54.725Z</time></trkpt><trkpt lat="43.087665" lon="10.9262867"><ele>385.0</ele><time>2026-04-25T10:58:55.726Z</time></trkpt><trkpt lat="43.0874333" lon="10.9262183"><ele>385.0</ele><time>2026-04-25T10:58:56.728Z</time></trkpt><trkpt lat="43.0872167" lon="10.9261567"><ele>384.33333333333337</ele><time>2026-04-25T10:58:57.724Z</time></trkpt><trkpt lat="43.0870117" lon="10.9260883"><ele>383.6666666666667</ele><time>2026-04-25T10:58:58.724Z</time></trkpt><trkpt lat="43.0868217" lon="10.9260167"><ele>383.0</ele><time>2026-04-25T10:58:59.726Z</time></trkpt><trkpt lat="43.0866333" lon="10.925915"><ele>380.6666666666667</ele><time>2026-04-25T10:59:00.726Z</time></trkpt><trkpt lat="43.086445" lon="10.9257983"><ele>378.3333333333333</ele><time>2026-04-25T10:59:01.726Z</time></trkpt><trkpt lat="43.086255" lon="10.9256483"><ele>376.0</ele><time>2026-04-25T10:59:02.725Z</time></trkpt><trkpt lat="43.0860583" lon="10.9254983"><ele>376.0</ele><time>2026-04-25T10:59:03.727Z</time></trkpt><trkpt lat="43.0858567" lon="10.9253433"><ele>376.0</ele><time>2026-04-25T10:59:04.724Z</time></trkpt><trkpt lat="43.08565" lon="10.9251983"><ele>376.0</ele><time>2026-04-25T10:59:05.726Z</time></trkpt><trkpt lat="43.08544" lon="10.9250433"><ele>376.0</ele><time>2026-04-25T10:59:06.726Z</time></trkpt><trkpt lat="43.0852283" lon="10.9248783"><ele>376.0</ele><time>2026-04-25T10:59:07.726Z</time></trkpt><trkpt lat="43.085015" lon="10.9247233"><ele>376.0</ele><time>2026-04-25T10:59:08.726Z</time></trkpt><trkpt lat="43.0848" lon="10.9245667"><ele>374.0</ele><time>2026-04-25T10:59:09.726Z</time></trkpt><trkpt lat="43.0845883" lon="10.9244"><ele>372.0</ele><time>2026-04-25T10:59:10.725Z</time></trkpt><trkpt lat="43.084375" lon="10.924235"><ele>370.5</ele><time>2026-04-25T10:59:11.725Z</time></trkpt><trkpt lat="43.08416" lon="10.9240717"><ele>369.0</ele><time>2026-04-25T10:59:12.723Z</time></trkpt><trkpt lat="43.0839433" lon="10.9239083"><ele>369.0</ele><time>2026-04-25T10:59:13.726Z</time></trkpt><trkpt lat="43.0837267" lon="10.923745"><ele>369.0</ele><time>2026-04-25T10:59:14.726Z</time></trkpt><trkpt lat="43.0835083" lon="10.9235817"><ele>369.0</ele><time>2026-04-25T10:59:15.727Z</time></trkpt><trkpt lat="43.0832933" lon="10.9234267"><ele>369.0</ele><time>2026-04-25T10:59:16.726Z</time></trkpt><trkpt lat="43.0830767" lon="10.9232683"><ele>367.0</ele><time>2026-04-25T10:59:17.725Z</time></trkpt><trkpt lat="43.0828617" lon="10.9231083"><ele>365.0</ele><time>2026-04-25T10:59:18.728Z</time></trkpt><trkpt lat="43.0826467" lon="10.9229567"><ele>365.0</ele><time>2026-04-25T10:59:19.728Z</time></trkpt><trkpt lat="43.0824333" lon="10.9228183"><ele>365.0</ele><time>2026-04-25T10:59:20.726Z</time></trkpt><trkpt lat="43.082215" lon="10.9226667"><ele>363.0</ele><time>2026-04-25T10:59:21.726Z</time></trkpt><trkpt lat="43.0819933" lon="10.9225033"><ele>361.0</ele><time>2026-04-25T10:59:22.724Z</time></trkpt><trkpt lat="43.08177" lon="10.9223417"><ele>360.0</ele><time>2026-04-25T10:59:23.725Z</time></trkpt><trkpt lat="43.0815417" lon="10.9221783"><ele>359.0</ele><time>2026-04-25T10:59:24.726Z</time></trkpt><trkpt lat="43.0813167" lon="10.9220067"><ele>359.0</ele><time>2026-04-25T10:59:25.724Z</time></trkpt><trkpt lat="43.0810917" lon="10.921825"><ele>359.0</ele><time>2026-04-25T10:59:26.725Z</time></trkpt><trkpt lat="43.0808667" lon="10.9216467"><ele>357.5</ele><time>2026-04-25T10:59:27.724Z</time></trkpt><trkpt lat="43.08064" lon="10.9214733"><ele>356.0</ele><time>2026-04-25T10:59:28.727Z</time></trkpt><trkpt lat="43.0804133" lon="10.921305"><ele>356.0</ele><time>2026-04-25T10:59:29.726Z</time></trkpt><trkpt lat="43.0801867" lon="10.9211367"><ele>356.0</ele><time>2026-04-25T10:59:30.728Z</time></trkpt><trkpt lat="43.0799617" lon="10.9209767"><ele>353.5</ele><time>2026-04-25T10:59:31.726Z</time></trkpt><trkpt lat="43.0797367" lon="10.9208117"><ele>351.0</ele><time>2026-04-25T10:59:32.726Z</time></trkpt><trkpt lat="43.0795117" lon="10.9206517"><ele>351.0</ele><time>2026-04-25T10:59:33.726Z</time></trkpt><trkpt lat="43.0792867" lon="10.92049"><ele>351.0</ele><time>2026-04-25T10:59:34.725Z</time></trkpt><trkpt lat="43.0790633" lon="10.9203267"><ele>351.5</ele><time>2026-04-25T10:59:35.725Z</time></trkpt><trkpt lat="43.0788417" lon="10.920165"><ele>352.0</ele><time>2026-04-25T10:59:36.725Z</time></trkpt><trkpt lat="43.0786167" lon="10.9200033"><ele>350.5</ele><time>2026-04-25T10:59:37.725Z</time></trkpt><trkpt lat="43.0783933" lon="10.9198467"><ele>349.0</ele><time>2026-04-25T10:59:38.727Z</time></trkpt><trkpt lat="43.0781683" lon="10.91969"><ele>349.0</ele><time>2026-04-25T10:59:39.725Z</time></trkpt><trkpt lat="43.0779417" lon="10.91953"><ele>349.0</ele><time>2026-04-25T10:59:40.725Z</time></trkpt><trkpt lat="43.0777167" lon="10.919365"><ele>347.5</ele><time>2026-04-25T10:59:41.725Z</time></trkpt><trkpt lat="43.07749" lon="10.9192133"><ele>346.0</ele><time>2026-04-25T10:59:42.724Z</time></trkpt><trkpt lat="43.07726" lon="10.9190683"><ele>345.5</ele><time>2026-04-25T10:59:43.724Z</time></trkpt><trkpt lat="43.0770283" lon="10.91894"><ele>345.0</ele><time>2026-04-25T10:59:44.825Z</time></trkpt><trkpt lat="43.0767917" lon="10.918825"><ele>345.5</ele><time>2026-04-25T10:59:45.726Z</time></trkpt><trkpt lat="43.0765567" lon="10.9187367"><ele>346.0</ele><time>2026-04-25T10:59:46.723Z</time></trkpt><trkpt lat="43.0763167" lon="10.9186833"><ele>346.0</ele><time>2026-04-25T10:59:47.723Z</time></trkpt><trkpt lat="43.0760817" lon="10.9186867"><ele>346.0</ele><time>2026-04-25T10:59:48.725Z</time></trkpt><trkpt lat="43.07585" lon="10.918725"><ele>346.0</ele><time>2026-04-25T10:59:49.725Z</time></trkpt><trkpt lat="43.075625" lon="10.9188133"><ele>346.0</ele><time>2026-04-25T10:59:50.725Z</time></trkpt><trkpt lat="43.07541" lon="10.9189433"><ele>346.0</ele><time>2026-04-25T10:59:51.725Z</time></trkpt><trkpt lat="43.0752117" lon="10.9191083"><ele>346.0</ele><time>2026-04-25T10:59:52.724Z</time></trkpt><trkpt lat="43.07504" lon="10.9193"><ele>347.3333333333333</ele><time>2026-04-25T10:59:53.724Z</time></trkpt><trkpt lat="43.0748983" lon="10.9195133"><ele>348.6666666666667</ele><time>2026-04-25T10:59:54.726Z</time></trkpt><trkpt lat="43.0747783" lon="10.9197317"><ele>350.0</ele><time>2026-04-25T10:59:55.723Z</time></trkpt><trkpt lat="43.074675" lon="10.9199433"><ele>349.6666666666667</ele><time>2026-04-25T10:59:56.726Z</time></trkpt><trkpt lat="43.0745767" lon="10.92014"><ele>349.3333333333333</ele><time>2026-04-25T10:59:57.724Z</time></trkpt><trkpt lat="43.0744817" lon="10.9203167"><ele>349.0</ele><time>2026-04-25T10:59:58.725Z</time></trkpt><trkpt lat="43.0743817" lon="10.92047"><ele>349.0</ele><time>2026-04-25T10:59:59.723Z</time></trkpt><trkpt lat="43.0742917" lon="10.9206017"><ele>349.0</ele><time>2026-04-25T11:00:00.724Z</time></trkpt><trkpt lat="43.074205" lon="10.920715"><ele>349.0</ele><time>2026-04-25T11:00:01.723Z</time></trkpt><trkpt lat="43.07413" lon="10.920805"><ele>349.0</ele><time>2026-04-25T11:00:02.723Z</time></trkpt><trkpt lat="43.0740667" lon="10.9208717"><ele>349.0</ele><time>2026-04-25T11:00:03.724Z</time></trkpt><trkpt lat="43.0739767" lon="10.9209267"><ele>349.0</ele><time>2026-04-25T11:00:05.724Z</time></trkpt><trkpt lat="43.0739283" lon="10.9208233"><ele>349.0</ele><time>2026-04-25T11:00:08.725Z</time></trkpt><trkpt lat="43.0739833" lon="10.92074"><ele>349.0</ele><time>2026-04-25T11:00:10.726Z</time></trkpt><trkpt lat="43.0740433" lon="10.92069"><ele>349.0</ele><time>2026-04-25T11:00:12.723Z</time></trkpt><trkpt lat="43.0739833" lon="10.92073"><ele>349.0</ele><time>2026-04-25T11:02:43.722Z</time></trkpt><trkpt lat="43.0739333" lon="10.9208083"><ele>349.0</ele><time>2026-04-25T11:02:45.723Z</time></trkpt><trkpt lat="43.0738783" lon="10.9208583"><ele>349.0</ele><time>2026-04-25T11:02:48.724Z</time></trkpt><trkpt lat="43.0738167" lon="10.9209117"><ele>349.0</ele><time>2026-04-25T11:02:50.724Z</time></trkpt><trkpt lat="43.0737067" lon="10.9209767"><ele>349.0</ele><time>2026-04-25T11:02:52.725Z</time></trkpt><trkpt lat="43.0736317" lon="10.9209867"><ele>349.0</ele><time>2026-04-25T11:02:53.724Z</time></trkpt><trkpt lat="43.0735417" lon="10.9209667"><ele>349.0</ele><time>2026-04-25T11:02:54.726Z</time></trkpt><trkpt lat="43.07344" lon="10.9209183"><ele>349.0</ele><time>2026-04-25T11:02:55.724Z</time></trkpt><trkpt lat="43.0733333" lon="10.9208617"><ele>349.0</ele><time>2026-04-25T11:02:56.726Z</time></trkpt><trkpt lat="43.0732167" lon="10.9208033"><ele>349.0</ele><time>2026-04-25T11:02:57.725Z</time></trkpt><trkpt lat="43.073085" lon="10.9207417"><ele>349.0</ele><time>2026-04-25T11:02:58.722Z</time></trkpt><trkpt lat="43.072945" lon="10.9206783"><ele>350.66666666666663</ele><time>2026-04-25T11:02:59.725Z</time></trkpt><trkpt lat="43.0728033" lon="10.9206117"><ele>352.3333333333333</ele><time>2026-04-25T11:03:00.723Z</time></trkpt><trkpt lat="43.0726517" lon="10.9205383"><ele>354.0</ele><time>2026-04-25T11:03:01.725Z</time></trkpt><trkpt lat="43.07249" lon="10.9204617"><ele>354.0</ele><time>2026-04-25T11:03:02.725Z</time></trkpt><trkpt lat="43.0723267" lon="10.9203817"><ele>354.0</ele><time>2026-04-25T11:03:03.722Z</time></trkpt><trkpt lat="43.0721633" lon="10.9203033"><ele>354.0</ele><time>2026-04-25T11:03:04.726Z</time></trkpt><trkpt lat="43.0720033" lon="10.9202183"><ele>354.0</ele><time>2026-04-25T11:03:05.723Z</time></trkpt><trkpt lat="43.07184" lon="10.92013"><ele>354.0</ele><time>2026-04-25T11:03:06.726Z</time></trkpt><trkpt lat="43.0716733" lon="10.9200317"><ele>354.0</ele><time>2026-04-25T11:03:07.726Z</time></trkpt><trkpt lat="43.0715033" lon="10.9199217"><ele>354.3333333333333</ele><time>2026-04-25T11:03:08.723Z</time></trkpt><trkpt lat="43.0713283" lon="10.9198017"><ele>354.66666666666663</ele><time>2026-04-25T11:03:09.725Z</time></trkpt><trkpt lat="43.071155" lon="10.919675"><ele>355.0</ele><time>2026-04-25T11:03:10.723Z</time></trkpt><trkpt lat="43.0709883" lon="10.91954"><ele>355.0</ele><time>2026-04-25T11:03:11.726Z</time></trkpt><trkpt lat="43.0708317" lon="10.9193883"><ele>355.0</ele><time>2026-04-25T11:03:12.726Z</time></trkpt><trkpt lat="43.0706883" lon="10.9192017"><ele>355.0</ele><time>2026-04-25T11:03:13.723Z</time></trkpt><trkpt lat="43.0705617" lon="10.91899"><ele>352.66666666666663</ele><time>2026-04-25T11:03:14.726Z</time></trkpt><trkpt lat="43.0704567" lon="10.91875"><ele>350.3333333333333</ele><time>2026-04-25T11:03:15.725Z</time></trkpt><trkpt lat="43.0703867" lon="10.9184833"><ele>348.0</ele><time>2026-04-25T11:03:16.724Z</time></trkpt><trkpt lat="43.0703467" lon="10.9181967"><ele>345.3333333333333</ele><time>2026-04-25T11:03:17.724Z</time></trkpt><trkpt lat="43.0703417" lon="10.91791"><ele>342.66666666666663</ele><time>2026-04-25T11:03:18.724Z</time></trkpt><trkpt lat="43.0703633" lon="10.9176217"><ele>340.0</ele><time>2026-04-25T11:03:19.724Z</time></trkpt><trkpt lat="43.0704067" lon="10.9173267"><ele>336.5</ele><time>2026-04-25T11:03:20.723Z</time></trkpt><trkpt lat="43.0704583" lon="10.917025"><ele>333.0</ele><time>2026-04-25T11:03:21.725Z</time></trkpt><trkpt lat="43.0705067" lon="10.9167217"><ele>330.5</ele><time>2026-04-25T11:03:22.726Z</time></trkpt><trkpt lat="43.0705417" lon="10.9164167"><ele>328.0</ele><time>2026-04-25T11:03:23.724Z</time></trkpt><trkpt lat="43.070555" lon="10.91611"><ele>326.0</ele><time>2026-04-25T11:03:24.727Z</time></trkpt><trkpt lat="43.0705383" lon="10.915805"><ele>324.0</ele><time>2026-04-25T11:03:25.726Z</time></trkpt><trkpt lat="43.0704933" lon="10.9155017"><ele>324.0</ele><time>2026-04-25T11:03:26.727Z</time></trkpt><trkpt lat="43.0704183" lon="10.9152033"><ele>324.0</ele><time>2026-04-25T11:03:27.724Z</time></trkpt><trkpt lat="43.07032" lon="10.9149183"><ele>323.5</ele><time>2026-04-25T11:03:28.724Z</time></trkpt><trkpt lat="43.070195" lon="10.9146533"><ele>323.0</ele><time>2026-04-25T11:03:29.727Z</time></trkpt><trkpt lat="43.0700467" lon="10.9144167"><ele>321.0</ele><time>2026-04-25T11:03:30.725Z</time></trkpt><trkpt lat="43.06988" lon="10.9142067"><ele>319.0</ele><time>2026-04-25T11:03:31.727Z</time></trkpt><trkpt lat="43.0696983" lon="10.9140017"><ele>319.0</ele><time>2026-04-25T11:03:32.725Z</time></trkpt><trkpt lat="43.0695067" lon="10.9138133"><ele>319.0</ele><time>2026-04-25T11:03:33.724Z</time></trkpt><trkpt lat="43.0693133" lon="10.91363"><ele>319.0</ele><time>2026-04-25T11:03:34.724Z</time></trkpt><trkpt lat="43.0691167" lon="10.9134483"><ele>319.0</ele><time>2026-04-25T11:03:35.725Z</time></trkpt><trkpt lat="43.0689083" lon="10.9132717"><ele>317.0</ele><time>2026-04-25T11:03:36.725Z</time></trkpt><trkpt lat="43.0687" lon="10.9130933"><ele>315.0</ele><time>2026-04-25T11:03:37.723Z</time></trkpt><trkpt lat="43.0684867" lon="10.9129167"><ele>314.5</ele><time>2026-04-25T11:03:38.727Z</time></trkpt><trkpt lat="43.0682717" lon="10.9127367"><ele>314.0</ele><time>2026-04-25T11:03:39.724Z</time></trkpt><trkpt lat="43.0680583" lon="10.9125583"><ele>313.5</ele><time>2026-04-25T11:03:40.725Z</time></trkpt><trkpt lat="43.0678433" lon="10.912385"><ele>313.0</ele><time>2026-04-25T11:03:41.727Z</time></trkpt><trkpt lat="43.06763" lon="10.9122083"><ele>311.5</ele><time>2026-04-25T11:03:42.726Z</time></trkpt><trkpt lat="43.0674167" lon="10.9120367"><ele>310.0</ele><time>2026-04-25T11:03:43.723Z</time></trkpt><trkpt lat="43.067205" lon="10.911865"><ele>309.5</ele><time>2026-04-25T11:03:44.726Z</time></trkpt><trkpt lat="43.066995" lon="10.9117"><ele>309.0</ele><time>2026-04-25T11:03:45.727Z</time></trkpt><trkpt lat="43.0667867" lon="10.91153"><ele>307.5</ele><time>2026-04-25T11:03:46.725Z</time></trkpt><trkpt lat="43.06658" lon="10.9113567"><ele>306.0</ele><time>2026-04-25T11:03:47.726Z</time></trkpt><trkpt lat="43.0663767" lon="10.9111783"><ele>306.0</ele><time>2026-04-25T11:03:48.722Z</time></trkpt><trkpt lat="43.0661733" lon="10.91099"><ele>306.0</ele><time>2026-04-25T11:03:49.726Z</time></trkpt><trkpt lat="43.065975" lon="10.9107917"><ele>307.5</ele><time>2026-04-25T11:03:50.725Z</time></trkpt><trkpt lat="43.0657867" lon="10.9105783"><ele>309.0</ele><time>2026-04-25T11:03:51.727Z</time></trkpt><trkpt lat="43.06561" lon="10.910355"><ele>306.0</ele><time>2026-04-25T11:03:52.727Z</time></trkpt><trkpt lat="43.0654433" lon="10.9101133"><ele>303.0</ele><time>2026-04-25T11:03:53.723Z</time></trkpt><trkpt lat="43.0652917" lon="10.90986"><ele>303.0</ele><time>2026-04-25T11:03:54.725Z</time></trkpt><trkpt lat="43.0651483" lon="10.909595"><ele>303.0</ele><time>2026-04-25T11:03:55.723Z</time></trkpt><trkpt lat="43.0650083" lon="10.909325"><ele>299.5</ele><time>2026-04-25T11:03:56.727Z</time></trkpt><trkpt lat="43.0648683" lon="10.9090533"><ele>296.0</ele><time>2026-04-25T11:03:57.724Z</time></trkpt><trkpt lat="43.0647317" lon="10.9087767"><ele>296.0</ele><time>2026-04-25T11:03:58.724Z</time></trkpt><trkpt lat="43.0645933" lon="10.9085"><ele>296.0</ele><time>2026-04-25T11:03:59.725Z</time></trkpt><trkpt lat="43.064455" lon="10.9082233"><ele>294.0</ele><time>2026-04-25T11:04:00.725Z</time></trkpt><trkpt lat="43.0643183" lon="10.9079517"><ele>292.0</ele><time>2026-04-25T11:04:01.726Z</time></trkpt><trkpt lat="43.06418" lon="10.9076817"><ele>290.5</ele><time>2026-04-25T11:04:02.727Z</time></trkpt><trkpt lat="43.064035" lon="10.90742"><ele>289.0</ele><time>2026-04-25T11:04:03.726Z</time></trkpt><trkpt lat="43.0638783" lon="10.9071767"><ele>289.0</ele><time>2026-04-25T11:04:04.723Z</time></trkpt><trkpt lat="43.06371" lon="10.906945"><ele>289.0</ele><time>2026-04-25T11:04:05.726Z</time></trkpt><trkpt lat="43.06354" lon="10.9067167"><ele>289.5</ele><time>2026-04-25T11:04:06.726Z</time></trkpt><trkpt lat="43.0633683" lon="10.9064917"><ele>290.0</ele><time>2026-04-25T11:04:07.725Z</time></trkpt><trkpt lat="43.0631933" lon="10.9062683"><ele>290.0</ele><time>2026-04-25T11:04:08.724Z</time></trkpt><trkpt lat="43.06302" lon="10.9060483"><ele>290.0</ele><time>2026-04-25T11:04:09.725Z</time></trkpt><trkpt lat="43.062845" lon="10.90583"><ele>290.5</ele><time>2026-04-25T11:04:10.722Z</time></trkpt><trkpt lat="43.062675" lon="10.9056117"><ele>291.0</ele><time>2026-04-25T11:04:11.724Z</time></trkpt><trkpt lat="43.0625017" lon="10.905395"><ele>291.0</ele><time>2026-04-25T11:04:12.725Z</time></trkpt><trkpt lat="43.0623283" lon="10.9051783"><ele>291.0</ele><time>2026-04-25T11:04:13.723Z</time></trkpt><trkpt lat="43.0621567" lon="10.904965"><ele>291.0</ele><time>2026-04-25T11:04:14.726Z</time></trkpt><trkpt lat="43.0619883" lon="10.9047433"><ele>291.0</ele><time>2026-04-25T11:04:15.723Z</time></trkpt><trkpt lat="43.0618233" lon="10.9045183"><ele>291.0</ele><time>2026-04-25T11:04:16.724Z</time></trkpt><trkpt lat="43.0616633" lon="10.9042883"><ele>291.0</ele><time>2026-04-25T11:04:17.724Z</time></trkpt><trkpt lat="43.0615117" lon="10.904045"><ele>289.5</ele><time>2026-04-25T11:04:18.725Z</time></trkpt><trkpt lat="43.06137" lon="10.9037883"><ele>288.0</ele><time>2026-04-25T11:04:19.725Z</time></trkpt><trkpt lat="43.0612383" lon="10.9035217"><ele>286.0</ele><time>2026-04-25T11:04:20.725Z</time></trkpt><trkpt lat="43.0611167" lon="10.9032467"><ele>284.0</ele><time>2026-04-25T11:04:21.726Z</time></trkpt><trkpt lat="43.0610067" lon="10.9029567"><ele>284.0</ele><time>2026-04-25T11:04:22.725Z</time></trkpt><trkpt lat="43.0609133" lon="10.9026533"><ele>284.0</ele><time>2026-04-25T11:04:23.725Z</time></trkpt><trkpt lat="43.06083" lon="10.9023417"><ele>282.0</ele><time>2026-04-25T11:04:24.726Z</time></trkpt><trkpt lat="43.060755" lon="10.9020233"><ele>280.0</ele><time>2026-04-25T11:04:25.726Z</time></trkpt><trkpt lat="43.060685" lon="10.9017017"><ele>279.5</ele><time>2026-04-25T11:04:26.726Z</time></trkpt><trkpt lat="43.0606183" lon="10.9013733"><ele>279.0</ele><time>2026-04-25T11:04:27.725Z</time></trkpt><trkpt lat="43.06055" lon="10.9010383"><ele>277.0</ele><time>2026-04-25T11:04:28.723Z</time></trkpt><trkpt lat="43.0604817" lon="10.9007033"><ele>275.0</ele><time>2026-04-25T11:04:29.724Z</time></trkpt><trkpt lat="43.0604133" lon="10.9003583"><ele>273.0</ele><time>2026-04-25T11:04:30.726Z</time></trkpt><trkpt lat="43.0603383" lon="10.9000283"><ele>271.0</ele><time>2026-04-25T11:04:31.726Z</time></trkpt><trkpt lat="43.060265" lon="10.8996983"><ele>271.0</ele><time>2026-04-25T11:04:32.725Z</time></trkpt><trkpt lat="43.0601933" lon="10.8993633"><ele>271.0</ele><time>2026-04-25T11:04:33.726Z</time></trkpt><trkpt lat="43.06012" lon="10.8990267"><ele>269.0</ele><time>2026-04-25T11:04:34.727Z</time></trkpt><trkpt lat="43.0600467" lon="10.89869"><ele>267.0</ele><time>2026-04-25T11:04:35.726Z</time></trkpt><trkpt lat="43.0599733" lon="10.89835"><ele>272.0</ele><time>2026-04-25T11:04:36.725Z</time></trkpt><trkpt lat="43.0599017" lon="10.8980167"><ele>277.0</ele><time>2026-04-25T11:04:37.725Z</time></trkpt><trkpt lat="43.0598317" lon="10.8976833"><ele>275.0</ele><time>2026-04-25T11:04:38.726Z</time></trkpt><trkpt lat="43.0597583" lon="10.8973533"><ele>273.0</ele><time>2026-04-25T11:04:39.726Z</time></trkpt><trkpt lat="43.0596883" lon="10.8970267"><ele>269.5</ele><time>2026-04-25T11:04:40.724Z</time></trkpt><trkpt lat="43.0596183" lon="10.8967"><ele>266.0</ele><time>2026-04-25T11:04:41.722Z</time></trkpt><trkpt lat="43.0595483" lon="10.896375"><ele>266.0</ele><time>2026-04-25T11:04:42.723Z</time></trkpt><trkpt lat="43.0594767" lon="10.8960533"><ele>266.0</ele><time>2026-04-25T11:04:43.723Z</time></trkpt><trkpt lat="43.0594083" lon="10.8957317"><ele>265.5</ele><time>2026-04-25T11:04:44.723Z</time></trkpt><trkpt lat="43.0593383" lon="10.8954067"><ele>265.0</ele><time>2026-04-25T11:04:45.722Z</time></trkpt><trkpt lat="43.05927" lon="10.8950867"><ele>261.0</ele><time>2026-04-25T11:04:46.724Z</time></trkpt><trkpt lat="43.0592067" lon="10.8947667"><ele>257.0</ele><time>2026-04-25T11:04:47.722Z</time></trkpt><trkpt lat="43.0591533" lon="10.8944417"><ele>262.5</ele><time>2026-04-25T11:04:48.722Z</time></trkpt><trkpt lat="43.0591133" lon="10.8941133"><ele>268.0</ele><time>2026-04-25T11:04:49.723Z</time></trkpt><trkpt lat="43.0590883" lon="10.89378"><ele>268.0</ele><time>2026-04-25T11:04:50.725Z</time></trkpt><trkpt lat="43.0590767" lon="10.8934433"><ele>268.0</ele><time>2026-04-25T11:04:51.726Z</time></trkpt><trkpt lat="43.0590783" lon="10.8931067"><ele>265.0</ele><time>2026-04-25T11:04:52.725Z</time></trkpt><trkpt lat="43.0590883" lon="10.89277"><ele>262.0</ele><time>2026-04-25T11:04:53.725Z</time></trkpt><trkpt lat="43.059105" lon="10.8924317"><ele>254.0</ele><time>2026-04-25T11:04:54.726Z</time></trkpt><trkpt lat="43.0591183" lon="10.892095"><ele>246.0</ele><time>2026-04-25T11:04:55.723Z</time></trkpt><trkpt lat="43.05912" lon="10.8917567"><ele>251.5</ele><time>2026-04-25T11:04:56.723Z</time></trkpt><trkpt lat="43.0591083" lon="10.8914183"><ele>257.0</ele><time>2026-04-25T11:04:57.723Z</time></trkpt><trkpt lat="43.059085" lon="10.8910783"><ele>253.5</ele><time>2026-04-25T11:04:58.725Z</time></trkpt><trkpt lat="43.059045" lon="10.8907417"><ele>250.0</ele><time>2026-04-25T11:04:59.722Z</time></trkpt><trkpt lat="43.0589933" lon="10.8904033"><ele>247.5</ele><time>2026-04-25T11:05:00.722Z</time></trkpt><trkpt lat="43.0589283" lon="10.89007"><ele>245.0</ele><time>2026-04-25T11:05:01.723Z</time></trkpt><trkpt lat="43.05886" lon="10.88973"><ele>245.0</ele><time>2026-04-25T11:05:02.722Z</time></trkpt><trkpt lat="43.0587917" lon="10.8893967"><ele>245.0</ele><time>2026-04-25T11:05:03.723Z</time></trkpt><trkpt lat="43.0587233" lon="10.8890683"><ele>242.5</ele><time>2026-04-25T11:05:04.723Z</time></trkpt><trkpt lat="43.05866" lon="10.88874"><ele>240.0</ele><time>2026-04-25T11:05:05.724Z</time></trkpt><trkpt lat="43.0585983" lon="10.8884117"><ele>237.5</ele><time>2026-04-25T11:05:06.724Z</time></trkpt><trkpt lat="43.0585383" lon="10.8880833"><ele>235.0</ele><time>2026-04-25T11:05:07.726Z</time></trkpt><trkpt lat="43.0584767" lon="10.8877583"><ele>234.0</ele><time>2026-04-25T11:05:08.726Z</time></trkpt><trkpt lat="43.0584117" lon="10.88743"><ele>233.0</ele><time>2026-04-25T11:05:09.726Z</time></trkpt><trkpt lat="43.05835" lon="10.8871017"><ele>233.0</ele><time>2026-04-25T11:05:10.726Z</time></trkpt><trkpt lat="43.0582883" lon="10.8867733"><ele>233.0</ele><time>2026-04-25T11:05:11.726Z</time></trkpt><trkpt lat="43.0582217" lon="10.886445"><ele>233.5</ele><time>2026-04-25T11:05:12.726Z</time></trkpt><trkpt lat="43.05815" lon="10.8861217"><ele>234.0</ele><time>2026-04-25T11:05:13.724Z</time></trkpt><trkpt lat="43.0580717" lon="10.8857983"><ele>234.0</ele><time>2026-04-25T11:05:14.725Z</time></trkpt><trkpt lat="43.0579867" lon="10.8854783"><ele>234.0</ele><time>2026-04-25T11:05:15.726Z</time></trkpt><trkpt lat="43.0578917" lon="10.8851667"><ele>234.0</ele><time>2026-04-25T11:05:16.725Z</time></trkpt><trkpt lat="43.057785" lon="10.8848567"><ele>234.0</ele><time>2026-04-25T11:05:17.726Z</time></trkpt><trkpt lat="43.0576667" lon="10.8845567"><ele>234.0</ele><time>2026-04-25T11:05:18.725Z</time></trkpt><trkpt lat="43.0575317" lon="10.88427"><ele>234.0</ele><time>2026-04-25T11:05:19.725Z</time></trkpt><trkpt lat="43.0573833" lon="10.8839883"><ele>236.0</ele><time>2026-04-25T11:05:20.725Z</time></trkpt><trkpt lat="43.0572217" lon="10.883725"><ele>238.0</ele><time>2026-04-25T11:05:21.725Z</time></trkpt><trkpt lat="43.0570467" lon="10.8834733"><ele>233.5</ele><time>2026-04-25T11:05:22.725Z</time></trkpt><trkpt lat="43.05686" lon="10.8832333"><ele>229.0</ele><time>2026-04-25T11:05:23.723Z</time></trkpt><trkpt lat="43.0566617" lon="10.8830033"><ele>229.0</ele><time>2026-04-25T11:05:24.723Z</time></trkpt><trkpt lat="43.05646" lon="10.8827917"><ele>229.0</ele><time>2026-04-25T11:05:25.722Z</time></trkpt><trkpt lat="43.0562517" lon="10.8825917"><ele>229.0</ele><time>2026-04-25T11:05:26.724Z</time></trkpt><trkpt lat="43.05603" lon="10.8824167"><ele>229.0</ele><time>2026-04-25T11:05:27.723Z</time></trkpt><trkpt lat="43.055805" lon="10.882255"><ele>230.0</ele><time>2026-04-25T11:05:28.723Z</time></trkpt><trkpt lat="43.0555783" lon="10.88211"><ele>231.0</ele><time>2026-04-25T11:05:29.723Z</time></trkpt><trkpt lat="43.0553467" lon="10.8819783"><ele>231.0</ele><time>2026-04-25T11:05:30.723Z</time></trkpt><trkpt lat="43.0551133" lon="10.881865"><ele>231.0</ele><time>2026-04-25T11:05:31.724Z</time></trkpt><trkpt lat="43.05487" lon="10.8817717"><ele>224.5</ele><time>2026-04-25T11:05:32.725Z</time></trkpt><trkpt lat="43.0546233" lon="10.881685"><ele>218.0</ele><time>2026-04-25T11:05:33.726Z</time></trkpt><trkpt lat="43.0543783" lon="10.8815967"><ele>218.0</ele><time>2026-04-25T11:05:34.724Z</time></trkpt><trkpt lat="43.05414" lon="10.8815033"><ele>218.0</ele><time>2026-04-25T11:05:35.726Z</time></trkpt><trkpt lat="43.0539017" lon="10.8814017"><ele>218.0</ele><time>2026-04-25T11:05:36.725Z</time></trkpt><trkpt lat="43.053665" lon="10.881285"><ele>218.0</ele><time>2026-04-25T11:05:37.726Z</time></trkpt><trkpt lat="43.053435" lon="10.8811533"><ele>218.5</ele><time>2026-04-25T11:05:38.726Z</time></trkpt><trkpt lat="43.0532083" lon="10.881005"><ele>219.0</ele><time>2026-04-25T11:05:39.729Z</time></trkpt><trkpt lat="43.05299" lon="10.8808383"><ele>219.0</ele><time>2026-04-25T11:05:40.724Z</time></trkpt><trkpt lat="43.05278" lon="10.880655"><ele>219.0</ele><time>2026-04-25T11:05:41.724Z</time></trkpt><trkpt lat="43.05258" lon="10.880455"><ele>216.0</ele><time>2026-04-25T11:05:42.724Z</time></trkpt><trkpt lat="43.052385" lon="10.8802433"><ele>213.0</ele><time>2026-04-25T11:05:43.725Z</time></trkpt><trkpt lat="43.05219" lon="10.88003"><ele>213.0</ele><time>2026-04-25T11:05:44.725Z</time></trkpt><trkpt lat="43.0519983" lon="10.8798117"><ele>213.0</ele><time>2026-04-25T11:05:45.725Z</time></trkpt><trkpt lat="43.051805" lon="10.8795933"><ele>215.5</ele><time>2026-04-25T11:05:46.725Z</time></trkpt><trkpt lat="43.051615" lon="10.8793733"><ele>218.0</ele><time>2026-04-25T11:05:47.725Z</time></trkpt><trkpt lat="43.051425" lon="10.879155"><ele>210.5</ele><time>2026-04-25T11:05:48.727Z</time></trkpt><trkpt lat="43.0512333" lon="10.8789317"><ele>203.0</ele><time>2026-04-25T11:05:49.725Z</time></trkpt><trkpt lat="43.0510383" lon="10.87871"><ele>203.0</ele><time>2026-04-25T11:05:50.724Z</time></trkpt><trkpt lat="43.0508383" lon="10.8784883"><ele>203.0</ele><time>2026-04-25T11:05:51.725Z</time></trkpt><trkpt lat="43.05064" lon="10.87827"><ele>204.0</ele><time>2026-04-25T11:05:52.724Z</time></trkpt><trkpt lat="43.0504333" lon="10.878065"><ele>205.0</ele><time>2026-04-25T11:05:53.727Z</time></trkpt><trkpt lat="43.0502183" lon="10.8778733"><ele>205.0</ele><time>2026-04-25T11:05:54.726Z</time></trkpt><trkpt lat="43.0499983" lon="10.8777017"><ele>205.0</ele><time>2026-04-25T11:05:55.726Z</time></trkpt><trkpt lat="43.0497733" lon="10.877545"><ele>202.5</ele><time>2026-04-25T11:05:56.726Z</time></trkpt><trkpt lat="43.0495417" lon="10.8774033"><ele>200.0</ele><time>2026-04-25T11:05:57.725Z</time></trkpt><trkpt lat="43.0493067" lon="10.8772767"><ele>196.5</ele><time>2026-04-25T11:05:58.726Z</time></trkpt><trkpt lat="43.04907" lon="10.8771733"><ele>193.0</ele><time>2026-04-25T11:05:59.725Z</time></trkpt><trkpt lat="43.0488217" lon="10.87709"><ele>193.0</ele><time>2026-04-25T11:06:00.725Z</time></trkpt><trkpt lat="43.04857" lon="10.8770233"><ele>193.0</ele><time>2026-04-25T11:06:01.725Z</time></trkpt><trkpt lat="43.0483117" lon="10.8769783"><ele>189.5</ele><time>2026-04-25T11:06:02.727Z</time></trkpt><trkpt lat="43.0480533" lon="10.87695"><ele>186.0</ele><time>2026-04-25T11:06:03.727Z</time></trkpt><trkpt lat="43.047795" lon="10.876945"><ele>186.0</ele><time>2026-04-25T11:06:04.722Z</time></trkpt><trkpt lat="43.0475367" lon="10.8769583"><ele>186.0</ele><time>2026-04-25T11:06:05.726Z</time></trkpt><trkpt lat="43.0472783" lon="10.8769917"><ele>185.5</ele><time>2026-04-25T11:06:06.725Z</time></trkpt><trkpt lat="43.04702" lon="10.877045"><ele>185.0</ele><time>2026-04-25T11:06:07.723Z</time></trkpt><trkpt lat="43.0467633" lon="10.877115"><ele>185.5</ele><time>2026-04-25T11:06:08.726Z</time></trkpt><trkpt lat="43.04651" lon="10.877195"><ele>186.0</ele><time>2026-04-25T11:06:09.724Z</time></trkpt><trkpt lat="43.0462567" lon="10.8772817"><ele>186.0</ele><time>2026-04-25T11:06:10.725Z</time></trkpt><trkpt lat="43.04601" lon="10.8773683"><ele>186.0</ele><time>2026-04-25T11:06:11.724Z</time></trkpt><trkpt lat="43.0457617" lon="10.8774533"><ele>186.0</ele><time>2026-04-25T11:06:12.724Z</time></trkpt><trkpt lat="43.0455217" lon="10.87754"><ele>186.0</ele><time>2026-04-25T11:06:13.723Z</time></trkpt><trkpt lat="43.0452783" lon="10.877625"><ele>190.5</ele><time>2026-04-25T11:06:14.723Z</time></trkpt><trkpt lat="43.0450383" lon="10.87771"><ele>195.0</ele><time>2026-04-25T11:06:15.722Z</time></trkpt><trkpt lat="43.0448" lon="10.8777967"><ele>195.0</ele><time>2026-04-25T11:06:16.722Z</time></trkpt><trkpt lat="43.0445633" lon="10.8778833"><ele>195.0</ele><time>2026-04-25T11:06:17.724Z</time></trkpt><trkpt lat="43.0443217" lon="10.877985"><ele>190.5</ele><time>2026-04-25T11:06:18.723Z</time></trkpt><trkpt lat="43.0440933" lon="10.8781033"><ele>186.0</ele><time>2026-04-25T11:06:19.722Z</time></trkpt><trkpt lat="43.043875" lon="10.878245"><ele>186.0</ele><time>2026-04-25T11:06:20.724Z</time></trkpt><trkpt lat="43.0436517" lon="10.8784017"><ele>186.0</ele><time>2026-04-25T11:06:21.723Z</time></trkpt><trkpt lat="43.043435" lon="10.8785717"><ele>185.5</ele><time>2026-04-25T11:06:22.726Z</time></trkpt><trkpt lat="43.0432233" lon="10.8787617"><ele>185.0</ele><time>2026-04-25T11:06:23.725Z</time></trkpt><trkpt lat="43.0430167" lon="10.87897"><ele>185.0</ele><time>2026-04-25T11:06:24.723Z</time></trkpt><trkpt lat="43.04282" lon="10.8791967"><ele>185.0</ele><time>2026-04-25T11:06:25.726Z</time></trkpt><trkpt lat="43.0426317" lon="10.87944"><ele>181.0</ele><time>2026-04-25T11:06:26.726Z</time></trkpt><trkpt lat="43.042455" lon="10.8796917"><ele>177.0</ele><time>2026-04-25T11:06:27.726Z</time></trkpt><trkpt lat="43.042285" lon="10.8799533"><ele>182.5</ele><time>2026-04-25T11:06:28.725Z</time></trkpt><trkpt lat="43.042115" lon="10.8802133"><ele>188.0</ele><time>2026-04-25T11:06:29.725Z</time></trkpt><trkpt lat="43.0419417" lon="10.8804717"><ele>188.0</ele><time>2026-04-25T11:06:30.726Z</time></trkpt><trkpt lat="43.04177" lon="10.8807267"><ele>188.0</ele><time>2026-04-25T11:06:31.725Z</time></trkpt><trkpt lat="43.0415917" lon="10.8809783"><ele>184.0</ele><time>2026-04-25T11:06:32.726Z</time></trkpt><trkpt lat="43.0414167" lon="10.8812333"><ele>180.0</ele><time>2026-04-25T11:06:33.726Z</time></trkpt><trkpt lat="43.0412433" lon="10.881485"><ele>180.0</ele><time>2026-04-25T11:06:34.724Z</time></trkpt><trkpt lat="43.04107" lon="10.8817367"><ele>180.0</ele><time>2026-04-25T11:06:35.726Z</time></trkpt><trkpt lat="43.0409" lon="10.88199"><ele>177.5</ele><time>2026-04-25T11:06:36.726Z</time></trkpt><trkpt lat="43.0407317" lon="10.8822433"><ele>175.0</ele><time>2026-04-25T11:06:37.724Z</time></trkpt><trkpt lat="43.0405617" lon="10.8824983"><ele>182.0</ele><time>2026-04-25T11:06:38.726Z</time></trkpt><trkpt lat="43.0403883" lon="10.8827517"><ele>189.0</ele><time>2026-04-25T11:06:39.726Z</time></trkpt><trkpt lat="43.0402167" lon="10.8830017"><ele>189.0</ele><time>2026-04-25T11:06:40.725Z</time></trkpt><trkpt lat="43.0400483" lon="10.8832533"><ele>189.0</ele><time>2026-04-25T11:06:41.725Z</time></trkpt><trkpt lat="43.0398783" lon="10.8835033"><ele>185.5</ele><time>2026-04-25T11:06:42.724Z</time></trkpt><trkpt lat="43.0397083" lon="10.88375"><ele>182.0</ele><time>2026-04-25T11:06:43.723Z</time></trkpt><trkpt lat="43.0395383" lon="10.883995"><ele>182.0</ele><time>2026-04-25T11:06:44.723Z</time></trkpt><trkpt lat="43.039365" lon="10.8842333"><ele>182.0</ele><time>2026-04-25T11:06:45.723Z</time></trkpt><trkpt lat="43.0391817" lon="10.8844633"><ele>183.0</ele><time>2026-04-25T11:06:46.722Z</time></trkpt><trkpt lat="43.03899" lon="10.884675"><ele>184.0</ele><time>2026-04-25T11:06:47.723Z</time></trkpt><trkpt lat="43.0387917" lon="10.8848683"><ele>184.0</ele><time>2026-04-25T11:06:48.723Z</time></trkpt><trkpt lat="43.0385867" lon="10.8850417"><ele>184.0</ele><time>2026-04-25T11:06:49.723Z</time></trkpt><trkpt lat="43.0383733" lon="10.885205"><ele>186.5</ele><time>2026-04-25T11:06:50.722Z</time></trkpt><trkpt lat="43.038155" lon="10.88535"><ele>189.0</ele><time>2026-04-25T11:06:51.723Z</time></trkpt><trkpt lat="43.037925" lon="10.885475"><ele>189.0</ele><time>2026-04-25T11:06:52.726Z</time></trkpt><trkpt lat="43.0376983" lon="10.8855917"><ele>189.0</ele><time>2026-04-25T11:06:53.725Z</time></trkpt><trkpt lat="43.037465" lon="10.8856933"><ele>185.0</ele><time>2026-04-25T11:06:54.724Z</time></trkpt><trkpt lat="43.0372283" lon="10.885775"><ele>181.0</ele><time>2026-04-25T11:06:55.726Z</time></trkpt><trkpt lat="43.03699" lon="10.8858417"><ele>181.0</ele><time>2026-04-25T11:06:56.726Z</time></trkpt><trkpt lat="43.0367567" lon="10.8858917"><ele>181.0</ele><time>2026-04-25T11:06:57.726Z</time></trkpt><trkpt lat="43.0365217" lon="10.88592"><ele>180.5</ele><time>2026-04-25T11:06:58.725Z</time></trkpt><trkpt lat="43.0362933" lon="10.8859267"><ele>180.0</ele><time>2026-04-25T11:06:59.726Z</time></trkpt><trkpt lat="43.03607" lon="10.8859167"><ele>180.0</ele><time>2026-04-25T11:07:00.726Z</time></trkpt><trkpt lat="43.0358633" lon="10.8858983"><ele>180.0</ele><time>2026-04-25T11:07:01.722Z</time></trkpt><trkpt lat="43.0356733" lon="10.885875"><ele>180.0</ele><time>2026-04-25T11:07:02.726Z</time></trkpt><trkpt lat="43.035495" lon="10.8858483"><ele>180.75</ele><time>2026-04-25T11:07:03.725Z</time></trkpt><trkpt lat="43.0353283" lon="10.8858167"><ele>181.5</ele><time>2026-04-25T11:07:04.723Z</time></trkpt><trkpt lat="43.0351833" lon="10.8857867"><ele>182.25</ele><time>2026-04-25T11:07:05.725Z</time></trkpt><trkpt lat="43.0350567" lon="10.88576"><ele>183.0</ele><time>2026-04-25T11:07:06.724Z</time></trkpt><trkpt lat="43.0349417" lon="10.8857217"><ele>183.0</ele><time>2026-04-25T11:07:07.724Z</time></trkpt><trkpt lat="43.0348367" lon="10.8856667"><ele>183.0</ele><time>2026-04-25T11:07:08.726Z</time></trkpt><trkpt lat="43.0347283" lon="10.8855833"><ele>183.0</ele><time>2026-04-25T11:07:09.726Z</time></trkpt><trkpt lat="43.0346083" lon="10.8855033"><ele>183.0</ele><time>2026-04-25T11:07:10.726Z</time></trkpt><trkpt lat="43.0344717" lon="10.8854317"><ele>183.0</ele><time>2026-04-25T11:07:11.725Z</time></trkpt><trkpt lat="43.0343333" lon="10.8853417"><ele>183.0</ele><time>2026-04-25T11:07:12.725Z</time></trkpt><trkpt lat="43.0341983" lon="10.8852117"><ele>183.0</ele><time>2026-04-25T11:07:13.726Z</time></trkpt><trkpt lat="43.034065" lon="10.88505"><ele>181.33333333333334</ele><time>2026-04-25T11:07:14.726Z</time></trkpt><trkpt lat="43.0339317" lon="10.8848733"><ele>179.66666666666669</ele><time>2026-04-25T11:07:15.725Z</time></trkpt><trkpt lat="43.0337967" lon="10.8846917"><ele>178.0</ele><time>2026-04-25T11:07:16.726Z</time></trkpt><trkpt lat="43.03366" lon="10.8845017"><ele>178.0</ele><time>2026-04-25T11:07:17.723Z</time></trkpt><trkpt lat="43.0335267" lon="10.8842917"><ele>178.0</ele><time>2026-04-25T11:07:18.726Z</time></trkpt><trkpt lat="43.03339" lon="10.8840733"><ele>178.0</ele><time>2026-04-25T11:07:19.724Z</time></trkpt><trkpt lat="43.0332533" lon="10.8838533"><ele>177.66666666666669</ele><time>2026-04-25T11:07:20.726Z</time></trkpt><trkpt lat="43.033115" lon="10.883635"><ele>177.33333333333334</ele><time>2026-04-25T11:07:21.724Z</time></trkpt><trkpt lat="43.032975" lon="10.88341"><ele>177.0</ele><time>2026-04-25T11:07:22.725Z</time></trkpt><trkpt lat="43.0328317" lon="10.8831817"><ele>176.0</ele><time>2026-04-25T11:07:23.726Z</time></trkpt><trkpt lat="43.03269" lon="10.8829517"><ele>175.0</ele><time>2026-04-25T11:07:24.725Z</time></trkpt><trkpt lat="43.0325483" lon="10.8827183"><ele>174.0</ele><time>2026-04-25T11:07:25.722Z</time></trkpt><trkpt lat="43.0324067" lon="10.8824817"><ele>173.0</ele><time>2026-04-25T11:07:26.725Z</time></trkpt><trkpt lat="43.03226" lon="10.882245"><ele>172.0</ele><time>2026-04-25T11:07:27.722Z</time></trkpt><trkpt lat="43.03211" lon="10.88201"><ele>172.0</ele><time>2026-04-25T11:07:28.724Z</time></trkpt><trkpt lat="43.0319583" lon="10.8817683"><ele>172.0</ele><time>2026-04-25T11:07:29.725Z</time></trkpt><trkpt lat="43.031805" lon="10.8815267"><ele>171.0</ele><time>2026-04-25T11:07:30.723Z</time></trkpt><trkpt lat="43.0316517" lon="10.8812817"><ele>170.0</ele><time>2026-04-25T11:07:31.725Z</time></trkpt><trkpt lat="43.0314983" lon="10.88104"><ele>169.0</ele><time>2026-04-25T11:07:32.724Z</time></trkpt><trkpt lat="43.0313467" lon="10.880795"><ele>168.0</ele><time>2026-04-25T11:07:33.723Z</time></trkpt><trkpt lat="43.031195" lon="10.8805567"><ele>168.0</ele><time>2026-04-25T11:07:34.723Z</time></trkpt><trkpt lat="43.03104" lon="10.8803183"><ele>168.0</ele><time>2026-04-25T11:07:35.722Z</time></trkpt><trkpt lat="43.030885" lon="10.8800783"><ele>168.0</ele><time>2026-04-25T11:07:36.724Z</time></trkpt><trkpt lat="43.03073" lon="10.8798333"><ele>168.0</ele><time>2026-04-25T11:07:37.726Z</time></trkpt><trkpt lat="43.0305733" lon="10.8795833"><ele>168.0</ele><time>2026-04-25T11:07:38.726Z</time></trkpt><trkpt lat="43.030415" lon="10.8793317"><ele>168.0</ele><time>2026-04-25T11:07:39.725Z</time></trkpt><trkpt lat="43.0302533" lon="10.8790767"><ele>167.0</ele><time>2026-04-25T11:07:40.724Z</time></trkpt><trkpt lat="43.0300917" lon="10.87882"><ele>166.0</ele><time>2026-04-25T11:07:41.726Z</time></trkpt><trkpt lat="43.02993" lon="10.87856"><ele>165.0</ele><time>2026-04-25T11:07:42.725Z</time></trkpt><trkpt lat="43.0297683" lon="10.8782983"><ele>164.0</ele><time>2026-04-25T11:07:43.723Z</time></trkpt><trkpt lat="43.029605" lon="10.8780383"><ele>164.0</ele><time>2026-04-25T11:07:44.725Z</time></trkpt><trkpt lat="43.02944" lon="10.8777817"><ele>164.0</ele><time>2026-04-25T11:07:45.726Z</time></trkpt><trkpt lat="43.0292767" lon="10.87752"><ele>163.0</ele><time>2026-04-25T11:07:46.723Z</time></trkpt><trkpt lat="43.029115" lon="10.8772617"><ele>162.0</ele><time>2026-04-25T11:07:47.725Z</time></trkpt><trkpt lat="43.0289533" lon="10.8770033"><ele>162.0</ele><time>2026-04-25T11:07:48.725Z</time></trkpt><trkpt lat="43.02879" lon="10.8767433"><ele>162.0</ele><time>2026-04-25T11:07:49.725Z</time></trkpt><trkpt lat="43.0286267" lon="10.8764867"><ele>162.0</ele><time>2026-04-25T11:07:50.723Z</time></trkpt><trkpt lat="43.0284633" lon="10.8762317"><ele>162.0</ele><time>2026-04-25T11:07:51.725Z</time></trkpt><trkpt lat="43.028305" lon="10.87598"><ele>162.0</ele><time>2026-04-25T11:07:52.724Z</time></trkpt><trkpt lat="43.0281483" lon="10.8757333"><ele>162.0</ele><time>2026-04-25T11:07:53.725Z</time></trkpt><trkpt lat="43.0279933" lon="10.875485"><ele>162.0</ele><time>2026-04-25T11:07:54.726Z</time></trkpt><trkpt lat="43.02784" lon="10.8752383"><ele>162.0</ele><time>2026-04-25T11:07:55.722Z</time></trkpt><trkpt lat="43.0276867" lon="10.8749883"><ele>162.0</ele><time>2026-04-25T11:07:56.726Z</time></trkpt><trkpt lat="43.027535" lon="10.8747433"><ele>162.0</ele><time>2026-04-25T11:07:57.725Z</time></trkpt><trkpt lat="43.0273833" lon="10.874495"><ele>162.0</ele><time>2026-04-25T11:07:58.725Z</time></trkpt><trkpt lat="43.0272333" lon="10.87425"><ele>162.0</ele><time>2026-04-25T11:07:59.722Z</time></trkpt><trkpt lat="43.02708" lon="10.87401"><ele>162.0</ele><time>2026-04-25T11:08:00.722Z</time></trkpt><trkpt lat="43.02693" lon="10.8737617"><ele>162.0</ele><time>2026-04-25T11:08:01.721Z</time></trkpt><trkpt lat="43.02678" lon="10.873515"><ele>161.0</ele><time>2026-04-25T11:08:02.721Z</time></trkpt><trkpt lat="43.0266283" lon="10.8732717"><ele>160.0</ele><time>2026-04-25T11:08:03.722Z</time></trkpt><trkpt lat="43.0264767" lon="10.873025"><ele>160.0</ele><time>2026-04-25T11:08:04.722Z</time></trkpt><trkpt lat="43.0263217" lon="10.8727783"><ele>160.0</ele><time>2026-04-25T11:08:05.722Z</time></trkpt><trkpt lat="43.0261683" lon="10.8725233"><ele>160.5</ele><time>2026-04-25T11:08:06.723Z</time></trkpt><trkpt lat="43.0260133" lon="10.87227"><ele>161.0</ele><time>2026-04-25T11:08:07.721Z</time></trkpt><trkpt lat="43.0258583" lon="10.8720133"><ele>162.0</ele><time>2026-04-25T11:08:08.721Z</time></trkpt><trkpt lat="43.0257017" lon="10.87175"><ele>163.0</ele><time>2026-04-25T11:08:09.724Z</time></trkpt><trkpt lat="43.0255433" lon="10.8714933"><ele>163.0</ele><time>2026-04-25T11:08:10.723Z</time></trkpt><trkpt lat="43.0253767" lon="10.8712333"><ele>163.0</ele><time>2026-04-25T11:08:11.724Z</time></trkpt><trkpt lat="43.0252117" lon="10.8709733"><ele>163.0</ele><time>2026-04-25T11:08:12.724Z</time></trkpt><trkpt lat="43.0250467" lon="10.8707117"><ele>163.0</ele><time>2026-04-25T11:08:13.724Z</time></trkpt><trkpt lat="43.02488" lon="10.8704483"><ele>163.5</ele><time>2026-04-25T11:08:14.724Z</time></trkpt><trkpt lat="43.024715" lon="10.8701817"><ele>164.0</ele><time>2026-04-25T11:08:15.724Z</time></trkpt><trkpt lat="43.0245517" lon="10.869915"><ele>165.0</ele><time>2026-04-25T11:08:16.725Z</time></trkpt><trkpt lat="43.02439" lon="10.8696483"><ele>166.0</ele><time>2026-04-25T11:08:17.724Z</time></trkpt><trkpt lat="43.0242283" lon="10.8693783"><ele>172.0</ele><time>2026-04-25T11:08:18.725Z</time></trkpt><trkpt lat="43.0240733" lon="10.8691017"><ele>178.0</ele><time>2026-04-25T11:08:19.726Z</time></trkpt><trkpt lat="43.0239367" lon="10.8688133"><ele>178.0</ele><time>2026-04-25T11:08:20.726Z</time></trkpt><trkpt lat="43.02382" lon="10.8685067"><ele>178.0</ele><time>2026-04-25T11:08:21.726Z</time></trkpt><trkpt lat="43.0237233" lon="10.8681917"><ele>174.5</ele><time>2026-04-25T11:08:22.725Z</time></trkpt><trkpt lat="43.0236333" lon="10.8678717"><ele>171.0</ele><time>2026-04-25T11:08:23.727Z</time></trkpt><trkpt lat="43.0235483" lon="10.8675483"><ele>168.5</ele><time>2026-04-25T11:08:24.723Z</time></trkpt><trkpt lat="43.0234633" lon="10.8672283"><ele>166.0</ele><time>2026-04-25T11:08:25.723Z</time></trkpt><trkpt lat="43.0233733" lon="10.8669067"><ele>169.0</ele><time>2026-04-25T11:08:26.725Z</time></trkpt><trkpt lat="43.0232833" lon="10.8665783"><ele>172.0</ele><time>2026-04-25T11:08:27.726Z</time></trkpt><trkpt lat="43.023195" lon="10.8662533"><ele>171.0</ele><time>2026-04-25T11:08:28.724Z</time></trkpt><trkpt lat="43.023105" lon="10.8659317"><ele>170.0</ele><time>2026-04-25T11:08:29.724Z</time></trkpt><trkpt lat="43.0230133" lon="10.86561"><ele>170.0</ele><time>2026-04-25T11:08:30.725Z</time></trkpt><trkpt lat="43.0229217" lon="10.865285"><ele>170.0</ele><time>2026-04-25T11:08:31.725Z</time></trkpt><trkpt lat="43.02283" lon="10.864955"><ele>169.0</ele><time>2026-04-25T11:08:32.724Z</time></trkpt><trkpt lat="43.022735" lon="10.8646217"><ele>168.0</ele><time>2026-04-25T11:08:33.723Z</time></trkpt><trkpt lat="43.022635" lon="10.8642967"><ele>165.0</ele><time>2026-04-25T11:08:34.725Z</time></trkpt><trkpt lat="43.0225333" lon="10.8639717"><ele>162.0</ele><time>2026-04-25T11:08:35.725Z</time></trkpt><trkpt lat="43.02242" lon="10.863655"><ele>169.0</ele><time>2026-04-25T11:08:36.723Z</time></trkpt><trkpt lat="43.0222933" lon="10.8633483"><ele>176.0</ele><time>2026-04-25T11:08:37.724Z</time></trkpt><trkpt lat="43.0221533" lon="10.8630533"><ele>176.0</ele><time>2026-04-25T11:08:38.722Z</time></trkpt><trkpt lat="43.022" lon="10.8627633"><ele>176.0</ele><time>2026-04-25T11:08:39.721Z</time></trkpt><trkpt lat="43.021835" lon="10.8624883"><ele>172.0</ele><time>2026-04-25T11:08:40.723Z</time></trkpt><trkpt lat="43.0216567" lon="10.8622317"><ele>168.0</ele><time>2026-04-25T11:08:41.726Z</time></trkpt><trkpt lat="43.021465" lon="10.8619917"><ele>164.0</ele><time>2026-04-25T11:08:42.724Z</time></trkpt><trkpt lat="43.02126" lon="10.861765"><ele>160.0</ele><time>2026-04-25T11:08:43.724Z</time></trkpt><trkpt lat="43.0210417" lon="10.8615517"><ele>161.0</ele><time>2026-04-25T11:08:44.724Z</time></trkpt><trkpt lat="43.0208133" lon="10.8613667"><ele>162.0</ele><time>2026-04-25T11:08:45.723Z</time></trkpt><trkpt lat="43.0205783" lon="10.8611967"><ele>162.0</ele><time>2026-04-25T11:08:46.724Z</time></trkpt><trkpt lat="43.0203383" lon="10.861035"><ele>162.0</ele><time>2026-04-25T11:08:47.724Z</time></trkpt><trkpt lat="43.0200967" lon="10.86088"><ele>160.5</ele><time>2026-04-25T11:08:48.726Z</time></trkpt><trkpt lat="43.019855" lon="10.8607317"><ele>159.0</ele><time>2026-04-25T11:08:49.725Z</time></trkpt><trkpt lat="43.0196133" lon="10.8605817"><ele>159.0</ele><time>2026-04-25T11:08:50.724Z</time></trkpt><trkpt lat="43.01937" lon="10.8604267"><ele>159.0</ele><time>2026-04-25T11:08:51.724Z</time></trkpt><trkpt lat="43.0191267" lon="10.86027"><ele>158.0</ele><time>2026-04-25T11:08:52.724Z</time></trkpt><trkpt lat="43.0188817" lon="10.8601133"><ele>157.0</ele><time>2026-04-25T11:08:53.726Z</time></trkpt><trkpt lat="43.0186383" lon="10.8599567"><ele>157.0</ele><time>2026-04-25T11:08:54.725Z</time></trkpt><trkpt lat="43.018395" lon="10.8598033"><ele>157.0</ele><time>2026-04-25T11:08:55.724Z</time></trkpt><trkpt lat="43.018155" lon="10.8596483"><ele>157.5</ele><time>2026-04-25T11:08:56.725Z</time></trkpt><trkpt lat="43.017915" lon="10.8594933"><ele>158.0</ele><time>2026-04-25T11:08:57.725Z</time></trkpt><trkpt lat="43.0176733" lon="10.85934"><ele>157.0</ele><time>2026-04-25T11:08:58.726Z</time></trkpt><trkpt lat="43.0174333" lon="10.8591867"><ele>156.0</ele><time>2026-04-25T11:08:59.726Z</time></trkpt><trkpt lat="43.0171917" lon="10.8590317"><ele>156.0</ele><time>2026-04-25T11:09:00.724Z</time></trkpt><trkpt lat="43.01695" lon="10.858875"><ele>156.0</ele><time>2026-04-25T11:09:01.725Z</time></trkpt><trkpt lat="43.01671" lon="10.8587233"><ele>155.0</ele><time>2026-04-25T11:09:02.725Z</time></trkpt><trkpt lat="43.0164683" lon="10.8585717"><ele>154.0</ele><time>2026-04-25T11:09:03.726Z</time></trkpt><trkpt lat="43.0162267" lon="10.8584183"><ele>154.0</ele><time>2026-04-25T11:09:04.726Z</time></trkpt><trkpt lat="43.0159833" lon="10.858265"><ele>154.0</ele><time>2026-04-25T11:09:05.725Z</time></trkpt><trkpt lat="43.0157417" lon="10.8581167"><ele>154.0</ele><time>2026-04-25T11:09:06.726Z</time></trkpt><trkpt lat="43.0154967" lon="10.8579783"><ele>154.0</ele><time>2026-04-25T11:09:07.724Z</time></trkpt><trkpt lat="43.015255" lon="10.85783"><ele>154.0</ele><time>2026-04-25T11:09:08.723Z</time></trkpt><trkpt lat="43.0150133" lon="10.8576883"><ele>154.0</ele><time>2026-04-25T11:09:09.725Z</time></trkpt><trkpt lat="43.0147717" lon="10.857545"><ele>153.0</ele><time>2026-04-25T11:09:10.726Z</time></trkpt><trkpt lat="43.0145317" lon="10.8574017"><ele>152.0</ele><time>2026-04-25T11:09:11.723Z</time></trkpt><trkpt lat="43.014295" lon="10.8572567"><ele>153.0</ele><time>2026-04-25T11:09:12.727Z</time></trkpt><trkpt lat="43.0140583" lon="10.857115"><ele>154.0</ele><time>2026-04-25T11:09:13.723Z</time></trkpt><trkpt lat="43.0138217" lon="10.85697"><ele>154.0</ele><time>2026-04-25T11:09:14.727Z</time></trkpt><trkpt lat="43.0135883" lon="10.8568233"><ele>154.0</ele><time>2026-04-25T11:09:15.724Z</time></trkpt><trkpt lat="43.0133533" lon="10.8566783"><ele>155.0</ele><time>2026-04-25T11:09:16.725Z</time></trkpt><trkpt lat="43.01312" lon="10.8565383"><ele>156.0</ele><time>2026-04-25T11:09:17.724Z</time></trkpt><trkpt lat="43.0128917" lon="10.8563933"><ele>156.0</ele><time>2026-04-25T11:09:18.723Z</time></trkpt><trkpt lat="43.0126717" lon="10.8562367"><ele>156.0</ele><time>2026-04-25T11:09:19.724Z</time></trkpt><trkpt lat="43.012455" lon="10.8560633"><ele>155.5</ele><time>2026-04-25T11:09:20.726Z</time></trkpt><trkpt lat="43.0122467" lon="10.8558683"><ele>155.0</ele><time>2026-04-25T11:09:21.724Z</time></trkpt><trkpt lat="43.0120417" lon="10.855665"><ele>155.0</ele><time>2026-04-25T11:09:22.724Z</time></trkpt><trkpt lat="43.0118367" lon="10.8554617"><ele>155.0</ele><time>2026-04-25T11:09:23.724Z</time></trkpt><trkpt lat="43.011635" lon="10.855255"><ele>153.5</ele><time>2026-04-25T11:09:24.722Z</time></trkpt><trkpt lat="43.011435" lon="10.8550467"><ele>152.0</ele><time>2026-04-25T11:09:25.725Z</time></trkpt><trkpt lat="43.011235" lon="10.854835"><ele>152.0</ele><time>2026-04-25T11:09:26.726Z</time></trkpt><trkpt lat="43.011035" lon="10.85463"><ele>152.0</ele><time>2026-04-25T11:09:27.727Z</time></trkpt><trkpt lat="43.0108333" lon="10.8544267"><ele>153.0</ele><time>2026-04-25T11:09:28.726Z</time></trkpt><trkpt lat="43.0106333" lon="10.85422"><ele>154.0</ele><time>2026-04-25T11:09:29.723Z</time></trkpt><trkpt lat="43.0104333" lon="10.854015"><ele>154.0</ele><time>2026-04-25T11:09:30.727Z</time></trkpt><trkpt lat="43.0102317" lon="10.8538083"><ele>154.0</ele><time>2026-04-25T11:09:31.727Z</time></trkpt><trkpt lat="43.0100283" lon="10.8536017"><ele>153.0</ele><time>2026-04-25T11:09:32.726Z</time></trkpt><trkpt lat="43.009825" lon="10.853395"><ele>152.0</ele><time>2026-04-25T11:09:33.725Z</time></trkpt><trkpt lat="43.00962" lon="10.853185"><ele>152.0</ele><time>2026-04-25T11:09:34.725Z</time></trkpt><trkpt lat="43.0094117" lon="10.852975"><ele>152.0</ele><time>2026-04-25T11:09:35.726Z</time></trkpt><trkpt lat="43.0092033" lon="10.8527633"><ele>151.0</ele><time>2026-04-25T11:09:36.724Z</time></trkpt><trkpt lat="43.008995" lon="10.85255"><ele>150.0</ele><time>2026-04-25T11:09:37.726Z</time></trkpt><trkpt lat="43.0087883" lon="10.8523417"><ele>150.0</ele><time>2026-04-25T11:09:38.725Z</time></trkpt><trkpt lat="43.00858" lon="10.85213"><ele>150.0</ele><time>2026-04-25T11:09:39.724Z</time></trkpt><trkpt lat="43.0083717" lon="10.851925"><ele>149.0</ele><time>2026-04-25T11:09:40.724Z</time></trkpt><trkpt lat="43.0081633" lon="10.8517167"><ele>148.0</ele><time>2026-04-25T11:09:41.724Z</time></trkpt><trkpt lat="43.0079583" lon="10.8515117"><ele>148.0</ele><time>2026-04-25T11:09:42.727Z</time></trkpt><trkpt lat="43.0077517" lon="10.8513083"><ele>148.0</ele><time>2026-04-25T11:09:43.723Z</time></trkpt><trkpt lat="43.0075467" lon="10.8511067"><ele>147.5</ele><time>2026-04-25T11:09:44.726Z</time></trkpt><trkpt lat="43.0073433" lon="10.8509083"><ele>147.0</ele><time>2026-04-25T11:09:45.723Z</time></trkpt><trkpt lat="43.0071417" lon="10.8507033"><ele>147.0</ele><time>2026-04-25T11:09:46.726Z</time></trkpt><trkpt lat="43.0069417" lon="10.8505033"><ele>147.0</ele><time>2026-04-25T11:09:47.722Z</time></trkpt><trkpt lat="43.0067467" lon="10.8503033"><ele>145.5</ele><time>2026-04-25T11:09:48.724Z</time></trkpt><trkpt lat="43.00655" lon="10.8501067"><ele>144.0</ele><time>2026-04-25T11:09:49.725Z</time></trkpt><trkpt lat="43.0063583" lon="10.84991"><ele>144.0</ele><time>2026-04-25T11:09:50.726Z</time></trkpt><trkpt lat="43.006165" lon="10.8497183"><ele>144.0</ele><time>2026-04-25T11:09:51.726Z</time></trkpt><trkpt lat="43.0059717" lon="10.8495267"><ele>144.0</ele><time>2026-04-25T11:09:52.725Z</time></trkpt><trkpt lat="43.0057767" lon="10.8493333"><ele>144.0</ele><time>2026-04-25T11:09:53.724Z</time></trkpt><trkpt lat="43.0055833" lon="10.84914"><ele>143.5</ele><time>2026-04-25T11:09:54.724Z</time></trkpt><trkpt lat="43.0053933" lon="10.84895"><ele>143.0</ele><time>2026-04-25T11:09:55.722Z</time></trkpt><trkpt lat="43.0052033" lon="10.848755"><ele>143.0</ele><time>2026-04-25T11:09:56.727Z</time></trkpt><trkpt lat="43.0050133" lon="10.84856"><ele>143.0</ele><time>2026-04-25T11:09:57.726Z</time></trkpt><trkpt lat="43.0048217" lon="10.8483617"><ele>142.0</ele><time>2026-04-25T11:09:58.723Z</time></trkpt><trkpt lat="43.00463" lon="10.848165"><ele>141.0</ele><time>2026-04-25T11:09:59.724Z</time></trkpt><trkpt lat="43.0044367" lon="10.8479683"><ele>141.0</ele><time>2026-04-25T11:10:00.725Z</time></trkpt><trkpt lat="43.0042433" lon="10.8477717"><ele>141.0</ele><time>2026-04-25T11:10:01.725Z</time></trkpt><trkpt lat="43.00405" lon="10.84757"><ele>140.0</ele><time>2026-04-25T11:10:02.725Z</time></trkpt><trkpt lat="43.003855" lon="10.84737"><ele>139.0</ele><time>2026-04-25T11:10:03.727Z</time></trkpt><trkpt lat="43.003655" lon="10.8471783"><ele>139.0</ele><time>2026-04-25T11:10:04.725Z</time></trkpt><trkpt lat="43.0034533" lon="10.8469967"><ele>139.0</ele><time>2026-04-25T11:10:05.726Z</time></trkpt><trkpt lat="43.0032433" lon="10.8468267"><ele>136.5</ele><time>2026-04-25T11:10:06.725Z</time></trkpt><trkpt lat="43.0030267" lon="10.8466683"><ele>134.0</ele><time>2026-04-25T11:10:07.726Z</time></trkpt><trkpt lat="43.0028" lon="10.84652"><ele>134.0</ele><time>2026-04-25T11:10:08.726Z</time></trkpt><trkpt lat="43.0025733" lon="10.8463883"><ele>134.0</ele><time>2026-04-25T11:10:09.727Z</time></trkpt><trkpt lat="43.00234" lon="10.8462767"><ele>132.5</ele><time>2026-04-25T11:10:10.724Z</time></trkpt><trkpt lat="43.0021067" lon="10.8461733"><ele>131.0</ele><time>2026-04-25T11:10:11.724Z</time></trkpt><trkpt lat="43.0018683" lon="10.84609"><ele>129.5</ele><time>2026-04-25T11:10:12.724Z</time></trkpt><trkpt lat="43.0016267" lon="10.8460167"><ele>128.0</ele><time>2026-04-25T11:10:13.723Z</time></trkpt><trkpt lat="43.0013817" lon="10.84595"><ele>125.5</ele><time>2026-04-25T11:10:14.726Z</time></trkpt><trkpt lat="43.0011383" lon="10.8458883"><ele>123.0</ele><time>2026-04-25T11:10:15.724Z</time></trkpt><trkpt lat="43.0008967" lon="10.8458267"><ele>119.5</ele><time>2026-04-25T11:10:16.726Z</time></trkpt><trkpt lat="43.000655" lon="10.8457633"><ele>116.0</ele><time>2026-04-25T11:10:17.725Z</time></trkpt><trkpt lat="43.0004117" lon="10.845695"><ele>116.0</ele><time>2026-04-25T11:10:18.722Z</time></trkpt><trkpt lat="43.0001717" lon="10.84562"><ele>116.0</ele><time>2026-04-25T11:10:19.724Z</time></trkpt><trkpt lat="42.9999367" lon="10.84553"><ele>116.0</ele><time>2026-04-25T11:10:20.726Z</time></trkpt><trkpt lat="42.9997033" lon="10.845425"><ele>116.0</ele><time>2026-04-25T11:10:21.723Z</time></trkpt><trkpt lat="42.9994767" lon="10.845305"><ele>116.0</ele><time>2026-04-25T11:10:22.726Z</time></trkpt><trkpt lat="42.999255" lon="10.8451667"><ele>116.0</ele><time>2026-04-25T11:10:23.724Z</time></trkpt><trkpt lat="42.99904" lon="10.8450083"><ele>113.0</ele><time>2026-04-25T11:10:24.723Z</time></trkpt><trkpt lat="42.9988333" lon="10.8448333"><ele>110.0</ele><time>2026-04-25T11:10:25.725Z</time></trkpt><trkpt lat="42.9986333" lon="10.8446433"><ele>110.0</ele><time>2026-04-25T11:10:26.726Z</time></trkpt><trkpt lat="42.998435" lon="10.844445"><ele>110.0</ele><time>2026-04-25T11:10:27.725Z</time></trkpt><trkpt lat="42.9982383" lon="10.8442433"><ele>107.0</ele><time>2026-04-25T11:10:28.726Z</time></trkpt><trkpt lat="42.998045" lon="10.8440383"><ele>104.0</ele><time>2026-04-25T11:10:29.727Z</time></trkpt><trkpt lat="42.997855" lon="10.8438283"><ele>104.0</ele><time>2026-04-25T11:10:30.726Z</time></trkpt><trkpt lat="42.9976667" lon="10.84362"><ele>104.0</ele><time>2026-04-25T11:10:31.726Z</time></trkpt><trkpt lat="42.9974783" lon="10.843415"><ele>103.0</ele><time>2026-04-25T11:10:32.725Z</time></trkpt><trkpt lat="42.9972867" lon="10.8432117"><ele>102.0</ele><time>2026-04-25T11:10:33.726Z</time></trkpt><trkpt lat="42.9970967" lon="10.8430117"><ele>102.0</ele><time>2026-04-25T11:10:34.725Z</time></trkpt><trkpt lat="42.99691" lon="10.8428067"><ele>102.0</ele><time>2026-04-25T11:10:35.724Z</time></trkpt><trkpt lat="42.9967233" lon="10.8426017"><ele>100.0</ele><time>2026-04-25T11:10:36.725Z</time></trkpt><trkpt lat="42.99654" lon="10.8423983"><ele>98.0</ele><time>2026-04-25T11:10:37.725Z</time></trkpt><trkpt lat="42.9963517" lon="10.8421917"><ele>98.0</ele><time>2026-04-25T11:10:38.726Z</time></trkpt><trkpt lat="42.9961667" lon="10.8419817"><ele>98.0</ele><time>2026-04-25T11:10:39.724Z</time></trkpt><trkpt lat="42.99598" lon="10.84177"><ele>96.5</ele><time>2026-04-25T11:10:40.726Z</time></trkpt><trkpt lat="42.9957917" lon="10.84156"><ele>95.0</ele><time>2026-04-25T11:10:41.723Z</time></trkpt><trkpt lat="42.9956" lon="10.8413517"><ele>95.0</ele><time>2026-04-25T11:10:42.724Z</time></trkpt><trkpt lat="42.9954067" lon="10.8411433"><ele>95.0</ele><time>2026-04-25T11:10:43.726Z</time></trkpt><trkpt lat="42.9952117" lon="10.8409333"><ele>94.0</ele><time>2026-04-25T11:10:44.726Z</time></trkpt><trkpt lat="42.9950167" lon="10.8407217"><ele>93.0</ele><time>2026-04-25T11:10:45.726Z</time></trkpt><trkpt lat="42.9948183" lon="10.8405117"><ele>92.0</ele><time>2026-04-25T11:10:46.725Z</time></trkpt><trkpt lat="42.9946267" lon="10.840305"><ele>91.0</ele><time>2026-04-25T11:10:47.723Z</time></trkpt><trkpt lat="42.99444" lon="10.8401033"><ele>90.5</ele><time>2026-04-25T11:10:48.723Z</time></trkpt><trkpt lat="42.9942567" lon="10.8399033"><ele>90.0</ele><time>2026-04-25T11:10:49.722Z</time></trkpt><trkpt lat="42.994075" lon="10.8397017"><ele>89.0</ele><time>2026-04-25T11:10:50.726Z</time></trkpt><trkpt lat="42.99389" lon="10.8395017"><ele>88.0</ele><time>2026-04-25T11:10:51.724Z</time></trkpt><trkpt lat="42.993705" lon="10.8393"><ele>87.5</ele><time>2026-04-25T11:10:52.725Z</time></trkpt><trkpt lat="42.9935167" lon="10.839095"><ele>87.0</ele><time>2026-04-25T11:10:53.724Z</time></trkpt><trkpt lat="42.9933317" lon="10.8388867"><ele>87.0</ele><time>2026-04-25T11:10:54.723Z</time></trkpt><trkpt lat="42.993155" lon="10.8386717"><ele>87.0</ele><time>2026-04-25T11:10:55.725Z</time></trkpt><trkpt lat="42.9929833" lon="10.838445"><ele>86.5</ele><time>2026-04-25T11:10:56.727Z</time></trkpt><trkpt lat="42.9928183" lon="10.8382017"><ele>86.0</ele><time>2026-04-25T11:10:57.725Z</time></trkpt><trkpt lat="42.9926617" lon="10.83795"><ele>86.0</ele><time>2026-04-25T11:10:58.726Z</time></trkpt><trkpt lat="42.9925167" lon="10.837685"><ele>86.0</ele><time>2026-04-25T11:10:59.723Z</time></trkpt><trkpt lat="42.9923817" lon="10.83742"><ele>84.0</ele><time>2026-04-25T11:11:00.725Z</time></trkpt><trkpt lat="42.992255" lon="10.8371633"><ele>82.0</ele><time>2026-04-25T11:11:01.724Z</time></trkpt><trkpt lat="42.99213" lon="10.8369033"><ele>80.5</ele><time>2026-04-25T11:11:02.725Z</time></trkpt><trkpt lat="42.992" lon="10.8366483"><ele>79.0</ele><time>2026-04-25T11:11:03.725Z</time></trkpt><trkpt lat="42.9918783" lon="10.83639"><ele>79.0</ele><time>2026-04-25T11:11:04.725Z</time></trkpt><trkpt lat="42.9917633" lon="10.8361383"><ele>79.0</ele><time>2026-04-25T11:11:05.727Z</time></trkpt><trkpt lat="42.9916483" lon="10.8359"><ele>79.0</ele><time>2026-04-25T11:11:06.725Z</time></trkpt><trkpt lat="42.991525" lon="10.8356667"><ele>77.5</ele><time>2026-04-25T11:11:07.725Z</time></trkpt><trkpt lat="42.9913883" lon="10.8354317"><ele>76.0</ele><time>2026-04-25T11:11:08.725Z</time></trkpt><trkpt lat="42.9912417" lon="10.835175"><ele>75.5</ele><time>2026-04-25T11:11:09.725Z</time></trkpt><trkpt lat="42.99109" lon="10.834905"><ele>75.0</ele><time>2026-04-25T11:11:10.724Z</time></trkpt><trkpt lat="42.99093" lon="10.8346333"><ele>75.0</ele><time>2026-04-25T11:11:11.724Z</time></trkpt><trkpt lat="42.9907633" lon="10.83438"><ele>75.0</ele><time>2026-04-25T11:11:12.723Z</time></trkpt><trkpt lat="42.990585" lon="10.8341483"><ele>74.5</ele><time>2026-04-25T11:11:13.724Z</time></trkpt><trkpt lat="42.9903967" lon="10.8339333"><ele>74.0</ele><time>2026-04-25T11:11:14.725Z</time></trkpt><trkpt lat="42.99021" lon="10.83373"><ele>74.0</ele><time>2026-04-25T11:11:15.724Z</time></trkpt><trkpt lat="42.990025" lon="10.8335267"><ele>74.0</ele><time>2026-04-25T11:11:16.725Z</time></trkpt><trkpt lat="42.989845" lon="10.8333183"><ele>72.5</ele><time>2026-04-25T11:11:17.727Z</time></trkpt><trkpt lat="42.9896667" lon="10.8331067"><ele>71.0</ele><time>2026-04-25T11:11:18.724Z</time></trkpt><trkpt lat="42.9894917" lon="10.832895"><ele>71.0</ele><time>2026-04-25T11:11:19.725Z</time></trkpt><trkpt lat="42.9893133" lon="10.8326867"><ele>71.0</ele><time>2026-04-25T11:11:20.725Z</time></trkpt><trkpt lat="42.9891367" lon="10.8324733"><ele>72.0</ele><time>2026-04-25T11:11:21.725Z</time></trkpt><trkpt lat="42.98896" lon="10.8322583"><ele>73.0</ele><time>2026-04-25T11:11:22.725Z</time></trkpt><trkpt lat="42.988785" lon="10.832045"><ele>73.0</ele><time>2026-04-25T11:11:23.726Z</time></trkpt><trkpt lat="42.98861" lon="10.8318317"><ele>73.0</ele><time>2026-04-25T11:11:24.722Z</time></trkpt><trkpt lat="42.9884333" lon="10.8316217"><ele>70.0</ele><time>2026-04-25T11:11:25.724Z</time></trkpt><trkpt lat="42.988255" lon="10.8314083"><ele>67.0</ele><time>2026-04-25T11:11:26.726Z</time></trkpt><trkpt lat="42.98808" lon="10.8311967"><ele>67.0</ele><time>2026-04-25T11:11:27.723Z</time></trkpt><trkpt lat="42.9879" lon="10.830985"><ele>67.0</ele><time>2026-04-25T11:11:28.724Z</time></trkpt><trkpt lat="42.9877183" lon="10.8307717"><ele>67.0</ele><time>2026-04-25T11:11:29.724Z</time></trkpt><trkpt lat="42.9875367" lon="10.8305583"><ele>67.0</ele><time>2026-04-25T11:11:30.724Z</time></trkpt><trkpt lat="42.987355" lon="10.8303433"><ele>65.5</ele><time>2026-04-25T11:11:31.728Z</time></trkpt><trkpt lat="42.987175" lon="10.8301283"><ele>64.0</ele><time>2026-04-25T11:11:32.725Z</time></trkpt><trkpt lat="42.9869967" lon="10.8299133"><ele>64.0</ele><time>2026-04-25T11:11:33.725Z</time></trkpt><trkpt lat="42.986815" lon="10.8296967"><ele>64.0</ele><time>2026-04-25T11:11:34.723Z</time></trkpt><trkpt lat="42.9866333" lon="10.82948"><ele>63.5</ele><time>2026-04-25T11:11:35.727Z</time></trkpt><trkpt lat="42.9864517" lon="10.82926"><ele>63.0</ele><time>2026-04-25T11:11:36.726Z</time></trkpt><trkpt lat="42.9862683" lon="10.8290417"><ele>63.0</ele><time>2026-04-25T11:11:37.726Z</time></trkpt><trkpt lat="42.9860833" lon="10.8288233"><ele>63.0</ele><time>2026-04-25T11:11:38.725Z</time></trkpt><trkpt lat="42.9859017" lon="10.8286017"><ele>61.5</ele><time>2026-04-25T11:11:39.725Z</time></trkpt><trkpt lat="42.98572" lon="10.8283817"><ele>60.0</ele><time>2026-04-25T11:11:40.724Z</time></trkpt><trkpt lat="42.9855367" lon="10.8281617"><ele>60.0</ele><time>2026-04-25T11:11:41.725Z</time></trkpt><trkpt lat="42.985355" lon="10.827945"><ele>60.0</ele><time>2026-04-25T11:11:42.727Z</time></trkpt><trkpt lat="42.9851767" lon="10.827725"><ele>60.0</ele><time>2026-04-25T11:11:43.725Z</time></trkpt><trkpt lat="42.9849983" lon="10.827505"><ele>60.0</ele><time>2026-04-25T11:11:44.725Z</time></trkpt><trkpt lat="42.9848183" lon="10.827285"><ele>60.0</ele><time>2026-04-25T11:11:45.723Z</time></trkpt><trkpt lat="42.9846383" lon="10.8270633"><ele>60.0</ele><time>2026-04-25T11:11:46.727Z</time></trkpt><trkpt lat="42.98446" lon="10.82684"><ele>60.0</ele><time>2026-04-25T11:11:47.724Z</time></trkpt><trkpt lat="42.98428" lon="10.8266167"><ele>60.0</ele><time>2026-04-25T11:11:48.723Z</time></trkpt><trkpt lat="42.9840983" lon="10.826395"><ele>60.0</ele><time>2026-04-25T11:11:49.721Z</time></trkpt><trkpt lat="42.9839167" lon="10.826175"><ele>60.0</ele><time>2026-04-25T11:11:50.723Z</time></trkpt><trkpt lat="42.9837317" lon="10.825955"><ele>58.5</ele><time>2026-04-25T11:11:51.723Z</time></trkpt><trkpt lat="42.98355" lon="10.825735"><ele>57.0</ele><time>2026-04-25T11:11:52.723Z</time></trkpt><trkpt lat="42.9833717" lon="10.8255167"><ele>56.5</ele><time>2026-04-25T11:11:53.723Z</time></trkpt><trkpt lat="42.9831917" lon="10.8252967"><ele>56.0</ele><time>2026-04-25T11:11:54.723Z</time></trkpt><trkpt lat="42.983015" lon="10.8250767"><ele>56.0</ele><time>2026-04-25T11:11:55.722Z</time></trkpt><trkpt lat="42.982835" lon="10.8248517"><ele>56.0</ele><time>2026-04-25T11:11:56.726Z</time></trkpt><trkpt lat="42.9826567" lon="10.8246283"><ele>55.5</ele><time>2026-04-25T11:11:57.724Z</time></trkpt><trkpt lat="42.9824767" lon="10.824405"><ele>55.0</ele><time>2026-04-25T11:11:58.724Z</time></trkpt><trkpt lat="42.982295" lon="10.82418"><ele>54.5</ele><time>2026-04-25T11:11:59.727Z</time></trkpt><trkpt lat="42.98211" lon="10.823955"><ele>54.0</ele><time>2026-04-25T11:12:00.723Z</time></trkpt><trkpt lat="42.9819267" lon="10.8237333"><ele>54.0</ele><time>2026-04-25T11:12:01.725Z</time></trkpt><trkpt lat="42.9817433" lon="10.8235067"><ele>54.0</ele><time>2026-04-25T11:12:02.724Z</time></trkpt><trkpt lat="42.9815583" lon="10.8232817"><ele>53.0</ele><time>2026-04-25T11:12:03.725Z</time></trkpt><trkpt lat="42.9813733" lon="10.82306"><ele>52.0</ele><time>2026-04-25T11:12:04.723Z</time></trkpt><trkpt lat="42.98119" lon="10.8228367"><ele>51.5</ele><time>2026-04-25T11:12:05.723Z</time></trkpt><trkpt lat="42.981005" lon="10.82261"><ele>51.0</ele><time>2026-04-25T11:12:06.725Z</time></trkpt><trkpt lat="42.9808217" lon="10.8223867"><ele>51.0</ele><time>2026-04-25T11:12:07.726Z</time></trkpt><trkpt lat="42.980635" lon="10.822165"><ele>51.0</ele><time>2026-04-25T11:12:08.724Z</time></trkpt><trkpt lat="42.98045" lon="10.8219433"><ele>50.5</ele><time>2026-04-25T11:12:09.726Z</time></trkpt><trkpt lat="42.9802667" lon="10.8217217"><ele>50.0</ele><time>2026-04-25T11:12:10.723Z</time></trkpt><trkpt lat="42.980085" lon="10.8215"><ele>50.0</ele><time>2026-04-25T11:12:11.725Z</time></trkpt><trkpt lat="42.9799017" lon="10.8212767"><ele>50.0</ele><time>2026-04-25T11:12:12.725Z</time></trkpt><trkpt lat="42.9797183" lon="10.82105"><ele>50.0</ele><time>2026-04-25T11:12:13.726Z</time></trkpt><trkpt lat="42.9795367" lon="10.8208233"><ele>50.0</ele><time>2026-04-25T11:12:14.726Z</time></trkpt><trkpt lat="42.9793517" lon="10.8205967"><ele>49.0</ele><time>2026-04-25T11:12:15.724Z</time></trkpt><trkpt lat="42.9791667" lon="10.8203733"><ele>48.0</ele><time>2026-04-25T11:12:16.724Z</time></trkpt><trkpt lat="42.97898" lon="10.820145"><ele>47.5</ele><time>2026-04-25T11:12:17.725Z</time></trkpt><trkpt lat="42.9787917" lon="10.8199167"><ele>47.0</ele><time>2026-04-25T11:12:18.723Z</time></trkpt><trkpt lat="42.9786033" lon="10.8196917"><ele>47.0</ele><time>2026-04-25T11:12:19.725Z</time></trkpt><trkpt lat="42.9784133" lon="10.8194667"><ele>47.0</ele><time>2026-04-25T11:12:20.725Z</time></trkpt><trkpt lat="42.9782233" lon="10.8192417"><ele>46.5</ele><time>2026-04-25T11:12:21.726Z</time></trkpt><trkpt lat="42.9780383" lon="10.8190167"><ele>46.0</ele><time>2026-04-25T11:12:22.724Z</time></trkpt><trkpt lat="42.977855" lon="10.818795"><ele>46.0</ele><time>2026-04-25T11:12:23.724Z</time></trkpt><trkpt lat="42.9776733" lon="10.8185783"><ele>46.0</ele><time>2026-04-25T11:12:24.723Z</time></trkpt><trkpt lat="42.977495" lon="10.8183617"><ele>44.5</ele><time>2026-04-25T11:12:25.726Z</time></trkpt><trkpt lat="42.9773167" lon="10.8181433"><ele>43.0</ele><time>2026-04-25T11:12:26.725Z</time></trkpt><trkpt lat="42.9771367" lon="10.81793"><ele>43.0</ele><time>2026-04-25T11:12:27.725Z</time></trkpt><trkpt lat="42.9769633" lon="10.81772"><ele>43.0</ele><time>2026-04-25T11:12:28.725Z</time></trkpt><trkpt lat="42.9767917" lon="10.8175133"><ele>43.333333333333336</ele><time>2026-04-25T11:12:29.725Z</time></trkpt><trkpt lat="42.9766233" lon="10.8173067"><ele>43.666666666666664</ele><time>2026-04-25T11:12:30.722Z</time></trkpt><trkpt lat="42.9764583" lon="10.817105"><ele>44.0</ele><time>2026-04-25T11:12:31.727Z</time></trkpt><trkpt lat="42.976295" lon="10.8169083"><ele>43.33333333333333</ele><time>2026-04-25T11:12:32.724Z</time></trkpt><trkpt lat="42.9761383" lon="10.8167217"><ele>42.666666666666664</ele><time>2026-04-25T11:12:33.725Z</time></trkpt><trkpt lat="42.9759917" lon="10.81654"><ele>42.0</ele><time>2026-04-25T11:12:34.724Z</time></trkpt><trkpt lat="42.975855" lon="10.81637"><ele>42.333333333333336</ele><time>2026-04-25T11:12:35.725Z</time></trkpt><trkpt lat="42.97572" lon="10.8162083"><ele>42.66666666666667</ele><time>2026-04-25T11:12:36.726Z</time></trkpt><trkpt lat="42.975595" lon="10.816055"><ele>43.0</ele><time>2026-04-25T11:12:37.723Z</time></trkpt><trkpt lat="42.9754817" lon="10.81591"><ele>42.25</ele><time>2026-04-25T11:12:38.726Z</time></trkpt><trkpt lat="42.9753717" lon="10.8157667"><ele>41.5</ele><time>2026-04-25T11:12:39.726Z</time></trkpt><trkpt lat="42.9752633" lon="10.815635"><ele>40.75</ele><time>2026-04-25T11:12:40.724Z</time></trkpt><trkpt lat="42.9751733" lon="10.81551"><ele>40.0</ele><time>2026-04-25T11:12:41.725Z</time></trkpt><trkpt lat="42.975105" lon="10.8153833"><ele>40.0</ele><time>2026-04-25T11:12:42.726Z</time></trkpt><trkpt lat="42.9750633" lon="10.815245"><ele>40.0</ele><time>2026-04-25T11:12:43.726Z</time></trkpt><trkpt lat="42.9750433" lon="10.8151117"><ele>40.0</ele><time>2026-04-25T11:12:44.726Z</time></trkpt><trkpt lat="42.9750183" lon="10.8149833"><ele>40.0</ele><time>2026-04-25T11:12:45.726Z</time></trkpt><trkpt lat="42.9749683" lon="10.81489"><ele>40.0</ele><time>2026-04-25T11:12:46.726Z</time></trkpt><trkpt lat="42.9748983" lon="10.8148217"><ele>39.75</ele><time>2026-04-25T11:12:47.726Z</time></trkpt><trkpt lat="42.9748083" lon="10.8147917"><ele>39.5</ele><time>2026-04-25T11:12:48.726Z</time></trkpt><trkpt lat="42.9747083" lon="10.814745"><ele>39.25</ele><time>2026-04-25T11:12:49.724Z</time></trkpt><trkpt lat="42.9745933" lon="10.8146633"><ele>39.0</ele><time>2026-04-25T11:12:50.725Z</time></trkpt><trkpt lat="42.9744717" lon="10.814545"><ele>39.0</ele><time>2026-04-25T11:12:51.723Z</time></trkpt><trkpt lat="42.9743367" lon="10.8143983"><ele>39.0</ele><time>2026-04-25T11:12:52.725Z</time></trkpt><trkpt lat="42.974195" lon="10.8142317"><ele>39.0</ele><time>2026-04-25T11:12:53.724Z</time></trkpt><trkpt lat="42.9740517" lon="10.81406"><ele>37.666666666666664</ele><time>2026-04-25T11:12:54.725Z</time></trkpt><trkpt lat="42.9739" lon="10.8138817"><ele>36.33333333333333</ele><time>2026-04-25T11:12:55.725Z</time></trkpt><trkpt lat="42.9737367" lon="10.8137"><ele>35.0</ele><time>2026-04-25T11:12:56.727Z</time></trkpt><trkpt lat="42.9735717" lon="10.8135167"><ele>34.0</ele><time>2026-04-25T11:12:57.725Z</time></trkpt><trkpt lat="42.973405" lon="10.8133317"><ele>33.0</ele><time>2026-04-25T11:12:58.727Z</time></trkpt><trkpt lat="42.9732367" lon="10.8131383"><ele>32.0</ele><time>2026-04-25T11:12:59.725Z</time></trkpt><trkpt lat="42.973065" lon="10.81294"><ele>31.0</ele><time>2026-04-25T11:13:00.726Z</time></trkpt><trkpt lat="42.97289" lon="10.81274"><ele>30.0</ele><time>2026-04-25T11:13:01.724Z</time></trkpt><trkpt lat="42.9727133" lon="10.8125367"><ele>30.0</ele><time>2026-04-25T11:13:02.725Z</time></trkpt><trkpt lat="42.9725333" lon="10.8123333"><ele>30.0</ele><time>2026-04-25T11:13:03.726Z</time></trkpt><trkpt lat="42.9723517" lon="10.8121267"><ele>29.5</ele><time>2026-04-25T11:13:04.724Z</time></trkpt><trkpt lat="42.9721733" lon="10.81192"><ele>29.0</ele><time>2026-04-25T11:13:05.726Z</time></trkpt><trkpt lat="42.9719983" lon="10.81171"><ele>29.0</ele><time>2026-04-25T11:13:06.725Z</time></trkpt><trkpt lat="42.97182" lon="10.8115"><ele>29.0</ele><time>2026-04-25T11:13:07.726Z</time></trkpt><trkpt lat="42.9716433" lon="10.81129"><ele>29.5</ele><time>2026-04-25T11:13:08.723Z</time></trkpt><trkpt lat="42.9714633" lon="10.8110817"><ele>30.0</ele><time>2026-04-25T11:13:09.725Z</time></trkpt><trkpt lat="42.9712817" lon="10.8108767"><ele>28.5</ele><time>2026-04-25T11:13:10.724Z</time></trkpt><trkpt lat="42.9711017" lon="10.81067"><ele>27.0</ele><time>2026-04-25T11:13:11.725Z</time></trkpt><trkpt lat="42.97092" lon="10.8104617"><ele>27.0</ele><time>2026-04-25T11:13:12.725Z</time></trkpt><trkpt lat="42.970735" lon="10.810255"><ele>27.0</ele><time>2026-04-25T11:13:13.726Z</time></trkpt><trkpt lat="42.9705517" lon="10.8100467"><ele>27.0</ele><time>2026-04-25T11:13:14.726Z</time></trkpt><trkpt lat="42.9703683" lon="10.8098367"><ele>27.0</ele><time>2026-04-25T11:13:15.724Z</time></trkpt><trkpt lat="42.97019" lon="10.8096267"><ele>26.666666666666664</ele><time>2026-04-25T11:13:16.726Z</time></trkpt><trkpt lat="42.9700167" lon="10.8094217"><ele>26.333333333333332</ele><time>2026-04-25T11:13:17.725Z</time></trkpt><trkpt lat="42.969855" lon="10.8092283"><ele>26.0</ele><time>2026-04-25T11:13:18.725Z</time></trkpt><trkpt lat="42.9697083" lon="10.80904"><ele>26.0</ele><time>2026-04-25T11:13:19.726Z</time></trkpt><trkpt lat="42.9695817" lon="10.80885"><ele>26.0</ele><time>2026-04-25T11:13:20.726Z</time></trkpt><trkpt lat="42.9694733" lon="10.8086383"><ele>26.0</ele><time>2026-04-25T11:13:21.725Z</time></trkpt><trkpt lat="42.96939" lon="10.808405"><ele>25.333333333333332</ele><time>2026-04-25T11:13:22.727Z</time></trkpt><trkpt lat="42.96933" lon="10.8081517"><ele>24.666666666666664</ele><time>2026-04-25T11:13:23.726Z</time></trkpt><trkpt lat="42.9692983" lon="10.8078917"><ele>24.0</ele><time>2026-04-25T11:13:24.725Z</time></trkpt><trkpt lat="42.9692933" lon="10.8076217"><ele>24.0</ele><time>2026-04-25T11:13:25.725Z</time></trkpt><trkpt lat="42.96932" lon="10.8073417"><ele>24.0</ele><time>2026-04-25T11:13:26.724Z</time></trkpt><trkpt lat="42.9693583" lon="10.8070633"><ele>24.0</ele><time>2026-04-25T11:13:27.724Z</time></trkpt><trkpt lat="42.9694017" lon="10.8067933"><ele>24.333333333333336</ele><time>2026-04-25T11:13:28.724Z</time></trkpt><trkpt lat="42.969445" lon="10.8065267"><ele>24.666666666666668</ele><time>2026-04-25T11:13:29.725Z</time></trkpt><trkpt lat="42.9694867" lon="10.8062783"><ele>25.0</ele><time>2026-04-25T11:13:30.726Z</time></trkpt><trkpt lat="42.9695217" lon="10.8060433"><ele>25.0</ele><time>2026-04-25T11:13:31.722Z</time></trkpt><trkpt lat="42.96954" lon="10.80581"><ele>25.0</ele><time>2026-04-25T11:13:32.725Z</time></trkpt><trkpt lat="42.969535" lon="10.805575"><ele>25.0</ele><time>2026-04-25T11:13:33.723Z</time></trkpt><trkpt lat="42.9695133" lon="10.8053433"><ele>25.0</ele><time>2026-04-25T11:13:34.727Z</time></trkpt><trkpt lat="42.9694783" lon="10.8051283"><ele>25.0</ele><time>2026-04-25T11:13:35.725Z</time></trkpt><trkpt lat="42.9694333" lon="10.80493"><ele>25.0</ele><time>2026-04-25T11:13:36.727Z</time></trkpt><trkpt lat="42.969385" lon="10.8047467"><ele>25.0</ele><time>2026-04-25T11:13:37.724Z</time></trkpt><trkpt lat="42.96934" lon="10.8045833"><ele>25.0</ele><time>2026-04-25T11:13:38.727Z</time></trkpt><trkpt lat="42.9693067" lon="10.8044233"><ele>25.0</ele><time>2026-04-25T11:13:39.726Z</time></trkpt><trkpt lat="42.9692783" lon="10.8042767"><ele>25.0</ele><time>2026-04-25T11:13:40.726Z</time></trkpt><trkpt lat="42.9692317" lon="10.80415"><ele>24.8</ele><time>2026-04-25T11:13:41.724Z</time></trkpt><trkpt lat="42.9691567" lon="10.8040717"><ele>24.6</ele><time>2026-04-25T11:13:42.726Z</time></trkpt><trkpt lat="42.9690567" lon="10.8040483"><ele>24.4</ele><time>2026-04-25T11:13:43.726Z</time></trkpt><trkpt lat="42.96895" lon="10.8040667"><ele>24.2</ele><time>2026-04-25T11:13:44.726Z</time></trkpt><trkpt lat="42.96883" lon="10.8041033"><ele>24.0</ele><time>2026-04-25T11:13:45.724Z</time></trkpt><trkpt lat="42.96869" lon="10.8041233"><ele>24.0</ele><time>2026-04-25T11:13:46.725Z</time></trkpt><trkpt lat="42.9685333" lon="10.8041033"><ele>24.0</ele><time>2026-04-25T11:13:47.727Z</time></trkpt><trkpt lat="42.9683583" lon="10.804045"><ele>24.0</ele><time>2026-04-25T11:13:48.726Z</time></trkpt><trkpt lat="42.96818" lon="10.8039683"><ele>23.333333333333332</ele><time>2026-04-25T11:13:49.726Z</time></trkpt><trkpt lat="42.968" lon="10.8038783"><ele>22.666666666666664</ele><time>2026-04-25T11:13:50.726Z</time></trkpt><trkpt lat="42.9678183" lon="10.803775"><ele>22.0</ele><time>2026-04-25T11:13:51.725Z</time></trkpt><trkpt lat="42.9676317" lon="10.80365"><ele>22.0</ele><time>2026-04-25T11:13:52.724Z</time></trkpt><trkpt lat="42.967445" lon="10.8035117"><ele>22.0</ele><time>2026-04-25T11:13:53.725Z</time></trkpt><trkpt lat="42.967255" lon="10.803355"><ele>22.0</ele><time>2026-04-25T11:13:54.724Z</time></trkpt><trkpt lat="42.9670683" lon="10.80319"><ele>22.0</ele><time>2026-04-25T11:13:55.726Z</time></trkpt><trkpt lat="42.9668817" lon="10.80302"><ele>22.0</ele><time>2026-04-25T11:13:56.726Z</time></trkpt><trkpt lat="42.966695" lon="10.8028433"><ele>21.5</ele><time>2026-04-25T11:13:57.724Z</time></trkpt><trkpt lat="42.9665" lon="10.8026717"><ele>21.0</ele><time>2026-04-25T11:13:58.725Z</time></trkpt><trkpt lat="42.9663017" lon="10.8024967"><ele>21.0</ele><time>2026-04-25T11:13:59.723Z</time></trkpt><trkpt lat="42.9661033" lon="10.8023167"><ele>21.0</ele><time>2026-04-25T11:14:00.725Z</time></trkpt><trkpt lat="42.9659" lon="10.80213"><ele>21.0</ele><time>2026-04-25T11:14:01.723Z</time></trkpt><trkpt lat="42.9656967" lon="10.8019533"><ele>21.0</ele><time>2026-04-25T11:14:02.723Z</time></trkpt><trkpt lat="42.9654983" lon="10.8017783"><ele>21.0</ele><time>2026-04-25T11:14:03.722Z</time></trkpt><trkpt lat="42.9652983" lon="10.8015983"><ele>21.0</ele><time>2026-04-25T11:14:04.723Z</time></trkpt><trkpt lat="42.965095" lon="10.801415"><ele>20.5</ele><time>2026-04-25T11:14:05.724Z</time></trkpt><trkpt lat="42.9648933" lon="10.8012317"><ele>20.0</ele><time>2026-04-25T11:14:06.726Z</time></trkpt><trkpt lat="42.9646917" lon="10.8010467"><ele>20.5</ele><time>2026-04-25T11:14:07.724Z</time></trkpt><trkpt lat="42.96449" lon="10.8008633"><ele>21.0</ele><time>2026-04-25T11:14:08.725Z</time></trkpt><trkpt lat="42.9642867" lon="10.8006783"><ele>21.0</ele><time>2026-04-25T11:14:09.726Z</time></trkpt><trkpt lat="42.9640767" lon="10.800495"><ele>21.0</ele><time>2026-04-25T11:14:10.724Z</time></trkpt><trkpt lat="42.963865" lon="10.800315"><ele>21.5</ele><time>2026-04-25T11:14:11.724Z</time></trkpt><trkpt lat="42.963655" lon="10.8001367"><ele>22.0</ele><time>2026-04-25T11:14:12.725Z</time></trkpt><trkpt lat="42.9634483" lon="10.79995"><ele>21.5</ele><time>2026-04-25T11:14:13.725Z</time></trkpt><trkpt lat="42.9632433" lon="10.79976"><ele>21.0</ele><time>2026-04-25T11:14:14.726Z</time></trkpt><trkpt lat="42.963035" lon="10.7995733"><ele>21.0</ele><time>2026-04-25T11:14:15.722Z</time></trkpt><trkpt lat="42.9628283" lon="10.7993867"><ele>21.0</ele><time>2026-04-25T11:14:16.727Z</time></trkpt><trkpt lat="42.96262" lon="10.7991983"><ele>20.5</ele><time>2026-04-25T11:14:17.725Z</time></trkpt><trkpt lat="42.962415" lon="10.799005"><ele>20.0</ele><time>2026-04-25T11:14:18.726Z</time></trkpt><trkpt lat="42.9622083" lon="10.7988167"><ele>20.0</ele><time>2026-04-25T11:14:19.726Z</time></trkpt><trkpt lat="42.962" lon="10.7986267"><ele>20.0</ele><time>2026-04-25T11:14:20.725Z</time></trkpt><trkpt lat="42.96179" lon="10.7984433"><ele>21.0</ele><time>2026-04-25T11:14:21.726Z</time></trkpt><trkpt lat="42.9615817" lon="10.7982617"><ele>22.0</ele><time>2026-04-25T11:14:22.726Z</time></trkpt><trkpt lat="42.9613717" lon="10.7980783"><ele>22.0</ele><time>2026-04-25T11:14:23.725Z</time></trkpt><trkpt lat="42.9611633" lon="10.79789"><ele>22.0</ele><time>2026-04-25T11:14:24.723Z</time></trkpt><trkpt lat="42.960955" lon="10.7977017"><ele>23.0</ele><time>2026-04-25T11:14:25.725Z</time></trkpt><trkpt lat="42.96075" lon="10.797515"><ele>24.0</ele><time>2026-04-25T11:14:26.727Z</time></trkpt><trkpt lat="42.9605467" lon="10.7973333"><ele>24.0</ele><time>2026-04-25T11:14:27.725Z</time></trkpt><trkpt lat="42.9603467" lon="10.7971517"><ele>24.0</ele><time>2026-04-25T11:14:28.726Z</time></trkpt><trkpt lat="42.9601483" lon="10.79697"><ele>26.0</ele><time>2026-04-25T11:14:29.725Z</time></trkpt><trkpt lat="42.9599533" lon="10.7967833"><ele>28.0</ele><time>2026-04-25T11:14:30.727Z</time></trkpt><trkpt lat="42.9597617" lon="10.796605"><ele>28.0</ele><time>2026-04-25T11:14:31.725Z</time></trkpt><trkpt lat="42.9595683" lon="10.7964283"><ele>28.0</ele><time>2026-04-25T11:14:32.726Z</time></trkpt><trkpt lat="42.959375" lon="10.7962517"><ele>28.5</ele><time>2026-04-25T11:14:33.726Z</time></trkpt><trkpt lat="42.9591833" lon="10.796075"><ele>29.0</ele><time>2026-04-25T11:14:34.725Z</time></trkpt><trkpt lat="42.9589917" lon="10.7959017"><ele>30.0</ele><time>2026-04-25T11:14:35.723Z</time></trkpt><trkpt lat="42.9588017" lon="10.79573"><ele>31.0</ele><time>2026-04-25T11:14:36.724Z</time></trkpt><trkpt lat="42.9586117" lon="10.795555"><ele>31.0</ele><time>2026-04-25T11:14:37.724Z</time></trkpt><trkpt lat="42.95842" lon="10.79538"><ele>31.0</ele><time>2026-04-25T11:14:38.726Z</time></trkpt><trkpt lat="42.95823" lon="10.795205"><ele>31.5</ele><time>2026-04-25T11:14:39.726Z</time></trkpt><trkpt lat="42.9580383" lon="10.7950267"><ele>32.0</ele><time>2026-04-25T11:14:40.724Z</time></trkpt><trkpt lat="42.9578517" lon="10.7948483"><ele>32.0</ele><time>2026-04-25T11:14:41.726Z</time></trkpt><trkpt lat="42.957665" lon="10.7946733"><ele>32.0</ele><time>2026-04-25T11:14:42.725Z</time></trkpt><trkpt lat="42.9574817" lon="10.7944983"><ele>32.0</ele><time>2026-04-25T11:14:43.728Z</time></trkpt><trkpt lat="42.957295" lon="10.7943183"><ele>32.0</ele><time>2026-04-25T11:14:44.722Z</time></trkpt><trkpt lat="42.9571083" lon="10.7941383"><ele>32.0</ele><time>2026-04-25T11:14:45.724Z</time></trkpt><trkpt lat="42.9569217" lon="10.7939617"><ele>32.0</ele><time>2026-04-25T11:14:46.726Z</time></trkpt><trkpt lat="42.956735" lon="10.79379"><ele>31.666666666666664</ele><time>2026-04-25T11:14:47.723Z</time></trkpt><trkpt lat="42.956555" lon="10.793615"><ele>31.333333333333336</ele><time>2026-04-25T11:14:48.727Z</time></trkpt><trkpt lat="42.9563733" lon="10.7934383"><ele>31.0</ele><time>2026-04-25T11:14:49.726Z</time></trkpt><trkpt lat="42.95619" lon="10.7932667"><ele>31.333333333333336</ele><time>2026-04-25T11:14:50.725Z</time></trkpt><trkpt lat="42.9560083" lon="10.7930933"><ele>31.666666666666664</ele><time>2026-04-25T11:14:51.723Z</time></trkpt><trkpt lat="42.95582" lon="10.7929233"><ele>32.0</ele><time>2026-04-25T11:14:52.723Z</time></trkpt><trkpt lat="42.95563" lon="10.792745"><ele>32.0</ele><time>2026-04-25T11:14:53.725Z</time></trkpt><trkpt lat="42.9554367" lon="10.79257"><ele>32.0</ele><time>2026-04-25T11:14:54.726Z</time></trkpt><trkpt lat="42.9552417" lon="10.7923967"><ele>32.0</ele><time>2026-04-25T11:14:55.726Z</time></trkpt><trkpt lat="42.95504" lon="10.7922183"><ele>32.0</ele><time>2026-04-25T11:14:56.725Z</time></trkpt><trkpt lat="42.9548367" lon="10.7920367"><ele>30.5</ele><time>2026-04-25T11:14:57.725Z</time></trkpt><trkpt lat="42.9546333" lon="10.7918583"><ele>29.0</ele><time>2026-04-25T11:14:58.725Z</time></trkpt><trkpt lat="42.9544317" lon="10.7916717"><ele>29.0</ele><time>2026-04-25T11:14:59.723Z</time></trkpt><trkpt lat="42.9542317" lon="10.791485"><ele>29.0</ele><time>2026-04-25T11:15:00.723Z</time></trkpt><trkpt lat="42.9540317" lon="10.7913"><ele>27.5</ele><time>2026-04-25T11:15:01.723Z</time></trkpt><trkpt lat="42.9538317" lon="10.7911167"><ele>26.0</ele><time>2026-04-25T11:15:02.724Z</time></trkpt><trkpt lat="42.9536317" lon="10.79094"><ele>26.0</ele><time>2026-04-25T11:15:03.723Z</time></trkpt><trkpt lat="42.95343" lon="10.7907617"><ele>26.0</ele><time>2026-04-25T11:15:04.723Z</time></trkpt><trkpt lat="42.95323" lon="10.7905833"><ele>26.5</ele><time>2026-04-25T11:15:05.725Z</time></trkpt><trkpt lat="42.953035" lon="10.790405"><ele>27.0</ele><time>2026-04-25T11:15:06.724Z</time></trkpt><trkpt lat="42.9528383" lon="10.790225"><ele>27.0</ele><time>2026-04-25T11:15:07.726Z</time></trkpt><trkpt lat="42.9526433" lon="10.7900433"><ele>27.0</ele><time>2026-04-25T11:15:08.725Z</time></trkpt><trkpt lat="42.9524533" lon="10.78986"><ele>27.0</ele><time>2026-04-25T11:15:09.725Z</time></trkpt><trkpt lat="42.952265" lon="10.7896733"><ele>27.0</ele><time>2026-04-25T11:15:10.725Z</time></trkpt><trkpt lat="42.9520833" lon="10.7894783"><ele>27.0</ele><time>2026-04-25T11:15:11.727Z</time></trkpt><trkpt lat="42.9519067" lon="10.7892717"><ele>27.0</ele><time>2026-04-25T11:15:12.725Z</time></trkpt><trkpt lat="42.9517367" lon="10.7890533"><ele>26.0</ele><time>2026-04-25T11:15:13.725Z</time></trkpt><trkpt lat="42.9515783" lon="10.7888217"><ele>25.0</ele><time>2026-04-25T11:15:14.724Z</time></trkpt><trkpt lat="42.9514333" lon="10.7885783"><ele>24.0</ele><time>2026-04-25T11:15:15.723Z</time></trkpt><trkpt lat="42.9512983" lon="10.7883233"><ele>23.0</ele><time>2026-04-25T11:15:16.726Z</time></trkpt><trkpt lat="42.9511767" lon="10.7880567"><ele>23.0</ele><time>2026-04-25T11:15:17.726Z</time></trkpt><trkpt lat="42.951065" lon="10.7877767"><ele>23.0</ele><time>2026-04-25T11:15:18.725Z</time></trkpt><trkpt lat="42.950965" lon="10.7874883"><ele>23.0</ele><time>2026-04-25T11:15:19.725Z</time></trkpt><trkpt lat="42.9508767" lon="10.7871967"><ele>23.0</ele><time>2026-04-25T11:15:20.726Z</time></trkpt><trkpt lat="42.9507933" lon="10.7868983"><ele>24.0</ele><time>2026-04-25T11:15:21.726Z</time></trkpt><trkpt lat="42.950715" lon="10.7865967"><ele>25.0</ele><time>2026-04-25T11:15:22.725Z</time></trkpt><trkpt lat="42.9506383" lon="10.7862967"><ele>25.5</ele><time>2026-04-25T11:15:23.726Z</time></trkpt><trkpt lat="42.9505617" lon="10.7859933"><ele>26.0</ele><time>2026-04-25T11:15:24.723Z</time></trkpt><trkpt lat="42.9504833" lon="10.7856933"><ele>26.0</ele><time>2026-04-25T11:15:25.725Z</time></trkpt><trkpt lat="42.9504067" lon="10.785395"><ele>26.0</ele><time>2026-04-25T11:15:26.727Z</time></trkpt><trkpt lat="42.9503317" lon="10.785095"><ele>26.0</ele><time>2026-04-25T11:15:27.727Z</time></trkpt><trkpt lat="42.950255" lon="10.784795"><ele>26.0</ele><time>2026-04-25T11:15:28.726Z</time></trkpt><trkpt lat="42.9501783" lon="10.7844983"><ele>26.5</ele><time>2026-04-25T11:15:29.725Z</time></trkpt><trkpt lat="42.9501033" lon="10.784195"><ele>27.0</ele><time>2026-04-25T11:15:30.726Z</time></trkpt><trkpt lat="42.950025" lon="10.7838917"><ele>27.5</ele><time>2026-04-25T11:15:31.725Z</time></trkpt><trkpt lat="42.9499467" lon="10.7835867"><ele>28.0</ele><time>2026-04-25T11:15:32.726Z</time></trkpt><trkpt lat="42.9498667" lon="10.7832883"><ele>28.0</ele><time>2026-04-25T11:15:33.726Z</time></trkpt><trkpt lat="42.9497817" lon="10.7829917"><ele>28.0</ele><time>2026-04-25T11:15:34.726Z</time></trkpt><trkpt lat="42.9496883" lon="10.7826983"><ele>29.5</ele><time>2026-04-25T11:15:35.725Z</time></trkpt><trkpt lat="42.9495833" lon="10.7824133"><ele>31.0</ele><time>2026-04-25T11:15:36.727Z</time></trkpt><trkpt lat="42.9494583" lon="10.7821367"><ele>31.0</ele><time>2026-04-25T11:15:37.725Z</time></trkpt><trkpt lat="42.949315" lon="10.7818767"><ele>31.0</ele><time>2026-04-25T11:15:38.725Z</time></trkpt><trkpt lat="42.9491533" lon="10.7816317"><ele>32.0</ele><time>2026-04-25T11:15:39.726Z</time></trkpt><trkpt lat="42.9489783" lon="10.78141"><ele>33.0</ele><time>2026-04-25T11:15:40.725Z</time></trkpt><trkpt lat="42.948785" lon="10.7812233"><ele>33.0</ele><time>2026-04-25T11:15:41.726Z</time></trkpt><trkpt lat="42.9485783" lon="10.781065"><ele>33.0</ele><time>2026-04-25T11:15:42.726Z</time></trkpt><trkpt lat="42.9483567" lon="10.7809367"><ele>32.0</ele><time>2026-04-25T11:15:43.724Z</time></trkpt><trkpt lat="42.9481267" lon="10.780835"><ele>31.0</ele><time>2026-04-25T11:15:44.724Z</time></trkpt><trkpt lat="42.9478883" lon="10.7807567"><ele>31.0</ele><time>2026-04-25T11:15:45.724Z</time></trkpt><trkpt lat="42.9476433" lon="10.7806967"><ele>31.0</ele><time>2026-04-25T11:15:46.724Z</time></trkpt><trkpt lat="42.9474" lon="10.7806383"><ele>30.5</ele><time>2026-04-25T11:15:47.726Z</time></trkpt><trkpt lat="42.94716" lon="10.7805867"><ele>30.0</ele><time>2026-04-25T11:15:48.725Z</time></trkpt><trkpt lat="42.946915" lon="10.7805383"><ele>30.5</ele><time>2026-04-25T11:15:49.727Z</time></trkpt><trkpt lat="42.9466717" lon="10.780485"><ele>31.0</ele><time>2026-04-25T11:15:50.726Z</time></trkpt><trkpt lat="42.9464283" lon="10.7804283"><ele>31.0</ele><time>2026-04-25T11:15:51.727Z</time></trkpt><trkpt lat="42.9461883" lon="10.7803733"><ele>31.0</ele><time>2026-04-25T11:15:52.723Z</time></trkpt><trkpt lat="42.94595" lon="10.7803217"><ele>30.5</ele><time>2026-04-25T11:15:53.725Z</time></trkpt><trkpt lat="42.9457083" lon="10.7802683"><ele>30.0</ele><time>2026-04-25T11:15:54.726Z</time></trkpt><trkpt lat="42.9454683" lon="10.780215"><ele>30.0</ele><time>2026-04-25T11:15:55.725Z</time></trkpt><trkpt lat="42.9452283" lon="10.7801667"><ele>30.0</ele><time>2026-04-25T11:15:56.726Z</time></trkpt><trkpt lat="42.9449933" lon="10.7801217"><ele>30.0</ele><time>2026-04-25T11:15:57.725Z</time></trkpt><trkpt lat="42.944755" lon="10.7800767"><ele>30.0</ele><time>2026-04-25T11:15:58.726Z</time></trkpt><trkpt lat="42.94452" lon="10.7800317"><ele>30.0</ele><time>2026-04-25T11:15:59.726Z</time></trkpt><trkpt lat="42.9442867" lon="10.7799833"><ele>30.0</ele><time>2026-04-25T11:16:00.726Z</time></trkpt><trkpt lat="42.94406" lon="10.7799283"><ele>29.5</ele><time>2026-04-25T11:16:01.724Z</time></trkpt><trkpt lat="42.943835" lon="10.7798733"><ele>29.0</ele><time>2026-04-25T11:16:02.725Z</time></trkpt><trkpt lat="42.9436083" lon="10.7798233"><ele>29.0</ele><time>2026-04-25T11:16:03.725Z</time></trkpt><trkpt lat="42.943375" lon="10.779785"><ele>29.0</ele><time>2026-04-25T11:16:04.722Z</time></trkpt><trkpt lat="42.94314" lon="10.779765"><ele>29.0</ele><time>2026-04-25T11:16:05.724Z</time></trkpt><trkpt lat="42.9429" lon="10.7797583"><ele>29.0</ele><time>2026-04-25T11:16:06.724Z</time></trkpt><trkpt lat="42.9426567" lon="10.779765"><ele>29.5</ele><time>2026-04-25T11:16:07.721Z</time></trkpt><trkpt lat="42.94241" lon="10.7797833"><ele>30.0</ele><time>2026-04-25T11:16:08.726Z</time></trkpt><trkpt lat="42.94216" lon="10.7798033"><ele>30.0</ele><time>2026-04-25T11:16:09.726Z</time></trkpt><trkpt lat="42.9419067" lon="10.7798217"><ele>30.0</ele><time>2026-04-25T11:16:10.725Z</time></trkpt><trkpt lat="42.9416583" lon="10.7798367"><ele>29.0</ele><time>2026-04-25T11:16:11.724Z</time></trkpt><trkpt lat="42.9414083" lon="10.7798567"><ele>28.0</ele><time>2026-04-25T11:16:12.724Z</time></trkpt><trkpt lat="42.94116" lon="10.77988"><ele>28.0</ele><time>2026-04-25T11:16:13.722Z</time></trkpt><trkpt lat="42.9409133" lon="10.779905"><ele>28.0</ele><time>2026-04-25T11:16:14.726Z</time></trkpt><trkpt lat="42.9406683" lon="10.7799233"><ele>29.0</ele><time>2026-04-25T11:16:15.723Z</time></trkpt><trkpt lat="42.9404217" lon="10.7799333"><ele>30.0</ele><time>2026-04-25T11:16:16.722Z</time></trkpt><trkpt lat="42.9401783" lon="10.7799317"><ele>30.0</ele><time>2026-04-25T11:16:17.724Z</time></trkpt><trkpt lat="42.9399383" lon="10.77992"><ele>30.0</ele><time>2026-04-25T11:16:18.728Z</time></trkpt><trkpt lat="42.9397033" lon="10.7798917"><ele>30.0</ele><time>2026-04-25T11:16:19.726Z</time></trkpt><trkpt lat="42.9394667" lon="10.7798433"><ele>30.0</ele><time>2026-04-25T11:16:20.727Z</time></trkpt><trkpt lat="42.939235" lon="10.779775"><ele>29.5</ele><time>2026-04-25T11:16:21.726Z</time></trkpt><trkpt lat="42.9390067" lon="10.779685"><ele>29.0</ele><time>2026-04-25T11:16:22.724Z</time></trkpt><trkpt lat="42.9387817" lon="10.779575"><ele>29.0</ele><time>2026-04-25T11:16:23.726Z</time></trkpt><trkpt lat="42.938565" lon="10.779445"><ele>29.0</ele><time>2026-04-25T11:16:24.724Z</time></trkpt><trkpt lat="42.9383517" lon="10.779295"><ele>28.0</ele><time>2026-04-25T11:16:25.724Z</time></trkpt><trkpt lat="42.9381467" lon="10.77913"><ele>27.0</ele><time>2026-04-25T11:16:26.724Z</time></trkpt><trkpt lat="42.9379517" lon="10.7789533"><ele>27.0</ele><time>2026-04-25T11:16:27.724Z</time></trkpt><trkpt lat="42.9377717" lon="10.7787717"><ele>27.0</ele><time>2026-04-25T11:16:28.725Z</time></trkpt><trkpt lat="42.937605" lon="10.7785867"><ele>27.0</ele><time>2026-04-25T11:16:29.724Z</time></trkpt><trkpt lat="42.9374467" lon="10.7783933"><ele>26.666666666666664</ele><time>2026-04-25T11:16:30.723Z</time></trkpt><trkpt lat="42.9372967" lon="10.7782"><ele>26.333333333333332</ele><time>2026-04-25T11:16:31.724Z</time></trkpt><trkpt lat="42.9371583" lon="10.7780133"><ele>26.0</ele><time>2026-04-25T11:16:32.725Z</time></trkpt><trkpt lat="42.9370267" lon="10.777835"><ele>26.0</ele><time>2026-04-25T11:16:33.725Z</time></trkpt><trkpt lat="42.9369033" lon="10.7776683"><ele>26.0</ele><time>2026-04-25T11:16:34.725Z</time></trkpt><trkpt lat="42.936785" lon="10.777515"><ele>26.0</ele><time>2026-04-25T11:16:35.725Z</time></trkpt><trkpt lat="42.9366767" lon="10.7773667"><ele>26.0</ele><time>2026-04-25T11:16:36.725Z</time></trkpt><trkpt lat="42.9365767" lon="10.77723"><ele>26.0</ele><time>2026-04-25T11:16:37.726Z</time></trkpt><trkpt lat="42.9364833" lon="10.77711"><ele>26.0</ele><time>2026-04-25T11:16:38.725Z</time></trkpt><trkpt lat="42.936405" lon="10.7769933"><ele>26.0</ele><time>2026-04-25T11:16:39.726Z</time></trkpt><trkpt lat="42.93634" lon="10.77687"><ele>26.0</ele><time>2026-04-25T11:16:40.722Z</time></trkpt><trkpt lat="42.9362933" lon="10.7767367"><ele>26.0</ele><time>2026-04-25T11:16:41.725Z</time></trkpt><trkpt lat="42.9362483" lon="10.7766"><ele>26.0</ele><time>2026-04-25T11:16:42.724Z</time></trkpt><trkpt lat="42.936195" lon="10.7764783"><ele>26.0</ele><time>2026-04-25T11:16:43.724Z</time></trkpt><trkpt lat="42.936125" lon="10.776395"><ele>26.0</ele><time>2026-04-25T11:16:44.724Z</time></trkpt><trkpt lat="42.936045" lon="10.7763433"><ele>26.0</ele><time>2026-04-25T11:16:45.724Z</time></trkpt><trkpt lat="42.9359683" lon="10.7763267"><ele>26.0</ele><time>2026-04-25T11:16:46.724Z</time></trkpt><trkpt lat="42.9358783" lon="10.7763683"><ele>26.0</ele><time>2026-04-25T11:16:47.723Z</time></trkpt><trkpt lat="42.935785" lon="10.776415"><ele>26.0</ele><time>2026-04-25T11:16:48.724Z</time></trkpt><trkpt lat="42.93568" lon="10.7764417"><ele>26.0</ele><time>2026-04-25T11:16:49.725Z</time></trkpt><trkpt lat="42.935575" lon="10.7764217"><ele>26.0</ele><time>2026-04-25T11:16:50.724Z</time></trkpt><trkpt lat="42.9354817" lon="10.7763617"><ele>26.0</ele><time>2026-04-25T11:16:51.724Z</time></trkpt><trkpt lat="42.9353917" lon="10.77628"><ele>26.0</ele><time>2026-04-25T11:16:52.724Z</time></trkpt><trkpt lat="42.9353067" lon="10.7761933"><ele>26.0</ele><time>2026-04-25T11:16:53.726Z</time></trkpt><trkpt lat="42.935225" lon="10.77611"><ele>26.0</ele><time>2026-04-25T11:16:54.723Z</time></trkpt><trkpt lat="42.9351433" lon="10.7760233"><ele>26.0</ele><time>2026-04-25T11:16:55.725Z</time></trkpt><trkpt lat="42.9350583" lon="10.7759333"><ele>26.0</ele><time>2026-04-25T11:16:56.725Z</time></trkpt><trkpt lat="42.934965" lon="10.7758383"><ele>26.0</ele><time>2026-04-25T11:16:57.724Z</time></trkpt><trkpt lat="42.9348667" lon="10.7757333"><ele>26.0</ele><time>2026-04-25T11:16:58.724Z</time></trkpt><trkpt lat="42.9347667" lon="10.7756267"><ele>26.0</ele><time>2026-04-25T11:16:59.726Z</time></trkpt><trkpt lat="42.93467" lon="10.7755267"><ele>26.0</ele><time>2026-04-25T11:17:00.726Z</time></trkpt><trkpt lat="42.93458" lon="10.7754283"><ele>26.0</ele><time>2026-04-25T11:17:01.724Z</time></trkpt><trkpt lat="42.9344917" lon="10.7753317"><ele>26.0</ele><time>2026-04-25T11:17:02.723Z</time></trkpt><trkpt lat="42.9344067" lon="10.7752417"><ele>25.666666666666664</ele><time>2026-04-25T11:17:03.726Z</time></trkpt><trkpt lat="42.9343283" lon="10.7751567"><ele>25.333333333333332</ele><time>2026-04-25T11:17:04.726Z</time></trkpt><trkpt lat="42.9342567" lon="10.775085"><ele>25.0</ele><time>2026-04-25T11:17:05.725Z</time></trkpt><trkpt lat="42.9341967" lon="10.7750167"><ele>24.666666666666664</ele><time>2026-04-25T11:17:06.726Z</time></trkpt><trkpt lat="42.93415" lon="10.7749483"><ele>24.333333333333332</ele><time>2026-04-25T11:17:07.724Z</time></trkpt><trkpt lat="42.93411" lon="10.77488"><ele>24.0</ele><time>2026-04-25T11:17:08.725Z</time></trkpt><trkpt lat="42.9340683" lon="10.7748117"><ele>23.857142857142854</ele><time>2026-04-25T11:17:09.725Z</time></trkpt><trkpt lat="42.9340183" lon="10.7747583"><ele>23.714285714285715</ele><time>2026-04-25T11:17:10.724Z</time></trkpt><trkpt lat="42.9339567" lon="10.7747167"><ele>23.57142857142857</ele><time>2026-04-25T11:17:11.722Z</time></trkpt><trkpt lat="42.93389" lon="10.774675"><ele>23.428571428571427</ele><time>2026-04-25T11:17:12.721Z</time></trkpt><trkpt lat="42.933825" lon="10.774625"><ele>23.285714285714285</ele><time>2026-04-25T11:17:13.723Z</time></trkpt><trkpt lat="42.933765" lon="10.7745533"><ele>23.142857142857142</ele><time>2026-04-25T11:17:14.721Z</time></trkpt><trkpt lat="42.9337067" lon="10.7744817"><ele>23.0</ele><time>2026-04-25T11:17:15.723Z</time></trkpt><trkpt lat="42.933645" lon="10.77441"><ele>22.599999999999998</ele><time>2026-04-25T11:17:16.722Z</time></trkpt><trkpt lat="42.9335817" lon="10.7743383"><ele>22.2</ele><time>2026-04-25T11:17:17.724Z</time></trkpt><trkpt lat="42.9335133" lon="10.7742633"><ele>21.8</ele><time>2026-04-25T11:17:18.724Z</time></trkpt><trkpt lat="42.9334383" lon="10.77418"><ele>21.4</ele><time>2026-04-25T11:17:19.725Z</time></trkpt><trkpt lat="42.9333633" lon="10.7740983"><ele>21.0</ele><time>2026-04-25T11:17:20.724Z</time></trkpt><trkpt lat="42.9332817" lon="10.774015"><ele>21.0</ele><time>2026-04-25T11:17:21.724Z</time></trkpt><trkpt lat="42.9332033" lon="10.77393"><ele>21.0</ele><time>2026-04-25T11:17:22.725Z</time></trkpt><trkpt lat="42.9331233" lon="10.7738367"><ele>21.0</ele><time>2026-04-25T11:17:23.724Z</time></trkpt><trkpt lat="42.9330433" lon="10.7737417"><ele>21.0</ele><time>2026-04-25T11:17:24.724Z</time></trkpt><trkpt lat="42.9329567" lon="10.7736467"><ele>21.0</ele><time>2026-04-25T11:17:25.724Z</time></trkpt><trkpt lat="42.9328667" lon="10.77355"><ele>21.0</ele><time>2026-04-25T11:17:26.726Z</time></trkpt><trkpt lat="42.932775" lon="10.773455"><ele>21.0</ele><time>2026-04-25T11:17:27.724Z</time></trkpt><trkpt lat="42.9326817" lon="10.773365"><ele>21.0</ele><time>2026-04-25T11:17:28.725Z</time></trkpt><trkpt lat="42.93259" lon="10.7732717"><ele>21.0</ele><time>2026-04-25T11:17:29.724Z</time></trkpt><trkpt lat="42.9324983" lon="10.77317"><ele>20.5</ele><time>2026-04-25T11:17:30.723Z</time></trkpt><trkpt lat="42.9324067" lon="10.77308"><ele>20.0</ele><time>2026-04-25T11:17:31.724Z</time></trkpt><trkpt lat="42.9323117" lon="10.77298"><ele>19.5</ele><time>2026-04-25T11:17:32.726Z</time></trkpt><trkpt lat="42.932225" lon="10.7728783"><ele>19.0</ele><time>2026-04-25T11:17:33.724Z</time></trkpt><trkpt lat="42.9321433" lon="10.7727867"><ele>19.0</ele><time>2026-04-25T11:17:34.724Z</time></trkpt><trkpt lat="42.9320583" lon="10.7726967"><ele>19.0</ele><time>2026-04-25T11:17:35.724Z</time></trkpt><trkpt lat="42.9319717" lon="10.772605"><ele>19.0</ele><time>2026-04-25T11:17:36.723Z</time></trkpt><trkpt lat="42.931885" lon="10.7725133"><ele>19.0</ele><time>2026-04-25T11:17:37.724Z</time></trkpt><trkpt lat="42.9317933" lon="10.7724167"><ele>19.0</ele><time>2026-04-25T11:17:38.724Z</time></trkpt><trkpt lat="42.9317" lon="10.7723183"><ele>19.25</ele><time>2026-04-25T11:17:39.723Z</time></trkpt><trkpt lat="42.9316083" lon="10.77222"><ele>19.5</ele><time>2026-04-25T11:17:40.722Z</time></trkpt><trkpt lat="42.9315183" lon="10.7721233"><ele>19.75</ele><time>2026-04-25T11:17:41.725Z</time></trkpt><trkpt lat="42.9314283" lon="10.77203"><ele>20.0</ele><time>2026-04-25T11:17:42.724Z</time></trkpt><trkpt lat="42.93134" lon="10.7719433"><ele>20.0</ele><time>2026-04-25T11:17:43.724Z</time></trkpt><trkpt lat="42.9312633" lon="10.7718633"><ele>20.0</ele><time>2026-04-25T11:17:44.724Z</time></trkpt><trkpt lat="42.931195" lon="10.77179"><ele>20.0</ele><time>2026-04-25T11:17:45.725Z</time></trkpt><trkpt lat="42.9311317" lon="10.7717233"><ele>20.0</ele><time>2026-04-25T11:17:46.724Z</time></trkpt><trkpt lat="42.9310683" lon="10.77166"><ele>20.0</ele><time>2026-04-25T11:17:47.722Z</time></trkpt><trkpt lat="42.9310033" lon="10.7715917"><ele>20.0</ele><time>2026-04-25T11:17:48.721Z</time></trkpt><trkpt lat="42.93095" lon="10.7715217"><ele>19.857142857142858</ele><time>2026-04-25T11:17:49.726Z</time></trkpt><trkpt lat="42.93091" lon="10.77144"><ele>19.714285714285715</ele><time>2026-04-25T11:17:50.726Z</time></trkpt><trkpt lat="42.930875" lon="10.77135"><ele>19.57142857142857</ele><time>2026-04-25T11:17:51.724Z</time></trkpt><trkpt lat="42.9308333" lon="10.7712633"><ele>19.42857142857143</ele><time>2026-04-25T11:17:52.725Z</time></trkpt><trkpt lat="42.9307817" lon="10.7711983"><ele>19.28571428571429</ele><time>2026-04-25T11:17:53.726Z</time></trkpt><trkpt lat="42.930715" lon="10.77116"><ele>19.142857142857142</ele><time>2026-04-25T11:17:54.723Z</time></trkpt><trkpt lat="42.93064" lon="10.7711183"><ele>19.0</ele><time>2026-04-25T11:17:55.724Z</time></trkpt><trkpt lat="42.9305633" lon="10.77108"><ele>19.0</ele><time>2026-04-25T11:17:56.724Z</time></trkpt><trkpt lat="42.93049" lon="10.771025"><ele>19.0</ele><time>2026-04-25T11:17:57.724Z</time></trkpt><trkpt lat="42.9304167" lon="10.7709583"><ele>19.0</ele><time>2026-04-25T11:17:58.723Z</time></trkpt><trkpt lat="42.930345" lon="10.770885"><ele>19.0</ele><time>2026-04-25T11:17:59.725Z</time></trkpt><trkpt lat="42.9302733" lon="10.77081"><ele>19.0</ele><time>2026-04-25T11:18:00.724Z</time></trkpt><trkpt lat="42.930205" lon="10.770735"><ele>19.0</ele><time>2026-04-25T11:18:01.725Z</time></trkpt><trkpt lat="42.9301317" lon="10.77066"><ele>19.0</ele><time>2026-04-25T11:18:02.725Z</time></trkpt><trkpt lat="42.9300617" lon="10.7705867"><ele>19.0</ele><time>2026-04-25T11:18:03.725Z</time></trkpt><trkpt lat="42.9299883" lon="10.770515"><ele>19.0</ele><time>2026-04-25T11:18:04.724Z</time></trkpt><trkpt lat="42.9299183" lon="10.7704417"><ele>19.0</ele><time>2026-04-25T11:18:05.723Z</time></trkpt><trkpt lat="42.9298467" lon="10.7703683"><ele>19.0</ele><time>2026-04-25T11:18:06.723Z</time></trkpt><trkpt lat="42.929775" lon="10.7702933"><ele>19.0</ele><time>2026-04-25T11:18:07.724Z</time></trkpt><trkpt lat="42.9297" lon="10.77022"><ele>18.599999999999998</ele><time>2026-04-25T11:18:08.723Z</time></trkpt><trkpt lat="42.9296217" lon="10.77014"><ele>18.2</ele><time>2026-04-25T11:18:09.725Z</time></trkpt><trkpt lat="42.9295433" lon="10.7700583"><ele>17.799999999999997</ele><time>2026-04-25T11:18:10.724Z</time></trkpt><trkpt lat="42.9294633" lon="10.7699733"><ele>17.4</ele><time>2026-04-25T11:18:11.724Z</time></trkpt><trkpt lat="42.9293817" lon="10.7698867"><ele>17.0</ele><time>2026-04-25T11:18:12.723Z</time></trkpt><trkpt lat="42.9293017" lon="10.7698"><ele>16.6</ele><time>2026-04-25T11:18:13.725Z</time></trkpt><trkpt lat="42.92922" lon="10.769715"><ele>16.2</ele><time>2026-04-25T11:18:14.725Z</time></trkpt><trkpt lat="42.92914" lon="10.7696333"><ele>15.8</ele><time>2026-04-25T11:18:15.724Z</time></trkpt><trkpt lat="42.929055" lon="10.7695483"><ele>15.4</ele><time>2026-04-25T11:18:16.725Z</time></trkpt><trkpt lat="42.9289733" lon="10.7694617"><ele>15.0</ele><time>2026-04-25T11:18:17.725Z</time></trkpt><trkpt lat="42.9288983" lon="10.769375"><ele>14.8</ele><time>2026-04-25T11:18:18.726Z</time></trkpt><trkpt lat="42.9288133" lon="10.769285"><ele>14.6</ele><time>2026-04-25T11:18:19.723Z</time></trkpt><trkpt lat="42.928735" lon="10.76921"><ele>14.399999999999999</ele><time>2026-04-25T11:18:20.724Z</time></trkpt><trkpt lat="42.9286633" lon="10.7691383"><ele>14.2</ele><time>2026-04-25T11:18:21.724Z</time></trkpt><trkpt lat="42.92859" lon="10.7690717"><ele>14.0</ele><time>2026-04-25T11:18:22.725Z</time></trkpt><trkpt lat="42.9285233" lon="10.76901"><ele>14.000000000000002</ele><time>2026-04-25T11:18:23.724Z</time></trkpt><trkpt lat="42.92846" lon="10.768945"><ele>14.0</ele><time>2026-04-25T11:18:24.724Z</time></trkpt><trkpt lat="42.928395" lon="10.768875"><ele>14.0</ele><time>2026-04-25T11:18:25.725Z</time></trkpt><trkpt lat="42.9283233" lon="10.768795"><ele>14.0</ele><time>2026-04-25T11:18:26.723Z</time></trkpt><trkpt lat="42.92825" lon="10.7687183"><ele>14.000000000000002</ele><time>2026-04-25T11:18:27.725Z</time></trkpt><trkpt lat="42.9281767" lon="10.7686333"><ele>14.0</ele><time>2026-04-25T11:18:28.724Z</time></trkpt><trkpt lat="42.9281083" lon="10.7685467"><ele>13.799999999999999</ele><time>2026-04-25T11:18:29.722Z</time></trkpt><trkpt lat="42.9280467" lon="10.7684517"><ele>13.599999999999998</ele><time>2026-04-25T11:18:30.725Z</time></trkpt><trkpt lat="42.9279967" lon="10.7683383"><ele>13.4</ele><time>2026-04-25T11:18:31.724Z</time></trkpt><trkpt lat="42.92796" lon="10.7682233"><ele>13.2</ele><time>2026-04-25T11:18:32.725Z</time></trkpt><trkpt lat="42.9279267" lon="10.7681033"><ele>13.0</ele><time>2026-04-25T11:18:33.723Z</time></trkpt><trkpt lat="42.927885" lon="10.7679833"><ele>13.0</ele><time>2026-04-25T11:18:34.724Z</time></trkpt><trkpt lat="42.9278283" lon="10.7678733"><ele>13.0</ele><time>2026-04-25T11:18:35.723Z</time></trkpt><trkpt lat="42.92776" lon="10.76778"><ele>13.0</ele><time>2026-04-25T11:18:36.724Z</time></trkpt><trkpt lat="42.9276867" lon="10.767705"><ele>13.0</ele><time>2026-04-25T11:18:37.726Z</time></trkpt><trkpt lat="42.9276" lon="10.767665"><ele>13.0</ele><time>2026-04-25T11:18:38.724Z</time></trkpt><trkpt lat="42.9275183" lon="10.7676333"><ele>12.600000000000001</ele><time>2026-04-25T11:18:39.724Z</time></trkpt><trkpt lat="42.9274367" lon="10.7676067"><ele>12.200000000000001</ele><time>2026-04-25T11:18:40.723Z</time></trkpt><trkpt lat="42.9273467" lon="10.7675783"><ele>11.8</ele><time>2026-04-25T11:18:41.723Z</time></trkpt><trkpt lat="42.9272567" lon="10.7675167"><ele>11.4</ele><time>2026-04-25T11:18:42.725Z</time></trkpt><trkpt lat="42.9271683" lon="10.7674433"><ele>11.0</ele><time>2026-04-25T11:18:43.725Z</time></trkpt><trkpt lat="42.9270967" lon="10.7673683"><ele>11.0</ele><time>2026-04-25T11:18:44.723Z</time></trkpt><trkpt lat="42.9270267" lon="10.7673"><ele>11.0</ele><time>2026-04-25T11:18:45.724Z</time></trkpt><trkpt lat="42.9269633" lon="10.7672467"><ele>11.0</ele><time>2026-04-25T11:18:46.726Z</time></trkpt><trkpt lat="42.9269033" lon="10.767185"><ele>11.0</ele><time>2026-04-25T11:18:47.725Z</time></trkpt><trkpt lat="42.92681" lon="10.7670883"><ele>11.0</ele><time>2026-04-25T11:18:49.725Z</time></trkpt><trkpt lat="42.9267167" lon="10.7669783"><ele>11.0</ele><time>2026-04-25T11:18:51.724Z</time></trkpt><trkpt lat="42.9266017" lon="10.7669017"><ele>11.0</ele><time>2026-04-25T11:18:53.726Z</time></trkpt><trkpt lat="42.9265333" lon="10.7668667"><ele>11.0</ele><time>2026-04-25T11:18:54.725Z</time></trkpt><trkpt lat="42.92646" lon="10.7668233"><ele>11.0</ele><time>2026-04-25T11:18:55.723Z</time></trkpt><trkpt lat="42.9263933" lon="10.76677"><ele>11.0</ele><time>2026-04-25T11:18:56.724Z</time></trkpt><trkpt lat="42.926325" lon="10.766705"><ele>11.0</ele><time>2026-04-25T11:18:57.724Z</time></trkpt><trkpt lat="42.92626" lon="10.766635"><ele>11.200000000000001</ele><time>2026-04-25T11:18:58.725Z</time></trkpt><trkpt lat="42.9261883" lon="10.7665533"><ele>11.4</ele><time>2026-04-25T11:18:59.725Z</time></trkpt><trkpt lat="42.92612" lon="10.7664733"><ele>11.6</ele><time>2026-04-25T11:19:00.725Z</time></trkpt><trkpt lat="42.9260517" lon="10.7663867"><ele>11.8</ele><time>2026-04-25T11:19:01.725Z</time></trkpt><trkpt lat="42.9259867" lon="10.7662883"><ele>12.0</ele><time>2026-04-25T11:19:02.725Z</time></trkpt><trkpt lat="42.9259283" lon="10.7661883"><ele>11.8</ele><time>2026-04-25T11:19:03.724Z</time></trkpt><trkpt lat="42.92587" lon="10.7660817"><ele>11.6</ele><time>2026-04-25T11:19:04.726Z</time></trkpt><trkpt lat="42.925815" lon="10.7659717"><ele>11.4</ele><time>2026-04-25T11:19:05.725Z</time></trkpt><trkpt lat="42.9257567" lon="10.76586"><ele>11.200000000000001</ele><time>2026-04-25T11:19:06.723Z</time></trkpt><trkpt lat="42.925695" lon="10.76575"><ele>11.0</ele><time>2026-04-25T11:19:07.723Z</time></trkpt><trkpt lat="42.9256367" lon="10.765635"><ele>11.0</ele><time>2026-04-25T11:19:08.726Z</time></trkpt><trkpt lat="42.9255733" lon="10.765505"><ele>11.0</ele><time>2026-04-25T11:19:09.725Z</time></trkpt><trkpt lat="42.9255117" lon="10.7653633"><ele>11.0</ele><time>2026-04-25T11:19:10.722Z</time></trkpt><trkpt lat="42.9254483" lon="10.765235"><ele>11.0</ele><time>2026-04-25T11:19:11.725Z</time></trkpt><trkpt lat="42.925385" lon="10.7651183"><ele>10.8</ele><time>2026-04-25T11:19:12.725Z</time></trkpt><trkpt lat="42.92533" lon="10.765015"><ele>10.600000000000001</ele><time>2026-04-25T11:19:13.723Z</time></trkpt><trkpt lat="42.9252833" lon="10.76492"><ele>10.4</ele><time>2026-04-25T11:19:14.725Z</time></trkpt><trkpt lat="42.9252283" lon="10.7647867"><ele>10.2</ele><time>2026-04-25T11:19:16.725Z</time></trkpt><trkpt lat="42.9252" lon="10.7646967"><ele>10.0</ele><time>2026-04-25T11:19:19.722Z</time></trkpt><trkpt lat="42.9251567" lon="10.7645533"><ele>10.0</ele><time>2026-04-25T11:19:22.724Z</time></trkpt><trkpt lat="42.9250983" lon="10.7644783"><ele>10.0</ele><time>2026-04-25T11:19:23.724Z</time></trkpt><trkpt lat="42.92502" lon="10.7644"><ele>10.0</ele><time>2026-04-25T11:19:24.724Z</time></trkpt><trkpt lat="42.9249517" lon="10.7643217"><ele>10.0</ele><time>2026-04-25T11:19:25.724Z</time></trkpt><trkpt lat="42.9248883" lon="10.7642383"><ele>10.0</ele><time>2026-04-25T11:19:26.724Z</time></trkpt><trkpt lat="42.924835" lon="10.7641383"><ele>10.0</ele><time>2026-04-25T11:19:27.725Z</time></trkpt><trkpt lat="42.9247933" lon="10.7640233"><ele>10.0</ele><time>2026-04-25T11:19:28.723Z</time></trkpt><trkpt lat="42.9247683" lon="10.7638817"><ele>10.0</ele><time>2026-04-25T11:19:29.725Z</time></trkpt><trkpt lat="42.9247367" lon="10.763735"><ele>10.0</ele><time>2026-04-25T11:19:30.724Z</time></trkpt><trkpt lat="42.9246917" lon="10.7635917"><ele>10.0</ele><time>2026-04-25T11:19:31.725Z</time></trkpt><trkpt lat="42.9246367" lon="10.763455"><ele>10.0</ele><time>2026-04-25T11:19:32.724Z</time></trkpt><trkpt lat="42.9245767" lon="10.7633233"><ele>9.6</ele><time>2026-04-25T11:19:33.724Z</time></trkpt><trkpt lat="42.924515" lon="10.7631983"><ele>9.2</ele><time>2026-04-25T11:19:34.723Z</time></trkpt><trkpt lat="42.92446" lon="10.7630733"><ele>8.8</ele><time>2026-04-25T11:19:35.723Z</time></trkpt><trkpt lat="42.9244067" lon="10.7629583"><ele>8.4</ele><time>2026-04-25T11:19:36.724Z</time></trkpt><trkpt lat="42.9243567" lon="10.762855"><ele>8.0</ele><time>2026-04-25T11:19:37.723Z</time></trkpt><trkpt lat="42.9243117" lon="10.7627567"><ele>8.166666666666666</ele><time>2026-04-25T11:19:38.726Z</time></trkpt><trkpt lat="42.9242733" lon="10.7626733"><ele>8.333333333333332</ele><time>2026-04-25T11:19:39.724Z</time></trkpt><trkpt lat="42.9242467" lon="10.7625917"><ele>8.5</ele><time>2026-04-25T11:19:40.723Z</time></trkpt><trkpt lat="42.9242017" lon="10.762445"><ele>8.666666666666666</ele><time>2026-04-25T11:19:42.724Z</time></trkpt><trkpt lat="42.9241183" lon="10.7623317"><ele>8.833333333333334</ele><time>2026-04-25T11:19:44.726Z</time></trkpt><trkpt lat="42.9240617" lon="10.7622633"><ele>9.0</ele><time>2026-04-25T11:19:45.724Z</time></trkpt><trkpt lat="42.9240083" lon="10.7621667"><ele>9.0</ele><time>2026-04-25T11:19:46.725Z</time></trkpt><trkpt lat="42.923955" lon="10.7620567"><ele>9.0</ele><time>2026-04-25T11:19:47.723Z</time></trkpt><trkpt lat="42.9238983" lon="10.7619433"><ele>9.0</ele><time>2026-04-25T11:19:48.724Z</time></trkpt><trkpt lat="42.9238417" lon="10.7618317"><ele>9.0</ele><time>2026-04-25T11:19:49.724Z</time></trkpt><trkpt lat="42.923785" lon="10.7617217"><ele>9.0</ele><time>2026-04-25T11:19:50.724Z</time></trkpt><trkpt lat="42.9237267" lon="10.7616117"><ele>9.0</ele><time>2026-04-25T11:19:51.725Z</time></trkpt><trkpt lat="42.92367" lon="10.7615033"><ele>9.0</ele><time>2026-04-25T11:19:52.725Z</time></trkpt><trkpt lat="42.9236167" lon="10.7613933"><ele>9.0</ele><time>2026-04-25T11:19:53.723Z</time></trkpt><trkpt lat="42.9235583" lon="10.7612817"><ele>9.0</ele><time>2026-04-25T11:19:54.724Z</time></trkpt><trkpt lat="42.9235033" lon="10.7611633"><ele>9.0</ele><time>2026-04-25T11:19:55.725Z</time></trkpt><trkpt lat="42.923445" lon="10.7610383"><ele>9.0</ele><time>2026-04-25T11:19:56.724Z</time></trkpt><trkpt lat="42.9233867" lon="10.7609167"><ele>9.0</ele><time>2026-04-25T11:19:57.724Z</time></trkpt><trkpt lat="42.9233367" lon="10.76081"><ele>9.0</ele><time>2026-04-25T11:19:58.724Z</time></trkpt><trkpt lat="42.92328" lon="10.7606917"><ele>9.0</ele><time>2026-04-25T11:19:59.723Z</time></trkpt><trkpt lat="42.923225" lon="10.76058"><ele>9.0</ele><time>2026-04-25T11:20:00.724Z</time></trkpt><trkpt lat="42.9231717" lon="10.7604683"><ele>9.0</ele><time>2026-04-25T11:20:01.724Z</time></trkpt><trkpt lat="42.9231167" lon="10.760345"><ele>9.0</ele><time>2026-04-25T11:20:02.724Z</time></trkpt><trkpt lat="42.9230567" lon="10.76023"><ele>9.0</ele><time>2026-04-25T11:20:03.723Z</time></trkpt><trkpt lat="42.9229967" lon="10.76012"><ele>9.0</ele><time>2026-04-25T11:20:04.724Z</time></trkpt><trkpt lat="42.9229433" lon="10.760025"><ele>9.0</ele><time>2026-04-25T11:20:05.724Z</time></trkpt><trkpt lat="42.922905" lon="10.7599483"><ele>9.0</ele><time>2026-04-25T11:20:06.724Z</time></trkpt><trkpt lat="42.922855" lon="10.7598467"><ele>9.0</ele><time>2026-04-25T11:20:08.725Z</time></trkpt><trkpt lat="42.9227983" lon="10.7597467"><ele>9.0</ele><time>2026-04-25T11:20:11.723Z</time></trkpt><trkpt lat="42.92275" lon="10.759675"><ele>9.0</ele><time>2026-04-25T11:20:13.723Z</time></trkpt><trkpt lat="42.922695" lon="10.759575"><ele>9.0</ele><time>2026-04-25T11:20:15.724Z</time></trkpt><trkpt lat="42.9226267" lon="10.7595067"><ele>9.0</ele><time>2026-04-25T11:20:17.724Z</time></trkpt><trkpt lat="42.9225417" lon="10.7594983"><ele>9.4</ele><time>2026-04-25T11:20:19.725Z</time></trkpt><trkpt lat="42.9224133" lon="10.7595317"><ele>9.8</ele><time>2026-04-25T11:20:21.724Z</time></trkpt><trkpt lat="42.9223383" lon="10.759565"><ele>10.200000000000001</ele><time>2026-04-25T11:20:22.723Z</time></trkpt><trkpt lat="42.9222667" lon="10.7596017"><ele>10.600000000000001</ele><time>2026-04-25T11:20:23.724Z</time></trkpt><trkpt lat="42.922195" lon="10.75966"><ele>11.0</ele><time>2026-04-25T11:20:24.723Z</time></trkpt><trkpt lat="42.9221167" lon="10.7596967"><ele>11.0</ele><time>2026-04-25T11:20:25.725Z</time></trkpt><trkpt lat="42.922015" lon="10.7596883"><ele>11.0</ele><time>2026-04-25T11:20:26.725Z</time></trkpt><trkpt lat="42.921945" lon="10.7597283"><ele>11.0</ele><time>2026-04-25T11:20:27.723Z</time></trkpt><trkpt lat="42.92188" lon="10.759765"><ele>11.0</ele><time>2026-04-25T11:20:28.725Z</time></trkpt><trkpt lat="42.9217733" lon="10.75984"><ele>11.0</ele><time>2026-04-25T11:20:30.724Z</time></trkpt><trkpt lat="42.921685" lon="10.7598233"><ele>11.0</ele><time>2026-04-25T11:20:32.725Z</time></trkpt><trkpt lat="42.9216217" lon="10.75973"><ele>11.0</ele><time>2026-04-25T11:20:34.725Z</time></trkpt><trkpt lat="42.9215733" lon="10.7595767"><ele>11.0</ele><time>2026-04-25T11:20:36.725Z</time></trkpt><trkpt lat="42.92155" lon="10.759495"><ele>11.0</ele><time>2026-04-25T11:20:37.724Z</time></trkpt><trkpt lat="42.9215067" lon="10.759335"><ele>11.0</ele><time>2026-04-25T11:20:39.724Z</time></trkpt><trkpt lat="42.921465" lon="10.7591783"><ele>11.5</ele><time>2026-04-25T11:20:41.724Z</time></trkpt><trkpt lat="42.9214417" lon="10.7590967"><ele>12.0</ele><time>2026-04-25T11:20:42.724Z</time></trkpt><trkpt lat="42.921415" lon="10.759015"><ele>12.5</ele><time>2026-04-25T11:20:43.724Z</time></trkpt><trkpt lat="42.9213617" lon="10.758855"><ele>13.0</ele><time>2026-04-25T11:20:45.722Z</time></trkpt><trkpt lat="42.9213333" lon="10.758765"><ele>13.500000000000002</ele><time>2026-04-25T11:20:46.725Z</time></trkpt><trkpt lat="42.9213117" lon="10.7586667"><ele>14.0</ele><time>2026-04-25T11:20:47.724Z</time></trkpt><trkpt lat="42.9212833" lon="10.7585683"><ele>13.571428571428571</ele><time>2026-04-25T11:20:48.724Z</time></trkpt><trkpt lat="42.9212617" lon="10.758475"><ele>13.142857142857142</ele><time>2026-04-25T11:20:49.724Z</time></trkpt><trkpt lat="42.9212383" lon="10.75838"><ele>12.714285714285715</ele><time>2026-04-25T11:20:50.725Z</time></trkpt><trkpt lat="42.9212083" lon="10.7582917"><ele>12.285714285714285</ele><time>2026-04-25T11:20:51.724Z</time></trkpt><trkpt lat="42.9211883" lon="10.758195"><ele>11.857142857142858</ele><time>2026-04-25T11:20:52.723Z</time></trkpt><trkpt lat="42.9211683" lon="10.7580967"><ele>11.428571428571429</ele><time>2026-04-25T11:20:53.726Z</time></trkpt><trkpt lat="42.921145" lon="10.7579967"><ele>11.0</ele><time>2026-04-25T11:20:54.725Z</time></trkpt><trkpt lat="42.921115" lon="10.7579033"><ele>11.0</ele><time>2026-04-25T11:20:55.726Z</time></trkpt><trkpt lat="42.9210833" lon="10.7578183"><ele>11.0</ele><time>2026-04-25T11:20:56.724Z</time></trkpt><trkpt lat="42.921045" lon="10.75773"><ele>11.0</ele><time>2026-04-25T11:20:57.725Z</time></trkpt><trkpt lat="42.9210083" lon="10.7576383"><ele>11.0</ele><time>2026-04-25T11:20:58.724Z</time></trkpt><trkpt lat="42.92098" lon="10.7575433"><ele>11.0</ele><time>2026-04-25T11:20:59.725Z</time></trkpt><trkpt lat="42.920955" lon="10.75744"><ele>11.0</ele><time>2026-04-25T11:21:00.725Z</time></trkpt><trkpt lat="42.9209333" lon="10.757345"><ele>11.0</ele><time>2026-04-25T11:21:01.722Z</time></trkpt><trkpt lat="42.9209133" lon="10.7572617"><ele>10.857142857142858</ele><time>2026-04-25T11:21:02.725Z</time></trkpt><trkpt lat="42.9208833" lon="10.7571783"><ele>10.714285714285714</ele><time>2026-04-25T11:21:04.724Z</time></trkpt><trkpt lat="42.9209146" lon="10.7570931"><ele>10.571428571428571</ele><time>2026-04-25T11:26:39.752Z</time></trkpt><trkpt lat="42.9209588" lon="10.7570264"><ele>10.428571428571429</ele><time>2026-04-25T11:26:45.786Z</time></trkpt><trkpt lat="42.9210224" lon="10.7570537"><ele>10.285714285714286</ele><time>2026-04-25T11:26:56.749Z</time></trkpt><trkpt lat="42.9210655" lon="10.7571228"><ele>10.142857142857142</ele><time>2026-04-25T11:27:40.807Z</time></trkpt><trkpt lat="42.9211253" lon="10.7571923"><ele>10.0</ele><time>2026-04-25T11:27:43.778Z</time></trkpt><trkpt lat="42.9212746" lon="10.7573744"><ele>10.0</ele><time>2026-04-25T11:27:44.802Z</time></trkpt><trkpt lat="42.9213456" lon="10.7574676"><ele>10.0</ele><time>2026-04-25T11:27:45.827Z</time></trkpt><trkpt lat="42.9213777" lon="10.7575479"><ele>10.0</ele><time>2026-04-25T11:27:53.818Z</time></trkpt><trkpt lat="42.9214247" lon="10.7576271"><ele>10.0</ele><time>2026-04-25T11:28:04.671Z</time></trkpt><trkpt lat="42.9217218" lon="10.75785"><ele>10.0</ele><time>2026-04-25T11:28:20.725Z</time></trkpt><trkpt lat="42.9218223" lon="10.7579461"><ele>10.0</ele><time>2026-04-25T11:28:21.723Z</time></trkpt><trkpt lat="42.9217632" lon="10.7578582"><ele>10.0</ele><time>2026-04-25T11:28:44.853Z</time></trkpt><trkpt lat="42.9216222" lon="10.7576578"><ele>10.0</ele><time>2026-04-25T11:28:52.764Z</time></trkpt><trkpt lat="42.9215102" lon="10.7575041"><ele>10.0</ele><time>2026-04-25T11:28:53.789Z</time></trkpt><trkpt lat="42.9213346" lon="10.7572471"><ele>10.0</ele><time>2026-04-25T11:28:54.813Z</time></trkpt><trkpt lat="42.9212674" lon="10.7571534"><ele>10.0</ele><time>2026-04-25T11:28:55.838Z</time></trkpt><trkpt lat="42.9212062" lon="10.7571133"><ele>10.0</ele><time>2026-04-25T11:29:01.78Z</time></trkpt><trkpt lat="42.9211307" lon="10.7571245"><ele>10.0</ele><time>2026-04-25T11:29:23.559Z</time></trkpt><trkpt lat="42.9210118" lon="10.7570737"><ele>10.0</ele><time>2026-04-25T11:30:05.839Z</time></trkpt><trkpt lat="42.9210648" lon="10.7571461"><ele>10.0</ele><time>2026-04-25T11:31:35.726Z</time></trkpt><trkpt lat="42.9213671" lon="10.757484"><ele>10.0</ele><time>2026-04-25T11:31:37.827Z</time></trkpt><trkpt lat="42.921406" lon="10.7575586"><ele>10.0</ele><time>2026-04-25T11:31:38.852Z</time></trkpt><trkpt lat="42.9213275" lon="10.7575296"><ele>10.0</ele><time>2026-04-25T11:31:41.823Z</time></trkpt><trkpt lat="42.9212235" lon="10.7574162"><ele>10.0</ele><time>2026-04-25T11:31:42.848Z</time></trkpt><trkpt lat="42.9211369" lon="10.75732"><ele>10.0</ele><time>2026-04-25T11:31:43.769Z</time></trkpt><trkpt lat="42.9209962" lon="10.7571859"><ele>10.0</ele><time>2026-04-25T11:31:44.691Z</time></trkpt><trkpt lat="42.9209347" lon="10.7571505"><ele>10.0</ele><time>2026-04-25T11:31:49.814Z</time></trkpt><trkpt lat="42.9208711" lon="10.7571168"><ele>10.0</ele><time>2026-04-25T11:31:59.753Z</time></trkpt><trkpt lat="42.9208347" lon="10.7570351"><ele>10.0</ele><time>2026-04-25T11:32:34.795Z</time></trkpt><trkpt lat="42.920813" lon="10.7569409"><ele>10.0</ele><time>2026-04-25T11:32:40.839Z</time></trkpt><trkpt lat="42.920811" lon="10.7568528"><ele>10.0</ele><time>2026-04-25T11:32:45.759Z</time></trkpt><trkpt lat="42.9207869" lon="10.7567662"><ele>10.0</ele><time>2026-04-25T11:32:52.734Z</time></trkpt><trkpt lat="42.9207602" lon="10.7566858"><ele>9.428571428571429</ele><time>2026-04-25T11:32:58.77Z</time></trkpt><trkpt lat="42.920746" lon="10.7565935"><ele>8.857142857142858</ele><time>2026-04-25T11:33:04.816Z</time></trkpt><trkpt lat="42.920752" lon="10.7564916"><ele>8.285714285714285</ele><time>2026-04-25T11:33:10.758Z</time></trkpt><trkpt lat="42.9207725" lon="10.7563963"><ele>7.7142857142857135</ele><time>2026-04-25T11:33:17.277Z</time></trkpt><trkpt lat="42.920811" lon="10.7563203"><ele>7.142857142857142</ele><time>2026-04-25T11:33:22.842Z</time></trkpt><trkpt lat="42.9208164" lon="10.7562203"><ele>6.571428571428571</ele><time>2026-04-25T11:33:29.817Z</time></trkpt><trkpt lat="42.9208383" lon="10.7561339"><ele>6.0</ele><time>2026-04-25T11:33:35.759Z</time></trkpt><trkpt lat="42.9208776" lon="10.7560632"><ele>5.857142857142857</ele><time>2026-04-25T11:33:41.719Z</time></trkpt><trkpt lat="42.9209171" lon="10.7559896"><ele>5.714285714285714</ele><time>2026-04-25T11:33:47.85Z</time></trkpt><trkpt lat="42.9209546" lon="10.755907"><ele>5.571428571428571</ele><time>2026-04-25T11:33:53.793Z</time></trkpt><trkpt lat="42.9209429" lon="10.7558084"><ele>5.428571428571429</ele><time>2026-04-25T11:33:58.813Z</time></trkpt><trkpt lat="42.9209486" lon="10.7557109"><ele>5.285714285714286</ele><time>2026-04-25T11:34:06.736Z</time></trkpt><trkpt lat="42.9209734" lon="10.7556269"><ele>5.142857142857142</ele><time>2026-04-25T11:34:12.747Z</time></trkpt><trkpt lat="42.9209927" lon="10.7555444"><ele>5.0</ele><time>2026-04-25T11:34:18.851Z</time></trkpt><trkpt lat="42.9210246" lon="10.7554648"><ele>5.0</ele><time>2026-04-25T11:34:25.761Z</time></trkpt></trkseg><trkseg><trkpt lat="42.9208524" lon="10.7571372"><ele>7.999999999999999</ele><time>2026-04-25T14:00:55.759Z</time></trkpt><trkpt lat="42.9208079" lon="10.7570239"><ele>8.0</ele><time>2026-04-25T14:01:27.829Z</time></trkpt><trkpt lat="42.9207685" lon="10.7569178"><ele>8.0</ele><time>2026-04-25T14:01:28.755Z</time></trkpt><trkpt lat="42.920725" lon="10.7568267"><ele>8.0</ele><time>2026-04-25T14:01:30.723Z</time></trkpt><trkpt lat="42.9206617" lon="10.7568033"><ele>7.999999999999999</ele><time>2026-04-25T14:01:33.724Z</time></trkpt><trkpt lat="42.92059" lon="10.7568083"><ele>8.0</ele><time>2026-04-25T14:01:35.723Z</time></trkpt><trkpt lat="42.9205117" lon="10.7568533"><ele>8.0</ele><time>2026-04-25T14:01:37.724Z</time></trkpt><trkpt lat="42.9204333" lon="10.7569283"><ele>8.0</ele><time>2026-04-25T14:01:39.724Z</time></trkpt><trkpt lat="42.9203667" lon="10.7570183"><ele>8.0</ele><time>2026-04-25T14:01:41.723Z</time></trkpt><trkpt lat="42.9203033" lon="10.75712"><ele>8.0</ele><time>2026-04-25T14:01:43.723Z</time></trkpt><trkpt lat="42.9202417" lon="10.757225"><ele>8.0</ele><time>2026-04-25T14:01:45.723Z</time></trkpt><trkpt lat="42.920185" lon="10.757335"><ele>8.0</ele><time>2026-04-25T14:01:47.725Z</time></trkpt><trkpt lat="42.9201317" lon="10.7574517"><ele>8.0</ele><time>2026-04-25T14:01:49.724Z</time></trkpt><trkpt lat="42.9200783" lon="10.7575717"><ele>8.0</ele><time>2026-04-25T14:01:51.724Z</time></trkpt><trkpt lat="42.9200267" lon="10.7576883"><ele>8.0</ele><time>2026-04-25T14:01:53.724Z</time></trkpt><trkpt lat="42.9199717" lon="10.75781"><ele>8.0</ele><time>2026-04-25T14:01:55.724Z</time></trkpt><trkpt lat="42.919905" lon="10.757935"><ele>8.600000000000001</ele><time>2026-04-25T14:01:57.723Z</time></trkpt><trkpt lat="42.919845" lon="10.7580633"><ele>9.200000000000001</ele><time>2026-04-25T14:01:59.723Z</time></trkpt><trkpt lat="42.9197817" lon="10.7581867"><ele>9.8</ele><time>2026-04-25T14:02:01.723Z</time></trkpt><trkpt lat="42.9197183" lon="10.7583033"><ele>10.4</ele><time>2026-04-25T14:02:03.723Z</time></trkpt><trkpt lat="42.9196567" lon="10.75842"><ele>11.0</ele><time>2026-04-25T14:02:05.722Z</time></trkpt><trkpt lat="42.9195933" lon="10.7585333"><ele>10.8</ele><time>2026-04-25T14:02:07.723Z</time></trkpt><trkpt lat="42.9195283" lon="10.7586417"><ele>10.600000000000001</ele><time>2026-04-25T14:02:09.724Z</time></trkpt><trkpt lat="42.9194617" lon="10.75875"><ele>10.4</ele><time>2026-04-25T14:02:11.724Z</time></trkpt><trkpt lat="42.9194017" lon="10.75887"><ele>10.2</ele><time>2026-04-25T14:02:13.725Z</time></trkpt><trkpt lat="42.9193417" lon="10.7590017"><ele>10.0</ele><time>2026-04-25T14:02:15.723Z</time></trkpt><trkpt lat="42.9192833" lon="10.7591283"><ele>9.0</ele><time>2026-04-25T14:02:17.724Z</time></trkpt><trkpt lat="42.9192183" lon="10.7592533"><ele>8.0</ele><time>2026-04-25T14:02:19.723Z</time></trkpt><trkpt lat="42.919165" lon="10.759385"><ele>7.0</ele><time>2026-04-25T14:02:21.724Z</time></trkpt><trkpt lat="42.9191367" lon="10.759525"><ele>6.0</ele><time>2026-04-25T14:02:23.727Z</time></trkpt><trkpt lat="42.9191483" lon="10.7596633"><ele>5.0</ele><time>2026-04-25T14:02:25.724Z</time></trkpt><trkpt lat="42.919155" lon="10.7598133"><ele>5.0</ele><time>2026-04-25T14:02:27.722Z</time></trkpt><trkpt lat="42.9191133" lon="10.7599533"><ele>5.0</ele><time>2026-04-25T14:02:29.724Z</time></trkpt><trkpt lat="42.9190333" lon="10.7600517"><ele>5.0</ele><time>2026-04-25T14:02:31.725Z</time></trkpt><trkpt lat="42.91897" lon="10.7601167"><ele>5.0</ele><time>2026-04-25T14:02:33.724Z</time></trkpt><trkpt lat="42.91896" lon="10.7602167"><ele>5.0</ele><time>2026-04-25T14:02:35.723Z</time></trkpt><trkpt lat="42.9189933" lon="10.7603467"><ele>5.166666666666667</ele><time>2026-04-25T14:02:37.724Z</time></trkpt><trkpt lat="42.91905" lon="10.760495"><ele>5.333333333333334</ele><time>2026-04-25T14:02:39.722Z</time></trkpt><trkpt lat="42.9190817" lon="10.7605733"><ele>5.5</ele><time>2026-04-25T14:02:40.723Z</time></trkpt><trkpt lat="42.919115" lon="10.7606517"><ele>5.666666666666667</ele><time>2026-04-25T14:02:41.723Z</time></trkpt><trkpt lat="42.9191433" lon="10.76073"><ele>5.833333333333333</ele><time>2026-04-25T14:02:42.724Z</time></trkpt><trkpt lat="42.9191733" lon="10.7608783"><ele>6.0</ele><time>2026-04-25T14:02:44.724Z</time></trkpt><trkpt lat="42.9191933" lon="10.761005"><ele>5.833333333333333</ele><time>2026-04-25T14:02:46.725Z</time></trkpt><trkpt lat="42.9192033" lon="10.7611117"><ele>5.666666666666667</ele><time>2026-04-25T14:02:49.724Z</time></trkpt><trkpt lat="42.9193" lon="10.7611167"><ele>5.5</ele><time>2026-04-25T14:02:53.724Z</time></trkpt><trkpt lat="42.9194067" lon="10.7610667"><ele>5.333333333333334</ele><time>2026-04-25T14:02:55.725Z</time></trkpt><trkpt lat="42.9194767" lon="10.761025"><ele>5.166666666666667</ele><time>2026-04-25T14:02:56.726Z</time></trkpt><trkpt lat="42.9195483" lon="10.760985"><ele>5.0</ele><time>2026-04-25T14:02:57.724Z</time></trkpt><trkpt lat="42.9196183" lon="10.7609483"><ele>5.333333333333334</ele><time>2026-04-25T14:02:58.724Z</time></trkpt><trkpt lat="42.91969" lon="10.7609083"><ele>5.666666666666667</ele><time>2026-04-25T14:02:59.724Z</time></trkpt><trkpt lat="42.91976" lon="10.7608667"><ele>6.0</ele><time>2026-04-25T14:03:00.725Z</time></trkpt><trkpt lat="42.9198317" lon="10.76083"><ele>6.333333333333334</ele><time>2026-04-25T14:03:01.725Z</time></trkpt><trkpt lat="42.919905" lon="10.7607917"><ele>6.666666666666667</ele><time>2026-04-25T14:03:02.727Z</time></trkpt><trkpt lat="42.9199833" lon="10.7607467"><ele>7.0</ele><time>2026-04-25T14:03:03.727Z</time></trkpt><trkpt lat="42.9200583" lon="10.7607083"><ele>7.500000000000001</ele><time>2026-04-25T14:03:04.727Z</time></trkpt><trkpt lat="42.9201417" lon="10.76065"><ele>8.0</ele><time>2026-04-25T14:03:05.725Z</time></trkpt><trkpt lat="42.9202183" lon="10.7606"><ele>8.5</ele><time>2026-04-25T14:03:06.727Z</time></trkpt><trkpt lat="42.9202917" lon="10.760555"><ele>9.0</ele><time>2026-04-25T14:03:07.726Z</time></trkpt><trkpt lat="42.9203633" lon="10.76051"><ele>9.5</ele><time>2026-04-25T14:03:08.727Z</time></trkpt><trkpt lat="42.9204467" lon="10.7604733"><ele>10.0</ele><time>2026-04-25T14:03:09.724Z</time></trkpt><trkpt lat="42.9205267" lon="10.76043"><ele>10.0</ele><time>2026-04-25T14:03:10.725Z</time></trkpt><trkpt lat="42.920605" lon="10.7603983"><ele>10.0</ele><time>2026-04-25T14:03:11.725Z</time></trkpt><trkpt lat="42.920675" lon="10.7603617"><ele>10.0</ele><time>2026-04-25T14:03:12.724Z</time></trkpt><trkpt lat="42.92075" lon="10.76033"><ele>10.0</ele><time>2026-04-25T14:03:13.725Z</time></trkpt><trkpt lat="42.9208217" lon="10.760295"><ele>10.0</ele><time>2026-04-25T14:03:14.725Z</time></trkpt><trkpt lat="42.9208967" lon="10.7602667"><ele>10.0</ele><time>2026-04-25T14:03:15.724Z</time></trkpt><trkpt lat="42.9209717" lon="10.760235"><ele>10.166666666666668</ele><time>2026-04-25T14:03:16.723Z</time></trkpt><trkpt lat="42.921045" lon="10.7601967"><ele>10.333333333333334</ele><time>2026-04-25T14:03:17.724Z</time></trkpt><trkpt lat="42.92112" lon="10.7601617"><ele>10.5</ele><time>2026-04-25T14:03:18.724Z</time></trkpt><trkpt lat="42.9211983" lon="10.7601283"><ele>10.666666666666666</ele><time>2026-04-25T14:03:19.724Z</time></trkpt><trkpt lat="42.921275" lon="10.76009"><ele>10.833333333333332</ele><time>2026-04-25T14:03:20.727Z</time></trkpt><trkpt lat="42.92135" lon="10.7600467"><ele>11.0</ele><time>2026-04-25T14:03:21.724Z</time></trkpt><trkpt lat="42.921425" lon="10.760005"><ele>11.0</ele><time>2026-04-25T14:03:22.725Z</time></trkpt><trkpt lat="42.9215017" lon="10.759965"><ele>11.0</ele><time>2026-04-25T14:03:23.724Z</time></trkpt><trkpt lat="42.9215767" lon="10.7599283"><ele>11.0</ele><time>2026-04-25T14:03:24.724Z</time></trkpt><trkpt lat="42.92165" lon="10.759885"><ele>11.0</ele><time>2026-04-25T14:03:25.725Z</time></trkpt><trkpt lat="42.9217217" lon="10.7598517"><ele>11.0</ele><time>2026-04-25T14:03:26.725Z</time></trkpt><trkpt lat="42.9217917" lon="10.7598183"><ele>11.0</ele><time>2026-04-25T14:03:27.723Z</time></trkpt><trkpt lat="42.92186" lon="10.7597783"><ele>11.0</ele><time>2026-04-25T14:03:28.723Z</time></trkpt><trkpt lat="42.9219267" lon="10.7597367"><ele>11.0</ele><time>2026-04-25T14:03:29.724Z</time></trkpt><trkpt lat="42.9219833" lon="10.75969"><ele>11.0</ele><time>2026-04-25T14:03:30.723Z</time></trkpt><trkpt lat="42.9221067" lon="10.7596033"><ele>11.0</ele><time>2026-04-25T14:03:32.723Z</time></trkpt><trkpt lat="42.9221667" lon="10.7595717"><ele>11.0</ele><time>2026-04-25T14:03:33.721Z</time></trkpt><trkpt lat="42.922235" lon="10.7595533"><ele>11.0</ele><time>2026-04-25T14:03:34.723Z</time></trkpt><trkpt lat="42.9223517" lon="10.75951"><ele>11.0</ele><time>2026-04-25T14:03:36.723Z</time></trkpt><trkpt lat="42.9224383" lon="10.75945"><ele>11.0</ele><time>2026-04-25T14:03:38.724Z</time></trkpt><trkpt lat="42.9225233" lon="10.75937"><ele>11.0</ele><time>2026-04-25T14:03:40.722Z</time></trkpt><trkpt lat="42.9226033" lon="10.7593917"><ele>11.0</ele><time>2026-04-25T14:03:42.723Z</time></trkpt><trkpt lat="42.9226567" lon="10.7594567"><ele>11.0</ele><time>2026-04-25T14:03:43.723Z</time></trkpt><trkpt lat="42.9227467" lon="10.7596767"><ele>10.600000000000001</ele><time>2026-04-25T14:03:44.724Z</time></trkpt><trkpt lat="42.9228033" lon="10.75978"><ele>10.200000000000001</ele><time>2026-04-25T14:03:45.722Z</time></trkpt><trkpt lat="42.9228683" lon="10.7598867"><ele>9.8</ele><time>2026-04-25T14:03:46.724Z</time></trkpt><trkpt lat="42.92292" lon="10.7599883"><ele>9.4</ele><time>2026-04-25T14:03:47.723Z</time></trkpt><trkpt lat="42.9229683" lon="10.7600883"><ele>9.0</ele><time>2026-04-25T14:03:48.722Z</time></trkpt><trkpt lat="42.9230283" lon="10.7601833"><ele>9.0</ele><time>2026-04-25T14:03:49.723Z</time></trkpt><trkpt lat="42.9230883" lon="10.7602783"><ele>9.0</ele><time>2026-04-25T14:03:50.724Z</time></trkpt><trkpt lat="42.9231383" lon="10.760375"><ele>9.0</ele><time>2026-04-25T14:03:51.722Z</time></trkpt><trkpt lat="42.92319" lon="10.7604717"><ele>9.0</ele><time>2026-04-25T14:03:52.723Z</time></trkpt><trkpt lat="42.9232383" lon="10.760565"><ele>9.0</ele><time>2026-04-25T14:03:53.723Z</time></trkpt><trkpt lat="42.9232833" lon="10.7606767"><ele>9.0</ele><time>2026-04-25T14:03:54.724Z</time></trkpt><trkpt lat="42.9233283" lon="10.760785"><ele>9.0</ele><time>2026-04-25T14:03:55.723Z</time></trkpt><trkpt lat="42.9233717" lon="10.7608933"><ele>9.0</ele><time>2026-04-25T14:03:56.724Z</time></trkpt><trkpt lat="42.9234183" lon="10.7609867"><ele>9.0</ele><time>2026-04-25T14:03:57.724Z</time></trkpt><trkpt lat="42.923465" lon="10.7610867"><ele>9.0</ele><time>2026-04-25T14:03:58.724Z</time></trkpt><trkpt lat="42.9235183" lon="10.7611967"><ele>9.0</ele><time>2026-04-25T14:03:59.724Z</time></trkpt><trkpt lat="42.9235633" lon="10.7613017"><ele>9.0</ele><time>2026-04-25T14:04:00.723Z</time></trkpt><trkpt lat="42.92361" lon="10.761405"><ele>9.0</ele><time>2026-04-25T14:04:01.724Z</time></trkpt><trkpt lat="42.9236733" lon="10.761495"><ele>9.0</ele><time>2026-04-25T14:04:02.723Z</time></trkpt><trkpt lat="42.9237283" lon="10.7616"><ele>9.0</ele><time>2026-04-25T14:04:03.724Z</time></trkpt><trkpt lat="42.92378" lon="10.7616983"><ele>9.0</ele><time>2026-04-25T14:04:04.724Z</time></trkpt><trkpt lat="42.923825" lon="10.7618033"><ele>9.0</ele><time>2026-04-25T14:04:05.724Z</time></trkpt><trkpt lat="42.9238733" lon="10.7618983"><ele>9.0</ele><time>2026-04-25T14:04:06.724Z</time></trkpt><trkpt lat="42.92393" lon="10.7619783"><ele>9.0</ele><time>2026-04-25T14:04:07.724Z</time></trkpt><trkpt lat="42.92398" lon="10.7620717"><ele>9.0</ele><time>2026-04-25T14:04:08.724Z</time></trkpt><trkpt lat="42.9240283" lon="10.762175"><ele>9.0</ele><time>2026-04-25T14:04:09.723Z</time></trkpt><trkpt lat="42.924075" lon="10.76227"><ele>9.0</ele><time>2026-04-25T14:04:10.724Z</time></trkpt><trkpt lat="42.924125" lon="10.7623667"><ele>9.0</ele><time>2026-04-25T14:04:11.723Z</time></trkpt><trkpt lat="42.9241767" lon="10.7624617"><ele>9.0</ele><time>2026-04-25T14:04:12.723Z</time></trkpt><trkpt lat="42.9242283" lon="10.762565"><ele>9.0</ele><time>2026-04-25T14:04:13.723Z</time></trkpt><trkpt lat="42.9242783" lon="10.76267"><ele>9.0</ele><time>2026-04-25T14:04:14.723Z</time></trkpt><trkpt lat="42.9243317" lon="10.7627733"><ele>9.0</ele><time>2026-04-25T14:04:15.724Z</time></trkpt><trkpt lat="42.924385" lon="10.762875"><ele>9.0</ele><time>2026-04-25T14:04:16.723Z</time></trkpt><trkpt lat="42.92444" lon="10.762985"><ele>9.0</ele><time>2026-04-25T14:04:17.723Z</time></trkpt><trkpt lat="42.9244917" lon="10.7630867"><ele>8.833333333333334</ele><time>2026-04-25T14:04:18.723Z</time></trkpt><trkpt lat="42.924545" lon="10.763185"><ele>8.666666666666666</ele><time>2026-04-25T14:04:19.723Z</time></trkpt><trkpt lat="42.9245933" lon="10.7632817"><ele>8.5</ele><time>2026-04-25T14:04:20.723Z</time></trkpt><trkpt lat="42.9246433" lon="10.7633767"><ele>8.333333333333332</ele><time>2026-04-25T14:04:21.722Z</time></trkpt><trkpt lat="42.924685" lon="10.7634783"><ele>8.166666666666666</ele><time>2026-04-25T14:04:22.722Z</time></trkpt><trkpt lat="42.9247183" lon="10.76358"><ele>8.0</ele><time>2026-04-25T14:04:23.723Z</time></trkpt><trkpt lat="42.9247383" lon="10.7636733"><ele>8.4</ele><time>2026-04-25T14:04:24.723Z</time></trkpt><trkpt lat="42.9247367" lon="10.7638317"><ele>8.8</ele><time>2026-04-25T14:04:26.724Z</time></trkpt><trkpt lat="42.9247133" lon="10.7639117"><ele>9.2</ele><time>2026-04-25T14:04:27.723Z</time></trkpt><trkpt lat="42.9246933" lon="10.7640617"><ele>9.6</ele><time>2026-04-25T14:04:29.728Z</time></trkpt><trkpt lat="42.9247283" lon="10.7641783"><ele>10.0</ele><time>2026-04-25T14:04:31.723Z</time></trkpt><trkpt lat="42.9248183" lon="10.7642867"><ele>10.0</ele><time>2026-04-25T14:04:33.723Z</time></trkpt><trkpt lat="42.924865" lon="10.7643467"><ele>10.0</ele><time>2026-04-25T14:04:34.725Z</time></trkpt><trkpt lat="42.9249317" lon="10.7644483"><ele>10.0</ele><time>2026-04-25T14:04:36.725Z</time></trkpt><trkpt lat="42.9249983" lon="10.76458"><ele>10.0</ele><time>2026-04-25T14:04:38.725Z</time></trkpt><trkpt lat="42.92504" lon="10.764645"><ele>10.0</ele><time>2026-04-25T14:04:39.724Z</time></trkpt><trkpt lat="42.925085" lon="10.7647183"><ele>10.0</ele><time>2026-04-25T14:04:40.724Z</time></trkpt><trkpt lat="42.9251383" lon="10.76479"><ele>10.0</ele><time>2026-04-25T14:04:41.723Z</time></trkpt><trkpt lat="42.9251933" lon="10.7648683"><ele>10.0</ele><time>2026-04-25T14:04:42.723Z</time></trkpt><trkpt lat="42.9252433" lon="10.7649517"><ele>10.0</ele><time>2026-04-25T14:04:43.724Z</time></trkpt><trkpt lat="42.92529" lon="10.765035"><ele>10.0</ele><time>2026-04-25T14:04:44.726Z</time></trkpt><trkpt lat="42.9253383" lon="10.76512"><ele>10.0</ele><time>2026-04-25T14:04:45.725Z</time></trkpt><trkpt lat="42.925385" lon="10.7652167"><ele>10.0</ele><time>2026-04-25T14:04:46.723Z</time></trkpt><trkpt lat="42.9254333" lon="10.7653117"><ele>10.166666666666668</ele><time>2026-04-25T14:04:47.724Z</time></trkpt><trkpt lat="42.92548" lon="10.7654117"><ele>10.333333333333334</ele><time>2026-04-25T14:04:48.724Z</time></trkpt><trkpt lat="42.9255267" lon="10.76551"><ele>10.5</ele><time>2026-04-25T14:04:49.724Z</time></trkpt><trkpt lat="42.9255767" lon="10.765605"><ele>10.666666666666666</ele><time>2026-04-25T14:04:50.727Z</time></trkpt><trkpt lat="42.925625" lon="10.7656983"><ele>10.833333333333332</ele><time>2026-04-25T14:04:51.724Z</time></trkpt><trkpt lat="42.9256733" lon="10.7657867"><ele>11.0</ele><time>2026-04-25T14:04:52.726Z</time></trkpt><trkpt lat="42.925725" lon="10.7658783"><ele>11.0</ele><time>2026-04-25T14:04:53.722Z</time></trkpt><trkpt lat="42.9257733" lon="10.76597"><ele>11.0</ele><time>2026-04-25T14:04:54.725Z</time></trkpt><trkpt lat="42.9258267" lon="10.7660567"><ele>11.0</ele><time>2026-04-25T14:04:55.725Z</time></trkpt><trkpt lat="42.92588" lon="10.76615"><ele>11.0</ele><time>2026-04-25T14:04:56.725Z</time></trkpt><trkpt lat="42.92594" lon="10.76624"><ele>11.0</ele><time>2026-04-25T14:04:57.724Z</time></trkpt><trkpt lat="42.9259983" lon="10.766335"><ele>11.0</ele><time>2026-04-25T14:04:58.725Z</time></trkpt><trkpt lat="42.92606" lon="10.766415"><ele>11.166666666666666</ele><time>2026-04-25T14:04:59.727Z</time></trkpt><trkpt lat="42.9261217" lon="10.7664883"><ele>11.333333333333332</ele><time>2026-04-25T14:05:00.723Z</time></trkpt><trkpt lat="42.9261867" lon="10.7665583"><ele>11.5</ele><time>2026-04-25T14:05:01.723Z</time></trkpt><trkpt lat="42.9262517" lon="10.76663"><ele>11.666666666666666</ele><time>2026-04-25T14:05:02.724Z</time></trkpt><trkpt lat="42.9263133" lon="10.766695"><ele>11.833333333333334</ele><time>2026-04-25T14:05:03.722Z</time></trkpt><trkpt lat="42.9263717" lon="10.7667583"><ele>12.0</ele><time>2026-04-25T14:05:04.724Z</time></trkpt><trkpt lat="42.9264267" lon="10.7668183"><ele>11.8</ele><time>2026-04-25T14:05:05.725Z</time></trkpt><trkpt lat="42.926515" lon="10.766915"><ele>11.6</ele><time>2026-04-25T14:05:07.726Z</time></trkpt><trkpt lat="42.9265817" lon="10.7669983"><ele>11.4</ele><time>2026-04-25T14:05:09.723Z</time></trkpt><trkpt lat="42.9266767" lon="10.7670717"><ele>11.200000000000001</ele><time>2026-04-25T14:05:11.723Z</time></trkpt><trkpt lat="42.9267967" lon="10.7671167"><ele>11.0</ele><time>2026-04-25T14:05:13.724Z</time></trkpt><trkpt lat="42.92686" lon="10.7671583"><ele>11.0</ele><time>2026-04-25T14:05:14.726Z</time></trkpt><trkpt lat="42.9269267" lon="10.7672167"><ele>11.0</ele><time>2026-04-25T14:05:15.724Z</time></trkpt><trkpt lat="42.9269917" lon="10.767275"><ele>11.0</ele><time>2026-04-25T14:05:16.725Z</time></trkpt><trkpt lat="42.9270633" lon="10.7673433"><ele>11.0</ele><time>2026-04-25T14:05:17.725Z</time></trkpt><trkpt lat="42.92714" lon="10.7674067"><ele>11.0</ele><time>2026-04-25T14:05:18.724Z</time></trkpt><trkpt lat="42.9272167" lon="10.7674783"><ele>11.0</ele><time>2026-04-25T14:05:19.725Z</time></trkpt><trkpt lat="42.927295" lon="10.76755"><ele>11.0</ele><time>2026-04-25T14:05:20.727Z</time></trkpt><trkpt lat="42.9273817" lon="10.7676017"><ele>11.0</ele><time>2026-04-25T14:05:21.725Z</time></trkpt><trkpt lat="42.9274667" lon="10.7676383"><ele>11.0</ele><time>2026-04-25T14:05:22.724Z</time></trkpt><trkpt lat="42.9275533" lon="10.76768"><ele>11.0</ele><time>2026-04-25T14:05:23.725Z</time></trkpt><trkpt lat="42.9276383" lon="10.76773"><ele>11.0</ele><time>2026-04-25T14:05:24.724Z</time></trkpt><trkpt lat="42.927715" lon="10.7677783"><ele>11.333333333333332</ele><time>2026-04-25T14:05:25.725Z</time></trkpt><trkpt lat="42.9277817" lon="10.7678417"><ele>11.666666666666666</ele><time>2026-04-25T14:05:26.725Z</time></trkpt><trkpt lat="42.9278383" lon="10.7679167"><ele>12.0</ele><time>2026-04-25T14:05:27.723Z</time></trkpt><trkpt lat="42.9278833" lon="10.7680117"><ele>12.333333333333332</ele><time>2026-04-25T14:05:28.724Z</time></trkpt><trkpt lat="42.9279217" lon="10.7681083"><ele>12.666666666666666</ele><time>2026-04-25T14:05:29.723Z</time></trkpt><trkpt lat="42.927955" lon="10.7682033"><ele>13.0</ele><time>2026-04-25T14:05:30.724Z</time></trkpt><trkpt lat="42.9279867" lon="10.7682983"><ele>12.999999999999998</ele><time>2026-04-25T14:05:31.725Z</time></trkpt><trkpt lat="42.9280183" lon="10.7683867"><ele>13.0</ele><time>2026-04-25T14:05:32.725Z</time></trkpt><trkpt lat="42.9280583" lon="10.7684683"><ele>13.0</ele><time>2026-04-25T14:05:33.724Z</time></trkpt><trkpt lat="42.928105" lon="10.7685333"><ele>13.0</ele><time>2026-04-25T14:05:34.724Z</time></trkpt><trkpt lat="42.9281667" lon="10.7686017"><ele>12.999999999999998</ele><time>2026-04-25T14:05:35.726Z</time></trkpt><trkpt lat="42.9282583" lon="10.7686767"><ele>13.0</ele><time>2026-04-25T14:05:36.725Z</time></trkpt><trkpt lat="42.92836" lon="10.7687717"><ele>13.25</ele><time>2026-04-25T14:05:37.725Z</time></trkpt><trkpt lat="42.92846" lon="10.7688717"><ele>13.5</ele><time>2026-04-25T14:05:38.724Z</time></trkpt><trkpt lat="42.928555" lon="10.7689817"><ele>13.75</ele><time>2026-04-25T14:05:39.724Z</time></trkpt><trkpt lat="42.92865" lon="10.7690917"><ele>14.0</ele><time>2026-04-25T14:05:40.725Z</time></trkpt><trkpt lat="42.928745" lon="10.7691917"><ele>14.0</ele><time>2026-04-25T14:05:41.724Z</time></trkpt><trkpt lat="42.9288317" lon="10.7692867"><ele>14.0</ele><time>2026-04-25T14:05:42.725Z</time></trkpt><trkpt lat="42.92892" lon="10.769375"><ele>14.0</ele><time>2026-04-25T14:05:43.725Z</time></trkpt><trkpt lat="42.92901" lon="10.76946"><ele>14.0</ele><time>2026-04-25T14:05:44.724Z</time></trkpt><trkpt lat="42.9291033" lon="10.7695633"><ele>14.166666666666668</ele><time>2026-04-25T14:05:45.726Z</time></trkpt><trkpt lat="42.9291883" lon="10.7696633"><ele>14.333333333333334</ele><time>2026-04-25T14:05:46.723Z</time></trkpt><trkpt lat="42.929265" lon="10.76975"><ele>14.5</ele><time>2026-04-25T14:05:47.724Z</time></trkpt><trkpt lat="42.9293267" lon="10.769825"><ele>14.666666666666668</ele><time>2026-04-25T14:05:48.724Z</time></trkpt><trkpt lat="42.92937" lon="10.76991"><ele>14.833333333333334</ele><time>2026-04-25T14:05:49.725Z</time></trkpt><trkpt lat="42.9293933" lon="10.7699933"><ele>15.0</ele><time>2026-04-25T14:05:50.724Z</time></trkpt><trkpt lat="42.929415" lon="10.7701517"><ele>15.6</ele><time>2026-04-25T14:05:52.725Z</time></trkpt><trkpt lat="42.9294667" lon="10.77028"><ele>16.2</ele><time>2026-04-25T14:05:54.727Z</time></trkpt><trkpt lat="42.92957" lon="10.77033"><ele>16.8</ele><time>2026-04-25T14:05:56.725Z</time></trkpt><trkpt lat="42.92965" lon="10.7703383"><ele>17.4</ele><time>2026-04-25T14:05:57.723Z</time></trkpt><trkpt lat="42.9297417" lon="10.77036"><ele>18.0</ele><time>2026-04-25T14:05:58.723Z</time></trkpt><trkpt lat="42.9298317" lon="10.770385"><ele>18.0</ele><time>2026-04-25T14:05:59.724Z</time></trkpt><trkpt lat="42.9299233" lon="10.77045"><ele>18.0</ele><time>2026-04-25T14:06:00.725Z</time></trkpt><trkpt lat="42.93002" lon="10.7705317"><ele>18.0</ele><time>2026-04-25T14:06:01.725Z</time></trkpt><trkpt lat="42.93012" lon="10.7706417"><ele>18.0</ele><time>2026-04-25T14:06:02.724Z</time></trkpt><trkpt lat="42.9302183" lon="10.7707617"><ele>18.2</ele><time>2026-04-25T14:06:03.724Z</time></trkpt><trkpt lat="42.9303133" lon="10.7708633"><ele>18.4</ele><time>2026-04-25T14:06:04.723Z</time></trkpt><trkpt lat="42.9303967" lon="10.7709467"><ele>18.599999999999998</ele><time>2026-04-25T14:06:05.722Z</time></trkpt><trkpt lat="42.9304667" lon="10.771025"><ele>18.8</ele><time>2026-04-25T14:06:06.724Z</time></trkpt><trkpt lat="42.9305317" lon="10.7711117"><ele>19.0</ele><time>2026-04-25T14:06:07.725Z</time></trkpt><trkpt lat="42.9305867" lon="10.77121"><ele>19.0</ele><time>2026-04-25T14:06:08.724Z</time></trkpt><trkpt lat="42.930635" lon="10.771305"><ele>19.0</ele><time>2026-04-25T14:06:09.724Z</time></trkpt><trkpt lat="42.9306767" lon="10.771405"><ele>19.0</ele><time>2026-04-25T14:06:10.726Z</time></trkpt><trkpt lat="42.9307467" lon="10.77146"><ele>19.0</ele><time>2026-04-25T14:06:11.725Z</time></trkpt><trkpt lat="42.93083" lon="10.7715067"><ele>19.0</ele><time>2026-04-25T14:06:12.726Z</time></trkpt><trkpt lat="42.93092" lon="10.7715667"><ele>19.0</ele><time>2026-04-25T14:06:13.725Z</time></trkpt><trkpt lat="42.93101" lon="10.7716483"><ele>19.0</ele><time>2026-04-25T14:06:14.724Z</time></trkpt><trkpt lat="42.9311" lon="10.771735"><ele>19.0</ele><time>2026-04-25T14:06:15.723Z</time></trkpt><trkpt lat="42.9311883" lon="10.77182"><ele>19.0</ele><time>2026-04-25T14:06:16.724Z</time></trkpt><trkpt lat="42.9312683" lon="10.7719017"><ele>19.0</ele><time>2026-04-25T14:06:17.726Z</time></trkpt><trkpt lat="42.93135" lon="10.771975"><ele>19.0</ele><time>2026-04-25T14:06:18.724Z</time></trkpt><trkpt lat="42.9314317" lon="10.7720617"><ele>19.25</ele><time>2026-04-25T14:06:19.725Z</time></trkpt><trkpt lat="42.9315233" lon="10.7721517"><ele>19.5</ele><time>2026-04-25T14:06:20.725Z</time></trkpt><trkpt lat="42.9316167" lon="10.7722483"><ele>19.75</ele><time>2026-04-25T14:06:21.725Z</time></trkpt><trkpt lat="42.9317083" lon="10.7723517"><ele>20.0</ele><time>2026-04-25T14:06:22.722Z</time></trkpt><trkpt lat="42.9317983" lon="10.7724517"><ele>20.2</ele><time>2026-04-25T14:06:23.726Z</time></trkpt><trkpt lat="42.9318867" lon="10.772555"><ele>20.4</ele><time>2026-04-25T14:06:24.725Z</time></trkpt><trkpt lat="42.9319717" lon="10.7726533"><ele>20.6</ele><time>2026-04-25T14:06:25.725Z</time></trkpt><trkpt lat="42.9320533" lon="10.7727433"><ele>20.8</ele><time>2026-04-25T14:06:26.725Z</time></trkpt><trkpt lat="42.9321317" lon="10.7728317"><ele>21.0</ele><time>2026-04-25T14:06:27.724Z</time></trkpt><trkpt lat="42.9322117" lon="10.7729133"><ele>21.0</ele><time>2026-04-25T14:06:28.724Z</time></trkpt><trkpt lat="42.9322883" lon="10.772995"><ele>21.0</ele><time>2026-04-25T14:06:29.724Z</time></trkpt><trkpt lat="42.932365" lon="10.7730833"><ele>21.0</ele><time>2026-04-25T14:06:30.725Z</time></trkpt><trkpt lat="42.9324433" lon="10.77316"><ele>21.0</ele><time>2026-04-25T14:06:31.724Z</time></trkpt><trkpt lat="42.9325217" lon="10.7732467"><ele>21.0</ele><time>2026-04-25T14:06:32.725Z</time></trkpt><trkpt lat="42.9326017" lon="10.7733117"><ele>21.0</ele><time>2026-04-25T14:06:33.724Z</time></trkpt><trkpt lat="42.9326833" lon="10.7733983"><ele>21.0</ele><time>2026-04-25T14:06:34.725Z</time></trkpt><trkpt lat="42.932765" lon="10.7734767"><ele>21.0</ele><time>2026-04-25T14:06:35.723Z</time></trkpt><trkpt lat="42.9328483" lon="10.7735533"><ele>21.0</ele><time>2026-04-25T14:06:36.722Z</time></trkpt><trkpt lat="42.9329317" lon="10.7736317"><ele>21.0</ele><time>2026-04-25T14:06:37.724Z</time></trkpt><trkpt lat="42.93302" lon="10.7737167"><ele>21.0</ele><time>2026-04-25T14:06:38.724Z</time></trkpt><trkpt lat="42.9331017" lon="10.7738"><ele>21.0</ele><time>2026-04-25T14:06:39.723Z</time></trkpt><trkpt lat="42.93318" lon="10.7738817"><ele>21.0</ele><time>2026-04-25T14:06:40.724Z</time></trkpt><trkpt lat="42.93326" lon="10.7739583"><ele>21.0</ele><time>2026-04-25T14:06:41.724Z</time></trkpt><trkpt lat="42.9333417" lon="10.7740383"><ele>21.0</ele><time>2026-04-25T14:06:42.724Z</time></trkpt><trkpt lat="42.9334167" lon="10.774125"><ele>21.0</ele><time>2026-04-25T14:06:43.723Z</time></trkpt><trkpt lat="42.933495" lon="10.7742017"><ele>21.0</ele><time>2026-04-25T14:06:44.723Z</time></trkpt><trkpt lat="42.9335667" lon="10.774275"><ele>21.0</ele><time>2026-04-25T14:06:45.724Z</time></trkpt><trkpt lat="42.9336367" lon="10.7743583"><ele>21.0</ele><time>2026-04-25T14:06:46.723Z</time></trkpt><trkpt lat="42.93371" lon="10.7744383"><ele>21.0</ele><time>2026-04-25T14:06:47.723Z</time></trkpt><trkpt lat="42.93378" lon="10.774505"><ele>21.333333333333332</ele><time>2026-04-25T14:06:48.723Z</time></trkpt><trkpt lat="42.93384" lon="10.7745733"><ele>21.666666666666668</ele><time>2026-04-25T14:06:49.723Z</time></trkpt><trkpt lat="42.9338917" lon="10.7746433"><ele>22.0</ele><time>2026-04-25T14:06:50.724Z</time></trkpt><trkpt lat="42.9339383" lon="10.7747183"><ele>22.333333333333336</ele><time>2026-04-25T14:06:51.724Z</time></trkpt><trkpt lat="42.933985" lon="10.7747917"><ele>22.666666666666668</ele><time>2026-04-25T14:06:52.723Z</time></trkpt><trkpt lat="42.934035" lon="10.7748717"><ele>23.0</ele><time>2026-04-25T14:06:53.724Z</time></trkpt><trkpt lat="42.9341" lon="10.77494"><ele>23.0</ele><time>2026-04-25T14:06:54.724Z</time></trkpt><trkpt lat="42.9341683" lon="10.7749967"><ele>23.0</ele><time>2026-04-25T14:06:55.721Z</time></trkpt><trkpt lat="42.9342367" lon="10.7750433"><ele>23.0</ele><time>2026-04-25T14:06:56.725Z</time></trkpt><trkpt lat="42.9343017" lon="10.7751017"><ele>23.0</ele><time>2026-04-25T14:06:57.725Z</time></trkpt><trkpt lat="42.9343667" lon="10.775165"><ele>23.0</ele><time>2026-04-25T14:06:58.723Z</time></trkpt><trkpt lat="42.934435" lon="10.7752317"><ele>23.0</ele><time>2026-04-25T14:06:59.725Z</time></trkpt><trkpt lat="42.9345017" lon="10.7753033"><ele>23.5</ele><time>2026-04-25T14:07:00.724Z</time></trkpt><trkpt lat="42.9345667" lon="10.7753733"><ele>24.0</ele><time>2026-04-25T14:07:01.724Z</time></trkpt><trkpt lat="42.93463" lon="10.7754417"><ele>24.5</ele><time>2026-04-25T14:07:02.724Z</time></trkpt><trkpt lat="42.934695" lon="10.7755117"><ele>25.0</ele><time>2026-04-25T14:07:03.723Z</time></trkpt><trkpt lat="42.9347617" lon="10.7755833"><ele>25.499999999999996</ele><time>2026-04-25T14:07:04.723Z</time></trkpt><trkpt lat="42.9348283" lon="10.775655"><ele>26.0</ele><time>2026-04-25T14:07:05.723Z</time></trkpt><trkpt lat="42.934895" lon="10.7757333"><ele>26.0</ele><time>2026-04-25T14:07:06.724Z</time></trkpt><trkpt lat="42.93496" lon="10.7758167"><ele>26.0</ele><time>2026-04-25T14:07:07.724Z</time></trkpt><trkpt lat="42.9350267" lon="10.775895"><ele>26.0</ele><time>2026-04-25T14:07:08.724Z</time></trkpt><trkpt lat="42.935095" lon="10.7759783"><ele>26.0</ele><time>2026-04-25T14:07:09.723Z</time></trkpt><trkpt lat="42.935165" lon="10.7760617"><ele>26.0</ele><time>2026-04-25T14:07:10.724Z</time></trkpt><trkpt lat="42.9352367" lon="10.7761517"><ele>25.999999999999996</ele><time>2026-04-25T14:07:11.726Z</time></trkpt><trkpt lat="42.9353083" lon="10.77623"><ele>26.0</ele><time>2026-04-25T14:07:12.724Z</time></trkpt><trkpt lat="42.9353783" lon="10.7763033"><ele>26.0</ele><time>2026-04-25T14:07:13.724Z</time></trkpt><trkpt lat="42.9354483" lon="10.7763733"><ele>26.0</ele><time>2026-04-25T14:07:14.724Z</time></trkpt><trkpt lat="42.9355117" lon="10.77643"><ele>25.999999999999996</ele><time>2026-04-25T14:07:15.724Z</time></trkpt><trkpt lat="42.9355667" lon="10.77648"><ele>26.0</ele><time>2026-04-25T14:07:16.725Z</time></trkpt><trkpt lat="42.9356333" lon="10.7765167"><ele>26.0</ele><time>2026-04-25T14:07:18.724Z</time></trkpt><trkpt lat="42.935695" lon="10.776555"><ele>26.0</ele><time>2026-04-25T14:07:21.724Z</time></trkpt><trkpt lat="42.9357783" lon="10.7766267"><ele>26.0</ele><time>2026-04-25T14:07:25.724Z</time></trkpt><trkpt lat="42.9358467" lon="10.7767283"><ele>26.0</ele><time>2026-04-25T14:07:27.726Z</time></trkpt><trkpt lat="42.9359217" lon="10.77687"><ele>26.0</ele><time>2026-04-25T14:07:29.724Z</time></trkpt><trkpt lat="42.9359767" lon="10.7769417"><ele>26.0</ele><time>2026-04-25T14:07:30.724Z</time></trkpt><trkpt lat="42.9360417" lon="10.7770033"><ele>26.0</ele><time>2026-04-25T14:07:31.723Z</time></trkpt><trkpt lat="42.9361267" lon="10.7770317"><ele>26.0</ele><time>2026-04-25T14:07:32.723Z</time></trkpt><trkpt lat="42.93622" lon="10.7770533"><ele>26.0</ele><time>2026-04-25T14:07:33.722Z</time></trkpt><trkpt lat="42.936325" lon="10.7770917"><ele>26.0</ele><time>2026-04-25T14:07:34.722Z</time></trkpt><trkpt lat="42.9364317" lon="10.777155"><ele>26.0</ele><time>2026-04-25T14:07:35.724Z</time></trkpt><trkpt lat="42.9365333" lon="10.777255"><ele>26.0</ele><time>2026-04-25T14:07:36.722Z</time></trkpt><trkpt lat="42.9366333" lon="10.7773683"><ele>26.0</ele><time>2026-04-25T14:07:37.723Z</time></trkpt><trkpt lat="42.9367367" lon="10.7775033"><ele>26.0</ele><time>2026-04-25T14:07:38.724Z</time></trkpt><trkpt lat="42.9368433" lon="10.7776533"><ele>26.0</ele><time>2026-04-25T14:07:39.724Z</time></trkpt><trkpt lat="42.9369533" lon="10.7778117"><ele>26.0</ele><time>2026-04-25T14:07:40.723Z</time></trkpt><trkpt lat="42.9370633" lon="10.7779667"><ele>26.0</ele><time>2026-04-25T14:07:41.723Z</time></trkpt><trkpt lat="42.9371733" lon="10.77811"><ele>26.0</ele><time>2026-04-25T14:07:42.722Z</time></trkpt><trkpt lat="42.9372883" lon="10.7782567"><ele>26.0</ele><time>2026-04-25T14:07:43.725Z</time></trkpt><trkpt lat="42.9374083" lon="10.7784067"><ele>26.0</ele><time>2026-04-25T14:07:44.723Z</time></trkpt><trkpt lat="42.93753" lon="10.7785517"><ele>26.333333333333332</ele><time>2026-04-25T14:07:45.725Z</time></trkpt><trkpt lat="42.9376533" lon="10.7787017"><ele>26.666666666666664</ele><time>2026-04-25T14:07:46.723Z</time></trkpt><trkpt lat="42.9377767" lon="10.77885"><ele>27.0</ele><time>2026-04-25T14:07:47.725Z</time></trkpt><trkpt lat="42.9379083" lon="10.778985"><ele>27.0</ele><time>2026-04-25T14:07:48.724Z</time></trkpt><trkpt lat="42.938045" lon="10.7791083"><ele>27.0</ele><time>2026-04-25T14:07:49.725Z</time></trkpt><trkpt lat="42.938185" lon="10.7792233"><ele>27.0</ele><time>2026-04-25T14:07:50.724Z</time></trkpt><trkpt lat="42.93833" lon="10.779335"><ele>27.666666666666664</ele><time>2026-04-25T14:07:51.724Z</time></trkpt><trkpt lat="42.9384833" lon="10.779445"><ele>28.333333333333332</ele><time>2026-04-25T14:07:52.722Z</time></trkpt><trkpt lat="42.938645" lon="10.7795467"><ele>29.0</ele><time>2026-04-25T14:07:53.723Z</time></trkpt><trkpt lat="42.938815" lon="10.7796383"><ele>29.0</ele><time>2026-04-25T14:07:54.724Z</time></trkpt><trkpt lat="42.9389867" lon="10.7797167"><ele>29.0</ele><time>2026-04-25T14:07:55.723Z</time></trkpt><trkpt lat="42.9391617" lon="10.77978"><ele>29.0</ele><time>2026-04-25T14:07:56.725Z</time></trkpt><trkpt lat="42.9393383" lon="10.7798367"><ele>29.333333333333332</ele><time>2026-04-25T14:07:57.724Z</time></trkpt><trkpt lat="42.9395183" lon="10.779885"><ele>29.666666666666664</ele><time>2026-04-25T14:07:58.724Z</time></trkpt><trkpt lat="42.9397033" lon="10.7799167"><ele>30.0</ele><time>2026-04-25T14:07:59.723Z</time></trkpt><trkpt lat="42.939885" lon="10.77994"><ele>30.0</ele><time>2026-04-25T14:08:00.724Z</time></trkpt><trkpt lat="42.9400683" lon="10.7799533"><ele>30.0</ele><time>2026-04-25T14:08:01.722Z</time></trkpt><trkpt lat="42.9402517" lon="10.7799583"><ele>30.0</ele><time>2026-04-25T14:08:02.724Z</time></trkpt><trkpt lat="42.9404383" lon="10.7799533"><ele>30.0</ele><time>2026-04-25T14:08:03.724Z</time></trkpt><trkpt lat="42.9406283" lon="10.7799433"><ele>30.0</ele><time>2026-04-25T14:08:04.723Z</time></trkpt><trkpt lat="42.9408217" lon="10.779935"><ele>30.0</ele><time>2026-04-25T14:08:05.725Z</time></trkpt><trkpt lat="42.9410167" lon="10.7799267"><ele>29.333333333333336</ele><time>2026-04-25T14:08:06.725Z</time></trkpt><trkpt lat="42.941215" lon="10.7799167"><ele>28.666666666666668</ele><time>2026-04-25T14:08:07.724Z</time></trkpt><trkpt lat="42.9414133" lon="10.7799033"><ele>28.0</ele><time>2026-04-25T14:08:08.724Z</time></trkpt><trkpt lat="42.9416133" lon="10.7798933"><ele>28.666666666666668</ele><time>2026-04-25T14:08:09.724Z</time></trkpt><trkpt lat="42.941815" lon="10.77988"><ele>29.333333333333336</ele><time>2026-04-25T14:08:10.725Z</time></trkpt><trkpt lat="42.94202" lon="10.7798667"><ele>30.0</ele><time>2026-04-25T14:08:11.726Z</time></trkpt><trkpt lat="42.9422233" lon="10.7798517"><ele>30.0</ele><time>2026-04-25T14:08:12.725Z</time></trkpt><trkpt lat="42.9424283" lon="10.7798383"><ele>30.0</ele><time>2026-04-25T14:08:13.724Z</time></trkpt><trkpt lat="42.9426317" lon="10.7798217"><ele>30.0</ele><time>2026-04-25T14:08:14.725Z</time></trkpt><trkpt lat="42.9428367" lon="10.7798067"><ele>29.666666666666664</ele><time>2026-04-25T14:08:15.724Z</time></trkpt><trkpt lat="42.94304" lon="10.7798"><ele>29.333333333333332</ele><time>2026-04-25T14:08:16.723Z</time></trkpt><trkpt lat="42.9432433" lon="10.7798033"><ele>29.0</ele><time>2026-04-25T14:08:17.724Z</time></trkpt><trkpt lat="42.943445" lon="10.77982"><ele>29.0</ele><time>2026-04-25T14:08:18.723Z</time></trkpt><trkpt lat="42.9436433" lon="10.7798533"><ele>29.0</ele><time>2026-04-25T14:08:19.723Z</time></trkpt><trkpt lat="42.943845" lon="10.7799"><ele>29.0</ele><time>2026-04-25T14:08:20.723Z</time></trkpt><trkpt lat="42.9440433" lon="10.7799467"><ele>29.333333333333332</ele><time>2026-04-25T14:08:21.721Z</time></trkpt><trkpt lat="42.944245" lon="10.77999"><ele>29.666666666666664</ele><time>2026-04-25T14:08:22.727Z</time></trkpt><trkpt lat="42.9444433" lon="10.78003"><ele>30.0</ele><time>2026-04-25T14:08:23.724Z</time></trkpt><trkpt lat="42.9446433" lon="10.7800667"><ele>30.0</ele><time>2026-04-25T14:08:24.723Z</time></trkpt><trkpt lat="42.9448467" lon="10.780105"><ele>30.0</ele><time>2026-04-25T14:08:25.722Z</time></trkpt><trkpt lat="42.9450483" lon="10.780145"><ele>30.0</ele><time>2026-04-25T14:08:26.724Z</time></trkpt><trkpt lat="42.9452517" lon="10.7801883"><ele>30.0</ele><time>2026-04-25T14:08:27.725Z</time></trkpt><trkpt lat="42.945455" lon="10.7802317"><ele>30.0</ele><time>2026-04-25T14:08:28.723Z</time></trkpt><trkpt lat="42.9456583" lon="10.7802767"><ele>30.0</ele><time>2026-04-25T14:08:29.724Z</time></trkpt><trkpt lat="42.945865" lon="10.7803233"><ele>30.333333333333336</ele><time>2026-04-25T14:08:30.725Z</time></trkpt><trkpt lat="42.946075" lon="10.78037"><ele>30.666666666666668</ele><time>2026-04-25T14:08:31.725Z</time></trkpt><trkpt lat="42.94629" lon="10.78042"><ele>31.0</ele><time>2026-04-25T14:08:32.725Z</time></trkpt><trkpt lat="42.9465117" lon="10.78047"><ele>30.5</ele><time>2026-04-25T14:08:33.725Z</time></trkpt><trkpt lat="42.9467383" lon="10.7805183"><ele>30.0</ele><time>2026-04-25T14:08:34.723Z</time></trkpt><trkpt lat="42.9469733" lon="10.7805617"><ele>30.0</ele><time>2026-04-25T14:08:35.723Z</time></trkpt><trkpt lat="42.9472117" lon="10.7806133"><ele>30.0</ele><time>2026-04-25T14:08:36.724Z</time></trkpt><trkpt lat="42.94745" lon="10.7806767"><ele>30.5</ele><time>2026-04-25T14:08:37.724Z</time></trkpt><trkpt lat="42.947685" lon="10.7807417"><ele>31.0</ele><time>2026-04-25T14:08:38.724Z</time></trkpt><trkpt lat="42.947915" lon="10.7808167"><ele>31.0</ele><time>2026-04-25T14:08:39.725Z</time></trkpt><trkpt lat="42.948145" lon="10.7809017"><ele>31.0</ele><time>2026-04-25T14:08:40.724Z</time></trkpt><trkpt lat="42.9483667" lon="10.7809983"><ele>32.0</ele><time>2026-04-25T14:08:41.724Z</time></trkpt><trkpt lat="42.9485767" lon="10.781125"><ele>33.0</ele><time>2026-04-25T14:08:42.724Z</time></trkpt><trkpt lat="42.9487767" lon="10.78128"><ele>33.0</ele><time>2026-04-25T14:08:43.724Z</time></trkpt><trkpt lat="42.9489633" lon="10.7814583"><ele>33.0</ele><time>2026-04-25T14:08:44.726Z</time></trkpt><trkpt lat="42.9491367" lon="10.781665"><ele>32.0</ele><time>2026-04-25T14:08:45.723Z</time></trkpt><trkpt lat="42.94929" lon="10.781895"><ele>31.0</ele><time>2026-04-25T14:08:46.725Z</time></trkpt><trkpt lat="42.9494267" lon="10.782145"><ele>31.0</ele><time>2026-04-25T14:08:47.724Z</time></trkpt><trkpt lat="42.9495467" lon="10.7824083"><ele>31.0</ele><time>2026-04-25T14:08:48.724Z</time></trkpt><trkpt lat="42.9496517" lon="10.7826883"><ele>29.5</ele><time>2026-04-25T14:08:49.724Z</time></trkpt><trkpt lat="42.94974" lon="10.78298"><ele>28.0</ele><time>2026-04-25T14:08:50.723Z</time></trkpt><trkpt lat="42.9498217" lon="10.783275"><ele>28.5</ele><time>2026-04-25T14:08:51.724Z</time></trkpt><trkpt lat="42.949895" lon="10.78357"><ele>29.0</ele><time>2026-04-25T14:08:52.724Z</time></trkpt><trkpt lat="42.94997" lon="10.7838683"><ele>28.0</ele><time>2026-04-25T14:08:53.723Z</time></trkpt><trkpt lat="42.9500467" lon="10.7841633"><ele>27.0</ele><time>2026-04-25T14:08:54.724Z</time></trkpt><trkpt lat="42.950125" lon="10.7844617"><ele>26.5</ele><time>2026-04-25T14:08:55.723Z</time></trkpt><trkpt lat="42.9502067" lon="10.78476"><ele>26.0</ele><time>2026-04-25T14:08:56.724Z</time></trkpt><trkpt lat="42.950285" lon="10.78506"><ele>26.0</ele><time>2026-04-25T14:08:57.723Z</time></trkpt><trkpt lat="42.9503633" lon="10.78536"><ele>26.0</ele><time>2026-04-25T14:08:58.724Z</time></trkpt><trkpt lat="42.9504383" lon="10.7856633"><ele>26.0</ele><time>2026-04-25T14:08:59.725Z</time></trkpt><trkpt lat="42.9505167" lon="10.7859683"><ele>26.0</ele><time>2026-04-25T14:09:00.723Z</time></trkpt><trkpt lat="42.950595" lon="10.7862733"><ele>25.5</ele><time>2026-04-25T14:09:01.724Z</time></trkpt><trkpt lat="42.9506767" lon="10.7865767"><ele>25.0</ele><time>2026-04-25T14:09:02.724Z</time></trkpt><trkpt lat="42.9507583" lon="10.7868767"><ele>25.0</ele><time>2026-04-25T14:09:03.723Z</time></trkpt><trkpt lat="42.9508417" lon="10.787175"><ele>25.0</ele><time>2026-04-25T14:09:04.723Z</time></trkpt><trkpt lat="42.9509267" lon="10.7874667"><ele>24.333333333333336</ele><time>2026-04-25T14:09:05.724Z</time></trkpt><trkpt lat="42.9510233" lon="10.7877433"><ele>23.666666666666668</ele><time>2026-04-25T14:09:06.724Z</time></trkpt><trkpt lat="42.9511267" lon="10.7880033"><ele>23.0</ele><time>2026-04-25T14:09:07.725Z</time></trkpt><trkpt lat="42.9512333" lon="10.7882333"><ele>23.0</ele><time>2026-04-25T14:09:08.724Z</time></trkpt><trkpt lat="42.95134" lon="10.7884383"><ele>23.0</ele><time>2026-04-25T14:09:09.724Z</time></trkpt><trkpt lat="42.9514467" lon="10.788625"><ele>23.0</ele><time>2026-04-25T14:09:10.726Z</time></trkpt><trkpt lat="42.9515533" lon="10.788795"><ele>23.666666666666668</ele><time>2026-04-25T14:09:11.724Z</time></trkpt><trkpt lat="42.9516633" lon="10.7889567"><ele>24.333333333333336</ele><time>2026-04-25T14:09:12.724Z</time></trkpt><trkpt lat="42.9517817" lon="10.78911"><ele>25.0</ele><time>2026-04-25T14:09:13.724Z</time></trkpt><trkpt lat="42.9519033" lon="10.7892583"><ele>25.666666666666668</ele><time>2026-04-25T14:09:14.724Z</time></trkpt><trkpt lat="42.9520283" lon="10.7894017"><ele>26.333333333333336</ele><time>2026-04-25T14:09:15.724Z</time></trkpt><trkpt lat="42.9521567" lon="10.7895383"><ele>27.0</ele><time>2026-04-25T14:09:16.724Z</time></trkpt><trkpt lat="42.9522867" lon="10.7896717"><ele>27.0</ele><time>2026-04-25T14:09:17.724Z</time></trkpt><trkpt lat="42.95242" lon="10.7898017"><ele>27.0</ele><time>2026-04-25T14:09:18.725Z</time></trkpt><trkpt lat="42.9525517" lon="10.7899283"><ele>27.0</ele><time>2026-04-25T14:09:19.725Z</time></trkpt><trkpt lat="42.9526817" lon="10.7900567"><ele>27.0</ele><time>2026-04-25T14:09:20.724Z</time></trkpt><trkpt lat="42.9528117" lon="10.790185"><ele>27.0</ele><time>2026-04-25T14:09:21.723Z</time></trkpt><trkpt lat="42.9529383" lon="10.79031"><ele>27.0</ele><time>2026-04-25T14:09:22.723Z</time></trkpt><trkpt lat="42.9530633" lon="10.7904283"><ele>27.0</ele><time>2026-04-25T14:09:23.724Z</time></trkpt><trkpt lat="42.9531867" lon="10.7905467"><ele>27.0</ele><time>2026-04-25T14:09:24.724Z</time></trkpt><trkpt lat="42.9533117" lon="10.790665"><ele>27.0</ele><time>2026-04-25T14:09:25.725Z</time></trkpt><trkpt lat="42.9534317" lon="10.7907783"><ele>27.0</ele><time>2026-04-25T14:09:26.723Z</time></trkpt><trkpt lat="42.9535433" lon="10.7908867"><ele>26.75</ele><time>2026-04-25T14:09:27.723Z</time></trkpt><trkpt lat="42.9536517" lon="10.7909867"><ele>26.5</ele><time>2026-04-25T14:09:28.722Z</time></trkpt><trkpt lat="42.9537617" lon="10.791085"><ele>26.25</ele><time>2026-04-25T14:09:29.725Z</time></trkpt><trkpt lat="42.9538733" lon="10.7911867"><ele>26.0</ele><time>2026-04-25T14:09:30.725Z</time></trkpt><trkpt lat="42.95398" lon="10.7912833"><ele>25.8</ele><time>2026-04-25T14:09:31.724Z</time></trkpt><trkpt lat="42.95408" lon="10.7913733"><ele>25.6</ele><time>2026-04-25T14:09:32.725Z</time></trkpt><trkpt lat="42.9541717" lon="10.7914567"><ele>25.4</ele><time>2026-04-25T14:09:33.726Z</time></trkpt><trkpt lat="42.9542567" lon="10.791535"><ele>25.2</ele><time>2026-04-25T14:09:34.724Z</time></trkpt><trkpt lat="42.9543367" lon="10.7916067"><ele>25.0</ele><time>2026-04-25T14:09:35.724Z</time></trkpt><trkpt lat="42.95441" lon="10.7916783"><ele>25.666666666666668</ele><time>2026-04-25T14:09:36.725Z</time></trkpt><trkpt lat="42.9544783" lon="10.7917417"><ele>26.333333333333336</ele><time>2026-04-25T14:09:37.723Z</time></trkpt><trkpt lat="42.9545433" lon="10.7918033"><ele>27.0</ele><time>2026-04-25T14:09:38.725Z</time></trkpt><trkpt lat="42.9546067" lon="10.7918617"><ele>27.666666666666664</ele><time>2026-04-25T14:09:39.723Z</time></trkpt><trkpt lat="42.9546683" lon="10.7919217"><ele>28.333333333333332</ele><time>2026-04-25T14:09:40.724Z</time></trkpt><trkpt lat="42.9547367" lon="10.7919867"><ele>29.0</ele><time>2026-04-25T14:09:41.725Z</time></trkpt><trkpt lat="42.954815" lon="10.7920617"><ele>29.0</ele><time>2026-04-25T14:09:42.724Z</time></trkpt><trkpt lat="42.9549083" lon="10.79214"><ele>29.0</ele><time>2026-04-25T14:09:43.726Z</time></trkpt><trkpt lat="42.955025" lon="10.7922267"><ele>29.0</ele><time>2026-04-25T14:09:44.723Z</time></trkpt><trkpt lat="42.955165" lon="10.7923317"><ele>29.0</ele><time>2026-04-25T14:09:45.724Z</time></trkpt><trkpt lat="42.9553283" lon="10.7924867"><ele>30.0</ele><time>2026-04-25T14:09:46.724Z</time></trkpt><trkpt lat="42.955505" lon="10.7926583"><ele>31.0</ele><time>2026-04-25T14:09:47.725Z</time></trkpt><trkpt lat="42.95569" lon="10.79284"><ele>32.0</ele><time>2026-04-25T14:09:48.725Z</time></trkpt><trkpt lat="42.955885" lon="10.7930183"><ele>32.5</ele><time>2026-04-25T14:09:49.725Z</time></trkpt><trkpt lat="42.95608" lon="10.7932017"><ele>33.0</ele><time>2026-04-25T14:09:50.725Z</time></trkpt><trkpt lat="42.9562733" lon="10.7933817"><ele>32.0</ele><time>2026-04-25T14:09:51.726Z</time></trkpt><trkpt lat="42.956465" lon="10.7935617"><ele>31.0</ele><time>2026-04-25T14:09:52.725Z</time></trkpt><trkpt lat="42.956655" lon="10.7937433"><ele>31.5</ele><time>2026-04-25T14:09:53.725Z</time></trkpt><trkpt lat="42.9568433" lon="10.7939267"><ele>32.0</ele><time>2026-04-25T14:09:54.725Z</time></trkpt><trkpt lat="42.95703" lon="10.7941033"><ele>32.0</ele><time>2026-04-25T14:09:55.724Z</time></trkpt><trkpt lat="42.9572133" lon="10.794275"><ele>32.0</ele><time>2026-04-25T14:09:56.723Z</time></trkpt><trkpt lat="42.9573967" lon="10.7944433"><ele>32.0</ele><time>2026-04-25T14:09:57.725Z</time></trkpt><trkpt lat="42.9575783" lon="10.794615"><ele>32.0</ele><time>2026-04-25T14:09:58.724Z</time></trkpt><trkpt lat="42.95776" lon="10.7947867"><ele>32.0</ele><time>2026-04-25T14:09:59.724Z</time></trkpt><trkpt lat="42.9579367" lon="10.794955"><ele>32.0</ele><time>2026-04-25T14:10:00.723Z</time></trkpt><trkpt lat="42.9581117" lon="10.7951117"><ele>31.666666666666664</ele><time>2026-04-25T14:10:01.723Z</time></trkpt><trkpt lat="42.9582783" lon="10.795255"><ele>31.333333333333336</ele><time>2026-04-25T14:10:02.734Z</time></trkpt><trkpt lat="42.9584383" lon="10.7954033"><ele>31.0</ele><time>2026-04-25T14:10:03.724Z</time></trkpt><trkpt lat="42.9586" lon="10.7955517"><ele>31.0</ele><time>2026-04-25T14:10:04.725Z</time></trkpt><trkpt lat="42.9587633" lon="10.795705"><ele>31.0</ele><time>2026-04-25T14:10:05.724Z</time></trkpt><trkpt lat="42.95893" lon="10.7958617"><ele>31.0</ele><time>2026-04-25T14:10:06.723Z</time></trkpt><trkpt lat="42.9591" lon="10.7960183"><ele>30.0</ele><time>2026-04-25T14:10:07.723Z</time></trkpt><trkpt lat="42.959275" lon="10.79618"><ele>29.0</ele><time>2026-04-25T14:10:08.724Z</time></trkpt><trkpt lat="42.959455" lon="10.796345"><ele>28.0</ele><time>2026-04-25T14:10:09.724Z</time></trkpt><trkpt lat="42.959635" lon="10.7965083"><ele>28.0</ele><time>2026-04-25T14:10:10.724Z</time></trkpt><trkpt lat="42.959815" lon="10.7966733"><ele>28.0</ele><time>2026-04-25T14:10:11.723Z</time></trkpt><trkpt lat="42.959995" lon="10.796835"><ele>28.0</ele><time>2026-04-25T14:10:12.723Z</time></trkpt><trkpt lat="42.9601767" lon="10.7970017"><ele>26.666666666666668</ele><time>2026-04-25T14:10:13.724Z</time></trkpt><trkpt lat="42.9603617" lon="10.7971683"><ele>25.333333333333336</ele><time>2026-04-25T14:10:14.725Z</time></trkpt><trkpt lat="42.9605483" lon="10.79734"><ele>24.0</ele><time>2026-04-25T14:10:15.725Z</time></trkpt><trkpt lat="42.96074" lon="10.7975167"><ele>23.0</ele><time>2026-04-25T14:10:16.725Z</time></trkpt><trkpt lat="42.9609333" lon="10.797695"><ele>22.0</ele><time>2026-04-25T14:10:17.724Z</time></trkpt><trkpt lat="42.9611317" lon="10.7978733"><ele>22.0</ele><time>2026-04-25T14:10:18.725Z</time></trkpt><trkpt lat="42.9613317" lon="10.7980567"><ele>22.0</ele><time>2026-04-25T14:10:19.726Z</time></trkpt><trkpt lat="42.9615317" lon="10.79824"><ele>22.0</ele><time>2026-04-25T14:10:20.725Z</time></trkpt><trkpt lat="42.9617317" lon="10.7984267"><ele>22.0</ele><time>2026-04-25T14:10:21.723Z</time></trkpt><trkpt lat="42.9619333" lon="10.79861"><ele>21.0</ele><time>2026-04-25T14:10:22.724Z</time></trkpt><trkpt lat="42.962135" lon="10.7987917"><ele>20.0</ele><time>2026-04-25T14:10:23.726Z</time></trkpt><trkpt lat="42.96234" lon="10.7989733"><ele>20.5</ele><time>2026-04-25T14:10:24.726Z</time></trkpt><trkpt lat="42.962545" lon="10.7991567"><ele>21.0</ele><time>2026-04-25T14:10:25.724Z</time></trkpt><trkpt lat="42.9627483" lon="10.799345"><ele>21.0</ele><time>2026-04-25T14:10:26.725Z</time></trkpt><trkpt lat="42.9629533" lon="10.7995367"><ele>21.0</ele><time>2026-04-25T14:10:27.726Z</time></trkpt><trkpt lat="42.9631583" lon="10.7997283"><ele>21.0</ele><time>2026-04-25T14:10:28.724Z</time></trkpt><trkpt lat="42.9633617" lon="10.7999133"><ele>21.0</ele><time>2026-04-25T14:10:29.724Z</time></trkpt><trkpt lat="42.9635633" lon="10.8001017"><ele>21.0</ele><time>2026-04-25T14:10:30.724Z</time></trkpt><trkpt lat="42.9637633" lon="10.8002833"><ele>21.0</ele><time>2026-04-25T14:10:31.722Z</time></trkpt><trkpt lat="42.9639617" lon="10.8004633"><ele>21.0</ele><time>2026-04-25T14:10:32.725Z</time></trkpt><trkpt lat="42.96416" lon="10.8006433"><ele>21.0</ele><time>2026-04-25T14:10:33.723Z</time></trkpt><trkpt lat="42.964355" lon="10.80082"><ele>21.0</ele><time>2026-04-25T14:10:34.723Z</time></trkpt><trkpt lat="42.96455" lon="10.800995"><ele>21.0</ele><time>2026-04-25T14:10:35.724Z</time></trkpt><trkpt lat="42.9647433" lon="10.8011733"><ele>21.0</ele><time>2026-04-25T14:10:36.723Z</time></trkpt><trkpt lat="42.96494" lon="10.80135"><ele>21.0</ele><time>2026-04-25T14:10:37.724Z</time></trkpt><trkpt lat="42.965135" lon="10.8015283"><ele>21.0</ele><time>2026-04-25T14:10:38.724Z</time></trkpt><trkpt lat="42.96533" lon="10.8017067"><ele>21.0</ele><time>2026-04-25T14:10:39.722Z</time></trkpt><trkpt lat="42.9655283" lon="10.801885"><ele>21.0</ele><time>2026-04-25T14:10:40.725Z</time></trkpt><trkpt lat="42.96573" lon="10.802065"><ele>21.0</ele><time>2026-04-25T14:10:41.724Z</time></trkpt><trkpt lat="42.9659317" lon="10.8022467"><ele>21.0</ele><time>2026-04-25T14:10:42.722Z</time></trkpt><trkpt lat="42.9661333" lon="10.8024317"><ele>21.0</ele><time>2026-04-25T14:10:43.725Z</time></trkpt><trkpt lat="42.9663367" lon="10.8026133"><ele>21.0</ele><time>2026-04-25T14:10:44.725Z</time></trkpt><trkpt lat="42.9665417" lon="10.8027967"><ele>21.0</ele><time>2026-04-25T14:10:45.724Z</time></trkpt><trkpt lat="42.966745" lon="10.8029783"><ele>21.5</ele><time>2026-04-25T14:10:46.723Z</time></trkpt><trkpt lat="42.9669483" lon="10.803155"><ele>22.0</ele><time>2026-04-25T14:10:47.725Z</time></trkpt><trkpt lat="42.9671483" lon="10.8033317"><ele>22.0</ele><time>2026-04-25T14:10:48.725Z</time></trkpt><trkpt lat="42.9673467" lon="10.8035017"><ele>22.0</ele><time>2026-04-25T14:10:49.724Z</time></trkpt><trkpt lat="42.9675417" lon="10.8036483"><ele>22.0</ele><time>2026-04-25T14:10:50.725Z</time></trkpt><trkpt lat="42.9677317" lon="10.80377"><ele>22.0</ele><time>2026-04-25T14:10:51.723Z</time></trkpt><trkpt lat="42.967915" lon="10.8038733"><ele>22.0</ele><time>2026-04-25T14:10:52.724Z</time></trkpt><trkpt lat="42.9680917" lon="10.8039633"><ele>22.0</ele><time>2026-04-25T14:10:53.725Z</time></trkpt><trkpt lat="42.9682583" lon="10.80404"><ele>22.0</ele><time>2026-04-25T14:10:54.725Z</time></trkpt><trkpt lat="42.9684183" lon="10.8041"><ele>22.0</ele><time>2026-04-25T14:10:55.724Z</time></trkpt><trkpt lat="42.9685617" lon="10.8041533"><ele>22.400000000000002</ele><time>2026-04-25T14:10:56.725Z</time></trkpt><trkpt lat="42.968685" lon="10.8042067"><ele>22.8</ele><time>2026-04-25T14:10:57.723Z</time></trkpt><trkpt lat="42.9687867" lon="10.8042667"><ele>23.2</ele><time>2026-04-25T14:10:58.725Z</time></trkpt><trkpt lat="42.9688667" lon="10.8043417"><ele>23.6</ele><time>2026-04-25T14:10:59.724Z</time></trkpt><trkpt lat="42.96893" lon="10.8044217"><ele>24.0</ele><time>2026-04-25T14:11:00.724Z</time></trkpt><trkpt lat="42.9689883" lon="10.8044883"><ele>24.166666666666668</ele><time>2026-04-25T14:11:01.725Z</time></trkpt><trkpt lat="42.9690483" lon="10.8045417"><ele>24.333333333333336</ele><time>2026-04-25T14:11:02.726Z</time></trkpt><trkpt lat="42.969115" lon="10.804575"><ele>24.5</ele><time>2026-04-25T14:11:03.725Z</time></trkpt><trkpt lat="42.969185" lon="10.80461"><ele>24.666666666666668</ele><time>2026-04-25T14:11:04.724Z</time></trkpt><trkpt lat="42.969255" lon="10.8046533"><ele>24.833333333333336</ele><time>2026-04-25T14:11:05.725Z</time></trkpt><trkpt lat="42.9693167" lon="10.8047233"><ele>25.0</ele><time>2026-04-25T14:11:06.723Z</time></trkpt><trkpt lat="42.9693733" lon="10.80482"><ele>25.0</ele><time>2026-04-25T14:11:07.724Z</time></trkpt><trkpt lat="42.9694183" lon="10.8049467"><ele>25.0</ele><time>2026-04-25T14:11:08.726Z</time></trkpt><trkpt lat="42.9694517" lon="10.8050867"><ele>25.0</ele><time>2026-04-25T14:11:09.724Z</time></trkpt><trkpt lat="42.9694767" lon="10.8052483"><ele>25.0</ele><time>2026-04-25T14:11:10.725Z</time></trkpt><trkpt lat="42.9694833" lon="10.8054067"><ele>25.0</ele><time>2026-04-25T14:11:11.724Z</time></trkpt><trkpt lat="42.9694767" lon="10.80559"><ele>25.0</ele><time>2026-04-25T14:11:12.724Z</time></trkpt><trkpt lat="42.9694533" lon="10.8058017"><ele>25.0</ele><time>2026-04-25T14:11:13.725Z</time></trkpt><trkpt lat="42.969415" lon="10.80604"><ele>25.0</ele><time>2026-04-25T14:11:14.726Z</time></trkpt><trkpt lat="42.9693733" lon="10.8062917"><ele>25.0</ele><time>2026-04-25T14:11:15.725Z</time></trkpt><trkpt lat="42.96933" lon="10.80655"><ele>25.0</ele><time>2026-04-25T14:11:16.726Z</time></trkpt><trkpt lat="42.9692933" lon="10.8068117"><ele>25.0</ele><time>2026-04-25T14:11:17.725Z</time></trkpt><trkpt lat="42.9692567" lon="10.8070817"><ele>24.666666666666668</ele><time>2026-04-25T14:11:18.723Z</time></trkpt><trkpt lat="42.9692283" lon="10.8073583"><ele>24.333333333333336</ele><time>2026-04-25T14:11:19.726Z</time></trkpt><trkpt lat="42.96921" lon="10.8076383"><ele>24.0</ele><time>2026-04-25T14:11:20.726Z</time></trkpt><trkpt lat="42.9692183" lon="10.80791"><ele>23.333333333333332</ele><time>2026-04-25T14:11:21.726Z</time></trkpt><trkpt lat="42.9692517" lon="10.80817"><ele>22.666666666666664</ele><time>2026-04-25T14:11:22.726Z</time></trkpt><trkpt lat="42.969315" lon="10.80841"><ele>22.0</ele><time>2026-04-25T14:11:23.725Z</time></trkpt><trkpt lat="42.9694033" lon="10.8086283"><ele>23.333333333333332</ele><time>2026-04-25T14:11:24.724Z</time></trkpt><trkpt lat="42.9695183" lon="10.8088217"><ele>24.666666666666664</ele><time>2026-04-25T14:11:25.723Z</time></trkpt><trkpt lat="42.96966" lon="10.8090033"><ele>26.0</ele><time>2026-04-25T14:11:26.724Z</time></trkpt><trkpt lat="42.96982" lon="10.8091967"><ele>26.5</ele><time>2026-04-25T14:11:27.726Z</time></trkpt><trkpt lat="42.969995" lon="10.8094117"><ele>27.0</ele><time>2026-04-25T14:11:28.724Z</time></trkpt><trkpt lat="42.970175" lon="10.80963"><ele>27.0</ele><time>2026-04-25T14:11:29.726Z</time></trkpt><trkpt lat="42.9703567" lon="10.8098433"><ele>27.0</ele><time>2026-04-25T14:11:30.724Z</time></trkpt><trkpt lat="42.9705367" lon="10.8100633"><ele>27.0</ele><time>2026-04-25T14:11:31.724Z</time></trkpt><trkpt lat="42.970715" lon="10.8102783"><ele>27.0</ele><time>2026-04-25T14:11:32.723Z</time></trkpt><trkpt lat="42.9708917" lon="10.8104933"><ele>27.0</ele><time>2026-04-25T14:11:33.723Z</time></trkpt><trkpt lat="42.9710683" lon="10.8107067"><ele>27.0</ele><time>2026-04-25T14:11:34.725Z</time></trkpt><trkpt lat="42.971245" lon="10.81091"><ele>28.5</ele><time>2026-04-25T14:11:35.726Z</time></trkpt><trkpt lat="42.9714217" lon="10.8111067"><ele>30.0</ele><time>2026-04-25T14:11:36.724Z</time></trkpt><trkpt lat="42.9715983" lon="10.8113017"><ele>29.666666666666664</ele><time>2026-04-25T14:11:37.726Z</time></trkpt><trkpt lat="42.9717717" lon="10.811495"><ele>29.333333333333332</ele><time>2026-04-25T14:11:38.725Z</time></trkpt><trkpt lat="42.9719417" lon="10.8116917"><ele>29.0</ele><time>2026-04-25T14:11:39.724Z</time></trkpt><trkpt lat="42.9721117" lon="10.8118817"><ele>29.0</ele><time>2026-04-25T14:11:40.725Z</time></trkpt><trkpt lat="42.9722833" lon="10.81208"><ele>29.0</ele><time>2026-04-25T14:11:41.724Z</time></trkpt><trkpt lat="42.9724583" lon="10.812275"><ele>29.5</ele><time>2026-04-25T14:11:42.724Z</time></trkpt><trkpt lat="42.9726333" lon="10.812465"><ele>30.0</ele><time>2026-04-25T14:11:43.725Z</time></trkpt><trkpt lat="42.97281" lon="10.81266"><ele>30.0</ele><time>2026-04-25T14:11:44.725Z</time></trkpt><trkpt lat="42.972985" lon="10.8128617"><ele>30.0</ele><time>2026-04-25T14:11:45.725Z</time></trkpt><trkpt lat="42.9731583" lon="10.8130617"><ele>30.0</ele><time>2026-04-25T14:11:46.724Z</time></trkpt><trkpt lat="42.97333" lon="10.81326"><ele>30.0</ele><time>2026-04-25T14:11:47.725Z</time></trkpt><trkpt lat="42.9735" lon="10.8134517"><ele>30.0</ele><time>2026-04-25T14:11:48.724Z</time></trkpt><trkpt lat="42.9736667" lon="10.8136433"><ele>31.666666666666664</ele><time>2026-04-25T14:11:49.725Z</time></trkpt><trkpt lat="42.97383" lon="10.81383"><ele>33.33333333333333</ele><time>2026-04-25T14:11:50.724Z</time></trkpt><trkpt lat="42.973985" lon="10.8140083"><ele>35.0</ele><time>2026-04-25T14:11:51.725Z</time></trkpt><trkpt lat="42.9741317" lon="10.814175"><ele>36.33333333333333</ele><time>2026-04-25T14:11:52.723Z</time></trkpt><trkpt lat="42.9742667" lon="10.8143317"><ele>37.666666666666664</ele><time>2026-04-25T14:11:53.724Z</time></trkpt><trkpt lat="42.9743917" lon="10.8144767"><ele>39.0</ele><time>2026-04-25T14:11:54.724Z</time></trkpt><trkpt lat="42.9745033" lon="10.8146067"><ele>39.0</ele><time>2026-04-25T14:11:55.725Z</time></trkpt><trkpt lat="42.9746" lon="10.8147267"><ele>39.0</ele><time>2026-04-25T14:11:56.725Z</time></trkpt><trkpt lat="42.974675" lon="10.81484"><ele>39.0</ele><time>2026-04-25T14:11:57.726Z</time></trkpt><trkpt lat="42.9747283" lon="10.8149583"><ele>39.0</ele><time>2026-04-25T14:11:58.724Z</time></trkpt><trkpt lat="42.9747733" lon="10.8150833"><ele>39.0</ele><time>2026-04-25T14:11:59.724Z</time></trkpt><trkpt lat="42.974835" lon="10.815195"><ele>39.25</ele><time>2026-04-25T14:12:00.723Z</time></trkpt><trkpt lat="42.9749283" lon="10.8152867"><ele>39.5</ele><time>2026-04-25T14:12:01.724Z</time></trkpt><trkpt lat="42.97504" lon="10.8153833"><ele>39.75</ele><time>2026-04-25T14:12:02.725Z</time></trkpt><trkpt lat="42.9751533" lon="10.815485"><ele>40.0</ele><time>2026-04-25T14:12:03.724Z</time></trkpt><trkpt lat="42.9752633" lon="10.8156133"><ele>40.0</ele><time>2026-04-25T14:12:04.725Z</time></trkpt><trkpt lat="42.9753733" lon="10.8157417"><ele>40.0</ele><time>2026-04-25T14:12:05.723Z</time></trkpt><trkpt lat="42.9754817" lon="10.8158683"><ele>40.0</ele><time>2026-04-25T14:12:06.723Z</time></trkpt><trkpt lat="42.9755883" lon="10.8159933"><ele>40.0</ele><time>2026-04-25T14:12:07.724Z</time></trkpt><trkpt lat="42.97569" lon="10.8161283"><ele>40.5</ele><time>2026-04-25T14:12:08.723Z</time></trkpt><trkpt lat="42.9757917" lon="10.8162567"><ele>41.0</ele><time>2026-04-25T14:12:09.722Z</time></trkpt><trkpt lat="42.9758967" lon="10.8163867"><ele>41.5</ele><time>2026-04-25T14:12:10.723Z</time></trkpt><trkpt lat="42.97602" lon="10.8165317"><ele>42.0</ele><time>2026-04-25T14:12:11.721Z</time></trkpt><trkpt lat="42.9761567" lon="10.8166817"><ele>42.666666666666664</ele><time>2026-04-25T14:12:12.722Z</time></trkpt><trkpt lat="42.9763" lon="10.8168433"><ele>43.33333333333333</ele><time>2026-04-25T14:12:13.722Z</time></trkpt><trkpt lat="42.9764467" lon="10.8170233"><ele>44.0</ele><time>2026-04-25T14:12:14.722Z</time></trkpt><trkpt lat="42.9765933" lon="10.8172117"><ele>43.666666666666664</ele><time>2026-04-25T14:12:15.722Z</time></trkpt><trkpt lat="42.97674" lon="10.8174017"><ele>43.333333333333336</ele><time>2026-04-25T14:12:16.723Z</time></trkpt><trkpt lat="42.9768883" lon="10.8175883"><ele>43.0</ele><time>2026-04-25T14:12:17.721Z</time></trkpt><trkpt lat="42.9770383" lon="10.8177783"><ele>43.0</ele><time>2026-04-25T14:12:18.723Z</time></trkpt><trkpt lat="42.9771917" lon="10.817965"><ele>43.0</ele><time>2026-04-25T14:12:19.723Z</time></trkpt><trkpt lat="42.977345" lon="10.8181533"><ele>43.0</ele><time>2026-04-25T14:12:20.724Z</time></trkpt><trkpt lat="42.9774967" lon="10.8183433"><ele>44.0</ele><time>2026-04-25T14:12:21.722Z</time></trkpt><trkpt lat="42.9776483" lon="10.8185233"><ele>45.0</ele><time>2026-04-25T14:12:22.724Z</time></trkpt><trkpt lat="42.977795" lon="10.8187067"><ele>46.0</ele><time>2026-04-25T14:12:23.723Z</time></trkpt><trkpt lat="42.9779433" lon="10.8188933"><ele>46.0</ele><time>2026-04-25T14:12:24.725Z</time></trkpt><trkpt lat="42.97809" lon="10.8190783"><ele>46.0</ele><time>2026-04-25T14:12:25.721Z</time></trkpt><trkpt lat="42.9782383" lon="10.8192567"><ele>46.0</ele><time>2026-04-25T14:12:26.725Z</time></trkpt><trkpt lat="42.978385" lon="10.8194367"><ele>46.333333333333336</ele><time>2026-04-25T14:12:27.724Z</time></trkpt><trkpt lat="42.978535" lon="10.8196117"><ele>46.666666666666664</ele><time>2026-04-25T14:12:28.724Z</time></trkpt><trkpt lat="42.9786817" lon="10.8197967"><ele>47.0</ele><time>2026-04-25T14:12:29.725Z</time></trkpt><trkpt lat="42.97883" lon="10.8199783"><ele>47.33333333333333</ele><time>2026-04-25T14:12:30.724Z</time></trkpt><trkpt lat="42.9789767" lon="10.8201633"><ele>47.666666666666664</ele><time>2026-04-25T14:12:31.722Z</time></trkpt><trkpt lat="42.9791267" lon="10.82035"><ele>48.0</ele><time>2026-04-25T14:12:32.724Z</time></trkpt><trkpt lat="42.9792767" lon="10.8205317"><ele>48.66666666666667</ele><time>2026-04-25T14:12:33.722Z</time></trkpt><trkpt lat="42.9794267" lon="10.8207167"><ele>49.333333333333336</ele><time>2026-04-25T14:12:34.724Z</time></trkpt><trkpt lat="42.9795767" lon="10.8208883"><ele>50.0</ele><time>2026-04-25T14:12:35.724Z</time></trkpt><trkpt lat="42.979725" lon="10.8210767"><ele>50.0</ele><time>2026-04-25T14:12:36.725Z</time></trkpt><trkpt lat="42.9798767" lon="10.821265"><ele>50.0</ele><time>2026-04-25T14:12:37.723Z</time></trkpt><trkpt lat="42.98003" lon="10.821465"><ele>50.0</ele><time>2026-04-25T14:12:38.725Z</time></trkpt><trkpt lat="42.980185" lon="10.8216567"><ele>50.333333333333336</ele><time>2026-04-25T14:12:39.723Z</time></trkpt><trkpt lat="42.9803433" lon="10.8218467"><ele>50.66666666666667</ele><time>2026-04-25T14:12:40.722Z</time></trkpt><trkpt lat="42.9805" lon="10.822045"><ele>51.0</ele><time>2026-04-25T14:12:41.723Z</time></trkpt><trkpt lat="42.98066" lon="10.822245"><ele>51.0</ele><time>2026-04-25T14:12:42.723Z</time></trkpt><trkpt lat="42.9808217" lon="10.8224433"><ele>51.0</ele><time>2026-04-25T14:12:43.722Z</time></trkpt><trkpt lat="42.9809817" lon="10.8226533"><ele>51.0</ele><time>2026-04-25T14:12:44.724Z</time></trkpt><trkpt lat="42.9811467" lon="10.8228567"><ele>51.5</ele><time>2026-04-25T14:12:45.724Z</time></trkpt><trkpt lat="42.9813133" lon="10.8230667"><ele>52.0</ele><time>2026-04-25T14:12:46.726Z</time></trkpt><trkpt lat="42.9814817" lon="10.8232733"><ele>52.0</ele><time>2026-04-25T14:12:47.725Z</time></trkpt><trkpt lat="42.9816483" lon="10.8234783"><ele>52.0</ele><time>2026-04-25T14:12:48.726Z</time></trkpt><trkpt lat="42.9818167" lon="10.8236833"><ele>53.0</ele><time>2026-04-25T14:12:49.724Z</time></trkpt><trkpt lat="42.9819833" lon="10.82389"><ele>54.0</ele><time>2026-04-25T14:12:50.723Z</time></trkpt><trkpt lat="42.98215" lon="10.8240983"><ele>54.0</ele><time>2026-04-25T14:12:51.723Z</time></trkpt><trkpt lat="42.9823167" lon="10.82431"><ele>54.0</ele><time>2026-04-25T14:12:52.725Z</time></trkpt><trkpt lat="42.98248" lon="10.8245167"><ele>54.66666666666667</ele><time>2026-04-25T14:12:53.726Z</time></trkpt><trkpt lat="42.982635" lon="10.82471"><ele>55.333333333333336</ele><time>2026-04-25T14:12:54.723Z</time></trkpt><trkpt lat="42.9827833" lon="10.8249017"><ele>56.0</ele><time>2026-04-25T14:12:55.725Z</time></trkpt><trkpt lat="42.9829233" lon="10.8250733"><ele>56.333333333333336</ele><time>2026-04-25T14:12:56.724Z</time></trkpt><trkpt lat="42.983075" lon="10.8252467"><ele>56.66666666666667</ele><time>2026-04-25T14:12:57.724Z</time></trkpt><trkpt lat="42.98323" lon="10.8254317"><ele>57.0</ele><time>2026-04-25T14:12:58.724Z</time></trkpt><trkpt lat="42.983385" lon="10.825615"><ele>57.0</ele><time>2026-04-25T14:12:59.725Z</time></trkpt><trkpt lat="42.9835383" lon="10.8257967"><ele>57.0</ele><time>2026-04-25T14:13:00.724Z</time></trkpt><trkpt lat="42.9836933" lon="10.8259733"><ele>57.0</ele><time>2026-04-25T14:13:01.725Z</time></trkpt><trkpt lat="42.9838483" lon="10.8261417"><ele>57.33333333333333</ele><time>2026-04-25T14:13:02.724Z</time></trkpt><trkpt lat="42.984005" lon="10.8263283"><ele>57.666666666666664</ele><time>2026-04-25T14:13:03.724Z</time></trkpt><trkpt lat="42.9841617" lon="10.8265067"><ele>58.0</ele><time>2026-04-25T14:13:04.724Z</time></trkpt><trkpt lat="42.9843183" lon="10.8266983"><ele>58.666666666666664</ele><time>2026-04-25T14:13:05.724Z</time></trkpt><trkpt lat="42.9844817" lon="10.8268883"><ele>59.33333333333333</ele><time>2026-04-25T14:13:06.724Z</time></trkpt><trkpt lat="42.9846367" lon="10.8270833"><ele>60.0</ele><time>2026-04-25T14:13:07.724Z</time></trkpt><trkpt lat="42.9847967" lon="10.8272733"><ele>60.0</ele><time>2026-04-25T14:13:08.725Z</time></trkpt><trkpt lat="42.984955" lon="10.827465"><ele>60.0</ele><time>2026-04-25T14:13:09.723Z</time></trkpt><trkpt lat="42.985115" lon="10.8276583"><ele>60.0</ele><time>2026-04-25T14:13:10.723Z</time></trkpt><trkpt lat="42.9852767" lon="10.8278567"><ele>60.0</ele><time>2026-04-25T14:13:11.724Z</time></trkpt><trkpt lat="42.9854367" lon="10.828055"><ele>60.0</ele><time>2026-04-25T14:13:12.724Z</time></trkpt><trkpt lat="42.9856017" lon="10.82825"><ele>60.0</ele><time>2026-04-25T14:13:13.723Z</time></trkpt><trkpt lat="42.9857667" lon="10.828445"><ele>61.0</ele><time>2026-04-25T14:13:14.723Z</time></trkpt><trkpt lat="42.9859317" lon="10.8286417"><ele>62.0</ele><time>2026-04-25T14:13:15.724Z</time></trkpt><trkpt lat="42.9861" lon="10.828835"><ele>63.0</ele><time>2026-04-25T14:13:16.723Z</time></trkpt><trkpt lat="42.9862667" lon="10.8290333"><ele>63.0</ele><time>2026-04-25T14:13:17.724Z</time></trkpt><trkpt lat="42.9864367" lon="10.8292317"><ele>63.0</ele><time>2026-04-25T14:13:18.724Z</time></trkpt><trkpt lat="42.9866033" lon="10.8294317"><ele>63.0</ele><time>2026-04-25T14:13:19.724Z</time></trkpt><trkpt lat="42.98677" lon="10.829635"><ele>63.33333333333333</ele><time>2026-04-25T14:13:20.724Z</time></trkpt><trkpt lat="42.98694" lon="10.829835"><ele>63.666666666666664</ele><time>2026-04-25T14:13:21.724Z</time></trkpt><trkpt lat="42.98711" lon="10.8300367"><ele>64.0</ele><time>2026-04-25T14:13:22.724Z</time></trkpt><trkpt lat="42.9872783" lon="10.83024"><ele>65.0</ele><time>2026-04-25T14:13:23.725Z</time></trkpt><trkpt lat="42.9874467" lon="10.8304467"><ele>66.0</ele><time>2026-04-25T14:13:24.724Z</time></trkpt><trkpt lat="42.98762" lon="10.8306483"><ele>66.5</ele><time>2026-04-25T14:13:25.722Z</time></trkpt><trkpt lat="42.9877883" lon="10.83085"><ele>67.0</ele><time>2026-04-25T14:13:26.723Z</time></trkpt><trkpt lat="42.9879583" lon="10.8310533"><ele>67.0</ele><time>2026-04-25T14:13:27.723Z</time></trkpt><trkpt lat="42.98813" lon="10.8312533"><ele>67.0</ele><time>2026-04-25T14:13:28.725Z</time></trkpt><trkpt lat="42.9883017" lon="10.8314567"><ele>68.5</ele><time>2026-04-25T14:13:29.724Z</time></trkpt><trkpt lat="42.9884733" lon="10.83166"><ele>70.0</ele><time>2026-04-25T14:13:30.723Z</time></trkpt><trkpt lat="42.988645" lon="10.831865"><ele>71.5</ele><time>2026-04-25T14:13:31.725Z</time></trkpt><trkpt lat="42.9888167" lon="10.832075"><ele>73.0</ele><time>2026-04-25T14:13:32.724Z</time></trkpt><trkpt lat="42.9889867" lon="10.8322833"><ele>73.0</ele><time>2026-04-25T14:13:33.723Z</time></trkpt><trkpt lat="42.9891567" lon="10.83249"><ele>73.0</ele><time>2026-04-25T14:13:34.724Z</time></trkpt><trkpt lat="42.9893267" lon="10.8326933"><ele>72.33333333333333</ele><time>2026-04-25T14:13:35.723Z</time></trkpt><trkpt lat="42.9894933" lon="10.8328967"><ele>71.66666666666667</ele><time>2026-04-25T14:13:36.723Z</time></trkpt><trkpt lat="42.989665" lon="10.8330967"><ele>71.0</ele><time>2026-04-25T14:13:37.726Z</time></trkpt><trkpt lat="42.989835" lon="10.8332983"><ele>71.5</ele><time>2026-04-25T14:13:38.725Z</time></trkpt><trkpt lat="42.9900083" lon="10.8335"><ele>72.0</ele><time>2026-04-25T14:13:39.722Z</time></trkpt><trkpt lat="42.9901833" lon="10.8336983"><ele>72.66666666666667</ele><time>2026-04-25T14:13:40.724Z</time></trkpt><trkpt lat="42.990355" lon="10.8338933"><ele>73.33333333333334</ele><time>2026-04-25T14:13:41.723Z</time></trkpt><trkpt lat="42.9905217" lon="10.8340983"><ele>74.0</ele><time>2026-04-25T14:13:42.722Z</time></trkpt><trkpt lat="42.9906833" lon="10.8343083"><ele>74.33333333333334</ele><time>2026-04-25T14:13:43.725Z</time></trkpt><trkpt lat="42.9908317" lon="10.834535"><ele>74.66666666666667</ele><time>2026-04-25T14:13:44.724Z</time></trkpt><trkpt lat="42.9909733" lon="10.834765"><ele>75.0</ele><time>2026-04-25T14:13:45.723Z</time></trkpt><trkpt lat="42.99111" lon="10.835"><ele>75.33333333333333</ele><time>2026-04-25T14:13:46.724Z</time></trkpt><trkpt lat="42.9912483" lon="10.8352283"><ele>75.66666666666666</ele><time>2026-04-25T14:13:47.723Z</time></trkpt><trkpt lat="42.9913867" lon="10.835465"><ele>76.0</ele><time>2026-04-25T14:13:48.723Z</time></trkpt><trkpt lat="42.9915217" lon="10.8357083"><ele>76.0</ele><time>2026-04-25T14:13:49.724Z</time></trkpt><trkpt lat="42.9916533" lon="10.8359583"><ele>76.0</ele><time>2026-04-25T14:13:50.725Z</time></trkpt><trkpt lat="42.9917817" lon="10.83621"><ele>77.5</ele><time>2026-04-25T14:13:51.722Z</time></trkpt><trkpt lat="42.9919083" lon="10.8364733"><ele>79.0</ele><time>2026-04-25T14:13:52.722Z</time></trkpt><trkpt lat="42.992035" lon="10.8367333"><ele>80.5</ele><time>2026-04-25T14:13:53.724Z</time></trkpt><trkpt lat="42.9921633" lon="10.8369967"><ele>82.0</ele><time>2026-04-25T14:13:54.724Z</time></trkpt><trkpt lat="42.992295" lon="10.837255"><ele>82.0</ele><time>2026-04-25T14:13:55.723Z</time></trkpt><trkpt lat="42.9924317" lon="10.8375133"><ele>82.0</ele><time>2026-04-25T14:13:56.723Z</time></trkpt><trkpt lat="42.9925717" lon="10.8377683"><ele>84.0</ele><time>2026-04-25T14:13:57.724Z</time></trkpt><trkpt lat="42.99272" lon="10.8380167"><ele>86.0</ele><time>2026-04-25T14:13:58.725Z</time></trkpt><trkpt lat="42.992875" lon="10.83826"><ele>86.5</ele><time>2026-04-25T14:13:59.724Z</time></trkpt><trkpt lat="42.99303" lon="10.8384933"><ele>87.0</ele><time>2026-04-25T14:14:00.725Z</time></trkpt><trkpt lat="42.9931933" lon="10.838715"><ele>86.5</ele><time>2026-04-25T14:14:01.723Z</time></trkpt><trkpt lat="42.9933633" lon="10.8389267"><ele>86.0</ele><time>2026-04-25T14:14:02.723Z</time></trkpt><trkpt lat="42.9935383" lon="10.83913"><ele>87.0</ele><time>2026-04-25T14:14:03.724Z</time></trkpt><trkpt lat="42.9937167" lon="10.8393317"><ele>88.0</ele><time>2026-04-25T14:14:04.722Z</time></trkpt><trkpt lat="42.9938967" lon="10.8395317"><ele>88.0</ele><time>2026-04-25T14:14:05.723Z</time></trkpt><trkpt lat="42.9940767" lon="10.8397267"><ele>88.0</ele><time>2026-04-25T14:14:06.723Z</time></trkpt><trkpt lat="42.99426" lon="10.83993"><ele>89.5</ele><time>2026-04-25T14:14:07.723Z</time></trkpt><trkpt lat="42.9944417" lon="10.8401383"><ele>91.0</ele><time>2026-04-25T14:14:08.724Z</time></trkpt><trkpt lat="42.994625" lon="10.8403467"><ele>91.0</ele><time>2026-04-25T14:14:09.724Z</time></trkpt><trkpt lat="42.9948083" lon="10.8405517"><ele>91.0</ele><time>2026-04-25T14:14:10.722Z</time></trkpt><trkpt lat="42.9949967" lon="10.84075"><ele>92.0</ele><time>2026-04-25T14:14:11.724Z</time></trkpt><trkpt lat="42.9951817" lon="10.84095"><ele>93.0</ele><time>2026-04-25T14:14:12.723Z</time></trkpt><trkpt lat="42.9953683" lon="10.8411467"><ele>94.0</ele><time>2026-04-25T14:14:13.724Z</time></trkpt><trkpt lat="42.995555" lon="10.8413467"><ele>95.0</ele><time>2026-04-25T14:14:14.723Z</time></trkpt><trkpt lat="42.9957417" lon="10.84155"><ele>96.0</ele><time>2026-04-25T14:14:15.723Z</time></trkpt><trkpt lat="42.9959267" lon="10.841755"><ele>97.0</ele><time>2026-04-25T14:14:16.723Z</time></trkpt><trkpt lat="42.9961133" lon="10.8419567"><ele>97.5</ele><time>2026-04-25T14:14:17.723Z</time></trkpt><trkpt lat="42.9963" lon="10.842165"><ele>98.0</ele><time>2026-04-25T14:14:18.723Z</time></trkpt><trkpt lat="42.9964867" lon="10.8423733"><ele>99.0</ele><time>2026-04-25T14:14:19.724Z</time></trkpt><trkpt lat="42.996675" lon="10.8425733"><ele>100.0</ele><time>2026-04-25T14:14:20.725Z</time></trkpt><trkpt lat="42.9968617" lon="10.8427683"><ele>101.0</ele><time>2026-04-25T14:14:21.724Z</time></trkpt><trkpt lat="42.9970483" lon="10.84296"><ele>102.0</ele><time>2026-04-25T14:14:22.724Z</time></trkpt><trkpt lat="42.9972333" lon="10.8431583"><ele>102.0</ele><time>2026-04-25T14:14:23.725Z</time></trkpt><trkpt lat="42.997415" lon="10.8433583"><ele>102.0</ele><time>2026-04-25T14:14:24.723Z</time></trkpt><trkpt lat="42.9975983" lon="10.8435567"><ele>103.0</ele><time>2026-04-25T14:14:25.723Z</time></trkpt><trkpt lat="42.9977817" lon="10.8437517"><ele>104.0</ele><time>2026-04-25T14:14:26.722Z</time></trkpt><trkpt lat="42.9979617" lon="10.8439367"><ele>104.0</ele><time>2026-04-25T14:14:27.724Z</time></trkpt><trkpt lat="42.9981383" lon="10.84412"><ele>104.0</ele><time>2026-04-25T14:14:28.724Z</time></trkpt><trkpt lat="42.9983183" lon="10.8443017"><ele>104.0</ele><time>2026-04-25T14:14:29.723Z</time></trkpt><trkpt lat="42.9985" lon="10.8444817"><ele>106.0</ele><time>2026-04-25T14:14:30.724Z</time></trkpt><trkpt lat="42.9986833" lon="10.8446633"><ele>108.0</ele><time>2026-04-25T14:14:31.722Z</time></trkpt><trkpt lat="42.9988683" lon="10.8448333"><ele>110.0</ele><time>2026-04-25T14:14:32.722Z</time></trkpt><trkpt lat="42.9990567" lon="10.844995"><ele>113.0</ele><time>2026-04-25T14:14:33.721Z</time></trkpt><trkpt lat="42.9992533" lon="10.8451483"><ele>116.0</ele><time>2026-04-25T14:14:34.722Z</time></trkpt><trkpt lat="42.9994567" lon="10.845285"><ele>116.0</ele><time>2026-04-25T14:14:35.722Z</time></trkpt><trkpt lat="42.9996667" lon="10.8454083"><ele>116.0</ele><time>2026-04-25T14:14:36.723Z</time></trkpt><trkpt lat="42.9998817" lon="10.8455117"><ele>116.0</ele><time>2026-04-25T14:14:37.721Z</time></trkpt><trkpt lat="43.0001033" lon="10.8456"><ele>116.0</ele><time>2026-04-25T14:14:38.723Z</time></trkpt><trkpt lat="43.0003317" lon="10.845675"><ele>116.0</ele><time>2026-04-25T14:14:39.721Z</time></trkpt><trkpt lat="43.0005633" lon="10.845745"><ele>116.0</ele><time>2026-04-25T14:14:40.725Z</time></trkpt><trkpt lat="43.000795" lon="10.8458067"><ele>119.5</ele><time>2026-04-25T14:14:41.724Z</time></trkpt><trkpt lat="43.0010283" lon="10.84587"><ele>123.0</ele><time>2026-04-25T14:14:42.724Z</time></trkpt><trkpt lat="43.0012567" lon="10.8459333"><ele>125.5</ele><time>2026-04-25T14:14:43.726Z</time></trkpt><trkpt lat="43.0014867" lon="10.8459933"><ele>128.0</ele><time>2026-04-25T14:14:44.726Z</time></trkpt><trkpt lat="43.001715" lon="10.8460583"><ele>129.5</ele><time>2026-04-25T14:14:45.723Z</time></trkpt><trkpt lat="43.0019433" lon="10.8461317"><ele>131.0</ele><time>2026-04-25T14:14:46.724Z</time></trkpt><trkpt lat="43.0021683" lon="10.8462117"><ele>131.0</ele><time>2026-04-25T14:14:47.723Z</time></trkpt><trkpt lat="43.00239" lon="10.846305"><ele>131.0</ele><time>2026-04-25T14:14:48.724Z</time></trkpt><trkpt lat="43.0026067" lon="10.846415"><ele>132.5</ele><time>2026-04-25T14:14:49.723Z</time></trkpt><trkpt lat="43.0028183" lon="10.84654"><ele>134.0</ele><time>2026-04-25T14:14:50.726Z</time></trkpt><trkpt lat="43.0030233" lon="10.8466733"><ele>136.5</ele><time>2026-04-25T14:14:51.725Z</time></trkpt><trkpt lat="43.0032233" lon="10.846825"><ele>139.0</ele><time>2026-04-25T14:14:52.724Z</time></trkpt><trkpt lat="43.0034217" lon="10.8469833"><ele>139.0</ele><time>2026-04-25T14:14:53.723Z</time></trkpt><trkpt lat="43.0036167" lon="10.8471567"><ele>139.0</ele><time>2026-04-25T14:14:54.722Z</time></trkpt><trkpt lat="43.00381" lon="10.8473433"><ele>139.0</ele><time>2026-04-25T14:14:55.724Z</time></trkpt><trkpt lat="43.0040033" lon="10.84753"><ele>139.0</ele><time>2026-04-25T14:14:56.725Z</time></trkpt><trkpt lat="43.004195" lon="10.8477283"><ele>140.0</ele><time>2026-04-25T14:14:57.724Z</time></trkpt><trkpt lat="43.004385" lon="10.847925"><ele>141.0</ele><time>2026-04-25T14:14:58.725Z</time></trkpt><trkpt lat="43.0045783" lon="10.8481167"><ele>141.0</ele><time>2026-04-25T14:14:59.725Z</time></trkpt><trkpt lat="43.00477" lon="10.8483167"><ele>141.0</ele><time>2026-04-25T14:15:00.723Z</time></trkpt><trkpt lat="43.00496" lon="10.84851"><ele>142.0</ele><time>2026-04-25T14:15:01.723Z</time></trkpt><trkpt lat="43.00515" lon="10.8487083"><ele>143.0</ele><time>2026-04-25T14:15:02.725Z</time></trkpt><trkpt lat="43.00534" lon="10.8489017"><ele>143.0</ele><time>2026-04-25T14:15:03.724Z</time></trkpt><trkpt lat="43.0055283" lon="10.849095"><ele>143.0</ele><time>2026-04-25T14:15:04.725Z</time></trkpt><trkpt lat="43.0057183" lon="10.8492817"><ele>143.5</ele><time>2026-04-25T14:15:05.723Z</time></trkpt><trkpt lat="43.0059083" lon="10.8494667"><ele>144.0</ele><time>2026-04-25T14:15:06.724Z</time></trkpt><trkpt lat="43.0060983" lon="10.8496517"><ele>144.0</ele><time>2026-04-25T14:15:07.724Z</time></trkpt><trkpt lat="43.0062867" lon="10.849835"><ele>144.0</ele><time>2026-04-25T14:15:08.723Z</time></trkpt><trkpt lat="43.006475" lon="10.8500267"><ele>145.5</ele><time>2026-04-25T14:15:09.724Z</time></trkpt><trkpt lat="43.0066617" lon="10.85022"><ele>147.0</ele><time>2026-04-25T14:15:10.724Z</time></trkpt><trkpt lat="43.0068517" lon="10.8504133"><ele>147.0</ele><time>2026-04-25T14:15:11.724Z</time></trkpt><trkpt lat="43.0070383" lon="10.8506083"><ele>147.0</ele><time>2026-04-25T14:15:12.722Z</time></trkpt><trkpt lat="43.0072283" lon="10.8508017"><ele>147.5</ele><time>2026-04-25T14:15:13.722Z</time></trkpt><trkpt lat="43.00742" lon="10.8509933"><ele>148.0</ele><time>2026-04-25T14:15:14.724Z</time></trkpt><trkpt lat="43.00761" lon="10.8511817"><ele>148.0</ele><time>2026-04-25T14:15:15.723Z</time></trkpt><trkpt lat="43.0077983" lon="10.8513683"><ele>148.0</ele><time>2026-04-25T14:15:16.722Z</time></trkpt><trkpt lat="43.00798" lon="10.85155"><ele>148.0</ele><time>2026-04-25T14:15:17.725Z</time></trkpt><trkpt lat="43.00816" lon="10.8517317"><ele>148.0</ele><time>2026-04-25T14:15:18.723Z</time></trkpt><trkpt lat="43.0083383" lon="10.85191"><ele>148.0</ele><time>2026-04-25T14:15:19.724Z</time></trkpt><trkpt lat="43.008515" lon="10.8520917"><ele>148.33333333333334</ele><time>2026-04-25T14:15:20.724Z</time></trkpt><trkpt lat="43.00869" lon="10.8522717"><ele>148.66666666666666</ele><time>2026-04-25T14:15:21.723Z</time></trkpt><trkpt lat="43.008865" lon="10.85245"><ele>149.0</ele><time>2026-04-25T14:15:22.724Z</time></trkpt><trkpt lat="43.0090433" lon="10.85263"><ele>150.0</ele><time>2026-04-25T14:15:23.724Z</time></trkpt><trkpt lat="43.0092217" lon="10.8528133"><ele>151.0</ele><time>2026-04-25T14:15:24.726Z</time></trkpt><trkpt lat="43.0093983" lon="10.8529967"><ele>152.0</ele><time>2026-04-25T14:15:25.723Z</time></trkpt><trkpt lat="43.0095733" lon="10.8531783"><ele>152.0</ele><time>2026-04-25T14:15:26.724Z</time></trkpt><trkpt lat="43.009745" lon="10.85336"><ele>152.0</ele><time>2026-04-25T14:15:27.723Z</time></trkpt><trkpt lat="43.009915" lon="10.853535"><ele>152.0</ele><time>2026-04-25T14:15:28.722Z</time></trkpt><trkpt lat="43.0100867" lon="10.8537133"><ele>152.66666666666666</ele><time>2026-04-25T14:15:29.722Z</time></trkpt><trkpt lat="43.0102567" lon="10.85389"><ele>153.33333333333334</ele><time>2026-04-25T14:15:30.725Z</time></trkpt><trkpt lat="43.0104317" lon="10.8540683"><ele>154.0</ele><time>2026-04-25T14:15:31.724Z</time></trkpt><trkpt lat="43.0106" lon="10.85424"><ele>153.66666666666669</ele><time>2026-04-25T14:15:32.725Z</time></trkpt><trkpt lat="43.010765" lon="10.85441"><ele>153.33333333333334</ele><time>2026-04-25T14:15:33.723Z</time></trkpt><trkpt lat="43.010925" lon="10.8545683"><ele>153.0</ele><time>2026-04-25T14:15:34.722Z</time></trkpt><trkpt lat="43.0110817" lon="10.8547183"><ele>153.0</ele><time>2026-04-25T14:15:35.723Z</time></trkpt><trkpt lat="43.011235" lon="10.85487"><ele>153.0</ele><time>2026-04-25T14:15:36.722Z</time></trkpt><trkpt lat="43.011385" lon="10.855025"><ele>153.0</ele><time>2026-04-25T14:15:37.722Z</time></trkpt><trkpt lat="43.0115317" lon="10.8551683"><ele>153.66666666666666</ele><time>2026-04-25T14:15:38.723Z</time></trkpt><trkpt lat="43.01167" lon="10.8553083"><ele>154.33333333333331</ele><time>2026-04-25T14:15:39.721Z</time></trkpt><trkpt lat="43.0118067" lon="10.8554483"><ele>155.0</ele><time>2026-04-25T14:15:40.722Z</time></trkpt><trkpt lat="43.0119433" lon="10.8555967"><ele>155.0</ele><time>2026-04-25T14:15:41.724Z</time></trkpt><trkpt lat="43.0120817" lon="10.8557417"><ele>155.0</ele><time>2026-04-25T14:15:42.722Z</time></trkpt><trkpt lat="43.012215" lon="10.8558767"><ele>155.0</ele><time>2026-04-25T14:15:43.723Z</time></trkpt><trkpt lat="43.01235" lon="10.856005"><ele>155.33333333333331</ele><time>2026-04-25T14:15:44.723Z</time></trkpt><trkpt lat="43.012495" lon="10.8561367"><ele>155.66666666666666</ele><time>2026-04-25T14:15:45.724Z</time></trkpt><trkpt lat="43.0126567" lon="10.8562667"><ele>156.0</ele><time>2026-04-25T14:15:46.724Z</time></trkpt><trkpt lat="43.012835" lon="10.8563917"><ele>156.0</ele><time>2026-04-25T14:15:47.723Z</time></trkpt><trkpt lat="43.0130283" lon="10.85651"><ele>156.0</ele><time>2026-04-25T14:15:48.723Z</time></trkpt><trkpt lat="43.0132317" lon="10.8566383"><ele>156.0</ele><time>2026-04-25T14:15:49.725Z</time></trkpt><trkpt lat="43.013445" lon="10.8567717"><ele>155.0</ele><time>2026-04-25T14:15:50.725Z</time></trkpt><trkpt lat="43.0136683" lon="10.85691"><ele>154.0</ele><time>2026-04-25T14:15:51.725Z</time></trkpt><trkpt lat="43.0138967" lon="10.8570467"><ele>154.0</ele><time>2026-04-25T14:15:52.723Z</time></trkpt><trkpt lat="43.0141233" lon="10.857185"><ele>154.0</ele><time>2026-04-25T14:15:53.723Z</time></trkpt><trkpt lat="43.0143483" lon="10.8573233"><ele>153.0</ele><time>2026-04-25T14:15:54.726Z</time></trkpt><trkpt lat="43.0145733" lon="10.857465"><ele>152.0</ele><time>2026-04-25T14:15:55.724Z</time></trkpt><trkpt lat="43.0147933" lon="10.8576033"><ele>153.0</ele><time>2026-04-25T14:15:56.726Z</time></trkpt><trkpt lat="43.0150133" lon="10.857735"><ele>154.0</ele><time>2026-04-25T14:15:57.724Z</time></trkpt><trkpt lat="43.015235" lon="10.8578667"><ele>154.0</ele><time>2026-04-25T14:15:58.725Z</time></trkpt><trkpt lat="43.0154583" lon="10.858"><ele>154.0</ele><time>2026-04-25T14:15:59.723Z</time></trkpt><trkpt lat="43.01568" lon="10.858135"><ele>154.0</ele><time>2026-04-25T14:16:00.723Z</time></trkpt><trkpt lat="43.0159033" lon="10.858275"><ele>154.0</ele><time>2026-04-25T14:16:01.723Z</time></trkpt><trkpt lat="43.0161217" lon="10.8584133"><ele>154.0</ele><time>2026-04-25T14:16:02.725Z</time></trkpt><trkpt lat="43.0163367" lon="10.85856"><ele>154.0</ele><time>2026-04-25T14:16:03.724Z</time></trkpt><trkpt lat="43.01655" lon="10.8587033"><ele>155.0</ele><time>2026-04-25T14:16:04.724Z</time></trkpt><trkpt lat="43.0167633" lon="10.8588483"><ele>156.0</ele><time>2026-04-25T14:16:05.724Z</time></trkpt><trkpt lat="43.016975" lon="10.8589883"><ele>156.0</ele><time>2026-04-25T14:16:06.724Z</time></trkpt><trkpt lat="43.017185" lon="10.85913"><ele>156.0</ele><time>2026-04-25T14:16:07.723Z</time></trkpt><trkpt lat="43.01739" lon="10.859265"><ele>156.66666666666666</ele><time>2026-04-25T14:16:08.724Z</time></trkpt><trkpt lat="43.0175917" lon="10.859395"><ele>157.33333333333331</ele><time>2026-04-25T14:16:09.723Z</time></trkpt><trkpt lat="43.01779" lon="10.8595183"><ele>158.0</ele><time>2026-04-25T14:16:10.723Z</time></trkpt><trkpt lat="43.0179867" lon="10.8596417"><ele>158.0</ele><time>2026-04-25T14:16:11.723Z</time></trkpt><trkpt lat="43.0181833" lon="10.85976"><ele>158.0</ele><time>2026-04-25T14:16:12.725Z</time></trkpt><trkpt lat="43.0183783" lon="10.8598817"><ele>158.0</ele><time>2026-04-25T14:16:13.724Z</time></trkpt><trkpt lat="43.0185733" lon="10.8600033"><ele>158.33333333333331</ele><time>2026-04-25T14:16:14.725Z</time></trkpt><trkpt lat="43.0187683" lon="10.8601267"><ele>158.66666666666666</ele><time>2026-04-25T14:16:15.724Z</time></trkpt><trkpt lat="43.018965" lon="10.8602533"><ele>159.0</ele><time>2026-04-25T14:16:16.724Z</time></trkpt><trkpt lat="43.0191633" lon="10.8603833"><ele>159.0</ele><time>2026-04-25T14:16:17.725Z</time></trkpt><trkpt lat="43.0193667" lon="10.8605117"><ele>159.0</ele><time>2026-04-25T14:16:18.724Z</time></trkpt><trkpt lat="43.0195717" lon="10.86064"><ele>159.0</ele><time>2026-04-25T14:16:19.725Z</time></trkpt><trkpt lat="43.0197817" lon="10.8607717"><ele>158.5</ele><time>2026-04-25T14:16:20.725Z</time></trkpt><trkpt lat="43.0199967" lon="10.8609"><ele>158.0</ele><time>2026-04-25T14:16:21.724Z</time></trkpt><trkpt lat="43.0202133" lon="10.8610317"><ele>160.0</ele><time>2026-04-25T14:16:22.724Z</time></trkpt><trkpt lat="43.0204333" lon="10.8611683"><ele>162.0</ele><time>2026-04-25T14:16:23.725Z</time></trkpt><trkpt lat="43.020655" lon="10.8613083"><ele>161.0</ele><time>2026-04-25T14:16:24.724Z</time></trkpt><trkpt lat="43.0208717" lon="10.8614667"><ele>160.0</ele><time>2026-04-25T14:16:25.725Z</time></trkpt><trkpt lat="43.0210767" lon="10.8616417"><ele>164.0</ele><time>2026-04-25T14:16:26.724Z</time></trkpt><trkpt lat="43.0212717" lon="10.8618367"><ele>168.0</ele><time>2026-04-25T14:16:27.725Z</time></trkpt><trkpt lat="43.0214567" lon="10.8620383"><ele>168.0</ele><time>2026-04-25T14:16:28.723Z</time></trkpt><trkpt lat="43.0216317" lon="10.8622617"><ele>168.0</ele><time>2026-04-25T14:16:29.724Z</time></trkpt><trkpt lat="43.0217983" lon="10.8624983"><ele>172.0</ele><time>2026-04-25T14:16:30.723Z</time></trkpt><trkpt lat="43.021955" lon="10.8627483"><ele>176.0</ele><time>2026-04-25T14:16:31.724Z</time></trkpt><trkpt lat="43.0221017" lon="10.863015"><ele>176.0</ele><time>2026-04-25T14:16:32.723Z</time></trkpt><trkpt lat="43.0222383" lon="10.86329"><ele>176.0</ele><time>2026-04-25T14:16:33.723Z</time></trkpt><trkpt lat="43.0223617" lon="10.8635783"><ele>180.5</ele><time>2026-04-25T14:16:34.724Z</time></trkpt><trkpt lat="43.022475" lon="10.86388"><ele>185.0</ele><time>2026-04-25T14:16:35.725Z</time></trkpt><trkpt lat="43.0225767" lon="10.8641917"><ele>176.5</ele><time>2026-04-25T14:16:36.724Z</time></trkpt><trkpt lat="43.02267" lon="10.8645067"><ele>168.0</ele><time>2026-04-25T14:16:37.724Z</time></trkpt><trkpt lat="43.0227583" lon="10.8648283"><ele>169.0</ele><time>2026-04-25T14:16:38.724Z</time></trkpt><trkpt lat="43.022845" lon="10.8651483"><ele>170.0</ele><time>2026-04-25T14:16:39.724Z</time></trkpt><trkpt lat="43.0229333" lon="10.8654633"><ele>170.0</ele><time>2026-04-25T14:16:40.725Z</time></trkpt><trkpt lat="43.0230217" lon="10.86578"><ele>170.0</ele><time>2026-04-25T14:16:41.725Z</time></trkpt><trkpt lat="43.023115" lon="10.8660917"><ele>171.0</ele><time>2026-04-25T14:16:42.725Z</time></trkpt><trkpt lat="43.0232017" lon="10.8664083"><ele>172.0</ele><time>2026-04-25T14:16:43.724Z</time></trkpt><trkpt lat="43.023285" lon="10.86672"><ele>169.0</ele><time>2026-04-25T14:16:44.723Z</time></trkpt><trkpt lat="43.02337" lon="10.86703"><ele>166.0</ele><time>2026-04-25T14:16:45.725Z</time></trkpt><trkpt lat="43.0234567" lon="10.8673383"><ele>168.5</ele><time>2026-04-25T14:16:46.723Z</time></trkpt><trkpt lat="43.02354" lon="10.8676533"><ele>171.0</ele><time>2026-04-25T14:16:47.724Z</time></trkpt><trkpt lat="43.023625" lon="10.8679667"><ele>171.0</ele><time>2026-04-25T14:16:48.725Z</time></trkpt><trkpt lat="43.023715" lon="10.86828"><ele>171.0</ele><time>2026-04-25T14:16:49.723Z</time></trkpt><trkpt lat="43.0238117" lon="10.8685867"><ele>174.5</ele><time>2026-04-25T14:16:50.726Z</time></trkpt><trkpt lat="43.0239233" lon="10.8688833"><ele>178.0</ele><time>2026-04-25T14:16:51.725Z</time></trkpt><trkpt lat="43.0240517" lon="10.8691667"><ele>172.0</ele><time>2026-04-25T14:16:52.725Z</time></trkpt><trkpt lat="43.024195" lon="10.869435"><ele>166.0</ele><time>2026-04-25T14:16:53.726Z</time></trkpt><trkpt lat="43.024355" lon="10.8696867"><ele>166.0</ele><time>2026-04-25T14:16:54.725Z</time></trkpt><trkpt lat="43.0245167" lon="10.8699333"><ele>166.0</ele><time>2026-04-25T14:16:55.724Z</time></trkpt><trkpt lat="43.0246717" lon="10.87017"><ele>165.33333333333334</ele><time>2026-04-25T14:16:56.725Z</time></trkpt><trkpt lat="43.0248217" lon="10.8704"><ele>164.66666666666666</ele><time>2026-04-25T14:16:57.724Z</time></trkpt><trkpt lat="43.0249683" lon="10.8706217"><ele>164.0</ele><time>2026-04-25T14:16:58.726Z</time></trkpt><trkpt lat="43.025115" lon="10.8708367"><ele>163.66666666666666</ele><time>2026-04-25T14:16:59.723Z</time></trkpt><trkpt lat="43.0252567" lon="10.87106"><ele>163.33333333333334</ele><time>2026-04-25T14:17:00.726Z</time></trkpt><trkpt lat="43.0253933" lon="10.8712917"><ele>163.0</ele><time>2026-04-25T14:17:01.724Z</time></trkpt><trkpt lat="43.0255333" lon="10.8715267"><ele>163.0</ele><time>2026-04-25T14:17:02.725Z</time></trkpt><trkpt lat="43.02568" lon="10.871765"><ele>163.0</ele><time>2026-04-25T14:17:03.725Z</time></trkpt><trkpt lat="43.02583" lon="10.8720033"><ele>162.0</ele><time>2026-04-25T14:17:04.725Z</time></trkpt><trkpt lat="43.02598" lon="10.8722467"><ele>161.0</ele><time>2026-04-25T14:17:05.725Z</time></trkpt><trkpt lat="43.0261333" lon="10.87249"><ele>160.5</ele><time>2026-04-25T14:17:06.724Z</time></trkpt><trkpt lat="43.0262867" lon="10.8727333"><ele>160.0</ele><time>2026-04-25T14:17:07.726Z</time></trkpt><trkpt lat="43.0264383" lon="10.8729733"><ele>160.0</ele><time>2026-04-25T14:17:08.725Z</time></trkpt><trkpt lat="43.0265883" lon="10.8732167"><ele>160.0</ele><time>2026-04-25T14:17:09.722Z</time></trkpt><trkpt lat="43.0267383" lon="10.87346"><ele>161.0</ele><time>2026-04-25T14:17:10.723Z</time></trkpt><trkpt lat="43.026885" lon="10.8737067"><ele>162.0</ele><time>2026-04-25T14:17:11.723Z</time></trkpt><trkpt lat="43.027035" lon="10.8739567"><ele>162.0</ele><time>2026-04-25T14:17:12.723Z</time></trkpt><trkpt lat="43.0271883" lon="10.8742083"><ele>162.0</ele><time>2026-04-25T14:17:13.724Z</time></trkpt><trkpt lat="43.0273433" lon="10.8744567"><ele>162.0</ele><time>2026-04-25T14:17:14.726Z</time></trkpt><trkpt lat="43.0275" lon="10.874705"><ele>162.0</ele><time>2026-04-25T14:17:15.726Z</time></trkpt><trkpt lat="43.02766" lon="10.874955"><ele>162.0</ele><time>2026-04-25T14:17:16.723Z</time></trkpt><trkpt lat="43.02782" lon="10.8752083"><ele>162.0</ele><time>2026-04-25T14:17:17.724Z</time></trkpt><trkpt lat="43.0279783" lon="10.8754633"><ele>162.0</ele><time>2026-04-25T14:17:18.724Z</time></trkpt><trkpt lat="43.02814" lon="10.87572"><ele>162.0</ele><time>2026-04-25T14:17:19.725Z</time></trkpt><trkpt lat="43.0283033" lon="10.87598"><ele>162.0</ele><time>2026-04-25T14:17:20.725Z</time></trkpt><trkpt lat="43.028465" lon="10.8762383"><ele>162.0</ele><time>2026-04-25T14:17:21.726Z</time></trkpt><trkpt lat="43.028625" lon="10.8764983"><ele>162.0</ele><time>2026-04-25T14:17:22.726Z</time></trkpt><trkpt lat="43.0287867" lon="10.87675"><ele>162.0</ele><time>2026-04-25T14:17:23.725Z</time></trkpt><trkpt lat="43.0289467" lon="10.877005"><ele>162.0</ele><time>2026-04-25T14:17:24.725Z</time></trkpt><trkpt lat="43.029105" lon="10.87726"><ele>162.0</ele><time>2026-04-25T14:17:25.723Z</time></trkpt><trkpt lat="43.0292633" lon="10.8775217"><ele>163.0</ele><time>2026-04-25T14:17:26.725Z</time></trkpt><trkpt lat="43.0294183" lon="10.877775"><ele>164.0</ele><time>2026-04-25T14:17:27.724Z</time></trkpt><trkpt lat="43.0295717" lon="10.8780283"><ele>164.0</ele><time>2026-04-25T14:17:28.724Z</time></trkpt><trkpt lat="43.0297267" lon="10.8782817"><ele>164.0</ele><time>2026-04-25T14:17:29.724Z</time></trkpt><trkpt lat="43.029885" lon="10.878535"><ele>165.0</ele><time>2026-04-25T14:17:30.723Z</time></trkpt><trkpt lat="43.0300417" lon="10.8787867"><ele>166.0</ele><time>2026-04-25T14:17:31.724Z</time></trkpt><trkpt lat="43.030195" lon="10.87904"><ele>167.0</ele><time>2026-04-25T14:17:32.724Z</time></trkpt><trkpt lat="43.0303483" lon="10.8792867"><ele>168.0</ele><time>2026-04-25T14:17:33.723Z</time></trkpt><trkpt lat="43.0305017" lon="10.8795333"><ele>168.0</ele><time>2026-04-25T14:17:34.724Z</time></trkpt><trkpt lat="43.030655" lon="10.8797833"><ele>168.0</ele><time>2026-04-25T14:17:35.723Z</time></trkpt><trkpt lat="43.0308117" lon="10.8800317"><ele>168.0</ele><time>2026-04-25T14:17:36.724Z</time></trkpt><trkpt lat="43.0309667" lon="10.8802833"><ele>168.0</ele><time>2026-04-25T14:17:37.723Z</time></trkpt><trkpt lat="43.0311217" lon="10.8805283"><ele>168.0</ele><time>2026-04-25T14:17:38.726Z</time></trkpt><trkpt lat="43.0312733" lon="10.8807717"><ele>168.0</ele><time>2026-04-25T14:17:39.725Z</time></trkpt><trkpt lat="43.0314233" lon="10.8810133"><ele>169.0</ele><time>2026-04-25T14:17:40.722Z</time></trkpt><trkpt lat="43.03157" lon="10.8812517"><ele>170.0</ele><time>2026-04-25T14:17:41.725Z</time></trkpt><trkpt lat="43.0317183" lon="10.8814883"><ele>170.0</ele><time>2026-04-25T14:17:42.725Z</time></trkpt><trkpt lat="43.0318683" lon="10.881725"><ele>170.0</ele><time>2026-04-25T14:17:43.724Z</time></trkpt><trkpt lat="43.0320167" lon="10.8819633"><ele>171.0</ele><time>2026-04-25T14:17:44.724Z</time></trkpt><trkpt lat="43.032165" lon="10.882205"><ele>172.0</ele><time>2026-04-25T14:17:45.723Z</time></trkpt><trkpt lat="43.0323117" lon="10.8824433"><ele>172.66666666666669</ele><time>2026-04-25T14:17:46.726Z</time></trkpt><trkpt lat="43.0324583" lon="10.882675"><ele>173.33333333333334</ele><time>2026-04-25T14:17:47.724Z</time></trkpt><trkpt lat="43.0326017" lon="10.8829083"><ele>174.0</ele><time>2026-04-25T14:17:48.724Z</time></trkpt><trkpt lat="43.0327417" lon="10.8831383"><ele>174.0</ele><time>2026-04-25T14:17:49.726Z</time></trkpt><trkpt lat="43.0328817" lon="10.883365"><ele>174.0</ele><time>2026-04-25T14:17:50.727Z</time></trkpt><trkpt lat="43.0330217" lon="10.883585"><ele>174.0</ele><time>2026-04-25T14:17:51.726Z</time></trkpt><trkpt lat="43.0331567" lon="10.8837983"><ele>175.0</ele><time>2026-04-25T14:17:52.724Z</time></trkpt><trkpt lat="43.0332833" lon="10.8839967"><ele>176.0</ele><time>2026-04-25T14:17:53.725Z</time></trkpt><trkpt lat="43.0334017" lon="10.88418"><ele>177.0</ele><time>2026-04-25T14:17:54.725Z</time></trkpt><trkpt lat="43.033515" lon="10.88435"><ele>177.33333333333334</ele><time>2026-04-25T14:17:55.724Z</time></trkpt><trkpt lat="43.0336317" lon="10.8845133"><ele>177.66666666666669</ele><time>2026-04-25T14:17:56.726Z</time></trkpt><trkpt lat="43.0337567" lon="10.88468"><ele>178.0</ele><time>2026-04-25T14:17:57.723Z</time></trkpt><trkpt lat="43.0338817" lon="10.8848533"><ele>178.0</ele><time>2026-04-25T14:17:58.723Z</time></trkpt><trkpt lat="43.0340033" lon="10.885025"><ele>178.0</ele><time>2026-04-25T14:17:59.725Z</time></trkpt><trkpt lat="43.0341183" lon="10.88518"><ele>178.0</ele><time>2026-04-25T14:18:00.724Z</time></trkpt><trkpt lat="43.0342183" lon="10.88533"><ele>179.0</ele><time>2026-04-25T14:18:01.725Z</time></trkpt><trkpt lat="43.0342983" lon="10.885465"><ele>180.0</ele><time>2026-04-25T14:18:02.725Z</time></trkpt><trkpt lat="43.0343533" lon="10.8856033"><ele>181.0</ele><time>2026-04-25T14:18:03.722Z</time></trkpt><trkpt lat="43.0343917" lon="10.8857383"><ele>182.0</ele><time>2026-04-25T14:18:04.725Z</time></trkpt><trkpt lat="43.0344433" lon="10.88585"><ele>183.0</ele><time>2026-04-25T14:18:05.724Z</time></trkpt><trkpt lat="43.0345117" lon="10.885915"><ele>183.0</ele><time>2026-04-25T14:18:06.724Z</time></trkpt><trkpt lat="43.0345833" lon="10.8859517"><ele>183.0</ele><time>2026-04-25T14:18:07.724Z</time></trkpt><trkpt lat="43.03468" lon="10.885905"><ele>183.0</ele><time>2026-04-25T14:18:08.725Z</time></trkpt><trkpt lat="43.0347983" lon="10.8858433"><ele>183.0</ele><time>2026-04-25T14:18:09.722Z</time></trkpt><trkpt lat="43.0349317" lon="10.8858033"><ele>183.0</ele><time>2026-04-25T14:18:10.723Z</time></trkpt><trkpt lat="43.0350867" lon="10.8857967"><ele>183.0</ele><time>2026-04-25T14:18:11.724Z</time></trkpt><trkpt lat="43.0352567" lon="10.885815"><ele>183.0</ele><time>2026-04-25T14:18:12.724Z</time></trkpt><trkpt lat="43.0354333" lon="10.885845"><ele>183.0</ele><time>2026-04-25T14:18:13.724Z</time></trkpt><trkpt lat="43.0356133" lon="10.8858783"><ele>183.0</ele><time>2026-04-25T14:18:14.724Z</time></trkpt><trkpt lat="43.0358" lon="10.8859083"><ele>183.0</ele><time>2026-04-25T14:18:15.723Z</time></trkpt><trkpt lat="43.0359917" lon="10.8859333"><ele>183.0</ele><time>2026-04-25T14:18:16.723Z</time></trkpt><trkpt lat="43.0361917" lon="10.88594"><ele>183.66666666666666</ele><time>2026-04-25T14:18:17.723Z</time></trkpt><trkpt lat="43.03639" lon="10.8859383"><ele>184.33333333333331</ele><time>2026-04-25T14:18:18.722Z</time></trkpt><trkpt lat="43.03659" lon="10.8859233"><ele>185.0</ele><time>2026-04-25T14:18:19.722Z</time></trkpt><trkpt lat="43.0367917" lon="10.8859017"><ele>183.66666666666666</ele><time>2026-04-25T14:18:20.725Z</time></trkpt><trkpt lat="43.036995" lon="10.8858683"><ele>182.33333333333334</ele><time>2026-04-25T14:18:21.725Z</time></trkpt><trkpt lat="43.0372033" lon="10.8858183"><ele>181.0</ele><time>2026-04-25T14:18:22.724Z</time></trkpt><trkpt lat="43.0374083" lon="10.88575"><ele>183.66666666666669</ele><time>2026-04-25T14:18:23.726Z</time></trkpt><trkpt lat="43.0376167" lon="10.8856717"><ele>186.33333333333334</ele><time>2026-04-25T14:18:24.724Z</time></trkpt><trkpt lat="43.037825" lon="10.8855767"><ele>189.0</ele><time>2026-04-25T14:18:25.726Z</time></trkpt><trkpt lat="43.0380317" lon="10.8854683"><ele>189.0</ele><time>2026-04-25T14:18:26.724Z</time></trkpt><trkpt lat="43.03823" lon="10.885345"><ele>189.0</ele><time>2026-04-25T14:18:27.724Z</time></trkpt><trkpt lat="43.03842" lon="10.8852083"><ele>189.0</ele><time>2026-04-25T14:18:28.723Z</time></trkpt><trkpt lat="43.038605" lon="10.8850567"><ele>187.33333333333334</ele><time>2026-04-25T14:18:29.724Z</time></trkpt><trkpt lat="43.03879" lon="10.8848933"><ele>185.66666666666669</ele><time>2026-04-25T14:18:30.724Z</time></trkpt><trkpt lat="43.03897" lon="10.884715"><ele>184.0</ele><time>2026-04-25T14:18:31.725Z</time></trkpt><trkpt lat="43.03915" lon="10.8845217"><ele>183.0</ele><time>2026-04-25T14:18:32.726Z</time></trkpt><trkpt lat="43.039325" lon="10.884315"><ele>182.0</ele><time>2026-04-25T14:18:33.725Z</time></trkpt><trkpt lat="43.0394917" lon="10.8840933"><ele>182.0</ele><time>2026-04-25T14:18:34.725Z</time></trkpt><trkpt lat="43.03966" lon="10.88386"><ele>182.0</ele><time>2026-04-25T14:18:35.726Z</time></trkpt><trkpt lat="43.039825" lon="10.88362"><ele>185.5</ele><time>2026-04-25T14:18:36.726Z</time></trkpt><trkpt lat="43.03999" lon="10.883375"><ele>189.0</ele><time>2026-04-25T14:18:37.726Z</time></trkpt><trkpt lat="43.0401617" lon="10.8831283"><ele>189.0</ele><time>2026-04-25T14:18:38.724Z</time></trkpt><trkpt lat="43.0403317" lon="10.8828833"><ele>189.0</ele><time>2026-04-25T14:18:39.723Z</time></trkpt><trkpt lat="43.0405" lon="10.882635"><ele>192.5</ele><time>2026-04-25T14:18:40.724Z</time></trkpt><trkpt lat="43.04067" lon="10.8823917"><ele>196.0</ele><time>2026-04-25T14:18:41.726Z</time></trkpt><trkpt lat="43.0408383" lon="10.8821483"><ele>196.0</ele><time>2026-04-25T14:18:42.724Z</time></trkpt><trkpt lat="43.0410083" lon="10.8819067"><ele>196.0</ele><time>2026-04-25T14:18:43.725Z</time></trkpt><trkpt lat="43.041175" lon="10.8816667"><ele>188.0</ele><time>2026-04-25T14:18:44.724Z</time></trkpt><trkpt lat="43.04134" lon="10.881425"><ele>180.0</ele><time>2026-04-25T14:18:45.723Z</time></trkpt><trkpt lat="43.0415067" lon="10.8811867"><ele>184.0</ele><time>2026-04-25T14:18:46.724Z</time></trkpt><trkpt lat="43.0416733" lon="10.880945"><ele>188.0</ele><time>2026-04-25T14:18:47.725Z</time></trkpt><trkpt lat="43.04184" lon="10.8807067"><ele>188.0</ele><time>2026-04-25T14:18:48.722Z</time></trkpt><trkpt lat="43.0420017" lon="10.8804667"><ele>188.0</ele><time>2026-04-25T14:18:49.724Z</time></trkpt><trkpt lat="43.04216" lon="10.88023"><ele>190.0</ele><time>2026-04-25T14:18:50.726Z</time></trkpt><trkpt lat="43.04232" lon="10.8799967"><ele>192.0</ele><time>2026-04-25T14:18:51.724Z</time></trkpt><trkpt lat="43.04248" lon="10.879765"><ele>192.0</ele><time>2026-04-25T14:18:52.723Z</time></trkpt><trkpt lat="43.0426417" lon="10.87954"><ele>192.0</ele><time>2026-04-25T14:18:53.721Z</time></trkpt><trkpt lat="43.0428083" lon="10.8793217"><ele>188.5</ele><time>2026-04-25T14:18:54.725Z</time></trkpt><trkpt lat="43.0429767" lon="10.8791167"><ele>185.0</ele><time>2026-04-25T14:18:55.722Z</time></trkpt><trkpt lat="43.0431517" lon="10.8789217"><ele>190.5</ele><time>2026-04-25T14:18:56.725Z</time></trkpt><trkpt lat="43.0433367" lon="10.8787383"><ele>196.0</ele><time>2026-04-25T14:18:57.726Z</time></trkpt><trkpt lat="43.0435233" lon="10.8785683"><ele>191.0</ele><time>2026-04-25T14:18:58.726Z</time></trkpt><trkpt lat="43.04372" lon="10.87841"><ele>186.0</ele><time>2026-04-25T14:18:59.724Z</time></trkpt><trkpt lat="43.0439183" lon="10.8782683"><ele>186.0</ele><time>2026-04-25T14:19:00.722Z</time></trkpt><trkpt lat="43.0441267" lon="10.87814"><ele>186.0</ele><time>2026-04-25T14:19:01.723Z</time></trkpt><trkpt lat="43.04434" lon="10.878025"><ele>190.5</ele><time>2026-04-25T14:19:02.723Z</time></trkpt><trkpt lat="43.0445617" lon="10.8779267"><ele>195.0</ele><time>2026-04-25T14:19:03.723Z</time></trkpt><trkpt lat="43.0447883" lon="10.8778467"><ele>195.5</ele><time>2026-04-25T14:19:04.722Z</time></trkpt><trkpt lat="43.04502" lon="10.8777717"><ele>196.0</ele><time>2026-04-25T14:19:05.722Z</time></trkpt><trkpt lat="43.0452517" lon="10.8776967"><ele>196.0</ele><time>2026-04-25T14:19:06.725Z</time></trkpt><trkpt lat="43.0454833" lon="10.8776217"><ele>196.0</ele><time>2026-04-25T14:19:07.723Z</time></trkpt><trkpt lat="43.0457183" lon="10.8775467"><ele>191.0</ele><time>2026-04-25T14:19:08.723Z</time></trkpt><trkpt lat="43.0459483" lon="10.8774633"><ele>186.0</ele><time>2026-04-25T14:19:09.722Z</time></trkpt><trkpt lat="43.04618" lon="10.8773767"><ele>186.0</ele><time>2026-04-25T14:19:10.723Z</time></trkpt><trkpt lat="43.04641" lon="10.8772983"><ele>186.0</ele><time>2026-04-25T14:19:11.721Z</time></trkpt><trkpt lat="43.0466383" lon="10.877225"><ele>185.66666666666666</ele><time>2026-04-25T14:19:12.724Z</time></trkpt><trkpt lat="43.0468633" lon="10.8771617"><ele>185.33333333333331</ele><time>2026-04-25T14:19:13.723Z</time></trkpt><trkpt lat="43.0470733" lon="10.8771117"><ele>185.0</ele><time>2026-04-25T14:19:14.724Z</time></trkpt><trkpt lat="43.0472733" lon="10.8770667"><ele>185.33333333333331</ele><time>2026-04-25T14:19:15.724Z</time></trkpt><trkpt lat="43.0474733" lon="10.8770383"><ele>185.66666666666666</ele><time>2026-04-25T14:19:16.724Z</time></trkpt><trkpt lat="43.0476683" lon="10.8770217"><ele>186.0</ele><time>2026-04-25T14:19:17.723Z</time></trkpt><trkpt lat="43.04786" lon="10.8770167"><ele>186.0</ele><time>2026-04-25T14:19:18.723Z</time></trkpt><trkpt lat="43.0480517" lon="10.8770167"><ele>186.0</ele><time>2026-04-25T14:19:19.723Z</time></trkpt><trkpt lat="43.0482433" lon="10.8770317"><ele>186.0</ele><time>2026-04-25T14:19:20.724Z</time></trkpt><trkpt lat="43.0484383" lon="10.87705"><ele>188.33333333333331</ele><time>2026-04-25T14:19:21.724Z</time></trkpt><trkpt lat="43.048635" lon="10.8770783"><ele>190.66666666666666</ele><time>2026-04-25T14:19:22.724Z</time></trkpt><trkpt lat="43.0488417" lon="10.8771283"><ele>193.0</ele><time>2026-04-25T14:19:23.723Z</time></trkpt><trkpt lat="43.049055" lon="10.8771967"><ele>196.5</ele><time>2026-04-25T14:19:24.724Z</time></trkpt><trkpt lat="43.0492683" lon="10.8772833"><ele>200.0</ele><time>2026-04-25T14:19:25.723Z</time></trkpt><trkpt lat="43.0494817" lon="10.87739"><ele>200.0</ele><time>2026-04-25T14:19:26.725Z</time></trkpt><trkpt lat="43.04969" lon="10.8775183"><ele>200.0</ele><time>2026-04-25T14:19:27.723Z</time></trkpt><trkpt lat="43.0498933" lon="10.8776633"><ele>202.5</ele><time>2026-04-25T14:19:28.722Z</time></trkpt><trkpt lat="43.0500967" lon="10.8778217"><ele>205.0</ele><time>2026-04-25T14:19:29.722Z</time></trkpt><trkpt lat="43.050295" lon="10.8779917"><ele>205.0</ele><time>2026-04-25T14:19:30.724Z</time></trkpt><trkpt lat="43.0504867" lon="10.87817"><ele>205.0</ele><time>2026-04-25T14:19:31.724Z</time></trkpt><trkpt lat="43.050675" lon="10.8783633"><ele>204.0</ele><time>2026-04-25T14:19:32.725Z</time></trkpt><trkpt lat="43.0508567" lon="10.8785733"><ele>203.0</ele><time>2026-04-25T14:19:33.724Z</time></trkpt><trkpt lat="43.0510383" lon="10.878785"><ele>203.0</ele><time>2026-04-25T14:19:34.726Z</time></trkpt><trkpt lat="43.0512183" lon="10.8789917"><ele>203.0</ele><time>2026-04-25T14:19:35.723Z</time></trkpt><trkpt lat="43.0513983" lon="10.8792017"><ele>208.0</ele><time>2026-04-25T14:19:36.723Z</time></trkpt><trkpt lat="43.0515783" lon="10.879405"><ele>213.0</ele><time>2026-04-25T14:19:37.723Z</time></trkpt><trkpt lat="43.0517583" lon="10.87961"><ele>213.0</ele><time>2026-04-25T14:19:38.725Z</time></trkpt><trkpt lat="43.0519383" lon="10.879815"><ele>213.0</ele><time>2026-04-25T14:19:39.725Z</time></trkpt><trkpt lat="43.05212" lon="10.880015"><ele>216.0</ele><time>2026-04-25T14:19:40.725Z</time></trkpt><trkpt lat="43.0523" lon="10.8802167"><ele>219.0</ele><time>2026-04-25T14:19:41.723Z</time></trkpt><trkpt lat="43.052485" lon="10.880415"><ele>219.0</ele><time>2026-04-25T14:19:42.726Z</time></trkpt><trkpt lat="43.0526717" lon="10.880605"><ele>219.0</ele><time>2026-04-25T14:19:43.725Z</time></trkpt><trkpt lat="43.0528667" lon="10.8807833"><ele>228.0</ele><time>2026-04-25T14:19:44.726Z</time></trkpt><trkpt lat="43.0530667" lon="10.88095"><ele>237.0</ele><time>2026-04-25T14:19:45.724Z</time></trkpt><trkpt lat="43.053275" lon="10.881105"><ele>227.5</ele><time>2026-04-25T14:19:46.723Z</time></trkpt><trkpt lat="43.05349" lon="10.8812367"><ele>218.0</ele><time>2026-04-25T14:19:47.721Z</time></trkpt><trkpt lat="43.0537083" lon="10.8813583"><ele>218.0</ele><time>2026-04-25T14:19:48.723Z</time></trkpt><trkpt lat="43.05393" lon="10.881465"><ele>218.0</ele><time>2026-04-25T14:19:49.725Z</time></trkpt><trkpt lat="43.0541567" lon="10.8815617"><ele>218.0</ele><time>2026-04-25T14:19:50.723Z</time></trkpt><trkpt lat="43.0543817" lon="10.88165"><ele>218.0</ele><time>2026-04-25T14:19:51.722Z</time></trkpt><trkpt lat="43.0546083" lon="10.8817417"><ele>223.5</ele><time>2026-04-25T14:19:52.723Z</time></trkpt><trkpt lat="43.054835" lon="10.8818317"><ele>229.0</ele><time>2026-04-25T14:19:53.722Z</time></trkpt><trkpt lat="43.0550583" lon="10.8819267"><ele>230.0</ele><time>2026-04-25T14:19:54.725Z</time></trkpt><trkpt lat="43.05528" lon="10.882025"><ele>231.0</ele><time>2026-04-25T14:19:55.723Z</time></trkpt><trkpt lat="43.0555033" lon="10.8821433"><ele>231.0</ele><time>2026-04-25T14:19:56.724Z</time></trkpt><trkpt lat="43.05572" lon="10.8822683"><ele>231.0</ele><time>2026-04-25T14:19:57.723Z</time></trkpt><trkpt lat="43.055935" lon="10.8824083"><ele>230.0</ele><time>2026-04-25T14:19:58.724Z</time></trkpt><trkpt lat="43.0561417" lon="10.8825683"><ele>229.0</ele><time>2026-04-25T14:19:59.724Z</time></trkpt><trkpt lat="43.05634" lon="10.8827433"><ele>229.0</ele><time>2026-04-25T14:20:00.724Z</time></trkpt><trkpt lat="43.0565317" lon="10.8829383"><ele>229.0</ele><time>2026-04-25T14:20:01.722Z</time></trkpt><trkpt lat="43.0567183" lon="10.88315"><ele>229.0</ele><time>2026-04-25T14:20:02.724Z</time></trkpt><trkpt lat="43.0569" lon="10.883375"><ele>229.0</ele><time>2026-04-25T14:20:03.724Z</time></trkpt><trkpt lat="43.0570767" lon="10.8836067"><ele>233.5</ele><time>2026-04-25T14:20:04.725Z</time></trkpt><trkpt lat="43.0572483" lon="10.8838567"><ele>238.0</ele><time>2026-04-25T14:20:05.723Z</time></trkpt><trkpt lat="43.0574" lon="10.8841233"><ele>236.0</ele><time>2026-04-25T14:20:06.725Z</time></trkpt><trkpt lat="43.0575383" lon="10.8844033"><ele>234.0</ele><time>2026-04-25T14:20:07.724Z</time></trkpt><trkpt lat="43.0576683" lon="10.8846883"><ele>234.0</ele><time>2026-04-25T14:20:08.724Z</time></trkpt><trkpt lat="43.057785" lon="10.8849833"><ele>234.0</ele><time>2026-04-25T14:20:09.723Z</time></trkpt><trkpt lat="43.0578933" lon="10.8852917"><ele>234.0</ele><time>2026-04-25T14:20:10.724Z</time></trkpt><trkpt lat="43.0579917" lon="10.88561"><ele>234.0</ele><time>2026-04-25T14:20:11.724Z</time></trkpt><trkpt lat="43.058075" lon="10.8859333"><ele>234.0</ele><time>2026-04-25T14:20:12.725Z</time></trkpt><trkpt lat="43.05815" lon="10.8862667"><ele>234.0</ele><time>2026-04-25T14:20:13.723Z</time></trkpt><trkpt lat="43.0582167" lon="10.8866017"><ele>233.5</ele><time>2026-04-25T14:20:14.723Z</time></trkpt><trkpt lat="43.058285" lon="10.8869333"><ele>233.0</ele><time>2026-04-25T14:20:15.724Z</time></trkpt><trkpt lat="43.0583567" lon="10.8872633"><ele>234.0</ele><time>2026-04-25T14:20:16.724Z</time></trkpt><trkpt lat="43.0584283" lon="10.8876017"><ele>235.0</ele><time>2026-04-25T14:20:17.723Z</time></trkpt><trkpt lat="43.0585017" lon="10.8879417"><ele>235.0</ele><time>2026-04-25T14:20:18.723Z</time></trkpt><trkpt lat="43.058575" lon="10.8882783"><ele>235.0</ele><time>2026-04-25T14:20:19.723Z</time></trkpt><trkpt lat="43.0586433" lon="10.8886233"><ele>237.5</ele><time>2026-04-25T14:20:20.723Z</time></trkpt><trkpt lat="43.058715" lon="10.8889667"><ele>240.0</ele><time>2026-04-25T14:20:21.722Z</time></trkpt><trkpt lat="43.0587817" lon="10.88931"><ele>242.5</ele><time>2026-04-25T14:20:22.725Z</time></trkpt><trkpt lat="43.05885" lon="10.8896567"><ele>245.0</ele><time>2026-04-25T14:20:23.723Z</time></trkpt><trkpt lat="43.05892" lon="10.8899983"><ele>247.5</ele><time>2026-04-25T14:20:24.723Z</time></trkpt><trkpt lat="43.0589867" lon="10.8903367"><ele>250.0</ele><time>2026-04-25T14:20:25.723Z</time></trkpt><trkpt lat="43.0590417" lon="10.8906733"><ele>253.5</ele><time>2026-04-25T14:20:26.723Z</time></trkpt><trkpt lat="43.0590817" lon="10.8910133"><ele>257.0</ele><time>2026-04-25T14:20:27.722Z</time></trkpt><trkpt lat="43.059105" lon="10.8913583"><ele>251.5</ele><time>2026-04-25T14:20:28.723Z</time></trkpt><trkpt lat="43.05912" lon="10.8917033"><ele>246.0</ele><time>2026-04-25T14:20:29.724Z</time></trkpt><trkpt lat="43.0591233" lon="10.89205"><ele>253.5</ele><time>2026-04-25T14:20:30.722Z</time></trkpt><trkpt lat="43.059115" lon="10.8923983"><ele>261.0</ele><time>2026-04-25T14:20:31.723Z</time></trkpt><trkpt lat="43.0590983" lon="10.8927467"><ele>261.5</ele><time>2026-04-25T14:20:32.724Z</time></trkpt><trkpt lat="43.05908" lon="10.8930933"><ele>262.0</ele><time>2026-04-25T14:20:33.722Z</time></trkpt><trkpt lat="43.0590717" lon="10.8934433"><ele>265.0</ele><time>2026-04-25T14:20:34.724Z</time></trkpt><trkpt lat="43.05908" lon="10.8937933"><ele>268.0</ele><time>2026-04-25T14:20:35.724Z</time></trkpt><trkpt lat="43.0591017" lon="10.8941467"><ele>262.5</ele><time>2026-04-25T14:20:36.724Z</time></trkpt><trkpt lat="43.059145" lon="10.894495"><ele>257.0</ele><time>2026-04-25T14:20:37.724Z</time></trkpt><trkpt lat="43.0592" lon="10.8948417"><ele>261.0</ele><time>2026-04-25T14:20:38.722Z</time></trkpt><trkpt lat="43.059265" lon="10.895185"><ele>265.0</ele><time>2026-04-25T14:20:39.724Z</time></trkpt><trkpt lat="43.059335" lon="10.8955283"><ele>265.0</ele><time>2026-04-25T14:20:40.724Z</time></trkpt><trkpt lat="43.0594067" lon="10.8958717"><ele>265.0</ele><time>2026-04-25T14:20:41.724Z</time></trkpt><trkpt lat="43.0594833" lon="10.8962067"><ele>265.5</ele><time>2026-04-25T14:20:42.724Z</time></trkpt><trkpt lat="43.0595583" lon="10.896545"><ele>266.0</ele><time>2026-04-25T14:20:43.724Z</time></trkpt><trkpt lat="43.059635" lon="10.8968767"><ele>269.5</ele><time>2026-04-25T14:20:44.723Z</time></trkpt><trkpt lat="43.0597117" lon="10.897205"><ele>273.0</ele><time>2026-04-25T14:20:45.723Z</time></trkpt><trkpt lat="43.0597867" lon="10.8975333"><ele>275.0</ele><time>2026-04-25T14:20:46.723Z</time></trkpt><trkpt lat="43.0598583" lon="10.897865"><ele>277.0</ele><time>2026-04-25T14:20:47.723Z</time></trkpt><trkpt lat="43.05993" lon="10.8981983"><ele>272.0</ele><time>2026-04-25T14:20:48.725Z</time></trkpt><trkpt lat="43.0599983" lon="10.8985267"><ele>267.0</ele><time>2026-04-25T14:20:49.724Z</time></trkpt><trkpt lat="43.06007" lon="10.8988517"><ele>267.0</ele><time>2026-04-25T14:20:50.722Z</time></trkpt><trkpt lat="43.0601383" lon="10.8991783"><ele>267.0</ele><time>2026-04-25T14:20:51.721Z</time></trkpt><trkpt lat="43.0602083" lon="10.8994983"><ele>269.0</ele><time>2026-04-25T14:20:52.722Z</time></trkpt><trkpt lat="43.0602783" lon="10.8998133"><ele>271.0</ele><time>2026-04-25T14:20:53.722Z</time></trkpt><trkpt lat="43.0603483" lon="10.9001217"><ele>272.3333333333333</ele><time>2026-04-25T14:20:54.723Z</time></trkpt><trkpt lat="43.0604167" lon="10.9004167"><ele>273.6666666666667</ele><time>2026-04-25T14:20:55.725Z</time></trkpt><trkpt lat="43.0604833" lon="10.9007017"><ele>275.0</ele><time>2026-04-25T14:20:56.724Z</time></trkpt><trkpt lat="43.0605417" lon="10.900985"><ele>276.33333333333337</ele><time>2026-04-25T14:20:57.724Z</time></trkpt><trkpt lat="43.0605967" lon="10.901265"><ele>277.6666666666667</ele><time>2026-04-25T14:20:58.722Z</time></trkpt><trkpt lat="43.0606533" lon="10.90154"><ele>279.0</ele><time>2026-04-25T14:20:59.723Z</time></trkpt><trkpt lat="43.06071" lon="10.9018117"><ele>279.3333333333333</ele><time>2026-04-25T14:21:00.724Z</time></trkpt><trkpt lat="43.0607667" lon="10.9020833"><ele>279.66666666666663</ele><time>2026-04-25T14:21:01.723Z</time></trkpt><trkpt lat="43.0608283" lon="10.9023583"><ele>280.0</ele><time>2026-04-25T14:21:02.724Z</time></trkpt><trkpt lat="43.0608933" lon="10.9026283"><ele>281.3333333333333</ele><time>2026-04-25T14:21:03.723Z</time></trkpt><trkpt lat="43.0609683" lon="10.90289"><ele>282.6666666666667</ele><time>2026-04-25T14:21:04.722Z</time></trkpt><trkpt lat="43.06106" lon="10.9031467"><ele>284.0</ele><time>2026-04-25T14:21:05.723Z</time></trkpt><trkpt lat="43.0611667" lon="10.9034033"><ele>286.0</ele><time>2026-04-25T14:21:06.724Z</time></trkpt><trkpt lat="43.061295" lon="10.903665"><ele>288.0</ele><time>2026-04-25T14:21:07.725Z</time></trkpt><trkpt lat="43.06144" lon="10.90394"><ele>288.0</ele><time>2026-04-25T14:21:08.724Z</time></trkpt><trkpt lat="43.0616033" lon="10.9042233"><ele>288.0</ele><time>2026-04-25T14:21:09.722Z</time></trkpt><trkpt lat="43.0617833" lon="10.9045033"><ele>289.5</ele><time>2026-04-25T14:21:10.725Z</time></trkpt><trkpt lat="43.0619783" lon="10.904775"><ele>291.0</ele><time>2026-04-25T14:21:11.723Z</time></trkpt><trkpt lat="43.0621817" lon="10.9050367"><ele>291.0</ele><time>2026-04-25T14:21:12.724Z</time></trkpt><trkpt lat="43.062385" lon="10.9052933"><ele>291.0</ele><time>2026-04-25T14:21:13.724Z</time></trkpt><trkpt lat="43.0625833" lon="10.9055467"><ele>291.0</ele><time>2026-04-25T14:21:14.724Z</time></trkpt><trkpt lat="43.0627767" lon="10.9058017"><ele>291.0</ele><time>2026-04-25T14:21:15.724Z</time></trkpt><trkpt lat="43.0629667" lon="10.9060467"><ele>290.5</ele><time>2026-04-25T14:21:16.723Z</time></trkpt><trkpt lat="43.0631517" lon="10.906285"><ele>290.0</ele><time>2026-04-25T14:21:17.724Z</time></trkpt><trkpt lat="43.063335" lon="10.9065267"><ele>289.5</ele><time>2026-04-25T14:21:18.723Z</time></trkpt><trkpt lat="43.0635133" lon="10.9067633"><ele>289.0</ele><time>2026-04-25T14:21:19.725Z</time></trkpt><trkpt lat="43.06369" lon="10.907"><ele>289.0</ele><time>2026-04-25T14:21:20.724Z</time></trkpt><trkpt lat="43.0638617" lon="10.90724"><ele>289.0</ele><time>2026-04-25T14:21:21.724Z</time></trkpt><trkpt lat="43.0640217" lon="10.907485"><ele>290.5</ele><time>2026-04-25T14:21:22.724Z</time></trkpt><trkpt lat="43.06417" lon="10.9077383"><ele>292.0</ele><time>2026-04-25T14:21:23.724Z</time></trkpt><trkpt lat="43.0643083" lon="10.9080067"><ele>292.0</ele><time>2026-04-25T14:21:24.725Z</time></trkpt><trkpt lat="43.0644433" lon="10.9082783"><ele>292.0</ele><time>2026-04-25T14:21:25.725Z</time></trkpt><trkpt lat="43.0645767" lon="10.9085483"><ele>294.0</ele><time>2026-04-25T14:21:26.725Z</time></trkpt><trkpt lat="43.06471" lon="10.9088233"><ele>296.0</ele><time>2026-04-25T14:21:27.722Z</time></trkpt><trkpt lat="43.06485" lon="10.9090983"><ele>299.5</ele><time>2026-04-25T14:21:28.723Z</time></trkpt><trkpt lat="43.06499" lon="10.9093717"><ele>303.0</ele><time>2026-04-25T14:21:29.724Z</time></trkpt><trkpt lat="43.0651333" lon="10.9096433"><ele>303.0</ele><time>2026-04-25T14:21:30.725Z</time></trkpt><trkpt lat="43.0652817" lon="10.9099117"><ele>303.0</ele><time>2026-04-25T14:21:31.723Z</time></trkpt><trkpt lat="43.0654383" lon="10.9101717"><ele>303.0</ele><time>2026-04-25T14:21:32.723Z</time></trkpt><trkpt lat="43.0656067" lon="10.910415"><ele>303.0</ele><time>2026-04-25T14:21:33.725Z</time></trkpt><trkpt lat="43.0657883" lon="10.9106433"><ele>304.5</ele><time>2026-04-25T14:21:34.725Z</time></trkpt><trkpt lat="43.0659783" lon="10.9108533"><ele>306.0</ele><time>2026-04-25T14:21:35.724Z</time></trkpt><trkpt lat="43.0661733" lon="10.911045"><ele>306.0</ele><time>2026-04-25T14:21:36.724Z</time></trkpt><trkpt lat="43.0663733" lon="10.9112217"><ele>306.0</ele><time>2026-04-25T14:21:37.723Z</time></trkpt><trkpt lat="43.066575" lon="10.9113933"><ele>307.5</ele><time>2026-04-25T14:21:38.723Z</time></trkpt><trkpt lat="43.0667783" lon="10.9115683"><ele>309.0</ele><time>2026-04-25T14:21:39.723Z</time></trkpt><trkpt lat="43.0669817" lon="10.9117367"><ele>309.5</ele><time>2026-04-25T14:21:40.724Z</time></trkpt><trkpt lat="43.06719" lon="10.9119"><ele>310.0</ele><time>2026-04-25T14:21:41.721Z</time></trkpt><trkpt lat="43.067395" lon="10.9120667"><ele>311.5</ele><time>2026-04-25T14:21:42.724Z</time></trkpt><trkpt lat="43.0676017" lon="10.9122417"><ele>313.0</ele><time>2026-04-25T14:21:43.724Z</time></trkpt><trkpt lat="43.067805" lon="10.9124117"><ele>313.5</ele><time>2026-04-25T14:21:44.725Z</time></trkpt><trkpt lat="43.0680117" lon="10.912575"><ele>314.0</ele><time>2026-04-25T14:21:45.722Z</time></trkpt><trkpt lat="43.0682183" lon="10.9127433"><ele>314.5</ele><time>2026-04-25T14:21:46.724Z</time></trkpt><trkpt lat="43.068425" lon="10.9129133"><ele>315.0</ele><time>2026-04-25T14:21:47.723Z</time></trkpt><trkpt lat="43.0686333" lon="10.9130883"><ele>315.0</ele><time>2026-04-25T14:21:48.724Z</time></trkpt><trkpt lat="43.0688417" lon="10.9132617"><ele>315.0</ele><time>2026-04-25T14:21:49.723Z</time></trkpt><trkpt lat="43.06905" lon="10.9134367"><ele>317.0</ele><time>2026-04-25T14:21:50.725Z</time></trkpt><trkpt lat="43.0692533" lon="10.91362"><ele>319.0</ele><time>2026-04-25T14:21:51.723Z</time></trkpt><trkpt lat="43.0694533" lon="10.9138133"><ele>319.0</ele><time>2026-04-25T14:21:52.723Z</time></trkpt><trkpt lat="43.0696483" lon="10.914015"><ele>319.0</ele><time>2026-04-25T14:21:53.724Z</time></trkpt><trkpt lat="43.0698417" lon="10.9142233"><ele>321.0</ele><time>2026-04-25T14:21:54.725Z</time></trkpt><trkpt lat="43.0700233" lon="10.9144483"><ele>323.0</ele><time>2026-04-25T14:21:55.723Z</time></trkpt><trkpt lat="43.07018" lon="10.9146967"><ele>323.0</ele><time>2026-04-25T14:21:56.725Z</time></trkpt><trkpt lat="43.0703083" lon="10.9149667"><ele>323.0</ele><time>2026-04-25T14:21:57.724Z</time></trkpt><trkpt lat="43.0704033" lon="10.9152517"><ele>323.5</ele><time>2026-04-25T14:21:58.724Z</time></trkpt><trkpt lat="43.0704717" lon="10.9155467"><ele>324.0</ele><time>2026-04-25T14:21:59.725Z</time></trkpt><trkpt lat="43.0705117" lon="10.9158483"><ele>325.3333333333333</ele><time>2026-04-25T14:22:00.724Z</time></trkpt><trkpt lat="43.0705283" lon="10.916155"><ele>326.66666666666663</ele><time>2026-04-25T14:22:01.722Z</time></trkpt><trkpt lat="43.0705133" lon="10.9164617"><ele>328.0</ele><time>2026-04-25T14:22:02.726Z</time></trkpt><trkpt lat="43.0704783" lon="10.916765"><ele>329.66666666666663</ele><time>2026-04-25T14:22:03.722Z</time></trkpt><trkpt lat="43.0704317" lon="10.9170617"><ele>331.3333333333333</ele><time>2026-04-25T14:22:04.725Z</time></trkpt><trkpt lat="43.0703883" lon="10.9173533"><ele>333.0</ele><time>2026-04-25T14:22:05.726Z</time></trkpt><trkpt lat="43.0703533" lon="10.9176333"><ele>335.3333333333333</ele><time>2026-04-25T14:22:06.725Z</time></trkpt><trkpt lat="43.0703267" lon="10.917895"><ele>337.66666666666663</ele><time>2026-04-25T14:22:07.726Z</time></trkpt><trkpt lat="43.0703233" lon="10.9181483"><ele>340.0</ele><time>2026-04-25T14:22:08.725Z</time></trkpt><trkpt lat="43.0703417" lon="10.918395"><ele>342.66666666666663</ele><time>2026-04-25T14:22:09.726Z</time></trkpt><trkpt lat="43.070385" lon="10.9186367"><ele>345.3333333333333</ele><time>2026-04-25T14:22:10.725Z</time></trkpt><trkpt lat="43.070455" lon="10.9188633"><ele>348.0</ele><time>2026-04-25T14:22:11.724Z</time></trkpt><trkpt lat="43.0705467" lon="10.9190783"><ele>350.3333333333333</ele><time>2026-04-25T14:22:12.723Z</time></trkpt><trkpt lat="43.070665" lon="10.9192683"><ele>352.66666666666663</ele><time>2026-04-25T14:22:13.723Z</time></trkpt><trkpt lat="43.0708017" lon="10.9194433"><ele>355.0</ele><time>2026-04-25T14:22:14.723Z</time></trkpt><trkpt lat="43.07095" lon="10.9196017"><ele>355.0</ele><time>2026-04-25T14:22:15.726Z</time></trkpt><trkpt lat="43.0711067" lon="10.9197433"><ele>355.0</ele><time>2026-04-25T14:22:16.725Z</time></trkpt><trkpt lat="43.07127" lon="10.9198717"><ele>355.0</ele><time>2026-04-25T14:22:17.725Z</time></trkpt><trkpt lat="43.07144" lon="10.9199817"><ele>354.66666666666663</ele><time>2026-04-25T14:22:18.724Z</time></trkpt><trkpt lat="43.0716117" lon="10.9200817"><ele>354.3333333333333</ele><time>2026-04-25T14:22:19.724Z</time></trkpt><trkpt lat="43.071785" lon="10.92018"><ele>354.0</ele><time>2026-04-25T14:22:20.724Z</time></trkpt><trkpt lat="43.0719617" lon="10.9202733"><ele>354.0</ele><time>2026-04-25T14:22:21.724Z</time></trkpt><trkpt lat="43.0721383" lon="10.920365"><ele>354.0</ele><time>2026-04-25T14:22:22.722Z</time></trkpt><trkpt lat="43.07231" lon="10.920455"><ele>354.0</ele><time>2026-04-25T14:22:23.725Z</time></trkpt><trkpt lat="43.0724733" lon="10.9205317"><ele>354.0</ele><time>2026-04-25T14:22:24.724Z</time></trkpt><trkpt lat="43.0726283" lon="10.9206017"><ele>354.0</ele><time>2026-04-25T14:22:25.725Z</time></trkpt><trkpt lat="43.0727767" lon="10.9206717"><ele>354.0</ele><time>2026-04-25T14:22:26.723Z</time></trkpt><trkpt lat="43.0729233" lon="10.9207367"><ele>354.0</ele><time>2026-04-25T14:22:27.723Z</time></trkpt><trkpt lat="43.0730633" lon="10.9208"><ele>354.0</ele><time>2026-04-25T14:22:28.724Z</time></trkpt><trkpt lat="43.0731967" lon="10.9208583"><ele>354.0</ele><time>2026-04-25T14:22:29.723Z</time></trkpt><trkpt lat="43.0733167" lon="10.92091"><ele>354.0</ele><time>2026-04-25T14:22:30.724Z</time></trkpt><trkpt lat="43.0734233" lon="10.9209617"><ele>353.1666666666667</ele><time>2026-04-25T14:22:31.725Z</time></trkpt><trkpt lat="43.0735133" lon="10.9210133"><ele>352.3333333333333</ele><time>2026-04-25T14:22:32.726Z</time></trkpt><trkpt lat="43.0735917" lon="10.92107"><ele>351.5</ele><time>2026-04-25T14:22:33.724Z</time></trkpt><trkpt lat="43.0736583" lon="10.921135"><ele>350.66666666666663</ele><time>2026-04-25T14:22:34.726Z</time></trkpt><trkpt lat="43.0737083" lon="10.9212167"><ele>349.8333333333333</ele><time>2026-04-25T14:22:35.724Z</time></trkpt><trkpt lat="43.07376" lon="10.92129"><ele>349.0</ele><time>2026-04-25T14:22:36.722Z</time></trkpt><trkpt lat="43.0738217" lon="10.9213483"><ele>348.99999999999994</ele><time>2026-04-25T14:22:37.724Z</time></trkpt><trkpt lat="43.07389" lon="10.92136"><ele>349.0</ele><time>2026-04-25T14:22:38.723Z</time></trkpt><trkpt lat="43.0739533" lon="10.9213383"><ele>349.0</ele><time>2026-04-25T14:22:39.724Z</time></trkpt><trkpt lat="43.074005" lon="10.9212817"><ele>349.0</ele><time>2026-04-25T14:22:40.725Z</time></trkpt><trkpt lat="43.0740083" lon="10.9211583"><ele>349.0</ele><time>2026-04-25T14:22:41.724Z</time></trkpt><trkpt lat="43.0740033" lon="10.9210633"><ele>348.99999999999994</ele><time>2026-04-25T14:22:42.724Z</time></trkpt><trkpt lat="43.07398" lon="10.92098"><ele>349.0</ele><time>2026-04-25T14:22:43.725Z</time></trkpt><trkpt lat="43.0739517" lon="10.92085"><ele>349.0</ele><time>2026-04-25T14:22:45.724Z</time></trkpt><trkpt lat="43.0738833" lon="10.9208533"><ele>349.0</ele><time>2026-04-25T14:22:49.724Z</time></trkpt><trkpt lat="43.0737983" lon="10.9209483"><ele>349.0</ele><time>2026-04-25T14:22:51.724Z</time></trkpt><trkpt lat="43.0737533" lon="10.9210317"><ele>349.0</ele><time>2026-04-25T14:22:52.725Z</time></trkpt><trkpt lat="43.0737217" lon="10.9211233"><ele>349.0</ele><time>2026-04-25T14:22:53.723Z</time></trkpt><trkpt lat="43.07372" lon="10.92122"><ele>349.0</ele><time>2026-04-25T14:22:54.723Z</time></trkpt><trkpt lat="43.073765" lon="10.9213033"><ele>349.0</ele><time>2026-04-25T14:22:55.725Z</time></trkpt><trkpt lat="43.0738117" lon="10.9213633"><ele>349.0</ele><time>2026-04-25T14:22:56.726Z</time></trkpt><trkpt lat="43.07388" lon="10.921355"><ele>349.0</ele><time>2026-04-25T14:22:57.724Z</time></trkpt><trkpt lat="43.07395" lon="10.92131"><ele>349.0</ele><time>2026-04-25T14:22:58.724Z</time></trkpt><trkpt lat="43.074005" lon="10.9212017"><ele>349.0</ele><time>2026-04-25T14:22:59.725Z</time></trkpt><trkpt lat="43.0740533" lon="10.9210583"><ele>349.0</ele><time>2026-04-25T14:23:00.725Z</time></trkpt><trkpt lat="43.0741167" lon="10.9209083"><ele>349.0</ele><time>2026-04-25T14:23:01.724Z</time></trkpt><trkpt lat="43.0742" lon="10.920755"><ele>349.0</ele><time>2026-04-25T14:23:02.723Z</time></trkpt><trkpt lat="43.0743" lon="10.92061"><ele>349.0</ele><time>2026-04-25T14:23:03.723Z</time></trkpt><trkpt lat="43.0744033" lon="10.9204583"><ele>349.0</ele><time>2026-04-25T14:23:04.724Z</time></trkpt><trkpt lat="43.0745067" lon="10.92029"><ele>349.0</ele><time>2026-04-25T14:23:05.723Z</time></trkpt><trkpt lat="43.0746083" lon="10.9200983"><ele>349.0</ele><time>2026-04-25T14:23:06.725Z</time></trkpt><trkpt lat="43.0747067" lon="10.9199"><ele>349.0</ele><time>2026-04-25T14:23:07.724Z</time></trkpt><trkpt lat="43.0748083" lon="10.919705"><ele>349.3333333333333</ele><time>2026-04-25T14:23:08.728Z</time></trkpt><trkpt lat="43.0749167" lon="10.919515"><ele>349.6666666666667</ele><time>2026-04-25T14:23:09.724Z</time></trkpt><trkpt lat="43.0750383" lon="10.9193333"><ele>350.0</ele><time>2026-04-25T14:23:10.725Z</time></trkpt><trkpt lat="43.075175" lon="10.9191717"><ele>348.6666666666667</ele><time>2026-04-25T14:23:11.725Z</time></trkpt><trkpt lat="43.0753267" lon="10.9190283"><ele>347.3333333333333</ele><time>2026-04-25T14:23:12.723Z</time></trkpt><trkpt lat="43.07549" lon="10.9189017"><ele>346.0</ele><time>2026-04-25T14:23:13.725Z</time></trkpt><trkpt lat="43.0756633" lon="10.9187967"><ele>346.0</ele><time>2026-04-25T14:23:14.724Z</time></trkpt><trkpt lat="43.0758517" lon="10.9187233"><ele>346.0</ele><time>2026-04-25T14:23:15.724Z</time></trkpt><trkpt lat="43.076045" lon="10.9186883"><ele>346.0</ele><time>2026-04-25T14:23:16.725Z</time></trkpt><trkpt lat="43.07624" lon="10.9186833"><ele>346.0</ele><time>2026-04-25T14:23:17.722Z</time></trkpt><trkpt lat="43.0764367" lon="10.918705"><ele>346.0</ele><time>2026-04-25T14:23:18.723Z</time></trkpt><trkpt lat="43.076635" lon="10.9187567"><ele>346.0</ele><time>2026-04-25T14:23:19.724Z</time></trkpt><trkpt lat="43.0768317" lon="10.9188417"><ele>345.66666666666663</ele><time>2026-04-25T14:23:20.725Z</time></trkpt><trkpt lat="43.0770283" lon="10.9189467"><ele>345.3333333333333</ele><time>2026-04-25T14:23:21.726Z</time></trkpt><trkpt lat="43.077225" lon="10.9190633"><ele>345.0</ele><time>2026-04-25T14:23:22.724Z</time></trkpt><trkpt lat="43.0774233" lon="10.919185"><ele>346.3333333333333</ele><time>2026-04-25T14:23:23.723Z</time></trkpt><trkpt lat="43.0776217" lon="10.9193133"><ele>347.66666666666663</ele><time>2026-04-25T14:23:24.724Z</time></trkpt><trkpt lat="43.0778183" lon="10.9194483"><ele>349.0</ele><time>2026-04-25T14:23:25.725Z</time></trkpt><trkpt lat="43.0780167" lon="10.9195867"><ele>349.0</ele><time>2026-04-25T14:23:26.723Z</time></trkpt><trkpt lat="43.0782133" lon="10.919735"><ele>349.0</ele><time>2026-04-25T14:23:27.724Z</time></trkpt><trkpt lat="43.07841" lon="10.9198867"><ele>348.0</ele><time>2026-04-25T14:23:28.724Z</time></trkpt><trkpt lat="43.07861" lon="10.9200333"><ele>347.0</ele><time>2026-04-25T14:23:29.723Z</time></trkpt><trkpt lat="43.078815" lon="10.9201817"><ele>349.0</ele><time>2026-04-25T14:23:30.726Z</time></trkpt><trkpt lat="43.07902" lon="10.9203283"><ele>351.0</ele><time>2026-04-25T14:23:31.726Z</time></trkpt><trkpt lat="43.07922" lon="10.92047"><ele>351.0</ele><time>2026-04-25T14:23:32.725Z</time></trkpt><trkpt lat="43.0794167" lon="10.9206133"><ele>351.0</ele><time>2026-04-25T14:23:33.726Z</time></trkpt><trkpt lat="43.0796133" lon="10.9207567"><ele>351.0</ele><time>2026-04-25T14:23:34.724Z</time></trkpt><trkpt lat="43.0798117" lon="10.9209"><ele>353.5</ele><time>2026-04-25T14:23:35.723Z</time></trkpt><trkpt lat="43.0800117" lon="10.921045"><ele>356.0</ele><time>2026-04-25T14:23:36.724Z</time></trkpt><trkpt lat="43.08021" lon="10.9211933"><ele>356.0</ele><time>2026-04-25T14:23:37.724Z</time></trkpt><trkpt lat="43.0804083" lon="10.9213367"><ele>356.0</ele><time>2026-04-25T14:23:38.725Z</time></trkpt><trkpt lat="43.0806067" lon="10.921485"><ele>357.5</ele><time>2026-04-25T14:23:39.722Z</time></trkpt><trkpt lat="43.080805" lon="10.92163"><ele>359.0</ele><time>2026-04-25T14:23:40.723Z</time></trkpt><trkpt lat="43.081005" lon="10.9217733"><ele>359.0</ele><time>2026-04-25T14:23:41.725Z</time></trkpt><trkpt lat="43.0812033" lon="10.9219183"><ele>359.0</ele><time>2026-04-25T14:23:42.722Z</time></trkpt><trkpt lat="43.0814017" lon="10.922065"><ele>360.0</ele><time>2026-04-25T14:23:43.725Z</time></trkpt><trkpt lat="43.0816" lon="10.922215"><ele>361.0</ele><time>2026-04-25T14:23:44.725Z</time></trkpt><trkpt lat="43.0817983" lon="10.922365"><ele>361.0</ele><time>2026-04-25T14:23:45.725Z</time></trkpt><trkpt lat="43.082" lon="10.9225067"><ele>361.0</ele><time>2026-04-25T14:23:46.724Z</time></trkpt><trkpt lat="43.0822017" lon="10.92265"><ele>362.0</ele><time>2026-04-25T14:23:47.725Z</time></trkpt><trkpt lat="43.0824033" lon="10.9228017"><ele>363.0</ele><time>2026-04-25T14:23:48.725Z</time></trkpt><trkpt lat="43.08261" lon="10.922955"><ele>364.0</ele><time>2026-04-25T14:23:49.724Z</time></trkpt><trkpt lat="43.0828083" lon="10.9231083"><ele>365.0</ele><time>2026-04-25T14:23:50.724Z</time></trkpt><trkpt lat="43.0830117" lon="10.9232517"><ele>365.0</ele><time>2026-04-25T14:23:51.724Z</time></trkpt><trkpt lat="43.0832117" lon="10.9233983"><ele>365.0</ele><time>2026-04-25T14:23:52.724Z</time></trkpt><trkpt lat="43.0834133" lon="10.9235433"><ele>367.0</ele><time>2026-04-25T14:23:53.724Z</time></trkpt><trkpt lat="43.0836133" lon="10.92369"><ele>369.0</ele><time>2026-04-25T14:23:54.724Z</time></trkpt><trkpt lat="43.083815" lon="10.923835"><ele>369.0</ele><time>2026-04-25T14:23:55.725Z</time></trkpt><trkpt lat="43.0840133" lon="10.9239833"><ele>369.0</ele><time>2026-04-25T14:23:56.726Z</time></trkpt><trkpt lat="43.08421" lon="10.9241367"><ele>370.5</ele><time>2026-04-25T14:23:57.725Z</time></trkpt><trkpt lat="43.0844083" lon="10.9242933"><ele>372.0</ele><time>2026-04-25T14:23:58.726Z</time></trkpt><trkpt lat="43.0846017" lon="10.9244517"><ele>372.0</ele><time>2026-04-25T14:23:59.725Z</time></trkpt><trkpt lat="43.0847983" lon="10.9246"><ele>372.0</ele><time>2026-04-25T14:24:00.723Z</time></trkpt><trkpt lat="43.084995" lon="10.9247533"><ele>373.0</ele><time>2026-04-25T14:24:01.725Z</time></trkpt><trkpt lat="43.0851917" lon="10.9248983"><ele>374.0</ele><time>2026-04-25T14:24:02.726Z</time></trkpt><trkpt lat="43.0853867" lon="10.92504"><ele>375.0</ele><time>2026-04-25T14:24:03.724Z</time></trkpt><trkpt lat="43.0855817" lon="10.9251817"><ele>375.3333333333333</ele><time>2026-04-25T14:24:04.725Z</time></trkpt><trkpt lat="43.0857717" lon="10.9253183"><ele>375.66666666666663</ele><time>2026-04-25T14:24:05.725Z</time></trkpt><trkpt lat="43.0859517" lon="10.9254467"><ele>376.0</ele><time>2026-04-25T14:24:06.726Z</time></trkpt><trkpt lat="43.0861217" lon="10.9255683"><ele>376.0</ele><time>2026-04-25T14:24:07.726Z</time></trkpt><trkpt lat="43.0862883" lon="10.9256883"><ele>376.0</ele><time>2026-04-25T14:24:08.725Z</time></trkpt><trkpt lat="43.0864483" lon="10.9258133"><ele>376.0</ele><time>2026-04-25T14:24:09.724Z</time></trkpt><trkpt lat="43.086615" lon="10.92593"><ele>378.3333333333333</ele><time>2026-04-25T14:24:10.727Z</time></trkpt><trkpt lat="43.08679" lon="10.9260317"><ele>380.6666666666667</ele><time>2026-04-25T14:24:11.726Z</time></trkpt><trkpt lat="43.086975" lon="10.92611"><ele>383.0</ele><time>2026-04-25T14:24:12.726Z</time></trkpt><trkpt lat="43.0871683" lon="10.9261667"><ele>383.0</ele><time>2026-04-25T14:24:13.724Z</time></trkpt><trkpt lat="43.08737" lon="10.9262183"><ele>383.0</ele><time>2026-04-25T14:24:14.725Z</time></trkpt><trkpt lat="43.0875717" lon="10.926275"><ele>383.0</ele><time>2026-04-25T14:24:15.725Z</time></trkpt><trkpt lat="43.0877783" lon="10.926335"><ele>383.6666666666667</ele><time>2026-04-25T14:24:16.723Z</time></trkpt><trkpt lat="43.0879883" lon="10.92639"><ele>384.33333333333337</ele><time>2026-04-25T14:24:17.725Z</time></trkpt><trkpt lat="43.0881983" lon="10.9264567"><ele>385.0</ele><time>2026-04-25T14:24:18.725Z</time></trkpt><trkpt lat="43.0884117" lon="10.9265167"><ele>386.0</ele><time>2026-04-25T14:24:19.725Z</time></trkpt><trkpt lat="43.0886217" lon="10.9265783"><ele>387.0</ele><time>2026-04-25T14:24:20.725Z</time></trkpt><trkpt lat="43.0888333" lon="10.9266417"><ele>388.0</ele><time>2026-04-25T14:24:21.723Z</time></trkpt><trkpt lat="43.0890417" lon="10.9267067"><ele>389.0</ele><time>2026-04-25T14:24:22.724Z</time></trkpt><trkpt lat="43.089245" lon="10.9267967"><ele>390.0</ele><time>2026-04-25T14:24:23.725Z</time></trkpt><trkpt lat="43.0894333" lon="10.9269317"><ele>391.0</ele><time>2026-04-25T14:24:24.724Z</time></trkpt><trkpt lat="43.089605" lon="10.9270983"><ele>391.0</ele><time>2026-04-25T14:24:25.723Z</time></trkpt><trkpt lat="43.089765" lon="10.9272833"><ele>391.0</ele><time>2026-04-25T14:24:26.725Z</time></trkpt><trkpt lat="43.089915" lon="10.9274683"><ele>391.0</ele><time>2026-04-25T14:24:27.724Z</time></trkpt><trkpt lat="43.09006" lon="10.927645"><ele>392.0</ele><time>2026-04-25T14:24:28.725Z</time></trkpt><trkpt lat="43.0901933" lon="10.9278067"><ele>393.0</ele><time>2026-04-25T14:24:29.726Z</time></trkpt><trkpt lat="43.0903167" lon="10.9279533"><ele>394.0</ele><time>2026-04-25T14:24:30.726Z</time></trkpt><trkpt lat="43.0904217" lon="10.9280883"><ele>394.0</ele><time>2026-04-25T14:24:31.723Z</time></trkpt><trkpt lat="43.0905117" lon="10.9281967"><ele>394.0</ele><time>2026-04-25T14:24:32.726Z</time></trkpt><trkpt lat="43.0905817" lon="10.9282883"><ele>394.0</ele><time>2026-04-25T14:24:33.725Z</time></trkpt><trkpt lat="43.090645" lon="10.9283633"><ele>394.0</ele><time>2026-04-25T14:24:34.727Z</time></trkpt><trkpt lat="43.0906983" lon="10.9284283"><ele>394.0</ele><time>2026-04-25T14:24:35.724Z</time></trkpt><trkpt lat="43.09076" lon="10.9285133"><ele>394.6666666666667</ele><time>2026-04-25T14:24:37.726Z</time></trkpt><trkpt lat="43.0908183" lon="10.9285717"><ele>395.33333333333337</ele><time>2026-04-25T14:26:16.723Z</time></trkpt><trkpt lat="43.0909117" lon="10.9286367"><ele>396.0</ele><time>2026-04-25T14:26:19.723Z</time></trkpt><trkpt lat="43.0909667" lon="10.9286917"><ele>396.66666666666663</ele><time>2026-04-25T14:26:20.724Z</time></trkpt><trkpt lat="43.0910267" lon="10.92876"><ele>397.3333333333333</ele><time>2026-04-25T14:26:21.724Z</time></trkpt><trkpt lat="43.09109" lon="10.9288283"><ele>398.0</ele><time>2026-04-25T14:26:22.723Z</time></trkpt><trkpt lat="43.0911683" lon="10.9289117"><ele>398.0</ele><time>2026-04-25T14:26:23.725Z</time></trkpt><trkpt lat="43.09127" lon="10.92902"><ele>398.0</ele><time>2026-04-25T14:26:24.723Z</time></trkpt><trkpt lat="43.091385" lon="10.9291333"><ele>398.0</ele><time>2026-04-25T14:26:25.725Z</time></trkpt><trkpt lat="43.091505" lon="10.9292417"><ele>398.0</ele><time>2026-04-25T14:26:26.724Z</time></trkpt><trkpt lat="43.0916333" lon="10.9293367"><ele>398.66666666666663</ele><time>2026-04-25T14:26:27.724Z</time></trkpt><trkpt lat="43.091765" lon="10.92943"><ele>399.33333333333337</ele><time>2026-04-25T14:26:28.725Z</time></trkpt><trkpt lat="43.0919233" lon="10.9295167"><ele>400.0</ele><time>2026-04-25T14:26:29.724Z</time></trkpt><trkpt lat="43.0921" lon="10.9295733"><ele>400.0</ele><time>2026-04-25T14:26:30.725Z</time></trkpt><trkpt lat="43.09228" lon="10.9296133"><ele>400.0</ele><time>2026-04-25T14:26:31.724Z</time></trkpt><trkpt lat="43.0924583" lon="10.9296467"><ele>400.0</ele><time>2026-04-25T14:26:32.723Z</time></trkpt><trkpt lat="43.09265" lon="10.92968"><ele>401.6666666666667</ele><time>2026-04-25T14:26:33.724Z</time></trkpt><trkpt lat="43.0928633" lon="10.92972"><ele>403.33333333333337</ele><time>2026-04-25T14:26:34.722Z</time></trkpt><trkpt lat="43.0930767" lon="10.9297383"><ele>405.0</ele><time>2026-04-25T14:26:35.724Z</time></trkpt><trkpt lat="43.0932933" lon="10.9297517"><ele>406.0</ele><time>2026-04-25T14:26:36.723Z</time></trkpt><trkpt lat="43.093505" lon="10.9297733"><ele>407.0</ele><time>2026-04-25T14:26:37.724Z</time></trkpt><trkpt lat="43.0937167" lon="10.929805"><ele>408.0</ele><time>2026-04-25T14:26:38.724Z</time></trkpt><trkpt lat="43.0939283" lon="10.92984"><ele>409.33333333333337</ele><time>2026-04-25T14:26:39.724Z</time></trkpt><trkpt lat="43.09414" lon="10.9298617"><ele>410.6666666666667</ele><time>2026-04-25T14:26:40.722Z</time></trkpt><trkpt lat="43.0943533" lon="10.9298733"><ele>412.0</ele><time>2026-04-25T14:26:41.723Z</time></trkpt><trkpt lat="43.0945583" lon="10.9298517"><ele>412.0</ele><time>2026-04-25T14:26:42.725Z</time></trkpt><trkpt lat="43.0947667" lon="10.9298133"><ele>412.0</ele><time>2026-04-25T14:26:43.724Z</time></trkpt><trkpt lat="43.09498" lon="10.9297767"><ele>412.0</ele><time>2026-04-25T14:26:44.724Z</time></trkpt><trkpt lat="43.0951983" lon="10.9297683"><ele>412.33333333333337</ele><time>2026-04-25T14:26:45.723Z</time></trkpt><trkpt lat="43.0954167" lon="10.9297817"><ele>412.66666666666663</ele><time>2026-04-25T14:26:46.724Z</time></trkpt><trkpt lat="43.0956317" lon="10.929785"><ele>413.0</ele><time>2026-04-25T14:26:47.723Z</time></trkpt><trkpt lat="43.0958483" lon="10.929755"><ele>413.0</ele><time>2026-04-25T14:26:48.724Z</time></trkpt><trkpt lat="43.09608" lon="10.9297133"><ele>413.0</ele><time>2026-04-25T14:26:49.722Z</time></trkpt><trkpt lat="43.09632" lon="10.92967"><ele>413.0</ele><time>2026-04-25T14:26:50.723Z</time></trkpt><trkpt lat="43.0965567" lon="10.92961"><ele>413.0</ele><time>2026-04-25T14:26:51.723Z</time></trkpt><trkpt lat="43.096795" lon="10.9295483"><ele>413.0</ele><time>2026-04-25T14:26:52.724Z</time></trkpt><trkpt lat="43.097035" lon="10.9294917"><ele>413.0</ele><time>2026-04-25T14:26:53.724Z</time></trkpt><trkpt lat="43.0972783" lon="10.9294367"><ele>415.0</ele><time>2026-04-25T14:26:54.723Z</time></trkpt><trkpt lat="43.0975217" lon="10.9293833"><ele>417.0</ele><time>2026-04-25T14:26:55.723Z</time></trkpt><trkpt lat="43.0977667" lon="10.9293267"><ele>417.0</ele><time>2026-04-25T14:26:56.724Z</time></trkpt><trkpt lat="43.0980117" lon="10.9292683"><ele>417.0</ele><time>2026-04-25T14:26:57.722Z</time></trkpt><trkpt lat="43.0982583" lon="10.929215"><ele>420.5</ele><time>2026-04-25T14:26:58.723Z</time></trkpt><trkpt lat="43.098505" lon="10.9291567"><ele>424.0</ele><time>2026-04-25T14:26:59.724Z</time></trkpt><trkpt lat="43.0987517" lon="10.9291017"><ele>424.0</ele><time>2026-04-25T14:27:00.724Z</time></trkpt><trkpt lat="43.0989967" lon="10.929045"><ele>424.0</ele><time>2026-04-25T14:27:01.724Z</time></trkpt><trkpt lat="43.0992417" lon="10.9289933"><ele>428.0</ele><time>2026-04-25T14:27:02.725Z</time></trkpt><trkpt lat="43.0994867" lon="10.928945"><ele>432.0</ele><time>2026-04-25T14:27:03.724Z</time></trkpt><trkpt lat="43.0997283" lon="10.9288917"><ele>436.66666666666663</ele><time>2026-04-25T14:27:04.723Z</time></trkpt><trkpt lat="43.0999583" lon="10.92884"><ele>441.3333333333333</ele><time>2026-04-25T14:27:05.723Z</time></trkpt><trkpt lat="43.100165" lon="10.9287833"><ele>446.0</ele><time>2026-04-25T14:27:06.723Z</time></trkpt><trkpt lat="43.1003517" lon="10.9287133"><ele>446.0</ele><time>2026-04-25T14:27:07.822Z</time></trkpt><trkpt lat="43.1005267" lon="10.9286167"><ele>446.0</ele><time>2026-04-25T14:27:08.725Z</time></trkpt><trkpt lat="43.1006667" lon="10.9284567"><ele>446.0</ele><time>2026-04-25T14:27:09.722Z</time></trkpt><trkpt lat="43.1008" lon="10.9282633"><ele>449.0</ele><time>2026-04-25T14:27:10.724Z</time></trkpt><trkpt lat="43.100905" lon="10.92804"><ele>452.0</ele><time>2026-04-25T14:27:11.725Z</time></trkpt><trkpt lat="43.10099" lon="10.92781"><ele>455.0</ele><time>2026-04-25T14:27:12.724Z</time></trkpt><trkpt lat="43.10104" lon="10.9275717"><ele>455.3333333333333</ele><time>2026-04-25T14:27:13.725Z</time></trkpt><trkpt lat="43.1010533" lon="10.9272983"><ele>455.66666666666663</ele><time>2026-04-25T14:27:14.725Z</time></trkpt><trkpt lat="43.1010233" lon="10.9270267"><ele>456.0</ele><time>2026-04-25T14:27:15.724Z</time></trkpt><trkpt lat="43.101" lon="10.9267833"><ele>456.33333333333337</ele><time>2026-04-25T14:27:16.724Z</time></trkpt><trkpt lat="43.1010067" lon="10.9265583"><ele>456.6666666666667</ele><time>2026-04-25T14:27:17.724Z</time></trkpt><trkpt lat="43.101045" lon="10.92633"><ele>457.0</ele><time>2026-04-25T14:27:18.723Z</time></trkpt><trkpt lat="43.1011167" lon="10.9260917"><ele>456.33333333333337</ele><time>2026-04-25T14:27:19.722Z</time></trkpt><trkpt lat="43.101215" lon="10.92585"><ele>455.66666666666663</ele><time>2026-04-25T14:27:20.723Z</time></trkpt><trkpt lat="43.1013267" lon="10.92561"><ele>455.0</ele><time>2026-04-25T14:27:21.724Z</time></trkpt><trkpt lat="43.1014333" lon="10.9253817"><ele>455.0</ele><time>2026-04-25T14:27:22.723Z</time></trkpt><trkpt lat="43.1015333" lon="10.9251833"><ele>455.0</ele><time>2026-04-25T14:27:23.725Z</time></trkpt><trkpt lat="43.1016267" lon="10.9250133"><ele>455.0</ele><time>2026-04-25T14:27:24.724Z</time></trkpt><trkpt lat="43.1017267" lon="10.92489"><ele>454.5</ele><time>2026-04-25T14:27:25.724Z</time></trkpt><trkpt lat="43.1018417" lon="10.9248317"><ele>454.0</ele><time>2026-04-25T14:27:26.724Z</time></trkpt><trkpt lat="43.101965" lon="10.9248367"><ele>453.5</ele><time>2026-04-25T14:27:27.724Z</time></trkpt><trkpt lat="43.10209" lon="10.9249017"><ele>453.0</ele><time>2026-04-25T14:27:28.724Z</time></trkpt><trkpt lat="43.1022283" lon="10.924955"><ele>453.0</ele><time>2026-04-25T14:27:29.724Z</time></trkpt><trkpt lat="43.1023917" lon="10.9249583"><ele>453.0</ele><time>2026-04-25T14:27:30.724Z</time></trkpt><trkpt lat="43.1025817" lon="10.9249083"><ele>453.0</ele><time>2026-04-25T14:27:31.723Z</time></trkpt><trkpt lat="43.102805" lon="10.9248283"><ele>452.5</ele><time>2026-04-25T14:27:32.724Z</time></trkpt><trkpt lat="43.1030367" lon="10.9247383"><ele>452.0</ele><time>2026-04-25T14:27:33.724Z</time></trkpt><trkpt lat="43.103265" lon="10.9246533"><ele>451.0</ele><time>2026-04-25T14:27:34.724Z</time></trkpt><trkpt lat="43.1034667" lon="10.9245583"><ele>450.0</ele><time>2026-04-25T14:27:35.722Z</time></trkpt><trkpt lat="43.1036483" lon="10.9244433"><ele>449.0</ele><time>2026-04-25T14:27:36.724Z</time></trkpt><trkpt lat="43.1038" lon="10.92429"><ele>451.66666666666663</ele><time>2026-04-25T14:27:37.724Z</time></trkpt><trkpt lat="43.1039233" lon="10.9240967"><ele>454.33333333333337</ele><time>2026-04-25T14:27:38.723Z</time></trkpt><trkpt lat="43.1040267" lon="10.9238917"><ele>457.0</ele><time>2026-04-25T14:27:39.725Z</time></trkpt><trkpt lat="43.1041267" lon="10.9237183"><ele>457.0</ele><time>2026-04-25T14:27:40.723Z</time></trkpt><trkpt lat="43.1042283" lon="10.9236067"><ele>457.0</ele><time>2026-04-25T14:27:41.722Z</time></trkpt><trkpt lat="43.10434" lon="10.923565"><ele>457.0</ele><time>2026-04-25T14:27:42.723Z</time></trkpt><trkpt lat="43.104465" lon="10.9235917"><ele>457.0</ele><time>2026-04-25T14:27:43.724Z</time></trkpt><trkpt lat="43.1045967" lon="10.9236983"><ele>457.0</ele><time>2026-04-25T14:27:44.723Z</time></trkpt><trkpt lat="43.104745" lon="10.923835"><ele>457.0</ele><time>2026-04-25T14:27:45.725Z</time></trkpt><trkpt lat="43.1048933" lon="10.9239567"><ele>457.0</ele><time>2026-04-25T14:27:46.724Z</time></trkpt><trkpt lat="43.1050033" lon="10.9240483"><ele>457.6</ele><time>2026-04-25T14:27:47.724Z</time></trkpt><trkpt lat="43.1050717" lon="10.9241467"><ele>458.20000000000005</ele><time>2026-04-25T14:27:48.725Z</time></trkpt><trkpt lat="43.1050983" lon="10.92427"><ele>458.8</ele><time>2026-04-25T14:27:49.723Z</time></trkpt><trkpt lat="43.1051083" lon="10.9244017"><ele>459.4</ele><time>2026-04-25T14:27:50.723Z</time></trkpt><trkpt lat="43.1051233" lon="10.9245317"><ele>460.0</ele><time>2026-04-25T14:27:51.723Z</time></trkpt><trkpt lat="43.1051433" lon="10.9246633"><ele>460.0</ele><time>2026-04-25T14:27:52.724Z</time></trkpt><trkpt lat="43.1051917" lon="10.924765"><ele>460.0</ele><time>2026-04-25T14:27:53.725Z</time></trkpt><trkpt lat="43.1052683" lon="10.92484"><ele>460.0</ele><time>2026-04-25T14:27:54.725Z</time></trkpt><trkpt lat="43.1053817" lon="10.9248733"><ele>460.0</ele><time>2026-04-25T14:27:55.724Z</time></trkpt><trkpt lat="43.1055483" lon="10.9248283"><ele>464.0</ele><time>2026-04-25T14:27:56.725Z</time></trkpt><trkpt lat="43.1057817" lon="10.9246833"><ele>468.0</ele><time>2026-04-25T14:27:57.724Z</time></trkpt><trkpt lat="43.1059567" lon="10.9246367"><ele>472.0</ele><time>2026-04-25T14:27:58.724Z</time></trkpt><trkpt lat="43.1061317" lon="10.92464"><ele>472.0</ele><time>2026-04-25T14:27:59.724Z</time></trkpt><trkpt lat="43.10631" lon="10.9246667"><ele>472.0</ele><time>2026-04-25T14:28:00.724Z</time></trkpt><trkpt lat="43.106485" lon="10.92471"><ele>472.0</ele><time>2026-04-25T14:28:01.725Z</time></trkpt><trkpt lat="43.106655" lon="10.92481"><ele>473.6666666666667</ele><time>2026-04-25T14:28:02.725Z</time></trkpt><trkpt lat="43.1068033" lon="10.92494"><ele>475.33333333333337</ele><time>2026-04-25T14:28:03.723Z</time></trkpt><trkpt lat="43.1069317" lon="10.925075"><ele>477.0</ele><time>2026-04-25T14:28:04.724Z</time></trkpt><trkpt lat="43.1070483" lon="10.9252083"><ele>477.0</ele><time>2026-04-25T14:28:05.724Z</time></trkpt><trkpt lat="43.1071567" lon="10.925335"><ele>477.0</ele><time>2026-04-25T14:28:06.723Z</time></trkpt><trkpt lat="43.1072617" lon="10.9254467"><ele>477.0</ele><time>2026-04-25T14:28:07.727Z</time></trkpt><trkpt lat="43.107365" lon="10.9255417"><ele>477.0</ele><time>2026-04-25T14:28:08.726Z</time></trkpt><trkpt lat="43.1074717" lon="10.925605"><ele>479.40000000000003</ele><time>2026-04-25T14:28:09.725Z</time></trkpt><trkpt lat="43.107585" lon="10.925645"><ele>481.80000000000007</ele><time>2026-04-25T14:28:10.723Z</time></trkpt><trkpt lat="43.107695" lon="10.92566"><ele>484.2</ele><time>2026-04-25T14:28:11.725Z</time></trkpt><trkpt lat="43.1078033" lon="10.9256333"><ele>486.6</ele><time>2026-04-25T14:28:12.726Z</time></trkpt><trkpt lat="43.1079033" lon="10.9256"><ele>489.0</ele><time>2026-04-25T14:28:13.725Z</time></trkpt><trkpt lat="43.108" lon="10.9255783"><ele>489.0</ele><time>2026-04-25T14:28:14.725Z</time></trkpt><trkpt lat="43.1080967" lon="10.9255667"><ele>489.0</ele><time>2026-04-25T14:28:15.723Z</time></trkpt><trkpt lat="43.1081917" lon="10.9255933"><ele>489.0</ele><time>2026-04-25T14:28:16.724Z</time></trkpt><trkpt lat="43.10829" lon="10.9256383"><ele>489.0</ele><time>2026-04-25T14:28:17.723Z</time></trkpt><trkpt lat="43.1083883" lon="10.9257083"><ele>489.0</ele><time>2026-04-25T14:28:18.725Z</time></trkpt><trkpt lat="43.10848" lon="10.9257833"><ele>489.0</ele><time>2026-04-25T14:28:19.724Z</time></trkpt><trkpt lat="43.10857" lon="10.9258817"><ele>489.0</ele><time>2026-04-25T14:28:20.724Z</time></trkpt><trkpt lat="43.1086533" lon="10.9260017"><ele>489.0</ele><time>2026-04-25T14:28:21.727Z</time></trkpt><trkpt lat="43.1087317" lon="10.9261417"><ele>489.0</ele><time>2026-04-25T14:28:22.723Z</time></trkpt><trkpt lat="43.1088067" lon="10.9262933"><ele>489.5</ele><time>2026-04-25T14:28:23.724Z</time></trkpt><trkpt lat="43.108885" lon="10.9264433"><ele>490.0</ele><time>2026-04-25T14:28:24.724Z</time></trkpt><trkpt lat="43.1089583" lon="10.9266083"><ele>490.5</ele><time>2026-04-25T14:28:25.727Z</time></trkpt><trkpt lat="43.1090383" lon="10.9267533"><ele>491.0</ele><time>2026-04-25T14:28:26.727Z</time></trkpt><trkpt lat="43.1091167" lon="10.9269067"><ele>491.0</ele><time>2026-04-25T14:28:27.724Z</time></trkpt><trkpt lat="43.1091983" lon="10.927055"><ele>491.0</ele><time>2026-04-25T14:28:28.724Z</time></trkpt><trkpt lat="43.109285" lon="10.9272133"><ele>491.0</ele><time>2026-04-25T14:28:29.722Z</time></trkpt><trkpt lat="43.109385" lon="10.9273717"><ele>491.0</ele><time>2026-04-25T14:28:30.724Z</time></trkpt><trkpt lat="43.1095" lon="10.9275417"><ele>490.3333333333333</ele><time>2026-04-25T14:28:31.725Z</time></trkpt><trkpt lat="43.1096517" lon="10.927715"><ele>489.66666666666663</ele><time>2026-04-25T14:28:32.724Z</time></trkpt><trkpt lat="43.1098317" lon="10.927885"><ele>489.0</ele><time>2026-04-25T14:28:33.722Z</time></trkpt><trkpt lat="43.1100267" lon="10.9280617"><ele>489.0</ele><time>2026-04-25T14:28:34.724Z</time></trkpt><trkpt lat="43.110215" lon="10.9282317"><ele>489.0</ele><time>2026-04-25T14:28:35.725Z</time></trkpt><trkpt lat="43.1103917" lon="10.9283967"><ele>489.0</ele><time>2026-04-25T14:28:36.726Z</time></trkpt><trkpt lat="43.1105567" lon="10.928545"><ele>488.33333333333337</ele><time>2026-04-25T14:28:37.724Z</time></trkpt><trkpt lat="43.11072" lon="10.9286667"><ele>487.6666666666667</ele><time>2026-04-25T14:28:38.723Z</time></trkpt><trkpt lat="43.1108983" lon="10.9287517"><ele>487.0</ele><time>2026-04-25T14:28:39.723Z</time></trkpt><trkpt lat="43.1110933" lon="10.9287567"><ele>488.33333333333337</ele><time>2026-04-25T14:28:40.724Z</time></trkpt><trkpt lat="43.1112933" lon="10.9287617"><ele>489.66666666666663</ele><time>2026-04-25T14:28:41.724Z</time></trkpt><trkpt lat="43.111495" lon="10.9287983"><ele>491.0</ele><time>2026-04-25T14:28:42.724Z</time></trkpt><trkpt lat="43.1116983" lon="10.928875"><ele>494.5</ele><time>2026-04-25T14:28:43.725Z</time></trkpt><trkpt lat="43.1119033" lon="10.928985"><ele>498.0</ele><time>2026-04-25T14:28:44.726Z</time></trkpt><trkpt lat="43.1121117" lon="10.92913"><ele>499.0</ele><time>2026-04-25T14:28:45.726Z</time></trkpt><trkpt lat="43.1123183" lon="10.92931"><ele>500.0</ele><time>2026-04-25T14:28:46.725Z</time></trkpt><trkpt lat="43.1125333" lon="10.9295017"><ele>503.5</ele><time>2026-04-25T14:28:47.725Z</time></trkpt><trkpt lat="43.1127467" lon="10.9296767"><ele>507.0</ele><time>2026-04-25T14:28:48.724Z</time></trkpt><trkpt lat="43.1129467" lon="10.9298317"><ele>507.0</ele><time>2026-04-25T14:28:49.724Z</time></trkpt><trkpt lat="43.1131233" lon="10.92996"><ele>507.0</ele><time>2026-04-25T14:28:50.725Z</time></trkpt><trkpt lat="43.113275" lon="10.9300667"><ele>507.0</ele><time>2026-04-25T14:28:51.725Z</time></trkpt><trkpt lat="43.11341" lon="10.9301383"><ele>510.0</ele><time>2026-04-25T14:28:52.724Z</time></trkpt><trkpt lat="43.113555" lon="10.9301583"><ele>513.0</ele><time>2026-04-25T14:28:53.725Z</time></trkpt><trkpt lat="43.1137167" lon="10.9300733"><ele>516.0</ele><time>2026-04-25T14:28:54.724Z</time></trkpt><trkpt lat="43.1139" lon="10.9300017"><ele>518.6666666666666</ele><time>2026-04-25T14:28:55.723Z</time></trkpt><trkpt lat="43.1140917" lon="10.9299867"><ele>521.3333333333333</ele><time>2026-04-25T14:28:56.724Z</time></trkpt><trkpt lat="43.1142733" lon="10.9299983"><ele>524.0</ele><time>2026-04-25T14:28:57.723Z</time></trkpt><trkpt lat="43.1144433" lon="10.92998"><ele>524.0</ele><time>2026-04-25T14:28:58.724Z</time></trkpt><trkpt lat="43.1146033" lon="10.9299083"><ele>524.0</ele><time>2026-04-25T14:28:59.723Z</time></trkpt><trkpt lat="43.1147417" lon="10.9297733"><ele>524.0</ele><time>2026-04-25T14:29:00.725Z</time></trkpt><trkpt lat="43.1148483" lon="10.929595"><ele>527.3333333333333</ele><time>2026-04-25T14:29:01.724Z</time></trkpt><trkpt lat="43.1149617" lon="10.9294483"><ele>530.6666666666666</ele><time>2026-04-25T14:29:02.723Z</time></trkpt><trkpt lat="43.1150917" lon="10.9293583"><ele>534.0</ele><time>2026-04-25T14:29:03.723Z</time></trkpt><trkpt lat="43.1152533" lon="10.929315"><ele>534.0</ele><time>2026-04-25T14:29:04.723Z</time></trkpt><trkpt lat="43.11545" lon="10.9293367"><ele>534.0</ele><time>2026-04-25T14:29:05.725Z</time></trkpt><trkpt lat="43.1156817" lon="10.929385"><ele>534.0</ele><time>2026-04-25T14:29:06.726Z</time></trkpt><trkpt lat="43.115935" lon="10.9294267"><ele>543.0</ele><time>2026-04-25T14:29:07.724Z</time></trkpt><trkpt lat="43.116185" lon="10.9294367"><ele>552.0</ele><time>2026-04-25T14:29:08.724Z</time></trkpt><trkpt lat="43.116415" lon="10.9294233"><ele>556.0</ele><time>2026-04-25T14:29:09.724Z</time></trkpt><trkpt lat="43.1166317" lon="10.9294317"><ele>560.0</ele><time>2026-04-25T14:29:10.725Z</time></trkpt><trkpt lat="43.1168433" lon="10.929475"><ele>564.0</ele><time>2026-04-25T14:29:11.726Z</time></trkpt><trkpt lat="43.11706" lon="10.9295383"><ele>564.0</ele><time>2026-04-25T14:29:12.723Z</time></trkpt><trkpt lat="43.1172767" lon="10.9295933"><ele>564.0</ele><time>2026-04-25T14:29:13.725Z</time></trkpt><trkpt lat="43.1174817" lon="10.9296467"><ele>564.0</ele><time>2026-04-25T14:29:14.725Z</time></trkpt><trkpt lat="43.1176667" lon="10.9297133"><ele>565.0</ele><time>2026-04-25T14:29:15.724Z</time></trkpt><trkpt lat="43.117815" lon="10.9298067"><ele>566.0</ele><time>2026-04-25T14:29:16.726Z</time></trkpt><trkpt lat="43.117925" lon="10.9299283"><ele>567.0</ele><time>2026-04-25T14:29:17.726Z</time></trkpt><trkpt lat="43.1180367" lon="10.930065"><ele>569.3333333333334</ele><time>2026-04-25T14:29:18.724Z</time></trkpt><trkpt lat="43.11817" lon="10.9301883"><ele>571.6666666666667</ele><time>2026-04-25T14:29:19.726Z</time></trkpt><trkpt lat="43.1183167" lon="10.930275"><ele>574.0</ele><time>2026-04-25T14:29:20.726Z</time></trkpt><trkpt lat="43.1184817" lon="10.9303383"><ele>574.0</ele><time>2026-04-25T14:29:21.725Z</time></trkpt><trkpt lat="43.1186467" lon="10.9303683"><ele>574.0</ele><time>2026-04-25T14:29:22.726Z</time></trkpt><trkpt lat="43.1187967" lon="10.9303917"><ele>574.0</ele><time>2026-04-25T14:29:23.725Z</time></trkpt><trkpt lat="43.1189267" lon="10.9304017"><ele>574.0</ele><time>2026-04-25T14:29:24.726Z</time></trkpt><trkpt lat="43.1190383" lon="10.93045"><ele>574.5</ele><time>2026-04-25T14:29:25.726Z</time></trkpt><trkpt lat="43.1191467" lon="10.9305167"><ele>575.0</ele><time>2026-04-25T14:29:26.726Z</time></trkpt><trkpt lat="43.1192483" lon="10.93062"><ele>575.5</ele><time>2026-04-25T14:29:27.726Z</time></trkpt><trkpt lat="43.1193467" lon="10.9307517"><ele>576.0</ele><time>2026-04-25T14:29:28.723Z</time></trkpt><trkpt lat="43.1194367" lon="10.9309217"><ele>578.5</ele><time>2026-04-25T14:29:29.723Z</time></trkpt><trkpt lat="43.1195133" lon="10.931085"><ele>581.0</ele><time>2026-04-25T14:29:30.725Z</time></trkpt><trkpt lat="43.119595" lon="10.9312383"><ele>583.5</ele><time>2026-04-25T14:29:31.726Z</time></trkpt><trkpt lat="43.11968" lon="10.9313817"><ele>586.0</ele><time>2026-04-25T14:29:32.726Z</time></trkpt><trkpt lat="43.119785" lon="10.93148"><ele>587.6666666666667</ele><time>2026-04-25T14:29:33.725Z</time></trkpt><trkpt lat="43.1199667" lon="10.9314467"><ele>589.3333333333334</ele><time>2026-04-25T14:29:34.725Z</time></trkpt><trkpt lat="43.120145" lon="10.9314817"><ele>591.0</ele><time>2026-04-25T14:29:35.726Z</time></trkpt><trkpt lat="43.1203267" lon="10.93152"><ele>591.0</ele><time>2026-04-25T14:29:36.725Z</time></trkpt><trkpt lat="43.12052" lon="10.9316333"><ele>591.0</ele><time>2026-04-25T14:29:37.725Z</time></trkpt><trkpt lat="43.1207067" lon="10.93175"><ele>591.0</ele><time>2026-04-25T14:29:38.725Z</time></trkpt><trkpt lat="43.1209033" lon="10.931865"><ele>593.3333333333334</ele><time>2026-04-25T14:29:39.723Z</time></trkpt><trkpt lat="43.1211067" lon="10.9319917"><ele>595.6666666666667</ele><time>2026-04-25T14:29:40.725Z</time></trkpt><trkpt lat="43.121305" lon="10.93211"><ele>598.0</ele><time>2026-04-25T14:29:41.723Z</time></trkpt><trkpt lat="43.1214883" lon="10.9322167"><ele>599.3333333333334</ele><time>2026-04-25T14:29:42.725Z</time></trkpt><trkpt lat="43.121655" lon="10.9323133"><ele>600.6666666666666</ele><time>2026-04-25T14:29:43.723Z</time></trkpt><trkpt lat="43.1218" lon="10.9324183"><ele>602.0</ele><time>2026-04-25T14:29:44.725Z</time></trkpt><trkpt lat="43.1219283" lon="10.9325617"><ele>602.0</ele><time>2026-04-25T14:29:45.725Z</time></trkpt><trkpt lat="43.12203" lon="10.932755"><ele>602.0</ele><time>2026-04-25T14:29:46.724Z</time></trkpt><trkpt lat="43.1220967" lon="10.9329817"><ele>602.0</ele><time>2026-04-25T14:29:47.726Z</time></trkpt><trkpt lat="43.1221317" lon="10.9332317"><ele>604.6666666666666</ele><time>2026-04-25T14:29:48.725Z</time></trkpt><trkpt lat="43.1221417" lon="10.933505"><ele>607.3333333333334</ele><time>2026-04-25T14:29:49.725Z</time></trkpt><trkpt lat="43.12214" lon="10.93378"><ele>610.0</ele><time>2026-04-25T14:29:50.725Z</time></trkpt><trkpt lat="43.12213" lon="10.93405"><ele>607.6666666666667</ele><time>2026-04-25T14:29:51.723Z</time></trkpt><trkpt lat="43.1221017" lon="10.9342933"><ele>605.3333333333334</ele><time>2026-04-25T14:29:52.725Z</time></trkpt><trkpt lat="43.122045" lon="10.9345067"><ele>603.0</ele><time>2026-04-25T14:29:53.723Z</time></trkpt><trkpt lat="43.1219483" lon="10.9346983"><ele>603.0</ele><time>2026-04-25T14:29:54.725Z</time></trkpt><trkpt lat="43.1218417" lon="10.93489"><ele>603.0</ele><time>2026-04-25T14:29:55.725Z</time></trkpt><trkpt lat="43.1217533" lon="10.935095"><ele>603.0</ele><time>2026-04-25T14:29:56.726Z</time></trkpt><trkpt lat="43.1216967" lon="10.93532"><ele>600.6666666666666</ele><time>2026-04-25T14:29:57.724Z</time></trkpt><trkpt lat="43.1216633" lon="10.9355383"><ele>598.3333333333333</ele><time>2026-04-25T14:29:58.725Z</time></trkpt><trkpt lat="43.121605" lon="10.9357267"><ele>596.0</ele><time>2026-04-25T14:29:59.724Z</time></trkpt><trkpt lat="43.121495" lon="10.9358667"><ele>589.6666666666666</ele><time>2026-04-25T14:30:00.726Z</time></trkpt><trkpt lat="43.1213517" lon="10.9359533"><ele>583.3333333333334</ele><time>2026-04-25T14:30:01.725Z</time></trkpt><trkpt lat="43.1211683" lon="10.935985"><ele>577.0</ele><time>2026-04-25T14:30:02.725Z</time></trkpt><trkpt lat="43.1209433" lon="10.9359833"><ele>580.3333333333334</ele><time>2026-04-25T14:30:03.723Z</time></trkpt><trkpt lat="43.1207183" lon="10.93597"><ele>583.6666666666666</ele><time>2026-04-25T14:30:04.725Z</time></trkpt><trkpt lat="43.12051" lon="10.93595"><ele>587.0</ele><time>2026-04-25T14:30:05.724Z</time></trkpt><trkpt lat="43.1203333" lon="10.9359383"><ele>587.0</ele><time>2026-04-25T14:30:06.725Z</time></trkpt><trkpt lat="43.1201817" lon="10.9359483"><ele>587.0</ele><time>2026-04-25T14:30:07.724Z</time></trkpt><trkpt lat="43.1200617" lon="10.936015"><ele>587.0</ele><time>2026-04-25T14:30:08.725Z</time></trkpt><trkpt lat="43.1199567" lon="10.936115"><ele>587.0</ele><time>2026-04-25T14:30:09.724Z</time></trkpt><trkpt lat="43.1198833" lon="10.9362567"><ele>594.0</ele><time>2026-04-25T14:30:10.725Z</time></trkpt><trkpt lat="43.1198533" lon="10.9364633"><ele>601.0</ele><time>2026-04-25T14:30:11.726Z</time></trkpt><trkpt lat="43.1198533" lon="10.9367983"><ele>608.0</ele><time>2026-04-25T14:30:12.724Z</time></trkpt><trkpt lat="43.1198433" lon="10.93716"><ele>608.0</ele><time>2026-04-25T14:30:13.724Z</time></trkpt><trkpt lat="43.1198283" lon="10.9375133"><ele>608.0</ele><time>2026-04-25T14:30:14.725Z</time></trkpt><trkpt lat="43.1198133" lon="10.9378567"><ele>605.6666666666666</ele><time>2026-04-25T14:30:15.723Z</time></trkpt><trkpt lat="43.1198" lon="10.9381717"><ele>603.3333333333334</ele><time>2026-04-25T14:30:16.726Z</time></trkpt><trkpt lat="43.1197883" lon="10.93847"><ele>601.0</ele><time>2026-04-25T14:30:17.725Z</time></trkpt><trkpt lat="43.1197767" lon="10.9387467"><ele>595.6666666666667</ele><time>2026-04-25T14:30:18.722Z</time></trkpt><trkpt lat="43.1197817" lon="10.9390233"><ele>590.3333333333334</ele><time>2026-04-25T14:30:19.726Z</time></trkpt><trkpt lat="43.11981" lon="10.9393"><ele>585.0</ele><time>2026-04-25T14:30:20.725Z</time></trkpt><trkpt lat="43.1198817" lon="10.939575"><ele>576.5</ele><time>2026-04-25T14:30:21.725Z</time></trkpt><trkpt lat="43.11999" lon="10.939845"><ele>568.0</ele><time>2026-04-25T14:30:22.724Z</time></trkpt><trkpt lat="43.12012" lon="10.9401233"><ele>565.5</ele><time>2026-04-25T14:30:23.724Z</time></trkpt><trkpt lat="43.12025" lon="10.94041"><ele>563.0</ele><time>2026-04-25T14:30:24.724Z</time></trkpt><trkpt lat="43.1203767" lon="10.9407017"><ele>561.5</ele><time>2026-04-25T14:30:25.725Z</time></trkpt><trkpt lat="43.1205033" lon="10.9409967"><ele>560.0</ele><time>2026-04-25T14:30:26.725Z</time></trkpt><trkpt lat="43.1206317" lon="10.941295"><ele>562.0</ele><time>2026-04-25T14:30:27.725Z</time></trkpt><trkpt lat="43.120755" lon="10.9415933"><ele>564.0</ele><time>2026-04-25T14:30:28.725Z</time></trkpt><trkpt lat="43.12088" lon="10.9418833"><ele>564.5</ele><time>2026-04-25T14:30:29.726Z</time></trkpt><trkpt lat="43.1209983" lon="10.94217"><ele>565.0</ele><time>2026-04-25T14:30:30.724Z</time></trkpt><trkpt lat="43.1211033" lon="10.9424733"><ele>565.5</ele><time>2026-04-25T14:30:31.726Z</time></trkpt><trkpt lat="43.1211917" lon="10.9427767"><ele>566.0</ele><time>2026-04-25T14:30:32.724Z</time></trkpt><trkpt lat="43.1212633" lon="10.9430717"><ele>566.0</ele><time>2026-04-25T14:30:33.726Z</time></trkpt><trkpt lat="43.1213133" lon="10.943345"><ele>566.0</ele><time>2026-04-25T14:30:34.726Z</time></trkpt><trkpt lat="43.12133" lon="10.9436083"><ele>566.0</ele><time>2026-04-25T14:30:35.725Z</time></trkpt><trkpt lat="43.1213033" lon="10.9438683"><ele>567.3333333333333</ele><time>2026-04-25T14:30:36.727Z</time></trkpt><trkpt lat="43.121255" lon="10.9441233"><ele>568.6666666666666</ele><time>2026-04-25T14:30:37.726Z</time></trkpt><trkpt lat="43.121225" lon="10.9443733"><ele>570.0</ele><time>2026-04-25T14:30:38.726Z</time></trkpt><trkpt lat="43.1212083" lon="10.9446133"><ele>570.0</ele><time>2026-04-25T14:30:39.726Z</time></trkpt><trkpt lat="43.1212083" lon="10.94486"><ele>570.0</ele><time>2026-04-25T14:30:40.726Z</time></trkpt><trkpt lat="43.1212867" lon="10.94512"><ele>570.0</ele><time>2026-04-25T14:30:41.726Z</time></trkpt><trkpt lat="43.1213617" lon="10.945385"><ele>570.3333333333334</ele><time>2026-04-25T14:30:42.726Z</time></trkpt><trkpt lat="43.1214367" lon="10.9456467"><ele>570.6666666666667</ele><time>2026-04-25T14:30:43.725Z</time></trkpt><trkpt lat="43.121495" lon="10.94591"><ele>571.0</ele><time>2026-04-25T14:30:44.726Z</time></trkpt><trkpt lat="43.1215333" lon="10.9461783"><ele>572.6666666666667</ele><time>2026-04-25T14:30:45.725Z</time></trkpt><trkpt lat="43.1215183" lon="10.9464533"><ele>574.3333333333334</ele><time>2026-04-25T14:30:46.728Z</time></trkpt><trkpt lat="43.12149" lon="10.9467367"><ele>576.0</ele><time>2026-04-25T14:30:47.724Z</time></trkpt><trkpt lat="43.1214717" lon="10.947005"><ele>576.3333333333334</ele><time>2026-04-25T14:30:48.725Z</time></trkpt><trkpt lat="43.1214667" lon="10.9472683"><ele>576.6666666666667</ele><time>2026-04-25T14:30:49.724Z</time></trkpt><trkpt lat="43.1215217" lon="10.9475417"><ele>577.0</ele><time>2026-04-25T14:30:50.725Z</time></trkpt><trkpt lat="43.121575" lon="10.94782"><ele>581.6666666666667</ele><time>2026-04-25T14:30:51.724Z</time></trkpt><trkpt lat="43.121605" lon="10.9480933"><ele>586.3333333333334</ele><time>2026-04-25T14:30:52.724Z</time></trkpt><trkpt lat="43.1216033" lon="10.9483667"><ele>591.0</ele><time>2026-04-25T14:30:53.726Z</time></trkpt><trkpt lat="43.1215683" lon="10.9486433"><ele>591.0</ele><time>2026-04-25T14:30:54.724Z</time></trkpt><trkpt lat="43.121515" lon="10.9489267"><ele>591.0</ele><time>2026-04-25T14:30:55.726Z</time></trkpt><trkpt lat="43.12145" lon="10.9492217"><ele>591.0</ele><time>2026-04-25T14:30:56.725Z</time></trkpt><trkpt lat="43.12138" lon="10.9495267"><ele>591.0</ele><time>2026-04-25T14:30:57.726Z</time></trkpt><trkpt lat="43.1212883" lon="10.9498283"><ele>591.0</ele><time>2026-04-25T14:30:58.725Z</time></trkpt><trkpt lat="43.121195" lon="10.9501233"><ele>593.5</ele><time>2026-04-25T14:30:59.724Z</time></trkpt><trkpt lat="43.1210833" lon="10.95041"><ele>596.0</ele><time>2026-04-25T14:31:00.725Z</time></trkpt><trkpt lat="43.1209683" lon="10.9506883"><ele>596.5</ele><time>2026-04-25T14:31:01.726Z</time></trkpt><trkpt lat="43.1208483" lon="10.9509617"><ele>597.0</ele><time>2026-04-25T14:31:02.726Z</time></trkpt><trkpt lat="43.120735" lon="10.9512383"><ele>598.0</ele><time>2026-04-25T14:31:03.726Z</time></trkpt><trkpt lat="43.1206467" lon="10.9515283"><ele>599.0</ele><time>2026-04-25T14:31:04.726Z</time></trkpt><trkpt lat="43.12057" lon="10.9518183"><ele>599.0</ele><time>2026-04-25T14:31:05.724Z</time></trkpt><trkpt lat="43.1205067" lon="10.9520867"><ele>599.0</ele><time>2026-04-25T14:31:06.726Z</time></trkpt><trkpt lat="43.1204483" lon="10.952325"><ele>599.0</ele><time>2026-04-25T14:31:07.726Z</time></trkpt><trkpt lat="43.120385" lon="10.9525217"><ele>595.6666666666666</ele><time>2026-04-25T14:31:08.726Z</time></trkpt><trkpt lat="43.1202983" lon="10.9526683"><ele>592.3333333333334</ele><time>2026-04-25T14:31:09.726Z</time></trkpt><trkpt lat="43.1201717" lon="10.95276"><ele>589.0</ele><time>2026-04-25T14:31:10.725Z</time></trkpt><trkpt lat="43.1199983" lon="10.952795"><ele>589.3333333333334</ele><time>2026-04-25T14:31:11.723Z</time></trkpt><trkpt lat="43.1197917" lon="10.952785"><ele>589.6666666666666</ele><time>2026-04-25T14:31:12.723Z</time></trkpt><trkpt lat="43.1195667" lon="10.9527617"><ele>590.0</ele><time>2026-04-25T14:31:13.725Z</time></trkpt><trkpt lat="43.119345" lon="10.95274"><ele>590.0</ele><time>2026-04-25T14:31:14.725Z</time></trkpt><trkpt lat="43.11914" lon="10.9527283"><ele>590.0</ele><time>2026-04-25T14:31:15.725Z</time></trkpt><trkpt lat="43.118955" lon="10.95274"><ele>590.0</ele><time>2026-04-25T14:31:16.725Z</time></trkpt><trkpt lat="43.118785" lon="10.9527817"><ele>592.6666666666666</ele><time>2026-04-25T14:31:17.725Z</time></trkpt><trkpt lat="43.1186333" lon="10.9528533"><ele>595.3333333333334</ele><time>2026-04-25T14:31:18.726Z</time></trkpt><trkpt lat="43.1185117" lon="10.9529817"><ele>598.0</ele><time>2026-04-25T14:31:19.726Z</time></trkpt><trkpt lat="43.118435" lon="10.953185"><ele>596.6666666666667</ele><time>2026-04-25T14:31:20.725Z</time></trkpt><trkpt lat="43.1183483" lon="10.9534333"><ele>595.3333333333334</ele><time>2026-04-25T14:31:21.725Z</time></trkpt><trkpt lat="43.11826" lon="10.9537033"><ele>594.0</ele><time>2026-04-25T14:31:22.725Z</time></trkpt><trkpt lat="43.1181683" lon="10.95398"><ele>596.5</ele><time>2026-04-25T14:31:23.724Z</time></trkpt><trkpt lat="43.1180733" lon="10.95428"><ele>599.0</ele><time>2026-04-25T14:31:24.725Z</time></trkpt><trkpt lat="43.118015" lon="10.9545883"><ele>599.0</ele><time>2026-04-25T14:31:25.724Z</time></trkpt><trkpt lat="43.1179683" lon="10.9549083"><ele>599.0</ele><time>2026-04-25T14:31:26.725Z</time></trkpt><trkpt lat="43.1179233" lon="10.955235"><ele>597.0</ele><time>2026-04-25T14:31:27.726Z</time></trkpt><trkpt lat="43.1178783" lon="10.9555633"><ele>595.0</ele><time>2026-04-25T14:31:28.725Z</time></trkpt><trkpt lat="43.1178183" lon="10.9558967"><ele>594.0</ele><time>2026-04-25T14:31:29.727Z</time></trkpt><trkpt lat="43.11777" lon="10.9562317"><ele>593.0</ele><time>2026-04-25T14:31:30.727Z</time></trkpt><trkpt lat="43.117725" lon="10.9565633"><ele>595.0</ele><time>2026-04-25T14:31:31.724Z</time></trkpt><trkpt lat="43.1176767" lon="10.9569017"><ele>597.0</ele><time>2026-04-25T14:31:32.724Z</time></trkpt><trkpt lat="43.1176317" lon="10.95724"><ele>596.5</ele><time>2026-04-25T14:31:33.724Z</time></trkpt><trkpt lat="43.1175917" lon="10.95758"><ele>596.0</ele><time>2026-04-25T14:31:34.723Z</time></trkpt><trkpt lat="43.1175483" lon="10.95792"><ele>596.0</ele><time>2026-04-25T14:31:35.726Z</time></trkpt><trkpt lat="43.1175067" lon="10.9582483"><ele>596.0</ele><time>2026-04-25T14:31:36.726Z</time></trkpt><trkpt lat="43.11747" lon="10.9585617"><ele>595.0</ele><time>2026-04-25T14:31:37.725Z</time></trkpt><trkpt lat="43.11743" lon="10.958865"><ele>594.0</ele><time>2026-04-25T14:31:38.725Z</time></trkpt><trkpt lat="43.11738" lon="10.95916"><ele>593.0</ele><time>2026-04-25T14:31:39.725Z</time></trkpt><trkpt lat="43.1172967" lon="10.9594433"><ele>593.0</ele><time>2026-04-25T14:31:40.723Z</time></trkpt><trkpt lat="43.11718" lon="10.9597067"><ele>593.0</ele><time>2026-04-25T14:31:41.726Z</time></trkpt><trkpt lat="43.1170133" lon="10.95994"><ele>595.0</ele><time>2026-04-25T14:31:42.724Z</time></trkpt><trkpt lat="43.11683" lon="10.9601417"><ele>597.0</ele><time>2026-04-25T14:31:43.724Z</time></trkpt><trkpt lat="43.1166533" lon="10.96032"><ele>598.3333333333334</ele><time>2026-04-25T14:31:44.726Z</time></trkpt><trkpt lat="43.1165017" lon="10.9604883"><ele>599.6666666666667</ele><time>2026-04-25T14:31:45.724Z</time></trkpt><trkpt lat="43.116375" lon="10.960675"><ele>601.0</ele><time>2026-04-25T14:31:46.724Z</time></trkpt><trkpt lat="43.1162717" lon="10.960895"><ele>601.0</ele><time>2026-04-25T14:31:47.726Z</time></trkpt><trkpt lat="43.1161933" lon="10.961145"><ele>601.0</ele><time>2026-04-25T14:31:48.725Z</time></trkpt><trkpt lat="43.1161217" lon="10.9614133"><ele>601.0</ele><time>2026-04-25T14:31:49.725Z</time></trkpt><trkpt lat="43.1160417" lon="10.9616867"><ele>603.0</ele><time>2026-04-25T14:31:50.726Z</time></trkpt><trkpt lat="43.1159567" lon="10.9619617"><ele>605.0</ele><time>2026-04-25T14:31:51.724Z</time></trkpt><trkpt lat="43.115835" lon="10.9622167"><ele>607.0</ele><time>2026-04-25T14:31:52.724Z</time></trkpt><trkpt lat="43.1156983" lon="10.9624617"><ele>606.0</ele><time>2026-04-25T14:31:53.724Z</time></trkpt><trkpt lat="43.11556" lon="10.9627067"><ele>605.0</ele><time>2026-04-25T14:31:54.725Z</time></trkpt><trkpt lat="43.1154117" lon="10.962945"><ele>605.0</ele><time>2026-04-25T14:31:55.726Z</time></trkpt><trkpt lat="43.1152783" lon="10.9631767"><ele>605.0</ele><time>2026-04-25T14:31:56.725Z</time></trkpt><trkpt lat="43.1151833" lon="10.963415"><ele>605.0</ele><time>2026-04-25T14:31:57.724Z</time></trkpt><trkpt lat="43.1151083" lon="10.9636667"><ele>605.6666666666666</ele><time>2026-04-25T14:31:58.726Z</time></trkpt><trkpt lat="43.1150683" lon="10.9639333"><ele>606.3333333333334</ele><time>2026-04-25T14:31:59.725Z</time></trkpt><trkpt lat="43.115065" lon="10.96423"><ele>607.0</ele><time>2026-04-25T14:32:00.725Z</time></trkpt><trkpt lat="43.11511" lon="10.96454"><ele>607.0</ele><time>2026-04-25T14:32:01.725Z</time></trkpt><trkpt lat="43.115165" lon="10.9648583"><ele>607.0</ele><time>2026-04-25T14:32:02.725Z</time></trkpt><trkpt lat="43.1152383" lon="10.9651717"><ele>605.5</ele><time>2026-04-25T14:32:03.724Z</time></trkpt><trkpt lat="43.115325" lon="10.9654733"><ele>604.0</ele><time>2026-04-25T14:32:04.726Z</time></trkpt><trkpt lat="43.1154333" lon="10.96576"><ele>605.0</ele><time>2026-04-25T14:32:05.725Z</time></trkpt><trkpt lat="43.1155633" lon="10.966035"><ele>606.0</ele><time>2026-04-25T14:32:06.725Z</time></trkpt><trkpt lat="43.1156783" lon="10.966305"><ele>609.6666666666666</ele><time>2026-04-25T14:32:07.725Z</time></trkpt><trkpt lat="43.1157883" lon="10.9665683"><ele>613.3333333333333</ele><time>2026-04-25T14:32:08.724Z</time></trkpt><trkpt lat="43.1158833" lon="10.9668333"><ele>617.0</ele><time>2026-04-25T14:32:09.724Z</time></trkpt><trkpt lat="43.11597" lon="10.967075"><ele>618.0</ele><time>2026-04-25T14:32:10.725Z</time></trkpt><trkpt lat="43.116085" lon="10.9672983"><ele>619.0</ele><time>2026-04-25T14:32:11.725Z</time></trkpt><trkpt lat="43.116235" lon="10.9674817"><ele>620.0</ele><time>2026-04-25T14:32:12.725Z</time></trkpt><trkpt lat="43.116405" lon="10.96764"><ele>623.0</ele><time>2026-04-25T14:32:13.724Z</time></trkpt><trkpt lat="43.1165883" lon="10.9677933"><ele>626.0</ele><time>2026-04-25T14:32:14.726Z</time></trkpt><trkpt lat="43.1167817" lon="10.967945"><ele>629.0</ele><time>2026-04-25T14:32:15.726Z</time></trkpt><trkpt lat="43.1169633" lon="10.96809"><ele>629.0</ele><time>2026-04-25T14:32:16.727Z</time></trkpt><trkpt lat="43.1171217" lon="10.968245"><ele>629.0</ele><time>2026-04-25T14:32:17.727Z</time></trkpt><trkpt lat="43.1172583" lon="10.96842"><ele>629.0</ele><time>2026-04-25T14:32:18.726Z</time></trkpt><trkpt lat="43.1173733" lon="10.9686133"><ele>629.0</ele><time>2026-04-25T14:32:19.725Z</time></trkpt><trkpt lat="43.1174567" lon="10.9688333"><ele>629.0</ele><time>2026-04-25T14:32:20.725Z</time></trkpt><trkpt lat="43.1175133" lon="10.9690633"><ele>629.0</ele><time>2026-04-25T14:32:21.725Z</time></trkpt><trkpt lat="43.1175567" lon="10.969275"><ele>630.0</ele><time>2026-04-25T14:32:22.725Z</time></trkpt><trkpt lat="43.1176017" lon="10.9694667"><ele>631.0</ele><time>2026-04-25T14:32:23.725Z</time></trkpt><trkpt lat="43.1176483" lon="10.9696367"><ele>632.0</ele><time>2026-04-25T14:32:24.724Z</time></trkpt><trkpt lat="43.1176933" lon="10.969785"><ele>633.0</ele><time>2026-04-25T14:32:25.724Z</time></trkpt><trkpt lat="43.11773" lon="10.9699367"><ele>632.75</ele><time>2026-04-25T14:32:26.726Z</time></trkpt><trkpt lat="43.11776" lon="10.9700833"><ele>632.5</ele><time>2026-04-25T14:32:27.725Z</time></trkpt><trkpt lat="43.117765" lon="10.9702367"><ele>632.25</ele><time>2026-04-25T14:32:28.727Z</time></trkpt><trkpt lat="43.1177433" lon="10.9704017"><ele>632.0</ele><time>2026-04-25T14:32:29.726Z</time></trkpt><trkpt lat="43.1176983" lon="10.9705617"><ele>632.0</ele><time>2026-04-25T14:32:30.725Z</time></trkpt><trkpt lat="43.1176383" lon="10.9707067"><ele>632.0</ele><time>2026-04-25T14:32:31.722Z</time></trkpt><trkpt lat="43.117575" lon="10.97085"><ele>632.0</ele><time>2026-04-25T14:32:32.724Z</time></trkpt><trkpt lat="43.11752" lon="10.9709983"><ele>632.0</ele><time>2026-04-25T14:32:33.725Z</time></trkpt><trkpt lat="43.1174633" lon="10.9711483"><ele>632.4</ele><time>2026-04-25T14:32:34.726Z</time></trkpt><trkpt lat="43.1174267" lon="10.9713017"><ele>632.8000000000001</ele><time>2026-04-25T14:32:35.726Z</time></trkpt><trkpt lat="43.1174167" lon="10.971455"><ele>633.2</ele><time>2026-04-25T14:32:36.725Z</time></trkpt><trkpt lat="43.117435" lon="10.9716033"><ele>633.6</ele><time>2026-04-25T14:32:37.724Z</time></trkpt><trkpt lat="43.117485" lon="10.9717283"><ele>634.0</ele><time>2026-04-25T14:32:38.724Z</time></trkpt><trkpt lat="43.1175733" lon="10.9718333"><ele>637.6666666666667</ele><time>2026-04-25T14:32:39.724Z</time></trkpt><trkpt lat="43.1177117" lon="10.9719317"><ele>641.3333333333334</ele><time>2026-04-25T14:32:40.725Z</time></trkpt><trkpt lat="43.1178783" lon="10.9720333"><ele>645.0</ele><time>2026-04-25T14:32:41.725Z</time></trkpt><trkpt lat="43.118075" lon="10.9721683"><ele>643.0</ele><time>2026-04-25T14:32:42.725Z</time></trkpt><trkpt lat="43.1182717" lon="10.9723033"><ele>641.0</ele><time>2026-04-25T14:32:43.723Z</time></trkpt><trkpt lat="43.1184633" lon="10.972425"><ele>639.0</ele><time>2026-04-25T14:32:44.726Z</time></trkpt><trkpt lat="43.11864" lon="10.9725217"><ele>643.0</ele><time>2026-04-25T14:32:45.724Z</time></trkpt><trkpt lat="43.1187883" lon="10.9726567"><ele>647.0</ele><time>2026-04-25T14:32:46.724Z</time></trkpt><trkpt lat="43.1189" lon="10.9728317"><ele>651.0</ele><time>2026-04-25T14:32:47.722Z</time></trkpt><trkpt lat="43.1189733" lon="10.9730383"><ele>651.0</ele><time>2026-04-25T14:32:48.726Z</time></trkpt><trkpt lat="43.1190033" lon="10.973285"><ele>651.0</ele><time>2026-04-25T14:32:49.724Z</time></trkpt><trkpt lat="43.1190133" lon="10.9735617"><ele>651.0</ele><time>2026-04-25T14:32:50.725Z</time></trkpt><trkpt lat="43.119035" lon="10.97384"><ele>649.3333333333334</ele><time>2026-04-25T14:32:51.724Z</time></trkpt><trkpt lat="43.11908" lon="10.974095"><ele>647.6666666666667</ele><time>2026-04-25T14:32:52.724Z</time></trkpt><trkpt lat="43.1191533" lon="10.974325"><ele>646.0</ele><time>2026-04-25T14:32:53.724Z</time></trkpt><trkpt lat="43.1192733" lon="10.9745267"><ele>646.0</ele><time>2026-04-25T14:32:54.723Z</time></trkpt><trkpt lat="43.1194333" lon="10.9747083"><ele>646.0</ele><time>2026-04-25T14:32:55.724Z</time></trkpt><trkpt lat="43.1196083" lon="10.9748717"><ele>646.0</ele><time>2026-04-25T14:32:56.724Z</time></trkpt><trkpt lat="43.1197717" lon="10.9750367"><ele>643.3333333333334</ele><time>2026-04-25T14:32:57.721Z</time></trkpt><trkpt lat="43.1199233" lon="10.975225"><ele>640.6666666666666</ele><time>2026-04-25T14:32:58.724Z</time></trkpt><trkpt lat="43.1200483" lon="10.9754467"><ele>638.0</ele><time>2026-04-25T14:32:59.724Z</time></trkpt><trkpt lat="43.1201417" lon="10.9757017"><ele>640.3333333333333</ele><time>2026-04-25T14:33:00.726Z</time></trkpt><trkpt lat="43.1202133" lon="10.9759833"><ele>642.6666666666666</ele><time>2026-04-25T14:33:01.725Z</time></trkpt><trkpt lat="43.1202717" lon="10.9762683"><ele>645.0</ele><time>2026-04-25T14:33:02.724Z</time></trkpt><trkpt lat="43.1203117" lon="10.9765417"><ele>644.0</ele><time>2026-04-25T14:33:03.725Z</time></trkpt><trkpt lat="43.1203233" lon="10.9768117"><ele>643.0</ele><time>2026-04-25T14:33:04.724Z</time></trkpt><trkpt lat="43.1202933" lon="10.9770817"><ele>642.0</ele><time>2026-04-25T14:33:05.725Z</time></trkpt><trkpt lat="43.1202083" lon="10.977345"><ele>640.3333333333334</ele><time>2026-04-25T14:33:06.725Z</time></trkpt><trkpt lat="43.1201167" lon="10.9775833"><ele>638.6666666666667</ele><time>2026-04-25T14:33:07.725Z</time></trkpt><trkpt lat="43.1200367" lon="10.977805"><ele>637.0</ele><time>2026-04-25T14:33:08.725Z</time></trkpt><trkpt lat="43.119985" lon="10.9780267"><ele>637.0</ele><time>2026-04-25T14:33:09.723Z</time></trkpt><trkpt lat="43.1199717" lon="10.9782583"><ele>637.0</ele><time>2026-04-25T14:33:10.723Z</time></trkpt><trkpt lat="43.1200517" lon="10.978485"><ele>637.0</ele><time>2026-04-25T14:33:11.724Z</time></trkpt><trkpt lat="43.1201733" lon="10.9787"><ele>636.3333333333334</ele><time>2026-04-25T14:33:12.724Z</time></trkpt><trkpt lat="43.1202917" lon="10.9789217"><ele>635.6666666666666</ele><time>2026-04-25T14:33:13.723Z</time></trkpt><trkpt lat="43.1204283" lon="10.979155"><ele>635.0</ele><time>2026-04-25T14:33:14.723Z</time></trkpt><trkpt lat="43.120565" lon="10.97938"><ele>639.0</ele><time>2026-04-25T14:33:15.724Z</time></trkpt><trkpt lat="43.1207083" lon="10.9795733"><ele>643.0</ele><time>2026-04-25T14:33:16.725Z</time></trkpt><trkpt lat="43.1208633" lon="10.979725"><ele>647.0</ele><time>2026-04-25T14:33:17.724Z</time></trkpt><trkpt lat="43.1210367" lon="10.9798317"><ele>648.0</ele><time>2026-04-25T14:33:18.724Z</time></trkpt><trkpt lat="43.1212217" lon="10.9798733"><ele>649.0</ele><time>2026-04-25T14:33:19.725Z</time></trkpt><trkpt lat="43.1214167" lon="10.979855"><ele>650.0</ele><time>2026-04-25T14:33:20.725Z</time></trkpt><trkpt lat="43.121615" lon="10.97978"><ele>650.0</ele><time>2026-04-25T14:33:21.723Z</time></trkpt><trkpt lat="43.1218183" lon="10.979665"><ele>650.0</ele><time>2026-04-25T14:33:22.724Z</time></trkpt><trkpt lat="43.12203" lon="10.979535"><ele>650.0</ele><time>2026-04-25T14:33:23.725Z</time></trkpt><trkpt lat="43.12225" lon="10.97939"><ele>650.0</ele><time>2026-04-25T14:33:24.725Z</time></trkpt><trkpt lat="43.12247" lon="10.9792567"><ele>650.6666666666666</ele><time>2026-04-25T14:33:25.724Z</time></trkpt><trkpt lat="43.12267" lon="10.9791317"><ele>651.3333333333334</ele><time>2026-04-25T14:33:26.725Z</time></trkpt><trkpt lat="43.1228617" lon="10.9790267"><ele>652.0</ele><time>2026-04-25T14:33:27.722Z</time></trkpt><trkpt lat="43.123045" lon="10.978955"><ele>655.6666666666667</ele><time>2026-04-25T14:33:28.723Z</time></trkpt><trkpt lat="43.1232333" lon="10.9789467"><ele>659.3333333333334</ele><time>2026-04-25T14:33:29.726Z</time></trkpt><trkpt lat="43.1234317" lon="10.978985"><ele>663.0</ele><time>2026-04-25T14:33:30.724Z</time></trkpt><trkpt lat="43.1236383" lon="10.979045"><ele>663.0</ele><time>2026-04-25T14:33:31.723Z</time></trkpt><trkpt lat="43.1238633" lon="10.9791083"><ele>663.0</ele><time>2026-04-25T14:33:32.724Z</time></trkpt><trkpt lat="43.1240983" lon="10.9791433"><ele>665.0</ele><time>2026-04-25T14:33:33.724Z</time></trkpt><trkpt lat="43.1243417" lon="10.9791533"><ele>667.0</ele><time>2026-04-25T14:33:34.724Z</time></trkpt><trkpt lat="43.12458" lon="10.9791417"><ele>667.0</ele><time>2026-04-25T14:33:35.723Z</time></trkpt><trkpt lat="43.1248067" lon="10.97909"><ele>667.0</ele><time>2026-04-25T14:33:36.724Z</time></trkpt><trkpt lat="43.1250167" lon="10.9790183"><ele>667.0</ele><time>2026-04-25T14:33:37.723Z</time></trkpt><trkpt lat="43.1252033" lon="10.9789383"><ele>669.6666666666667</ele><time>2026-04-25T14:33:38.726Z</time></trkpt><trkpt lat="43.1253867" lon="10.978885"><ele>672.3333333333334</ele><time>2026-04-25T14:33:39.724Z</time></trkpt><trkpt lat="43.125565" lon="10.9788583"><ele>675.0</ele><time>2026-04-25T14:33:40.725Z</time></trkpt><trkpt lat="43.1257533" lon="10.9788933"><ele>677.0</ele><time>2026-04-25T14:33:41.723Z</time></trkpt><trkpt lat="43.12594" lon="10.978965"><ele>679.0</ele><time>2026-04-25T14:33:42.724Z</time></trkpt><trkpt lat="43.1261167" lon="10.97906"><ele>681.0</ele><time>2026-04-25T14:33:43.723Z</time></trkpt><trkpt lat="43.1262633" lon="10.9791983"><ele>684.3333333333334</ele><time>2026-04-25T14:33:44.722Z</time></trkpt><trkpt lat="43.1263833" lon="10.979385"><ele>687.6666666666667</ele><time>2026-04-25T14:33:45.723Z</time></trkpt><trkpt lat="43.12649" lon="10.9796017"><ele>691.0</ele><time>2026-04-25T14:33:46.722Z</time></trkpt><trkpt lat="43.1266067" lon="10.9798233"><ele>694.6666666666667</ele><time>2026-04-25T14:33:47.726Z</time></trkpt><trkpt lat="43.126755" lon="10.980025"><ele>698.3333333333334</ele><time>2026-04-25T14:33:48.724Z</time></trkpt><trkpt lat="43.1269233" lon="10.9802367"><ele>702.0</ele><time>2026-04-25T14:33:49.724Z</time></trkpt><trkpt lat="43.1270983" lon="10.98044"><ele>702.0</ele><time>2026-04-25T14:33:50.725Z</time></trkpt><trkpt lat="43.1272883" lon="10.980635"><ele>702.0</ele><time>2026-04-25T14:33:51.724Z</time></trkpt><trkpt lat="43.1274933" lon="10.9807983"><ele>705.0</ele><time>2026-04-25T14:33:52.725Z</time></trkpt><trkpt lat="43.1277133" lon="10.9809383"><ele>708.0</ele><time>2026-04-25T14:33:53.725Z</time></trkpt><trkpt lat="43.1279367" lon="10.9810583"><ele>708.0</ele><time>2026-04-25T14:33:54.724Z</time></trkpt><trkpt lat="43.1281667" lon="10.9811433"><ele>708.0</ele><time>2026-04-25T14:33:55.724Z</time></trkpt><trkpt lat="43.1284017" lon="10.9811983"><ele>710.0</ele><time>2026-04-25T14:33:56.723Z</time></trkpt><trkpt lat="43.128635" lon="10.981225"><ele>712.0</ele><time>2026-04-25T14:33:57.722Z</time></trkpt><trkpt lat="43.1288583" lon="10.9812317"><ele>713.3333333333334</ele><time>2026-04-25T14:33:58.724Z</time></trkpt><trkpt lat="43.1290667" lon="10.981235"><ele>714.6666666666666</ele><time>2026-04-25T14:33:59.725Z</time></trkpt><trkpt lat="43.1292567" lon="10.9812167"><ele>716.0</ele><time>2026-04-25T14:34:00.723Z</time></trkpt><trkpt lat="43.1294217" lon="10.9811567"><ele>716.0</ele><time>2026-04-25T14:34:01.724Z</time></trkpt><trkpt lat="43.129565" lon="10.9810583"><ele>716.0</ele><time>2026-04-25T14:34:02.726Z</time></trkpt><trkpt lat="43.129685" lon="10.9808983"><ele>716.0</ele><time>2026-04-25T14:34:03.724Z</time></trkpt><trkpt lat="43.1297867" lon="10.9806933"><ele>717.0</ele><time>2026-04-25T14:34:04.723Z</time></trkpt><trkpt lat="43.1298783" lon="10.980495"><ele>718.0</ele><time>2026-04-25T14:34:05.724Z</time></trkpt><trkpt lat="43.1299833" lon="10.9803167"><ele>719.0</ele><time>2026-04-25T14:34:06.724Z</time></trkpt><trkpt lat="43.13011" lon="10.98018"><ele>719.0</ele><time>2026-04-25T14:34:07.724Z</time></trkpt><trkpt lat="43.130255" lon="10.9801033"><ele>719.0</ele><time>2026-04-25T14:34:08.724Z</time></trkpt><trkpt lat="43.1304183" lon="10.9800733"><ele>719.0</ele><time>2026-04-25T14:34:09.724Z</time></trkpt><trkpt lat="43.13059" lon="10.9800983"><ele>721.6666666666666</ele><time>2026-04-25T14:34:10.725Z</time></trkpt><trkpt lat="43.1307633" lon="10.9801467"><ele>724.3333333333334</ele><time>2026-04-25T14:34:11.727Z</time></trkpt><trkpt lat="43.1309283" lon="10.9802217"><ele>727.0</ele><time>2026-04-25T14:34:12.724Z</time></trkpt><trkpt lat="43.1310733" lon="10.98034"><ele>727.0</ele><time>2026-04-25T14:34:13.725Z</time></trkpt><trkpt lat="43.1311867" lon="10.980495"><ele>727.0</ele><time>2026-04-25T14:34:14.725Z</time></trkpt><trkpt lat="43.1312683" lon="10.9806867"><ele>727.0</ele><time>2026-04-25T14:34:15.724Z</time></trkpt><trkpt lat="43.1313017" lon="10.9809083"><ele>727.0</ele><time>2026-04-25T14:34:16.723Z</time></trkpt><trkpt lat="43.131295" lon="10.9811533"><ele>727.0</ele><time>2026-04-25T14:34:17.724Z</time></trkpt><trkpt lat="43.1312583" lon="10.981415"><ele>727.0</ele><time>2026-04-25T14:34:18.725Z</time></trkpt><trkpt lat="43.131215" lon="10.981695"><ele>724.6666666666667</ele><time>2026-04-25T14:34:19.726Z</time></trkpt><trkpt lat="43.1311633" lon="10.9819917"><ele>722.3333333333334</ele><time>2026-04-25T14:34:20.724Z</time></trkpt><trkpt lat="43.13111" lon="10.982285"><ele>720.0</ele><time>2026-04-25T14:34:21.726Z</time></trkpt><trkpt lat="43.1310633" lon="10.9825633"><ele>717.3333333333334</ele><time>2026-04-25T14:34:22.723Z</time></trkpt><trkpt lat="43.131015" lon="10.982825"><ele>714.6666666666667</ele><time>2026-04-25T14:34:23.726Z</time></trkpt><trkpt lat="43.130965" lon="10.9830733"><ele>712.0</ele><time>2026-04-25T14:34:24.724Z</time></trkpt><trkpt lat="43.1309" lon="10.983295"><ele>711.0</ele><time>2026-04-25T14:34:25.723Z</time></trkpt><trkpt lat="43.130805" lon="10.9834967"><ele>710.0</ele><time>2026-04-25T14:34:26.725Z</time></trkpt><trkpt lat="43.1306817" lon="10.983675"><ele>709.0</ele><time>2026-04-25T14:34:27.723Z</time></trkpt><trkpt lat="43.1305333" lon="10.98383"><ele>709.0</ele><time>2026-04-25T14:34:28.725Z</time></trkpt><trkpt lat="43.1303633" lon="10.9839767"><ele>709.0</ele><time>2026-04-25T14:34:29.724Z</time></trkpt><trkpt lat="43.1302" lon="10.984125"><ele>709.0</ele><time>2026-04-25T14:34:30.724Z</time></trkpt><trkpt lat="43.1300617" lon="10.9842983"><ele>707.0</ele><time>2026-04-25T14:34:31.724Z</time></trkpt><trkpt lat="43.1299583" lon="10.9845033"><ele>705.0</ele><time>2026-04-25T14:34:32.724Z</time></trkpt><trkpt lat="43.1298933" lon="10.98474"><ele>703.0</ele><time>2026-04-25T14:34:33.721Z</time></trkpt><trkpt lat="43.12986" lon="10.985025"><ele>710.0</ele><time>2026-04-25T14:34:34.722Z</time></trkpt><trkpt lat="43.12983" lon="10.9853283"><ele>717.0</ele><time>2026-04-25T14:34:35.724Z</time></trkpt><trkpt lat="43.1297883" lon="10.9856183"><ele>724.0</ele><time>2026-04-25T14:34:36.722Z</time></trkpt><trkpt lat="43.12976" lon="10.98589"><ele>725.6666666666667</ele><time>2026-04-25T14:34:37.722Z</time></trkpt><trkpt lat="43.12976" lon="10.98614"><ele>727.3333333333334</ele><time>2026-04-25T14:34:38.724Z</time></trkpt><trkpt lat="43.1297867" lon="10.9863767"><ele>729.0</ele><time>2026-04-25T14:34:39.724Z</time></trkpt><trkpt lat="43.1298683" lon="10.9866033"><ele>721.5</ele><time>2026-04-25T14:34:40.724Z</time></trkpt><trkpt lat="43.13002" lon="10.986825"><ele>714.0</ele><time>2026-04-25T14:34:41.724Z</time></trkpt><trkpt lat="43.1301833" lon="10.98706"><ele>714.0</ele><time>2026-04-25T14:34:42.724Z</time></trkpt><trkpt lat="43.13036" lon="10.9873133"><ele>714.0</ele><time>2026-04-25T14:34:43.723Z</time></trkpt><trkpt lat="43.1305283" lon="10.9875767"><ele>711.5</ele><time>2026-04-25T14:34:44.724Z</time></trkpt><trkpt lat="43.1307033" lon="10.9878433"><ele>709.0</ele><time>2026-04-25T14:34:45.723Z</time></trkpt><trkpt lat="43.1308833" lon="10.9881167"><ele>716.5</ele><time>2026-04-25T14:34:46.724Z</time></trkpt><trkpt lat="43.1310617" lon="10.9883917"><ele>724.0</ele><time>2026-04-25T14:34:47.724Z</time></trkpt><trkpt lat="43.1312367" lon="10.9886617"><ele>724.0</ele><time>2026-04-25T14:34:48.723Z</time></trkpt><trkpt lat="43.1313983" lon="10.9889233"><ele>724.0</ele><time>2026-04-25T14:34:49.724Z</time></trkpt><trkpt lat="43.131555" lon="10.989155"><ele>723.0</ele><time>2026-04-25T14:34:50.723Z</time></trkpt><trkpt lat="43.1317" lon="10.9893817"><ele>722.0</ele><time>2026-04-25T14:34:51.724Z</time></trkpt><trkpt lat="43.13183" lon="10.9895933"><ele>721.0</ele><time>2026-04-25T14:34:52.724Z</time></trkpt><trkpt lat="43.1319267" lon="10.9898033"><ele>720.0</ele><time>2026-04-25T14:34:53.723Z</time></trkpt><trkpt lat="43.1319733" lon="10.9900267"><ele>719.0</ele><time>2026-04-25T14:34:54.725Z</time></trkpt><trkpt lat="43.1319683" lon="10.9902483"><ele>718.0</ele><time>2026-04-25T14:34:55.724Z</time></trkpt><trkpt lat="43.1319083" lon="10.99045"><ele>718.0</ele><time>2026-04-25T14:34:56.725Z</time></trkpt><trkpt lat="43.1317917" lon="10.990635"><ele>718.0</ele><time>2026-04-25T14:34:57.724Z</time></trkpt><trkpt lat="43.131585" lon="10.99083"><ele>718.0</ele><time>2026-04-25T14:34:58.724Z</time></trkpt><trkpt lat="43.13141" lon="10.991045"><ele>723.0</ele><time>2026-04-25T14:34:59.723Z</time></trkpt><trkpt lat="43.1312383" lon="10.9912833"><ele>728.0</ele><time>2026-04-25T14:35:00.724Z</time></trkpt><trkpt lat="43.1310683" lon="10.991515"><ele>730.3333333333333</ele><time>2026-04-25T14:35:01.723Z</time></trkpt><trkpt lat="43.1309067" lon="10.9917233"><ele>732.6666666666666</ele><time>2026-04-25T14:35:02.724Z</time></trkpt><trkpt lat="43.1307383" lon="10.9919033"><ele>735.0</ele><time>2026-04-25T14:35:03.722Z</time></trkpt><trkpt lat="43.1305633" lon="10.9920733"><ele>735.0</ele><time>2026-04-25T14:35:04.723Z</time></trkpt><trkpt lat="43.1303917" lon="10.9922483"><ele>735.0</ele><time>2026-04-25T14:35:05.723Z</time></trkpt><trkpt lat="43.1302333" lon="10.9924217"><ele>735.0</ele><time>2026-04-25T14:35:06.723Z</time></trkpt><trkpt lat="43.130105" lon="10.9925833"><ele>733.75</ele><time>2026-04-25T14:35:07.725Z</time></trkpt><trkpt lat="43.1300083" lon="10.992745"><ele>732.5</ele><time>2026-04-25T14:35:08.724Z</time></trkpt><trkpt lat="43.12997" lon="10.9929083"><ele>731.25</ele><time>2026-04-25T14:35:09.723Z</time></trkpt><trkpt lat="43.1299717" lon="10.9930783"><ele>730.0</ele><time>2026-04-25T14:35:10.724Z</time></trkpt><trkpt lat="43.1300217" lon="10.9932517"><ele>737.0</ele><time>2026-04-25T14:35:11.723Z</time></trkpt><trkpt lat="43.1301183" lon="10.993385"><ele>744.0</ele><time>2026-04-25T14:35:12.723Z</time></trkpt><trkpt lat="43.1302533" lon="10.9934567"><ele>751.0</ele><time>2026-04-25T14:35:13.725Z</time></trkpt><trkpt lat="43.1304283" lon="10.9934017"><ele>744.0</ele><time>2026-04-25T14:35:14.726Z</time></trkpt><trkpt lat="43.1306" lon="10.99331"><ele>737.0</ele><time>2026-04-25T14:35:15.725Z</time></trkpt><trkpt lat="43.1307633" lon="10.9932333"><ele>730.0</ele><time>2026-04-25T14:35:16.725Z</time></trkpt><trkpt lat="43.13093" lon="10.9932167"><ele>728.0</ele><time>2026-04-25T14:35:17.726Z</time></trkpt><trkpt lat="43.131095" lon="10.9932667"><ele>726.0</ele><time>2026-04-25T14:35:18.725Z</time></trkpt><trkpt lat="43.1312633" lon="10.99338"><ele>724.0</ele><time>2026-04-25T14:35:19.727Z</time></trkpt><trkpt lat="43.1314317" lon="10.9935017"><ele>732.0</ele><time>2026-04-25T14:35:20.725Z</time></trkpt><trkpt lat="43.1315983" lon="10.9935817"><ele>740.0</ele><time>2026-04-25T14:35:21.724Z</time></trkpt><trkpt lat="43.1317767" lon="10.9935867"><ele>748.0</ele><time>2026-04-25T14:35:22.724Z</time></trkpt><trkpt lat="43.1319667" lon="10.9935767"><ele>748.0</ele><time>2026-04-25T14:35:23.724Z</time></trkpt><trkpt lat="43.1321733" lon="10.9936183"><ele>748.0</ele><time>2026-04-25T14:35:24.723Z</time></trkpt><trkpt lat="43.132395" lon="10.993705"><ele>748.0</ele><time>2026-04-25T14:35:25.724Z</time></trkpt><trkpt lat="43.1326333" lon="10.99378"><ele>742.0</ele><time>2026-04-25T14:35:26.724Z</time></trkpt><trkpt lat="43.132875" lon="10.9938667"><ele>736.0</ele><time>2026-04-25T14:35:27.724Z</time></trkpt><trkpt lat="43.1331117" lon="10.99399"><ele>743.0</ele><time>2026-04-25T14:35:28.724Z</time></trkpt><trkpt lat="43.13335" lon="10.9941233"><ele>750.0</ele><time>2026-04-25T14:35:29.724Z</time></trkpt><trkpt lat="43.1335983" lon="10.99423"><ele>750.0</ele><time>2026-04-25T14:35:30.723Z</time></trkpt><trkpt lat="43.133845" lon="10.99432"><ele>750.0</ele><time>2026-04-25T14:35:31.724Z</time></trkpt><trkpt lat="43.1340717" lon="10.994425"><ele>740.6666666666666</ele><time>2026-04-25T14:35:32.724Z</time></trkpt><trkpt lat="43.13427" lon="10.994555"><ele>731.3333333333333</ele><time>2026-04-25T14:35:33.724Z</time></trkpt><trkpt lat="43.13444" lon="10.99472"><ele>722.0</ele><time>2026-04-25T14:35:34.724Z</time></trkpt><trkpt lat="43.13458" lon="10.9949083"><ele>719.0</ele><time>2026-04-25T14:35:35.724Z</time></trkpt><trkpt lat="43.1347" lon="10.995155"><ele>716.0</ele><time>2026-04-25T14:35:36.725Z</time></trkpt><trkpt lat="43.1348117" lon="10.9954117"><ele>713.0</ele><time>2026-04-25T14:35:37.725Z</time></trkpt><trkpt lat="43.1349333" lon="10.995635"><ele>713.0</ele><time>2026-04-25T14:35:38.725Z</time></trkpt><trkpt lat="43.1350517" lon="10.995835"><ele>713.0</ele><time>2026-04-25T14:35:39.725Z</time></trkpt><trkpt lat="43.1351533" lon="10.99604"><ele>713.0</ele><time>2026-04-25T14:35:40.724Z</time></trkpt><trkpt lat="43.1352217" lon="10.9962833"><ele>717.3333333333333</ele><time>2026-04-25T14:35:41.723Z</time></trkpt><trkpt lat="43.1352717" lon="10.9965583"><ele>721.6666666666666</ele><time>2026-04-25T14:35:42.723Z</time></trkpt><trkpt lat="43.1353317" lon="10.9968433"><ele>726.0</ele><time>2026-04-25T14:35:43.725Z</time></trkpt><trkpt lat="43.1354333" lon="10.9971333"><ele>726.5</ele><time>2026-04-25T14:35:44.725Z</time></trkpt><trkpt lat="43.1355483" lon="10.9974233"><ele>727.0</ele><time>2026-04-25T14:35:45.723Z</time></trkpt><trkpt lat="43.135665" lon="10.9976967"><ele>720.0</ele><time>2026-04-25T14:35:46.724Z</time></trkpt><trkpt lat="43.1357767" lon="10.9979417"><ele>713.0</ele><time>2026-04-25T14:35:47.724Z</time></trkpt><trkpt lat="43.1358683" lon="10.9981617"><ele>706.0</ele><time>2026-04-25T14:35:48.724Z</time></trkpt><trkpt lat="43.1359117" lon="10.9983683"><ele>706.0</ele><time>2026-04-25T14:35:49.723Z</time></trkpt><trkpt lat="43.13591" lon="10.9985733"><ele>706.0</ele><time>2026-04-25T14:35:50.725Z</time></trkpt><trkpt lat="43.1358617" lon="10.9987633"><ele>706.0</ele><time>2026-04-25T14:35:51.724Z</time></trkpt><trkpt lat="43.13578" lon="10.99892"><ele>706.0</ele><time>2026-04-25T14:35:52.724Z</time></trkpt><trkpt lat="43.1356667" lon="10.999035"><ele>708.0</ele><time>2026-04-25T14:35:53.724Z</time></trkpt><trkpt lat="43.1355117" lon="10.999115"><ele>710.0</ele><time>2026-04-25T14:35:54.723Z</time></trkpt><trkpt lat="43.1353317" lon="10.9991917"><ele>712.0</ele><time>2026-04-25T14:35:55.724Z</time></trkpt><trkpt lat="43.135145" lon="10.9992783"><ele>712.0</ele><time>2026-04-25T14:35:56.723Z</time></trkpt><trkpt lat="43.13501" lon="10.9994017"><ele>712.0</ele><time>2026-04-25T14:35:57.724Z</time></trkpt><trkpt lat="43.1348717" lon="10.9995333"><ele>712.0</ele><time>2026-04-25T14:35:58.724Z</time></trkpt><trkpt lat="43.1347883" lon="10.999685"><ele>720.0</ele><time>2026-04-25T14:35:59.724Z</time></trkpt><trkpt lat="43.134755" lon="10.9998633"><ele>728.0</ele><time>2026-04-25T14:36:00.724Z</time></trkpt><trkpt lat="43.1347717" lon="11.0000717"><ele>736.0</ele><time>2026-04-25T14:36:01.725Z</time></trkpt><trkpt lat="43.13483" lon="11.00032"><ele>730.6666666666667</ele><time>2026-04-25T14:36:02.725Z</time></trkpt><trkpt lat="43.1349317" lon="11.000565"><ele>725.3333333333334</ele><time>2026-04-25T14:36:03.724Z</time></trkpt><trkpt lat="43.1350283" lon="11.00079"><ele>720.0</ele><time>2026-04-25T14:36:04.724Z</time></trkpt><trkpt lat="43.1351483" lon="11.0009833"><ele>720.0</ele><time>2026-04-25T14:36:05.724Z</time></trkpt><trkpt lat="43.1352767" lon="11.001145"><ele>720.0</ele><time>2026-04-25T14:36:06.725Z</time></trkpt><trkpt lat="43.1353883" lon="11.0013017"><ele>720.0</ele><time>2026-04-25T14:36:07.726Z</time></trkpt><trkpt lat="43.1354933" lon="11.001465"><ele>720.0</ele><time>2026-04-25T14:36:08.724Z</time></trkpt><trkpt lat="43.13558" lon="11.0016583"><ele>720.0</ele><time>2026-04-25T14:36:09.726Z</time></trkpt><trkpt lat="43.1356417" lon="11.001875"><ele>720.0</ele><time>2026-04-25T14:36:10.723Z</time></trkpt><trkpt lat="43.1356933" lon="11.002095"><ele>717.6666666666666</ele><time>2026-04-25T14:36:11.725Z</time></trkpt><trkpt lat="43.1357233" lon="11.00233"><ele>715.3333333333333</ele><time>2026-04-25T14:36:12.724Z</time></trkpt><trkpt lat="43.13573" lon="11.0025667"><ele>713.0</ele><time>2026-04-25T14:36:13.724Z</time></trkpt><trkpt lat="43.1357083" lon="11.0028117"><ele>723.0</ele><time>2026-04-25T14:36:14.725Z</time></trkpt><trkpt lat="43.1356633" lon="11.0030517"><ele>733.0</ele><time>2026-04-25T14:36:15.724Z</time></trkpt><trkpt lat="43.1356067" lon="11.003285"><ele>743.0</ele><time>2026-04-25T14:36:16.724Z</time></trkpt><trkpt lat="43.13555" lon="11.003515"><ele>743.0</ele><time>2026-04-25T14:36:17.724Z</time></trkpt><trkpt lat="43.1354933" lon="11.003755"><ele>743.0</ele><time>2026-04-25T14:36:18.724Z</time></trkpt><trkpt lat="43.1354333" lon="11.0040117"><ele>743.0</ele><time>2026-04-25T14:36:19.724Z</time></trkpt><trkpt lat="43.1353717" lon="11.0042933"><ele>740.3333333333333</ele><time>2026-04-25T14:36:20.724Z</time></trkpt><trkpt lat="43.1353117" lon="11.004585"><ele>737.6666666666666</ele><time>2026-04-25T14:36:21.724Z</time></trkpt><trkpt lat="43.135245" lon="11.0048783"><ele>735.0</ele><time>2026-04-25T14:36:22.723Z</time></trkpt><trkpt lat="43.135175" lon="11.005165"><ele>733.6666666666666</ele><time>2026-04-25T14:36:23.724Z</time></trkpt><trkpt lat="43.1351117" lon="11.0054417"><ele>732.3333333333333</ele><time>2026-04-25T14:36:24.724Z</time></trkpt><trkpt lat="43.135045" lon="11.0056967"><ele>731.0</ele><time>2026-04-25T14:36:25.723Z</time></trkpt><trkpt lat="43.13492" lon="11.0059217"><ele>737.0</ele><time>2026-04-25T14:36:26.725Z</time></trkpt><trkpt lat="43.1348033" lon="11.006095"><ele>743.0</ele><time>2026-04-25T14:36:27.724Z</time></trkpt><trkpt lat="43.1346767" lon="11.0062283"><ele>749.0</ele><time>2026-04-25T14:36:28.724Z</time></trkpt><trkpt lat="43.1345633" lon="11.0063567"><ele>749.0</ele><time>2026-04-25T14:36:29.723Z</time></trkpt><trkpt lat="43.1345483" lon="11.006495"><ele>749.0</ele><time>2026-04-25T14:36:30.723Z</time></trkpt><trkpt lat="43.1345883" lon="11.006645"><ele>749.0</ele><time>2026-04-25T14:36:31.727Z</time></trkpt><trkpt lat="43.13468" lon="11.0067917"><ele>749.0</ele><time>2026-04-25T14:36:32.724Z</time></trkpt><trkpt lat="43.1347733" lon="11.00696"><ele>747.3333333333333</ele><time>2026-04-25T14:36:33.724Z</time></trkpt><trkpt lat="43.1348433" lon="11.0071467"><ele>745.6666666666666</ele><time>2026-04-25T14:36:34.724Z</time></trkpt><trkpt lat="43.1348683" lon="11.0073667"><ele>744.0</ele><time>2026-04-25T14:36:35.726Z</time></trkpt><trkpt lat="43.1348483" lon="11.007605"><ele>747.6666666666666</ele><time>2026-04-25T14:36:36.723Z</time></trkpt><trkpt lat="43.1347917" lon="11.0078733"><ele>751.3333333333333</ele><time>2026-04-25T14:36:37.724Z</time></trkpt><trkpt lat="43.134715" lon="11.0081483"><ele>755.0</ele><time>2026-04-25T14:36:38.725Z</time></trkpt><trkpt lat="43.1346317" lon="11.0084217"><ele>755.0</ele><time>2026-04-25T14:36:39.723Z</time></trkpt><trkpt lat="43.1345583" lon="11.0086817"><ele>755.0</ele><time>2026-04-25T14:36:40.724Z</time></trkpt><trkpt lat="43.1345283" lon="11.0089333"><ele>755.0</ele><time>2026-04-25T14:36:41.724Z</time></trkpt><trkpt lat="43.1345567" lon="11.009185"><ele>752.0</ele><time>2026-04-25T14:36:42.726Z</time></trkpt><trkpt lat="43.1345933" lon="11.0094467"><ele>749.0</ele><time>2026-04-25T14:36:43.727Z</time></trkpt><trkpt lat="43.134665" lon="11.0097017"><ele>746.0</ele><time>2026-04-25T14:36:44.726Z</time></trkpt><trkpt lat="43.1347533" lon="11.0099567"><ele>748.0</ele><time>2026-04-25T14:36:45.725Z</time></trkpt><trkpt lat="43.1348467" lon="11.010205"><ele>750.0</ele><time>2026-04-25T14:36:46.723Z</time></trkpt><trkpt lat="43.1349433" lon="11.0104567"><ele>752.0</ele><time>2026-04-25T14:36:47.724Z</time></trkpt><trkpt lat="43.1350433" lon="11.0106967"><ele>743.6666666666666</ele><time>2026-04-25T14:36:48.724Z</time></trkpt><trkpt lat="43.135145" lon="11.0109317"><ele>735.3333333333334</ele><time>2026-04-25T14:36:49.724Z</time></trkpt><trkpt lat="43.1352417" lon="11.0111717"><ele>727.0</ele><time>2026-04-25T14:36:50.726Z</time></trkpt><trkpt lat="43.1353467" lon="11.0114083"><ele>727.0</ele><time>2026-04-25T14:36:51.723Z</time></trkpt><trkpt lat="43.1354417" lon="11.0116517"><ele>727.0</ele><time>2026-04-25T14:36:52.723Z</time></trkpt><trkpt lat="43.1355367" lon="11.011895"><ele>727.0</ele><time>2026-04-25T14:36:53.725Z</time></trkpt><trkpt lat="43.1356333" lon="11.0121383"><ele>724.0</ele><time>2026-04-25T14:36:54.725Z</time></trkpt><trkpt lat="43.13573" lon="11.0123867"><ele>721.0</ele><time>2026-04-25T14:36:55.725Z</time></trkpt><trkpt lat="43.1358267" lon="11.0126383"><ele>718.0</ele><time>2026-04-25T14:36:56.724Z</time></trkpt><trkpt lat="43.1359267" lon="11.0128867"><ele>718.0</ele><time>2026-04-25T14:36:57.724Z</time></trkpt><trkpt lat="43.13603" lon="11.0131317"><ele>718.0</ele><time>2026-04-25T14:36:58.725Z</time></trkpt><trkpt lat="43.13613" lon="11.0133783"><ele>718.0</ele><time>2026-04-25T14:36:59.726Z</time></trkpt><trkpt lat="43.13623" lon="11.013625"><ele>715.6666666666667</ele><time>2026-04-25T14:37:00.724Z</time></trkpt><trkpt lat="43.136325" lon="11.01387"><ele>713.3333333333334</ele><time>2026-04-25T14:37:01.724Z</time></trkpt><trkpt lat="43.136415" lon="11.0141183"><ele>711.0</ele><time>2026-04-25T14:37:02.724Z</time></trkpt><trkpt lat="43.136485" lon="11.0143817"><ele>712.3333333333334</ele><time>2026-04-25T14:37:03.726Z</time></trkpt><trkpt lat="43.1365317" lon="11.0146533"><ele>713.6666666666667</ele><time>2026-04-25T14:37:04.724Z</time></trkpt><trkpt lat="43.1365633" lon="11.01493"><ele>715.0</ele><time>2026-04-25T14:37:05.724Z</time></trkpt><trkpt lat="43.1365917" lon="11.0152017"><ele>711.6666666666667</ele><time>2026-04-25T14:37:06.726Z</time></trkpt><trkpt lat="43.136625" lon="11.0154633"><ele>708.3333333333334</ele><time>2026-04-25T14:37:07.723Z</time></trkpt><trkpt lat="43.1366517" lon="11.0157217"><ele>705.0</ele><time>2026-04-25T14:37:08.722Z</time></trkpt><trkpt lat="43.1366583" lon="11.0159717"><ele>702.3333333333334</ele><time>2026-04-25T14:37:09.724Z</time></trkpt><trkpt lat="43.1366367" lon="11.016215"><ele>699.6666666666667</ele><time>2026-04-25T14:37:10.724Z</time></trkpt><trkpt lat="43.13659" lon="11.016455"><ele>697.0</ele><time>2026-04-25T14:37:11.723Z</time></trkpt><trkpt lat="43.1365283" lon="11.01668"><ele>692.6666666666667</ele><time>2026-04-25T14:37:12.723Z</time></trkpt><trkpt lat="43.1364667" lon="11.0169033"><ele>688.3333333333334</ele><time>2026-04-25T14:37:13.724Z</time></trkpt><trkpt lat="43.13641" lon="11.0171183"><ele>684.0</ele><time>2026-04-25T14:37:14.724Z</time></trkpt><trkpt lat="43.136365" lon="11.0173133"><ele>684.0</ele><time>2026-04-25T14:37:15.725Z</time></trkpt><trkpt lat="43.1363283" lon="11.0174783"><ele>684.0</ele><time>2026-04-25T14:37:16.723Z</time></trkpt><trkpt lat="43.1362917" lon="11.017615"><ele>684.0</ele><time>2026-04-25T14:37:17.724Z</time></trkpt><trkpt lat="43.1362533" lon="11.0177317"><ele>684.0</ele><time>2026-04-25T14:37:18.725Z</time></trkpt><trkpt lat="43.1362083" lon="11.0178317"><ele>684.0</ele><time>2026-04-25T14:37:19.725Z</time></trkpt><trkpt lat="43.1361483" lon="11.01792"><ele>683.6666666666666</ele><time>2026-04-25T14:37:20.726Z</time></trkpt><trkpt lat="43.1360867" lon="11.0179983"><ele>683.3333333333334</ele><time>2026-04-25T14:37:21.724Z</time></trkpt><trkpt lat="43.13603" lon="11.0180783"><ele>683.0</ele><time>2026-04-25T14:37:22.723Z</time></trkpt><trkpt lat="43.13599" lon="11.0181567"><ele>682.6666666666667</ele><time>2026-04-25T14:37:23.727Z</time></trkpt><trkpt lat="43.135965" lon="11.0183133"><ele>682.3333333333334</ele><time>2026-04-25T14:37:25.725Z</time></trkpt><trkpt lat="43.1359933" lon="11.0184167"><ele>682.0</ele><time>2026-04-25T14:37:26.724Z</time></trkpt><trkpt lat="43.136035" lon="11.018535"><ele>680.75</ele><time>2026-04-25T14:37:27.725Z</time></trkpt><trkpt lat="43.1360717" lon="11.0187133"><ele>679.5</ele><time>2026-04-25T14:37:28.725Z</time></trkpt><trkpt lat="43.1360883" lon="11.018925"><ele>678.25</ele><time>2026-04-25T14:37:29.724Z</time></trkpt><trkpt lat="43.1360883" lon="11.0191367"><ele>677.0</ele><time>2026-04-25T14:37:30.725Z</time></trkpt><trkpt lat="43.1360783" lon="11.0193383"><ele>675.75</ele><time>2026-04-25T14:37:31.726Z</time></trkpt><trkpt lat="43.136075" lon="11.0195283"><ele>674.5</ele><time>2026-04-25T14:37:32.724Z</time></trkpt><trkpt lat="43.1361067" lon="11.019705"><ele>673.25</ele><time>2026-04-25T14:37:33.724Z</time></trkpt><trkpt lat="43.1361533" lon="11.0198517"><ele>672.0</ele><time>2026-04-25T14:37:34.725Z</time></trkpt><trkpt lat="43.1362267" lon="11.0199567"><ele>671.5</ele><time>2026-04-25T14:37:35.723Z</time></trkpt><trkpt lat="43.1363283" lon="11.0199967"><ele>671.0</ele><time>2026-04-25T14:37:36.724Z</time></trkpt><trkpt lat="43.1364533" lon="11.019985"><ele>670.5</ele><time>2026-04-25T14:37:37.724Z</time></trkpt><trkpt lat="43.136625" lon="11.0199167"><ele>670.0</ele><time>2026-04-25T14:37:38.725Z</time></trkpt><trkpt lat="43.1368083" lon="11.0198317"><ele>677.0</ele><time>2026-04-25T14:37:39.723Z</time></trkpt><trkpt lat="43.1369967" lon="11.0197317"><ele>684.0</ele><time>2026-04-25T14:37:40.725Z</time></trkpt><trkpt lat="43.1371633" lon="11.0196183"><ele>691.0</ele><time>2026-04-25T14:37:41.725Z</time></trkpt><trkpt lat="43.1373167" lon="11.0195167"><ele>689.0</ele><time>2026-04-25T14:37:42.725Z</time></trkpt><trkpt lat="43.1374617" lon="11.019435"><ele>687.0</ele><time>2026-04-25T14:37:43.725Z</time></trkpt><trkpt lat="43.137605" lon="11.0193967"><ele>685.0</ele><time>2026-04-25T14:37:44.725Z</time></trkpt><trkpt lat="43.1377283" lon="11.0194083"><ele>683.0</ele><time>2026-04-25T14:37:45.725Z</time></trkpt><trkpt lat="43.137835" lon="11.0194767"><ele>683.0</ele><time>2026-04-25T14:37:46.724Z</time></trkpt><trkpt lat="43.13792" lon="11.0196067"><ele>683.0</ele><time>2026-04-25T14:37:47.722Z</time></trkpt><trkpt lat="43.1379917" lon="11.01978"><ele>683.0</ele><time>2026-04-25T14:37:48.724Z</time></trkpt><trkpt lat="43.138075" lon="11.0199583"><ele>683.0</ele><time>2026-04-25T14:37:49.725Z</time></trkpt><trkpt lat="43.1381883" lon="11.0201183"><ele>684.0</ele><time>2026-04-25T14:37:50.726Z</time></trkpt><trkpt lat="43.1383067" lon="11.020255"><ele>685.0</ele><time>2026-04-25T14:37:51.724Z</time></trkpt><trkpt lat="43.13843" lon="11.0203667"><ele>686.0</ele><time>2026-04-25T14:37:52.725Z</time></trkpt><trkpt lat="43.1385617" lon="11.0204283"><ele>687.0</ele><time>2026-04-25T14:37:53.724Z</time></trkpt><trkpt lat="43.1387067" lon="11.0204583"><ele>687.0</ele><time>2026-04-25T14:37:54.724Z</time></trkpt><trkpt lat="43.138845" lon="11.020475"><ele>687.0</ele><time>2026-04-25T14:37:55.727Z</time></trkpt><trkpt lat="43.138975" lon="11.0205517"><ele>687.0</ele><time>2026-04-25T14:37:56.725Z</time></trkpt><trkpt lat="43.1390967" lon="11.0206783"><ele>687.0</ele><time>2026-04-25T14:37:57.724Z</time></trkpt><trkpt lat="43.13922" lon="11.0208333"><ele>683.6666666666666</ele><time>2026-04-25T14:37:58.725Z</time></trkpt><trkpt lat="43.13937" lon="11.02099"><ele>680.3333333333333</ele><time>2026-04-25T14:37:59.725Z</time></trkpt><trkpt lat="43.13953" lon="11.0211417"><ele>677.0</ele><time>2026-04-25T14:38:00.725Z</time></trkpt><trkpt lat="43.1396983" lon="11.021285"><ele>677.0</ele><time>2026-04-25T14:38:01.725Z</time></trkpt><trkpt lat="43.1398767" lon="11.0214083"><ele>677.0</ele><time>2026-04-25T14:38:02.727Z</time></trkpt><trkpt lat="43.1400467" lon="11.021525"><ele>677.0</ele><time>2026-04-25T14:38:03.723Z</time></trkpt><trkpt lat="43.1402" lon="11.0216683"><ele>677.6666666666666</ele><time>2026-04-25T14:38:04.725Z</time></trkpt><trkpt lat="43.1403333" lon="11.0218367"><ele>678.3333333333334</ele><time>2026-04-25T14:38:05.725Z</time></trkpt><trkpt lat="43.1404467" lon="11.0220267"><ele>679.0</ele><time>2026-04-25T14:38:06.723Z</time></trkpt><trkpt lat="43.1405583" lon="11.02222"><ele>679.0</ele><time>2026-04-25T14:38:07.724Z</time></trkpt><trkpt lat="43.1406767" lon="11.0223917"><ele>679.0</ele><time>2026-04-25T14:38:08.725Z</time></trkpt><trkpt lat="43.1408183" lon="11.02255"><ele>679.0</ele><time>2026-04-25T14:38:09.725Z</time></trkpt><trkpt lat="43.14098" lon="11.022675"><ele>680.3333333333334</ele><time>2026-04-25T14:38:10.726Z</time></trkpt><trkpt lat="43.1411567" lon="11.0227867"><ele>681.6666666666666</ele><time>2026-04-25T14:38:11.725Z</time></trkpt><trkpt lat="43.1413417" lon="11.0229017"><ele>683.0</ele><time>2026-04-25T14:38:12.726Z</time></trkpt><trkpt lat="43.1415283" lon="11.0230167"><ele>680.3333333333333</ele><time>2026-04-25T14:38:13.725Z</time></trkpt><trkpt lat="43.1417117" lon="11.0231283"><ele>677.6666666666666</ele><time>2026-04-25T14:38:14.726Z</time></trkpt><trkpt lat="43.1418883" lon="11.02322"><ele>675.0</ele><time>2026-04-25T14:38:15.724Z</time></trkpt><trkpt lat="43.14206" lon="11.023295"><ele>673.6666666666666</ele><time>2026-04-25T14:38:16.723Z</time></trkpt><trkpt lat="43.1422367" lon="11.0233233"><ele>672.3333333333333</ele><time>2026-04-25T14:38:17.724Z</time></trkpt><trkpt lat="43.1424233" lon="11.0232933"><ele>671.0</ele><time>2026-04-25T14:38:18.725Z</time></trkpt><trkpt lat="43.1426083" lon="11.0232217"><ele>671.0</ele><time>2026-04-25T14:38:19.728Z</time></trkpt><trkpt lat="43.1428033" lon="11.0231383"><ele>671.0</ele><time>2026-04-25T14:38:20.727Z</time></trkpt><trkpt lat="43.1430033" lon="11.02305"><ele>671.0</ele><time>2026-04-25T14:38:21.726Z</time></trkpt><trkpt lat="43.1432033" lon="11.022955"><ele>671.0</ele><time>2026-04-25T14:38:22.724Z</time></trkpt><trkpt lat="43.1434033" lon="11.0228317"><ele>671.0</ele><time>2026-04-25T14:38:23.724Z</time></trkpt><trkpt lat="43.14359" lon="11.022685"><ele>671.0</ele><time>2026-04-25T14:38:24.724Z</time></trkpt><trkpt lat="43.1437667" lon="11.0225317"><ele>668.3333333333333</ele><time>2026-04-25T14:38:25.725Z</time></trkpt><trkpt lat="43.1439333" lon="11.022385"><ele>665.6666666666666</ele><time>2026-04-25T14:38:26.726Z</time></trkpt><trkpt lat="43.14409" lon="11.022265"><ele>663.0</ele><time>2026-04-25T14:38:27.724Z</time></trkpt><trkpt lat="43.144245" lon="11.0221817"><ele>663.0</ele><time>2026-04-25T14:38:28.726Z</time></trkpt><trkpt lat="43.14441" lon="11.0221383"><ele>663.0</ele><time>2026-04-25T14:38:29.725Z</time></trkpt><trkpt lat="43.1445817" lon="11.0221317"><ele>663.0</ele><time>2026-04-25T14:38:30.723Z</time></trkpt><trkpt lat="43.1447567" lon="11.0221767"><ele>661.0</ele><time>2026-04-25T14:38:31.726Z</time></trkpt><trkpt lat="43.1449267" lon="11.022255"><ele>659.0</ele><time>2026-04-25T14:38:32.725Z</time></trkpt><trkpt lat="43.1450917" lon="11.022335"><ele>657.0</ele><time>2026-04-25T14:38:33.725Z</time></trkpt><trkpt lat="43.1452433" lon="11.02238"><ele>657.0</ele><time>2026-04-25T14:38:34.725Z</time></trkpt><trkpt lat="43.145395" lon="11.02237"><ele>657.0</ele><time>2026-04-25T14:38:35.725Z</time></trkpt><trkpt lat="43.145545" lon="11.0223017"><ele>657.0</ele><time>2026-04-25T14:38:36.725Z</time></trkpt><trkpt lat="43.145705" lon="11.022175"><ele>656.3333333333334</ele><time>2026-04-25T14:38:37.725Z</time></trkpt><trkpt lat="43.1458733" lon="11.0220333"><ele>655.6666666666667</ele><time>2026-04-25T14:38:38.724Z</time></trkpt><trkpt lat="43.1460417" lon="11.0218933"><ele>655.0</ele><time>2026-04-25T14:38:39.726Z</time></trkpt><trkpt lat="43.1461983" lon="11.021765"><ele>655.0</ele><time>2026-04-25T14:38:40.724Z</time></trkpt><trkpt lat="43.1463617" lon="11.021675"><ele>655.0</ele><time>2026-04-25T14:38:41.726Z</time></trkpt><trkpt lat="43.146535" lon="11.0216383"><ele>655.0</ele><time>2026-04-25T14:38:42.724Z</time></trkpt><trkpt lat="43.1467017" lon="11.02162"><ele>653.0</ele><time>2026-04-25T14:38:43.726Z</time></trkpt><trkpt lat="43.1468617" lon="11.0216083"><ele>651.0</ele><time>2026-04-25T14:38:44.724Z</time></trkpt><trkpt lat="43.1470133" lon="11.0215933"><ele>649.0</ele><time>2026-04-25T14:38:45.724Z</time></trkpt><trkpt lat="43.1471467" lon="11.0215517"><ele>647.0</ele><time>2026-04-25T14:38:46.724Z</time></trkpt><trkpt lat="43.1472667" lon="11.0214617"><ele>647.0</ele><time>2026-04-25T14:38:47.724Z</time></trkpt><trkpt lat="43.1473467" lon="11.02131"><ele>647.0</ele><time>2026-04-25T14:38:48.723Z</time></trkpt><trkpt lat="43.1474133" lon="11.02113"><ele>647.0</ele><time>2026-04-25T14:38:49.725Z</time></trkpt><trkpt lat="43.1474833" lon="11.0209317"><ele>647.0</ele><time>2026-04-25T14:38:50.724Z</time></trkpt><trkpt lat="43.14757" lon="11.0207383"><ele>646.0</ele><time>2026-04-25T14:38:51.725Z</time></trkpt><trkpt lat="43.1476917" lon="11.0205783"><ele>645.0</ele><time>2026-04-25T14:38:52.725Z</time></trkpt><trkpt lat="43.14784" lon="11.0204517"><ele>644.0</ele><time>2026-04-25T14:38:53.725Z</time></trkpt><trkpt lat="43.14801" lon="11.020335"><ele>644.0</ele><time>2026-04-25T14:38:54.725Z</time></trkpt><trkpt lat="43.1481833" lon="11.02021"><ele>644.0</ele><time>2026-04-25T14:38:55.723Z</time></trkpt><trkpt lat="43.14835" lon="11.020095"><ele>644.0</ele><time>2026-04-25T14:38:56.724Z</time></trkpt><trkpt lat="43.1484933" lon="11.0199633"><ele>644.0</ele><time>2026-04-25T14:38:57.724Z</time></trkpt><trkpt lat="43.148615" lon="11.01981"><ele>644.0</ele><time>2026-04-25T14:38:58.725Z</time></trkpt><trkpt lat="43.1487117" lon="11.0196267"><ele>644.0</ele><time>2026-04-25T14:38:59.725Z</time></trkpt><trkpt lat="43.1487933" lon="11.0194167"><ele>644.0</ele><time>2026-04-25T14:39:00.726Z</time></trkpt><trkpt lat="43.1488583" lon="11.019195"><ele>644.0</ele><time>2026-04-25T14:39:01.726Z</time></trkpt><trkpt lat="43.148925" lon="11.0189783"><ele>644.0</ele><time>2026-04-25T14:39:02.726Z</time></trkpt><trkpt lat="43.1490017" lon="11.0187667"><ele>644.6666666666666</ele><time>2026-04-25T14:39:03.726Z</time></trkpt><trkpt lat="43.1491" lon="11.0185683"><ele>645.3333333333334</ele><time>2026-04-25T14:39:04.725Z</time></trkpt><trkpt lat="43.1492217" lon="11.0183917"><ele>646.0</ele><time>2026-04-25T14:39:05.725Z</time></trkpt><trkpt lat="43.14937" lon="11.0182417"><ele>645.0</ele><time>2026-04-25T14:39:06.725Z</time></trkpt><trkpt lat="43.1495417" lon="11.0181167"><ele>644.0</ele><time>2026-04-25T14:39:07.725Z</time></trkpt><trkpt lat="43.1497233" lon="11.0180067"><ele>643.0</ele><time>2026-04-25T14:39:08.725Z</time></trkpt><trkpt lat="43.1499233" lon="11.0179033"><ele>643.0</ele><time>2026-04-25T14:39:09.724Z</time></trkpt><trkpt lat="43.1501267" lon="11.0177933"><ele>643.0</ele><time>2026-04-25T14:39:10.725Z</time></trkpt><trkpt lat="43.1503167" lon="11.0176783"><ele>643.0</ele><time>2026-04-25T14:39:11.724Z</time></trkpt><trkpt lat="43.1505017" lon="11.0175817"><ele>643.0</ele><time>2026-04-25T14:39:12.725Z</time></trkpt><trkpt lat="43.1506767" lon="11.0175033"><ele>643.0</ele><time>2026-04-25T14:39:13.726Z</time></trkpt><trkpt lat="43.15086" lon="11.017465"><ele>643.0</ele><time>2026-04-25T14:39:14.724Z</time></trkpt><trkpt lat="43.1510417" lon="11.0174733"><ele>642.6666666666667</ele><time>2026-04-25T14:39:15.723Z</time></trkpt><trkpt lat="43.15121" lon="11.017505"><ele>642.3333333333334</ele><time>2026-04-25T14:39:16.723Z</time></trkpt><trkpt lat="43.151365" lon="11.0175217"><ele>642.0</ele><time>2026-04-25T14:39:17.722Z</time></trkpt><trkpt lat="43.1514967" lon="11.0175167"><ele>637.75</ele><time>2026-04-25T14:39:18.726Z</time></trkpt><trkpt lat="43.1516083" lon="11.0174683"><ele>633.5</ele><time>2026-04-25T14:39:19.725Z</time></trkpt><trkpt lat="43.151665" lon="11.01733"><ele>629.25</ele><time>2026-04-25T14:39:20.725Z</time></trkpt><trkpt lat="43.151725" lon="11.0171733"><ele>625.0</ele><time>2026-04-25T14:39:21.725Z</time></trkpt><trkpt lat="43.151775" lon="11.0170017"><ele>625.0</ele><time>2026-04-25T14:39:22.725Z</time></trkpt><trkpt lat="43.1518617" lon="11.0168733"><ele>625.0</ele><time>2026-04-25T14:39:23.724Z</time></trkpt><trkpt lat="43.1519767" lon="11.0167867"><ele>625.0</ele><time>2026-04-25T14:39:24.725Z</time></trkpt><trkpt lat="43.15212" lon="11.016755"><ele>625.0</ele><time>2026-04-25T14:39:25.726Z</time></trkpt><trkpt lat="43.15228" lon="11.0167617"><ele>625.3333333333334</ele><time>2026-04-25T14:39:26.726Z</time></trkpt><trkpt lat="43.1524383" lon="11.0167667"><ele>625.6666666666666</ele><time>2026-04-25T14:39:27.725Z</time></trkpt><trkpt lat="43.1525833" lon="11.0167267"><ele>626.0</ele><time>2026-04-25T14:39:28.725Z</time></trkpt><trkpt lat="43.152715" lon="11.016635"><ele>621.0</ele><time>2026-04-25T14:39:29.725Z</time></trkpt><trkpt lat="43.1528417" lon="11.016475"><ele>616.0</ele><time>2026-04-25T14:39:30.724Z</time></trkpt><trkpt lat="43.1529833" lon="11.01631"><ele>611.0</ele><time>2026-04-25T14:39:31.724Z</time></trkpt><trkpt lat="43.1531367" lon="11.01616"><ele>612.0</ele><time>2026-04-25T14:39:32.726Z</time></trkpt><trkpt lat="43.15329" lon="11.01603"><ele>613.0</ele><time>2026-04-25T14:39:33.725Z</time></trkpt><trkpt lat="43.1534217" lon="11.0158983"><ele>614.0</ele><time>2026-04-25T14:39:34.725Z</time></trkpt><trkpt lat="43.1535317" lon="11.0157517"><ele>614.0</ele><time>2026-04-25T14:39:35.727Z</time></trkpt><trkpt lat="43.1536067" lon="11.0155767"><ele>614.0</ele><time>2026-04-25T14:39:36.725Z</time></trkpt><trkpt lat="43.153645" lon="11.0153833"><ele>614.0</ele><time>2026-04-25T14:39:37.725Z</time></trkpt><trkpt lat="43.1536417" lon="11.0151717"><ele>614.0</ele><time>2026-04-25T14:39:38.726Z</time></trkpt><trkpt lat="43.1536" lon="11.014955"><ele>614.3333333333333</ele><time>2026-04-25T14:39:39.725Z</time></trkpt><trkpt lat="43.1535217" lon="11.0147483"><ele>614.6666666666666</ele><time>2026-04-25T14:39:40.725Z</time></trkpt><trkpt lat="43.1534033" lon="11.0145783"><ele>615.0</ele><time>2026-04-25T14:39:41.725Z</time></trkpt><trkpt lat="43.15327" lon="11.0144483"><ele>611.5</ele><time>2026-04-25T14:39:42.725Z</time></trkpt><trkpt lat="43.1531583" lon="11.0142967"><ele>608.0</ele><time>2026-04-25T14:39:43.726Z</time></trkpt><trkpt lat="43.15308" lon="11.0141417"><ele>604.5</ele><time>2026-04-25T14:39:44.724Z</time></trkpt><trkpt lat="43.1530383" lon="11.01398"><ele>601.0</ele><time>2026-04-25T14:39:45.723Z</time></trkpt><trkpt lat="43.153035" lon="11.013805"><ele>602.0</ele><time>2026-04-25T14:39:46.724Z</time></trkpt><trkpt lat="43.1530883" lon="11.01361"><ele>603.0</ele><time>2026-04-25T14:39:47.725Z</time></trkpt><trkpt lat="43.153185" lon="11.0134133"><ele>604.0</ele><time>2026-04-25T14:39:48.725Z</time></trkpt><trkpt lat="43.1533017" lon="11.01321"><ele>604.0</ele><time>2026-04-25T14:39:49.727Z</time></trkpt><trkpt lat="43.1534233" lon="11.012995"><ele>604.0</ele><time>2026-04-25T14:39:50.725Z</time></trkpt><trkpt lat="43.1535467" lon="11.0127683"><ele>604.0</ele><time>2026-04-25T14:39:51.725Z</time></trkpt><trkpt lat="43.1536733" lon="11.0125383"><ele>602.6666666666667</ele><time>2026-04-25T14:39:52.725Z</time></trkpt><trkpt lat="43.1538" lon="11.0123083"><ele>601.3333333333334</ele><time>2026-04-25T14:39:53.725Z</time></trkpt><trkpt lat="43.1539267" lon="11.01208"><ele>600.0</ele><time>2026-04-25T14:39:54.725Z</time></trkpt><trkpt lat="43.1540517" lon="11.01186"><ele>598.3333333333334</ele><time>2026-04-25T14:39:55.725Z</time></trkpt><trkpt lat="43.15417" lon="11.0116433"><ele>596.6666666666667</ele><time>2026-04-25T14:39:56.727Z</time></trkpt><trkpt lat="43.1542683" lon="11.0114267"><ele>595.0</ele><time>2026-04-25T14:39:57.723Z</time></trkpt><trkpt lat="43.1543417" lon="11.011205"><ele>595.0</ele><time>2026-04-25T14:39:58.724Z</time></trkpt><trkpt lat="43.15439" lon="11.0109717"><ele>595.0</ele><time>2026-04-25T14:39:59.725Z</time></trkpt><trkpt lat="43.1544367" lon="11.0107283"><ele>595.0</ele><time>2026-04-25T14:40:00.724Z</time></trkpt><trkpt lat="43.1544867" lon="11.0105033"><ele>595.6666666666667</ele><time>2026-04-25T14:40:01.723Z</time></trkpt><trkpt lat="43.1545617" lon="11.0103033"><ele>596.3333333333334</ele><time>2026-04-25T14:40:02.725Z</time></trkpt><trkpt lat="43.1546667" lon="11.0101367"><ele>597.0</ele><time>2026-04-25T14:40:03.723Z</time></trkpt><trkpt lat="43.1547967" lon="11.0100183"><ele>598.0</ele><time>2026-04-25T14:40:04.725Z</time></trkpt><trkpt lat="43.1549483" lon="11.0099567"><ele>599.0</ele><time>2026-04-25T14:40:05.723Z</time></trkpt><trkpt lat="43.1551083" lon="11.0099467"><ele>600.0</ele><time>2026-04-25T14:40:06.725Z</time></trkpt><trkpt lat="43.1552633" lon="11.0100017"><ele>596.6666666666666</ele><time>2026-04-25T14:40:07.724Z</time></trkpt><trkpt lat="43.1554117" lon="11.0101133"><ele>593.3333333333333</ele><time>2026-04-25T14:40:08.726Z</time></trkpt><trkpt lat="43.15553" lon="11.0102617"><ele>590.0</ele><time>2026-04-25T14:40:09.724Z</time></trkpt><trkpt lat="43.1556183" lon="11.0104533"><ele>590.0</ele><time>2026-04-25T14:40:10.724Z</time></trkpt><trkpt lat="43.1556767" lon="11.010685"><ele>590.0</ele><time>2026-04-25T14:40:11.725Z</time></trkpt><trkpt lat="43.1557167" lon="11.0109267"><ele>590.0</ele><time>2026-04-25T14:40:12.723Z</time></trkpt><trkpt lat="43.1557667" lon="11.0111533"><ele>583.3333333333333</ele><time>2026-04-25T14:40:13.724Z</time></trkpt><trkpt lat="43.1558383" lon="11.0113667"><ele>576.6666666666666</ele><time>2026-04-25T14:40:14.724Z</time></trkpt><trkpt lat="43.1559417" lon="11.0115617"><ele>570.0</ele><time>2026-04-25T14:40:15.724Z</time></trkpt><trkpt lat="43.156065" lon="11.011735"><ele>568.6666666666666</ele><time>2026-04-25T14:40:16.726Z</time></trkpt><trkpt lat="43.1562083" lon="11.01188"><ele>567.3333333333333</ele><time>2026-04-25T14:40:17.723Z</time></trkpt><trkpt lat="43.1563667" lon="11.0119767"><ele>566.0</ele><time>2026-04-25T14:40:18.726Z</time></trkpt><trkpt lat="43.1565417" lon="11.0120217"><ele>561.3333333333333</ele><time>2026-04-25T14:40:19.728Z</time></trkpt><trkpt lat="43.1567217" lon="11.0120483"><ele>556.6666666666666</ele><time>2026-04-25T14:40:20.724Z</time></trkpt><trkpt lat="43.1568783" lon="11.0121117"><ele>552.0</ele><time>2026-04-25T14:40:21.725Z</time></trkpt><trkpt lat="43.1570067" lon="11.0122267"><ele>552.0</ele><time>2026-04-25T14:40:22.726Z</time></trkpt><trkpt lat="43.1570967" lon="11.0123883"><ele>552.0</ele><time>2026-04-25T14:40:23.725Z</time></trkpt><trkpt lat="43.1571567" lon="11.0125983"><ele>552.0</ele><time>2026-04-25T14:40:24.728Z</time></trkpt><trkpt lat="43.157205" lon="11.01283"><ele>555.0</ele><time>2026-04-25T14:40:25.726Z</time></trkpt><trkpt lat="43.15725" lon="11.0130717"><ele>558.0</ele><time>2026-04-25T14:40:26.724Z</time></trkpt><trkpt lat="43.1572967" lon="11.0133217"><ele>561.0</ele><time>2026-04-25T14:40:27.725Z</time></trkpt><trkpt lat="43.1573417" lon="11.0135633"><ele>557.75</ele><time>2026-04-25T14:40:28.723Z</time></trkpt><trkpt lat="43.1573833" lon="11.0137883"><ele>554.5</ele><time>2026-04-25T14:40:29.725Z</time></trkpt><trkpt lat="43.1574133" lon="11.0139867"><ele>551.25</ele><time>2026-04-25T14:40:30.725Z</time></trkpt><trkpt lat="43.1574517" lon="11.014155"><ele>548.0</ele><time>2026-04-25T14:40:31.724Z</time></trkpt><trkpt lat="43.157515" lon="11.0142967"><ele>548.0</ele><time>2026-04-25T14:40:32.725Z</time></trkpt><trkpt lat="43.157605" lon="11.014415"><ele>548.0</ele><time>2026-04-25T14:40:33.725Z</time></trkpt><trkpt lat="43.157725" lon="11.014505"><ele>548.0</ele><time>2026-04-25T14:40:34.726Z</time></trkpt><trkpt lat="43.1578683" lon="11.014595"><ele>548.0</ele><time>2026-04-25T14:40:35.724Z</time></trkpt><trkpt lat="43.1580267" lon="11.01468"><ele>548.0</ele><time>2026-04-25T14:40:36.725Z</time></trkpt><trkpt lat="43.15818" lon="11.0147667"><ele>548.0</ele><time>2026-04-25T14:40:37.725Z</time></trkpt><trkpt lat="43.1583217" lon="11.0148767"><ele>548.0</ele><time>2026-04-25T14:40:38.724Z</time></trkpt><trkpt lat="43.1584567" lon="11.0150267"><ele>547.3333333333333</ele><time>2026-04-25T14:40:39.724Z</time></trkpt><trkpt lat="43.1585767" lon="11.0152067"><ele>546.6666666666666</ele><time>2026-04-25T14:40:40.724Z</time></trkpt><trkpt lat="43.15869" lon="11.0154083"><ele>546.0</ele><time>2026-04-25T14:40:41.726Z</time></trkpt><trkpt lat="43.1588117" lon="11.015615"><ele>547.3333333333334</ele><time>2026-04-25T14:40:42.724Z</time></trkpt><trkpt lat="43.1589417" lon="11.0158283"><ele>548.6666666666667</ele><time>2026-04-25T14:40:43.726Z</time></trkpt><trkpt lat="43.1590667" lon="11.0160433"><ele>550.0</ele><time>2026-04-25T14:40:44.726Z</time></trkpt><trkpt lat="43.159185" lon="11.0162617"><ele>546.3333333333334</ele><time>2026-04-25T14:40:45.725Z</time></trkpt><trkpt lat="43.1593033" lon="11.0164683"><ele>542.6666666666666</ele><time>2026-04-25T14:40:46.725Z</time></trkpt><trkpt lat="43.159415" lon="11.01666"><ele>539.0</ele><time>2026-04-25T14:40:47.725Z</time></trkpt><trkpt lat="43.159515" lon="11.0168517"><ele>539.0</ele><time>2026-04-25T14:40:48.725Z</time></trkpt><trkpt lat="43.159605" lon="11.01706"><ele>539.0</ele><time>2026-04-25T14:40:49.725Z</time></trkpt><trkpt lat="43.1596883" lon="11.01727"><ele>539.0</ele><time>2026-04-25T14:40:50.726Z</time></trkpt><trkpt lat="43.1597533" lon="11.0174883"><ele>540.6666666666666</ele><time>2026-04-25T14:40:51.724Z</time></trkpt><trkpt lat="43.1598067" lon="11.0176983"><ele>542.3333333333334</ele><time>2026-04-25T14:40:52.725Z</time></trkpt><trkpt lat="43.1598633" lon="11.0178967"><ele>544.0</ele><time>2026-04-25T14:40:53.724Z</time></trkpt><trkpt lat="43.1599533" lon="11.01805"><ele>538.0</ele><time>2026-04-25T14:40:54.726Z</time></trkpt><trkpt lat="43.1600617" lon="11.018175"><ele>532.0</ele><time>2026-04-25T14:40:55.726Z</time></trkpt><trkpt lat="43.1602133" lon="11.01825"><ele>526.0</ele><time>2026-04-25T14:40:56.725Z</time></trkpt><trkpt lat="43.1603817" lon="11.0183217"><ele>525.0</ele><time>2026-04-25T14:40:57.723Z</time></trkpt><trkpt lat="43.1605467" lon="11.0183983"><ele>524.0</ele><time>2026-04-25T14:40:58.723Z</time></trkpt><trkpt lat="43.1607117" lon="11.0184617"><ele>523.0</ele><time>2026-04-25T14:40:59.724Z</time></trkpt><trkpt lat="43.16088" lon="11.0184833"><ele>518.6666666666667</ele><time>2026-04-25T14:41:00.724Z</time></trkpt><trkpt lat="43.1610533" lon="11.0184633"><ele>514.3333333333334</ele><time>2026-04-25T14:41:01.723Z</time></trkpt><trkpt lat="43.1612417" lon="11.018415"><ele>510.0</ele><time>2026-04-25T14:41:02.727Z</time></trkpt><trkpt lat="43.161435" lon="11.0183533"><ele>508.66666666666663</ele><time>2026-04-25T14:41:03.724Z</time></trkpt><trkpt lat="43.1616283" lon="11.0182917"><ele>507.3333333333333</ele><time>2026-04-25T14:41:04.724Z</time></trkpt><trkpt lat="43.161815" lon="11.0182367"><ele>506.0</ele><time>2026-04-25T14:41:05.725Z</time></trkpt><trkpt lat="43.1619933" lon="11.0181867"><ele>506.0</ele><time>2026-04-25T14:41:06.726Z</time></trkpt><trkpt lat="43.16216" lon="11.0181233"><ele>506.0</ele><time>2026-04-25T14:41:07.724Z</time></trkpt><trkpt lat="43.1623067" lon="11.0180317"><ele>506.0</ele><time>2026-04-25T14:41:08.724Z</time></trkpt><trkpt lat="43.1624267" lon="11.0178967"><ele>505.0</ele><time>2026-04-25T14:41:09.724Z</time></trkpt><trkpt lat="43.1625217" lon="11.017745"><ele>504.0</ele><time>2026-04-25T14:41:10.724Z</time></trkpt><trkpt lat="43.1626033" lon="11.017525"><ele>503.0</ele><time>2026-04-25T14:41:11.724Z</time></trkpt><trkpt lat="43.16267" lon="11.0172883"><ele>503.0</ele><time>2026-04-25T14:41:12.725Z</time></trkpt><trkpt lat="43.16274" lon="11.0170717"><ele>503.0</ele><time>2026-04-25T14:41:13.724Z</time></trkpt><trkpt lat="43.1628367" lon="11.016865"><ele>503.0</ele><time>2026-04-25T14:41:14.724Z</time></trkpt><trkpt lat="43.1629567" lon="11.0166883"><ele>503.66666666666663</ele><time>2026-04-25T14:41:15.724Z</time></trkpt><trkpt lat="43.16309" lon="11.01655"><ele>504.33333333333337</ele><time>2026-04-25T14:41:16.724Z</time></trkpt><trkpt lat="43.1632183" lon="11.0164183"><ele>505.0</ele><time>2026-04-25T14:41:17.724Z</time></trkpt><trkpt lat="43.1633183" lon="11.016275"><ele>502.0</ele><time>2026-04-25T14:41:18.723Z</time></trkpt><trkpt lat="43.1633883" lon="11.0161067"><ele>499.0</ele><time>2026-04-25T14:41:19.724Z</time></trkpt><trkpt lat="43.1634167" lon="11.0159283"><ele>496.0</ele><time>2026-04-25T14:41:20.725Z</time></trkpt><trkpt lat="43.1634267" lon="11.0157017"><ele>493.0</ele><time>2026-04-25T14:41:21.723Z</time></trkpt><trkpt lat="43.1634433" lon="11.0154767"><ele>493.0</ele><time>2026-04-25T14:41:22.724Z</time></trkpt><trkpt lat="43.16349" lon="11.015275"><ele>493.0</ele><time>2026-04-25T14:41:23.723Z</time></trkpt><trkpt lat="43.1635767" lon="11.0150933"><ele>493.0</ele><time>2026-04-25T14:41:24.724Z</time></trkpt><trkpt lat="43.1637033" lon="11.0149517"><ele>492.0</ele><time>2026-04-25T14:41:25.723Z</time></trkpt><trkpt lat="43.163855" lon="11.01485"><ele>491.0</ele><time>2026-04-25T14:41:26.725Z</time></trkpt><trkpt lat="43.164025" lon="11.0147817"><ele>490.0</ele><time>2026-04-25T14:41:27.724Z</time></trkpt><trkpt lat="43.1641933" lon="11.0147367"><ele>490.0</ele><time>2026-04-25T14:41:28.723Z</time></trkpt><trkpt lat="43.1643583" lon="11.0147133"><ele>490.0</ele><time>2026-04-25T14:41:29.725Z</time></trkpt><trkpt lat="43.1645283" lon="11.0147417"><ele>490.0</ele><time>2026-04-25T14:41:30.726Z</time></trkpt><trkpt lat="43.1647017" lon="11.014825"><ele>490.6666666666667</ele><time>2026-04-25T14:41:31.724Z</time></trkpt><trkpt lat="43.1648767" lon="11.0149417"><ele>491.33333333333337</ele><time>2026-04-25T14:41:32.726Z</time></trkpt><trkpt lat="43.1650467" lon="11.015055"><ele>492.0</ele><time>2026-04-25T14:41:33.723Z</time></trkpt><trkpt lat="43.1652133" lon="11.01515"><ele>490.66666666666663</ele><time>2026-04-25T14:41:34.725Z</time></trkpt><trkpt lat="43.1653783" lon="11.0152117"><ele>489.3333333333333</ele><time>2026-04-25T14:41:35.724Z</time></trkpt><trkpt lat="43.1655467" lon="11.0152417"><ele>488.0</ele><time>2026-04-25T14:41:36.723Z</time></trkpt><trkpt lat="43.1657133" lon="11.0152567"><ele>488.0</ele><time>2026-04-25T14:41:37.723Z</time></trkpt><trkpt lat="43.16588" lon="11.01528"><ele>488.0</ele><time>2026-04-25T14:41:38.724Z</time></trkpt><trkpt lat="43.1660383" lon="11.015305"><ele>488.0</ele><time>2026-04-25T14:41:39.724Z</time></trkpt><trkpt lat="43.16619" lon="11.015335"><ele>488.0</ele><time>2026-04-25T14:41:40.726Z</time></trkpt><trkpt lat="43.1663317" lon="11.0153667"><ele>488.0</ele><time>2026-04-25T14:41:41.724Z</time></trkpt><trkpt lat="43.1664717" lon="11.01541"><ele>488.0</ele><time>2026-04-25T14:41:42.724Z</time></trkpt><trkpt lat="43.166605" lon="11.0154817"><ele>488.0</ele><time>2026-04-25T14:41:43.723Z</time></trkpt><trkpt lat="43.1667333" lon="11.015585"><ele>487.66666666666663</ele><time>2026-04-25T14:41:44.726Z</time></trkpt><trkpt lat="43.1668633" lon="11.0157183"><ele>487.33333333333337</ele><time>2026-04-25T14:41:45.723Z</time></trkpt><trkpt lat="43.1669917" lon="11.0158683"><ele>487.0</ele><time>2026-04-25T14:41:46.723Z</time></trkpt><trkpt lat="43.167125" lon="11.016025"><ele>487.33333333333337</ele><time>2026-04-25T14:41:47.723Z</time></trkpt><trkpt lat="43.1672517" lon="11.0161933"><ele>487.66666666666663</ele><time>2026-04-25T14:41:48.724Z</time></trkpt><trkpt lat="43.1673717" lon="11.0163833"><ele>488.0</ele><time>2026-04-25T14:41:49.724Z</time></trkpt><trkpt lat="43.1674817" lon="11.0165983"><ele>488.3333333333333</ele><time>2026-04-25T14:41:50.725Z</time></trkpt><trkpt lat="43.167585" lon="11.0168083"><ele>488.66666666666663</ele><time>2026-04-25T14:41:51.724Z</time></trkpt><trkpt lat="43.16767" lon="11.0170233"><ele>489.0</ele><time>2026-04-25T14:41:52.723Z</time></trkpt><trkpt lat="43.1677367" lon="11.0172483"><ele>489.0</ele><time>2026-04-25T14:41:53.724Z</time></trkpt><trkpt lat="43.167765" lon="11.0174833"><ele>489.0</ele><time>2026-04-25T14:41:54.725Z</time></trkpt><trkpt lat="43.1677483" lon="11.0177233"><ele>489.0</ele><time>2026-04-25T14:41:55.724Z</time></trkpt><trkpt lat="43.1677017" lon="11.01796"><ele>489.66666666666663</ele><time>2026-04-25T14:41:56.725Z</time></trkpt><trkpt lat="43.1676467" lon="11.0181883"><ele>490.3333333333333</ele><time>2026-04-25T14:41:57.724Z</time></trkpt><trkpt lat="43.167605" lon="11.0184033"><ele>491.0</ele><time>2026-04-25T14:41:58.724Z</time></trkpt><trkpt lat="43.1675933" lon="11.0186117"><ele>491.0</ele><time>2026-04-25T14:41:59.724Z</time></trkpt><trkpt lat="43.16762" lon="11.0188133"><ele>491.0</ele><time>2026-04-25T14:42:00.725Z</time></trkpt><trkpt lat="43.1676917" lon="11.0189883"><ele>491.0</ele><time>2026-04-25T14:42:01.725Z</time></trkpt><trkpt lat="43.1678033" lon="11.0191183"><ele>491.0</ele><time>2026-04-25T14:42:02.726Z</time></trkpt><trkpt lat="43.167935" lon="11.019215"><ele>490.0</ele><time>2026-04-25T14:42:03.725Z</time></trkpt><trkpt lat="43.1680583" lon="11.019285"><ele>489.0</ele><time>2026-04-25T14:42:04.726Z</time></trkpt><trkpt lat="43.168155" lon="11.01937"><ele>488.0</ele><time>2026-04-25T14:42:05.724Z</time></trkpt><trkpt lat="43.16821" lon="11.0194767"><ele>487.0</ele><time>2026-04-25T14:42:06.725Z</time></trkpt><trkpt lat="43.168225" lon="11.0195867"><ele>486.0</ele><time>2026-04-25T14:42:07.726Z</time></trkpt><trkpt lat="43.168215" lon="11.0197067"><ele>486.0</ele><time>2026-04-25T14:42:08.725Z</time></trkpt><trkpt lat="43.1681983" lon="11.0198267"><ele>486.0</ele><time>2026-04-25T14:42:09.723Z</time></trkpt><trkpt lat="43.1681633" lon="11.0199667"><ele>486.0</ele><time>2026-04-25T14:42:10.725Z</time></trkpt><trkpt lat="43.1681383" lon="11.0201067"><ele>486.0</ele><time>2026-04-25T14:42:11.723Z</time></trkpt><trkpt lat="43.16816" lon="11.02026"><ele>486.0</ele><time>2026-04-25T14:42:12.725Z</time></trkpt><trkpt lat="43.16822" lon="11.02039"><ele>493.33333333333337</ele><time>2026-04-25T14:42:13.724Z</time></trkpt><trkpt lat="43.1683033" lon="11.020515"><ele>500.6666666666667</ele><time>2026-04-25T14:42:14.725Z</time></trkpt><trkpt lat="43.1684333" lon="11.0206467"><ele>508.0</ele><time>2026-04-25T14:42:15.724Z</time></trkpt><trkpt lat="43.1685817" lon="11.0207833"><ele>504.6666666666667</ele><time>2026-04-25T14:42:16.722Z</time></trkpt><trkpt lat="43.168715" lon="11.02096"><ele>501.33333333333337</ele><time>2026-04-25T14:42:17.722Z</time></trkpt><trkpt lat="43.16882" lon="11.0211833"><ele>498.0</ele><time>2026-04-25T14:42:18.724Z</time></trkpt><trkpt lat="43.1688983" lon="11.0214133"><ele>498.0</ele><time>2026-04-25T14:42:19.725Z</time></trkpt><trkpt lat="43.1689617" lon="11.02164"><ele>498.0</ele><time>2026-04-25T14:42:20.725Z</time></trkpt><trkpt lat="43.169025" lon="11.0218517"><ele>498.0</ele><time>2026-04-25T14:42:21.724Z</time></trkpt><trkpt lat="43.1691083" lon="11.02204"><ele>503.0</ele><time>2026-04-25T14:42:22.725Z</time></trkpt><trkpt lat="43.1692267" lon="11.0222017"><ele>508.0</ele><time>2026-04-25T14:42:23.723Z</time></trkpt><trkpt lat="43.1693717" lon="11.0223433"><ele>513.0</ele><time>2026-04-25T14:42:24.724Z</time></trkpt><trkpt lat="43.169525" lon="11.022475"><ele>510.66666666666663</ele><time>2026-04-25T14:42:25.725Z</time></trkpt><trkpt lat="43.1696583" lon="11.0226167"><ele>508.3333333333333</ele><time>2026-04-25T14:42:26.724Z</time></trkpt><trkpt lat="43.169765" lon="11.0228117"><ele>506.0</ele><time>2026-04-25T14:42:27.724Z</time></trkpt><trkpt lat="43.1698433" lon="11.02304"><ele>507.0</ele><time>2026-04-25T14:42:28.725Z</time></trkpt><trkpt lat="43.1699217" lon="11.0232633"><ele>508.0</ele><time>2026-04-25T14:42:29.724Z</time></trkpt><trkpt lat="43.1700033" lon="11.023455"><ele>509.0</ele><time>2026-04-25T14:42:30.724Z</time></trkpt><trkpt lat="43.17011" lon="11.023595"><ele>509.0</ele><time>2026-04-25T14:42:31.724Z</time></trkpt><trkpt lat="43.17022" lon="11.023685"><ele>509.0</ele><time>2026-04-25T14:42:32.724Z</time></trkpt><trkpt lat="43.17034" lon="11.0237233"><ele>509.0</ele><time>2026-04-25T14:42:33.724Z</time></trkpt><trkpt lat="43.1704483" lon="11.0237217"><ele>509.0</ele><time>2026-04-25T14:42:34.723Z</time></trkpt><trkpt lat="43.17055" lon="11.02367"><ele>509.0</ele><time>2026-04-25T14:42:35.724Z</time></trkpt><trkpt lat="43.170625" lon="11.0235467"><ele>509.0</ele><time>2026-04-25T14:42:36.723Z</time></trkpt><trkpt lat="43.1706867" lon="11.023365"><ele>509.0</ele><time>2026-04-25T14:42:37.724Z</time></trkpt><trkpt lat="43.1707583" lon="11.02316"><ele>509.0</ele><time>2026-04-25T14:42:38.724Z</time></trkpt><trkpt lat="43.1708333" lon="11.0229283"><ele>512.0</ele><time>2026-04-25T14:42:39.723Z</time></trkpt><trkpt lat="43.1709217" lon="11.0226867"><ele>515.0</ele><time>2026-04-25T14:42:40.724Z</time></trkpt><trkpt lat="43.1710117" lon="11.02249"><ele>518.0</ele><time>2026-04-25T14:42:41.723Z</time></trkpt><trkpt lat="43.1711" lon="11.0223217"><ele>520.0</ele><time>2026-04-25T14:42:42.724Z</time></trkpt><trkpt lat="43.1712" lon="11.0221633"><ele>522.0</ele><time>2026-04-25T14:42:43.724Z</time></trkpt><trkpt lat="43.1713117" lon="11.022055"><ele>524.0</ele><time>2026-04-25T14:42:44.725Z</time></trkpt><trkpt lat="43.1714217" lon="11.022"><ele>526.0</ele><time>2026-04-25T14:42:45.724Z</time></trkpt><trkpt lat="43.1715183" lon="11.0219933"><ele>525.0</ele><time>2026-04-25T14:42:46.726Z</time></trkpt><trkpt lat="43.1716033" lon="11.0220183"><ele>524.0</ele><time>2026-04-25T14:42:47.724Z</time></trkpt><trkpt lat="43.1716667" lon="11.0221017"><ele>523.0</ele><time>2026-04-25T14:42:48.725Z</time></trkpt><trkpt lat="43.171715" lon="11.02219"><ele>522.0</ele><time>2026-04-25T14:42:49.723Z</time></trkpt><trkpt lat="43.1717467" lon="11.022275"><ele>521.0</ele><time>2026-04-25T14:42:50.724Z</time></trkpt><trkpt lat="43.17173" lon="11.0223917"><ele>520.0</ele><time>2026-04-25T14:42:51.723Z</time></trkpt><trkpt lat="43.171735" lon="11.0225067"><ele>518.5</ele><time>2026-04-25T14:42:52.725Z</time></trkpt><trkpt lat="43.1717483" lon="11.0226167"><ele>517.0</ele><time>2026-04-25T14:42:53.723Z</time></trkpt><trkpt lat="43.17177" lon="11.0227267"><ele>515.5</ele><time>2026-04-25T14:42:54.725Z</time></trkpt><trkpt lat="43.1718067" lon="11.022835"><ele>514.0</ele><time>2026-04-25T14:42:55.724Z</time></trkpt><trkpt lat="43.1718567" lon="11.0229233"><ele>512.5</ele><time>2026-04-25T14:42:56.724Z</time></trkpt><trkpt lat="43.17193" lon="11.02299"><ele>511.0</ele><time>2026-04-25T14:42:57.724Z</time></trkpt><trkpt lat="43.1720083" lon="11.0230433"><ele>511.0</ele><time>2026-04-25T14:42:58.723Z</time></trkpt><trkpt lat="43.17213" lon="11.0230833"><ele>511.0</ele><time>2026-04-25T14:42:59.724Z</time></trkpt><trkpt lat="43.1722617" lon="11.0230983"><ele>511.0</ele><time>2026-04-25T14:43:00.725Z</time></trkpt><trkpt lat="43.1723667" lon="11.0231683"><ele>511.0</ele><time>2026-04-25T14:43:01.725Z</time></trkpt><trkpt lat="43.17246" lon="11.0232333"><ele>511.8</ele><time>2026-04-25T14:43:02.725Z</time></trkpt><trkpt lat="43.1725417" lon="11.0233167"><ele>512.6</ele><time>2026-04-25T14:43:03.723Z</time></trkpt><trkpt lat="43.1726017" lon="11.02343"><ele>513.4</ele><time>2026-04-25T14:43:04.723Z</time></trkpt><trkpt lat="43.1726333" lon="11.0235483"><ele>514.2</ele><time>2026-04-25T14:43:05.724Z</time></trkpt><trkpt lat="43.1726433" lon="11.0236833"><ele>515.0</ele><time>2026-04-25T14:43:06.724Z</time></trkpt><trkpt lat="43.1726283" lon="11.023815"><ele>515.0</ele><time>2026-04-25T14:43:07.723Z</time></trkpt><trkpt lat="43.1725933" lon="11.0239583"><ele>515.0</ele><time>2026-04-25T14:43:08.724Z</time></trkpt><trkpt lat="43.172555" lon="11.0241067"><ele>515.0</ele><time>2026-04-25T14:43:09.724Z</time></trkpt><trkpt lat="43.172515" lon="11.0242433"><ele>515.0</ele><time>2026-04-25T14:43:10.724Z</time></trkpt><trkpt lat="43.172485" lon="11.0243933"><ele>515.0</ele><time>2026-04-25T14:43:11.724Z</time></trkpt><trkpt lat="43.172475" lon="11.0245283"><ele>515.0</ele><time>2026-04-25T14:43:12.724Z</time></trkpt><trkpt lat="43.1724783" lon="11.02465"><ele>515.0</ele><time>2026-04-25T14:43:13.724Z</time></trkpt><trkpt lat="43.1724917" lon="11.0247967"><ele>515.0</ele><time>2026-04-25T14:43:14.725Z</time></trkpt><trkpt lat="43.1725" lon="11.0249533"><ele>515.0</ele><time>2026-04-25T14:43:15.724Z</time></trkpt><trkpt lat="43.1725283" lon="11.025115"><ele>515.0</ele><time>2026-04-25T14:43:16.724Z</time></trkpt><trkpt lat="43.172565" lon="11.0252733"><ele>515.0</ele><time>2026-04-25T14:43:17.724Z</time></trkpt><trkpt lat="43.172635" lon="11.02545"><ele>515.0</ele><time>2026-04-25T14:43:18.724Z</time></trkpt><trkpt lat="43.1727133" lon="11.0256167"><ele>515.0</ele><time>2026-04-25T14:43:19.725Z</time></trkpt><trkpt lat="43.1728633" lon="11.02583"><ele>518.0</ele><time>2026-04-25T14:43:20.723Z</time></trkpt><trkpt lat="43.1729817" lon="11.0260533"><ele>521.0</ele><time>2026-04-25T14:43:21.725Z</time></trkpt><trkpt lat="43.173115" lon="11.026275"><ele>524.0</ele><time>2026-04-25T14:43:22.724Z</time></trkpt><trkpt lat="43.173225" lon="11.02646"><ele>518.3333333333333</ele><time>2026-04-25T14:43:23.723Z</time></trkpt><trkpt lat="43.1733083" lon="11.02666"><ele>512.6666666666666</ele><time>2026-04-25T14:43:24.723Z</time></trkpt><trkpt lat="43.1733833" lon="11.02685"><ele>507.0</ele><time>2026-04-25T14:43:25.723Z</time></trkpt><trkpt lat="43.1734583" lon="11.027025"><ele>507.0</ele><time>2026-04-25T14:43:26.724Z</time></trkpt><trkpt lat="43.1735417" lon="11.027155"><ele>507.0</ele><time>2026-04-25T14:43:27.724Z</time></trkpt><trkpt lat="43.1736417" lon="11.0272567"><ele>507.0</ele><time>2026-04-25T14:43:28.724Z</time></trkpt><trkpt lat="43.1737467" lon="11.0273467"><ele>507.0</ele><time>2026-04-25T14:43:29.724Z</time></trkpt><trkpt lat="43.17386" lon="11.027415"><ele>506.0</ele><time>2026-04-25T14:43:30.723Z</time></trkpt><trkpt lat="43.1740317" lon="11.02739"><ele>505.0</ele><time>2026-04-25T14:43:31.724Z</time></trkpt><trkpt lat="43.1741667" lon="11.0274517"><ele>504.0</ele><time>2026-04-25T14:43:32.724Z</time></trkpt><trkpt lat="43.1743" lon="11.02753"><ele>504.0</ele><time>2026-04-25T14:43:33.724Z</time></trkpt><trkpt lat="43.17445" lon="11.0276233"><ele>504.0</ele><time>2026-04-25T14:43:34.724Z</time></trkpt><trkpt lat="43.1746083" lon="11.0277433"><ele>504.0</ele><time>2026-04-25T14:43:35.722Z</time></trkpt><trkpt lat="43.17477" lon="11.0278467"><ele>508.33333333333337</ele><time>2026-04-25T14:43:36.724Z</time></trkpt><trkpt lat="43.1749417" lon="11.0279317"><ele>512.6666666666667</ele><time>2026-04-25T14:43:37.724Z</time></trkpt><trkpt lat="43.1751017" lon="11.0280117"><ele>517.0</ele><time>2026-04-25T14:43:38.723Z</time></trkpt><trkpt lat="43.175245" lon="11.02812"><ele>517.0</ele><time>2026-04-25T14:43:39.724Z</time></trkpt><trkpt lat="43.1754033" lon="11.0282833"><ele>517.0</ele><time>2026-04-25T14:43:40.723Z</time></trkpt><trkpt lat="43.175545" lon="11.0284383"><ele>517.0</ele><time>2026-04-25T14:43:41.725Z</time></trkpt><trkpt lat="43.175685" lon="11.0285833"><ele>513.6666666666667</ele><time>2026-04-25T14:43:42.724Z</time></trkpt><trkpt lat="43.1758283" lon="11.0287133"><ele>510.33333333333337</ele><time>2026-04-25T14:43:43.723Z</time></trkpt><trkpt lat="43.1759833" lon="11.0288333"><ele>507.0</ele><time>2026-04-25T14:43:44.724Z</time></trkpt><trkpt lat="43.1761333" lon="11.0289767"><ele>507.0</ele><time>2026-04-25T14:43:45.726Z</time></trkpt><trkpt lat="43.176265" lon="11.02911"><ele>507.0</ele><time>2026-04-25T14:43:46.724Z</time></trkpt><trkpt lat="43.17638" lon="11.0292367"><ele>507.0</ele><time>2026-04-25T14:43:47.725Z</time></trkpt><trkpt lat="43.1765083" lon="11.0293333"><ele>505.0</ele><time>2026-04-25T14:43:48.722Z</time></trkpt><trkpt lat="43.1766667" lon="11.029405"><ele>503.0</ele><time>2026-04-25T14:43:49.723Z</time></trkpt><trkpt lat="43.176835" lon="11.0294717"><ele>501.0</ele><time>2026-04-25T14:43:50.723Z</time></trkpt><trkpt lat="43.1770083" lon="11.0295483"><ele>501.0</ele><time>2026-04-25T14:43:51.724Z</time></trkpt><trkpt lat="43.1771733" lon="11.02966"><ele>501.0</ele><time>2026-04-25T14:43:52.723Z</time></trkpt><trkpt lat="43.17732" lon="11.0298083"><ele>501.0</ele><time>2026-04-25T14:43:53.723Z</time></trkpt><trkpt lat="43.177445" lon="11.0299783"><ele>499.0</ele><time>2026-04-25T14:43:54.723Z</time></trkpt><trkpt lat="43.17755" lon="11.0301583"><ele>497.0</ele><time>2026-04-25T14:43:55.724Z</time></trkpt><trkpt lat="43.1776467" lon="11.0303367"><ele>495.0</ele><time>2026-04-25T14:43:56.724Z</time></trkpt><trkpt lat="43.1777433" lon="11.0304883"><ele>495.0</ele><time>2026-04-25T14:43:57.723Z</time></trkpt><trkpt lat="43.1778483" lon="11.0306083"><ele>495.0</ele><time>2026-04-25T14:43:58.724Z</time></trkpt><trkpt lat="43.177975" lon="11.0306833"><ele>495.0</ele><time>2026-04-25T14:43:59.724Z</time></trkpt><trkpt lat="43.1781417" lon="11.030715"><ele>495.0</ele><time>2026-04-25T14:44:00.723Z</time></trkpt><trkpt lat="43.1783217" lon="11.0307117"><ele>500.33333333333337</ele><time>2026-04-25T14:44:01.723Z</time></trkpt><trkpt lat="43.178505" lon="11.0306733"><ele>505.6666666666667</ele><time>2026-04-25T14:44:02.724Z</time></trkpt><trkpt lat="43.178705" lon="11.0306"><ele>511.0</ele><time>2026-04-25T14:44:03.724Z</time></trkpt><trkpt lat="43.1789" lon="11.0305683"><ele>510.6666666666667</ele><time>2026-04-25T14:44:04.723Z</time></trkpt><trkpt lat="43.1790983" lon="11.0305683"><ele>510.33333333333337</ele><time>2026-04-25T14:44:05.726Z</time></trkpt><trkpt lat="43.179295" lon="11.0305517"><ele>510.0</ele><time>2026-04-25T14:44:06.724Z</time></trkpt><trkpt lat="43.17952" lon="11.0305083"><ele>510.0</ele><time>2026-04-25T14:44:07.724Z</time></trkpt><trkpt lat="43.179745" lon="11.0304617"><ele>510.0</ele><time>2026-04-25T14:44:08.724Z</time></trkpt><trkpt lat="43.1799633" lon="11.0304283"><ele>510.0</ele><time>2026-04-25T14:44:09.725Z</time></trkpt><trkpt lat="43.1801617" lon="11.03039"><ele>507.0</ele><time>2026-04-25T14:44:10.726Z</time></trkpt><trkpt lat="43.1803517" lon="11.0303467"><ele>504.0</ele><time>2026-04-25T14:44:11.723Z</time></trkpt><trkpt lat="43.1805383" lon="11.03032"><ele>501.0</ele><time>2026-04-25T14:44:12.725Z</time></trkpt><trkpt lat="43.18071" lon="11.0303117"><ele>499.0</ele><time>2026-04-25T14:44:13.725Z</time></trkpt><trkpt lat="43.18086" lon="11.0303083"><ele>497.0</ele><time>2026-04-25T14:44:14.726Z</time></trkpt><trkpt lat="43.180995" lon="11.0303"><ele>495.0</ele><time>2026-04-25T14:44:15.724Z</time></trkpt><trkpt lat="43.181115" lon="11.030275"><ele>493.0</ele><time>2026-04-25T14:44:16.724Z</time></trkpt><trkpt lat="43.181195" lon="11.0301817"><ele>493.0</ele><time>2026-04-25T14:44:17.727Z</time></trkpt><trkpt lat="43.1812433" lon="11.0300533"><ele>492.99999999999994</ele><time>2026-04-25T14:44:18.724Z</time></trkpt><trkpt lat="43.181295" lon="11.0299167"><ele>492.99999999999994</ele><time>2026-04-25T14:44:19.726Z</time></trkpt><trkpt lat="43.18137" lon="11.0298033"><ele>493.0</ele><time>2026-04-25T14:44:20.727Z</time></trkpt><trkpt lat="43.1814667" lon="11.029735"><ele>493.0</ele><time>2026-04-25T14:44:21.729Z</time></trkpt><trkpt lat="43.1815717" lon="11.0297433"><ele>494.6666666666667</ele><time>2026-04-25T14:44:22.723Z</time></trkpt><trkpt lat="43.1816867" lon="11.029835"><ele>496.33333333333337</ele><time>2026-04-25T14:44:23.726Z</time></trkpt><trkpt lat="43.1818033" lon="11.029985"><ele>498.0</ele><time>2026-04-25T14:44:24.726Z</time></trkpt><trkpt lat="43.181935" lon="11.0301617"><ele>495.33333333333337</ele><time>2026-04-25T14:44:25.724Z</time></trkpt><trkpt lat="43.1820783" lon="11.03035"><ele>492.6666666666667</ele><time>2026-04-25T14:44:26.726Z</time></trkpt><trkpt lat="43.1822333" lon="11.0305617"><ele>490.0</ele><time>2026-04-25T14:44:27.725Z</time></trkpt><trkpt lat="43.1823833" lon="11.030775"><ele>486.33333333333337</ele><time>2026-04-25T14:44:28.724Z</time></trkpt><trkpt lat="43.182535" lon="11.031"><ele>482.66666666666663</ele><time>2026-04-25T14:44:29.725Z</time></trkpt><trkpt lat="43.1826983" lon="11.0312067"><ele>479.0</ele><time>2026-04-25T14:44:30.725Z</time></trkpt><trkpt lat="43.1828767" lon="11.0313867"><ele>479.0</ele><time>2026-04-25T14:44:31.724Z</time></trkpt><trkpt lat="43.18307" lon="11.0315433"><ele>479.0</ele><time>2026-04-25T14:44:32.727Z</time></trkpt><trkpt lat="43.18327" lon="11.03169"><ele>478.5</ele><time>2026-04-25T14:44:33.725Z</time></trkpt><trkpt lat="43.1834667" lon="11.03184"><ele>478.0</ele><time>2026-04-25T14:44:34.725Z</time></trkpt><trkpt lat="43.1836633" lon="11.0320017"><ele>478.0</ele><time>2026-04-25T14:44:35.723Z</time></trkpt><trkpt lat="43.18385" lon="11.0321467"><ele>478.0</ele><time>2026-04-25T14:44:36.724Z</time></trkpt><trkpt lat="43.184035" lon="11.0322767"><ele>478.0</ele><time>2026-04-25T14:44:37.724Z</time></trkpt><trkpt lat="43.18421" lon="11.0324217"><ele>478.33333333333337</ele><time>2026-04-25T14:44:38.724Z</time></trkpt><trkpt lat="43.18438" lon="11.0325967"><ele>478.66666666666663</ele><time>2026-04-25T14:44:39.725Z</time></trkpt><trkpt lat="43.1845433" lon="11.032775"><ele>479.0</ele><time>2026-04-25T14:44:40.725Z</time></trkpt><trkpt lat="43.1847067" lon="11.0329633"><ele>478.3333333333333</ele><time>2026-04-25T14:44:41.724Z</time></trkpt><trkpt lat="43.184865" lon="11.0331533"><ele>477.66666666666663</ele><time>2026-04-25T14:44:42.726Z</time></trkpt><trkpt lat="43.18501" lon="11.0333267"><ele>477.0</ele><time>2026-04-25T14:44:43.724Z</time></trkpt><trkpt lat="43.185135" lon="11.033495"><ele>477.0</ele><time>2026-04-25T14:44:44.723Z</time></trkpt><trkpt lat="43.18524" lon="11.0336483"><ele>477.0</ele><time>2026-04-25T14:44:45.725Z</time></trkpt><trkpt lat="43.1853433" lon="11.0337683"><ele>477.0</ele><time>2026-04-25T14:44:46.724Z</time></trkpt><trkpt lat="43.1854517" lon="11.033855"><ele>477.0</ele><time>2026-04-25T14:44:47.725Z</time></trkpt><trkpt lat="43.1855767" lon="11.0338317"><ele>474.33333333333337</ele><time>2026-04-25T14:44:48.726Z</time></trkpt><trkpt lat="43.185725" lon="11.03373"><ele>471.6666666666667</ele><time>2026-04-25T14:44:49.726Z</time></trkpt><trkpt lat="43.1858933" lon="11.033695"><ele>469.0</ele><time>2026-04-25T14:44:50.726Z</time></trkpt><trkpt lat="43.1860783" lon="11.03369"><ele>469.0</ele><time>2026-04-25T14:44:51.725Z</time></trkpt><trkpt lat="43.1862633" lon="11.0336983"><ele>469.0</ele><time>2026-04-25T14:44:52.723Z</time></trkpt><trkpt lat="43.1864467" lon="11.0337367"><ele>469.0</ele><time>2026-04-25T14:44:53.725Z</time></trkpt><trkpt lat="43.186625" lon="11.033815"><ele>467.6666666666667</ele><time>2026-04-25T14:44:54.724Z</time></trkpt><trkpt lat="43.1867883" lon="11.033905"><ele>466.33333333333337</ele><time>2026-04-25T14:44:55.724Z</time></trkpt><trkpt lat="43.1869283" lon="11.0339817"><ele>465.0</ele><time>2026-04-25T14:44:56.724Z</time></trkpt><trkpt lat="43.1870467" lon="11.0341433"><ele>469.0</ele><time>2026-04-25T14:44:57.724Z</time></trkpt><trkpt lat="43.1871483" lon="11.034335"><ele>473.0</ele><time>2026-04-25T14:44:58.725Z</time></trkpt><trkpt lat="43.1872233" lon="11.0345617"><ele>477.0</ele><time>2026-04-25T14:44:59.724Z</time></trkpt><trkpt lat="43.1872617" lon="11.0348133"><ele>474.66666666666663</ele><time>2026-04-25T14:45:00.724Z</time></trkpt><trkpt lat="43.1872917" lon="11.03508"><ele>472.3333333333333</ele><time>2026-04-25T14:45:01.724Z</time></trkpt><trkpt lat="43.187335" lon="11.0353517"><ele>470.0</ele><time>2026-04-25T14:45:02.726Z</time></trkpt><trkpt lat="43.1873933" lon="11.035595"><ele>471.3333333333333</ele><time>2026-04-25T14:45:03.726Z</time></trkpt><trkpt lat="43.1874733" lon="11.0358333"><ele>472.66666666666663</ele><time>2026-04-25T14:45:04.725Z</time></trkpt><trkpt lat="43.1875833" lon="11.0360633"><ele>474.0</ele><time>2026-04-25T14:45:05.725Z</time></trkpt><trkpt lat="43.18771" lon="11.036295"><ele>474.0</ele><time>2026-04-25T14:45:06.723Z</time></trkpt><trkpt lat="43.1878433" lon="11.0365133"><ele>474.0</ele><time>2026-04-25T14:45:07.724Z</time></trkpt><trkpt lat="43.1879683" lon="11.036715"><ele>474.0</ele><time>2026-04-25T14:45:08.725Z</time></trkpt><trkpt lat="43.1880783" lon="11.0368833"><ele>474.0</ele><time>2026-04-25T14:45:09.723Z</time></trkpt><trkpt lat="43.1881883" lon="11.0370117"><ele>474.0</ele><time>2026-04-25T14:45:10.725Z</time></trkpt><trkpt lat="43.1883" lon="11.0370733"><ele>474.0</ele><time>2026-04-25T14:45:11.726Z</time></trkpt><trkpt lat="43.1884233" lon="11.0370867"><ele>474.0</ele><time>2026-04-25T14:45:12.725Z</time></trkpt><trkpt lat="43.1885383" lon="11.0370533"><ele>474.0</ele><time>2026-04-25T14:45:13.726Z</time></trkpt><trkpt lat="43.1886117" lon="11.0369133"><ele>474.0</ele><time>2026-04-25T14:45:14.725Z</time></trkpt><trkpt lat="43.1886733" lon="11.0366817"><ele>474.0</ele><time>2026-04-25T14:45:15.725Z</time></trkpt><trkpt lat="43.1887417" lon="11.0364167"><ele>471.33333333333337</ele><time>2026-04-25T14:45:16.725Z</time></trkpt><trkpt lat="43.1888367" lon="11.0361867"><ele>468.6666666666667</ele><time>2026-04-25T14:45:17.725Z</time></trkpt><trkpt lat="43.18896" lon="11.0359817"><ele>466.0</ele><time>2026-04-25T14:45:18.725Z</time></trkpt><trkpt lat="43.1891067" lon="11.0358"><ele>465.6666666666667</ele><time>2026-04-25T14:45:19.724Z</time></trkpt><trkpt lat="43.1892683" lon="11.0356167"><ele>465.33333333333337</ele><time>2026-04-25T14:45:20.726Z</time></trkpt><trkpt lat="43.189435" lon="11.0354383"><ele>465.0</ele><time>2026-04-25T14:45:21.724Z</time></trkpt><trkpt lat="43.1896" lon="11.03526"><ele>465.0</ele><time>2026-04-25T14:45:22.724Z</time></trkpt><trkpt lat="43.1897633" lon="11.03508"><ele>465.0</ele><time>2026-04-25T14:45:23.726Z</time></trkpt><trkpt lat="43.1899217" lon="11.034895"><ele>465.0</ele><time>2026-04-25T14:45:24.725Z</time></trkpt><trkpt lat="43.1900767" lon="11.0347367"><ele>464.66666666666663</ele><time>2026-04-25T14:45:25.724Z</time></trkpt><trkpt lat="43.1902267" lon="11.034615"><ele>464.3333333333333</ele><time>2026-04-25T14:45:26.725Z</time></trkpt><trkpt lat="43.19038" lon="11.0345433"><ele>464.0</ele><time>2026-04-25T14:45:27.725Z</time></trkpt><trkpt lat="43.190545" lon="11.03452"><ele>466.0</ele><time>2026-04-25T14:45:28.723Z</time></trkpt><trkpt lat="43.1907217" lon="11.03452"><ele>468.0</ele><time>2026-04-25T14:45:29.726Z</time></trkpt><trkpt lat="43.1909067" lon="11.0345083"><ele>470.0</ele><time>2026-04-25T14:45:30.724Z</time></trkpt><trkpt lat="43.1911" lon="11.0344567"><ele>470.0</ele><time>2026-04-25T14:45:31.725Z</time></trkpt><trkpt lat="43.1913117" lon="11.0343883"><ele>470.0</ele><time>2026-04-25T14:45:32.725Z</time></trkpt><trkpt lat="43.1915133" lon="11.0343017"><ele>470.0</ele><time>2026-04-25T14:45:33.724Z</time></trkpt><trkpt lat="43.1916983" lon="11.0342217"><ele>468.3333333333333</ele><time>2026-04-25T14:45:34.725Z</time></trkpt><trkpt lat="43.1918733" lon="11.0341583"><ele>466.66666666666663</ele><time>2026-04-25T14:45:35.725Z</time></trkpt><trkpt lat="43.19204" lon="11.0341283"><ele>465.0</ele><time>2026-04-25T14:45:36.724Z</time></trkpt><trkpt lat="43.1922017" lon="11.0341533"><ele>463.66666666666663</ele><time>2026-04-25T14:45:37.723Z</time></trkpt><trkpt lat="43.1923517" lon="11.0342183"><ele>462.3333333333333</ele><time>2026-04-25T14:45:38.725Z</time></trkpt><trkpt lat="43.1925067" lon="11.0343317"><ele>461.0</ele><time>2026-04-25T14:45:39.724Z</time></trkpt><trkpt lat="43.1926633" lon="11.034465"><ele>461.0</ele><time>2026-04-25T14:45:40.725Z</time></trkpt><trkpt lat="43.192815" lon="11.0346017"><ele>461.0</ele><time>2026-04-25T14:45:41.724Z</time></trkpt><trkpt lat="43.1929567" lon="11.03473"><ele>461.0</ele><time>2026-04-25T14:45:42.724Z</time></trkpt><trkpt lat="43.19309" lon="11.034855"><ele>462.0</ele><time>2026-04-25T14:45:43.724Z</time></trkpt><trkpt lat="43.1932283" lon="11.0349467"><ele>463.0</ele><time>2026-04-25T14:45:44.724Z</time></trkpt><trkpt lat="43.1933783" lon="11.0350117"><ele>464.0</ele><time>2026-04-25T14:45:45.726Z</time></trkpt><trkpt lat="43.1935517" lon="11.0350433"><ele>464.0</ele><time>2026-04-25T14:45:46.726Z</time></trkpt><trkpt lat="43.19376" lon="11.0350633"><ele>464.0</ele><time>2026-04-25T14:45:47.725Z</time></trkpt><trkpt lat="43.1939783" lon="11.035105"><ele>464.0</ele><time>2026-04-25T14:45:48.724Z</time></trkpt><trkpt lat="43.194195" lon="11.035145"><ele>463.0</ele><time>2026-04-25T14:45:49.724Z</time></trkpt><trkpt lat="43.1944083" lon="11.0351817"><ele>462.0</ele><time>2026-04-25T14:45:50.724Z</time></trkpt><trkpt lat="43.1946133" lon="11.03521"><ele>461.0</ele><time>2026-04-25T14:45:51.726Z</time></trkpt><trkpt lat="43.1948033" lon="11.035225"><ele>461.66666666666663</ele><time>2026-04-25T14:45:52.725Z</time></trkpt><trkpt lat="43.1949817" lon="11.0352183"><ele>462.33333333333337</ele><time>2026-04-25T14:45:53.724Z</time></trkpt><trkpt lat="43.1951483" lon="11.035175"><ele>463.0</ele><time>2026-04-25T14:45:54.724Z</time></trkpt><trkpt lat="43.1953083" lon="11.03509"><ele>463.0</ele><time>2026-04-25T14:45:55.726Z</time></trkpt><trkpt lat="43.19547" lon="11.03498"><ele>463.0</ele><time>2026-04-25T14:45:56.725Z</time></trkpt><trkpt lat="43.1956317" lon="11.03488"><ele>463.0</ele><time>2026-04-25T14:45:57.726Z</time></trkpt><trkpt lat="43.1957917" lon="11.0348217"><ele>464.6666666666667</ele><time>2026-04-25T14:45:58.724Z</time></trkpt><trkpt lat="43.1959467" lon="11.0348267"><ele>466.33333333333337</ele><time>2026-04-25T14:45:59.725Z</time></trkpt><trkpt lat="43.1961017" lon="11.0348967"><ele>468.0</ele><time>2026-04-25T14:46:00.724Z</time></trkpt><trkpt lat="43.1962567" lon="11.0349983"><ele>468.0</ele><time>2026-04-25T14:46:01.724Z</time></trkpt><trkpt lat="43.1964117" lon="11.0351083"><ele>468.0</ele><time>2026-04-25T14:46:02.727Z</time></trkpt><trkpt lat="43.196565" lon="11.0352067"><ele>468.0</ele><time>2026-04-25T14:46:03.724Z</time></trkpt><trkpt lat="43.1967167" lon="11.03527"><ele>465.5</ele><time>2026-04-25T14:46:04.723Z</time></trkpt><trkpt lat="43.196865" lon="11.0352933"><ele>463.0</ele><time>2026-04-25T14:46:05.725Z</time></trkpt><trkpt lat="43.1970067" lon="11.0352567"><ele>460.5</ele><time>2026-04-25T14:46:06.723Z</time></trkpt><trkpt lat="43.1971367" lon="11.0351667"><ele>458.0</ele><time>2026-04-25T14:46:07.725Z</time></trkpt><trkpt lat="43.197265" lon="11.0350333"><ele>455.3333333333333</ele><time>2026-04-25T14:46:08.725Z</time></trkpt><trkpt lat="43.1973983" lon="11.0348467"><ele>452.66666666666663</ele><time>2026-04-25T14:46:09.724Z</time></trkpt><trkpt lat="43.1975467" lon="11.0346467"><ele>450.0</ele><time>2026-04-25T14:46:10.723Z</time></trkpt><trkpt lat="43.1977017" lon="11.034445"><ele>450.0</ele><time>2026-04-25T14:46:11.725Z</time></trkpt><trkpt lat="43.197855" lon="11.0342567"><ele>450.0</ele><time>2026-04-25T14:46:12.723Z</time></trkpt><trkpt lat="43.1979983" lon="11.0340833"><ele>450.0</ele><time>2026-04-25T14:46:13.724Z</time></trkpt><trkpt lat="43.19814" lon="11.0339283"><ele>451.33333333333337</ele><time>2026-04-25T14:46:14.724Z</time></trkpt><trkpt lat="43.1982917" lon="11.0337883"><ele>452.6666666666667</ele><time>2026-04-25T14:46:15.724Z</time></trkpt><trkpt lat="43.1984533" lon="11.03365"><ele>454.0</ele><time>2026-04-25T14:46:16.724Z</time></trkpt><trkpt lat="43.19862" lon="11.0335167"><ele>454.0</ele><time>2026-04-25T14:46:17.724Z</time></trkpt><trkpt lat="43.1987933" lon="11.0333833"><ele>454.0</ele><time>2026-04-25T14:46:18.727Z</time></trkpt><trkpt lat="43.198965" lon="11.0332517"><ele>454.0</ele><time>2026-04-25T14:46:19.724Z</time></trkpt><trkpt lat="43.1991467" lon="11.0331367"><ele>451.0</ele><time>2026-04-25T14:46:20.726Z</time></trkpt><trkpt lat="43.1993333" lon="11.033035"><ele>448.0</ele><time>2026-04-25T14:46:21.724Z</time></trkpt><trkpt lat="43.1995383" lon="11.032945"><ele>445.0</ele><time>2026-04-25T14:46:22.726Z</time></trkpt><trkpt lat="43.1997467" lon="11.0328633"><ele>443.6666666666667</ele><time>2026-04-25T14:46:23.724Z</time></trkpt><trkpt lat="43.19996" lon="11.0327967"><ele>442.33333333333337</ele><time>2026-04-25T14:46:24.725Z</time></trkpt><trkpt lat="43.20017" lon="11.0327283"><ele>441.0</ele><time>2026-04-25T14:46:25.725Z</time></trkpt><trkpt lat="43.2003833" lon="11.032665"><ele>441.0</ele><time>2026-04-25T14:46:26.725Z</time></trkpt><trkpt lat="43.2005967" lon="11.0326033"><ele>441.0</ele><time>2026-04-25T14:46:27.725Z</time></trkpt><trkpt lat="43.200805" lon="11.03254"><ele>441.0</ele><time>2026-04-25T14:46:28.726Z</time></trkpt><trkpt lat="43.2010117" lon="11.0324833"><ele>439.33333333333337</ele><time>2026-04-25T14:46:29.724Z</time></trkpt><trkpt lat="43.20121" lon="11.0324217"><ele>437.6666666666667</ele><time>2026-04-25T14:46:30.724Z</time></trkpt><trkpt lat="43.2013983" lon="11.0323467"><ele>436.0</ele><time>2026-04-25T14:46:31.724Z</time></trkpt><trkpt lat="43.2015783" lon="11.03225"><ele>436.0</ele><time>2026-04-25T14:46:32.725Z</time></trkpt><trkpt lat="43.201745" lon="11.0321217"><ele>436.0</ele><time>2026-04-25T14:46:33.724Z</time></trkpt><trkpt lat="43.2018967" lon="11.0319583"><ele>436.0</ele><time>2026-04-25T14:46:34.723Z</time></trkpt><trkpt lat="43.202035" lon="11.03174"><ele>438.0</ele><time>2026-04-25T14:46:35.725Z</time></trkpt><trkpt lat="43.2021767" lon="11.031505"><ele>440.0</ele><time>2026-04-25T14:46:36.724Z</time></trkpt><trkpt lat="43.20232" lon="11.0312633"><ele>442.0</ele><time>2026-04-25T14:46:37.724Z</time></trkpt><trkpt lat="43.20247" lon="11.031025"><ele>436.6666666666667</ele><time>2026-04-25T14:46:38.724Z</time></trkpt><trkpt lat="43.202615" lon="11.0307983"><ele>431.33333333333337</ele><time>2026-04-25T14:46:39.725Z</time></trkpt><trkpt lat="43.2027483" lon="11.0305917"><ele>426.0</ele><time>2026-04-25T14:46:40.726Z</time></trkpt><trkpt lat="43.2028683" lon="11.0304033"><ele>426.0</ele><time>2026-04-25T14:46:41.725Z</time></trkpt><trkpt lat="43.20298" lon="11.030235"><ele>426.0</ele><time>2026-04-25T14:46:42.725Z</time></trkpt><trkpt lat="43.203095" lon="11.0301067"><ele>426.0</ele><time>2026-04-25T14:46:43.725Z</time></trkpt><trkpt lat="43.2032233" lon="11.0300233"><ele>427.33333333333337</ele><time>2026-04-25T14:46:44.724Z</time></trkpt><trkpt lat="43.2033683" lon="11.0299667"><ele>428.6666666666667</ele><time>2026-04-25T14:46:45.725Z</time></trkpt><trkpt lat="43.203535" lon="11.02995"><ele>430.0</ele><time>2026-04-25T14:46:46.724Z</time></trkpt><trkpt lat="43.203715" lon="11.0299567"><ele>435.6666666666667</ele><time>2026-04-25T14:46:47.725Z</time></trkpt><trkpt lat="43.203895" lon="11.0299817"><ele>441.33333333333337</ele><time>2026-04-25T14:46:48.724Z</time></trkpt><trkpt lat="43.2040617" lon="11.0299983"><ele>447.0</ele><time>2026-04-25T14:46:49.724Z</time></trkpt><trkpt lat="43.204215" lon="11.0299967"><ele>448.0</ele><time>2026-04-25T14:46:50.725Z</time></trkpt><trkpt lat="43.204355" lon="11.0299767"><ele>449.0</ele><time>2026-04-25T14:46:51.725Z</time></trkpt><trkpt lat="43.20447" lon="11.0299"><ele>450.0</ele><time>2026-04-25T14:46:52.725Z</time></trkpt><trkpt lat="43.20458" lon="11.0297933"><ele>451.0</ele><time>2026-04-25T14:46:53.725Z</time></trkpt><trkpt lat="43.2046667" lon="11.0296433"><ele>448.6666666666667</ele><time>2026-04-25T14:46:54.726Z</time></trkpt><trkpt lat="43.20474" lon="11.029465"><ele>446.33333333333337</ele><time>2026-04-25T14:46:55.726Z</time></trkpt><trkpt lat="43.20482" lon="11.0292583"><ele>444.0</ele><time>2026-04-25T14:46:56.727Z</time></trkpt><trkpt lat="43.2049317" lon="11.02909"><ele>444.0</ele><time>2026-04-25T14:46:57.725Z</time></trkpt><trkpt lat="43.2050567" lon="11.0289617"><ele>444.0</ele><time>2026-04-25T14:46:58.725Z</time></trkpt><trkpt lat="43.2052017" lon="11.02889"><ele>444.0</ele><time>2026-04-25T14:46:59.725Z</time></trkpt><trkpt lat="43.2053617" lon="11.0288767"><ele>444.0</ele><time>2026-04-25T14:47:00.726Z</time></trkpt><trkpt lat="43.2055183" lon="11.0289033"><ele>444.0</ele><time>2026-04-25T14:47:01.725Z</time></trkpt><trkpt lat="43.2056917" lon="11.02897"><ele>444.0</ele><time>2026-04-25T14:47:02.725Z</time></trkpt><trkpt lat="43.2058783" lon="11.0290433"><ele>442.66666666666663</ele><time>2026-04-25T14:47:03.725Z</time></trkpt><trkpt lat="43.20608" lon="11.029115"><ele>441.3333333333333</ele><time>2026-04-25T14:47:04.724Z</time></trkpt><trkpt lat="43.2062833" lon="11.0292083"><ele>440.0</ele><time>2026-04-25T14:47:05.726Z</time></trkpt><trkpt lat="43.2064933" lon="11.0293233"><ele>443.66666666666663</ele><time>2026-04-25T14:47:06.725Z</time></trkpt><trkpt lat="43.2066983" lon="11.0294283"><ele>447.33333333333337</ele><time>2026-04-25T14:47:07.724Z</time></trkpt><trkpt lat="43.206915" lon="11.0295367"><ele>451.0</ele><time>2026-04-25T14:47:08.725Z</time></trkpt><trkpt lat="43.2071233" lon="11.0296317"><ele>451.0</ele><time>2026-04-25T14:47:09.725Z</time></trkpt><trkpt lat="43.207335" lon="11.02973"><ele>451.0</ele><time>2026-04-25T14:47:10.725Z</time></trkpt><trkpt lat="43.2075583" lon="11.0298133"><ele>451.0</ele><time>2026-04-25T14:47:11.725Z</time></trkpt><trkpt lat="43.2077867" lon="11.029865"><ele>451.0</ele><time>2026-04-25T14:47:12.725Z</time></trkpt><trkpt lat="43.2080167" lon="11.0298917"><ele>445.5</ele><time>2026-04-25T14:47:13.725Z</time></trkpt><trkpt lat="43.20825" lon="11.0299117"><ele>440.0</ele><time>2026-04-25T14:47:14.726Z</time></trkpt><trkpt lat="43.2084883" lon="11.0299217"><ele>440.0</ele><time>2026-04-25T14:47:15.724Z</time></trkpt><trkpt lat="43.2087433" lon="11.0299383"><ele>440.0</ele><time>2026-04-25T14:47:16.725Z</time></trkpt><trkpt lat="43.2089967" lon="11.0300133"><ele>439.0</ele><time>2026-04-25T14:47:17.723Z</time></trkpt><trkpt lat="43.2092683" lon="11.0301"><ele>438.0</ele><time>2026-04-25T14:47:18.726Z</time></trkpt><trkpt lat="43.2095233" lon="11.03015"><ele>438.0</ele><time>2026-04-25T14:47:19.726Z</time></trkpt><trkpt lat="43.2097667" lon="11.0301817"><ele>438.0</ele><time>2026-04-25T14:47:20.724Z</time></trkpt><trkpt lat="43.2099883" lon="11.03019"><ele>437.0</ele><time>2026-04-25T14:47:21.724Z</time></trkpt><trkpt lat="43.2102033" lon="11.0302033"><ele>436.0</ele><time>2026-04-25T14:47:22.724Z</time></trkpt><trkpt lat="43.2104183" lon="11.030225"><ele>435.0</ele><time>2026-04-25T14:47:23.725Z</time></trkpt><trkpt lat="43.2106283" lon="11.030255"><ele>436.33333333333337</ele><time>2026-04-25T14:47:24.725Z</time></trkpt><trkpt lat="43.2108417" lon="11.030295"><ele>437.6666666666667</ele><time>2026-04-25T14:47:25.725Z</time></trkpt><trkpt lat="43.2110617" lon="11.0303517"><ele>439.0</ele><time>2026-04-25T14:47:26.727Z</time></trkpt><trkpt lat="43.2112767" lon="11.0304067"><ele>437.6666666666667</ele><time>2026-04-25T14:47:27.725Z</time></trkpt><trkpt lat="43.2114983" lon="11.03047"><ele>436.33333333333337</ele><time>2026-04-25T14:47:28.725Z</time></trkpt><trkpt lat="43.2117133" lon="11.0305417"><ele>435.0</ele><time>2026-04-25T14:47:29.725Z</time></trkpt><trkpt lat="43.2119283" lon="11.0306533"><ele>435.0</ele><time>2026-04-25T14:47:30.728Z</time></trkpt><trkpt lat="43.21213" lon="11.0307967"><ele>435.0</ele><time>2026-04-25T14:47:31.725Z</time></trkpt><trkpt lat="43.2123133" lon="11.0309467"><ele>435.0</ele><time>2026-04-25T14:47:32.727Z</time></trkpt><trkpt lat="43.212485" lon="11.03109"><ele>434.0</ele><time>2026-04-25T14:47:33.725Z</time></trkpt><trkpt lat="43.212655" lon="11.0312133"><ele>433.0</ele><time>2026-04-25T14:47:34.725Z</time></trkpt><trkpt lat="43.2128067" lon="11.0313217"><ele>432.0</ele><time>2026-04-25T14:47:35.724Z</time></trkpt><trkpt lat="43.212965" lon="11.0313833"><ele>432.0</ele><time>2026-04-25T14:47:36.725Z</time></trkpt><trkpt lat="43.213125" lon="11.03141"><ele>432.0</ele><time>2026-04-25T14:47:37.724Z</time></trkpt><trkpt lat="43.2132983" lon="11.0314"><ele>432.0</ele><time>2026-04-25T14:47:38.726Z</time></trkpt><trkpt lat="43.2134817" lon="11.0313617"><ele>432.33333333333337</ele><time>2026-04-25T14:47:39.725Z</time></trkpt><trkpt lat="43.21367" lon="11.031315"><ele>432.6666666666667</ele><time>2026-04-25T14:47:40.724Z</time></trkpt><trkpt lat="43.2138567" lon="11.03127"><ele>433.0</ele><time>2026-04-25T14:47:41.723Z</time></trkpt><trkpt lat="43.2140383" lon="11.0312333"><ele>433.0</ele><time>2026-04-25T14:47:42.723Z</time></trkpt><trkpt lat="43.214225" lon="11.0312267"><ele>433.0</ele><time>2026-04-25T14:47:43.723Z</time></trkpt><trkpt lat="43.2144167" lon="11.0312633"><ele>433.0</ele><time>2026-04-25T14:47:44.725Z</time></trkpt><trkpt lat="43.2146" lon="11.03133"><ele>433.0</ele><time>2026-04-25T14:47:45.725Z</time></trkpt><trkpt lat="43.2147733" lon="11.03144"><ele>433.0</ele><time>2026-04-25T14:47:46.726Z</time></trkpt><trkpt lat="43.2149383" lon="11.03159"><ele>433.0</ele><time>2026-04-25T14:47:47.725Z</time></trkpt><trkpt lat="43.2150983" lon="11.0317633"><ele>436.33333333333337</ele><time>2026-04-25T14:47:48.723Z</time></trkpt><trkpt lat="43.2152617" lon="11.0319533"><ele>439.66666666666663</ele><time>2026-04-25T14:47:49.725Z</time></trkpt><trkpt lat="43.21543" lon="11.0321433"><ele>443.0</ele><time>2026-04-25T14:47:50.725Z</time></trkpt><trkpt lat="43.2155983" lon="11.0323417"><ele>441.0</ele><time>2026-04-25T14:47:51.725Z</time></trkpt><trkpt lat="43.2157683" lon="11.03254"><ele>439.0</ele><time>2026-04-25T14:47:52.725Z</time></trkpt><trkpt lat="43.2159417" lon="11.032735"><ele>437.0</ele><time>2026-04-25T14:47:53.723Z</time></trkpt><trkpt lat="43.21612" lon="11.0329317"><ele>437.0</ele><time>2026-04-25T14:47:54.725Z</time></trkpt><trkpt lat="43.2162983" lon="11.0331383"><ele>437.0</ele><time>2026-04-25T14:47:55.736Z</time></trkpt><trkpt lat="43.2164783" lon="11.0333467"><ele>432.5</ele><time>2026-04-25T14:47:56.724Z</time></trkpt><trkpt lat="43.2166583" lon="11.03355"><ele>428.0</ele><time>2026-04-25T14:47:57.725Z</time></trkpt><trkpt lat="43.21684" lon="11.0337583"><ele>428.0</ele><time>2026-04-25T14:47:58.724Z</time></trkpt><trkpt lat="43.2170167" lon="11.0339667"><ele>428.0</ele><time>2026-04-25T14:47:59.725Z</time></trkpt><trkpt lat="43.2171933" lon="11.034175"><ele>427.0</ele><time>2026-04-25T14:48:00.725Z</time></trkpt><trkpt lat="43.21737" lon="11.0343767"><ele>426.0</ele><time>2026-04-25T14:48:01.725Z</time></trkpt><trkpt lat="43.2175517" lon="11.0345767"><ele>426.0</ele><time>2026-04-25T14:48:02.726Z</time></trkpt><trkpt lat="43.2177433" lon="11.0347767"><ele>426.0</ele><time>2026-04-25T14:48:03.724Z</time></trkpt><trkpt lat="43.2179383" lon="11.03497"><ele>423.5</ele><time>2026-04-25T14:48:04.724Z</time></trkpt><trkpt lat="43.2181183" lon="11.0351767"><ele>421.0</ele><time>2026-04-25T14:48:05.725Z</time></trkpt><trkpt lat="43.218305" lon="11.0353717"><ele>421.0</ele><time>2026-04-25T14:48:06.726Z</time></trkpt><trkpt lat="43.2184833" lon="11.035565"><ele>421.0</ele><time>2026-04-25T14:48:07.725Z</time></trkpt><trkpt lat="43.2186483" lon="11.0357633"><ele>421.0</ele><time>2026-04-25T14:48:08.725Z</time></trkpt><trkpt lat="43.2188083" lon="11.0359683"><ele>418.6666666666667</ele><time>2026-04-25T14:48:09.725Z</time></trkpt><trkpt lat="43.21896" lon="11.0361817"><ele>416.33333333333337</ele><time>2026-04-25T14:48:10.725Z</time></trkpt><trkpt lat="43.2191067" lon="11.0364033"><ele>414.0</ele><time>2026-04-25T14:48:11.725Z</time></trkpt><trkpt lat="43.2192533" lon="11.03663"><ele>414.66666666666663</ele><time>2026-04-25T14:48:12.725Z</time></trkpt><trkpt lat="43.219405" lon="11.036855"><ele>415.3333333333333</ele><time>2026-04-25T14:48:13.725Z</time></trkpt><trkpt lat="43.2195583" lon="11.03708"><ele>416.0</ele><time>2026-04-25T14:48:14.725Z</time></trkpt><trkpt lat="43.2197033" lon="11.0373167"><ele>418.0</ele><time>2026-04-25T14:48:15.726Z</time></trkpt><trkpt lat="43.2198483" lon="11.03755"><ele>420.0</ele><time>2026-04-25T14:48:16.724Z</time></trkpt><trkpt lat="43.2199967" lon="11.0377817"><ele>422.0</ele><time>2026-04-25T14:48:17.725Z</time></trkpt><trkpt lat="43.22014" lon="11.0380117"><ele>422.0</ele><time>2026-04-25T14:48:18.724Z</time></trkpt><trkpt lat="43.2202783" lon="11.0382317"><ele>422.0</ele><time>2026-04-25T14:48:19.724Z</time></trkpt><trkpt lat="43.2204133" lon="11.03842"><ele>422.0</ele><time>2026-04-25T14:48:20.725Z</time></trkpt><trkpt lat="43.2205483" lon="11.0385967"><ele>424.66666666666663</ele><time>2026-04-25T14:48:21.725Z</time></trkpt><trkpt lat="43.220695" lon="11.0387267"><ele>427.33333333333337</ele><time>2026-04-25T14:48:22.724Z</time></trkpt><trkpt lat="43.2208683" lon="11.0388233"><ele>430.0</ele><time>2026-04-25T14:48:23.724Z</time></trkpt><trkpt lat="43.2210517" lon="11.0388917"><ele>430.0</ele><time>2026-04-25T14:48:24.725Z</time></trkpt><trkpt lat="43.2212483" lon="11.03895"><ele>430.0</ele><time>2026-04-25T14:48:25.725Z</time></trkpt><trkpt lat="43.221455" lon="11.0390183"><ele>430.0</ele><time>2026-04-25T14:48:26.725Z</time></trkpt><trkpt lat="43.2216517" lon="11.039115"><ele>426.33333333333337</ele><time>2026-04-25T14:48:27.725Z</time></trkpt><trkpt lat="43.22184" lon="11.0392317"><ele>422.66666666666663</ele><time>2026-04-25T14:48:28.726Z</time></trkpt><trkpt lat="43.222015" lon="11.0393783"><ele>419.0</ele><time>2026-04-25T14:48:29.724Z</time></trkpt><trkpt lat="43.2221817" lon="11.0395467"><ele>420.0</ele><time>2026-04-25T14:48:30.725Z</time></trkpt><trkpt lat="43.2223433" lon="11.03973"><ele>421.0</ele><time>2026-04-25T14:48:31.725Z</time></trkpt><trkpt lat="43.2225117" lon="11.0399167"><ele>422.0</ele><time>2026-04-25T14:48:32.725Z</time></trkpt><trkpt lat="43.222685" lon="11.040115"><ele>422.0</ele><time>2026-04-25T14:48:33.725Z</time></trkpt><trkpt lat="43.2228633" lon="11.04031"><ele>422.0</ele><time>2026-04-25T14:48:34.725Z</time></trkpt><trkpt lat="43.2230333" lon="11.0405067"><ele>423.3333333333333</ele><time>2026-04-25T14:48:35.725Z</time></trkpt><trkpt lat="43.223195" lon="11.04069"><ele>424.66666666666663</ele><time>2026-04-25T14:48:36.724Z</time></trkpt><trkpt lat="43.2233517" lon="11.0408533"><ele>426.0</ele><time>2026-04-25T14:48:37.724Z</time></trkpt><trkpt lat="43.2235017" lon="11.041"><ele>426.0</ele><time>2026-04-25T14:48:38.726Z</time></trkpt><trkpt lat="43.223665" lon="11.0410967"><ele>426.0</ele><time>2026-04-25T14:48:39.725Z</time></trkpt><trkpt lat="43.22385" lon="11.041155"><ele>426.0</ele><time>2026-04-25T14:48:40.725Z</time></trkpt><trkpt lat="43.224045" lon="11.0411817"><ele>423.0</ele><time>2026-04-25T14:48:41.724Z</time></trkpt><trkpt lat="43.2242267" lon="11.04123"><ele>420.0</ele><time>2026-04-25T14:48:42.725Z</time></trkpt><trkpt lat="43.2243933" lon="11.0413017"><ele>417.0</ele><time>2026-04-25T14:48:43.724Z</time></trkpt><trkpt lat="43.2245417" lon="11.041405"><ele>417.0</ele><time>2026-04-25T14:48:44.725Z</time></trkpt><trkpt lat="43.2246733" lon="11.0415483"><ele>417.0</ele><time>2026-04-25T14:48:45.726Z</time></trkpt><trkpt lat="43.2247983" lon="11.0417233"><ele>417.0</ele><time>2026-04-25T14:48:46.725Z</time></trkpt><trkpt lat="43.2249217" lon="11.0419033"><ele>419.66666666666663</ele><time>2026-04-25T14:48:47.724Z</time></trkpt><trkpt lat="43.22506" lon="11.0420783"><ele>422.3333333333333</ele><time>2026-04-25T14:48:48.724Z</time></trkpt><trkpt lat="43.2252233" lon="11.042255"><ele>425.0</ele><time>2026-04-25T14:48:49.725Z</time></trkpt><trkpt lat="43.2253967" lon="11.0424167"><ele>424.66666666666663</ele><time>2026-04-25T14:48:50.725Z</time></trkpt><trkpt lat="43.22558" lon="11.0425683"><ele>424.33333333333337</ele><time>2026-04-25T14:48:51.725Z</time></trkpt><trkpt lat="43.225775" lon="11.042715"><ele>424.0</ele><time>2026-04-25T14:48:52.724Z</time></trkpt><trkpt lat="43.2259683" lon="11.0428617"><ele>424.0</ele><time>2026-04-25T14:48:53.724Z</time></trkpt><trkpt lat="43.226165" lon="11.0430083"><ele>424.0</ele><time>2026-04-25T14:48:54.723Z</time></trkpt><trkpt lat="43.22636" lon="11.0431467"><ele>424.0</ele><time>2026-04-25T14:48:55.724Z</time></trkpt><trkpt lat="43.2265483" lon="11.0432683"><ele>423.33333333333337</ele><time>2026-04-25T14:48:56.724Z</time></trkpt><trkpt lat="43.2267267" lon="11.0433933"><ele>422.66666666666663</ele><time>2026-04-25T14:48:57.724Z</time></trkpt><trkpt lat="43.22688" lon="11.0435283"><ele>422.0</ele><time>2026-04-25T14:48:58.724Z</time></trkpt><trkpt lat="43.2270117" lon="11.0436933"><ele>422.0</ele><time>2026-04-25T14:48:59.724Z</time></trkpt><trkpt lat="43.2271083" lon="11.043885"><ele>422.0</ele><time>2026-04-25T14:49:00.724Z</time></trkpt><trkpt lat="43.227175" lon="11.0440917"><ele>422.0</ele><time>2026-04-25T14:49:01.723Z</time></trkpt><trkpt lat="43.2272117" lon="11.04433"><ele>418.0</ele><time>2026-04-25T14:49:02.724Z</time></trkpt><trkpt lat="43.2272233" lon="11.04459"><ele>414.0</ele><time>2026-04-25T14:49:03.724Z</time></trkpt><trkpt lat="43.2272333" lon="11.04485"><ele>410.0</ele><time>2026-04-25T14:49:04.724Z</time></trkpt><trkpt lat="43.2272517" lon="11.0450917"><ele>408.3333333333333</ele><time>2026-04-25T14:49:05.724Z</time></trkpt><trkpt lat="43.227285" lon="11.0453083"><ele>406.66666666666663</ele><time>2026-04-25T14:49:06.724Z</time></trkpt><trkpt lat="43.2273467" lon="11.0455033"><ele>405.0</ele><time>2026-04-25T14:49:07.723Z</time></trkpt><trkpt lat="43.2274383" lon="11.0456717"><ele>406.0</ele><time>2026-04-25T14:49:08.723Z</time></trkpt><trkpt lat="43.2275517" lon="11.0458083"><ele>407.0</ele><time>2026-04-25T14:49:09.724Z</time></trkpt><trkpt lat="43.227705" lon="11.0458983"><ele>408.0</ele><time>2026-04-25T14:49:10.723Z</time></trkpt><trkpt lat="43.2278717" lon="11.04597"><ele>408.0</ele><time>2026-04-25T14:49:11.724Z</time></trkpt><trkpt lat="43.2280433" lon="11.0460367"><ele>408.0</ele><time>2026-04-25T14:49:12.723Z</time></trkpt><trkpt lat="43.228215" lon="11.0461083"><ele>408.0</ele><time>2026-04-25T14:49:13.727Z</time></trkpt><trkpt lat="43.2283833" lon="11.0461817"><ele>409.66666666666663</ele><time>2026-04-25T14:49:14.723Z</time></trkpt><trkpt lat="43.2285467" lon="11.04625"><ele>411.3333333333333</ele><time>2026-04-25T14:49:15.723Z</time></trkpt><trkpt lat="43.2287067" lon="11.04632"><ele>413.0</ele><time>2026-04-25T14:49:16.724Z</time></trkpt><trkpt lat="43.2288667" lon="11.0463883"><ele>411.66666666666663</ele><time>2026-04-25T14:49:17.723Z</time></trkpt><trkpt lat="43.22902" lon="11.046455"><ele>410.33333333333337</ele><time>2026-04-25T14:49:18.725Z</time></trkpt><trkpt lat="43.229165" lon="11.0465217"><ele>409.0</ele><time>2026-04-25T14:49:19.724Z</time></trkpt><trkpt lat="43.229305" lon="11.046585"><ele>407.75</ele><time>2026-04-25T14:49:20.725Z</time></trkpt><trkpt lat="43.2294417" lon="11.046655"><ele>406.5</ele><time>2026-04-25T14:49:21.726Z</time></trkpt><trkpt lat="43.2295767" lon="11.04673"><ele>405.25</ele><time>2026-04-25T14:49:22.724Z</time></trkpt><trkpt lat="43.229705" lon="11.0468183"><ele>404.0</ele><time>2026-04-25T14:49:23.723Z</time></trkpt><trkpt lat="43.2298383" lon="11.0469217"><ele>403.0</ele><time>2026-04-25T14:49:24.725Z</time></trkpt><trkpt lat="43.22998" lon="11.04705"><ele>402.0</ele><time>2026-04-25T14:49:25.725Z</time></trkpt><trkpt lat="43.230125" lon="11.0471933"><ele>401.0</ele><time>2026-04-25T14:49:26.723Z</time></trkpt><trkpt lat="43.2302717" lon="11.04734"><ele>401.0</ele><time>2026-04-25T14:49:27.724Z</time></trkpt><trkpt lat="43.230425" lon="11.0474917"><ele>401.0</ele><time>2026-04-25T14:49:28.724Z</time></trkpt><trkpt lat="43.23058" lon="11.047645"><ele>401.0</ele><time>2026-04-25T14:49:29.723Z</time></trkpt><trkpt lat="43.2307317" lon="11.0478033"><ele>401.0</ele><time>2026-04-25T14:49:30.723Z</time></trkpt><trkpt lat="43.2308883" lon="11.0479617"><ele>401.0</ele><time>2026-04-25T14:49:31.726Z</time></trkpt><trkpt lat="43.2310483" lon="11.0481217"><ele>401.0</ele><time>2026-04-25T14:49:32.724Z</time></trkpt><trkpt lat="43.2312117" lon="11.0482833"><ele>401.66666666666663</ele><time>2026-04-25T14:49:33.724Z</time></trkpt><trkpt lat="43.2313783" lon="11.0484483"><ele>402.33333333333337</ele><time>2026-04-25T14:49:34.724Z</time></trkpt><trkpt lat="43.23154" lon="11.0486133"><ele>403.0</ele><time>2026-04-25T14:49:35.723Z</time></trkpt><trkpt lat="43.2317" lon="11.0487783"><ele>404.6666666666667</ele><time>2026-04-25T14:49:36.724Z</time></trkpt><trkpt lat="43.23186" lon="11.0489433"><ele>406.33333333333337</ele><time>2026-04-25T14:49:37.724Z</time></trkpt><trkpt lat="43.2320233" lon="11.049105"><ele>408.0</ele><time>2026-04-25T14:49:38.724Z</time></trkpt><trkpt lat="43.2321883" lon="11.0492667"><ele>410.33333333333337</ele><time>2026-04-25T14:49:39.724Z</time></trkpt><trkpt lat="43.232355" lon="11.0494283"><ele>412.6666666666667</ele><time>2026-04-25T14:49:40.724Z</time></trkpt><trkpt lat="43.23252" lon="11.0495967"><ele>415.0</ele><time>2026-04-25T14:49:41.725Z</time></trkpt><trkpt lat="43.2326883" lon="11.0497583"><ele>415.0</ele><time>2026-04-25T14:49:42.725Z</time></trkpt><trkpt lat="43.2328467" lon="11.0499383"><ele>415.0</ele><time>2026-04-25T14:49:43.724Z</time></trkpt><trkpt lat="43.2329983" lon="11.050135"><ele>415.0</ele><time>2026-04-25T14:49:44.724Z</time></trkpt><trkpt lat="43.2331467" lon="11.0503383"><ele>417.33333333333337</ele><time>2026-04-25T14:49:45.723Z</time></trkpt><trkpt lat="43.2332967" lon="11.050545"><ele>419.66666666666663</ele><time>2026-04-25T14:49:46.724Z</time></trkpt><trkpt lat="43.233445" lon="11.0507317"><ele>422.0</ele><time>2026-04-25T14:49:47.724Z</time></trkpt><trkpt lat="43.2335767" lon="11.0509133"><ele>422.66666666666663</ele><time>2026-04-25T14:49:48.724Z</time></trkpt><trkpt lat="43.2336783" lon="11.0511067"><ele>423.33333333333337</ele><time>2026-04-25T14:49:49.723Z</time></trkpt><trkpt lat="43.2337417" lon="11.0513167"><ele>424.0</ele><time>2026-04-25T14:49:50.725Z</time></trkpt><trkpt lat="43.2337683" lon="11.0515567"><ele>423.0</ele><time>2026-04-25T14:49:51.723Z</time></trkpt><trkpt lat="43.23377" lon="11.051805"><ele>422.0</ele><time>2026-04-25T14:49:52.724Z</time></trkpt><trkpt lat="43.2337717" lon="11.0520383"><ele>421.0</ele><time>2026-04-25T14:49:53.723Z</time></trkpt><trkpt lat="43.2337883" lon="11.0522367"><ele>421.0</ele><time>2026-04-25T14:49:54.724Z</time></trkpt><trkpt lat="43.2338367" lon="11.0524017"><ele>421.0</ele><time>2026-04-25T14:49:55.724Z</time></trkpt><trkpt lat="43.23392" lon="11.052525"><ele>421.0</ele><time>2026-04-25T14:49:56.724Z</time></trkpt><trkpt lat="43.2340383" lon="11.05261"><ele>421.0</ele><time>2026-04-25T14:49:57.724Z</time></trkpt><trkpt lat="43.234175" lon="11.05264"><ele>425.33333333333337</ele><time>2026-04-25T14:49:58.724Z</time></trkpt><trkpt lat="43.2343233" lon="11.0526133"><ele>429.66666666666663</ele><time>2026-04-25T14:49:59.725Z</time></trkpt><trkpt lat="43.234475" lon="11.0525367"><ele>434.0</ele><time>2026-04-25T14:50:00.725Z</time></trkpt><trkpt lat="43.2346317" lon="11.0524433"><ele>435.66666666666663</ele><time>2026-04-25T14:50:01.724Z</time></trkpt><trkpt lat="43.2347917" lon="11.052375"><ele>437.33333333333337</ele><time>2026-04-25T14:50:02.724Z</time></trkpt><trkpt lat="43.2349433" lon="11.05237"><ele>439.0</ele><time>2026-04-25T14:50:03.724Z</time></trkpt><trkpt lat="43.2350933" lon="11.052425"><ele>439.6666666666667</ele><time>2026-04-25T14:50:04.724Z</time></trkpt><trkpt lat="43.2352483" lon="11.05252"><ele>440.33333333333337</ele><time>2026-04-25T14:50:05.724Z</time></trkpt><trkpt lat="43.23542" lon="11.0526417"><ele>441.0</ele><time>2026-04-25T14:50:06.724Z</time></trkpt><trkpt lat="43.2355933" lon="11.052765"><ele>447.0</ele><time>2026-04-25T14:50:07.724Z</time></trkpt><trkpt lat="43.2357733" lon="11.0528917"><ele>453.0</ele><time>2026-04-25T14:50:08.723Z</time></trkpt><trkpt lat="43.2359433" lon="11.0530217"><ele>459.0</ele><time>2026-04-25T14:50:09.724Z</time></trkpt><trkpt lat="43.2361033" lon="11.0531383"><ele>459.0</ele><time>2026-04-25T14:50:10.725Z</time></trkpt><trkpt lat="43.23627" lon="11.05322"><ele>459.0</ele><time>2026-04-25T14:50:11.723Z</time></trkpt><trkpt lat="43.2364483" lon="11.0532617"><ele>459.0</ele><time>2026-04-25T14:50:12.724Z</time></trkpt><trkpt lat="43.2366367" lon="11.0532733"><ele>461.66666666666663</ele><time>2026-04-25T14:50:13.725Z</time></trkpt><trkpt lat="43.2368317" lon="11.0532717"><ele>464.3333333333333</ele><time>2026-04-25T14:50:14.724Z</time></trkpt><trkpt lat="43.2370317" lon="11.0532683"><ele>467.0</ele><time>2026-04-25T14:50:15.724Z</time></trkpt><trkpt lat="43.2372383" lon="11.0532667"><ele>466.3333333333333</ele><time>2026-04-25T14:50:16.724Z</time></trkpt><trkpt lat="43.23745" lon="11.0532667"><ele>465.66666666666663</ele><time>2026-04-25T14:50:17.725Z</time></trkpt><trkpt lat="43.23766" lon="11.053265"><ele>465.0</ele><time>2026-04-25T14:50:18.724Z</time></trkpt><trkpt lat="43.2378667" lon="11.0532667"><ele>465.0</ele><time>2026-04-25T14:50:19.722Z</time></trkpt><trkpt lat="43.2380733" lon="11.0532617"><ele>465.0</ele><time>2026-04-25T14:50:20.725Z</time></trkpt><trkpt lat="43.2382783" lon="11.0532433"><ele>465.0</ele><time>2026-04-25T14:50:21.723Z</time></trkpt><trkpt lat="43.23848" lon="11.053215"><ele>466.0</ele><time>2026-04-25T14:50:22.725Z</time></trkpt><trkpt lat="43.2386683" lon="11.05318"><ele>467.0</ele><time>2026-04-25T14:50:23.726Z</time></trkpt><trkpt lat="43.238845" lon="11.05315"><ele>468.0</ele><time>2026-04-25T14:50:24.724Z</time></trkpt><trkpt lat="43.2390083" lon="11.0531467"><ele>469.0</ele><time>2026-04-25T14:50:25.724Z</time></trkpt><trkpt lat="43.2391667" lon="11.05319"><ele>470.0</ele><time>2026-04-25T14:50:26.725Z</time></trkpt><trkpt lat="43.2393183" lon="11.0532767"><ele>471.0</ele><time>2026-04-25T14:50:27.724Z</time></trkpt><trkpt lat="43.239455" lon="11.053405"><ele>468.66666666666663</ele><time>2026-04-25T14:50:28.724Z</time></trkpt><trkpt lat="43.2395783" lon="11.053575"><ele>466.3333333333333</ele><time>2026-04-25T14:50:29.722Z</time></trkpt><trkpt lat="43.239685" lon="11.05378"><ele>464.0</ele><time>2026-04-25T14:50:30.723Z</time></trkpt><trkpt lat="43.2397817" lon="11.0540067"><ele>463.0</ele><time>2026-04-25T14:50:31.724Z</time></trkpt><trkpt lat="43.2398767" lon="11.0542417"><ele>462.0</ele><time>2026-04-25T14:50:32.724Z</time></trkpt><trkpt lat="43.2399717" lon="11.05449"><ele>461.0</ele><time>2026-04-25T14:50:33.724Z</time></trkpt><trkpt lat="43.2400717" lon="11.0547433"><ele>463.3333333333333</ele><time>2026-04-25T14:50:34.727Z</time></trkpt><trkpt lat="43.2401683" lon="11.054995"><ele>465.66666666666663</ele><time>2026-04-25T14:50:35.723Z</time></trkpt><trkpt lat="43.2402633" lon="11.055225"><ele>468.0</ele><time>2026-04-25T14:50:36.724Z</time></trkpt><trkpt lat="43.2403583" lon="11.0554433"><ele>468.0</ele><time>2026-04-25T14:50:37.724Z</time></trkpt><trkpt lat="43.2404767" lon="11.0556217"><ele>468.0</ele><time>2026-04-25T14:50:38.724Z</time></trkpt><trkpt lat="43.2406267" lon="11.0557717"><ele>468.0</ele><time>2026-04-25T14:50:39.723Z</time></trkpt><trkpt lat="43.2408017" lon="11.0558933"><ele>468.0</ele><time>2026-04-25T14:50:40.723Z</time></trkpt><trkpt lat="43.2409883" lon="11.0560167"><ele>468.0</ele><time>2026-04-25T14:50:41.724Z</time></trkpt><trkpt lat="43.241175" lon="11.05614"><ele>468.0</ele><time>2026-04-25T14:50:42.724Z</time></trkpt><trkpt lat="43.24135" lon="11.0562633"><ele>468.0</ele><time>2026-04-25T14:50:43.723Z</time></trkpt><trkpt lat="43.2415233" lon="11.0563517"><ele>468.0</ele><time>2026-04-25T14:50:44.724Z</time></trkpt><trkpt lat="43.2416983" lon="11.0564017"><ele>468.0</ele><time>2026-04-25T14:50:45.724Z</time></trkpt><trkpt lat="43.2418783" lon="11.056385"><ele>468.0</ele><time>2026-04-25T14:50:46.724Z</time></trkpt><trkpt lat="43.242065" lon="11.0563217"><ele>468.0</ele><time>2026-04-25T14:50:47.726Z</time></trkpt><trkpt lat="43.242255" lon="11.0562467"><ele>468.0</ele><time>2026-04-25T14:50:48.725Z</time></trkpt><trkpt lat="43.2424317" lon="11.0561833"><ele>467.33333333333337</ele><time>2026-04-25T14:50:49.724Z</time></trkpt><trkpt lat="43.2425967" lon="11.0561333"><ele>466.6666666666667</ele><time>2026-04-25T14:50:50.725Z</time></trkpt><trkpt lat="43.2427583" lon="11.0560983"><ele>466.0</ele><time>2026-04-25T14:50:51.724Z</time></trkpt><trkpt lat="43.2429233" lon="11.0560867"><ele>466.0</ele><time>2026-04-25T14:50:52.723Z</time></trkpt><trkpt lat="43.2430933" lon="11.056105"><ele>466.0</ele><time>2026-04-25T14:50:53.724Z</time></trkpt><trkpt lat="43.243265" lon="11.056145"><ele>466.0</ele><time>2026-04-25T14:50:54.724Z</time></trkpt><trkpt lat="43.24344" lon="11.056205"><ele>468.0</ele><time>2026-04-25T14:50:55.723Z</time></trkpt><trkpt lat="43.2436067" lon="11.0562683"><ele>470.0</ele><time>2026-04-25T14:50:56.723Z</time></trkpt><trkpt lat="43.243765" lon="11.056355"><ele>472.0</ele><time>2026-04-25T14:50:57.724Z</time></trkpt><trkpt lat="43.2439117" lon="11.056475"><ele>471.33333333333337</ele><time>2026-04-25T14:50:58.723Z</time></trkpt><trkpt lat="43.2440417" lon="11.0566283"><ele>470.66666666666663</ele><time>2026-04-25T14:50:59.725Z</time></trkpt><trkpt lat="43.244165" lon="11.0568183"><ele>470.0</ele><time>2026-04-25T14:51:00.724Z</time></trkpt><trkpt lat="43.24428" lon="11.0570117"><ele>470.0</ele><time>2026-04-25T14:51:01.725Z</time></trkpt><trkpt lat="43.2443883" lon="11.057205"><ele>470.0</ele><time>2026-04-25T14:51:02.724Z</time></trkpt><trkpt lat="43.2445" lon="11.0573783"><ele>470.0</ele><time>2026-04-25T14:51:03.722Z</time></trkpt><trkpt lat="43.24462" lon="11.0575217"><ele>471.3333333333333</ele><time>2026-04-25T14:51:04.724Z</time></trkpt><trkpt lat="43.2447433" lon="11.057615"><ele>472.66666666666663</ele><time>2026-04-25T14:51:05.723Z</time></trkpt><trkpt lat="43.2448917" lon="11.0576567"><ele>474.0</ele><time>2026-04-25T14:51:06.724Z</time></trkpt><trkpt lat="43.24506" lon="11.057635"><ele>470.33333333333337</ele><time>2026-04-25T14:51:07.724Z</time></trkpt><trkpt lat="43.2452433" lon="11.0576083"><ele>466.6666666666667</ele><time>2026-04-25T14:51:08.725Z</time></trkpt><trkpt lat="43.2454317" lon="11.05761"><ele>463.0</ele><time>2026-04-25T14:51:09.723Z</time></trkpt><trkpt lat="43.2456267" lon="11.0576483"><ele>462.0</ele><time>2026-04-25T14:51:10.724Z</time></trkpt><trkpt lat="43.2458233" lon="11.05772"><ele>461.0</ele><time>2026-04-25T14:51:11.724Z</time></trkpt><trkpt lat="43.2460233" lon="11.057795"><ele>460.0</ele><time>2026-04-25T14:51:12.722Z</time></trkpt><trkpt lat="43.2462217" lon="11.0578717"><ele>460.0</ele><time>2026-04-25T14:51:13.724Z</time></trkpt><trkpt lat="43.2464117" lon="11.0579417"><ele>460.0</ele><time>2026-04-25T14:51:14.723Z</time></trkpt><trkpt lat="43.24659" lon="11.0580217"><ele>460.0</ele><time>2026-04-25T14:51:15.726Z</time></trkpt><trkpt lat="43.2467483" lon="11.058125"><ele>461.0</ele><time>2026-04-25T14:51:16.724Z</time></trkpt><trkpt lat="43.24688" lon="11.05824"><ele>462.0</ele><time>2026-04-25T14:51:17.724Z</time></trkpt><trkpt lat="43.2469883" lon="11.058395"><ele>463.0</ele><time>2026-04-25T14:51:18.722Z</time></trkpt><trkpt lat="43.2470617" lon="11.0585983"><ele>463.0</ele><time>2026-04-25T14:51:19.723Z</time></trkpt><trkpt lat="43.2471083" lon="11.058835"><ele>463.0</ele><time>2026-04-25T14:51:20.725Z</time></trkpt><trkpt lat="43.2471417" lon="11.0590817"><ele>463.0</ele><time>2026-04-25T14:51:21.724Z</time></trkpt><trkpt lat="43.2471867" lon="11.0593583"><ele>465.0</ele><time>2026-04-25T14:51:22.725Z</time></trkpt><trkpt lat="43.24723" lon="11.0596417"><ele>467.0</ele><time>2026-04-25T14:51:23.723Z</time></trkpt><trkpt lat="43.2472717" lon="11.059915"><ele>469.0</ele><time>2026-04-25T14:51:24.726Z</time></trkpt><trkpt lat="43.2473117" lon="11.0601717"><ele>464.0</ele><time>2026-04-25T14:51:25.724Z</time></trkpt><trkpt lat="43.2473583" lon="11.0604117"><ele>459.0</ele><time>2026-04-25T14:51:26.724Z</time></trkpt><trkpt lat="43.2474133" lon="11.0606367"><ele>454.0</ele><time>2026-04-25T14:51:27.725Z</time></trkpt><trkpt lat="43.2474933" lon="11.0608483"><ele>454.0</ele><time>2026-04-25T14:51:28.725Z</time></trkpt><trkpt lat="43.2475967" lon="11.06104"><ele>454.0</ele><time>2026-04-25T14:51:29.725Z</time></trkpt><trkpt lat="43.247715" lon="11.0612183"><ele>454.0</ele><time>2026-04-25T14:51:30.725Z</time></trkpt><trkpt lat="43.2478467" lon="11.0613567"><ele>454.0</ele><time>2026-04-25T14:51:31.724Z</time></trkpt><trkpt lat="43.2479867" lon="11.0614667"><ele>454.0</ele><time>2026-04-25T14:51:32.725Z</time></trkpt><trkpt lat="43.2481483" lon="11.06155"><ele>454.0</ele><time>2026-04-25T14:51:33.723Z</time></trkpt><trkpt lat="43.2483233" lon="11.061605"><ele>453.33333333333337</ele><time>2026-04-25T14:51:34.724Z</time></trkpt><trkpt lat="43.2485083" lon="11.0616667"><ele>452.66666666666663</ele><time>2026-04-25T14:51:35.723Z</time></trkpt><trkpt lat="43.2486867" lon="11.061745"><ele>452.0</ele><time>2026-04-25T14:51:36.724Z</time></trkpt><trkpt lat="43.248855" lon="11.0618417"><ele>449.66666666666663</ele><time>2026-04-25T14:51:37.722Z</time></trkpt><trkpt lat="43.2490217" lon="11.0619633"><ele>447.33333333333337</ele><time>2026-04-25T14:51:38.722Z</time></trkpt><trkpt lat="43.24918" lon="11.0621083"><ele>445.0</ele><time>2026-04-25T14:51:39.724Z</time></trkpt><trkpt lat="43.2493367" lon="11.062265"><ele>445.0</ele><time>2026-04-25T14:51:40.722Z</time></trkpt><trkpt lat="43.2494983" lon="11.0624233"><ele>445.0</ele><time>2026-04-25T14:51:41.723Z</time></trkpt><trkpt lat="43.2496617" lon="11.062575"><ele>445.0</ele><time>2026-04-25T14:51:42.723Z</time></trkpt><trkpt lat="43.2498283" lon="11.0626983"><ele>446.0</ele><time>2026-04-25T14:51:43.725Z</time></trkpt><trkpt lat="43.2500083" lon="11.062785"><ele>447.0</ele><time>2026-04-25T14:51:44.725Z</time></trkpt><trkpt lat="43.2502017" lon="11.0628383"><ele>448.0</ele><time>2026-04-25T14:51:45.725Z</time></trkpt><trkpt lat="43.2503983" lon="11.0628667"><ele>448.0</ele><time>2026-04-25T14:51:46.725Z</time></trkpt><trkpt lat="43.2505783" lon="11.0628933"><ele>448.0</ele><time>2026-04-25T14:51:47.724Z</time></trkpt><trkpt lat="43.25075" lon="11.0629233"><ele>448.0</ele><time>2026-04-25T14:51:48.723Z</time></trkpt><trkpt lat="43.2509133" lon="11.0629533"><ele>446.0</ele><time>2026-04-25T14:51:49.722Z</time></trkpt><trkpt lat="43.2510767" lon="11.0630317"><ele>444.0</ele><time>2026-04-25T14:51:50.724Z</time></trkpt><trkpt lat="43.25124" lon="11.0631367"><ele>442.0</ele><time>2026-04-25T14:51:51.724Z</time></trkpt><trkpt lat="43.25141" lon="11.0632633"><ele>442.6666666666667</ele><time>2026-04-25T14:51:52.723Z</time></trkpt><trkpt lat="43.25159" lon="11.0634083"><ele>443.33333333333337</ele><time>2026-04-25T14:51:53.722Z</time></trkpt><trkpt lat="43.2517767" lon="11.0635433"><ele>444.0</ele><time>2026-04-25T14:51:54.723Z</time></trkpt><trkpt lat="43.251965" lon="11.0636783"><ele>444.0</ele><time>2026-04-25T14:51:55.724Z</time></trkpt><trkpt lat="43.2521517" lon="11.063805"><ele>444.0</ele><time>2026-04-25T14:51:56.723Z</time></trkpt><trkpt lat="43.25235" lon="11.063925"><ele>444.0</ele><time>2026-04-25T14:51:57.722Z</time></trkpt><trkpt lat="43.2525567" lon="11.0640583"><ele>444.0</ele><time>2026-04-25T14:51:58.723Z</time></trkpt><trkpt lat="43.2527533" lon="11.0641983"><ele>444.0</ele><time>2026-04-25T14:51:59.724Z</time></trkpt><trkpt lat="43.2529567" lon="11.0643283"><ele>444.0</ele><time>2026-04-25T14:52:00.723Z</time></trkpt><trkpt lat="43.25315" lon="11.0644633"><ele>440.66666666666663</ele><time>2026-04-25T14:52:01.723Z</time></trkpt><trkpt lat="43.2533417" lon="11.064595"><ele>437.3333333333333</ele><time>2026-04-25T14:52:02.724Z</time></trkpt><trkpt lat="43.2535283" lon="11.06471"><ele>434.0</ele><time>2026-04-25T14:52:03.722Z</time></trkpt><trkpt lat="43.2537033" lon="11.0648167"><ele>434.0</ele><time>2026-04-25T14:52:04.723Z</time></trkpt><trkpt lat="43.2538717" lon="11.0649267"><ele>434.0</ele><time>2026-04-25T14:52:05.724Z</time></trkpt><trkpt lat="43.2540367" lon="11.0650683"><ele>434.0</ele><time>2026-04-25T14:52:06.723Z</time></trkpt><trkpt lat="43.2542" lon="11.0652333"><ele>433.66666666666663</ele><time>2026-04-25T14:52:07.723Z</time></trkpt><trkpt lat="43.2543583" lon="11.06542"><ele>433.33333333333337</ele><time>2026-04-25T14:52:08.723Z</time></trkpt><trkpt lat="43.254525" lon="11.0656133"><ele>433.0</ele><time>2026-04-25T14:52:09.723Z</time></trkpt><trkpt lat="43.254695" lon="11.0658133"><ele>431.6666666666667</ele><time>2026-04-25T14:52:10.724Z</time></trkpt><trkpt lat="43.254865" lon="11.0660117"><ele>430.33333333333337</ele><time>2026-04-25T14:52:11.723Z</time></trkpt><trkpt lat="43.25504" lon="11.0662067"><ele>429.0</ele><time>2026-04-25T14:52:12.723Z</time></trkpt><trkpt lat="43.2552117" lon="11.0663983"><ele>429.0</ele><time>2026-04-25T14:52:13.724Z</time></trkpt><trkpt lat="43.2553767" lon="11.0665817"><ele>429.0</ele><time>2026-04-25T14:52:14.723Z</time></trkpt><trkpt lat="43.2555333" lon="11.06676"><ele>429.0</ele><time>2026-04-25T14:52:15.722Z</time></trkpt><trkpt lat="43.25569" lon="11.0669233"><ele>429.66666666666663</ele><time>2026-04-25T14:52:16.723Z</time></trkpt><trkpt lat="43.2558533" lon="11.067085"><ele>430.3333333333333</ele><time>2026-04-25T14:52:17.723Z</time></trkpt><trkpt lat="43.256025" lon="11.0672433"><ele>431.0</ele><time>2026-04-25T14:52:18.722Z</time></trkpt><trkpt lat="43.256205" lon="11.0673917"><ele>430.66666666666663</ele><time>2026-04-25T14:52:19.723Z</time></trkpt><trkpt lat="43.25639" lon="11.067535"><ele>430.33333333333337</ele><time>2026-04-25T14:52:20.723Z</time></trkpt><trkpt lat="43.25658" lon="11.0676667"><ele>430.0</ele><time>2026-04-25T14:52:21.723Z</time></trkpt><trkpt lat="43.256765" lon="11.0677983"><ele>430.0</ele><time>2026-04-25T14:52:22.724Z</time></trkpt><trkpt lat="43.2569467" lon="11.06793"><ele>430.0</ele><time>2026-04-25T14:52:23.724Z</time></trkpt><trkpt lat="43.2571283" lon="11.068045"><ele>430.0</ele><time>2026-04-25T14:52:24.724Z</time></trkpt><trkpt lat="43.2573167" lon="11.0681367"><ele>430.33333333333337</ele><time>2026-04-25T14:52:25.724Z</time></trkpt><trkpt lat="43.2575167" lon="11.0681917"><ele>430.66666666666663</ele><time>2026-04-25T14:52:26.725Z</time></trkpt><trkpt lat="43.2577217" lon="11.0682333"><ele>431.0</ele><time>2026-04-25T14:52:27.728Z</time></trkpt><trkpt lat="43.2579317" lon="11.0682767"><ele>431.66666666666663</ele><time>2026-04-25T14:52:28.725Z</time></trkpt><trkpt lat="43.2581283" lon="11.0683417"><ele>432.33333333333337</ele><time>2026-04-25T14:52:29.723Z</time></trkpt><trkpt lat="43.2583183" lon="11.06843"><ele>433.0</ele><time>2026-04-25T14:52:30.722Z</time></trkpt><trkpt lat="43.2585167" lon="11.0684983"><ele>433.0</ele><time>2026-04-25T14:52:31.722Z</time></trkpt><trkpt lat="43.2587233" lon="11.0685383"><ele>433.0</ele><time>2026-04-25T14:52:32.723Z</time></trkpt><trkpt lat="43.258935" lon="11.0685583"><ele>433.0</ele><time>2026-04-25T14:52:33.722Z</time></trkpt><trkpt lat="43.2591433" lon="11.0685883"><ele>433.0</ele><time>2026-04-25T14:52:34.723Z</time></trkpt><trkpt lat="43.2593417" lon="11.0686167"><ele>433.0</ele><time>2026-04-25T14:52:35.723Z</time></trkpt><trkpt lat="43.259525" lon="11.0686383"><ele>433.0</ele><time>2026-04-25T14:52:36.723Z</time></trkpt><trkpt lat="43.2596983" lon="11.0686583"><ele>432.33333333333337</ele><time>2026-04-25T14:52:37.723Z</time></trkpt><trkpt lat="43.2598717" lon="11.0686583"><ele>431.66666666666663</ele><time>2026-04-25T14:52:38.722Z</time></trkpt><trkpt lat="43.2600467" lon="11.06861"><ele>431.0</ele><time>2026-04-25T14:52:39.723Z</time></trkpt><trkpt lat="43.2602183" lon="11.0685183"><ele>431.0</ele><time>2026-04-25T14:52:40.724Z</time></trkpt><trkpt lat="43.26037" lon="11.068395"><ele>431.0</ele><time>2026-04-25T14:52:41.724Z</time></trkpt><trkpt lat="43.2604967" lon="11.0682583"><ele>431.0</ele><time>2026-04-25T14:52:42.724Z</time></trkpt><trkpt lat="43.2605983" lon="11.0680967"><ele>431.3333333333333</ele><time>2026-04-25T14:52:43.723Z</time></trkpt><trkpt lat="43.260675" lon="11.067895"><ele>431.66666666666663</ele><time>2026-04-25T14:52:44.726Z</time></trkpt><trkpt lat="43.2607167" lon="11.0676567"><ele>432.0</ele><time>2026-04-25T14:52:45.723Z</time></trkpt><trkpt lat="43.2607433" lon="11.0673883"><ele>432.0</ele><time>2026-04-25T14:52:46.723Z</time></trkpt><trkpt lat="43.2607833" lon="11.067115"><ele>432.0</ele><time>2026-04-25T14:52:47.722Z</time></trkpt><trkpt lat="43.2608333" lon="11.066845"><ele>432.0</ele><time>2026-04-25T14:52:48.723Z</time></trkpt><trkpt lat="43.2609" lon="11.0665833"><ele>430.33333333333337</ele><time>2026-04-25T14:52:49.722Z</time></trkpt><trkpt lat="43.2609867" lon="11.0663333"><ele>428.6666666666667</ele><time>2026-04-25T14:52:50.724Z</time></trkpt><trkpt lat="43.2610683" lon="11.0660933"><ele>427.0</ele><time>2026-04-25T14:52:51.727Z</time></trkpt><trkpt lat="43.2612217" lon="11.0656783"><ele>427.6666666666667</ele><time>2026-04-25T14:52:53.724Z</time></trkpt><trkpt lat="43.2613233" lon="11.065515"><ele>428.33333333333337</ele><time>2026-04-25T14:52:54.727Z</time></trkpt><trkpt lat="43.261455" lon="11.0653767"><ele>429.0</ele><time>2026-04-25T14:52:55.724Z</time></trkpt><trkpt lat="43.2616133" lon="11.065255"><ele>429.0</ele><time>2026-04-25T14:52:56.723Z</time></trkpt><trkpt lat="43.26178" lon="11.0651433"><ele>429.0</ele><time>2026-04-25T14:52:57.724Z</time></trkpt><trkpt lat="43.26196" lon="11.065055"><ele>429.0</ele><time>2026-04-25T14:52:58.724Z</time></trkpt><trkpt lat="43.2621467" lon="11.0649867"><ele>425.66666666666663</ele><time>2026-04-25T14:52:59.723Z</time></trkpt><trkpt lat="43.2623283" lon="11.0649283"><ele>422.3333333333333</ele><time>2026-04-25T14:53:00.723Z</time></trkpt><trkpt lat="43.2625017" lon="11.0648783"><ele>419.0</ele><time>2026-04-25T14:53:01.723Z</time></trkpt><trkpt lat="43.2626617" lon="11.0648317"><ele>419.0</ele><time>2026-04-25T14:53:02.723Z</time></trkpt><trkpt lat="43.2628083" lon="11.0647867"><ele>419.0</ele><time>2026-04-25T14:53:03.722Z</time></trkpt><trkpt lat="43.2629417" lon="11.0647467"><ele>419.0</ele><time>2026-04-25T14:53:04.723Z</time></trkpt><trkpt lat="43.263065" lon="11.064705"><ele>419.0</ele><time>2026-04-25T14:53:05.722Z</time></trkpt><trkpt lat="43.2631883" lon="11.0646533"><ele>419.0</ele><time>2026-04-25T14:53:06.723Z</time></trkpt><trkpt lat="43.2633183" lon="11.0645717"><ele>419.0</ele><time>2026-04-25T14:53:07.724Z</time></trkpt><trkpt lat="43.26346" lon="11.0644667"><ele>419.0</ele><time>2026-04-25T14:53:08.723Z</time></trkpt><trkpt lat="43.263615" lon="11.0643517"><ele>419.0</ele><time>2026-04-25T14:53:09.722Z</time></trkpt><trkpt lat="43.2637817" lon="11.0642417"><ele>419.0</ele><time>2026-04-25T14:53:10.722Z</time></trkpt><trkpt lat="43.2639583" lon="11.064145"><ele>419.0</ele><time>2026-04-25T14:53:11.722Z</time></trkpt><trkpt lat="43.2641467" lon="11.0640633"><ele>416.0</ele><time>2026-04-25T14:53:12.724Z</time></trkpt><trkpt lat="43.2643417" lon="11.06399"><ele>413.0</ele><time>2026-04-25T14:53:13.724Z</time></trkpt><trkpt lat="43.264545" lon="11.0639167"><ele>410.0</ele><time>2026-04-25T14:53:14.724Z</time></trkpt><trkpt lat="43.2647567" lon="11.06385"><ele>410.0</ele><time>2026-04-25T14:53:15.724Z</time></trkpt><trkpt lat="43.2649717" lon="11.0638033"><ele>410.0</ele><time>2026-04-25T14:53:16.724Z</time></trkpt><trkpt lat="43.2651883" lon="11.0637667"><ele>410.0</ele><time>2026-04-25T14:53:17.725Z</time></trkpt><trkpt lat="43.2654083" lon="11.0637283"><ele>410.3333333333333</ele><time>2026-04-25T14:53:18.726Z</time></trkpt><trkpt lat="43.265625" lon="11.0636883"><ele>410.66666666666663</ele><time>2026-04-25T14:53:19.725Z</time></trkpt><trkpt lat="43.265845" lon="11.0636483"><ele>411.0</ele><time>2026-04-25T14:53:20.726Z</time></trkpt><trkpt lat="43.2660633" lon="11.0636017"><ele>411.0</ele><time>2026-04-25T14:53:21.725Z</time></trkpt><trkpt lat="43.26628" lon="11.0635617"><ele>411.0</ele><time>2026-04-25T14:53:22.724Z</time></trkpt><trkpt lat="43.2665" lon="11.0635217"><ele>411.0</ele><time>2026-04-25T14:53:23.726Z</time></trkpt><trkpt lat="43.2667167" lon="11.0634817"><ele>410.33333333333337</ele><time>2026-04-25T14:53:24.724Z</time></trkpt><trkpt lat="43.26693" lon="11.0634117"><ele>409.6666666666667</ele><time>2026-04-25T14:53:25.724Z</time></trkpt><trkpt lat="43.2671333" lon="11.0633133"><ele>409.0</ele><time>2026-04-25T14:53:26.727Z</time></trkpt><trkpt lat="43.2673217" lon="11.0631733"><ele>409.0</ele><time>2026-04-25T14:53:27.724Z</time></trkpt><trkpt lat="43.2675067" lon="11.0630167"><ele>409.0</ele><time>2026-04-25T14:53:28.724Z</time></trkpt><trkpt lat="43.2676867" lon="11.062845"><ele>409.0</ele><time>2026-04-25T14:53:29.726Z</time></trkpt><trkpt lat="43.267875" lon="11.062675"><ele>409.0</ele><time>2026-04-25T14:53:30.725Z</time></trkpt><trkpt lat="43.2680633" lon="11.06251"><ele>409.0</ele><time>2026-04-25T14:53:31.725Z</time></trkpt><trkpt lat="43.268245" lon="11.06235"><ele>409.0</ele><time>2026-04-25T14:53:32.725Z</time></trkpt><trkpt lat="43.2684167" lon="11.06218"><ele>406.0</ele><time>2026-04-25T14:53:33.723Z</time></trkpt><trkpt lat="43.2685783" lon="11.0619983"><ele>403.0</ele><time>2026-04-25T14:53:34.724Z</time></trkpt><trkpt lat="43.2687367" lon="11.06182"><ele>400.0</ele><time>2026-04-25T14:53:35.724Z</time></trkpt><trkpt lat="43.26888" lon="11.0616567"><ele>398.33333333333337</ele><time>2026-04-25T14:53:36.725Z</time></trkpt><trkpt lat="43.2690233" lon="11.061515"><ele>396.66666666666663</ele><time>2026-04-25T14:53:37.724Z</time></trkpt><trkpt lat="43.2691833" lon="11.0614083"><ele>395.0</ele><time>2026-04-25T14:53:38.725Z</time></trkpt><trkpt lat="43.2693533" lon="11.0613217"><ele>395.0</ele><time>2026-04-25T14:53:39.724Z</time></trkpt><trkpt lat="43.26953" lon="11.0612283"><ele>395.0</ele><time>2026-04-25T14:53:40.725Z</time></trkpt><trkpt lat="43.269705" lon="11.0611117"><ele>395.0</ele><time>2026-04-25T14:53:41.725Z</time></trkpt><trkpt lat="43.2698483" lon="11.0609617"><ele>392.0</ele><time>2026-04-25T14:53:42.724Z</time></trkpt><trkpt lat="43.269975" lon="11.0608133"><ele>389.0</ele><time>2026-04-25T14:53:43.725Z</time></trkpt><trkpt lat="43.27011" lon="11.060705"><ele>386.0</ele><time>2026-04-25T14:53:44.724Z</time></trkpt><trkpt lat="43.2702483" lon="11.06064"><ele>386.0</ele><time>2026-04-25T14:53:45.725Z</time></trkpt><trkpt lat="43.270375" lon="11.0606183"><ele>386.0</ele><time>2026-04-25T14:53:46.727Z</time></trkpt><trkpt lat="43.27049" lon="11.0606667"><ele>386.0</ele><time>2026-04-25T14:53:47.727Z</time></trkpt><trkpt lat="43.2705767" lon="11.0607533"><ele>386.0</ele><time>2026-04-25T14:53:48.725Z</time></trkpt><trkpt lat="43.2706333" lon="11.0608983"><ele>389.75</ele><time>2026-04-25T14:53:49.727Z</time></trkpt><trkpt lat="43.27067" lon="11.0610733"><ele>393.5</ele><time>2026-04-25T14:53:50.728Z</time></trkpt><trkpt lat="43.27069" lon="11.06125"><ele>397.25</ele><time>2026-04-25T14:53:51.725Z</time></trkpt><trkpt lat="43.2707217" lon="11.0614133"><ele>401.0</ele><time>2026-04-25T14:53:52.723Z</time></trkpt><trkpt lat="43.27077" lon="11.0615533"><ele>401.0</ele><time>2026-04-25T14:53:53.725Z</time></trkpt><trkpt lat="43.2708283" lon="11.06165"><ele>401.0</ele><time>2026-04-25T14:53:54.725Z</time></trkpt><trkpt lat="43.2709167" lon="11.0616667"><ele>401.0</ele><time>2026-04-25T14:53:55.726Z</time></trkpt><trkpt lat="43.2710083" lon="11.0616183"><ele>401.0</ele><time>2026-04-25T14:53:56.726Z</time></trkpt><trkpt lat="43.2711183" lon="11.06155"><ele>401.0</ele><time>2026-04-25T14:53:57.725Z</time></trkpt><trkpt lat="43.2712433" lon="11.06152"><ele>401.0</ele><time>2026-04-25T14:53:58.726Z</time></trkpt><trkpt lat="43.2713583" lon="11.06155"><ele>401.0</ele><time>2026-04-25T14:53:59.725Z</time></trkpt><trkpt lat="43.2714633" lon="11.06166"><ele>401.0</ele><time>2026-04-25T14:54:00.725Z</time></trkpt><trkpt lat="43.271555" lon="11.0618167"><ele>401.0</ele><time>2026-04-25T14:54:01.726Z</time></trkpt><trkpt lat="43.27162" lon="11.062025"><ele>401.0</ele><time>2026-04-25T14:54:02.726Z</time></trkpt><trkpt lat="43.2716517" lon="11.0622517"><ele>401.0</ele><time>2026-04-25T14:54:03.724Z</time></trkpt><trkpt lat="43.2716717" lon="11.0625033"><ele>401.0</ele><time>2026-04-25T14:54:04.724Z</time></trkpt><trkpt lat="43.271705" lon="11.0627283"><ele>402.3333333333333</ele><time>2026-04-25T14:54:05.725Z</time></trkpt><trkpt lat="43.2717683" lon="11.06294"><ele>403.66666666666663</ele><time>2026-04-25T14:54:06.726Z</time></trkpt><trkpt lat="43.2718633" lon="11.0631333"><ele>405.0</ele><time>2026-04-25T14:54:07.725Z</time></trkpt><trkpt lat="43.271995" lon="11.0633217"><ele>406.0</ele><time>2026-04-25T14:54:08.725Z</time></trkpt><trkpt lat="43.272145" lon="11.0634983"><ele>407.0</ele><time>2026-04-25T14:54:09.724Z</time></trkpt><trkpt lat="43.2723" lon="11.0636467"><ele>408.0</ele><time>2026-04-25T14:54:10.724Z</time></trkpt><trkpt lat="43.272455" lon="11.0637533"><ele>405.33333333333337</ele><time>2026-04-25T14:54:11.726Z</time></trkpt><trkpt lat="43.2726217" lon="11.06383"><ele>402.6666666666667</ele><time>2026-04-25T14:54:12.724Z</time></trkpt><trkpt lat="43.272805" lon="11.0638667"><ele>400.0</ele><time>2026-04-25T14:54:13.725Z</time></trkpt><trkpt lat="43.2729983" lon="11.0638817"><ele>398.0</ele><time>2026-04-25T14:54:14.725Z</time></trkpt><trkpt lat="43.273185" lon="11.06387"><ele>396.0</ele><time>2026-04-25T14:54:15.724Z</time></trkpt><trkpt lat="43.273365" lon="11.0638217"><ele>394.0</ele><time>2026-04-25T14:54:16.725Z</time></trkpt><trkpt lat="43.2735183" lon="11.0637567"><ele>394.0</ele><time>2026-04-25T14:54:17.726Z</time></trkpt><trkpt lat="43.2736617" lon="11.063705"><ele>394.0</ele><time>2026-04-25T14:54:18.725Z</time></trkpt><trkpt lat="43.2737917" lon="11.06369"><ele>394.0</ele><time>2026-04-25T14:54:19.725Z</time></trkpt><trkpt lat="43.273905" lon="11.0637383"><ele>394.0</ele><time>2026-04-25T14:54:20.725Z</time></trkpt><trkpt lat="43.274005" lon="11.06384"><ele>394.25</ele><time>2026-04-25T14:54:21.724Z</time></trkpt><trkpt lat="43.27409" lon="11.0639983"><ele>394.5</ele><time>2026-04-25T14:54:22.726Z</time></trkpt><trkpt lat="43.27416" lon="11.0641733"><ele>394.75</ele><time>2026-04-25T14:54:23.725Z</time></trkpt><trkpt lat="43.27422" lon="11.0643483"><ele>395.0</ele><time>2026-04-25T14:54:24.726Z</time></trkpt><trkpt lat="43.2742717" lon="11.0645267"><ele>395.0</ele><time>2026-04-25T14:54:25.725Z</time></trkpt><trkpt lat="43.274305" lon="11.0647"><ele>395.0</ele><time>2026-04-25T14:54:26.726Z</time></trkpt><trkpt lat="43.2743217" lon="11.0648767"><ele>395.0</ele><time>2026-04-25T14:54:27.726Z</time></trkpt><trkpt lat="43.27431" lon="11.0650567"><ele>395.0</ele><time>2026-04-25T14:54:28.723Z</time></trkpt><trkpt lat="43.2742933" lon="11.06524"><ele>395.8</ele><time>2026-04-25T14:54:29.725Z</time></trkpt><trkpt lat="43.27428" lon="11.0654067"><ele>396.6</ele><time>2026-04-25T14:54:30.724Z</time></trkpt><trkpt lat="43.2742833" lon="11.065555"><ele>397.4</ele><time>2026-04-25T14:54:31.727Z</time></trkpt><trkpt lat="43.2743117" lon="11.0656883"><ele>398.2</ele><time>2026-04-25T14:54:32.728Z</time></trkpt><trkpt lat="43.2743517" lon="11.065785"><ele>399.0</ele><time>2026-04-25T14:54:33.725Z</time></trkpt><trkpt lat="43.2744017" lon="11.06586"><ele>399.0</ele><time>2026-04-25T14:54:34.727Z</time></trkpt><trkpt lat="43.2744633" lon="11.065905"><ele>399.0</ele><time>2026-04-25T14:54:35.724Z</time></trkpt><trkpt lat="43.274545" lon="11.0659083"><ele>399.0</ele><time>2026-04-25T14:54:36.727Z</time></trkpt><trkpt lat="43.2746633" lon="11.0658233"><ele>399.0</ele><time>2026-04-25T14:54:37.724Z</time></trkpt><trkpt lat="43.2747767" lon="11.065775"><ele>399.0</ele><time>2026-04-25T14:54:38.725Z</time></trkpt><trkpt lat="43.2748867" lon="11.0657483"><ele>396.79999999999995</ele><time>2026-04-25T14:54:39.723Z</time></trkpt><trkpt lat="43.27499" lon="11.065775"><ele>394.59999999999997</ele><time>2026-04-25T14:54:40.725Z</time></trkpt><trkpt lat="43.27508" lon="11.0658483"><ele>392.4</ele><time>2026-04-25T14:54:41.727Z</time></trkpt><trkpt lat="43.27515" lon="11.065955"><ele>390.2</ele><time>2026-04-25T14:54:42.724Z</time></trkpt><trkpt lat="43.2752167" lon="11.0660883"><ele>388.0</ele><time>2026-04-25T14:54:43.724Z</time></trkpt><trkpt lat="43.2752967" lon="11.0662217"><ele>388.0</ele><time>2026-04-25T14:54:44.725Z</time></trkpt><trkpt lat="43.2753883" lon="11.066335"><ele>388.0</ele><time>2026-04-25T14:54:45.727Z</time></trkpt><trkpt lat="43.27551" lon="11.066415"><ele>388.0</ele><time>2026-04-25T14:54:46.725Z</time></trkpt><trkpt lat="43.2756367" lon="11.066485"><ele>388.0</ele><time>2026-04-25T14:54:47.724Z</time></trkpt><trkpt lat="43.275755" lon="11.066585"><ele>387.5</ele><time>2026-04-25T14:54:48.725Z</time></trkpt><trkpt lat="43.275855" lon="11.0667117"><ele>387.0</ele><time>2026-04-25T14:54:49.724Z</time></trkpt><trkpt lat="43.2759417" lon="11.0668767"><ele>386.5</ele><time>2026-04-25T14:54:50.726Z</time></trkpt><trkpt lat="43.2760167" lon="11.0670683"><ele>386.0</ele><time>2026-04-25T14:54:51.724Z</time></trkpt><trkpt lat="43.2760867" lon="11.067265"><ele>390.0</ele><time>2026-04-25T14:54:52.726Z</time></trkpt><trkpt lat="43.2761517" lon="11.067455"><ele>394.0</ele><time>2026-04-25T14:54:53.724Z</time></trkpt><trkpt lat="43.2762133" lon="11.0676417"><ele>398.0</ele><time>2026-04-25T14:54:54.725Z</time></trkpt><trkpt lat="43.2762517" lon="11.06784"><ele>398.0</ele><time>2026-04-25T14:54:55.724Z</time></trkpt><trkpt lat="43.2762733" lon="11.0680317"><ele>398.0</ele><time>2026-04-25T14:54:56.726Z</time></trkpt><trkpt lat="43.27628" lon="11.0682133"><ele>398.0</ele><time>2026-04-25T14:54:57.725Z</time></trkpt><trkpt lat="43.2763017" lon="11.068405"><ele>398.0</ele><time>2026-04-25T14:54:58.724Z</time></trkpt><trkpt lat="43.27635" lon="11.0685883"><ele>399.25</ele><time>2026-04-25T14:54:59.724Z</time></trkpt><trkpt lat="43.2764267" lon="11.06875"><ele>400.5</ele><time>2026-04-25T14:55:00.725Z</time></trkpt><trkpt lat="43.2765233" lon="11.0688817"><ele>401.75</ele><time>2026-04-25T14:55:01.724Z</time></trkpt><trkpt lat="43.276625" lon="11.0690033"><ele>403.0</ele><time>2026-04-25T14:55:02.725Z</time></trkpt><trkpt lat="43.2767267" lon="11.0691017"><ele>400.1666666666667</ele><time>2026-04-25T14:55:03.723Z</time></trkpt><trkpt lat="43.2768217" lon="11.0691833"><ele>397.33333333333337</ele><time>2026-04-25T14:55:04.724Z</time></trkpt><trkpt lat="43.2769117" lon="11.0692233"><ele>394.5</ele><time>2026-04-25T14:55:05.724Z</time></trkpt><trkpt lat="43.2769967" lon="11.069235"><ele>391.66666666666663</ele><time>2026-04-25T14:55:06.726Z</time></trkpt><trkpt lat="43.2770683" lon="11.0692083"><ele>388.8333333333333</ele><time>2026-04-25T14:55:07.725Z</time></trkpt><trkpt lat="43.277125" lon="11.0691667"><ele>386.0</ele><time>2026-04-25T14:55:08.724Z</time></trkpt><trkpt lat="43.27709" lon="11.0689717"><ele>384.5</ele><time>2026-04-25T14:55:09.724Z</time></trkpt><trkpt lat="43.2770567" lon="11.0687917"><ele>383.0</ele><time>2026-04-25T14:55:10.724Z</time></trkpt><trkpt lat="43.2770183" lon="11.068605"><ele>381.5</ele><time>2026-04-25T14:55:11.726Z</time></trkpt><trkpt lat="43.27697" lon="11.0684333"><ele>380.0</ele><time>2026-04-25T14:55:12.724Z</time></trkpt><trkpt lat="43.2769267" lon="11.06824"><ele>379.33333333333337</ele><time>2026-04-25T14:55:13.724Z</time></trkpt><trkpt lat="43.2769067" lon="11.06803"><ele>378.6666666666667</ele><time>2026-04-25T14:55:14.725Z</time></trkpt><trkpt lat="43.2769033" lon="11.0678"><ele>378.0</ele><time>2026-04-25T14:55:15.726Z</time></trkpt><trkpt lat="43.276925" lon="11.0675667"><ele>376.3333333333333</ele><time>2026-04-25T14:55:16.724Z</time></trkpt><trkpt lat="43.27695" lon="11.0673517"><ele>374.66666666666663</ele><time>2026-04-25T14:55:17.725Z</time></trkpt><trkpt lat="43.2769683" lon="11.0671067"><ele>373.0</ele><time>2026-04-25T14:55:18.724Z</time></trkpt><trkpt lat="43.2769733" lon="11.066825"><ele>370.0</ele><time>2026-04-25T14:55:19.725Z</time></trkpt><trkpt lat="43.27698" lon="11.066495"><ele>367.0</ele><time>2026-04-25T14:55:20.725Z</time></trkpt><trkpt lat="43.2769917" lon="11.0661533"><ele>367.0</ele><time>2026-04-25T14:55:21.725Z</time></trkpt><trkpt lat="43.2769983" lon="11.0658133"><ele>367.0</ele><time>2026-04-25T14:55:22.725Z</time></trkpt><trkpt lat="43.277" lon="11.0654983"><ele>365.66666666666663</ele><time>2026-04-25T14:55:23.724Z</time></trkpt><trkpt lat="43.27699" lon="11.0652067"><ele>364.3333333333333</ele><time>2026-04-25T14:55:24.724Z</time></trkpt><trkpt lat="43.2769817" lon="11.0649283"><ele>363.0</ele><time>2026-04-25T14:55:25.725Z</time></trkpt><trkpt lat="43.276985" lon="11.06467"><ele>363.0</ele><time>2026-04-25T14:55:26.724Z</time></trkpt><trkpt lat="43.277015" lon="11.06444"><ele>363.0</ele><time>2026-04-25T14:55:27.724Z</time></trkpt><trkpt lat="43.2770817" lon="11.0642233"><ele>363.0</ele><time>2026-04-25T14:55:28.724Z</time></trkpt><trkpt lat="43.2771733" lon="11.064035"><ele>362.6666666666667</ele><time>2026-04-25T14:55:29.726Z</time></trkpt><trkpt lat="43.277255" lon="11.0638433"><ele>362.33333333333337</ele><time>2026-04-25T14:55:30.724Z</time></trkpt><trkpt lat="43.2772933" lon="11.06365"><ele>362.0</ele><time>2026-04-25T14:55:31.725Z</time></trkpt><trkpt lat="43.2772983" lon="11.0634417"><ele>360.33333333333337</ele><time>2026-04-25T14:55:32.726Z</time></trkpt><trkpt lat="43.2772583" lon="11.063215"><ele>358.6666666666667</ele><time>2026-04-25T14:55:33.725Z</time></trkpt><trkpt lat="43.277205" lon="11.06299"><ele>357.0</ele><time>2026-04-25T14:55:34.726Z</time></trkpt><trkpt lat="43.2771733" lon="11.0627583"><ele>357.0</ele><time>2026-04-25T14:55:35.726Z</time></trkpt><trkpt lat="43.2771733" lon="11.06253"><ele>357.0</ele><time>2026-04-25T14:55:36.725Z</time></trkpt><trkpt lat="43.2772017" lon="11.0623"><ele>357.0</ele><time>2026-04-25T14:55:37.724Z</time></trkpt><trkpt lat="43.27725" lon="11.0620867"><ele>361.75</ele><time>2026-04-25T14:55:38.725Z</time></trkpt><trkpt lat="43.277335" lon="11.06191"><ele>366.5</ele><time>2026-04-25T14:55:39.723Z</time></trkpt><trkpt lat="43.277445" lon="11.06177"><ele>371.25</ele><time>2026-04-25T14:55:40.724Z</time></trkpt><trkpt lat="43.27755" lon="11.0616417"><ele>376.0</ele><time>2026-04-25T14:55:41.725Z</time></trkpt><trkpt lat="43.2776233" lon="11.0614983"><ele>376.0</ele><time>2026-04-25T14:55:42.724Z</time></trkpt><trkpt lat="43.277655" lon="11.0613417"><ele>376.0</ele><time>2026-04-25T14:55:43.724Z</time></trkpt><trkpt lat="43.2776417" lon="11.061105"><ele>376.0</ele><time>2026-04-25T14:55:44.724Z</time></trkpt><trkpt lat="43.2776233" lon="11.0608367"><ele>377.3333333333333</ele><time>2026-04-25T14:55:45.724Z</time></trkpt><trkpt lat="43.2776" lon="11.06057"><ele>378.6666666666667</ele><time>2026-04-25T14:55:46.723Z</time></trkpt><trkpt lat="43.2775683" lon="11.060315"><ele>380.0</ele><time>2026-04-25T14:55:47.724Z</time></trkpt><trkpt lat="43.2775033" lon="11.0600817"><ele>378.33333333333337</ele><time>2026-04-25T14:55:48.724Z</time></trkpt><trkpt lat="43.277425" lon="11.0598733"><ele>376.6666666666667</ele><time>2026-04-25T14:55:49.724Z</time></trkpt><trkpt lat="43.277355" lon="11.0596933"><ele>375.0</ele><time>2026-04-25T14:55:50.727Z</time></trkpt><trkpt lat="43.2773233" lon="11.059515"><ele>375.0</ele><time>2026-04-25T14:55:51.724Z</time></trkpt><trkpt lat="43.2773367" lon="11.059345"><ele>375.0</ele><time>2026-04-25T14:55:52.724Z</time></trkpt><trkpt lat="43.2774083" lon="11.0591767"><ele>375.0</ele><time>2026-04-25T14:55:53.725Z</time></trkpt><trkpt lat="43.2775233" lon="11.059035"><ele>375.0</ele><time>2026-04-25T14:55:54.724Z</time></trkpt><trkpt lat="43.2776617" lon="11.058935"><ele>372.3333333333333</ele><time>2026-04-25T14:55:55.724Z</time></trkpt><trkpt lat="43.277815" lon="11.0588917"><ele>369.66666666666663</ele><time>2026-04-25T14:55:56.727Z</time></trkpt><trkpt lat="43.277985" lon="11.0588933"><ele>367.0</ele><time>2026-04-25T14:55:57.725Z</time></trkpt><trkpt lat="43.27819" lon="11.0589217"><ele>367.0</ele><time>2026-04-25T14:55:58.724Z</time></trkpt><trkpt lat="43.2783983" lon="11.0589367"><ele>367.0</ele><time>2026-04-25T14:55:59.726Z</time></trkpt><trkpt lat="43.2785933" lon="11.05894"><ele>367.0</ele><time>2026-04-25T14:56:00.724Z</time></trkpt><trkpt lat="43.27877" lon="11.0589233"><ele>367.0</ele><time>2026-04-25T14:56:01.724Z</time></trkpt><trkpt lat="43.2789267" lon="11.058885"><ele>367.0</ele><time>2026-04-25T14:56:02.724Z</time></trkpt><trkpt lat="43.27906" lon="11.0588033"><ele>367.0</ele><time>2026-04-25T14:56:03.725Z</time></trkpt><trkpt lat="43.2791733" lon="11.0586933"><ele>367.0</ele><time>2026-04-25T14:56:04.725Z</time></trkpt><trkpt lat="43.2792883" lon="11.0585817"><ele>369.3333333333333</ele><time>2026-04-25T14:56:05.724Z</time></trkpt><trkpt lat="43.2792617" lon="11.058225"><ele>371.6666666666667</ele><time>2026-04-25T14:56:06.726Z</time></trkpt><trkpt lat="43.2792733" lon="11.0579683"><ele>374.0</ele><time>2026-04-25T14:56:07.725Z</time></trkpt><trkpt lat="43.2792883" lon="11.0576783"><ele>374.0</ele><time>2026-04-25T14:56:08.725Z</time></trkpt><trkpt lat="43.279345" lon="11.0574667"><ele>374.0</ele><time>2026-04-25T14:56:09.722Z</time></trkpt><trkpt lat="43.2794233" lon="11.0573167"><ele>374.0</ele><time>2026-04-25T14:56:10.723Z</time></trkpt><trkpt lat="43.2795317" lon="11.057245"><ele>374.0</ele><time>2026-04-25T14:56:11.723Z</time></trkpt><trkpt lat="43.2796683" lon="11.0572133"><ele>370.33333333333337</ele><time>2026-04-25T14:56:12.723Z</time></trkpt><trkpt lat="43.27983" lon="11.0572167"><ele>366.6666666666667</ele><time>2026-04-25T14:56:13.723Z</time></trkpt><trkpt lat="43.280015" lon="11.0572533"><ele>363.0</ele><time>2026-04-25T14:56:14.723Z</time></trkpt><trkpt lat="43.2802033" lon="11.0572583"><ele>363.0</ele><time>2026-04-25T14:56:15.723Z</time></trkpt><trkpt lat="43.280395" lon="11.0572283"><ele>363.0</ele><time>2026-04-25T14:56:16.726Z</time></trkpt><trkpt lat="43.2805717" lon="11.05715"><ele>363.0</ele><time>2026-04-25T14:56:17.724Z</time></trkpt><trkpt lat="43.28072" lon="11.057035"><ele>365.6666666666667</ele><time>2026-04-25T14:56:18.724Z</time></trkpt><trkpt lat="43.2808717" lon="11.0569533"><ele>368.33333333333337</ele><time>2026-04-25T14:56:19.722Z</time></trkpt><trkpt lat="43.2810233" lon="11.056925"><ele>371.0</ele><time>2026-04-25T14:56:20.723Z</time></trkpt><trkpt lat="43.2811817" lon="11.0569533"><ele>371.0</ele><time>2026-04-25T14:56:21.723Z</time></trkpt><trkpt lat="43.2813433" lon="11.057045"><ele>371.0</ele><time>2026-04-25T14:56:22.723Z</time></trkpt><trkpt lat="43.2815233" lon="11.05715"><ele>371.0</ele><time>2026-04-25T14:56:23.724Z</time></trkpt><trkpt lat="43.28171" lon="11.05725"><ele>369.6666666666667</ele><time>2026-04-25T14:56:24.723Z</time></trkpt><trkpt lat="43.2818933" lon="11.057305"><ele>368.3333333333333</ele><time>2026-04-25T14:56:25.723Z</time></trkpt><trkpt lat="43.28207" lon="11.0573533"><ele>367.0</ele><time>2026-04-25T14:56:26.725Z</time></trkpt><trkpt lat="43.2822333" lon="11.0574317"><ele>369.3333333333333</ele><time>2026-04-25T14:56:27.724Z</time></trkpt><trkpt lat="43.2823683" lon="11.05757"><ele>371.6666666666667</ele><time>2026-04-25T14:56:28.724Z</time></trkpt><trkpt lat="43.28248" lon="11.0577433"><ele>374.0</ele><time>2026-04-25T14:56:29.724Z</time></trkpt><trkpt lat="43.2825683" lon="11.057925"><ele>374.0</ele><time>2026-04-25T14:56:30.723Z</time></trkpt><trkpt lat="43.2826667" lon="11.0580867"><ele>374.0</ele><time>2026-04-25T14:56:31.724Z</time></trkpt><trkpt lat="43.2827717" lon="11.0582067"><ele>374.0</ele><time>2026-04-25T14:56:32.724Z</time></trkpt><trkpt lat="43.28291" lon="11.058275"><ele>374.0</ele><time>2026-04-25T14:56:33.723Z</time></trkpt><trkpt lat="43.2831033" lon="11.0582283"><ele>374.75</ele><time>2026-04-25T14:56:34.724Z</time></trkpt><trkpt lat="43.283265" lon="11.0582383"><ele>375.5</ele><time>2026-04-25T14:56:35.723Z</time></trkpt><trkpt lat="43.2834083" lon="11.0582633"><ele>376.25</ele><time>2026-04-25T14:56:36.723Z</time></trkpt><trkpt lat="43.28351" lon="11.05836"><ele>377.0</ele><time>2026-04-25T14:56:37.724Z</time></trkpt><trkpt lat="43.2835883" lon="11.0585117"><ele>377.0</ele><time>2026-04-25T14:56:38.725Z</time></trkpt><trkpt lat="43.2836567" lon="11.0586883"><ele>377.0</ele><time>2026-04-25T14:56:39.724Z</time></trkpt><trkpt lat="43.28374" lon="11.058845"><ele>377.0</ele><time>2026-04-25T14:56:40.724Z</time></trkpt><trkpt lat="43.2838567" lon="11.0589783"><ele>377.0</ele><time>2026-04-25T14:56:41.724Z</time></trkpt><trkpt lat="43.2840017" lon="11.059085"><ele>377.75</ele><time>2026-04-25T14:56:42.724Z</time></trkpt><trkpt lat="43.28414" lon="11.0591683"><ele>378.5</ele><time>2026-04-25T14:56:43.723Z</time></trkpt><trkpt lat="43.28428" lon="11.0591983"><ele>379.25</ele><time>2026-04-25T14:56:44.725Z</time></trkpt><trkpt lat="43.2844217" lon="11.059195"><ele>380.0</ele><time>2026-04-25T14:56:45.723Z</time></trkpt><trkpt lat="43.2845533" lon="11.0591883"><ele>380.0</ele><time>2026-04-25T14:56:46.724Z</time></trkpt><trkpt lat="43.28467" lon="11.0592467"><ele>380.0</ele><time>2026-04-25T14:56:47.724Z</time></trkpt><trkpt lat="43.2847733" lon="11.0593717"><ele>380.0</ele><time>2026-04-25T14:56:48.723Z</time></trkpt><trkpt lat="43.284865" lon="11.0595383"><ele>380.0</ele><time>2026-04-25T14:56:49.723Z</time></trkpt><trkpt lat="43.2849533" lon="11.0597567"><ele>379.33333333333337</ele><time>2026-04-25T14:56:50.723Z</time></trkpt><trkpt lat="43.2850533" lon="11.0600033"><ele>378.6666666666667</ele><time>2026-04-25T14:56:51.722Z</time></trkpt><trkpt lat="43.2851583" lon="11.0602683"><ele>378.0</ele><time>2026-04-25T14:56:52.724Z</time></trkpt><trkpt lat="43.2852683" lon="11.0605467"><ele>379.5</ele><time>2026-04-25T14:56:53.724Z</time></trkpt><trkpt lat="43.2853883" lon="11.060805"><ele>381.0</ele><time>2026-04-25T14:56:54.723Z</time></trkpt><trkpt lat="43.2855233" lon="11.0610567"><ele>377.0</ele><time>2026-04-25T14:56:55.724Z</time></trkpt><trkpt lat="43.2856717" lon="11.0612917"><ele>373.0</ele><time>2026-04-25T14:56:56.724Z</time></trkpt><trkpt lat="43.2858417" lon="11.0615117"><ele>376.0</ele><time>2026-04-25T14:56:57.724Z</time></trkpt><trkpt lat="43.2860283" lon="11.0617083"><ele>379.0</ele><time>2026-04-25T14:56:58.724Z</time></trkpt><trkpt lat="43.2862283" lon="11.0618817"><ele>375.5</ele><time>2026-04-25T14:56:59.723Z</time></trkpt><trkpt lat="43.286435" lon="11.062035"><ele>372.0</ele><time>2026-04-25T14:57:00.724Z</time></trkpt><trkpt lat="43.2866433" lon="11.062175"><ele>372.0</ele><time>2026-04-25T14:57:01.724Z</time></trkpt><trkpt lat="43.2868367" lon="11.062335"><ele>372.0</ele><time>2026-04-25T14:57:02.724Z</time></trkpt><trkpt lat="43.2870067" lon="11.0625283"><ele>372.0</ele><time>2026-04-25T14:57:03.723Z</time></trkpt><trkpt lat="43.2871617" lon="11.0627533"><ele>370.0</ele><time>2026-04-25T14:57:04.724Z</time></trkpt><trkpt lat="43.2873033" lon="11.0630033"><ele>368.0</ele><time>2026-04-25T14:57:05.724Z</time></trkpt><trkpt lat="43.2874333" lon="11.063275"><ele>372.5</ele><time>2026-04-25T14:57:06.724Z</time></trkpt><trkpt lat="43.2875467" lon="11.0635667"><ele>377.0</ele><time>2026-04-25T14:57:07.724Z</time></trkpt><trkpt lat="43.2876367" lon="11.0638717"><ele>379.0</ele><time>2026-04-25T14:57:08.725Z</time></trkpt><trkpt lat="43.28771" lon="11.0641867"><ele>381.0</ele><time>2026-04-25T14:57:09.724Z</time></trkpt><trkpt lat="43.2877717" lon="11.0645067"><ele>381.0</ele><time>2026-04-25T14:57:10.724Z</time></trkpt><trkpt lat="43.287835" lon="11.06483"><ele>381.0</ele><time>2026-04-25T14:57:11.725Z</time></trkpt><trkpt lat="43.2879033" lon="11.065155"><ele>380.5</ele><time>2026-04-25T14:57:12.724Z</time></trkpt><trkpt lat="43.2879717" lon="11.06548"><ele>380.0</ele><time>2026-04-25T14:57:13.724Z</time></trkpt><trkpt lat="43.2880433" lon="11.065805"><ele>375.5</ele><time>2026-04-25T14:57:14.724Z</time></trkpt><trkpt lat="43.2881167" lon="11.0661317"><ele>371.0</ele><time>2026-04-25T14:57:15.724Z</time></trkpt><trkpt lat="43.2881833" lon="11.066445"><ele>372.33333333333337</ele><time>2026-04-25T14:57:16.723Z</time></trkpt><trkpt lat="43.2882367" lon="11.0667517"><ele>373.6666666666667</ele><time>2026-04-25T14:57:17.724Z</time></trkpt><trkpt lat="43.2882633" lon="11.067045"><ele>375.0</ele><time>2026-04-25T14:57:18.724Z</time></trkpt><trkpt lat="43.2882533" lon="11.067345"><ele>375.6666666666667</ele><time>2026-04-25T14:57:19.723Z</time></trkpt><trkpt lat="43.288215" lon="11.0676467"><ele>376.33333333333337</ele><time>2026-04-25T14:57:20.724Z</time></trkpt><trkpt lat="43.28816" lon="11.0679417"><ele>377.0</ele><time>2026-04-25T14:57:21.724Z</time></trkpt><trkpt lat="43.2881083" lon="11.0682317"><ele>375.6666666666667</ele><time>2026-04-25T14:57:22.724Z</time></trkpt><trkpt lat="43.288085" lon="11.068525"><ele>374.3333333333333</ele><time>2026-04-25T14:57:23.725Z</time></trkpt><trkpt lat="43.2880817" lon="11.06883"><ele>373.0</ele><time>2026-04-25T14:57:24.724Z</time></trkpt><trkpt lat="43.2881083" lon="11.069135"><ele>373.0</ele><time>2026-04-25T14:57:25.726Z</time></trkpt><trkpt lat="43.2881283" lon="11.0694367"><ele>373.0</ele><time>2026-04-25T14:57:26.723Z</time></trkpt><trkpt lat="43.2881167" lon="11.0697417"><ele>373.0</ele><time>2026-04-25T14:57:27.724Z</time></trkpt><trkpt lat="43.2880717" lon="11.0700383"><ele>379.3333333333333</ele><time>2026-04-25T14:57:28.724Z</time></trkpt><trkpt lat="43.2880083" lon="11.0703067"><ele>385.66666666666663</ele><time>2026-04-25T14:57:29.724Z</time></trkpt><trkpt lat="43.2879417" lon="11.0705517"><ele>392.0</ele><time>2026-04-25T14:57:30.723Z</time></trkpt><trkpt lat="43.287895" lon="11.07077"><ele>391.25</ele><time>2026-04-25T14:57:31.724Z</time></trkpt><trkpt lat="43.2878833" lon="11.0709767"><ele>390.5</ele><time>2026-04-25T14:57:32.724Z</time></trkpt><trkpt lat="43.2879067" lon="11.0711733"><ele>389.75</ele><time>2026-04-25T14:57:33.724Z</time></trkpt><trkpt lat="43.28797" lon="11.0713367"><ele>389.0</ele><time>2026-04-25T14:57:34.724Z</time></trkpt><trkpt lat="43.2880767" lon="11.0714617"><ele>383.3333333333333</ele><time>2026-04-25T14:57:35.725Z</time></trkpt><trkpt lat="43.288215" lon="11.07153"><ele>377.66666666666663</ele><time>2026-04-25T14:57:36.724Z</time></trkpt><trkpt lat="43.288375" lon="11.071525"><ele>372.0</ele><time>2026-04-25T14:57:37.726Z</time></trkpt><trkpt lat="43.288525" lon="11.071465"><ele>372.0</ele><time>2026-04-25T14:57:38.724Z</time></trkpt><trkpt lat="43.2886717" lon="11.0713283"><ele>372.0</ele><time>2026-04-25T14:57:39.724Z</time></trkpt><trkpt lat="43.288825" lon="11.07114"><ele>372.0</ele><time>2026-04-25T14:57:40.725Z</time></trkpt><trkpt lat="43.288985" lon="11.070965"><ele>372.3333333333333</ele><time>2026-04-25T14:57:41.724Z</time></trkpt><trkpt lat="43.28917" lon="11.0708283"><ele>372.66666666666663</ele><time>2026-04-25T14:57:42.722Z</time></trkpt><trkpt lat="43.28937" lon="11.070735"><ele>373.0</ele><time>2026-04-25T14:57:43.723Z</time></trkpt><trkpt lat="43.2895733" lon="11.070655"><ele>370.66666666666663</ele><time>2026-04-25T14:57:44.724Z</time></trkpt><trkpt lat="43.2897783" lon="11.0705517"><ele>368.3333333333333</ele><time>2026-04-25T14:57:45.724Z</time></trkpt><trkpt lat="43.28997" lon="11.070425"><ele>366.0</ele><time>2026-04-25T14:57:46.724Z</time></trkpt><trkpt lat="43.2901367" lon="11.0702867"><ele>366.0</ele><time>2026-04-25T14:57:47.726Z</time></trkpt><trkpt lat="43.2903" lon="11.0701667"><ele>366.0</ele><time>2026-04-25T14:57:48.723Z</time></trkpt><trkpt lat="43.2904667" lon="11.0700933"><ele>366.0</ele><time>2026-04-25T14:57:49.724Z</time></trkpt><trkpt lat="43.2906383" lon="11.070075"><ele>367.0</ele><time>2026-04-25T14:57:50.723Z</time></trkpt><trkpt lat="43.290805" lon="11.0701167"><ele>368.0</ele><time>2026-04-25T14:57:51.724Z</time></trkpt><trkpt lat="43.290945" lon="11.0701933"><ele>369.0</ele><time>2026-04-25T14:57:52.724Z</time></trkpt><trkpt lat="43.2910483" lon="11.0702817"><ele>370.0</ele><time>2026-04-25T14:57:53.725Z</time></trkpt><trkpt lat="43.291125" lon="11.0703667"><ele>370.0</ele><time>2026-04-25T14:57:54.724Z</time></trkpt><trkpt lat="43.29119" lon="11.0704383"><ele>370.0</ele><time>2026-04-25T14:57:55.723Z</time></trkpt><trkpt lat="43.2912917" lon="11.0704167"><ele>370.0</ele><time>2026-04-25T14:57:57.725Z</time></trkpt><trkpt lat="43.29134" lon="11.0703567"><ele>370.0</ele><time>2026-04-25T14:57:58.724Z</time></trkpt><trkpt lat="43.2913933" lon="11.0702217"><ele>370.0</ele><time>2026-04-25T14:57:59.724Z</time></trkpt><trkpt lat="43.2914667" lon="11.070045"><ele>369.0</ele><time>2026-04-25T14:58:00.723Z</time></trkpt><trkpt lat="43.2915533" lon="11.06986"><ele>368.0</ele><time>2026-04-25T14:58:01.724Z</time></trkpt><trkpt lat="43.2916417" lon="11.0696833"><ele>367.0</ele><time>2026-04-25T14:58:02.724Z</time></trkpt><trkpt lat="43.2917367" lon="11.0695233"><ele>367.0</ele><time>2026-04-25T14:58:03.724Z</time></trkpt><trkpt lat="43.2918533" lon="11.0693883"><ele>367.0</ele><time>2026-04-25T14:58:04.723Z</time></trkpt><trkpt lat="43.2919967" lon="11.0692867"><ele>367.0</ele><time>2026-04-25T14:58:05.723Z</time></trkpt><trkpt lat="43.2921533" lon="11.069205"><ele>365.3333333333333</ele><time>2026-04-25T14:58:06.723Z</time></trkpt><trkpt lat="43.292315" lon="11.0691383"><ele>363.6666666666667</ele><time>2026-04-25T14:58:07.723Z</time></trkpt><trkpt lat="43.2924833" lon="11.0691217"><ele>362.0</ele><time>2026-04-25T14:58:08.723Z</time></trkpt><trkpt lat="43.2926633" lon="11.06915"><ele>362.0</ele><time>2026-04-25T14:58:09.725Z</time></trkpt><trkpt lat="43.292855" lon="11.0692117"><ele>362.0</ele><time>2026-04-25T14:58:10.724Z</time></trkpt><trkpt lat="43.2930433" lon="11.069275"><ele>362.0</ele><time>2026-04-25T14:58:11.724Z</time></trkpt><trkpt lat="43.2932217" lon="11.0693233"><ele>362.6666666666667</ele><time>2026-04-25T14:58:12.724Z</time></trkpt><trkpt lat="43.2933917" lon="11.069335"><ele>363.3333333333333</ele><time>2026-04-25T14:58:13.724Z</time></trkpt><trkpt lat="43.29357" lon="11.0692967"><ele>364.0</ele><time>2026-04-25T14:58:14.725Z</time></trkpt><trkpt lat="43.29374" lon="11.0692133"><ele>364.3333333333333</ele><time>2026-04-25T14:58:15.723Z</time></trkpt><trkpt lat="43.2939117" lon="11.06909"><ele>364.6666666666667</ele><time>2026-04-25T14:58:16.726Z</time></trkpt><trkpt lat="43.2940783" lon="11.0689367"><ele>365.0</ele><time>2026-04-25T14:58:17.724Z</time></trkpt><trkpt lat="43.2942533" lon="11.0687817"><ele>365.0</ele><time>2026-04-25T14:58:18.723Z</time></trkpt><trkpt lat="43.29442" lon="11.0686417"><ele>365.0</ele><time>2026-04-25T14:58:19.723Z</time></trkpt><trkpt lat="43.294565" lon="11.068515"><ele>365.0</ele><time>2026-04-25T14:58:20.724Z</time></trkpt><trkpt lat="43.2947117" lon="11.0684267"><ele>367.0</ele><time>2026-04-25T14:58:21.723Z</time></trkpt><trkpt lat="43.29487" lon="11.06839"><ele>369.0</ele><time>2026-04-25T14:58:22.722Z</time></trkpt><trkpt lat="43.2950367" lon="11.0683833"><ele>371.0</ele><time>2026-04-25T14:58:23.724Z</time></trkpt><trkpt lat="43.2952167" lon="11.0683883"><ele>371.0</ele><time>2026-04-25T14:58:24.724Z</time></trkpt><trkpt lat="43.2954083" lon="11.0683967"><ele>371.0</ele><time>2026-04-25T14:58:25.723Z</time></trkpt><trkpt lat="43.2955783" lon="11.0683667"><ele>371.0</ele><time>2026-04-25T14:58:26.724Z</time></trkpt><trkpt lat="43.29574" lon="11.0683133"><ele>371.6666666666667</ele><time>2026-04-25T14:58:27.724Z</time></trkpt><trkpt lat="43.2958883" lon="11.0682183"><ele>372.3333333333333</ele><time>2026-04-25T14:58:28.725Z</time></trkpt><trkpt lat="43.2960233" lon="11.0680783"><ele>373.0</ele><time>2026-04-25T14:58:29.725Z</time></trkpt><trkpt lat="43.2961483" lon="11.0678983"><ele>373.0</ele><time>2026-04-25T14:58:30.725Z</time></trkpt><trkpt lat="43.2962533" lon="11.06767"><ele>373.0</ele><time>2026-04-25T14:58:31.724Z</time></trkpt><trkpt lat="43.29637" lon="11.0674217"><ele>373.0</ele><time>2026-04-25T14:58:32.724Z</time></trkpt><trkpt lat="43.296485" lon="11.0671567"><ele>380.5</ele><time>2026-04-25T14:58:33.725Z</time></trkpt><trkpt lat="43.2966083" lon="11.0668833"><ele>388.0</ele><time>2026-04-25T14:58:34.726Z</time></trkpt><trkpt lat="43.29674" lon="11.0666083"><ele>388.5</ele><time>2026-04-25T14:58:35.724Z</time></trkpt><trkpt lat="43.29687" lon="11.0663367"><ele>389.0</ele><time>2026-04-25T14:58:36.723Z</time></trkpt><trkpt lat="43.29699" lon="11.0660617"><ele>389.0</ele><time>2026-04-25T14:58:37.725Z</time></trkpt><trkpt lat="43.297095" lon="11.0657833"><ele>389.0</ele><time>2026-04-25T14:58:38.724Z</time></trkpt><trkpt lat="43.2971883" lon="11.0655117"><ele>389.0</ele><time>2026-04-25T14:58:39.724Z</time></trkpt><trkpt lat="43.29728" lon="11.0652533"><ele>391.3333333333333</ele><time>2026-04-25T14:58:40.724Z</time></trkpt><trkpt lat="43.297365" lon="11.06501"><ele>393.66666666666663</ele><time>2026-04-25T14:58:41.725Z</time></trkpt><trkpt lat="43.2974567" lon="11.0647883"><ele>396.0</ele><time>2026-04-25T14:58:42.723Z</time></trkpt><trkpt lat="43.2975583" lon="11.06458"><ele>396.0</ele><time>2026-04-25T14:58:43.723Z</time></trkpt><trkpt lat="43.2976817" lon="11.064385"><ele>396.0</ele><time>2026-04-25T14:58:44.724Z</time></trkpt><trkpt lat="43.29782" lon="11.0641933"><ele>396.0</ele><time>2026-04-25T14:58:45.723Z</time></trkpt><trkpt lat="43.2979683" lon="11.0640017"><ele>399.0</ele><time>2026-04-25T14:58:46.724Z</time></trkpt><trkpt lat="43.2981183" lon="11.0638183"><ele>402.0</ele><time>2026-04-25T14:58:47.724Z</time></trkpt><trkpt lat="43.2982617" lon="11.0636283"><ele>405.0</ele><time>2026-04-25T14:58:48.724Z</time></trkpt><trkpt lat="43.2983883" lon="11.0634217"><ele>404.0</ele><time>2026-04-25T14:58:49.725Z</time></trkpt><trkpt lat="43.2985033" lon="11.06319"><ele>403.0</ele><time>2026-04-25T14:58:50.725Z</time></trkpt><trkpt lat="43.298615" lon="11.0629583"><ele>402.0</ele><time>2026-04-25T14:58:51.723Z</time></trkpt><trkpt lat="43.298705" lon="11.0627283"><ele>402.0</ele><time>2026-04-25T14:58:52.725Z</time></trkpt><trkpt lat="43.2987833" lon="11.0625117"><ele>402.0</ele><time>2026-04-25T14:58:53.723Z</time></trkpt><trkpt lat="43.2988583" lon="11.0623183"><ele>402.0</ele><time>2026-04-25T14:58:54.725Z</time></trkpt><trkpt lat="43.298955" lon="11.0621467"><ele>406.0</ele><time>2026-04-25T14:58:55.723Z</time></trkpt><trkpt lat="43.2990817" lon="11.0619983"><ele>410.0</ele><time>2026-04-25T14:58:56.724Z</time></trkpt><trkpt lat="43.2992317" lon="11.0618667"><ele>414.0</ele><time>2026-04-25T14:58:57.725Z</time></trkpt><trkpt lat="43.2993967" lon="11.0617383"><ele>412.66666666666663</ele><time>2026-04-25T14:58:58.725Z</time></trkpt><trkpt lat="43.299565" lon="11.0616083"><ele>411.3333333333333</ele><time>2026-04-25T14:58:59.724Z</time></trkpt><trkpt lat="43.2997133" lon="11.061485"><ele>410.0</ele><time>2026-04-25T14:59:00.724Z</time></trkpt><trkpt lat="43.2998283" lon="11.06134"><ele>416.0</ele><time>2026-04-25T14:59:01.722Z</time></trkpt><trkpt lat="43.2999183" lon="11.06116"><ele>422.0</ele><time>2026-04-25T14:59:02.725Z</time></trkpt><trkpt lat="43.29999" lon="11.0609433"><ele>428.0</ele><time>2026-04-25T14:59:03.724Z</time></trkpt><trkpt lat="43.3000233" lon="11.060705"><ele>429.66666666666663</ele><time>2026-04-25T14:59:04.724Z</time></trkpt><trkpt lat="43.3000433" lon="11.0604383"><ele>431.33333333333337</ele><time>2026-04-25T14:59:05.724Z</time></trkpt><trkpt lat="43.3000283" lon="11.0601617"><ele>433.0</ele><time>2026-04-25T14:59:06.723Z</time></trkpt><trkpt lat="43.299985" lon="11.05987"><ele>437.5</ele><time>2026-04-25T14:59:07.724Z</time></trkpt><trkpt lat="43.2999333" lon="11.0595717"><ele>442.0</ele><time>2026-04-25T14:59:08.724Z</time></trkpt><trkpt lat="43.2998817" lon="11.059265"><ele>448.0</ele><time>2026-04-25T14:59:09.724Z</time></trkpt><trkpt lat="43.2998333" lon="11.058955"><ele>454.0</ele><time>2026-04-25T14:59:10.724Z</time></trkpt><trkpt lat="43.2997833" lon="11.05865"><ele>450.6666666666667</ele><time>2026-04-25T14:59:11.723Z</time></trkpt><trkpt lat="43.2997333" lon="11.05836"><ele>447.33333333333337</ele><time>2026-04-25T14:59:12.724Z</time></trkpt><trkpt lat="43.2996783" lon="11.0580983"><ele>444.0</ele><time>2026-04-25T14:59:13.724Z</time></trkpt><trkpt lat="43.2996117" lon="11.0578767"><ele>444.0</ele><time>2026-04-25T14:59:14.723Z</time></trkpt><trkpt lat="43.2995283" lon="11.05768"><ele>444.0</ele><time>2026-04-25T14:59:15.723Z</time></trkpt><trkpt lat="43.2994317" lon="11.0575"><ele>444.0</ele><time>2026-04-25T14:59:16.725Z</time></trkpt><trkpt lat="43.29933" lon="11.0573217"><ele>448.0</ele><time>2026-04-25T14:59:17.724Z</time></trkpt><trkpt lat="43.29922" lon="11.0571533"><ele>452.0</ele><time>2026-04-25T14:59:18.723Z</time></trkpt><trkpt lat="43.299105" lon="11.0569667"><ele>456.0</ele><time>2026-04-25T14:59:19.723Z</time></trkpt><trkpt lat="43.2989883" lon="11.0567833"><ele>449.33333333333337</ele><time>2026-04-25T14:59:20.724Z</time></trkpt><trkpt lat="43.2988817" lon="11.0566167"><ele>442.6666666666667</ele><time>2026-04-25T14:59:21.724Z</time></trkpt><trkpt lat="43.2987883" lon="11.05646"><ele>436.0</ele><time>2026-04-25T14:59:22.725Z</time></trkpt><trkpt lat="43.2987183" lon="11.05628"><ele>436.0</ele><time>2026-04-25T14:59:23.725Z</time></trkpt><trkpt lat="43.2986733" lon="11.0560883"><ele>436.0</ele><time>2026-04-25T14:59:24.725Z</time></trkpt><trkpt lat="43.2986467" lon="11.0558733"><ele>436.0</ele><time>2026-04-25T14:59:25.724Z</time></trkpt><trkpt lat="43.2986233" lon="11.0556467"><ele>436.0</ele><time>2026-04-25T14:59:26.725Z</time></trkpt><trkpt lat="43.2985967" lon="11.05542"><ele>436.0</ele><time>2026-04-25T14:59:27.724Z</time></trkpt><trkpt lat="43.2985717" lon="11.055205"><ele>436.0</ele><time>2026-04-25T14:59:28.724Z</time></trkpt><trkpt lat="43.2985633" lon="11.054995"><ele>432.5</ele><time>2026-04-25T14:59:29.724Z</time></trkpt><trkpt lat="43.29857" lon="11.0548033"><ele>429.0</ele><time>2026-04-25T14:59:30.724Z</time></trkpt><trkpt lat="43.2986017" lon="11.0546083"><ele>425.5</ele><time>2026-04-25T14:59:31.725Z</time></trkpt><trkpt lat="43.2986633" lon="11.0544267"><ele>422.0</ele><time>2026-04-25T14:59:32.726Z</time></trkpt><trkpt lat="43.2987617" lon="11.05425"><ele>419.66666666666663</ele><time>2026-04-25T14:59:33.725Z</time></trkpt><trkpt lat="43.29888" lon="11.0540967"><ele>417.33333333333337</ele><time>2026-04-25T14:59:34.724Z</time></trkpt><trkpt lat="43.2990017" lon="11.0539417"><ele>415.0</ele><time>2026-04-25T14:59:35.724Z</time></trkpt><trkpt lat="43.2991083" lon="11.053765"><ele>420.0</ele><time>2026-04-25T14:59:36.725Z</time></trkpt><trkpt lat="43.2991783" lon="11.0535617"><ele>425.0</ele><time>2026-04-25T14:59:37.724Z</time></trkpt><trkpt lat="43.2992283" lon="11.0533383"><ele>430.0</ele><time>2026-04-25T14:59:38.723Z</time></trkpt><trkpt lat="43.29927" lon="11.0530933"><ele>430.0</ele><time>2026-04-25T14:59:39.723Z</time></trkpt><trkpt lat="43.2993083" lon="11.052845"><ele>430.0</ele><time>2026-04-25T14:59:40.724Z</time></trkpt><trkpt lat="43.2993567" lon="11.0526017"><ele>430.0</ele><time>2026-04-25T14:59:41.723Z</time></trkpt><trkpt lat="43.299415" lon="11.0523683"><ele>428.0</ele><time>2026-04-25T14:59:42.725Z</time></trkpt><trkpt lat="43.2995" lon="11.0521367"><ele>426.0</ele><time>2026-04-25T14:59:43.724Z</time></trkpt><trkpt lat="43.2996" lon="11.0519117"><ele>424.0</ele><time>2026-04-25T14:59:44.725Z</time></trkpt><trkpt lat="43.2996883" lon="11.0517117"><ele>428.5</ele><time>2026-04-25T14:59:45.724Z</time></trkpt><trkpt lat="43.2997733" lon="11.0515333"><ele>433.0</ele><time>2026-04-25T14:59:46.723Z</time></trkpt><trkpt lat="43.2998417" lon="11.05136"><ele>437.5</ele><time>2026-04-25T14:59:47.724Z</time></trkpt><trkpt lat="43.299875" lon="11.051195"><ele>442.0</ele><time>2026-04-25T14:59:48.723Z</time></trkpt><trkpt lat="43.29987" lon="11.05102"><ele>442.0</ele><time>2026-04-25T14:59:49.724Z</time></trkpt><trkpt lat="43.2998133" lon="11.050825"><ele>442.0</ele><time>2026-04-25T14:59:50.724Z</time></trkpt><trkpt lat="43.299705" lon="11.050645"><ele>442.0</ele><time>2026-04-25T14:59:51.724Z</time></trkpt><trkpt lat="43.2995717" lon="11.0504933"><ele>439.6666666666667</ele><time>2026-04-25T14:59:52.726Z</time></trkpt><trkpt lat="43.2994233" lon="11.0503467"><ele>437.33333333333337</ele><time>2026-04-25T14:59:53.724Z</time></trkpt><trkpt lat="43.2992717" lon="11.0501967"><ele>435.0</ele><time>2026-04-25T14:59:54.725Z</time></trkpt><trkpt lat="43.299115" lon="11.05004"><ele>432.66666666666663</ele><time>2026-04-25T14:59:55.724Z</time></trkpt><trkpt lat="43.298965" lon="11.0498833"><ele>430.3333333333333</ele><time>2026-04-25T14:59:56.724Z</time></trkpt><trkpt lat="43.298825" lon="11.0497367"><ele>428.0</ele><time>2026-04-25T14:59:57.725Z</time></trkpt><trkpt lat="43.298705" lon="11.0496083"><ele>428.0</ele><time>2026-04-25T14:59:58.725Z</time></trkpt><trkpt lat="43.2986067" lon="11.0494867"><ele>428.0</ele><time>2026-04-25T14:59:59.725Z</time></trkpt><trkpt lat="43.2985333" lon="11.0493567"><ele>428.0</ele><time>2026-04-25T15:00:00.725Z</time></trkpt><trkpt lat="43.2984867" lon="11.0492017"><ele>428.0</ele><time>2026-04-25T15:00:01.724Z</time></trkpt><trkpt lat="43.2984667" lon="11.0490283"><ele>426.66666666666663</ele><time>2026-04-25T15:00:02.725Z</time></trkpt><trkpt lat="43.2984783" lon="11.0488333"><ele>425.33333333333337</ele><time>2026-04-25T15:00:03.725Z</time></trkpt><trkpt lat="43.2985067" lon="11.0486217"><ele>424.0</ele><time>2026-04-25T15:00:04.723Z</time></trkpt><trkpt lat="43.2985433" lon="11.048395"><ele>421.33333333333337</ele><time>2026-04-25T15:00:05.724Z</time></trkpt><trkpt lat="43.29859" lon="11.0481517"><ele>418.66666666666663</ele><time>2026-04-25T15:00:06.725Z</time></trkpt><trkpt lat="43.2986417" lon="11.0479083"><ele>416.0</ele><time>2026-04-25T15:00:07.724Z</time></trkpt><trkpt lat="43.2986867" lon="11.047655"><ele>413.3333333333333</ele><time>2026-04-25T15:00:08.724Z</time></trkpt><trkpt lat="43.2987233" lon="11.0474033"><ele>410.66666666666663</ele><time>2026-04-25T15:00:09.724Z</time></trkpt><trkpt lat="43.29873" lon="11.0471517"><ele>408.0</ele><time>2026-04-25T15:00:10.723Z</time></trkpt><trkpt lat="43.2987017" lon="11.0469"><ele>408.0</ele><time>2026-04-25T15:00:11.726Z</time></trkpt><trkpt lat="43.2986583" lon="11.0466583"><ele>408.0</ele><time>2026-04-25T15:00:12.724Z</time></trkpt><trkpt lat="43.298625" lon="11.04643"><ele>408.0</ele><time>2026-04-25T15:00:13.724Z</time></trkpt><trkpt lat="43.298625" lon="11.0461983"><ele>405.33333333333337</ele><time>2026-04-25T15:00:14.724Z</time></trkpt><trkpt lat="43.2986617" lon="11.0459617"><ele>402.6666666666667</ele><time>2026-04-25T15:00:15.724Z</time></trkpt><trkpt lat="43.298725" lon="11.0457083"><ele>400.0</ele><time>2026-04-25T15:00:16.724Z</time></trkpt><trkpt lat="43.2987967" lon="11.0454433"><ele>398.33333333333337</ele><time>2026-04-25T15:00:17.723Z</time></trkpt><trkpt lat="43.2988633" lon="11.0451667"><ele>396.66666666666663</ele><time>2026-04-25T15:00:18.724Z</time></trkpt><trkpt lat="43.29892" lon="11.0448983"><ele>395.0</ele><time>2026-04-25T15:00:19.725Z</time></trkpt><trkpt lat="43.2989667" lon="11.0446467"><ele>395.0</ele><time>2026-04-25T15:00:20.725Z</time></trkpt><trkpt lat="43.2990167" lon="11.0444117"><ele>395.0</ele><time>2026-04-25T15:00:21.724Z</time></trkpt><trkpt lat="43.2990767" lon="11.0441983"><ele>395.0</ele><time>2026-04-25T15:00:22.723Z</time></trkpt><trkpt lat="43.2991567" lon="11.04402"><ele>392.66666666666663</ele><time>2026-04-25T15:00:23.724Z</time></trkpt><trkpt lat="43.29927" lon="11.043875"><ele>390.33333333333337</ele><time>2026-04-25T15:00:24.723Z</time></trkpt><trkpt lat="43.2994033" lon="11.043755"><ele>388.0</ele><time>2026-04-25T15:00:25.724Z</time></trkpt><trkpt lat="43.299555" lon="11.0436517"><ele>388.0</ele><time>2026-04-25T15:00:26.724Z</time></trkpt><trkpt lat="43.29972" lon="11.043565"><ele>388.0</ele><time>2026-04-25T15:00:27.725Z</time></trkpt><trkpt lat="43.2998983" lon="11.0434883"><ele>388.0</ele><time>2026-04-25T15:00:28.724Z</time></trkpt><trkpt lat="43.30008" lon="11.043415"><ele>388.6666666666667</ele><time>2026-04-25T15:00:29.724Z</time></trkpt><trkpt lat="43.3002667" lon="11.043345"><ele>389.33333333333337</ele><time>2026-04-25T15:00:30.724Z</time></trkpt><trkpt lat="43.300455" lon="11.0432767"><ele>390.0</ele><time>2026-04-25T15:00:31.724Z</time></trkpt><trkpt lat="43.3006417" lon="11.0432067"><ele>390.0</ele><time>2026-04-25T15:00:32.722Z</time></trkpt><trkpt lat="43.3008133" lon="11.04313"><ele>390.0</ele><time>2026-04-25T15:00:33.723Z</time></trkpt><trkpt lat="43.3009733" lon="11.0430617"><ele>390.0</ele><time>2026-04-25T15:00:34.723Z</time></trkpt><trkpt lat="43.3011217" lon="11.0430067"><ele>390.0</ele><time>2026-04-25T15:00:35.724Z</time></trkpt><trkpt lat="43.3012617" lon="11.04298"><ele>390.0</ele><time>2026-04-25T15:00:36.724Z</time></trkpt><trkpt lat="43.3013967" lon="11.043"><ele>390.0</ele><time>2026-04-25T15:00:37.725Z</time></trkpt><trkpt lat="43.30153" lon="11.043075"><ele>390.0</ele><time>2026-04-25T15:00:38.725Z</time></trkpt><trkpt lat="43.30166" lon="11.0431917"><ele>395.66666666666663</ele><time>2026-04-25T15:00:39.725Z</time></trkpt><trkpt lat="43.3017883" lon="11.04334"><ele>401.3333333333333</ele><time>2026-04-25T15:00:40.723Z</time></trkpt><trkpt lat="43.30193" lon="11.0435133"><ele>407.0</ele><time>2026-04-25T15:00:41.724Z</time></trkpt><trkpt lat="43.3020817" lon="11.0436867"><ele>407.0</ele><time>2026-04-25T15:00:42.723Z</time></trkpt><trkpt lat="43.3022283" lon="11.04386"><ele>407.0</ele><time>2026-04-25T15:00:43.724Z</time></trkpt><trkpt lat="43.3023733" lon="11.0440317"><ele>407.0</ele><time>2026-04-25T15:00:44.725Z</time></trkpt><trkpt lat="43.302525" lon="11.044195"><ele>406.0</ele><time>2026-04-25T15:00:45.724Z</time></trkpt><trkpt lat="43.3026933" lon="11.0443283"><ele>405.0</ele><time>2026-04-25T15:00:46.724Z</time></trkpt><trkpt lat="43.3028767" lon="11.0444017"><ele>404.0</ele><time>2026-04-25T15:00:47.726Z</time></trkpt><trkpt lat="43.3030633" lon="11.04443"><ele>400.66666666666663</ele><time>2026-04-25T15:00:48.723Z</time></trkpt><trkpt lat="43.3032383" lon="11.0444467"><ele>397.33333333333337</ele><time>2026-04-25T15:00:49.724Z</time></trkpt><trkpt lat="43.3033967" lon="11.0444933"><ele>394.0</ele><time>2026-04-25T15:00:50.724Z</time></trkpt><trkpt lat="43.30353" lon="11.0445783"><ele>394.0</ele><time>2026-04-25T15:00:51.723Z</time></trkpt><trkpt lat="43.3036333" lon="11.04471"><ele>394.0</ele><time>2026-04-25T15:00:52.725Z</time></trkpt><trkpt lat="43.3037" lon="11.04489"><ele>394.0</ele><time>2026-04-25T15:00:53.725Z</time></trkpt><trkpt lat="43.3037467" lon="11.0451083"><ele>397.6666666666667</ele><time>2026-04-25T15:00:54.724Z</time></trkpt><trkpt lat="43.3037733" lon="11.0453467"><ele>401.33333333333337</ele><time>2026-04-25T15:00:55.725Z</time></trkpt><trkpt lat="43.303775" lon="11.0455967"><ele>405.0</ele><time>2026-04-25T15:00:56.725Z</time></trkpt><trkpt lat="43.3037517" lon="11.0458567"><ele>406.0</ele><time>2026-04-25T15:00:57.724Z</time></trkpt><trkpt lat="43.303715" lon="11.0461067"><ele>407.0</ele><time>2026-04-25T15:00:58.723Z</time></trkpt><trkpt lat="43.30368" lon="11.0463333"><ele>408.0</ele><time>2026-04-25T15:00:59.726Z</time></trkpt><trkpt lat="43.3036683" lon="11.04654"><ele>407.75</ele><time>2026-04-25T15:01:00.725Z</time></trkpt><trkpt lat="43.3036917" lon="11.0467233"><ele>407.5</ele><time>2026-04-25T15:01:01.724Z</time></trkpt><trkpt lat="43.3037533" lon="11.0468817"><ele>407.25</ele><time>2026-04-25T15:01:02.726Z</time></trkpt><trkpt lat="43.303855" lon="11.047"><ele>407.0</ele><time>2026-04-25T15:01:03.725Z</time></trkpt><trkpt lat="43.30399" lon="11.047055"><ele>404.0</ele><time>2026-04-25T15:01:04.724Z</time></trkpt><trkpt lat="43.3041467" lon="11.0470333"><ele>401.0</ele><time>2026-04-25T15:01:05.725Z</time></trkpt><trkpt lat="43.30431" lon="11.0469967"><ele>398.0</ele><time>2026-04-25T15:01:06.723Z</time></trkpt><trkpt lat="43.304465" lon="11.0470167"><ele>398.0</ele><time>2026-04-25T15:01:07.722Z</time></trkpt><trkpt lat="43.3046133" lon="11.047095"><ele>398.0</ele><time>2026-04-25T15:01:08.728Z</time></trkpt><trkpt lat="43.3047617" lon="11.0472283"><ele>398.0</ele><time>2026-04-25T15:01:09.724Z</time></trkpt><trkpt lat="43.3049117" lon="11.04739"><ele>397.66666666666663</ele><time>2026-04-25T15:01:10.725Z</time></trkpt><trkpt lat="43.305065" lon="11.04758"><ele>397.33333333333337</ele><time>2026-04-25T15:01:11.724Z</time></trkpt><trkpt lat="43.305225" lon="11.0477717"><ele>397.0</ele><time>2026-04-25T15:01:12.724Z</time></trkpt><trkpt lat="43.3053867" lon="11.0479583"><ele>397.0</ele><time>2026-04-25T15:01:13.724Z</time></trkpt><trkpt lat="43.3055433" lon="11.04814"><ele>397.0</ele><time>2026-04-25T15:01:14.725Z</time></trkpt><trkpt lat="43.3056883" lon="11.048325"><ele>397.0</ele><time>2026-04-25T15:01:15.725Z</time></trkpt><trkpt lat="43.3058283" lon="11.0485017"><ele>394.0</ele><time>2026-04-25T15:01:16.725Z</time></trkpt><trkpt lat="43.30596" lon="11.0486817"><ele>391.0</ele><time>2026-04-25T15:01:17.724Z</time></trkpt><trkpt lat="43.306085" lon="11.0488533"><ele>388.0</ele><time>2026-04-25T15:01:18.724Z</time></trkpt><trkpt lat="43.3061967" lon="11.0490217"><ele>389.0</ele><time>2026-04-25T15:01:19.724Z</time></trkpt><trkpt lat="43.3062933" lon="11.0491867"><ele>390.0</ele><time>2026-04-25T15:01:20.726Z</time></trkpt><trkpt lat="43.3063667" lon="11.0493617"><ele>391.0</ele><time>2026-04-25T15:01:21.725Z</time></trkpt><trkpt lat="43.306415" lon="11.0495467"><ele>392.0</ele><time>2026-04-25T15:01:22.724Z</time></trkpt><trkpt lat="43.3064517" lon="11.049735"><ele>389.25</ele><time>2026-04-25T15:01:23.726Z</time></trkpt><trkpt lat="43.3064883" lon="11.049915"><ele>386.5</ele><time>2026-04-25T15:01:24.725Z</time></trkpt><trkpt lat="43.3065367" lon="11.0500883"><ele>383.75</ele><time>2026-04-25T15:01:25.724Z</time></trkpt><trkpt lat="43.306605" lon="11.05025"><ele>381.0</ele><time>2026-04-25T15:01:26.724Z</time></trkpt><trkpt lat="43.3067017" lon="11.050385"><ele>381.0</ele><time>2026-04-25T15:01:27.724Z</time></trkpt><trkpt lat="43.3068433" lon="11.0504983"><ele>381.0</ele><time>2026-04-25T15:01:28.724Z</time></trkpt><trkpt lat="43.30703" lon="11.0506117"><ele>381.0</ele><time>2026-04-25T15:01:29.725Z</time></trkpt><trkpt lat="43.3072183" lon="11.050735"><ele>378.0</ele><time>2026-04-25T15:01:30.724Z</time></trkpt><trkpt lat="43.307385" lon="11.0508583"><ele>375.0</ele><time>2026-04-25T15:01:31.725Z</time></trkpt><trkpt lat="43.3075333" lon="11.0509617"><ele>372.0</ele><time>2026-04-25T15:01:32.724Z</time></trkpt><trkpt lat="43.3076583" lon="11.0510717"><ele>372.0</ele><time>2026-04-25T15:01:33.725Z</time></trkpt><trkpt lat="43.3077617" lon="11.0512083"><ele>372.0</ele><time>2026-04-25T15:01:34.724Z</time></trkpt><trkpt lat="43.3078317" lon="11.0513917"><ele>372.0</ele><time>2026-04-25T15:01:35.725Z</time></trkpt><trkpt lat="43.307855" lon="11.0515817"><ele>372.0</ele><time>2026-04-25T15:01:36.725Z</time></trkpt><trkpt lat="43.3078517" lon="11.0517817"><ele>373.75</ele><time>2026-04-25T15:01:37.724Z</time></trkpt><trkpt lat="43.30785" lon="11.0519767"><ele>375.5</ele><time>2026-04-25T15:01:38.725Z</time></trkpt><trkpt lat="43.30788" lon="11.0521467"><ele>377.25</ele><time>2026-04-25T15:01:39.724Z</time></trkpt><trkpt lat="43.3079467" lon="11.0522817"><ele>379.0</ele><time>2026-04-25T15:01:40.725Z</time></trkpt><trkpt lat="43.3080483" lon="11.0523667"><ele>374.5</ele><time>2026-04-25T15:01:41.728Z</time></trkpt><trkpt lat="43.3081667" lon="11.0523817"><ele>370.0</ele><time>2026-04-25T15:01:42.725Z</time></trkpt><trkpt lat="43.308275" lon="11.0523467"><ele>365.5</ele><time>2026-04-25T15:01:43.724Z</time></trkpt><trkpt lat="43.30839" lon="11.05224"><ele>361.0</ele><time>2026-04-25T15:01:44.725Z</time></trkpt><trkpt lat="43.3085" lon="11.0520533"><ele>361.0</ele><time>2026-04-25T15:01:45.726Z</time></trkpt><trkpt lat="43.30861" lon="11.05185"><ele>361.0</ele><time>2026-04-25T15:01:46.725Z</time></trkpt><trkpt lat="43.30872" lon="11.0516233"><ele>361.0</ele><time>2026-04-25T15:01:47.724Z</time></trkpt><trkpt lat="43.3088233" lon="11.0513833"><ele>359.0</ele><time>2026-04-25T15:01:48.725Z</time></trkpt><trkpt lat="43.3089183" lon="11.051165"><ele>357.0</ele><time>2026-04-25T15:01:49.724Z</time></trkpt><trkpt lat="43.30901" lon="11.0509483"><ele>355.0</ele><time>2026-04-25T15:01:50.725Z</time></trkpt><trkpt lat="43.309095" lon="11.0507467"><ele>352.3333333333333</ele><time>2026-04-25T15:01:51.724Z</time></trkpt><trkpt lat="43.30918" lon="11.0505533"><ele>349.6666666666667</ele><time>2026-04-25T15:01:52.725Z</time></trkpt><trkpt lat="43.30928" lon="11.0503867"><ele>347.0</ele><time>2026-04-25T15:01:53.725Z</time></trkpt><trkpt lat="43.3094083" lon="11.0502483"><ele>347.0</ele><time>2026-04-25T15:01:54.724Z</time></trkpt><trkpt lat="43.3095583" lon="11.050145"><ele>347.0</ele><time>2026-04-25T15:01:55.725Z</time></trkpt><trkpt lat="43.3097283" lon="11.05006"><ele>347.0</ele><time>2026-04-25T15:01:56.724Z</time></trkpt><trkpt lat="43.3099083" lon="11.05001"><ele>346.0</ele><time>2026-04-25T15:01:57.725Z</time></trkpt><trkpt lat="43.3100967" lon="11.0499767"><ele>345.0</ele><time>2026-04-25T15:01:58.724Z</time></trkpt><trkpt lat="43.3102917" lon="11.0499667"><ele>344.0</ele><time>2026-04-25T15:01:59.724Z</time></trkpt><trkpt lat="43.3104933" lon="11.04996"><ele>343.33333333333337</ele><time>2026-04-25T15:02:00.723Z</time></trkpt><trkpt lat="43.3106917" lon="11.0499433"><ele>342.6666666666667</ele><time>2026-04-25T15:02:01.725Z</time></trkpt><trkpt lat="43.31088" lon="11.049915"><ele>342.0</ele><time>2026-04-25T15:02:02.724Z</time></trkpt><trkpt lat="43.3110617" lon="11.0498917"><ele>342.0</ele><time>2026-04-25T15:02:03.725Z</time></trkpt><trkpt lat="43.3112233" lon="11.0498233"><ele>342.0</ele><time>2026-04-25T15:02:04.723Z</time></trkpt><trkpt lat="43.3113667" lon="11.0497583"><ele>342.0</ele><time>2026-04-25T15:02:05.725Z</time></trkpt><trkpt lat="43.311505" lon="11.0497333"><ele>343.75</ele><time>2026-04-25T15:02:06.724Z</time></trkpt><trkpt lat="43.311635" lon="11.0497483"><ele>345.5</ele><time>2026-04-25T15:02:07.724Z</time></trkpt><trkpt lat="43.3117583" lon="11.0497933"><ele>347.25</ele><time>2026-04-25T15:02:08.725Z</time></trkpt><trkpt lat="43.311875" lon="11.0498383"><ele>349.0</ele><time>2026-04-25T15:02:09.726Z</time></trkpt><trkpt lat="43.312" lon="11.049865"><ele>349.0</ele><time>2026-04-25T15:02:10.723Z</time></trkpt><trkpt lat="43.3121283" lon="11.0498717"><ele>349.0</ele><time>2026-04-25T15:02:11.725Z</time></trkpt><trkpt lat="43.3122617" lon="11.049845"><ele>349.0</ele><time>2026-04-25T15:02:12.725Z</time></trkpt><trkpt lat="43.3124083" lon="11.0497883"><ele>349.0</ele><time>2026-04-25T15:02:13.725Z</time></trkpt><trkpt lat="43.3125733" lon="11.0497183"><ele>349.66666666666663</ele><time>2026-04-25T15:02:14.724Z</time></trkpt><trkpt lat="43.312755" lon="11.0496483"><ele>350.3333333333333</ele><time>2026-04-25T15:02:15.727Z</time></trkpt><trkpt lat="43.3129417" lon="11.0495783"><ele>351.0</ele><time>2026-04-25T15:02:16.724Z</time></trkpt><trkpt lat="43.3131233" lon="11.0494983"><ele>348.6666666666667</ele><time>2026-04-25T15:02:17.724Z</time></trkpt><trkpt lat="43.31331" lon="11.0494183"><ele>346.33333333333337</ele><time>2026-04-25T15:02:18.724Z</time></trkpt><trkpt lat="43.3135017" lon="11.0493433"><ele>344.0</ele><time>2026-04-25T15:02:19.724Z</time></trkpt><trkpt lat="43.313695" lon="11.049275"><ele>344.0</ele><time>2026-04-25T15:02:20.725Z</time></trkpt><trkpt lat="43.3138967" lon="11.0492183"><ele>344.0</ele><time>2026-04-25T15:02:21.724Z</time></trkpt><trkpt lat="43.3141033" lon="11.0491867"><ele>344.0</ele><time>2026-04-25T15:02:22.725Z</time></trkpt><trkpt lat="43.3143133" lon="11.0491733"><ele>344.0</ele><time>2026-04-25T15:02:23.725Z</time></trkpt><trkpt lat="43.3145233" lon="11.04917"><ele>344.0</ele><time>2026-04-25T15:02:24.724Z</time></trkpt><trkpt lat="43.3147283" lon="11.0491667"><ele>344.0</ele><time>2026-04-25T15:02:25.723Z</time></trkpt><trkpt lat="43.3149233" lon="11.0491633"><ele>344.0</ele><time>2026-04-25T15:02:26.724Z</time></trkpt><trkpt lat="43.31511" lon="11.0491617"><ele>344.0</ele><time>2026-04-25T15:02:27.725Z</time></trkpt><trkpt lat="43.315285" lon="11.0491567"><ele>344.0</ele><time>2026-04-25T15:02:28.725Z</time></trkpt><trkpt lat="43.3154483" lon="11.0491683"><ele>340.33333333333337</ele><time>2026-04-25T15:02:29.725Z</time></trkpt><trkpt lat="43.3155967" lon="11.049215"><ele>336.6666666666667</ele><time>2026-04-25T15:02:30.725Z</time></trkpt><trkpt lat="43.3157283" lon="11.049325"><ele>333.0</ele><time>2026-04-25T15:02:31.724Z</time></trkpt><trkpt lat="43.315845" lon="11.049495"><ele>333.0</ele><time>2026-04-25T15:02:32.725Z</time></trkpt><trkpt lat="43.31595" lon="11.0496733"><ele>333.0</ele><time>2026-04-25T15:02:33.724Z</time></trkpt><trkpt lat="43.31605" lon="11.0498467"><ele>333.0</ele><time>2026-04-25T15:02:34.723Z</time></trkpt><trkpt lat="43.316165" lon="11.0499783"><ele>333.6666666666667</ele><time>2026-04-25T15:02:35.724Z</time></trkpt><trkpt lat="43.3163033" lon="11.0500683"><ele>334.33333333333337</ele><time>2026-04-25T15:02:36.725Z</time></trkpt><trkpt lat="43.31647" lon="11.050105"><ele>335.0</ele><time>2026-04-25T15:02:37.723Z</time></trkpt><trkpt lat="43.3166583" lon="11.0501333"><ele>335.0</ele><time>2026-04-25T15:02:38.724Z</time></trkpt><trkpt lat="43.31686" lon="11.05017"><ele>335.0</ele><time>2026-04-25T15:02:39.725Z</time></trkpt><trkpt lat="43.3170667" lon="11.0502167"><ele>335.0</ele><time>2026-04-25T15:02:40.725Z</time></trkpt><trkpt lat="43.3172767" lon="11.050265"><ele>332.6666666666667</ele><time>2026-04-25T15:02:41.725Z</time></trkpt><trkpt lat="43.31749" lon="11.050315"><ele>330.3333333333333</ele><time>2026-04-25T15:02:42.725Z</time></trkpt><trkpt lat="43.3177017" lon="11.0503667"><ele>328.0</ele><time>2026-04-25T15:02:43.724Z</time></trkpt><trkpt lat="43.3179033" lon="11.050405"><ele>328.0</ele><time>2026-04-25T15:02:44.725Z</time></trkpt><trkpt lat="43.3180917" lon="11.0504317"><ele>328.0</ele><time>2026-04-25T15:02:45.725Z</time></trkpt><trkpt lat="43.3182667" lon="11.0504267"><ele>328.0</ele><time>2026-04-25T15:02:46.724Z</time></trkpt><trkpt lat="43.31842" lon="11.0503667"><ele>328.0</ele><time>2026-04-25T15:02:47.726Z</time></trkpt><trkpt lat="43.31856" lon="11.0502633"><ele>328.0</ele><time>2026-04-25T15:02:48.725Z</time></trkpt><trkpt lat="43.318685" lon="11.0501117"><ele>328.0</ele><time>2026-04-25T15:02:49.725Z</time></trkpt><trkpt lat="43.3187917" lon="11.0498933"><ele>328.3333333333333</ele><time>2026-04-25T15:02:50.725Z</time></trkpt><trkpt lat="43.3189033" lon="11.049655"><ele>328.6666666666667</ele><time>2026-04-25T15:02:51.724Z</time></trkpt><trkpt lat="43.3190183" lon="11.049415"><ele>329.0</ele><time>2026-04-25T15:02:52.724Z</time></trkpt><trkpt lat="43.3191233" lon="11.0491867"><ele>328.33333333333337</ele><time>2026-04-25T15:02:53.723Z</time></trkpt><trkpt lat="43.3192217" lon="11.0489783"><ele>327.6666666666667</ele><time>2026-04-25T15:02:54.723Z</time></trkpt><trkpt lat="43.31932" lon="11.04879"><ele>327.0</ele><time>2026-04-25T15:02:55.724Z</time></trkpt><trkpt lat="43.3194383" lon="11.04863"><ele>327.0</ele><time>2026-04-25T15:02:56.724Z</time></trkpt><trkpt lat="43.3195817" lon="11.0485033"><ele>327.0</ele><time>2026-04-25T15:02:57.723Z</time></trkpt><trkpt lat="43.319735" lon="11.0484033"><ele>327.0</ele><time>2026-04-25T15:02:58.727Z</time></trkpt><trkpt lat="43.3198833" lon="11.0482983"><ele>323.6666666666667</ele><time>2026-04-25T15:02:59.725Z</time></trkpt><trkpt lat="43.3200133" lon="11.048155"><ele>320.33333333333337</ele><time>2026-04-25T15:03:00.725Z</time></trkpt><trkpt lat="43.3201183" lon="11.0479633"><ele>317.0</ele><time>2026-04-25T15:03:01.724Z</time></trkpt><trkpt lat="43.3202" lon="11.0477483"><ele>317.0</ele><time>2026-04-25T15:03:02.725Z</time></trkpt><trkpt lat="43.3202833" lon="11.0475467"><ele>317.0</ele><time>2026-04-25T15:03:03.725Z</time></trkpt><trkpt lat="43.3203733" lon="11.0473633"><ele>317.0</ele><time>2026-04-25T15:03:04.723Z</time></trkpt><trkpt lat="43.320475" lon="11.0472"><ele>313.5</ele><time>2026-04-25T15:03:05.724Z</time></trkpt><trkpt lat="43.3205883" lon="11.04707"><ele>310.0</ele><time>2026-04-25T15:03:06.724Z</time></trkpt><trkpt lat="43.320725" lon="11.0469983"><ele>306.5</ele><time>2026-04-25T15:03:07.724Z</time></trkpt><trkpt lat="43.320865" lon="11.04698"><ele>303.0</ele><time>2026-04-25T15:03:08.725Z</time></trkpt><trkpt lat="43.3210083" lon="11.047025"><ele>303.0</ele><time>2026-04-25T15:03:09.724Z</time></trkpt><trkpt lat="43.3211433" lon="11.0471217"><ele>303.0</ele><time>2026-04-25T15:03:10.724Z</time></trkpt><trkpt lat="43.321285" lon="11.0472517"><ele>303.0</ele><time>2026-04-25T15:03:11.725Z</time></trkpt><trkpt lat="43.3214317" lon="11.047405"><ele>304.3333333333333</ele><time>2026-04-25T15:03:12.724Z</time></trkpt><trkpt lat="43.3215733" lon="11.047585"><ele>305.66666666666663</ele><time>2026-04-25T15:03:13.725Z</time></trkpt><trkpt lat="43.3217083" lon="11.0477783"><ele>307.0</ele><time>2026-04-25T15:03:14.725Z</time></trkpt><trkpt lat="43.321835" lon="11.0479783"><ele>307.0</ele><time>2026-04-25T15:03:15.725Z</time></trkpt><trkpt lat="43.321955" lon="11.0481833"><ele>307.0</ele><time>2026-04-25T15:03:16.724Z</time></trkpt><trkpt lat="43.3220583" lon="11.0484017"><ele>307.0</ele><time>2026-04-25T15:03:17.724Z</time></trkpt><trkpt lat="43.3221483" lon="11.0486217"><ele>308.3333333333333</ele><time>2026-04-25T15:03:18.723Z</time></trkpt><trkpt lat="43.32223" lon="11.0488433"><ele>309.6666666666667</ele><time>2026-04-25T15:03:19.725Z</time></trkpt><trkpt lat="43.3223" lon="11.0490617"><ele>311.0</ele><time>2026-04-25T15:03:20.728Z</time></trkpt><trkpt lat="43.3223517" lon="11.0492717"><ele>306.33333333333337</ele><time>2026-04-25T15:03:21.725Z</time></trkpt><trkpt lat="43.3223683" lon="11.04948"><ele>301.6666666666667</ele><time>2026-04-25T15:03:22.727Z</time></trkpt><trkpt lat="43.3223433" lon="11.0496933"><ele>297.0</ele><time>2026-04-25T15:03:23.724Z</time></trkpt><trkpt lat="43.3222867" lon="11.049915"><ele>298.6666666666667</ele><time>2026-04-25T15:03:24.726Z</time></trkpt><trkpt lat="43.3222183" lon="11.0501533"><ele>300.33333333333337</ele><time>2026-04-25T15:03:25.725Z</time></trkpt><trkpt lat="43.322145" lon="11.0504067"><ele>302.0</ele><time>2026-04-25T15:03:26.724Z</time></trkpt><trkpt lat="43.32207" lon="11.0506567"><ele>298.33333333333337</ele><time>2026-04-25T15:03:27.725Z</time></trkpt><trkpt lat="43.322" lon="11.050885"><ele>294.6666666666667</ele><time>2026-04-25T15:03:28.727Z</time></trkpt><trkpt lat="43.32195" lon="11.05109"><ele>291.0</ele><time>2026-04-25T15:03:29.726Z</time></trkpt><trkpt lat="43.3219283" lon="11.05128"><ele>291.0</ele><time>2026-04-25T15:03:30.725Z</time></trkpt><trkpt lat="43.3219533" lon="11.0514583"><ele>291.0</ele><time>2026-04-25T15:03:31.725Z</time></trkpt><trkpt lat="43.322025" lon="11.0516167"><ele>291.0</ele><time>2026-04-25T15:03:32.725Z</time></trkpt><trkpt lat="43.3221267" lon="11.0517533"><ele>291.0</ele><time>2026-04-25T15:03:33.725Z</time></trkpt><trkpt lat="43.322275" lon="11.0518633"><ele>287.3333333333333</ele><time>2026-04-25T15:03:34.726Z</time></trkpt><trkpt lat="43.3224517" lon="11.05196"><ele>283.66666666666663</ele><time>2026-04-25T15:03:35.726Z</time></trkpt><trkpt lat="43.3226417" lon="11.0520683"><ele>280.0</ele><time>2026-04-25T15:03:36.724Z</time></trkpt><trkpt lat="43.3228417" lon="11.0521933"><ele>280.0</ele><time>2026-04-25T15:03:37.723Z</time></trkpt><trkpt lat="43.323045" lon="11.0523183"><ele>280.0</ele><time>2026-04-25T15:03:38.725Z</time></trkpt><trkpt lat="43.3232533" lon="11.0524417"><ele>276.66666666666663</ele><time>2026-04-25T15:03:39.725Z</time></trkpt><trkpt lat="43.32346" lon="11.0525717"><ele>273.3333333333333</ele><time>2026-04-25T15:03:40.725Z</time></trkpt><trkpt lat="43.3236517" lon="11.052715"><ele>270.0</ele><time>2026-04-25T15:03:41.725Z</time></trkpt><trkpt lat="43.323825" lon="11.0528967"><ele>269.0</ele><time>2026-04-25T15:03:42.724Z</time></trkpt><trkpt lat="43.3239817" lon="11.053125"><ele>268.0</ele><time>2026-04-25T15:03:43.726Z</time></trkpt><trkpt lat="43.324125" lon="11.0533767"><ele>268.0</ele><time>2026-04-25T15:03:44.725Z</time></trkpt><trkpt lat="43.3242683" lon="11.0536317"><ele>268.0</ele><time>2026-04-25T15:03:45.724Z</time></trkpt><trkpt lat="43.324415" lon="11.053885"><ele>267.0</ele><time>2026-04-25T15:03:46.723Z</time></trkpt><trkpt lat="43.3245533" lon="11.0541333"><ele>266.0</ele><time>2026-04-25T15:03:47.725Z</time></trkpt><trkpt lat="43.324685" lon="11.0543667"><ele>265.0</ele><time>2026-04-25T15:03:48.724Z</time></trkpt><trkpt lat="43.324815" lon="11.0545767"><ele>265.0</ele><time>2026-04-25T15:03:49.725Z</time></trkpt><trkpt lat="43.3249633" lon="11.0547567"><ele>265.0</ele><time>2026-04-25T15:03:50.726Z</time></trkpt><trkpt lat="43.3251383" lon="11.0549"><ele>265.0</ele><time>2026-04-25T15:03:51.725Z</time></trkpt><trkpt lat="43.3253317" lon="11.0550117"><ele>264.66666666666663</ele><time>2026-04-25T15:03:52.724Z</time></trkpt><trkpt lat="43.3255383" lon="11.0551183"><ele>264.3333333333333</ele><time>2026-04-25T15:03:53.725Z</time></trkpt><trkpt lat="43.32574" lon="11.055215"><ele>264.0</ele><time>2026-04-25T15:03:54.726Z</time></trkpt><trkpt lat="43.325935" lon="11.0552833"><ele>264.0</ele><time>2026-04-25T15:03:55.725Z</time></trkpt><trkpt lat="43.3261267" lon="11.0553117"><ele>264.0</ele><time>2026-04-25T15:03:56.725Z</time></trkpt><trkpt lat="43.3263183" lon="11.0552967"><ele>264.0</ele><time>2026-04-25T15:03:57.724Z</time></trkpt><trkpt lat="43.3265117" lon="11.05526"><ele>263.0</ele><time>2026-04-25T15:03:58.723Z</time></trkpt><trkpt lat="43.3267033" lon="11.0552117"><ele>262.0</ele><time>2026-04-25T15:03:59.724Z</time></trkpt><trkpt lat="43.3268967" lon="11.0551867"><ele>261.0</ele><time>2026-04-25T15:04:00.724Z</time></trkpt><trkpt lat="43.327095" lon="11.05517"><ele>260.6666666666667</ele><time>2026-04-25T15:04:01.724Z</time></trkpt><trkpt lat="43.3272867" lon="11.055155"><ele>260.33333333333337</ele><time>2026-04-25T15:04:02.725Z</time></trkpt><trkpt lat="43.3274717" lon="11.0551367"><ele>260.0</ele><time>2026-04-25T15:04:03.723Z</time></trkpt><trkpt lat="43.327655" lon="11.0551167"><ele>260.0</ele><time>2026-04-25T15:04:04.724Z</time></trkpt><trkpt lat="43.3278417" lon="11.055105"><ele>260.0</ele><time>2026-04-25T15:04:05.723Z</time></trkpt><trkpt lat="43.3280267" lon="11.05509"><ele>260.0</ele><time>2026-04-25T15:04:06.723Z</time></trkpt><trkpt lat="43.3282133" lon="11.05509"><ele>259.33333333333337</ele><time>2026-04-25T15:04:07.724Z</time></trkpt><trkpt lat="43.3284" lon="11.055105"><ele>258.6666666666667</ele><time>2026-04-25T15:04:08.724Z</time></trkpt><trkpt lat="43.3285817" lon="11.0551333"><ele>258.0</ele><time>2026-04-25T15:04:09.724Z</time></trkpt><trkpt lat="43.3287567" lon="11.0551683"><ele>256.6666666666667</ele><time>2026-04-25T15:04:10.724Z</time></trkpt><trkpt lat="43.32892" lon="11.0552083"><ele>255.33333333333334</ele><time>2026-04-25T15:04:11.724Z</time></trkpt><trkpt lat="43.3290717" lon="11.0552483"><ele>254.0</ele><time>2026-04-25T15:04:12.724Z</time></trkpt><trkpt lat="43.3292133" lon="11.0552967"><ele>254.0</ele><time>2026-04-25T15:04:13.723Z</time></trkpt><trkpt lat="43.3293483" lon="11.05536"><ele>254.0</ele><time>2026-04-25T15:04:14.723Z</time></trkpt><trkpt lat="43.3294767" lon="11.055455"><ele>254.0</ele><time>2026-04-25T15:04:15.722Z</time></trkpt><trkpt lat="43.329595" lon="11.0555667"><ele>254.0</ele><time>2026-04-25T15:04:16.726Z</time></trkpt><trkpt lat="43.3297083" lon="11.0556667"><ele>253.25</ele><time>2026-04-25T15:04:17.724Z</time></trkpt><trkpt lat="43.32982" lon="11.05573"><ele>252.5</ele><time>2026-04-25T15:04:18.724Z</time></trkpt><trkpt lat="43.329935" lon="11.055755"><ele>251.75</ele><time>2026-04-25T15:04:19.724Z</time></trkpt><trkpt lat="43.330055" lon="11.0557433"><ele>251.0</ele><time>2026-04-25T15:04:20.724Z</time></trkpt><trkpt lat="43.3301767" lon="11.0556967"><ele>251.0</ele><time>2026-04-25T15:04:21.723Z</time></trkpt><trkpt lat="43.3303067" lon="11.0556033"><ele>251.0</ele><time>2026-04-25T15:04:22.724Z</time></trkpt><trkpt lat="43.3304367" lon="11.0554717"><ele>251.0</ele><time>2026-04-25T15:04:23.724Z</time></trkpt><trkpt lat="43.3305833" lon="11.0553233"><ele>252.0</ele><time>2026-04-25T15:04:24.724Z</time></trkpt><trkpt lat="43.33074" lon="11.05517"><ele>253.0</ele><time>2026-04-25T15:04:25.724Z</time></trkpt><trkpt lat="43.3308983" lon="11.0550183"><ele>254.0</ele><time>2026-04-25T15:04:26.724Z</time></trkpt><trkpt lat="43.331045" lon="11.054865"><ele>254.66666666666669</ele><time>2026-04-25T15:04:27.724Z</time></trkpt><trkpt lat="43.3311767" lon="11.0547267"><ele>255.33333333333331</ele><time>2026-04-25T15:04:28.725Z</time></trkpt><trkpt lat="43.3312833" lon="11.0545883"><ele>256.0</ele><time>2026-04-25T15:04:29.723Z</time></trkpt><trkpt lat="43.3313583" lon="11.054425"><ele>256.0</ele><time>2026-04-25T15:04:30.724Z</time></trkpt><trkpt lat="43.3313883" lon="11.054225"><ele>256.0</ele><time>2026-04-25T15:04:31.723Z</time></trkpt><trkpt lat="43.3313733" lon="11.05402"><ele>256.0</ele><time>2026-04-25T15:04:32.723Z</time></trkpt><trkpt lat="43.3313017" lon="11.0538283"><ele>257.75</ele><time>2026-04-25T15:04:33.724Z</time></trkpt><trkpt lat="43.3312" lon="11.053665"><ele>259.5</ele><time>2026-04-25T15:04:34.723Z</time></trkpt><trkpt lat="43.3311017" lon="11.0535167"><ele>261.25</ele><time>2026-04-25T15:04:35.724Z</time></trkpt><trkpt lat="43.3310183" lon="11.05337"><ele>263.0</ele><time>2026-04-25T15:04:36.725Z</time></trkpt><trkpt lat="43.33095" lon="11.0532117"><ele>265.0</ele><time>2026-04-25T15:04:37.724Z</time></trkpt><trkpt lat="43.3308983" lon="11.05304"><ele>267.0</ele><time>2026-04-25T15:04:38.724Z</time></trkpt><trkpt lat="43.3308583" lon="11.05285"><ele>269.0</ele><time>2026-04-25T15:04:39.723Z</time></trkpt><trkpt lat="43.3308283" lon="11.0526617"><ele>271.0</ele><time>2026-04-25T15:04:40.725Z</time></trkpt><trkpt lat="43.3308183" lon="11.052485"><ele>271.75</ele><time>2026-04-25T15:04:41.724Z</time></trkpt><trkpt lat="43.3308367" lon="11.0523133"><ele>272.5</ele><time>2026-04-25T15:04:42.723Z</time></trkpt><trkpt lat="43.330895" lon="11.0521667"><ele>273.25</ele><time>2026-04-25T15:04:43.724Z</time></trkpt><trkpt lat="43.3309833" lon="11.0520583"><ele>274.0</ele><time>2026-04-25T15:04:44.724Z</time></trkpt><trkpt lat="43.3311" lon="11.0519967"><ele>274.0</ele><time>2026-04-25T15:04:45.724Z</time></trkpt><trkpt lat="43.3312383" lon="11.0519867"><ele>274.0</ele><time>2026-04-25T15:04:46.724Z</time></trkpt><trkpt lat="43.33139" lon="11.0520333"><ele>274.0</ele><time>2026-04-25T15:04:47.724Z</time></trkpt><trkpt lat="43.3315667" lon="11.0521333"><ele>275.66666666666663</ele><time>2026-04-25T15:04:48.724Z</time></trkpt><trkpt lat="43.331755" lon="11.05226"><ele>277.3333333333333</ele><time>2026-04-25T15:04:49.724Z</time></trkpt><trkpt lat="43.3319317" lon="11.0523883"><ele>279.0</ele><time>2026-04-25T15:04:50.723Z</time></trkpt><trkpt lat="43.3320983" lon="11.0524967"><ele>282.0</ele><time>2026-04-25T15:04:51.724Z</time></trkpt><trkpt lat="43.3322633" lon="11.0525767"><ele>285.0</ele><time>2026-04-25T15:04:52.723Z</time></trkpt><trkpt lat="43.3324433" lon="11.052625"><ele>288.0</ele><time>2026-04-25T15:04:53.724Z</time></trkpt><trkpt lat="43.3326283" lon="11.0526333"><ele>288.0</ele><time>2026-04-25T15:04:54.724Z</time></trkpt><trkpt lat="43.332815" lon="11.0526283"><ele>288.0</ele><time>2026-04-25T15:04:55.724Z</time></trkpt><trkpt lat="43.3329917" lon="11.05263"><ele>288.0</ele><time>2026-04-25T15:04:56.725Z</time></trkpt><trkpt lat="43.3331583" lon="11.05266"><ele>289.75</ele><time>2026-04-25T15:04:57.723Z</time></trkpt><trkpt lat="43.3333033" lon="11.05272"><ele>291.5</ele><time>2026-04-25T15:04:58.724Z</time></trkpt><trkpt lat="43.3334367" lon="11.0527883"><ele>293.25</ele><time>2026-04-25T15:04:59.726Z</time></trkpt><trkpt lat="43.333575" lon="11.0528533"><ele>295.0</ele><time>2026-04-25T15:05:00.724Z</time></trkpt><trkpt lat="43.3337183" lon="11.05289"><ele>295.0</ele><time>2026-04-25T15:05:01.724Z</time></trkpt><trkpt lat="43.33386" lon="11.052905"><ele>295.0</ele><time>2026-04-25T15:05:02.724Z</time></trkpt><trkpt lat="43.33399" lon="11.05291"><ele>295.0</ele><time>2026-04-25T15:05:03.724Z</time></trkpt><trkpt lat="43.3341167" lon="11.052915"><ele>295.0</ele><time>2026-04-25T15:05:04.724Z</time></trkpt><trkpt lat="43.3342417" lon="11.0529067"><ele>296.5</ele><time>2026-04-25T15:05:05.724Z</time></trkpt><trkpt lat="43.3343567" lon="11.052865"><ele>298.0</ele><time>2026-04-25T15:05:06.724Z</time></trkpt><trkpt lat="43.334455" lon="11.0527767"><ele>299.5</ele><time>2026-04-25T15:05:07.723Z</time></trkpt><trkpt lat="43.334525" lon="11.05265"><ele>301.0</ele><time>2026-04-25T15:05:08.725Z</time></trkpt><trkpt lat="43.3345617" lon="11.0525"><ele>302.25</ele><time>2026-04-25T15:05:09.728Z</time></trkpt><trkpt lat="43.3345683" lon="11.0523333"><ele>303.5</ele><time>2026-04-25T15:05:10.724Z</time></trkpt><trkpt lat="43.334565" lon="11.052155"><ele>304.75</ele><time>2026-04-25T15:05:11.723Z</time></trkpt><trkpt lat="43.33456" lon="11.05198"><ele>306.0</ele><time>2026-04-25T15:05:12.724Z</time></trkpt><trkpt lat="43.3345783" lon="11.0518133"><ele>306.0</ele><time>2026-04-25T15:05:13.724Z</time></trkpt><trkpt lat="43.3346233" lon="11.0516567"><ele>306.0</ele><time>2026-04-25T15:05:14.724Z</time></trkpt><trkpt lat="43.3346783" lon="11.0515067"><ele>306.0</ele><time>2026-04-25T15:05:15.723Z</time></trkpt><trkpt lat="43.334725" lon="11.0513567"><ele>306.0</ele><time>2026-04-25T15:05:16.723Z</time></trkpt><trkpt lat="43.334755" lon="11.051205"><ele>306.25</ele><time>2026-04-25T15:05:17.725Z</time></trkpt><trkpt lat="43.3347683" lon="11.051045"><ele>306.5</ele><time>2026-04-25T15:05:18.724Z</time></trkpt><trkpt lat="43.3347533" lon="11.0508817"><ele>306.75</ele><time>2026-04-25T15:05:19.724Z</time></trkpt><trkpt lat="43.3347" lon="11.0507217"><ele>307.0</ele><time>2026-04-25T15:05:20.724Z</time></trkpt><trkpt lat="43.334615" lon="11.050565"><ele>310.0</ele><time>2026-04-25T15:05:21.725Z</time></trkpt><trkpt lat="43.3345017" lon="11.05038"><ele>313.0</ele><time>2026-04-25T15:05:22.724Z</time></trkpt><trkpt lat="43.3343917" lon="11.05018"><ele>316.0</ele><time>2026-04-25T15:05:23.725Z</time></trkpt><trkpt lat="43.3342917" lon="11.049985"><ele>316.3333333333333</ele><time>2026-04-25T15:05:24.724Z</time></trkpt><trkpt lat="43.334205" lon="11.0498033"><ele>316.6666666666667</ele><time>2026-04-25T15:05:25.724Z</time></trkpt><trkpt lat="43.334135" lon="11.0496083"><ele>317.0</ele><time>2026-04-25T15:05:26.724Z</time></trkpt><trkpt lat="43.3340917" lon="11.0494067"><ele>317.0</ele><time>2026-04-25T15:05:27.723Z</time></trkpt><trkpt lat="43.334075" lon="11.0491983"><ele>317.0</ele><time>2026-04-25T15:05:28.724Z</time></trkpt><trkpt lat="43.33408" lon="11.0489967"><ele>317.0</ele><time>2026-04-25T15:05:29.725Z</time></trkpt><trkpt lat="43.3340817" lon="11.0488033"><ele>317.0</ele><time>2026-04-25T15:05:30.724Z</time></trkpt><trkpt lat="43.3340767" lon="11.0486067"><ele>317.0</ele><time>2026-04-25T15:05:31.724Z</time></trkpt><trkpt lat="43.33407" lon="11.0484017"><ele>317.0</ele><time>2026-04-25T15:05:32.724Z</time></trkpt><trkpt lat="43.33406" lon="11.0482067"><ele>317.0</ele><time>2026-04-25T15:05:33.724Z</time></trkpt><trkpt lat="43.3340233" lon="11.04801"><ele>317.0</ele><time>2026-04-25T15:05:34.724Z</time></trkpt><trkpt lat="43.3339633" lon="11.0478167"><ele>317.75</ele><time>2026-04-25T15:05:35.724Z</time></trkpt><trkpt lat="43.3338867" lon="11.04763"><ele>318.5</ele><time>2026-04-25T15:05:36.723Z</time></trkpt><trkpt lat="43.3338083" lon="11.0474617"><ele>319.25</ele><time>2026-04-25T15:05:37.724Z</time></trkpt><trkpt lat="43.333745" lon="11.0472933"><ele>320.0</ele><time>2026-04-25T15:05:38.723Z</time></trkpt><trkpt lat="43.3337033" lon="11.0471067"><ele>320.0</ele><time>2026-04-25T15:05:39.725Z</time></trkpt><trkpt lat="43.3336917" lon="11.04691"><ele>320.0</ele><time>2026-04-25T15:05:40.723Z</time></trkpt><trkpt lat="43.3337117" lon="11.0467083"><ele>320.0</ele><time>2026-04-25T15:05:41.724Z</time></trkpt><trkpt lat="43.3337533" lon="11.046515"><ele>320.0</ele><time>2026-04-25T15:05:42.724Z</time></trkpt><trkpt lat="43.3338133" lon="11.0463333"><ele>319.5</ele><time>2026-04-25T15:05:43.724Z</time></trkpt><trkpt lat="43.333895" lon="11.04617"><ele>319.0</ele><time>2026-04-25T15:05:44.724Z</time></trkpt><trkpt lat="43.3340017" lon="11.0460417"><ele>318.5</ele><time>2026-04-25T15:05:45.723Z</time></trkpt><trkpt lat="43.334125" lon="11.0459483"><ele>318.0</ele><time>2026-04-25T15:05:46.724Z</time></trkpt><trkpt lat="43.334265" lon="11.0458783"><ele>318.0</ele><time>2026-04-25T15:05:47.724Z</time></trkpt><trkpt lat="43.3344133" lon="11.0458167"><ele>318.0</ele><time>2026-04-25T15:05:48.725Z</time></trkpt><trkpt lat="43.3345683" lon="11.0457567"><ele>318.0</ele><time>2026-04-25T15:05:49.724Z</time></trkpt><trkpt lat="43.3347317" lon="11.045695"><ele>319.0</ele><time>2026-04-25T15:05:50.724Z</time></trkpt><trkpt lat="43.3349033" lon="11.0456283"><ele>320.0</ele><time>2026-04-25T15:05:51.724Z</time></trkpt><trkpt lat="43.3350883" lon="11.0455467"><ele>321.0</ele><time>2026-04-25T15:05:52.724Z</time></trkpt><trkpt lat="43.3352933" lon="11.0454567"><ele>321.0</ele><time>2026-04-25T15:05:53.724Z</time></trkpt><trkpt lat="43.3355167" lon="11.0453683"><ele>321.0</ele><time>2026-04-25T15:05:54.724Z</time></trkpt><trkpt lat="43.3357517" lon="11.0452867"><ele>325.0</ele><time>2026-04-25T15:05:55.724Z</time></trkpt><trkpt lat="43.3359867" lon="11.0452017"><ele>329.0</ele><time>2026-04-25T15:05:56.724Z</time></trkpt><trkpt lat="43.3362183" lon="11.0451167"><ele>327.0</ele><time>2026-04-25T15:05:57.724Z</time></trkpt><trkpt lat="43.3364417" lon="11.0450317"><ele>325.0</ele><time>2026-04-25T15:05:58.724Z</time></trkpt><trkpt lat="43.336665" lon="11.0449467"><ele>325.0</ele><time>2026-04-25T15:05:59.724Z</time></trkpt><trkpt lat="43.3368883" lon="11.0448617"><ele>325.0</ele><time>2026-04-25T15:06:00.723Z</time></trkpt><trkpt lat="43.3371083" lon="11.0447767"><ele>334.0</ele><time>2026-04-25T15:06:01.822Z</time></trkpt><trkpt lat="43.3373283" lon="11.044695"><ele>343.0</ele><time>2026-04-25T15:06:02.725Z</time></trkpt><trkpt lat="43.3375483" lon="11.04462"><ele>343.0</ele><time>2026-04-25T15:06:03.724Z</time></trkpt><trkpt lat="43.3377517" lon="11.0445467"><ele>343.0</ele><time>2026-04-25T15:06:04.723Z</time></trkpt><trkpt lat="43.337935" lon="11.0444833"><ele>343.0</ele><time>2026-04-25T15:06:05.723Z</time></trkpt><trkpt lat="43.3381017" lon="11.0444433"><ele>347.3333333333333</ele><time>2026-04-25T15:06:06.724Z</time></trkpt><trkpt lat="43.3382617" lon="11.0444583"><ele>351.6666666666667</ele><time>2026-04-25T15:06:07.724Z</time></trkpt><trkpt lat="43.3384217" lon="11.044525"><ele>356.0</ele><time>2026-04-25T15:06:08.725Z</time></trkpt><trkpt lat="43.3385833" lon="11.0446367"><ele>356.0</ele><time>2026-04-25T15:06:09.724Z</time></trkpt><trkpt lat="43.33875" lon="11.0447517"><ele>356.0</ele><time>2026-04-25T15:06:10.722Z</time></trkpt><trkpt lat="43.338915" lon="11.0448817"><ele>356.0</ele><time>2026-04-25T15:06:11.724Z</time></trkpt><trkpt lat="43.3390767" lon="11.04505"><ele>358.0</ele><time>2026-04-25T15:06:12.724Z</time></trkpt><trkpt lat="43.3392217" lon="11.0452417"><ele>360.0</ele><time>2026-04-25T15:06:13.724Z</time></trkpt><trkpt lat="43.3393567" lon="11.04544"><ele>362.0</ele><time>2026-04-25T15:06:14.723Z</time></trkpt><trkpt lat="43.3394817" lon="11.0456417"><ele>359.33333333333337</ele><time>2026-04-25T15:06:15.724Z</time></trkpt><trkpt lat="43.3396" lon="11.0458333"><ele>356.6666666666667</ele><time>2026-04-25T15:06:16.723Z</time></trkpt><trkpt lat="43.3397117" lon="11.0460217"><ele>354.0</ele><time>2026-04-25T15:06:17.723Z</time></trkpt><trkpt lat="43.3398183" lon="11.0461983"><ele>359.0</ele><time>2026-04-25T15:06:18.722Z</time></trkpt><trkpt lat="43.339915" lon="11.0463717"><ele>364.0</ele><time>2026-04-25T15:06:19.723Z</time></trkpt><trkpt lat="43.34001" lon="11.0465367"><ele>369.0</ele><time>2026-04-25T15:06:20.726Z</time></trkpt><trkpt lat="43.3401117" lon="11.0466933"><ele>369.0</ele><time>2026-04-25T15:06:21.723Z</time></trkpt><trkpt lat="43.3402083" lon="11.0468417"><ele>369.0</ele><time>2026-04-25T15:06:22.724Z</time></trkpt><trkpt lat="43.3403017" lon="11.0469867"><ele>369.0</ele><time>2026-04-25T15:06:23.725Z</time></trkpt><trkpt lat="43.3403817" lon="11.04715"><ele>369.0</ele><time>2026-04-25T15:06:24.723Z</time></trkpt><trkpt lat="43.3404433" lon="11.04734"><ele>369.6666666666667</ele><time>2026-04-25T15:06:25.724Z</time></trkpt><trkpt lat="43.3404883" lon="11.047545"><ele>370.33333333333337</ele><time>2026-04-25T15:06:26.724Z</time></trkpt><trkpt lat="43.3405233" lon="11.0477567"><ele>371.0</ele><time>2026-04-25T15:06:27.729Z</time></trkpt><trkpt lat="43.3405617" lon="11.0479717"><ele>371.0</ele><time>2026-04-25T15:06:28.723Z</time></trkpt><trkpt lat="43.3406017" lon="11.04819"><ele>371.0</ele><time>2026-04-25T15:06:29.725Z</time></trkpt><trkpt lat="43.3406433" lon="11.0484017"><ele>371.0</ele><time>2026-04-25T15:06:30.722Z</time></trkpt><trkpt lat="43.3406817" lon="11.0486117"><ele>372.0</ele><time>2026-04-25T15:06:31.723Z</time></trkpt><trkpt lat="43.340725" lon="11.048815"><ele>373.0</ele><time>2026-04-25T15:06:32.726Z</time></trkpt><trkpt lat="43.3407867" lon="11.049005"><ele>374.0</ele><time>2026-04-25T15:06:33.724Z</time></trkpt><trkpt lat="43.340865" lon="11.0491883"><ele>375.0</ele><time>2026-04-25T15:06:34.724Z</time></trkpt><trkpt lat="43.3409517" lon="11.04937"><ele>376.0</ele><time>2026-04-25T15:06:35.723Z</time></trkpt><trkpt lat="43.3410383" lon="11.0495567"><ele>377.0</ele><time>2026-04-25T15:06:36.724Z</time></trkpt><trkpt lat="43.3411283" lon="11.0497433"><ele>377.0</ele><time>2026-04-25T15:06:37.724Z</time></trkpt><trkpt lat="43.3412183" lon="11.0499217"><ele>377.0</ele><time>2026-04-25T15:06:38.724Z</time></trkpt><trkpt lat="43.3413067" lon="11.0500967"><ele>377.0</ele><time>2026-04-25T15:06:39.723Z</time></trkpt><trkpt lat="43.3413917" lon="11.0502717"><ele>377.0</ele><time>2026-04-25T15:06:40.725Z</time></trkpt><trkpt lat="43.3414517" lon="11.0504383"><ele>377.0</ele><time>2026-04-25T15:06:41.724Z</time></trkpt><trkpt lat="43.341475" lon="11.050605"><ele>377.0</ele><time>2026-04-25T15:06:42.724Z</time></trkpt><trkpt lat="43.341455" lon="11.0507717"><ele>377.0</ele><time>2026-04-25T15:06:43.724Z</time></trkpt><trkpt lat="43.341385" lon="11.0509333"><ele>372.6666666666667</ele><time>2026-04-25T15:06:44.724Z</time></trkpt><trkpt lat="43.34129" lon="11.0510817"><ele>368.3333333333333</ele><time>2026-04-25T15:06:45.723Z</time></trkpt><trkpt lat="43.3411883" lon="11.0512417"><ele>364.0</ele><time>2026-04-25T15:06:46.723Z</time></trkpt><trkpt lat="43.3411033" lon="11.051415"><ele>364.0</ele><time>2026-04-25T15:06:47.724Z</time></trkpt><trkpt lat="43.3410317" lon="11.0516067"><ele>364.0</ele><time>2026-04-25T15:06:48.724Z</time></trkpt><trkpt lat="43.3409917" lon="11.051815"><ele>364.0</ele><time>2026-04-25T15:06:49.724Z</time></trkpt><trkpt lat="43.3409683" lon="11.05205"><ele>364.3333333333333</ele><time>2026-04-25T15:06:50.724Z</time></trkpt><trkpt lat="43.3409567" lon="11.05229"><ele>364.6666666666667</ele><time>2026-04-25T15:06:51.724Z</time></trkpt><trkpt lat="43.3409467" lon="11.052535"><ele>365.0</ele><time>2026-04-25T15:06:52.722Z</time></trkpt><trkpt lat="43.3409383" lon="11.05277"><ele>365.0</ele><time>2026-04-25T15:06:53.724Z</time></trkpt><trkpt lat="43.3409383" lon="11.0529883"><ele>365.0</ele><time>2026-04-25T15:06:54.724Z</time></trkpt><trkpt lat="43.3409533" lon="11.053205"><ele>365.0</ele><time>2026-04-25T15:06:55.723Z</time></trkpt><trkpt lat="43.341005" lon="11.0534117"><ele>363.0</ele><time>2026-04-25T15:06:56.726Z</time></trkpt><trkpt lat="43.341085" lon="11.053605"><ele>361.0</ele><time>2026-04-25T15:06:57.724Z</time></trkpt><trkpt lat="43.3411967" lon="11.05378"><ele>359.0</ele><time>2026-04-25T15:06:58.724Z</time></trkpt><trkpt lat="43.3413233" lon="11.0539383"><ele>360.33333333333337</ele><time>2026-04-25T15:06:59.723Z</time></trkpt><trkpt lat="43.3414617" lon="11.0540933"><ele>361.6666666666667</ele><time>2026-04-25T15:07:00.724Z</time></trkpt><trkpt lat="43.341605" lon="11.05425"><ele>363.0</ele><time>2026-04-25T15:07:01.724Z</time></trkpt><trkpt lat="43.3417467" lon="11.0544117"><ele>363.0</ele><time>2026-04-25T15:07:02.724Z</time></trkpt><trkpt lat="43.3418917" lon="11.054575"><ele>363.0</ele><time>2026-04-25T15:07:03.724Z</time></trkpt><trkpt lat="43.3420333" lon="11.0547333"><ele>363.0</ele><time>2026-04-25T15:07:04.723Z</time></trkpt><trkpt lat="43.3421783" lon="11.0548983"><ele>362.6666666666667</ele><time>2026-04-25T15:07:05.725Z</time></trkpt><trkpt lat="43.3423233" lon="11.055075"><ele>362.33333333333337</ele><time>2026-04-25T15:07:06.725Z</time></trkpt><trkpt lat="43.3424733" lon="11.05525"><ele>362.0</ele><time>2026-04-25T15:07:07.725Z</time></trkpt><trkpt lat="43.342625" lon="11.05544"><ele>362.0</ele><time>2026-04-25T15:07:08.724Z</time></trkpt><trkpt lat="43.3427783" lon="11.0556233"><ele>362.0</ele><time>2026-04-25T15:07:09.723Z</time></trkpt><trkpt lat="43.34293" lon="11.055795"><ele>362.0</ele><time>2026-04-25T15:07:10.724Z</time></trkpt><trkpt lat="43.3430717" lon="11.0559667"><ele>359.0</ele><time>2026-04-25T15:07:11.722Z</time></trkpt><trkpt lat="43.3432083" lon="11.05613"><ele>356.0</ele><time>2026-04-25T15:07:12.725Z</time></trkpt><trkpt lat="43.3433467" lon="11.0562717"><ele>353.0</ele><time>2026-04-25T15:07:13.725Z</time></trkpt><trkpt lat="43.3434983" lon="11.0563783"><ele>353.0</ele><time>2026-04-25T15:07:14.725Z</time></trkpt><trkpt lat="43.3436667" lon="11.0564533"><ele>353.0</ele><time>2026-04-25T15:07:15.724Z</time></trkpt><trkpt lat="43.34385" lon="11.0564983"><ele>353.0</ele><time>2026-04-25T15:07:16.723Z</time></trkpt><trkpt lat="43.3440517" lon="11.056525"><ele>352.33333333333337</ele><time>2026-04-25T15:07:17.724Z</time></trkpt><trkpt lat="43.34426" lon="11.056545"><ele>351.6666666666667</ele><time>2026-04-25T15:07:18.725Z</time></trkpt><trkpt lat="43.3444667" lon="11.0565633"><ele>351.0</ele><time>2026-04-25T15:07:19.725Z</time></trkpt><trkpt lat="43.344665" lon="11.0565883"><ele>350.3333333333333</ele><time>2026-04-25T15:07:20.724Z</time></trkpt><trkpt lat="43.344855" lon="11.056615"><ele>349.66666666666663</ele><time>2026-04-25T15:07:21.724Z</time></trkpt><trkpt lat="43.34504" lon="11.05665"><ele>349.0</ele><time>2026-04-25T15:07:22.723Z</time></trkpt><trkpt lat="43.3452217" lon="11.05671"><ele>345.0</ele><time>2026-04-25T15:07:23.725Z</time></trkpt><trkpt lat="43.3454" lon="11.0567967"><ele>341.0</ele><time>2026-04-25T15:07:24.724Z</time></trkpt><trkpt lat="43.345565" lon="11.0569067"><ele>337.0</ele><time>2026-04-25T15:07:25.724Z</time></trkpt><trkpt lat="43.3457217" lon="11.0570183"><ele>337.0</ele><time>2026-04-25T15:07:26.724Z</time></trkpt><trkpt lat="43.3458833" lon="11.057115"><ele>337.0</ele><time>2026-04-25T15:07:27.724Z</time></trkpt><trkpt lat="43.3460467" lon="11.0571683"><ele>337.0</ele><time>2026-04-25T15:07:28.725Z</time></trkpt><trkpt lat="43.3462183" lon="11.0571883"><ele>334.0</ele><time>2026-04-25T15:07:29.723Z</time></trkpt><trkpt lat="43.3463933" lon="11.0571717"><ele>331.0</ele><time>2026-04-25T15:07:30.725Z</time></trkpt><trkpt lat="43.3465717" lon="11.0571267"><ele>328.0</ele><time>2026-04-25T15:07:31.723Z</time></trkpt><trkpt lat="43.3467533" lon="11.0570217"><ele>328.0</ele><time>2026-04-25T15:07:32.725Z</time></trkpt><trkpt lat="43.3469383" lon="11.0569"><ele>328.0</ele><time>2026-04-25T15:07:33.724Z</time></trkpt><trkpt lat="43.3471233" lon="11.0567783"><ele>328.0</ele><time>2026-04-25T15:07:34.724Z</time></trkpt><trkpt lat="43.347295" lon="11.0566617"><ele>325.66666666666663</ele><time>2026-04-25T15:07:35.725Z</time></trkpt><trkpt lat="43.3474617" lon="11.05655"><ele>323.3333333333333</ele><time>2026-04-25T15:07:36.725Z</time></trkpt><trkpt lat="43.3476083" lon="11.056445"><ele>321.0</ele><time>2026-04-25T15:07:37.725Z</time></trkpt><trkpt lat="43.347735" lon="11.0563583"><ele>321.0</ele><time>2026-04-25T15:07:38.723Z</time></trkpt><trkpt lat="43.347845" lon="11.0562917"><ele>321.0</ele><time>2026-04-25T15:07:39.724Z</time></trkpt><trkpt lat="43.3479417" lon="11.056265"><ele>321.0</ele><time>2026-04-25T15:07:40.726Z</time></trkpt><trkpt lat="43.3480267" lon="11.0563117"><ele>321.0</ele><time>2026-04-25T15:07:41.724Z</time></trkpt><trkpt lat="43.3480867" lon="11.0563983"><ele>321.0</ele><time>2026-04-25T15:07:42.723Z</time></trkpt><trkpt lat="43.3481217" lon="11.0565067"><ele>319.25</ele><time>2026-04-25T15:07:43.724Z</time></trkpt><trkpt lat="43.34811" lon="11.0566267"><ele>317.5</ele><time>2026-04-25T15:07:44.725Z</time></trkpt><trkpt lat="43.34808" lon="11.05675"><ele>315.75</ele><time>2026-04-25T15:07:45.724Z</time></trkpt><trkpt lat="43.3480217" lon="11.0568867"><ele>314.0</ele><time>2026-04-25T15:07:46.724Z</time></trkpt><trkpt lat="43.3478983" lon="11.0570617"><ele>314.0</ele><time>2026-04-25T15:07:47.724Z</time></trkpt><trkpt lat="43.3477283" lon="11.0572533"><ele>314.0</ele><time>2026-04-25T15:07:48.723Z</time></trkpt><trkpt lat="43.3476067" lon="11.05741"><ele>314.0</ele><time>2026-04-25T15:07:49.724Z</time></trkpt><trkpt lat="43.3475117" lon="11.0575517"><ele>310.25</ele><time>2026-04-25T15:07:50.725Z</time></trkpt><trkpt lat="43.3474167" lon="11.0577017"><ele>306.5</ele><time>2026-04-25T15:07:51.724Z</time></trkpt><trkpt lat="43.3473883" lon="11.0578533"><ele>302.75</ele><time>2026-04-25T15:07:52.724Z</time></trkpt><trkpt lat="43.3474167" lon="11.0579867"><ele>299.0</ele><time>2026-04-25T15:07:53.725Z</time></trkpt><trkpt lat="43.3474933" lon="11.0580833"><ele>299.0</ele><time>2026-04-25T15:07:54.726Z</time></trkpt><trkpt lat="43.347605" lon="11.0581317"><ele>299.0</ele><time>2026-04-25T15:07:55.724Z</time></trkpt><trkpt lat="43.3477533" lon="11.058125"><ele>299.0</ele><time>2026-04-25T15:07:56.723Z</time></trkpt><trkpt lat="43.347935" lon="11.058105"><ele>299.0</ele><time>2026-04-25T15:07:57.724Z</time></trkpt><trkpt lat="43.3481317" lon="11.05808"><ele>296.0</ele><time>2026-04-25T15:07:58.725Z</time></trkpt><trkpt lat="43.3483383" lon="11.0580533"><ele>293.0</ele><time>2026-04-25T15:07:59.724Z</time></trkpt><trkpt lat="43.3485483" lon="11.05803"><ele>290.0</ele><time>2026-04-25T15:08:00.723Z</time></trkpt><trkpt lat="43.348755" lon="11.0580067"><ele>287.0</ele><time>2026-04-25T15:08:01.724Z</time></trkpt><trkpt lat="43.3489633" lon="11.0579933"><ele>284.0</ele><time>2026-04-25T15:08:02.724Z</time></trkpt><trkpt lat="43.3491667" lon="11.0580017"><ele>281.0</ele><time>2026-04-25T15:08:03.723Z</time></trkpt><trkpt lat="43.3493683" lon="11.058035"><ele>281.0</ele><time>2026-04-25T15:08:04.724Z</time></trkpt><trkpt lat="43.3495667" lon="11.05809"><ele>281.0</ele><time>2026-04-25T15:08:05.723Z</time></trkpt><trkpt lat="43.3497667" lon="11.0581717"><ele>281.0</ele><time>2026-04-25T15:08:06.725Z</time></trkpt><trkpt lat="43.3499633" lon="11.0582633"><ele>278.33333333333337</ele><time>2026-04-25T15:08:07.725Z</time></trkpt><trkpt lat="43.3501433" lon="11.058365"><ele>275.6666666666667</ele><time>2026-04-25T15:08:08.724Z</time></trkpt><trkpt lat="43.35031" lon="11.05849"><ele>273.0</ele><time>2026-04-25T15:08:09.725Z</time></trkpt><trkpt lat="43.350465" lon="11.0586383"><ele>270.6666666666667</ele><time>2026-04-25T15:08:10.725Z</time></trkpt><trkpt lat="43.35061" lon="11.0588117"><ele>268.33333333333337</ele><time>2026-04-25T15:08:11.723Z</time></trkpt><trkpt lat="43.350745" lon="11.059"><ele>266.0</ele><time>2026-04-25T15:08:12.725Z</time></trkpt><trkpt lat="43.3508717" lon="11.0591933"><ele>266.0</ele><time>2026-04-25T15:08:13.726Z</time></trkpt><trkpt lat="43.351005" lon="11.059365"><ele>266.0</ele><time>2026-04-25T15:08:14.724Z</time></trkpt><trkpt lat="43.3511483" lon="11.0595117"><ele>266.0</ele><time>2026-04-25T15:08:15.725Z</time></trkpt><trkpt lat="43.3513067" lon="11.0596167"><ele>264.6666666666667</ele><time>2026-04-25T15:08:16.724Z</time></trkpt><trkpt lat="43.35148" lon="11.05968"><ele>263.3333333333333</ele><time>2026-04-25T15:08:17.725Z</time></trkpt><trkpt lat="43.3516633" lon="11.0597167"><ele>262.0</ele><time>2026-04-25T15:08:18.724Z</time></trkpt><trkpt lat="43.3518567" lon="11.059745"><ele>262.0</ele><time>2026-04-25T15:08:19.725Z</time></trkpt><trkpt lat="43.3520583" lon="11.0597617"><ele>262.0</ele><time>2026-04-25T15:08:20.725Z</time></trkpt><trkpt lat="43.352265" lon="11.0597783"><ele>262.0</ele><time>2026-04-25T15:08:21.723Z</time></trkpt><trkpt lat="43.352475" lon="11.059795"><ele>261.0</ele><time>2026-04-25T15:08:22.724Z</time></trkpt><trkpt lat="43.352685" lon="11.05981"><ele>260.0</ele><time>2026-04-25T15:08:23.724Z</time></trkpt><trkpt lat="43.3528917" lon="11.059825"><ele>259.0</ele><time>2026-04-25T15:08:24.723Z</time></trkpt><trkpt lat="43.3530967" lon="11.0598433"><ele>259.0</ele><time>2026-04-25T15:08:25.724Z</time></trkpt><trkpt lat="43.3532967" lon="11.0598633"><ele>259.0</ele><time>2026-04-25T15:08:26.725Z</time></trkpt><trkpt lat="43.353495" lon="11.0598817"><ele>259.0</ele><time>2026-04-25T15:08:27.723Z</time></trkpt><trkpt lat="43.3536917" lon="11.0599017"><ele>258.3333333333333</ele><time>2026-04-25T15:08:28.726Z</time></trkpt><trkpt lat="43.353885" lon="11.0599233"><ele>257.6666666666667</ele><time>2026-04-25T15:08:29.725Z</time></trkpt><trkpt lat="43.3540783" lon="11.059945"><ele>257.0</ele><time>2026-04-25T15:08:30.725Z</time></trkpt><trkpt lat="43.35427" lon="11.05997"><ele>257.0</ele><time>2026-04-25T15:08:31.725Z</time></trkpt><trkpt lat="43.3544583" lon="11.05999"><ele>257.0</ele><time>2026-04-25T15:08:32.724Z</time></trkpt><trkpt lat="43.3546383" lon="11.0600033"><ele>257.0</ele><time>2026-04-25T15:08:33.724Z</time></trkpt><trkpt lat="43.3548083" lon="11.0600167"><ele>256.6</ele><time>2026-04-25T15:08:34.723Z</time></trkpt><trkpt lat="43.3549567" lon="11.06003"><ele>256.2</ele><time>2026-04-25T15:08:35.725Z</time></trkpt><trkpt lat="43.3550817" lon="11.0600433"><ele>255.8</ele><time>2026-04-25T15:08:36.725Z</time></trkpt><trkpt lat="43.355175" lon="11.0600517"><ele>255.4</ele><time>2026-04-25T15:08:37.724Z</time></trkpt><trkpt lat="43.35525" lon="11.0600583"><ele>255.0</ele><time>2026-04-25T15:08:38.726Z</time></trkpt><trkpt lat="43.3553517" lon="11.0600367"><ele>255.0</ele><time>2026-04-25T15:08:40.724Z</time></trkpt><trkpt lat="43.3553283" lon="11.0599333"><ele>255.0</ele><time>2026-04-25T15:08:43.724Z</time></trkpt><trkpt lat="43.355235" lon="11.0599467"><ele>255.0</ele><time>2026-04-25T15:08:45.722Z</time></trkpt><trkpt lat="43.3551567" lon="11.060015"><ele>255.0</ele><time>2026-04-25T15:08:47.724Z</time></trkpt><trkpt lat="43.3550933" lon="11.0600383"><ele>255.0</ele><time>2026-04-25T15:08:48.724Z</time></trkpt><trkpt lat="43.3549817" lon="11.06003"><ele>255.0</ele><time>2026-04-25T15:08:49.724Z</time></trkpt><trkpt lat="43.354845" lon="11.0600133"><ele>255.66666666666669</ele><time>2026-04-25T15:08:50.723Z</time></trkpt><trkpt lat="43.3546917" lon="11.059995"><ele>256.33333333333337</ele><time>2026-04-25T15:08:51.724Z</time></trkpt><trkpt lat="43.354525" lon="11.0599817"><ele>257.0</ele><time>2026-04-25T15:08:52.724Z</time></trkpt><trkpt lat="43.3543467" lon="11.059965"><ele>256.6666666666667</ele><time>2026-04-25T15:08:53.724Z</time></trkpt><trkpt lat="43.3541617" lon="11.059945"><ele>256.3333333333333</ele><time>2026-04-25T15:08:54.723Z</time></trkpt><trkpt lat="43.3539733" lon="11.0599267"><ele>256.0</ele><time>2026-04-25T15:08:55.724Z</time></trkpt><trkpt lat="43.3537767" lon="11.059915"><ele>257.0</ele><time>2026-04-25T15:08:56.724Z</time></trkpt><trkpt lat="43.3535717" lon="11.0599033"><ele>258.0</ele><time>2026-04-25T15:08:57.725Z</time></trkpt><trkpt lat="43.353365" lon="11.0598883"><ele>259.0</ele><time>2026-04-25T15:08:58.725Z</time></trkpt><trkpt lat="43.35316" lon="11.05987"><ele>258.66666666666663</ele><time>2026-04-25T15:08:59.725Z</time></trkpt><trkpt lat="43.3529617" lon="11.0598517"><ele>258.3333333333333</ele><time>2026-04-25T15:09:00.724Z</time></trkpt><trkpt lat="43.352765" lon="11.0598367"><ele>258.0</ele><time>2026-04-25T15:09:01.724Z</time></trkpt><trkpt lat="43.3525733" lon="11.0598217"><ele>258.0</ele><time>2026-04-25T15:09:02.726Z</time></trkpt><trkpt lat="43.352385" lon="11.0598033"><ele>258.0</ele><time>2026-04-25T15:09:03.723Z</time></trkpt><trkpt lat="43.3522017" lon="11.059785"><ele>258.0</ele><time>2026-04-25T15:09:04.724Z</time></trkpt><trkpt lat="43.352025" lon="11.0597667"><ele>259.0</ele><time>2026-04-25T15:09:05.724Z</time></trkpt><trkpt lat="43.3518633" lon="11.0597467"><ele>260.0</ele><time>2026-04-25T15:09:06.724Z</time></trkpt><trkpt lat="43.351715" lon="11.05973"><ele>261.0</ele><time>2026-04-25T15:09:07.724Z</time></trkpt><trkpt lat="43.3515867" lon="11.0597067"><ele>262.0</ele><time>2026-04-25T15:09:08.725Z</time></trkpt><trkpt lat="43.351485" lon="11.0596783"><ele>262.0</ele><time>2026-04-25T15:09:09.724Z</time></trkpt><trkpt lat="43.3514083" lon="11.05965"><ele>262.0</ele><time>2026-04-25T15:09:10.723Z</time></trkpt><trkpt lat="43.3513417" lon="11.0596233"><ele>262.0</ele><time>2026-04-25T15:09:11.722Z</time></trkpt><trkpt lat="43.3512467" lon="11.0596233"><ele>262.0</ele><time>2026-04-25T15:09:13.725Z</time></trkpt><trkpt lat="43.3512933" lon="11.05974"><ele>262.0</ele><time>2026-04-25T15:09:16.724Z</time></trkpt><trkpt lat="43.3513667" lon="11.05983"><ele>262.0</ele><time>2026-04-25T15:09:17.724Z</time></trkpt><trkpt lat="43.3514417" lon="11.0599267"><ele>261.66666666666663</ele><time>2026-04-25T15:09:18.724Z</time></trkpt><trkpt lat="43.351545" lon="11.0600767"><ele>261.3333333333333</ele><time>2026-04-25T15:09:19.724Z</time></trkpt><trkpt lat="43.3516567" lon="11.0602467"><ele>261.0</ele><time>2026-04-25T15:09:20.724Z</time></trkpt><trkpt lat="43.35178" lon="11.060435"><ele>261.0</ele><time>2026-04-25T15:09:21.724Z</time></trkpt><trkpt lat="43.3519167" lon="11.0606467"><ele>261.0</ele><time>2026-04-25T15:09:22.725Z</time></trkpt><trkpt lat="43.35206" lon="11.0608583"><ele>261.0</ele><time>2026-04-25T15:09:23.724Z</time></trkpt><trkpt lat="43.3522067" lon="11.0610483"><ele>261.6666666666667</ele><time>2026-04-25T15:09:24.725Z</time></trkpt><trkpt lat="43.3523683" lon="11.0612167"><ele>262.33333333333337</ele><time>2026-04-25T15:09:25.725Z</time></trkpt><trkpt lat="43.3525467" lon="11.06135"><ele>263.0</ele><time>2026-04-25T15:09:26.724Z</time></trkpt><trkpt lat="43.3527333" lon="11.0614383"><ele>263.0</ele><time>2026-04-25T15:09:27.724Z</time></trkpt><trkpt lat="43.3529233" lon="11.061485"><ele>263.0</ele><time>2026-04-25T15:09:28.724Z</time></trkpt><trkpt lat="43.3531033" lon="11.061505"><ele>263.0</ele><time>2026-04-25T15:09:29.727Z</time></trkpt><trkpt lat="43.353275" lon="11.0615517"><ele>264.33333333333337</ele><time>2026-04-25T15:09:30.725Z</time></trkpt><trkpt lat="43.3534417" lon="11.0616417"><ele>265.6666666666667</ele><time>2026-04-25T15:09:31.725Z</time></trkpt><trkpt lat="43.3536133" lon="11.0617583"><ele>267.0</ele><time>2026-04-25T15:09:32.724Z</time></trkpt><trkpt lat="43.3537983" lon="11.0618867"><ele>266.0</ele><time>2026-04-25T15:09:33.724Z</time></trkpt><trkpt lat="43.353995" lon="11.0620267"><ele>265.0</ele><time>2026-04-25T15:09:34.724Z</time></trkpt><trkpt lat="43.3542033" lon="11.06217"><ele>265.0</ele><time>2026-04-25T15:09:35.724Z</time></trkpt><trkpt lat="43.354415" lon="11.0623217"><ele>265.0</ele><time>2026-04-25T15:09:36.724Z</time></trkpt><trkpt lat="43.354625" lon="11.062465"><ele>265.66666666666663</ele><time>2026-04-25T15:09:37.725Z</time></trkpt><trkpt lat="43.3548283" lon="11.0626033"><ele>266.3333333333333</ele><time>2026-04-25T15:09:38.724Z</time></trkpt><trkpt lat="43.3550217" lon="11.0627333"><ele>267.0</ele><time>2026-04-25T15:09:39.725Z</time></trkpt><trkpt lat="43.3552067" lon="11.0628583"><ele>267.0</ele><time>2026-04-25T15:09:40.723Z</time></trkpt><trkpt lat="43.355385" lon="11.0629933"><ele>267.0</ele><time>2026-04-25T15:09:41.725Z</time></trkpt><trkpt lat="43.35556" lon="11.063145"><ele>267.0</ele><time>2026-04-25T15:09:42.725Z</time></trkpt><trkpt lat="43.3557333" lon="11.063325"><ele>267.6666666666667</ele><time>2026-04-25T15:09:43.724Z</time></trkpt><trkpt lat="43.3559067" lon="11.0635067"><ele>268.33333333333337</ele><time>2026-04-25T15:09:44.725Z</time></trkpt><trkpt lat="43.3560817" lon="11.0636967"><ele>269.0</ele><time>2026-04-25T15:09:45.725Z</time></trkpt><trkpt lat="43.3562633" lon="11.0638833"><ele>268.6666666666667</ele><time>2026-04-25T15:09:46.724Z</time></trkpt><trkpt lat="43.3564417" lon="11.06407"><ele>268.3333333333333</ele><time>2026-04-25T15:09:47.725Z</time></trkpt><trkpt lat="43.3566183" lon="11.0642517"><ele>268.0</ele><time>2026-04-25T15:09:48.725Z</time></trkpt><trkpt lat="43.3567917" lon="11.0644317"><ele>268.66666666666663</ele><time>2026-04-25T15:09:49.725Z</time></trkpt><trkpt lat="43.3569583" lon="11.06461"><ele>269.3333333333333</ele><time>2026-04-25T15:09:50.725Z</time></trkpt><trkpt lat="43.3571233" lon="11.0647917"><ele>270.0</ele><time>2026-04-25T15:09:51.724Z</time></trkpt><trkpt lat="43.3572833" lon="11.0649767"><ele>270.3333333333333</ele><time>2026-04-25T15:09:52.725Z</time></trkpt><trkpt lat="43.3574367" lon="11.0651733"><ele>270.66666666666663</ele><time>2026-04-25T15:09:53.725Z</time></trkpt><trkpt lat="43.3575867" lon="11.0653817"><ele>271.0</ele><time>2026-04-25T15:09:54.725Z</time></trkpt><trkpt lat="43.3577317" lon="11.0655967"><ele>272.3333333333333</ele><time>2026-04-25T15:09:55.725Z</time></trkpt><trkpt lat="43.35787" lon="11.065805"><ele>273.6666666666667</ele><time>2026-04-25T15:09:56.725Z</time></trkpt><trkpt lat="43.358005" lon="11.0660083"><ele>275.0</ele><time>2026-04-25T15:09:57.724Z</time></trkpt><trkpt lat="43.35814" lon="11.066205"><ele>275.0</ele><time>2026-04-25T15:09:58.725Z</time></trkpt><trkpt lat="43.358275" lon="11.0664"><ele>275.0</ele><time>2026-04-25T15:09:59.724Z</time></trkpt><trkpt lat="43.3584167" lon="11.0665767"><ele>275.0</ele><time>2026-04-25T15:10:00.724Z</time></trkpt><trkpt lat="43.358565" lon="11.0667467"><ele>273.6666666666667</ele><time>2026-04-25T15:10:01.725Z</time></trkpt><trkpt lat="43.3587183" lon="11.0669067"><ele>272.3333333333333</ele><time>2026-04-25T15:10:02.726Z</time></trkpt><trkpt lat="43.35888" lon="11.067065"><ele>271.0</ele><time>2026-04-25T15:10:03.724Z</time></trkpt><trkpt lat="43.3590433" lon="11.06723"><ele>271.0</ele><time>2026-04-25T15:10:04.724Z</time></trkpt><trkpt lat="43.3591983" lon="11.0673983"><ele>271.0</ele><time>2026-04-25T15:10:05.725Z</time></trkpt><trkpt lat="43.359345" lon="11.0675667"><ele>271.0</ele><time>2026-04-25T15:10:06.725Z</time></trkpt><trkpt lat="43.3594633" lon="11.0677383"><ele>270.0</ele><time>2026-04-25T15:10:07.724Z</time></trkpt><trkpt lat="43.3595467" lon="11.0679383"><ele>269.0</ele><time>2026-04-25T15:10:08.725Z</time></trkpt><trkpt lat="43.359605" lon="11.0681717"><ele>268.0</ele><time>2026-04-25T15:10:09.725Z</time></trkpt><trkpt lat="43.3596433" lon="11.06843"><ele>267.66666666666663</ele><time>2026-04-25T15:10:10.725Z</time></trkpt><trkpt lat="43.3596783" lon="11.068705"><ele>267.3333333333333</ele><time>2026-04-25T15:10:11.724Z</time></trkpt><trkpt lat="43.359715" lon="11.0689833"><ele>267.0</ele><time>2026-04-25T15:10:12.724Z</time></trkpt><trkpt lat="43.3597533" lon="11.0692433"><ele>267.6666666666667</ele><time>2026-04-25T15:10:13.724Z</time></trkpt><trkpt lat="43.3598033" lon="11.0694967"><ele>268.33333333333337</ele><time>2026-04-25T15:10:14.724Z</time></trkpt><trkpt lat="43.3598683" lon="11.0697517"><ele>269.0</ele><time>2026-04-25T15:10:15.724Z</time></trkpt><trkpt lat="43.35995" lon="11.0700167"><ele>267.6666666666667</ele><time>2026-04-25T15:10:16.725Z</time></trkpt><trkpt lat="43.3600333" lon="11.0702883"><ele>266.3333333333333</ele><time>2026-04-25T15:10:17.725Z</time></trkpt><trkpt lat="43.3601167" lon="11.0705667"><ele>265.0</ele><time>2026-04-25T15:10:18.724Z</time></trkpt><trkpt lat="43.3601967" lon="11.0708517"><ele>264.0</ele><time>2026-04-25T15:10:19.724Z</time></trkpt><trkpt lat="43.3602767" lon="11.0711367"><ele>263.0</ele><time>2026-04-25T15:10:20.725Z</time></trkpt><trkpt lat="43.3603567" lon="11.0714217"><ele>262.0</ele><time>2026-04-25T15:10:21.724Z</time></trkpt><trkpt lat="43.3604333" lon="11.071705"><ele>262.0</ele><time>2026-04-25T15:10:22.724Z</time></trkpt><trkpt lat="43.36051" lon="11.071985"><ele>262.0</ele><time>2026-04-25T15:10:23.725Z</time></trkpt><trkpt lat="43.3605883" lon="11.0722633"><ele>262.0</ele><time>2026-04-25T15:10:24.725Z</time></trkpt><trkpt lat="43.3606633" lon="11.0725483"><ele>261.66666666666663</ele><time>2026-04-25T15:10:25.724Z</time></trkpt><trkpt lat="43.3607267" lon="11.0728367"><ele>261.3333333333333</ele><time>2026-04-25T15:10:26.725Z</time></trkpt><trkpt lat="43.3607867" lon="11.0731333"><ele>261.0</ele><time>2026-04-25T15:10:27.723Z</time></trkpt><trkpt lat="43.360845" lon="11.0734333"><ele>262.5</ele><time>2026-04-25T15:10:28.723Z</time></trkpt><trkpt lat="43.3609183" lon="11.0737267"><ele>264.0</ele><time>2026-04-25T15:10:29.724Z</time></trkpt><trkpt lat="43.3610133" lon="11.07401"><ele>265.6666666666667</ele><time>2026-04-25T15:10:30.724Z</time></trkpt><trkpt lat="43.3611133" lon="11.07429"><ele>267.33333333333337</ele><time>2026-04-25T15:10:31.723Z</time></trkpt><trkpt lat="43.3612117" lon="11.074555"><ele>269.0</ele><time>2026-04-25T15:10:32.725Z</time></trkpt><trkpt lat="43.3613183" lon="11.0747933"><ele>268.33333333333337</ele><time>2026-04-25T15:10:33.725Z</time></trkpt><trkpt lat="43.361455" lon="11.07499"><ele>267.6666666666667</ele><time>2026-04-25T15:10:34.725Z</time></trkpt><trkpt lat="43.3616267" lon="11.0751533"><ele>267.0</ele><time>2026-04-25T15:10:35.724Z</time></trkpt><trkpt lat="43.3618167" lon="11.075295"><ele>267.0</ele><time>2026-04-25T15:10:36.725Z</time></trkpt><trkpt lat="43.362015" lon="11.0754233"><ele>267.0</ele><time>2026-04-25T15:10:37.723Z</time></trkpt><trkpt lat="43.3622033" lon="11.0755467"><ele>267.0</ele><time>2026-04-25T15:10:38.725Z</time></trkpt><trkpt lat="43.3623667" lon="11.0756833"><ele>268.6666666666667</ele><time>2026-04-25T15:10:39.725Z</time></trkpt><trkpt lat="43.3625033" lon="11.07584"><ele>270.33333333333337</ele><time>2026-04-25T15:10:40.725Z</time></trkpt><trkpt lat="43.3626133" lon="11.0760283"><ele>272.0</ele><time>2026-04-25T15:10:41.725Z</time></trkpt><trkpt lat="43.3627" lon="11.0762533"><ele>272.0</ele><time>2026-04-25T15:10:42.725Z</time></trkpt><trkpt lat="43.362775" lon="11.0765067"><ele>272.0</ele><time>2026-04-25T15:10:43.725Z</time></trkpt><trkpt lat="43.36285" lon="11.0767633"><ele>272.0</ele><time>2026-04-25T15:10:44.725Z</time></trkpt><trkpt lat="43.3629283" lon="11.0770167"><ele>274.6666666666667</ele><time>2026-04-25T15:10:45.723Z</time></trkpt><trkpt lat="43.3630083" lon="11.077275"><ele>277.3333333333333</ele><time>2026-04-25T15:10:46.725Z</time></trkpt><trkpt lat="43.3630883" lon="11.0775333"><ele>280.0</ele><time>2026-04-25T15:10:47.726Z</time></trkpt><trkpt lat="43.3631717" lon="11.0777967"><ele>280.0</ele><time>2026-04-25T15:10:48.725Z</time></trkpt><trkpt lat="43.363255" lon="11.078065"><ele>280.0</ele><time>2026-04-25T15:10:49.724Z</time></trkpt><trkpt lat="43.363335" lon="11.0783333"><ele>280.0</ele><time>2026-04-25T15:10:50.726Z</time></trkpt><trkpt lat="43.36339" lon="11.0786133"><ele>280.0</ele><time>2026-04-25T15:10:51.725Z</time></trkpt><trkpt lat="43.3634233" lon="11.078905"><ele>280.0</ele><time>2026-04-25T15:10:52.725Z</time></trkpt><trkpt lat="43.36344" lon="11.0792"><ele>280.0</ele><time>2026-04-25T15:10:53.726Z</time></trkpt><trkpt lat="43.36345" lon="11.07949"><ele>280.3333333333333</ele><time>2026-04-25T15:10:54.725Z</time></trkpt><trkpt lat="43.36346" lon="11.0797617"><ele>280.6666666666667</ele><time>2026-04-25T15:10:55.724Z</time></trkpt><trkpt lat="43.3634733" lon="11.0800133"><ele>281.0</ele><time>2026-04-25T15:10:56.725Z</time></trkpt><trkpt lat="43.3635033" lon="11.0802533"><ele>281.0</ele><time>2026-04-25T15:10:57.724Z</time></trkpt><trkpt lat="43.363565" lon="11.08048"><ele>281.0</ele><time>2026-04-25T15:10:58.725Z</time></trkpt><trkpt lat="43.3636583" lon="11.0807017"><ele>281.0</ele><time>2026-04-25T15:10:59.723Z</time></trkpt><trkpt lat="43.3637733" lon="11.08093"><ele>280.0</ele><time>2026-04-25T15:11:00.724Z</time></trkpt><trkpt lat="43.3638933" lon="11.08117"><ele>279.0</ele><time>2026-04-25T15:11:01.725Z</time></trkpt><trkpt lat="43.3640117" lon="11.0814117"><ele>278.0</ele><time>2026-04-25T15:11:02.725Z</time></trkpt><trkpt lat="43.3641383" lon="11.0816517"><ele>278.0</ele><time>2026-04-25T15:11:03.726Z</time></trkpt><trkpt lat="43.3642833" lon="11.0818817"><ele>278.0</ele><time>2026-04-25T15:11:04.722Z</time></trkpt><trkpt lat="43.3644467" lon="11.0820933"><ele>278.0</ele><time>2026-04-25T15:11:05.724Z</time></trkpt><trkpt lat="43.364625" lon="11.0823017"><ele>279.0</ele><time>2026-04-25T15:11:06.724Z</time></trkpt><trkpt lat="43.3648067" lon="11.08251"><ele>280.0</ele><time>2026-04-25T15:11:07.725Z</time></trkpt><trkpt lat="43.3649867" lon="11.0827217"><ele>280.0</ele><time>2026-04-25T15:11:08.725Z</time></trkpt><trkpt lat="43.365165" lon="11.0829317"><ele>280.0</ele><time>2026-04-25T15:11:09.725Z</time></trkpt><trkpt lat="43.365345" lon="11.0831167"><ele>279.3333333333333</ele><time>2026-04-25T15:11:10.724Z</time></trkpt><trkpt lat="43.36553" lon="11.08328"><ele>278.6666666666667</ele><time>2026-04-25T15:11:11.725Z</time></trkpt><trkpt lat="43.36572" lon="11.083425"><ele>278.0</ele><time>2026-04-25T15:11:12.725Z</time></trkpt><trkpt lat="43.36591" lon="11.0835733"><ele>278.0</ele><time>2026-04-25T15:11:13.724Z</time></trkpt><trkpt lat="43.3660983" lon="11.0837183"><ele>278.0</ele><time>2026-04-25T15:11:14.724Z</time></trkpt><trkpt lat="43.3662833" lon="11.0838667"><ele>278.0</ele><time>2026-04-25T15:11:15.725Z</time></trkpt><trkpt lat="43.3664683" lon="11.0840117"><ele>277.0</ele><time>2026-04-25T15:11:16.725Z</time></trkpt><trkpt lat="43.366655" lon="11.0841617"><ele>276.0</ele><time>2026-04-25T15:11:17.724Z</time></trkpt><trkpt lat="43.3668483" lon="11.0843083"><ele>275.0</ele><time>2026-04-25T15:11:18.724Z</time></trkpt><trkpt lat="43.3670483" lon="11.0844283"><ele>273.33333333333337</ele><time>2026-04-25T15:11:19.725Z</time></trkpt><trkpt lat="43.3672533" lon="11.084515"><ele>271.6666666666667</ele><time>2026-04-25T15:11:20.725Z</time></trkpt><trkpt lat="43.3674517" lon="11.0845733"><ele>270.0</ele><time>2026-04-25T15:11:21.725Z</time></trkpt><trkpt lat="43.3676367" lon="11.0846267"><ele>270.0</ele><time>2026-04-25T15:11:22.725Z</time></trkpt><trkpt lat="43.36781" lon="11.0847"><ele>270.0</ele><time>2026-04-25T15:11:23.727Z</time></trkpt><trkpt lat="43.367975" lon="11.084795"><ele>270.0</ele><time>2026-04-25T15:11:24.724Z</time></trkpt><trkpt lat="43.3681333" lon="11.0849117"><ele>269.6666666666667</ele><time>2026-04-25T15:11:25.726Z</time></trkpt><trkpt lat="43.3682783" lon="11.08504"><ele>269.33333333333337</ele><time>2026-04-25T15:11:26.725Z</time></trkpt><trkpt lat="43.3684133" lon="11.085185"><ele>269.0</ele><time>2026-04-25T15:11:27.724Z</time></trkpt><trkpt lat="43.3685333" lon="11.0853483"><ele>269.0</ele><time>2026-04-25T15:11:28.724Z</time></trkpt><trkpt lat="43.3686383" lon="11.08552"><ele>269.0</ele><time>2026-04-25T15:11:29.725Z</time></trkpt><trkpt lat="43.3687533" lon="11.0856817"><ele>269.0</ele><time>2026-04-25T15:11:30.725Z</time></trkpt><trkpt lat="43.3688867" lon="11.085825"><ele>268.0</ele><time>2026-04-25T15:11:31.725Z</time></trkpt><trkpt lat="43.3690317" lon="11.0859617"><ele>267.0</ele><time>2026-04-25T15:11:32.725Z</time></trkpt><trkpt lat="43.369185" lon="11.086095"><ele>266.0</ele><time>2026-04-25T15:11:33.725Z</time></trkpt><trkpt lat="43.3693467" lon="11.0862333"><ele>266.0</ele><time>2026-04-25T15:11:34.724Z</time></trkpt><trkpt lat="43.3695083" lon="11.0863767"><ele>266.0</ele><time>2026-04-25T15:11:35.723Z</time></trkpt><trkpt lat="43.369665" lon="11.0865183"><ele>266.0</ele><time>2026-04-25T15:11:36.723Z</time></trkpt><trkpt lat="43.36981" lon="11.0866683"><ele>264.33333333333337</ele><time>2026-04-25T15:11:37.724Z</time></trkpt><trkpt lat="43.3699367" lon="11.0868317"><ele>262.6666666666667</ele><time>2026-04-25T15:11:38.725Z</time></trkpt><trkpt lat="43.3700417" lon="11.087015"><ele>261.0</ele><time>2026-04-25T15:11:39.724Z</time></trkpt><trkpt lat="43.3701367" lon="11.08723"><ele>260.6666666666667</ele><time>2026-04-25T15:11:40.723Z</time></trkpt><trkpt lat="43.3702367" lon="11.087455"><ele>260.33333333333337</ele><time>2026-04-25T15:11:41.722Z</time></trkpt><trkpt lat="43.3703533" lon="11.0876817"><ele>260.0</ele><time>2026-04-25T15:11:42.723Z</time></trkpt><trkpt lat="43.37049" lon="11.0878917"><ele>260.0</ele><time>2026-04-25T15:11:43.724Z</time></trkpt><trkpt lat="43.3706417" lon="11.088085"><ele>260.0</ele><time>2026-04-25T15:11:44.725Z</time></trkpt><trkpt lat="43.37081" lon="11.08826"><ele>260.0</ele><time>2026-04-25T15:11:45.724Z</time></trkpt><trkpt lat="43.3709967" lon="11.0884017"><ele>260.0</ele><time>2026-04-25T15:11:46.723Z</time></trkpt><trkpt lat="43.3711983" lon="11.0885183"><ele>260.0</ele><time>2026-04-25T15:11:47.725Z</time></trkpt><trkpt lat="43.371405" lon="11.0886233"><ele>260.0</ele><time>2026-04-25T15:11:48.724Z</time></trkpt><trkpt lat="43.3716117" lon="11.0887283"><ele>260.0</ele><time>2026-04-25T15:11:49.724Z</time></trkpt><trkpt lat="43.3718217" lon="11.088835"><ele>260.0</ele><time>2026-04-25T15:11:50.725Z</time></trkpt><trkpt lat="43.3720283" lon="11.0889433"><ele>260.0</ele><time>2026-04-25T15:11:51.724Z</time></trkpt><trkpt lat="43.3722383" lon="11.0890483"><ele>262.33333333333337</ele><time>2026-04-25T15:11:52.725Z</time></trkpt><trkpt lat="43.3724483" lon="11.08916"><ele>264.6666666666667</ele><time>2026-04-25T15:11:53.724Z</time></trkpt><trkpt lat="43.3726517" lon="11.0892717"><ele>267.0</ele><time>2026-04-25T15:11:54.724Z</time></trkpt><trkpt lat="43.372855" lon="11.0893867"><ele>267.3333333333333</ele><time>2026-04-25T15:11:55.723Z</time></trkpt><trkpt lat="43.373055" lon="11.0894967"><ele>267.66666666666663</ele><time>2026-04-25T15:11:56.724Z</time></trkpt><trkpt lat="43.3732483" lon="11.0896033"><ele>268.0</ele><time>2026-04-25T15:11:57.723Z</time></trkpt><trkpt lat="43.3734317" lon="11.0897033"><ele>268.0</ele><time>2026-04-25T15:11:58.723Z</time></trkpt><trkpt lat="43.37361" lon="11.0898083"><ele>268.0</ele><time>2026-04-25T15:11:59.724Z</time></trkpt><trkpt lat="43.3737717" lon="11.08994"><ele>268.0</ele><time>2026-04-25T15:12:00.725Z</time></trkpt><trkpt lat="43.3739183" lon="11.0901033"><ele>268.66666666666663</ele><time>2026-04-25T15:12:01.724Z</time></trkpt><trkpt lat="43.3740383" lon="11.090295"><ele>269.3333333333333</ele><time>2026-04-25T15:12:02.723Z</time></trkpt><trkpt lat="43.374135" lon="11.09051"><ele>270.0</ele><time>2026-04-25T15:12:03.725Z</time></trkpt><trkpt lat="43.37421" lon="11.0907417"><ele>271.3333333333333</ele><time>2026-04-25T15:12:04.724Z</time></trkpt><trkpt lat="43.3742633" lon="11.09099"><ele>272.66666666666663</ele><time>2026-04-25T15:12:05.724Z</time></trkpt><trkpt lat="43.3743017" lon="11.091255"><ele>274.0</ele><time>2026-04-25T15:12:06.723Z</time></trkpt><trkpt lat="43.37434" lon="11.09153"><ele>274.66666666666663</ele><time>2026-04-25T15:12:07.725Z</time></trkpt><trkpt lat="43.3743817" lon="11.0918117"><ele>275.3333333333333</ele><time>2026-04-25T15:12:08.724Z</time></trkpt><trkpt lat="43.3744267" lon="11.0921"><ele>276.0</ele><time>2026-04-25T15:12:09.723Z</time></trkpt><trkpt lat="43.3744717" lon="11.0924017"><ele>275.0</ele><time>2026-04-25T15:12:10.724Z</time></trkpt><trkpt lat="43.3745183" lon="11.0927083"><ele>274.0</ele><time>2026-04-25T15:12:11.723Z</time></trkpt><trkpt lat="43.3745667" lon="11.0930167"><ele>274.0</ele><time>2026-04-25T15:12:12.723Z</time></trkpt><trkpt lat="43.374615" lon="11.0933317"><ele>274.0</ele><time>2026-04-25T15:12:13.725Z</time></trkpt><trkpt lat="43.3746633" lon="11.0936483"><ele>273.0</ele><time>2026-04-25T15:12:14.723Z</time></trkpt><trkpt lat="43.374715" lon="11.09397"><ele>272.0</ele><time>2026-04-25T15:12:15.722Z</time></trkpt><trkpt lat="43.374765" lon="11.094295"><ele>272.0</ele><time>2026-04-25T15:12:16.725Z</time></trkpt><trkpt lat="43.374815" lon="11.0946167"><ele>272.0</ele><time>2026-04-25T15:12:17.724Z</time></trkpt><trkpt lat="43.3748683" lon="11.094935"><ele>271.0</ele><time>2026-04-25T15:12:18.723Z</time></trkpt><trkpt lat="43.37492" lon="11.0952533"><ele>270.0</ele><time>2026-04-25T15:12:19.723Z</time></trkpt><trkpt lat="43.37497" lon="11.0955667"><ele>270.5</ele><time>2026-04-25T15:12:20.725Z</time></trkpt><trkpt lat="43.3750217" lon="11.095875"><ele>271.0</ele><time>2026-04-25T15:12:21.724Z</time></trkpt><trkpt lat="43.3750683" lon="11.09618"><ele>271.0</ele><time>2026-04-25T15:12:22.724Z</time></trkpt><trkpt lat="43.3751117" lon="11.096475"><ele>271.0</ele><time>2026-04-25T15:12:23.723Z</time></trkpt><trkpt lat="43.375155" lon="11.09676"><ele>271.0</ele><time>2026-04-25T15:12:24.724Z</time></trkpt><trkpt lat="43.3751967" lon="11.0970267"><ele>271.3333333333333</ele><time>2026-04-25T15:12:25.724Z</time></trkpt><trkpt lat="43.3752383" lon="11.097275"><ele>271.6666666666667</ele><time>2026-04-25T15:12:26.723Z</time></trkpt><trkpt lat="43.375275" lon="11.0975133"><ele>272.0</ele><time>2026-04-25T15:12:27.724Z</time></trkpt><trkpt lat="43.375315" lon="11.0977417"><ele>272.0</ele><time>2026-04-25T15:12:28.724Z</time></trkpt><trkpt lat="43.37536" lon="11.0979683"><ele>272.0</ele><time>2026-04-25T15:12:29.724Z</time></trkpt><trkpt lat="43.375415" lon="11.0981883"><ele>272.0</ele><time>2026-04-25T15:12:30.724Z</time></trkpt><trkpt lat="43.3754817" lon="11.0984067"><ele>270.6666666666667</ele><time>2026-04-25T15:12:31.724Z</time></trkpt><trkpt lat="43.3755567" lon="11.0986183"><ele>269.3333333333333</ele><time>2026-04-25T15:12:32.723Z</time></trkpt><trkpt lat="43.3756417" lon="11.0988233"><ele>268.0</ele><time>2026-04-25T15:12:33.724Z</time></trkpt><trkpt lat="43.375735" lon="11.0990217"><ele>268.3333333333333</ele><time>2026-04-25T15:12:34.724Z</time></trkpt><trkpt lat="43.3758317" lon="11.09921"><ele>268.6666666666667</ele><time>2026-04-25T15:12:35.724Z</time></trkpt><trkpt lat="43.3759283" lon="11.0993917"><ele>269.0</ele><time>2026-04-25T15:12:36.723Z</time></trkpt><trkpt lat="43.37602" lon="11.0995733"><ele>269.0</ele><time>2026-04-25T15:12:37.723Z</time></trkpt><trkpt lat="43.376105" lon="11.0997667"><ele>269.0</ele><time>2026-04-25T15:12:38.724Z</time></trkpt><trkpt lat="43.3761817" lon="11.0999683"><ele>269.0</ele><time>2026-04-25T15:12:39.726Z</time></trkpt><trkpt lat="43.3762583" lon="11.1001883"><ele>268.33333333333337</ele><time>2026-04-25T15:12:40.722Z</time></trkpt><trkpt lat="43.3763333" lon="11.10041"><ele>267.6666666666667</ele><time>2026-04-25T15:12:41.722Z</time></trkpt><trkpt lat="43.3764183" lon="11.10063"><ele>267.0</ele><time>2026-04-25T15:12:42.723Z</time></trkpt><trkpt lat="43.3765117" lon="11.1008533"><ele>266.0</ele><time>2026-04-25T15:12:43.724Z</time></trkpt><trkpt lat="43.376605" lon="11.10109"><ele>265.0</ele><time>2026-04-25T15:12:44.722Z</time></trkpt><trkpt lat="43.3766917" lon="11.10134"><ele>264.0</ele><time>2026-04-25T15:12:45.724Z</time></trkpt><trkpt lat="43.3767667" lon="11.101605"><ele>263.6666666666667</ele><time>2026-04-25T15:12:46.723Z</time></trkpt><trkpt lat="43.37683" lon="11.1018767"><ele>263.33333333333337</ele><time>2026-04-25T15:12:47.722Z</time></trkpt><trkpt lat="43.3768767" lon="11.1021417"><ele>263.0</ele><time>2026-04-25T15:12:48.724Z</time></trkpt><trkpt lat="43.37692" lon="11.1023967"><ele>262.33333333333337</ele><time>2026-04-25T15:12:49.724Z</time></trkpt><trkpt lat="43.3769617" lon="11.1026383"><ele>261.6666666666667</ele><time>2026-04-25T15:12:50.725Z</time></trkpt><trkpt lat="43.3770017" lon="11.10287"><ele>261.0</ele><time>2026-04-25T15:12:51.725Z</time></trkpt><trkpt lat="43.3770383" lon="11.103095"><ele>260.6666666666667</ele><time>2026-04-25T15:12:52.722Z</time></trkpt><trkpt lat="43.3770717" lon="11.1033133"><ele>260.33333333333337</ele><time>2026-04-25T15:12:53.722Z</time></trkpt><trkpt lat="43.3771017" lon="11.1035217"><ele>260.0</ele><time>2026-04-25T15:12:54.725Z</time></trkpt><trkpt lat="43.37713" lon="11.1037267"><ele>260.0</ele><time>2026-04-25T15:12:55.723Z</time></trkpt><trkpt lat="43.37716" lon="11.1039417"><ele>260.0</ele><time>2026-04-25T15:12:56.724Z</time></trkpt><trkpt lat="43.377195" lon="11.1041683"><ele>260.0</ele><time>2026-04-25T15:12:57.724Z</time></trkpt><trkpt lat="43.3772433" lon="11.1044"><ele>259.33333333333337</ele><time>2026-04-25T15:12:58.723Z</time></trkpt><trkpt lat="43.3773067" lon="11.1046283"><ele>258.6666666666667</ele><time>2026-04-25T15:12:59.724Z</time></trkpt><trkpt lat="43.377375" lon="11.104845"><ele>258.0</ele><time>2026-04-25T15:13:00.725Z</time></trkpt><trkpt lat="43.3774417" lon="11.105045"><ele>258.0</ele><time>2026-04-25T15:13:01.724Z</time></trkpt><trkpt lat="43.3774933" lon="11.10525"><ele>258.0</ele><time>2026-04-25T15:13:02.724Z</time></trkpt><trkpt lat="43.3775183" lon="11.1054683"><ele>258.0</ele><time>2026-04-25T15:13:03.724Z</time></trkpt><trkpt lat="43.377515" lon="11.1056917"><ele>258.0</ele><time>2026-04-25T15:13:04.723Z</time></trkpt><trkpt lat="43.3774867" lon="11.1059217"><ele>258.0</ele><time>2026-04-25T15:13:05.724Z</time></trkpt><trkpt lat="43.3774483" lon="11.10616"><ele>258.0</ele><time>2026-04-25T15:13:06.724Z</time></trkpt><trkpt lat="43.3774033" lon="11.10641"><ele>257.6666666666667</ele><time>2026-04-25T15:13:07.723Z</time></trkpt><trkpt lat="43.3773617" lon="11.1066683"><ele>257.33333333333337</ele><time>2026-04-25T15:13:08.724Z</time></trkpt><trkpt lat="43.3773183" lon="11.1069367"><ele>257.0</ele><time>2026-04-25T15:13:09.723Z</time></trkpt><trkpt lat="43.3772783" lon="11.1072083"><ele>255.66666666666669</ele><time>2026-04-25T15:13:10.723Z</time></trkpt><trkpt lat="43.37724" lon="11.1074717"><ele>254.33333333333331</ele><time>2026-04-25T15:13:11.723Z</time></trkpt><trkpt lat="43.3772083" lon="11.1077267"><ele>253.0</ele><time>2026-04-25T15:13:12.725Z</time></trkpt><trkpt lat="43.377185" lon="11.1079767"><ele>252.66666666666666</ele><time>2026-04-25T15:13:13.724Z</time></trkpt><trkpt lat="43.3771783" lon="11.108215"><ele>252.33333333333331</ele><time>2026-04-25T15:13:14.724Z</time></trkpt><trkpt lat="43.3771917" lon="11.1084367"><ele>252.0</ele><time>2026-04-25T15:13:15.723Z</time></trkpt><trkpt lat="43.3772233" lon="11.1086483"><ele>252.0</ele><time>2026-04-25T15:13:16.724Z</time></trkpt><trkpt lat="43.3772767" lon="11.108855"><ele>252.0</ele><time>2026-04-25T15:13:17.724Z</time></trkpt><trkpt lat="43.37736" lon="11.10904"><ele>252.0</ele><time>2026-04-25T15:13:18.726Z</time></trkpt><trkpt lat="43.3774633" lon="11.10922"><ele>251.0</ele><time>2026-04-25T15:13:19.723Z</time></trkpt><trkpt lat="43.3775767" lon="11.10939"><ele>250.0</ele><time>2026-04-25T15:13:20.726Z</time></trkpt><trkpt lat="43.3776983" lon="11.1095733"><ele>249.0</ele><time>2026-04-25T15:13:21.724Z</time></trkpt><trkpt lat="43.3778283" lon="11.1097667"><ele>248.33333333333331</ele><time>2026-04-25T15:13:22.724Z</time></trkpt><trkpt lat="43.3779617" lon="11.1099717"><ele>247.66666666666666</ele><time>2026-04-25T15:13:23.724Z</time></trkpt><trkpt lat="43.3780883" lon="11.1101717"><ele>247.0</ele><time>2026-04-25T15:13:24.724Z</time></trkpt><trkpt lat="43.3782167" lon="11.1103583"><ele>245.0</ele><time>2026-04-25T15:13:25.723Z</time></trkpt><trkpt lat="43.3783467" lon="11.11053"><ele>243.0</ele><time>2026-04-25T15:13:26.724Z</time></trkpt><trkpt lat="43.3784867" lon="11.110685"><ele>241.0</ele><time>2026-04-25T15:13:27.724Z</time></trkpt><trkpt lat="43.3786333" lon="11.1108583"><ele>241.0</ele><time>2026-04-25T15:13:28.724Z</time></trkpt><trkpt lat="43.3787633" lon="11.111055"><ele>241.0</ele><time>2026-04-25T15:13:29.722Z</time></trkpt><trkpt lat="43.3788783" lon="11.1112767"><ele>241.0</ele><time>2026-04-25T15:13:30.724Z</time></trkpt><trkpt lat="43.3790083" lon="11.111495"><ele>238.66666666666666</ele><time>2026-04-25T15:13:31.724Z</time></trkpt><trkpt lat="43.37916" lon="11.1116983"><ele>236.33333333333331</ele><time>2026-04-25T15:13:32.725Z</time></trkpt><trkpt lat="43.3793317" lon="11.1118917"><ele>234.0</ele><time>2026-04-25T15:13:33.723Z</time></trkpt><trkpt lat="43.37951" lon="11.112075"><ele>232.33333333333331</ele><time>2026-04-25T15:13:34.723Z</time></trkpt><trkpt lat="43.3796867" lon="11.11224"><ele>230.66666666666666</ele><time>2026-04-25T15:13:35.724Z</time></trkpt><trkpt lat="43.379855" lon="11.1124217"><ele>229.0</ele><time>2026-04-25T15:13:36.725Z</time></trkpt><trkpt lat="43.380015" lon="11.1126083"><ele>229.0</ele><time>2026-04-25T15:13:37.723Z</time></trkpt><trkpt lat="43.3801717" lon="11.1128033"><ele>229.0</ele><time>2026-04-25T15:13:38.724Z</time></trkpt><trkpt lat="43.3803317" lon="11.1130017"><ele>229.0</ele><time>2026-04-25T15:13:39.723Z</time></trkpt><trkpt lat="43.38049" lon="11.1131933"><ele>229.0</ele><time>2026-04-25T15:13:40.723Z</time></trkpt><trkpt lat="43.3806433" lon="11.1133767"><ele>229.0</ele><time>2026-04-25T15:13:41.725Z</time></trkpt><trkpt lat="43.3807817" lon="11.113565"><ele>229.0</ele><time>2026-04-25T15:13:42.723Z</time></trkpt><trkpt lat="43.380895" lon="11.1137733"><ele>229.0</ele><time>2026-04-25T15:13:43.723Z</time></trkpt><trkpt lat="43.3809817" lon="11.1140083"><ele>229.0</ele><time>2026-04-25T15:13:44.724Z</time></trkpt><trkpt lat="43.381045" lon="11.114265"><ele>229.0</ele><time>2026-04-25T15:13:45.722Z</time></trkpt><trkpt lat="43.3810883" lon="11.1145317"><ele>227.66666666666666</ele><time>2026-04-25T15:13:46.724Z</time></trkpt><trkpt lat="43.3811217" lon="11.1148067"><ele>226.33333333333331</ele><time>2026-04-25T15:13:47.723Z</time></trkpt><trkpt lat="43.3811467" lon="11.1150817"><ele>225.0</ele><time>2026-04-25T15:13:48.723Z</time></trkpt><trkpt lat="43.381175" lon="11.1153533"><ele>225.0</ele><time>2026-04-25T15:13:49.726Z</time></trkpt><trkpt lat="43.381205" lon="11.115615"><ele>225.0</ele><time>2026-04-25T15:13:50.724Z</time></trkpt><trkpt lat="43.381235" lon="11.115875"><ele>225.0</ele><time>2026-04-25T15:13:51.724Z</time></trkpt><trkpt lat="43.38127" lon="11.1161283"><ele>226.66666666666669</ele><time>2026-04-25T15:13:52.724Z</time></trkpt><trkpt lat="43.3813" lon="11.1163733"><ele>228.33333333333334</ele><time>2026-04-25T15:13:53.725Z</time></trkpt><trkpt lat="43.38133" lon="11.1166183"><ele>230.0</ele><time>2026-04-25T15:13:54.723Z</time></trkpt><trkpt lat="43.38136" lon="11.11686"><ele>230.33333333333334</ele><time>2026-04-25T15:13:55.722Z</time></trkpt><trkpt lat="43.38139" lon="11.1170933"><ele>230.66666666666669</ele><time>2026-04-25T15:13:56.725Z</time></trkpt><trkpt lat="43.3814233" lon="11.1173183"><ele>231.0</ele><time>2026-04-25T15:13:57.723Z</time></trkpt><trkpt lat="43.3814533" lon="11.1175317"><ele>233.0</ele><time>2026-04-25T15:13:58.722Z</time></trkpt><trkpt lat="43.38148" lon="11.117725"><ele>235.0</ele><time>2026-04-25T15:13:59.723Z</time></trkpt><trkpt lat="43.3815" lon="11.1179"><ele>237.0</ele><time>2026-04-25T15:14:00.724Z</time></trkpt><trkpt lat="43.3815217" lon="11.1180567"><ele>239.0</ele><time>2026-04-25T15:14:01.724Z</time></trkpt><trkpt lat="43.3815383" lon="11.1182"><ele>240.2</ele><time>2026-04-25T15:14:02.724Z</time></trkpt><trkpt lat="43.381555" lon="11.1183333"><ele>241.39999999999998</ele><time>2026-04-25T15:14:03.723Z</time></trkpt><trkpt lat="43.3815767" lon="11.11846"><ele>242.6</ele><time>2026-04-25T15:14:04.724Z</time></trkpt><trkpt lat="43.38161" lon="11.1185667"><ele>243.8</ele><time>2026-04-25T15:14:05.724Z</time></trkpt><trkpt lat="43.38165" lon="11.11868"><ele>245.0</ele><time>2026-04-25T15:14:06.724Z</time></trkpt><trkpt lat="43.3816933" lon="11.1187983"><ele>245.0</ele><time>2026-04-25T15:14:07.723Z</time></trkpt><trkpt lat="43.381735" lon="11.1189433"><ele>245.0</ele><time>2026-04-25T15:14:08.724Z</time></trkpt><trkpt lat="43.3817783" lon="11.1190967"><ele>245.0</ele><time>2026-04-25T15:14:09.723Z</time></trkpt><trkpt lat="43.381825" lon="11.1192717"><ele>245.0</ele><time>2026-04-25T15:14:10.724Z</time></trkpt><trkpt lat="43.3818667" lon="11.119475"><ele>245.33333333333334</ele><time>2026-04-25T15:14:11.724Z</time></trkpt><trkpt lat="43.381905" lon="11.1196883"><ele>245.66666666666669</ele><time>2026-04-25T15:14:12.724Z</time></trkpt><trkpt lat="43.38194" lon="11.1199167"><ele>246.0</ele><time>2026-04-25T15:14:13.724Z</time></trkpt><trkpt lat="43.3819783" lon="11.120145"><ele>244.66666666666669</ele><time>2026-04-25T15:14:14.723Z</time></trkpt><trkpt lat="43.3820167" lon="11.12037"><ele>243.33333333333334</ele><time>2026-04-25T15:14:15.723Z</time></trkpt><trkpt lat="43.3820533" lon="11.1205933"><ele>242.0</ele><time>2026-04-25T15:14:16.724Z</time></trkpt><trkpt lat="43.38209" lon="11.1208233"><ele>241.33333333333334</ele><time>2026-04-25T15:14:17.723Z</time></trkpt><trkpt lat="43.382135" lon="11.1210367"><ele>240.66666666666669</ele><time>2026-04-25T15:14:18.722Z</time></trkpt><trkpt lat="43.3822133" lon="11.1212317"><ele>240.0</ele><time>2026-04-25T15:14:19.723Z</time></trkpt><trkpt lat="43.3823067" lon="11.1214217"><ele>241.33333333333331</ele><time>2026-04-25T15:14:20.724Z</time></trkpt><trkpt lat="43.3824067" lon="11.12162"><ele>242.66666666666666</ele><time>2026-04-25T15:14:21.723Z</time></trkpt><trkpt lat="43.38251" lon="11.121815"><ele>244.0</ele><time>2026-04-25T15:14:22.724Z</time></trkpt><trkpt lat="43.3826083" lon="11.122005"><ele>244.0</ele><time>2026-04-25T15:14:23.724Z</time></trkpt><trkpt lat="43.3827033" lon="11.1222"><ele>244.0</ele><time>2026-04-25T15:14:24.724Z</time></trkpt><trkpt lat="43.3827967" lon="11.1224067"><ele>244.0</ele><time>2026-04-25T15:14:25.723Z</time></trkpt><trkpt lat="43.38289" lon="11.1226283"><ele>244.0</ele><time>2026-04-25T15:14:26.723Z</time></trkpt><trkpt lat="43.3829883" lon="11.1228667"><ele>244.0</ele><time>2026-04-25T15:14:27.724Z</time></trkpt><trkpt lat="43.3830883" lon="11.12311"><ele>244.0</ele><time>2026-04-25T15:14:28.724Z</time></trkpt><trkpt lat="43.3831883" lon="11.123355"><ele>243.33333333333331</ele><time>2026-04-25T15:14:29.724Z</time></trkpt><trkpt lat="43.38329" lon="11.1236017"><ele>242.66666666666669</ele><time>2026-04-25T15:14:30.723Z</time></trkpt><trkpt lat="43.3833933" lon="11.12385"><ele>242.0</ele><time>2026-04-25T15:14:31.725Z</time></trkpt><trkpt lat="43.383495" lon="11.1240967"><ele>241.33333333333334</ele><time>2026-04-25T15:14:32.724Z</time></trkpt><trkpt lat="43.3835967" lon="11.124345"><ele>240.66666666666669</ele><time>2026-04-25T15:14:33.723Z</time></trkpt><trkpt lat="43.383695" lon="11.1245883"><ele>240.0</ele><time>2026-04-25T15:14:34.724Z</time></trkpt><trkpt lat="43.3837933" lon="11.12483"><ele>239.33333333333331</ele><time>2026-04-25T15:14:35.725Z</time></trkpt><trkpt lat="43.3838917" lon="11.1250717"><ele>238.66666666666666</ele><time>2026-04-25T15:14:36.724Z</time></trkpt><trkpt lat="43.3839883" lon="11.1253133"><ele>238.0</ele><time>2026-04-25T15:14:37.724Z</time></trkpt><trkpt lat="43.3840833" lon="11.1255483"><ele>237.33333333333331</ele><time>2026-04-25T15:14:38.723Z</time></trkpt><trkpt lat="43.3841733" lon="11.1257733"><ele>236.66666666666669</ele><time>2026-04-25T15:14:39.724Z</time></trkpt><trkpt lat="43.3842567" lon="11.1259917"><ele>236.0</ele><time>2026-04-25T15:14:40.724Z</time></trkpt><trkpt lat="43.384335" lon="11.1262183"><ele>236.0</ele><time>2026-04-25T15:14:41.724Z</time></trkpt><trkpt lat="43.3844067" lon="11.1264417"><ele>236.0</ele><time>2026-04-25T15:14:42.724Z</time></trkpt><trkpt lat="43.38447" lon="11.126665"><ele>236.0</ele><time>2026-04-25T15:14:43.725Z</time></trkpt><trkpt lat="43.38453" lon="11.1268833"><ele>234.0</ele><time>2026-04-25T15:14:44.724Z</time></trkpt><trkpt lat="43.3845917" lon="11.1271017"><ele>232.0</ele><time>2026-04-25T15:14:45.724Z</time></trkpt><trkpt lat="43.3846733" lon="11.1273083"><ele>230.0</ele><time>2026-04-25T15:14:46.724Z</time></trkpt><trkpt lat="43.3847633" lon="11.12749"><ele>227.66666666666669</ele><time>2026-04-25T15:14:47.724Z</time></trkpt><trkpt lat="43.38486" lon="11.1276317"><ele>225.33333333333331</ele><time>2026-04-25T15:14:48.725Z</time></trkpt><trkpt lat="43.3849517" lon="11.1278067"><ele>223.0</ele><time>2026-04-25T15:14:49.725Z</time></trkpt><trkpt lat="43.3850183" lon="11.127995"><ele>223.0</ele><time>2026-04-25T15:14:50.725Z</time></trkpt><trkpt lat="43.3850717" lon="11.1282"><ele>223.0</ele><time>2026-04-25T15:14:51.724Z</time></trkpt><trkpt lat="43.3851217" lon="11.1284233"><ele>223.0</ele><time>2026-04-25T15:14:52.724Z</time></trkpt><trkpt lat="43.38517" lon="11.1286467"><ele>222.5</ele><time>2026-04-25T15:14:53.724Z</time></trkpt><trkpt lat="43.3852183" lon="11.1288567"><ele>222.0</ele><time>2026-04-25T15:14:54.723Z</time></trkpt><trkpt lat="43.385265" lon="11.129045"><ele>221.5</ele><time>2026-04-25T15:14:55.723Z</time></trkpt><trkpt lat="43.3853083" lon="11.129215"><ele>221.0</ele><time>2026-04-25T15:14:56.723Z</time></trkpt><trkpt lat="43.3853533" lon="11.1293733"><ele>220.60000000000002</ele><time>2026-04-25T15:14:57.724Z</time></trkpt><trkpt lat="43.385415" lon="11.1295117"><ele>220.20000000000002</ele><time>2026-04-25T15:14:58.723Z</time></trkpt><trkpt lat="43.385495" lon="11.1296133"><ele>219.79999999999998</ele><time>2026-04-25T15:14:59.723Z</time></trkpt><trkpt lat="43.3855617" lon="11.1297167"><ele>219.39999999999998</ele><time>2026-04-25T15:15:00.724Z</time></trkpt><trkpt lat="43.3856067" lon="11.12986"><ele>219.0</ele><time>2026-04-25T15:15:01.722Z</time></trkpt><trkpt lat="43.3856233" lon="11.1300183"><ele>218.0</ele><time>2026-04-25T15:15:02.723Z</time></trkpt><trkpt lat="43.3855983" lon="11.1301967"><ele>217.0</ele><time>2026-04-25T15:15:03.723Z</time></trkpt><trkpt lat="43.385555" lon="11.1303883"><ele>216.0</ele><time>2026-04-25T15:15:04.724Z</time></trkpt><trkpt lat="43.3855033" lon="11.1305867"><ele>215.0</ele><time>2026-04-25T15:15:05.723Z</time></trkpt><trkpt lat="43.385465" lon="11.130785"><ele>209.0</ele><time>2026-04-25T15:15:06.725Z</time></trkpt><trkpt lat="43.3854283" lon="11.1309833"><ele>203.0</ele><time>2026-04-25T15:15:07.724Z</time></trkpt><trkpt lat="43.3853917" lon="11.1311783"><ele>197.0</ele><time>2026-04-25T15:15:08.724Z</time></trkpt><trkpt lat="43.385365" lon="11.1313733"><ele>191.0</ele><time>2026-04-25T15:15:09.724Z</time></trkpt><trkpt lat="43.3853633" lon="11.1315517"><ele>189.0</ele><time>2026-04-25T15:15:10.724Z</time></trkpt><trkpt lat="43.38538" lon="11.131725"><ele>187.0</ele><time>2026-04-25T15:15:11.726Z</time></trkpt><trkpt lat="43.3853967" lon="11.131895"><ele>185.0</ele><time>2026-04-25T15:15:12.723Z</time></trkpt><trkpt lat="43.3854183" lon="11.1320617"><ele>183.0</ele><time>2026-04-25T15:15:13.723Z</time></trkpt><trkpt lat="43.385435" lon="11.1321867"><ele>183.0</ele><time>2026-04-25T15:15:14.725Z</time></trkpt><trkpt lat="43.3854267" lon="11.132305"><ele>183.0</ele><time>2026-04-25T15:15:15.723Z</time></trkpt><trkpt lat="43.3853983" lon="11.13241"><ele>183.0</ele><time>2026-04-25T15:15:16.724Z</time></trkpt><trkpt lat="43.3853217" lon="11.1324733"><ele>183.0</ele><time>2026-04-25T15:15:17.724Z</time></trkpt><trkpt lat="43.3852267" lon="11.1325333"><ele>183.0</ele><time>2026-04-25T15:15:18.724Z</time></trkpt><trkpt lat="43.3850967" lon="11.132585"><ele>182.8</ele><time>2026-04-25T15:15:19.724Z</time></trkpt><trkpt lat="43.3849817" lon="11.13262"><ele>182.60000000000002</ele><time>2026-04-25T15:15:20.724Z</time></trkpt><trkpt lat="43.3848733" lon="11.1326517"><ele>182.39999999999998</ele><time>2026-04-25T15:15:21.724Z</time></trkpt><trkpt lat="43.3847783" lon="11.1326817"><ele>182.2</ele><time>2026-04-25T15:15:22.724Z</time></trkpt><trkpt lat="43.38471" lon="11.132715"><ele>182.0</ele><time>2026-04-25T15:15:23.722Z</time></trkpt><trkpt lat="43.384635" lon="11.1327783"><ele>182.0</ele><time>2026-04-25T15:15:25.723Z</time></trkpt><trkpt lat="43.3846317" lon="11.1328733"><ele>182.0</ele><time>2026-04-25T15:15:33.724Z</time></trkpt><trkpt lat="43.384755" lon="11.132905"><ele>182.0</ele><time>2026-04-25T15:15:35.723Z</time></trkpt><trkpt lat="43.3848533" lon="11.1329317"><ele>182.0</ele><time>2026-04-25T15:15:36.722Z</time></trkpt><trkpt lat="43.38497" lon="11.13297"><ele>182.0</ele><time>2026-04-25T15:15:37.723Z</time></trkpt><trkpt lat="43.385095" lon="11.1330317"><ele>181.5</ele><time>2026-04-25T15:15:38.723Z</time></trkpt><trkpt lat="43.3852283" lon="11.133085"><ele>181.0</ele><time>2026-04-25T15:15:39.723Z</time></trkpt><trkpt lat="43.3853617" lon="11.133135"><ele>180.5</ele><time>2026-04-25T15:15:40.724Z</time></trkpt><trkpt lat="43.3854933" lon="11.1331883"><ele>180.0</ele><time>2026-04-25T15:15:41.725Z</time></trkpt><trkpt lat="43.3856233" lon="11.1332483"><ele>179.75</ele><time>2026-04-25T15:15:42.725Z</time></trkpt><trkpt lat="43.3857467" lon="11.1333167"><ele>179.5</ele><time>2026-04-25T15:15:43.724Z</time></trkpt><trkpt lat="43.3858517" lon="11.133395"><ele>179.25</ele><time>2026-04-25T15:15:44.726Z</time></trkpt><trkpt lat="43.3859367" lon="11.1334783"><ele>179.0</ele><time>2026-04-25T15:15:45.723Z</time></trkpt><trkpt lat="43.3860117" lon="11.1335717"><ele>179.0</ele><time>2026-04-25T15:15:46.723Z</time></trkpt><trkpt lat="43.3860867" lon="11.1336583"><ele>179.0</ele><time>2026-04-25T15:15:47.724Z</time></trkpt><trkpt lat="43.3861683" lon="11.1337267"><ele>179.0</ele><time>2026-04-25T15:15:48.723Z</time></trkpt><trkpt lat="43.386265" lon="11.1337667"><ele>179.0</ele><time>2026-04-25T15:15:49.725Z</time></trkpt><trkpt lat="43.386375" lon="11.1337783"><ele>179.0</ele><time>2026-04-25T15:15:50.724Z</time></trkpt><trkpt lat="43.3864983" lon="11.1337317"><ele>180.66666666666666</ele><time>2026-04-25T15:15:51.723Z</time></trkpt><trkpt lat="43.3866467" lon="11.133645"><ele>182.33333333333334</ele><time>2026-04-25T15:15:52.724Z</time></trkpt><trkpt lat="43.3868067" lon="11.13353"><ele>184.0</ele><time>2026-04-25T15:15:53.723Z</time></trkpt><trkpt lat="43.3869633" lon="11.1333983"><ele>184.0</ele><time>2026-04-25T15:15:54.725Z</time></trkpt><trkpt lat="43.3871217" lon="11.1332617"><ele>184.0</ele><time>2026-04-25T15:15:55.724Z</time></trkpt><trkpt lat="43.387275" lon="11.1331317"><ele>184.0</ele><time>2026-04-25T15:15:56.725Z</time></trkpt><trkpt lat="43.3874183" lon="11.1330117"><ele>183.33333333333334</ele><time>2026-04-25T15:15:57.724Z</time></trkpt><trkpt lat="43.3875567" lon="11.1329183"><ele>182.66666666666666</ele><time>2026-04-25T15:15:58.723Z</time></trkpt><trkpt lat="43.3877033" lon="11.1328633"><ele>182.0</ele><time>2026-04-25T15:15:59.724Z</time></trkpt><trkpt lat="43.387855" lon="11.1328483"><ele>182.33333333333331</ele><time>2026-04-25T15:16:00.725Z</time></trkpt><trkpt lat="43.38802" lon="11.13286"><ele>182.66666666666666</ele><time>2026-04-25T15:16:01.724Z</time></trkpt><trkpt lat="43.388205" lon="11.1328883"><ele>183.0</ele><time>2026-04-25T15:16:02.725Z</time></trkpt><trkpt lat="43.3884033" lon="11.1329217"><ele>183.0</ele><time>2026-04-25T15:16:03.724Z</time></trkpt><trkpt lat="43.3885933" lon="11.1329467"><ele>183.0</ele><time>2026-04-25T15:16:04.725Z</time></trkpt><trkpt lat="43.3887817" lon="11.132965"><ele>183.0</ele><time>2026-04-25T15:16:05.723Z</time></trkpt><trkpt lat="43.388965" lon="11.1329683"><ele>182.66666666666666</ele><time>2026-04-25T15:16:06.725Z</time></trkpt><trkpt lat="43.389145" lon="11.1329517"><ele>182.33333333333331</ele><time>2026-04-25T15:16:07.723Z</time></trkpt><trkpt lat="43.389325" lon="11.1329233"><ele>182.0</ele><time>2026-04-25T15:16:08.724Z</time></trkpt><trkpt lat="43.389505" lon="11.1328883"><ele>182.0</ele><time>2026-04-25T15:16:09.723Z</time></trkpt><trkpt lat="43.3896783" lon="11.1328483"><ele>182.0</ele><time>2026-04-25T15:16:10.724Z</time></trkpt><trkpt lat="43.3898567" lon="11.132815"><ele>182.0</ele><time>2026-04-25T15:16:11.723Z</time></trkpt><trkpt lat="43.3900233" lon="11.1327867"><ele>182.0</ele><time>2026-04-25T15:16:12.724Z</time></trkpt><trkpt lat="43.3901783" lon="11.13276"><ele>182.0</ele><time>2026-04-25T15:16:13.722Z</time></trkpt><trkpt lat="43.39033" lon="11.1327383"><ele>182.0</ele><time>2026-04-25T15:16:14.724Z</time></trkpt><trkpt lat="43.39048" lon="11.132715"><ele>181.75</ele><time>2026-04-25T15:16:15.724Z</time></trkpt><trkpt lat="43.39063" lon="11.132685"><ele>181.5</ele><time>2026-04-25T15:16:16.724Z</time></trkpt><trkpt lat="43.3907767" lon="11.1326533"><ele>181.25</ele><time>2026-04-25T15:16:17.725Z</time></trkpt><trkpt lat="43.3909117" lon="11.1326233"><ele>181.0</ele><time>2026-04-25T15:16:18.726Z</time></trkpt><trkpt lat="43.39104" lon="11.13261"><ele>181.0</ele><time>2026-04-25T15:16:19.723Z</time></trkpt><trkpt lat="43.3911683" lon="11.1326267"><ele>181.0</ele><time>2026-04-25T15:16:20.724Z</time></trkpt><trkpt lat="43.3913" lon="11.1326617"><ele>181.0</ele><time>2026-04-25T15:16:21.724Z</time></trkpt><trkpt lat="43.3914317" lon="11.13271"><ele>181.0</ele><time>2026-04-25T15:16:22.724Z</time></trkpt><trkpt lat="43.39156" lon="11.1327717"><ele>181.5</ele><time>2026-04-25T15:16:23.725Z</time></trkpt><trkpt lat="43.39168" lon="11.132845"><ele>182.0</ele><time>2026-04-25T15:16:24.725Z</time></trkpt><trkpt lat="43.391795" lon="11.1329367"><ele>182.5</ele><time>2026-04-25T15:16:25.723Z</time></trkpt><trkpt lat="43.3919033" lon="11.1330483"><ele>183.0</ele><time>2026-04-25T15:16:26.725Z</time></trkpt><trkpt lat="43.3920017" lon="11.1331883"><ele>183.0</ele><time>2026-04-25T15:16:27.724Z</time></trkpt><trkpt lat="43.3920983" lon="11.13335"><ele>183.0</ele><time>2026-04-25T15:16:28.725Z</time></trkpt><trkpt lat="43.392195" lon="11.13352"><ele>183.0</ele><time>2026-04-25T15:16:29.723Z</time></trkpt><trkpt lat="43.39229" lon="11.1336983"><ele>183.33333333333334</ele><time>2026-04-25T15:16:30.723Z</time></trkpt><trkpt lat="43.39239" lon="11.1338817"><ele>183.66666666666669</ele><time>2026-04-25T15:16:31.724Z</time></trkpt><trkpt lat="43.392495" lon="11.134055"><ele>184.0</ele><time>2026-04-25T15:16:32.724Z</time></trkpt><trkpt lat="43.3926083" lon="11.1342217"><ele>184.0</ele><time>2026-04-25T15:16:33.723Z</time></trkpt><trkpt lat="43.392735" lon="11.1343783"><ele>184.0</ele><time>2026-04-25T15:16:34.725Z</time></trkpt><trkpt lat="43.3928683" lon="11.13453"><ele>184.0</ele><time>2026-04-25T15:16:35.723Z</time></trkpt><trkpt lat="43.3930067" lon="11.134665"><ele>183.0</ele><time>2026-04-25T15:16:36.725Z</time></trkpt><trkpt lat="43.39315" lon="11.1347833"><ele>182.0</ele><time>2026-04-25T15:16:37.723Z</time></trkpt><trkpt lat="43.3932983" lon="11.1348933"><ele>181.0</ele><time>2026-04-25T15:16:38.725Z</time></trkpt><trkpt lat="43.39345" lon="11.134995"><ele>181.0</ele><time>2026-04-25T15:16:39.724Z</time></trkpt><trkpt lat="43.3936067" lon="11.135095"><ele>181.0</ele><time>2026-04-25T15:16:40.723Z</time></trkpt><trkpt lat="43.3937667" lon="11.1351917"><ele>181.0</ele><time>2026-04-25T15:16:41.725Z</time></trkpt><trkpt lat="43.39393" lon="11.1352883"><ele>181.0</ele><time>2026-04-25T15:16:42.723Z</time></trkpt><trkpt lat="43.394095" lon="11.1353883"><ele>181.0</ele><time>2026-04-25T15:16:43.724Z</time></trkpt><trkpt lat="43.3942567" lon="11.1354833"><ele>181.0</ele><time>2026-04-25T15:16:44.724Z</time></trkpt><trkpt lat="43.3944183" lon="11.1355783"><ele>181.0</ele><time>2026-04-25T15:16:45.724Z</time></trkpt><trkpt lat="43.3945733" lon="11.1356667"><ele>181.0</ele><time>2026-04-25T15:16:46.722Z</time></trkpt><trkpt lat="43.3947167" lon="11.1357483"><ele>181.0</ele><time>2026-04-25T15:16:47.725Z</time></trkpt><trkpt lat="43.39485" lon="11.135825"><ele>181.5</ele><time>2026-04-25T15:16:48.725Z</time></trkpt><trkpt lat="43.3949683" lon="11.1359033"><ele>182.0</ele><time>2026-04-25T15:16:49.724Z</time></trkpt><trkpt lat="43.3950683" lon="11.13599"><ele>182.5</ele><time>2026-04-25T15:16:50.725Z</time></trkpt><trkpt lat="43.395145" lon="11.1361083"><ele>183.0</ele><time>2026-04-25T15:16:51.723Z</time></trkpt><trkpt lat="43.3952067" lon="11.136245"><ele>183.0</ele><time>2026-04-25T15:16:52.724Z</time></trkpt><trkpt lat="43.39527" lon="11.1363717"><ele>183.0</ele><time>2026-04-25T15:16:53.726Z</time></trkpt><trkpt lat="43.3953483" lon="11.1364567"><ele>183.0</ele><time>2026-04-25T15:16:54.725Z</time></trkpt><trkpt lat="43.3954417" lon="11.1364933"><ele>183.0</ele><time>2026-04-25T15:16:55.725Z</time></trkpt><trkpt lat="43.3955433" lon="11.1364833"><ele>183.0</ele><time>2026-04-25T15:16:56.726Z</time></trkpt><trkpt lat="43.3956533" lon="11.13645"><ele>183.25</ele><time>2026-04-25T15:16:57.725Z</time></trkpt><trkpt lat="43.3957717" lon="11.1364317"><ele>183.5</ele><time>2026-04-25T15:16:58.726Z</time></trkpt><trkpt lat="43.3959017" lon="11.13646"><ele>183.75</ele><time>2026-04-25T15:16:59.724Z</time></trkpt><trkpt lat="43.3960467" lon="11.13653"><ele>184.0</ele><time>2026-04-25T15:17:00.724Z</time></trkpt><trkpt lat="43.3962033" lon="11.1366267"><ele>185.0</ele><time>2026-04-25T15:17:01.723Z</time></trkpt><trkpt lat="43.3963683" lon="11.1367333"><ele>186.0</ele><time>2026-04-25T15:17:02.723Z</time></trkpt><trkpt lat="43.396535" lon="11.13684"><ele>187.0</ele><time>2026-04-25T15:17:03.723Z</time></trkpt><trkpt lat="43.396705" lon="11.1369533"><ele>187.0</ele><time>2026-04-25T15:17:04.724Z</time></trkpt><trkpt lat="43.396875" lon="11.1370833"><ele>187.0</ele><time>2026-04-25T15:17:05.724Z</time></trkpt><trkpt lat="43.3970367" lon="11.13723"><ele>187.0</ele><time>2026-04-25T15:17:06.724Z</time></trkpt><trkpt lat="43.3971933" lon="11.1373983"><ele>185.66666666666669</ele><time>2026-04-25T15:17:07.725Z</time></trkpt><trkpt lat="43.3973517" lon="11.137575"><ele>184.33333333333334</ele><time>2026-04-25T15:17:08.725Z</time></trkpt><trkpt lat="43.397515" lon="11.13775"><ele>183.0</ele><time>2026-04-25T15:17:09.725Z</time></trkpt><trkpt lat="43.39768" lon="11.1379117"><ele>183.0</ele><time>2026-04-25T15:17:10.725Z</time></trkpt><trkpt lat="43.397845" lon="11.138055"><ele>183.0</ele><time>2026-04-25T15:17:11.723Z</time></trkpt><trkpt lat="43.3980167" lon="11.1381783"><ele>183.0</ele><time>2026-04-25T15:17:12.723Z</time></trkpt><trkpt lat="43.398195" lon="11.1382717"><ele>183.33333333333334</ele><time>2026-04-25T15:17:13.724Z</time></trkpt><trkpt lat="43.3983817" lon="11.1383417"><ele>183.66666666666669</ele><time>2026-04-25T15:17:14.726Z</time></trkpt><trkpt lat="43.3985733" lon="11.1383933"><ele>184.0</ele><time>2026-04-25T15:17:15.723Z</time></trkpt><trkpt lat="43.39877" lon="11.1384283"><ele>184.0</ele><time>2026-04-25T15:17:16.724Z</time></trkpt><trkpt lat="43.398965" lon="11.138445"><ele>184.0</ele><time>2026-04-25T15:17:17.725Z</time></trkpt><trkpt lat="43.399165" lon="11.138435"><ele>184.0</ele><time>2026-04-25T15:17:18.725Z</time></trkpt><trkpt lat="43.39937" lon="11.1384033"><ele>184.0</ele><time>2026-04-25T15:17:19.724Z</time></trkpt><trkpt lat="43.3995717" lon="11.13835"><ele>184.0</ele><time>2026-04-25T15:17:20.724Z</time></trkpt><trkpt lat="43.3997783" lon="11.13829"><ele>184.0</ele><time>2026-04-25T15:17:21.723Z</time></trkpt><trkpt lat="43.3999867" lon="11.1382317"><ele>183.33333333333334</ele><time>2026-04-25T15:17:22.726Z</time></trkpt><trkpt lat="43.4001917" lon="11.1381833"><ele>182.66666666666666</ele><time>2026-04-25T15:17:23.726Z</time></trkpt><trkpt lat="43.4003933" lon="11.13814"><ele>182.0</ele><time>2026-04-25T15:17:24.726Z</time></trkpt><trkpt lat="43.4005933" lon="11.138115"><ele>181.0</ele><time>2026-04-25T15:17:25.723Z</time></trkpt><trkpt lat="43.4007933" lon="11.1381167"><ele>180.0</ele><time>2026-04-25T15:17:26.725Z</time></trkpt><trkpt lat="43.4009883" lon="11.13814"><ele>179.0</ele><time>2026-04-25T15:17:27.725Z</time></trkpt><trkpt lat="43.4011783" lon="11.1381933"><ele>179.33333333333331</ele><time>2026-04-25T15:17:28.726Z</time></trkpt><trkpt lat="43.4013633" lon="11.138265"><ele>179.66666666666666</ele><time>2026-04-25T15:17:29.723Z</time></trkpt><trkpt lat="43.4015433" lon="11.138355"><ele>180.0</ele><time>2026-04-25T15:17:30.723Z</time></trkpt><trkpt lat="43.4017167" lon="11.1384683"><ele>180.0</ele><time>2026-04-25T15:17:31.723Z</time></trkpt><trkpt lat="43.4018833" lon="11.1385967"><ele>180.0</ele><time>2026-04-25T15:17:32.724Z</time></trkpt><trkpt lat="43.4020417" lon="11.13874"><ele>180.0</ele><time>2026-04-25T15:17:33.723Z</time></trkpt><trkpt lat="43.40219" lon="11.13889"><ele>179.33333333333334</ele><time>2026-04-25T15:17:34.724Z</time></trkpt><trkpt lat="43.4023317" lon="11.139055"><ele>178.66666666666669</ele><time>2026-04-25T15:17:35.725Z</time></trkpt><trkpt lat="43.40247" lon="11.1392167"><ele>178.0</ele><time>2026-04-25T15:17:36.724Z</time></trkpt><trkpt lat="43.40261" lon="11.13938"><ele>178.0</ele><time>2026-04-25T15:17:37.725Z</time></trkpt><trkpt lat="43.4027583" lon="11.1395467"><ele>178.0</ele><time>2026-04-25T15:17:38.726Z</time></trkpt><trkpt lat="43.4029083" lon="11.1397067"><ele>178.0</ele><time>2026-04-25T15:17:39.724Z</time></trkpt><trkpt lat="43.4030617" lon="11.1398667"><ele>177.0</ele><time>2026-04-25T15:17:40.724Z</time></trkpt><trkpt lat="43.403215" lon="11.1400267"><ele>176.0</ele><time>2026-04-25T15:17:41.724Z</time></trkpt><trkpt lat="43.4033733" lon="11.1401867"><ele>175.0</ele><time>2026-04-25T15:17:42.723Z</time></trkpt><trkpt lat="43.4035333" lon="11.1403417"><ele>175.0</ele><time>2026-04-25T15:17:43.725Z</time></trkpt><trkpt lat="43.4036917" lon="11.1404967"><ele>175.0</ele><time>2026-04-25T15:17:44.724Z</time></trkpt><trkpt lat="43.40385" lon="11.1406483"><ele>175.0</ele><time>2026-04-25T15:17:45.725Z</time></trkpt><trkpt lat="43.4040017" lon="11.1407967"><ele>174.66666666666669</ele><time>2026-04-25T15:17:46.725Z</time></trkpt><trkpt lat="43.4041483" lon="11.140945"><ele>174.33333333333334</ele><time>2026-04-25T15:17:47.727Z</time></trkpt><trkpt lat="43.4042883" lon="11.1410867"><ele>174.0</ele><time>2026-04-25T15:17:48.724Z</time></trkpt><trkpt lat="43.404425" lon="11.1412233"><ele>174.0</ele><time>2026-04-25T15:17:49.725Z</time></trkpt><trkpt lat="43.40456" lon="11.14136"><ele>174.0</ele><time>2026-04-25T15:17:50.725Z</time></trkpt><trkpt lat="43.4046967" lon="11.1414983"><ele>174.0</ele><time>2026-04-25T15:17:51.725Z</time></trkpt><trkpt lat="43.4048333" lon="11.1416383"><ele>173.66666666666666</ele><time>2026-04-25T15:17:52.725Z</time></trkpt><trkpt lat="43.40497" lon="11.1417817"><ele>173.33333333333331</ele><time>2026-04-25T15:17:53.724Z</time></trkpt><trkpt lat="43.4051033" lon="11.14192"><ele>173.0</ele><time>2026-04-25T15:17:54.725Z</time></trkpt><trkpt lat="43.4052317" lon="11.1420417"><ele>173.0</ele><time>2026-04-25T15:17:55.723Z</time></trkpt><trkpt lat="43.40535" lon="11.1421583"><ele>173.0</ele><time>2026-04-25T15:17:56.725Z</time></trkpt><trkpt lat="43.4054633" lon="11.14227"><ele>173.0</ele><time>2026-04-25T15:17:57.725Z</time></trkpt><trkpt lat="43.4055667" lon="11.1423733"><ele>173.0</ele><time>2026-04-25T15:17:58.725Z</time></trkpt><trkpt lat="43.40566" lon="11.1424667"><ele>172.66666666666666</ele><time>2026-04-25T15:17:59.724Z</time></trkpt><trkpt lat="43.4057483" lon="11.1425583"><ele>172.33333333333331</ele><time>2026-04-25T15:18:00.722Z</time></trkpt><trkpt lat="43.4058267" lon="11.1426433"><ele>172.0</ele><time>2026-04-25T15:18:01.725Z</time></trkpt><trkpt lat="43.4058883" lon="11.1427233"><ele>171.66666666666666</ele><time>2026-04-25T15:18:02.725Z</time></trkpt><trkpt lat="43.4059333" lon="11.1427933"><ele>171.33333333333334</ele><time>2026-04-25T15:18:03.724Z</time></trkpt><trkpt lat="43.4059767" lon="11.1428817"><ele>171.0</ele><time>2026-04-25T15:18:05.725Z</time></trkpt><trkpt lat="43.406035" lon="11.1429833"><ele>171.0</ele><time>2026-04-25T15:18:07.724Z</time></trkpt><trkpt lat="43.4060817" lon="11.143055"><ele>171.0</ele><time>2026-04-25T15:18:08.724Z</time></trkpt><trkpt lat="43.4061417" lon="11.1431267"><ele>171.0</ele><time>2026-04-25T15:18:09.725Z</time></trkpt><trkpt lat="43.4062167" lon="11.14318"><ele>171.0</ele><time>2026-04-25T15:18:10.724Z</time></trkpt><trkpt lat="43.4063033" lon="11.1432183"><ele>171.0</ele><time>2026-04-25T15:18:11.725Z</time></trkpt><trkpt lat="43.4063967" lon="11.1432567"><ele>171.0</ele><time>2026-04-25T15:18:12.725Z</time></trkpt><trkpt lat="43.4064933" lon="11.1433133"><ele>171.5</ele><time>2026-04-25T15:18:13.725Z</time></trkpt><trkpt lat="43.4065917" lon="11.143395"><ele>172.0</ele><time>2026-04-25T15:18:14.725Z</time></trkpt><trkpt lat="43.4067067" lon="11.1434933"><ele>172.5</ele><time>2026-04-25T15:18:15.725Z</time></trkpt><trkpt lat="43.4068367" lon="11.1436017"><ele>173.0</ele><time>2026-04-25T15:18:16.725Z</time></trkpt><trkpt lat="43.4069767" lon="11.1437317"><ele>173.0</ele><time>2026-04-25T15:18:17.725Z</time></trkpt><trkpt lat="43.4071283" lon="11.14388"><ele>173.0</ele><time>2026-04-25T15:18:18.725Z</time></trkpt><trkpt lat="43.4072817" lon="11.1440283"><ele>173.0</ele><time>2026-04-25T15:18:19.725Z</time></trkpt><trkpt lat="43.4074317" lon="11.1441917"><ele>174.0</ele><time>2026-04-25T15:18:20.724Z</time></trkpt><trkpt lat="43.4075767" lon="11.1443717"><ele>175.0</ele><time>2026-04-25T15:18:21.723Z</time></trkpt><trkpt lat="43.4077083" lon="11.1445567"><ele>176.0</ele><time>2026-04-25T15:18:22.725Z</time></trkpt><trkpt lat="43.4078233" lon="11.1447433"><ele>176.66666666666666</ele><time>2026-04-25T15:18:23.724Z</time></trkpt><trkpt lat="43.4079333" lon="11.14493"><ele>177.33333333333334</ele><time>2026-04-25T15:18:24.725Z</time></trkpt><trkpt lat="43.408035" lon="11.1451217"><ele>178.0</ele><time>2026-04-25T15:18:25.724Z</time></trkpt><trkpt lat="43.4081233" lon="11.1453167"><ele>179.0</ele><time>2026-04-25T15:18:26.724Z</time></trkpt><trkpt lat="43.408195" lon="11.14552"><ele>180.0</ele><time>2026-04-25T15:18:27.725Z</time></trkpt><trkpt lat="43.4082517" lon="11.14573"><ele>181.0</ele><time>2026-04-25T15:18:28.725Z</time></trkpt><trkpt lat="43.4082933" lon="11.1459483"><ele>182.0</ele><time>2026-04-25T15:18:29.725Z</time></trkpt><trkpt lat="43.408325" lon="11.1461733"><ele>183.0</ele><time>2026-04-25T15:18:30.724Z</time></trkpt><trkpt lat="43.4083483" lon="11.1463983"><ele>184.0</ele><time>2026-04-25T15:18:31.723Z</time></trkpt><trkpt lat="43.4083633" lon="11.1466367"><ele>186.66666666666669</ele><time>2026-04-25T15:18:32.723Z</time></trkpt><trkpt lat="43.4083717" lon="11.146875"><ele>189.33333333333334</ele><time>2026-04-25T15:18:33.727Z</time></trkpt><trkpt lat="43.4083783" lon="11.147115"><ele>192.0</ele><time>2026-04-25T15:18:34.725Z</time></trkpt><trkpt lat="43.40838" lon="11.1473583"><ele>193.66666666666669</ele><time>2026-04-25T15:18:35.725Z</time></trkpt><trkpt lat="43.4083833" lon="11.147605"><ele>195.33333333333334</ele><time>2026-04-25T15:18:36.722Z</time></trkpt><trkpt lat="43.4083867" lon="11.1478567"><ele>197.0</ele><time>2026-04-25T15:18:37.724Z</time></trkpt><trkpt lat="43.4083917" lon="11.1480967"><ele>198.66666666666669</ele><time>2026-04-25T15:18:38.724Z</time></trkpt><trkpt lat="43.4084017" lon="11.1483233"><ele>200.33333333333331</ele><time>2026-04-25T15:18:39.724Z</time></trkpt><trkpt lat="43.4084183" lon="11.1485433"><ele>202.0</ele><time>2026-04-25T15:18:40.723Z</time></trkpt><trkpt lat="43.40845" lon="11.1487517"><ele>202.0</ele><time>2026-04-25T15:18:41.723Z</time></trkpt><trkpt lat="43.4084883" lon="11.14896"><ele>202.0</ele><time>2026-04-25T15:18:42.725Z</time></trkpt><trkpt lat="43.40854" lon="11.1491867"><ele>202.0</ele><time>2026-04-25T15:18:43.723Z</time></trkpt><trkpt lat="43.4086033" lon="11.149425"><ele>202.66666666666666</ele><time>2026-04-25T15:18:44.724Z</time></trkpt><trkpt lat="43.4086667" lon="11.1496717"><ele>203.33333333333331</ele><time>2026-04-25T15:18:45.723Z</time></trkpt><trkpt lat="43.40873" lon="11.1499083"><ele>204.0</ele><time>2026-04-25T15:18:46.723Z</time></trkpt><trkpt lat="43.4088" lon="11.15013"><ele>207.33333333333331</ele><time>2026-04-25T15:18:47.724Z</time></trkpt><trkpt lat="43.4088817" lon="11.150335"><ele>210.66666666666666</ele><time>2026-04-25T15:18:48.723Z</time></trkpt><trkpt lat="43.4089733" lon="11.1505183"><ele>214.0</ele><time>2026-04-25T15:18:49.724Z</time></trkpt><trkpt lat="43.409075" lon="11.1506933"><ele>214.33333333333331</ele><time>2026-04-25T15:18:50.725Z</time></trkpt><trkpt lat="43.4091767" lon="11.150865"><ele>214.66666666666669</ele><time>2026-04-25T15:18:51.723Z</time></trkpt><trkpt lat="43.4092833" lon="11.151035"><ele>215.0</ele><time>2026-04-25T15:18:52.724Z</time></trkpt><trkpt lat="43.4093933" lon="11.1511983"><ele>215.0</ele><time>2026-04-25T15:18:53.725Z</time></trkpt><trkpt lat="43.40951" lon="11.15136"><ele>215.0</ele><time>2026-04-25T15:18:54.724Z</time></trkpt><trkpt lat="43.4096333" lon="11.151515"><ele>215.0</ele><time>2026-04-25T15:18:55.725Z</time></trkpt><trkpt lat="43.4097583" lon="11.15167"><ele>218.0</ele><time>2026-04-25T15:18:56.726Z</time></trkpt><trkpt lat="43.409885" lon="11.1518267"><ele>221.0</ele><time>2026-04-25T15:18:57.725Z</time></trkpt><trkpt lat="43.4100117" lon="11.151985"><ele>224.0</ele><time>2026-04-25T15:18:58.723Z</time></trkpt><trkpt lat="43.410135" lon="11.1521383"><ele>224.0</ele><time>2026-04-25T15:18:59.723Z</time></trkpt><trkpt lat="43.4102517" lon="11.1522883"><ele>224.0</ele><time>2026-04-25T15:19:00.724Z</time></trkpt><trkpt lat="43.4103717" lon="11.1524333"><ele>224.0</ele><time>2026-04-25T15:19:01.723Z</time></trkpt><trkpt lat="43.410495" lon="11.1525767"><ele>226.0</ele><time>2026-04-25T15:19:02.725Z</time></trkpt><trkpt lat="43.4106183" lon="11.1527217"><ele>228.0</ele><time>2026-04-25T15:19:03.723Z</time></trkpt><trkpt lat="43.4107417" lon="11.152865"><ele>230.0</ele><time>2026-04-25T15:19:04.725Z</time></trkpt><trkpt lat="43.41086" lon="11.153015"><ele>230.0</ele><time>2026-04-25T15:19:05.722Z</time></trkpt><trkpt lat="43.41097" lon="11.153165"><ele>230.0</ele><time>2026-04-25T15:19:06.724Z</time></trkpt><trkpt lat="43.4110767" lon="11.15331"><ele>230.0</ele><time>2026-04-25T15:19:07.722Z</time></trkpt><trkpt lat="43.4111833" lon="11.1534533"><ele>230.0</ele><time>2026-04-25T15:19:08.724Z</time></trkpt><trkpt lat="43.4112867" lon="11.153585"><ele>230.0</ele><time>2026-04-25T15:19:09.725Z</time></trkpt><trkpt lat="43.4113867" lon="11.15372"><ele>230.0</ele><time>2026-04-25T15:19:10.725Z</time></trkpt><trkpt lat="43.41149" lon="11.1538733"><ele>230.0</ele><time>2026-04-25T15:19:11.723Z</time></trkpt><trkpt lat="43.4115983" lon="11.154045"><ele>230.33333333333334</ele><time>2026-04-25T15:19:12.724Z</time></trkpt><trkpt lat="43.411705" lon="11.1542367"><ele>230.66666666666669</ele><time>2026-04-25T15:19:13.723Z</time></trkpt><trkpt lat="43.41181" lon="11.1544483"><ele>231.0</ele><time>2026-04-25T15:19:14.723Z</time></trkpt><trkpt lat="43.4119017" lon="11.1546767"><ele>231.0</ele><time>2026-04-25T15:19:15.723Z</time></trkpt><trkpt lat="43.41198" lon="11.1549217"><ele>231.0</ele><time>2026-04-25T15:19:16.722Z</time></trkpt><trkpt lat="43.412045" lon="11.15518"><ele>231.0</ele><time>2026-04-25T15:19:17.723Z</time></trkpt><trkpt lat="43.4121033" lon="11.15544"><ele>230.66666666666669</ele><time>2026-04-25T15:19:18.724Z</time></trkpt><trkpt lat="43.4121567" lon="11.1557"><ele>230.33333333333334</ele><time>2026-04-25T15:19:19.723Z</time></trkpt><trkpt lat="43.41221" lon="11.155965"><ele>230.0</ele><time>2026-04-25T15:19:20.725Z</time></trkpt><trkpt lat="43.412265" lon="11.1562117"><ele>230.0</ele><time>2026-04-25T15:19:21.723Z</time></trkpt><trkpt lat="43.4123283" lon="11.1564583"><ele>230.0</ele><time>2026-04-25T15:19:22.724Z</time></trkpt><trkpt lat="43.4124033" lon="11.1566983"><ele>230.0</ele><time>2026-04-25T15:19:23.723Z</time></trkpt><trkpt lat="43.4124883" lon="11.1569283"><ele>229.33333333333334</ele><time>2026-04-25T15:19:24.722Z</time></trkpt><trkpt lat="43.4125783" lon="11.1571483"><ele>228.66666666666669</ele><time>2026-04-25T15:19:25.724Z</time></trkpt><trkpt lat="43.412675" lon="11.15735"><ele>228.0</ele><time>2026-04-25T15:19:26.724Z</time></trkpt><trkpt lat="43.412775" lon="11.15753"><ele>227.75</ele><time>2026-04-25T15:19:27.724Z</time></trkpt><trkpt lat="43.41287" lon="11.157705"><ele>227.5</ele><time>2026-04-25T15:19:28.723Z</time></trkpt><trkpt lat="43.4129583" lon="11.157865"><ele>227.25</ele><time>2026-04-25T15:19:29.722Z</time></trkpt><trkpt lat="43.4130333" lon="11.158005"><ele>227.0</ele><time>2026-04-25T15:19:30.722Z</time></trkpt><trkpt lat="43.4130883" lon="11.1581233"><ele>226.83333333333334</ele><time>2026-04-25T15:19:31.723Z</time></trkpt><trkpt lat="43.4131217" lon="11.1582167"><ele>226.66666666666669</ele><time>2026-04-25T15:19:32.723Z</time></trkpt><trkpt lat="43.4131383" lon="11.15839"><ele>226.5</ele><time>2026-04-25T15:19:34.722Z</time></trkpt><trkpt lat="43.413135" lon="11.1584917"><ele>226.33333333333331</ele><time>2026-04-25T15:19:35.722Z</time></trkpt><trkpt lat="43.41314" lon="11.1586083"><ele>226.16666666666666</ele><time>2026-04-25T15:19:36.723Z</time></trkpt><trkpt lat="43.4131667" lon="11.1587217"><ele>226.0</ele><time>2026-04-25T15:19:37.722Z</time></trkpt><trkpt lat="43.4132" lon="11.1588267"><ele>226.0</ele><time>2026-04-25T15:19:38.724Z</time></trkpt><trkpt lat="43.413265" lon="11.1589067"><ele>226.00000000000003</ele><time>2026-04-25T15:19:39.723Z</time></trkpt><trkpt lat="43.4133417" lon="11.1589817"><ele>226.00000000000003</ele><time>2026-04-25T15:19:40.724Z</time></trkpt><trkpt lat="43.4134367" lon="11.1590683"><ele>226.0</ele><time>2026-04-25T15:19:41.722Z</time></trkpt><trkpt lat="43.4135317" lon="11.1591633"><ele>226.0</ele><time>2026-04-25T15:19:42.723Z</time></trkpt><trkpt lat="43.4136217" lon="11.1592733"><ele>226.25</ele><time>2026-04-25T15:19:43.723Z</time></trkpt><trkpt lat="43.41371" lon="11.1593833"><ele>226.5</ele><time>2026-04-25T15:19:44.724Z</time></trkpt><trkpt lat="43.4138" lon="11.1594967"><ele>226.75</ele><time>2026-04-25T15:19:45.723Z</time></trkpt><trkpt lat="43.4138933" lon="11.1596133"><ele>227.0</ele><time>2026-04-25T15:19:46.723Z</time></trkpt><trkpt lat="43.4139933" lon="11.15974"><ele>227.5</ele><time>2026-04-25T15:19:47.722Z</time></trkpt><trkpt lat="43.414095" lon="11.159875"><ele>228.0</ele><time>2026-04-25T15:19:48.724Z</time></trkpt><trkpt lat="43.4141967" lon="11.1600117"><ele>228.5</ele><time>2026-04-25T15:19:49.723Z</time></trkpt><trkpt lat="43.4142983" lon="11.160145"><ele>229.0</ele><time>2026-04-25T15:19:50.724Z</time></trkpt><trkpt lat="43.4143967" lon="11.16027"><ele>229.0</ele><time>2026-04-25T15:19:51.723Z</time></trkpt><trkpt lat="43.4144933" lon="11.1603933"><ele>229.0</ele><time>2026-04-25T15:19:52.724Z</time></trkpt><trkpt lat="43.4145883" lon="11.1605233"><ele>229.0</ele><time>2026-04-25T15:19:53.723Z</time></trkpt><trkpt lat="43.4146717" lon="11.1606367"><ele>229.0</ele><time>2026-04-25T15:19:54.724Z</time></trkpt><trkpt lat="43.414755" lon="11.1607317"><ele>229.6</ele><time>2026-04-25T15:19:55.721Z</time></trkpt><trkpt lat="43.414845" lon="11.160805"><ele>230.2</ele><time>2026-04-25T15:19:56.724Z</time></trkpt><trkpt lat="43.414945" lon="11.160845"><ele>230.79999999999998</ele><time>2026-04-25T15:19:57.724Z</time></trkpt><trkpt lat="43.41505" lon="11.1608333"><ele>231.39999999999998</ele><time>2026-04-25T15:19:58.723Z</time></trkpt><trkpt lat="43.4151633" lon="11.1607833"><ele>232.0</ele><time>2026-04-25T15:19:59.722Z</time></trkpt><trkpt lat="43.4152817" lon="11.1607"><ele>232.0</ele><time>2026-04-25T15:20:00.724Z</time></trkpt><trkpt lat="43.415405" lon="11.1606067"><ele>232.0</ele><time>2026-04-25T15:20:01.724Z</time></trkpt><trkpt lat="43.4155383" lon="11.1604983"><ele>232.0</ele><time>2026-04-25T15:20:02.724Z</time></trkpt><trkpt lat="43.415675" lon="11.1603783"><ele>232.0</ele><time>2026-04-25T15:20:03.724Z</time></trkpt><trkpt lat="43.415815" lon="11.16025"><ele>232.0</ele><time>2026-04-25T15:20:04.722Z</time></trkpt><trkpt lat="43.41596" lon="11.16013"><ele>232.0</ele><time>2026-04-25T15:20:05.723Z</time></trkpt><trkpt lat="43.4161017" lon="11.16001"><ele>232.0</ele><time>2026-04-25T15:20:06.723Z</time></trkpt><trkpt lat="43.416245" lon="11.1598883"><ele>232.0</ele><time>2026-04-25T15:20:07.722Z</time></trkpt><trkpt lat="43.4164" lon="11.1597683"><ele>232.0</ele><time>2026-04-25T15:20:08.723Z</time></trkpt><trkpt lat="43.4165567" lon="11.1596433"><ele>233.0</ele><time>2026-04-25T15:20:09.724Z</time></trkpt><trkpt lat="43.4167133" lon="11.1595167"><ele>234.0</ele><time>2026-04-25T15:20:10.723Z</time></trkpt><trkpt lat="43.4168733" lon="11.15939"><ele>235.0</ele><time>2026-04-25T15:20:11.724Z</time></trkpt><trkpt lat="43.4170333" lon="11.1592617"><ele>236.66666666666666</ele><time>2026-04-25T15:20:12.724Z</time></trkpt><trkpt lat="43.4171867" lon="11.159145"><ele>238.33333333333331</ele><time>2026-04-25T15:20:13.724Z</time></trkpt><trkpt lat="43.4173333" lon="11.1590633"><ele>240.0</ele><time>2026-04-25T15:20:14.724Z</time></trkpt><trkpt lat="43.4174883" lon="11.1590283"><ele>240.0</ele><time>2026-04-25T15:20:15.723Z</time></trkpt><trkpt lat="43.4176417" lon="11.1590617"><ele>240.0</ele><time>2026-04-25T15:20:16.723Z</time></trkpt><trkpt lat="43.4177783" lon="11.1591533"><ele>240.0</ele><time>2026-04-25T15:20:17.723Z</time></trkpt><trkpt lat="43.4178967" lon="11.1593033"><ele>240.0</ele><time>2026-04-25T15:20:18.723Z</time></trkpt><trkpt lat="43.4180033" lon="11.1594967"><ele>240.0</ele><time>2026-04-25T15:20:19.725Z</time></trkpt><trkpt lat="43.4181083" lon="11.1597033"><ele>240.0</ele><time>2026-04-25T15:20:20.724Z</time></trkpt><trkpt lat="43.4182167" lon="11.159935"><ele>240.0</ele><time>2026-04-25T15:20:21.723Z</time></trkpt><trkpt lat="43.41833" lon="11.1601717"><ele>240.0</ele><time>2026-04-25T15:20:22.724Z</time></trkpt><trkpt lat="43.41844" lon="11.160405"><ele>240.0</ele><time>2026-04-25T15:20:23.723Z</time></trkpt><trkpt lat="43.4185467" lon="11.160635"><ele>240.0</ele><time>2026-04-25T15:20:24.723Z</time></trkpt><trkpt lat="43.41864" lon="11.1608667"><ele>240.0</ele><time>2026-04-25T15:20:25.724Z</time></trkpt><trkpt lat="43.4187233" lon="11.1611067"><ele>240.0</ele><time>2026-04-25T15:20:26.724Z</time></trkpt><trkpt lat="43.418795" lon="11.1613517"><ele>241.33333333333331</ele><time>2026-04-25T15:20:27.722Z</time></trkpt><trkpt lat="43.4188617" lon="11.1616"><ele>242.66666666666666</ele><time>2026-04-25T15:20:28.723Z</time></trkpt><trkpt lat="43.4189167" lon="11.1618517"><ele>244.0</ele><time>2026-04-25T15:20:29.723Z</time></trkpt><trkpt lat="43.4189683" lon="11.1621083"><ele>243.0</ele><time>2026-04-25T15:20:30.723Z</time></trkpt><trkpt lat="43.41902" lon="11.162365"><ele>242.0</ele><time>2026-04-25T15:20:31.723Z</time></trkpt><trkpt lat="43.4190717" lon="11.162625"><ele>241.0</ele><time>2026-04-25T15:20:32.724Z</time></trkpt><trkpt lat="43.419125" lon="11.1628833"><ele>241.0</ele><time>2026-04-25T15:20:33.723Z</time></trkpt><trkpt lat="43.4191817" lon="11.163145"><ele>241.0</ele><time>2026-04-25T15:20:34.723Z</time></trkpt><trkpt lat="43.419235" lon="11.1634017"><ele>241.0</ele><time>2026-04-25T15:20:35.724Z</time></trkpt><trkpt lat="43.41928" lon="11.16365"><ele>241.0</ele><time>2026-04-25T15:20:36.723Z</time></trkpt><trkpt lat="43.4193233" lon="11.1638933"><ele>241.0</ele><time>2026-04-25T15:20:37.723Z</time></trkpt><trkpt lat="43.41936" lon="11.164145"><ele>241.0</ele><time>2026-04-25T15:20:38.725Z</time></trkpt><trkpt lat="43.41939" lon="11.1643933"><ele>240.66666666666666</ele><time>2026-04-25T15:20:39.724Z</time></trkpt><trkpt lat="43.419415" lon="11.1646483"><ele>240.33333333333331</ele><time>2026-04-25T15:20:40.723Z</time></trkpt><trkpt lat="43.41944" lon="11.164905"><ele>240.0</ele><time>2026-04-25T15:20:41.724Z</time></trkpt><trkpt lat="43.4194633" lon="11.1651667"><ele>240.0</ele><time>2026-04-25T15:20:42.723Z</time></trkpt><trkpt lat="43.4194867" lon="11.1654333"><ele>240.0</ele><time>2026-04-25T15:20:43.725Z</time></trkpt><trkpt lat="43.4195067" lon="11.1657017"><ele>240.0</ele><time>2026-04-25T15:20:44.723Z</time></trkpt><trkpt lat="43.4195267" lon="11.1659583"><ele>240.0</ele><time>2026-04-25T15:20:45.723Z</time></trkpt><trkpt lat="43.4195533" lon="11.1662183"><ele>240.0</ele><time>2026-04-25T15:20:46.723Z</time></trkpt><trkpt lat="43.41958" lon="11.16649"><ele>240.0</ele><time>2026-04-25T15:20:47.724Z</time></trkpt><trkpt lat="43.4196067" lon="11.166785"><ele>240.0</ele><time>2026-04-25T15:20:48.724Z</time></trkpt><trkpt lat="43.4196333" lon="11.1670917"><ele>240.0</ele><time>2026-04-25T15:20:49.724Z</time></trkpt><trkpt lat="43.41966" lon="11.1674017"><ele>240.0</ele><time>2026-04-25T15:20:50.724Z</time></trkpt><trkpt lat="43.4196817" lon="11.16771"><ele>240.0</ele><time>2026-04-25T15:20:51.722Z</time></trkpt><trkpt lat="43.4196967" lon="11.1680133"><ele>240.0</ele><time>2026-04-25T15:20:52.724Z</time></trkpt><trkpt lat="43.4197133" lon="11.16831"><ele>240.0</ele><time>2026-04-25T15:20:53.722Z</time></trkpt><trkpt lat="43.4197333" lon="11.1685983"><ele>240.0</ele><time>2026-04-25T15:20:54.724Z</time></trkpt><trkpt lat="43.41976" lon="11.16888"><ele>240.0</ele><time>2026-04-25T15:20:55.723Z</time></trkpt><trkpt lat="43.4197883" lon="11.1691667"><ele>240.33333333333331</ele><time>2026-04-25T15:20:56.724Z</time></trkpt><trkpt lat="43.4198267" lon="11.169445"><ele>240.66666666666666</ele><time>2026-04-25T15:20:57.723Z</time></trkpt><trkpt lat="43.41987" lon="11.1697217"><ele>241.0</ele><time>2026-04-25T15:20:58.724Z</time></trkpt><trkpt lat="43.4199167" lon="11.17"><ele>241.0</ele><time>2026-04-25T15:20:59.723Z</time></trkpt><trkpt lat="43.4199617" lon="11.1702733"><ele>241.0</ele><time>2026-04-25T15:21:00.723Z</time></trkpt><trkpt lat="43.420005" lon="11.170545"><ele>241.0</ele><time>2026-04-25T15:21:01.723Z</time></trkpt><trkpt lat="43.4200483" lon="11.1708083"><ele>241.33333333333331</ele><time>2026-04-25T15:21:02.725Z</time></trkpt><trkpt lat="43.4200933" lon="11.1710667"><ele>241.66666666666669</ele><time>2026-04-25T15:21:03.722Z</time></trkpt><trkpt lat="43.420135" lon="11.1713267"><ele>242.0</ele><time>2026-04-25T15:21:04.725Z</time></trkpt><trkpt lat="43.42017" lon="11.17159"><ele>242.0</ele><time>2026-04-25T15:21:05.723Z</time></trkpt><trkpt lat="43.420195" lon="11.1718517"><ele>242.0</ele><time>2026-04-25T15:21:06.723Z</time></trkpt><trkpt lat="43.4202167" lon="11.1720967"><ele>242.0</ele><time>2026-04-25T15:21:07.724Z</time></trkpt><trkpt lat="43.42023" lon="11.1723383"><ele>241.33333333333334</ele><time>2026-04-25T15:21:08.724Z</time></trkpt><trkpt lat="43.42024" lon="11.17258"><ele>240.66666666666669</ele><time>2026-04-25T15:21:09.726Z</time></trkpt><trkpt lat="43.4202517" lon="11.172825"><ele>240.0</ele><time>2026-04-25T15:21:10.725Z</time></trkpt><trkpt lat="43.4202567" lon="11.173075"><ele>238.0</ele><time>2026-04-25T15:21:11.724Z</time></trkpt><trkpt lat="43.4202583" lon="11.1733317"><ele>236.0</ele><time>2026-04-25T15:21:12.723Z</time></trkpt><trkpt lat="43.420255" lon="11.17359"><ele>234.0</ele><time>2026-04-25T15:21:13.724Z</time></trkpt><trkpt lat="43.4202533" lon="11.173855"><ele>231.66666666666669</ele><time>2026-04-25T15:21:14.726Z</time></trkpt><trkpt lat="43.42025" lon="11.1741117"><ele>229.33333333333334</ele><time>2026-04-25T15:21:15.724Z</time></trkpt><trkpt lat="43.4202567" lon="11.1743617"><ele>227.0</ele><time>2026-04-25T15:21:16.723Z</time></trkpt><trkpt lat="43.4202883" lon="11.174605"><ele>227.0</ele><time>2026-04-25T15:21:17.723Z</time></trkpt><trkpt lat="43.4203317" lon="11.1748417"><ele>227.0</ele><time>2026-04-25T15:21:18.723Z</time></trkpt><trkpt lat="43.4203833" lon="11.1750767"><ele>227.0</ele><time>2026-04-25T15:21:19.724Z</time></trkpt><trkpt lat="43.420455" lon="11.1753067"><ele>225.0</ele><time>2026-04-25T15:21:20.724Z</time></trkpt><trkpt lat="43.4205333" lon="11.175535"><ele>223.0</ele><time>2026-04-25T15:21:21.724Z</time></trkpt><trkpt lat="43.4206167" lon="11.1757683"><ele>221.0</ele><time>2026-04-25T15:21:22.724Z</time></trkpt><trkpt lat="43.420695" lon="11.1760017"><ele>217.66666666666669</ele><time>2026-04-25T15:21:23.724Z</time></trkpt><trkpt lat="43.4207733" lon="11.1762483"><ele>214.33333333333331</ele><time>2026-04-25T15:21:24.724Z</time></trkpt><trkpt lat="43.4208417" lon="11.176485"><ele>211.0</ele><time>2026-04-25T15:21:25.723Z</time></trkpt><trkpt lat="43.420895" lon="11.17673"><ele>206.66666666666666</ele><time>2026-04-25T15:21:26.724Z</time></trkpt><trkpt lat="43.4209333" lon="11.176975"><ele>202.33333333333331</ele><time>2026-04-25T15:21:27.723Z</time></trkpt><trkpt lat="43.42095" lon="11.1772133"><ele>198.0</ele><time>2026-04-25T15:21:28.724Z</time></trkpt><trkpt lat="43.4209583" lon="11.1774483"><ele>195.66666666666666</ele><time>2026-04-25T15:21:29.723Z</time></trkpt><trkpt lat="43.4209617" lon="11.1776783"><ele>193.33333333333331</ele><time>2026-04-25T15:21:30.723Z</time></trkpt><trkpt lat="43.4209683" lon="11.1779033"><ele>191.0</ele><time>2026-04-25T15:21:31.726Z</time></trkpt><trkpt lat="43.4209767" lon="11.1781267"><ele>189.66666666666666</ele><time>2026-04-25T15:21:32.725Z</time></trkpt><trkpt lat="43.4209883" lon="11.178345"><ele>188.33333333333334</ele><time>2026-04-25T15:21:33.724Z</time></trkpt><trkpt lat="43.42101" lon="11.1785583"><ele>187.0</ele><time>2026-04-25T15:21:34.724Z</time></trkpt><trkpt lat="43.4210467" lon="11.1787583"><ele>187.0</ele><time>2026-04-25T15:21:35.724Z</time></trkpt><trkpt lat="43.4210917" lon="11.1789517"><ele>187.0</ele><time>2026-04-25T15:21:36.724Z</time></trkpt><trkpt lat="43.4211433" lon="11.17914"><ele>187.0</ele><time>2026-04-25T15:21:37.724Z</time></trkpt><trkpt lat="43.42119" lon="11.1793117"><ele>187.0</ele><time>2026-04-25T15:21:38.724Z</time></trkpt><trkpt lat="43.4212317" lon="11.1794717"><ele>186.39999999999998</ele><time>2026-04-25T15:21:39.724Z</time></trkpt><trkpt lat="43.4212567" lon="11.1796167"><ele>185.79999999999998</ele><time>2026-04-25T15:21:40.724Z</time></trkpt><trkpt lat="43.4212583" lon="11.17976"><ele>185.2</ele><time>2026-04-25T15:21:41.723Z</time></trkpt><trkpt lat="43.421255" lon="11.17989"><ele>184.6</ele><time>2026-04-25T15:21:42.724Z</time></trkpt><trkpt lat="43.4212767" lon="11.18001"><ele>184.0</ele><time>2026-04-25T15:21:43.724Z</time></trkpt><trkpt lat="43.4213183" lon="11.1801267"><ele>181.25</ele><time>2026-04-25T15:21:44.723Z</time></trkpt><trkpt lat="43.4213817" lon="11.1802283"><ele>178.5</ele><time>2026-04-25T15:21:45.722Z</time></trkpt><trkpt lat="43.4214417" lon="11.1803533"><ele>175.75</ele><time>2026-04-25T15:21:46.722Z</time></trkpt><trkpt lat="43.4214883" lon="11.1805067"><ele>173.0</ele><time>2026-04-25T15:21:47.725Z</time></trkpt><trkpt lat="43.4215333" lon="11.18067"><ele>173.25</ele><time>2026-04-25T15:21:48.724Z</time></trkpt><trkpt lat="43.421585" lon="11.18084"><ele>173.5</ele><time>2026-04-25T15:21:49.724Z</time></trkpt><trkpt lat="43.4216417" lon="11.181"><ele>173.75</ele><time>2026-04-25T15:21:50.724Z</time></trkpt><trkpt lat="43.4217" lon="11.181155"><ele>174.0</ele><time>2026-04-25T15:21:51.724Z</time></trkpt><trkpt lat="43.4217567" lon="11.1813067"><ele>174.0</ele><time>2026-04-25T15:21:52.723Z</time></trkpt><trkpt lat="43.42181" lon="11.181455"><ele>174.0</ele><time>2026-04-25T15:21:53.724Z</time></trkpt><trkpt lat="43.4218583" lon="11.181595"><ele>174.0</ele><time>2026-04-25T15:21:54.724Z</time></trkpt><trkpt lat="43.4219067" lon="11.1817267"><ele>174.0</ele><time>2026-04-25T15:21:55.723Z</time></trkpt><trkpt lat="43.4219567" lon="11.1818567"><ele>174.0</ele><time>2026-04-25T15:21:56.724Z</time></trkpt><trkpt lat="43.4220033" lon="11.1819817"><ele>174.2</ele><time>2026-04-25T15:21:57.724Z</time></trkpt><trkpt lat="43.4220483" lon="11.1821017"><ele>174.39999999999998</ele><time>2026-04-25T15:21:58.724Z</time></trkpt><trkpt lat="43.42209" lon="11.18222"><ele>174.6</ele><time>2026-04-25T15:21:59.723Z</time></trkpt><trkpt lat="43.4221267" lon="11.1823283"><ele>174.8</ele><time>2026-04-25T15:22:00.724Z</time></trkpt><trkpt lat="43.4221617" lon="11.1824283"><ele>175.0</ele><time>2026-04-25T15:22:01.723Z</time></trkpt><trkpt lat="43.4222117" lon="11.1825667"><ele>175.0</ele><time>2026-04-25T15:22:03.725Z</time></trkpt><trkpt lat="43.4222117" lon="11.1826817"><ele>175.0</ele><time>2026-04-25T15:22:06.725Z</time></trkpt><trkpt lat="43.42215" lon="11.1827967"><ele>175.0</ele><time>2026-04-25T15:22:08.724Z</time></trkpt><trkpt lat="43.4220817" lon="11.1828633"><ele>175.0</ele><time>2026-04-25T15:22:09.723Z</time></trkpt><trkpt lat="43.422" lon="11.1829417"><ele>175.0</ele><time>2026-04-25T15:22:10.724Z</time></trkpt><trkpt lat="43.4219033" lon="11.1830317"><ele>175.0</ele><time>2026-04-25T15:22:11.723Z</time></trkpt><trkpt lat="43.4217933" lon="11.1831217"><ele>175.0</ele><time>2026-04-25T15:22:12.723Z</time></trkpt><trkpt lat="43.4216933" lon="11.183215"><ele>175.0</ele><time>2026-04-25T15:22:13.725Z</time></trkpt><trkpt lat="43.4215833" lon="11.1833017"><ele>175.0</ele><time>2026-04-25T15:22:14.724Z</time></trkpt><trkpt lat="43.4214867" lon="11.1833917"><ele>175.0</ele><time>2026-04-25T15:22:15.724Z</time></trkpt><trkpt lat="43.4213883" lon="11.1834767"><ele>175.0</ele><time>2026-04-25T15:22:16.725Z</time></trkpt><trkpt lat="43.4212983" lon="11.18355"><ele>175.0</ele><time>2026-04-25T15:22:17.724Z</time></trkpt><trkpt lat="43.4212217" lon="11.1836283"><ele>175.0</ele><time>2026-04-25T15:22:18.724Z</time></trkpt><trkpt lat="43.421145" lon="11.18371"><ele>175.0</ele><time>2026-04-25T15:22:19.724Z</time></trkpt><trkpt lat="43.4210667" lon="11.1838033"><ele>175.25</ele><time>2026-04-25T15:22:20.726Z</time></trkpt><trkpt lat="43.4209917" lon="11.1839233"><ele>175.5</ele><time>2026-04-25T15:22:21.724Z</time></trkpt><trkpt lat="43.42092" lon="11.184055"><ele>175.75</ele><time>2026-04-25T15:22:22.725Z</time></trkpt><trkpt lat="43.42084" lon="11.184195"><ele>176.0</ele><time>2026-04-25T15:22:23.724Z</time></trkpt><trkpt lat="43.4207733" lon="11.1843367"><ele>176.0</ele><time>2026-04-25T15:22:24.726Z</time></trkpt><trkpt lat="43.420695" lon="11.1844867"><ele>176.0</ele><time>2026-04-25T15:22:25.726Z</time></trkpt><trkpt lat="43.4206167" lon="11.1846367"><ele>176.0</ele><time>2026-04-25T15:22:26.726Z</time></trkpt><trkpt lat="43.4205317" lon="11.1847883"><ele>176.0</ele><time>2026-04-25T15:22:27.724Z</time></trkpt><trkpt lat="43.4204467" lon="11.184935"><ele>176.0</ele><time>2026-04-25T15:22:28.724Z</time></trkpt><trkpt lat="43.4203633" lon="11.1850867"><ele>176.0</ele><time>2026-04-25T15:22:29.723Z</time></trkpt><trkpt lat="43.42028" lon="11.185245"><ele>176.0</ele><time>2026-04-25T15:22:30.727Z</time></trkpt><trkpt lat="43.4202017" lon="11.185395"><ele>176.0</ele><time>2026-04-25T15:22:31.725Z</time></trkpt><trkpt lat="43.4201183" lon="11.1855567"><ele>176.0</ele><time>2026-04-25T15:22:32.723Z</time></trkpt><trkpt lat="43.42003" lon="11.1857117"><ele>176.0</ele><time>2026-04-25T15:22:33.725Z</time></trkpt><trkpt lat="43.4199467" lon="11.18587"><ele>176.0</ele><time>2026-04-25T15:22:34.725Z</time></trkpt><trkpt lat="43.4198667" lon="11.186025"><ele>176.0</ele><time>2026-04-25T15:22:35.723Z</time></trkpt><trkpt lat="43.4197867" lon="11.1861767"><ele>176.0</ele><time>2026-04-25T15:22:36.725Z</time></trkpt><trkpt lat="43.4197117" lon="11.1863183"><ele>176.0</ele><time>2026-04-25T15:22:37.723Z</time></trkpt><trkpt lat="43.41964" lon="11.1864667"><ele>176.0</ele><time>2026-04-25T15:22:38.724Z</time></trkpt><trkpt lat="43.4195617" lon="11.1866167"><ele>176.0</ele><time>2026-04-25T15:22:39.723Z</time></trkpt><trkpt lat="43.419485" lon="11.186765"><ele>175.5</ele><time>2026-04-25T15:22:40.721Z</time></trkpt><trkpt lat="43.419415" lon="11.1869067"><ele>175.0</ele><time>2026-04-25T15:22:41.724Z</time></trkpt><trkpt lat="43.41935" lon="11.1870417"><ele>174.5</ele><time>2026-04-25T15:22:42.724Z</time></trkpt><trkpt lat="43.4192867" lon="11.187165"><ele>174.0</ele><time>2026-04-25T15:22:43.722Z</time></trkpt><trkpt lat="43.4192067" lon="11.1872817"><ele>173.66666666666666</ele><time>2026-04-25T15:22:44.723Z</time></trkpt><trkpt lat="43.4191417" lon="11.18738"><ele>173.33333333333334</ele><time>2026-04-25T15:22:45.722Z</time></trkpt><trkpt lat="43.4190817" lon="11.1874683"><ele>173.0</ele><time>2026-04-25T15:22:46.724Z</time></trkpt><trkpt lat="43.41903" lon="11.1875417"><ele>172.66666666666669</ele><time>2026-04-25T15:22:47.723Z</time></trkpt><trkpt lat="43.4189767" lon="11.1876267"><ele>172.33333333333334</ele><time>2026-04-25T15:22:49.723Z</time></trkpt><trkpt lat="43.4189067" lon="11.1877117"><ele>172.0</ele><time>2026-04-25T15:24:43.722Z</time></trkpt><trkpt lat="43.4188667" lon="11.1877917"><ele>172.0</ele><time>2026-04-25T15:24:44.725Z</time></trkpt><trkpt lat="43.41881" lon="11.187885"><ele>172.0</ele><time>2026-04-25T15:24:45.723Z</time></trkpt><trkpt lat="43.4187467" lon="11.18798"><ele>172.0</ele><time>2026-04-25T15:24:46.725Z</time></trkpt><trkpt lat="43.4186817" lon="11.18808"><ele>172.0</ele><time>2026-04-25T15:24:47.723Z</time></trkpt><trkpt lat="43.4186017" lon="11.1881917"><ele>172.0</ele><time>2026-04-25T15:24:48.725Z</time></trkpt><trkpt lat="43.41853" lon="11.1883017"><ele>171.39999999999998</ele><time>2026-04-25T15:24:49.724Z</time></trkpt><trkpt lat="43.4184617" lon="11.188405"><ele>170.79999999999998</ele><time>2026-04-25T15:24:50.723Z</time></trkpt><trkpt lat="43.418395" lon="11.1884933"><ele>170.2</ele><time>2026-04-25T15:24:51.727Z</time></trkpt><trkpt lat="43.4183183" lon="11.1885633"><ele>169.6</ele><time>2026-04-25T15:24:52.723Z</time></trkpt><trkpt lat="43.41824" lon="11.1886067"><ele>169.0</ele><time>2026-04-25T15:24:53.723Z</time></trkpt><trkpt lat="43.4181617" lon="11.1886483"><ele>169.0</ele><time>2026-04-25T15:24:54.724Z</time></trkpt><trkpt lat="43.418085" lon="11.1886967"><ele>169.0</ele><time>2026-04-25T15:24:55.724Z</time></trkpt><trkpt lat="43.4180417" lon="11.1887617"><ele>169.0</ele><time>2026-04-25T15:24:56.724Z</time></trkpt><trkpt lat="43.4180183" lon="11.18894"><ele>169.0</ele><time>2026-04-25T15:24:58.724Z</time></trkpt><trkpt lat="43.41804" lon="11.1890517"><ele>169.0</ele><time>2026-04-25T15:24:59.725Z</time></trkpt><trkpt lat="43.4180667" lon="11.1891783"><ele>169.25</ele><time>2026-04-25T15:25:00.723Z</time></trkpt><trkpt lat="43.418075" lon="11.1893217"><ele>169.5</ele><time>2026-04-25T15:25:01.726Z</time></trkpt><trkpt lat="43.418065" lon="11.1894867"><ele>169.75</ele><time>2026-04-25T15:25:02.724Z</time></trkpt><trkpt lat="43.4180367" lon="11.1896583"><ele>170.0</ele><time>2026-04-25T15:25:03.725Z</time></trkpt><trkpt lat="43.4179933" lon="11.1898367"><ele>171.33333333333331</ele><time>2026-04-25T15:25:04.724Z</time></trkpt><trkpt lat="43.4179383" lon="11.1900183"><ele>172.66666666666666</ele><time>2026-04-25T15:25:05.724Z</time></trkpt><trkpt lat="43.4178733" lon="11.1902083"><ele>174.0</ele><time>2026-04-25T15:25:06.725Z</time></trkpt><trkpt lat="43.4178033" lon="11.1904"><ele>174.0</ele><time>2026-04-25T15:25:07.724Z</time></trkpt><trkpt lat="43.4177317" lon="11.1905933"><ele>174.0</ele><time>2026-04-25T15:25:08.725Z</time></trkpt><trkpt lat="43.41766" lon="11.19079"><ele>174.0</ele><time>2026-04-25T15:25:09.724Z</time></trkpt><trkpt lat="43.41758" lon="11.19099"><ele>174.0</ele><time>2026-04-25T15:25:10.726Z</time></trkpt><trkpt lat="43.4175033" lon="11.1911883"><ele>174.0</ele><time>2026-04-25T15:25:11.724Z</time></trkpt><trkpt lat="43.4174283" lon="11.191385"><ele>174.0</ele><time>2026-04-25T15:25:12.725Z</time></trkpt><trkpt lat="43.4173533" lon="11.1915883"><ele>174.0</ele><time>2026-04-25T15:25:13.725Z</time></trkpt><trkpt lat="43.4172733" lon="11.191795"><ele>174.0</ele><time>2026-04-25T15:25:14.726Z</time></trkpt><trkpt lat="43.4171917" lon="11.192005"><ele>174.0</ele><time>2026-04-25T15:25:15.724Z</time></trkpt><trkpt lat="43.417115" lon="11.1922183"><ele>173.0</ele><time>2026-04-25T15:25:16.725Z</time></trkpt><trkpt lat="43.417055" lon="11.1924417"><ele>172.0</ele><time>2026-04-25T15:25:17.724Z</time></trkpt><trkpt lat="43.4170083" lon="11.1926683"><ele>171.0</ele><time>2026-04-25T15:25:18.724Z</time></trkpt><trkpt lat="43.4169833" lon="11.1928883"><ele>171.0</ele><time>2026-04-25T15:25:19.725Z</time></trkpt><trkpt lat="43.4169617" lon="11.1930933"><ele>171.0</ele><time>2026-04-25T15:25:20.726Z</time></trkpt><trkpt lat="43.4169183" lon="11.19328"><ele>171.0</ele><time>2026-04-25T15:25:21.724Z</time></trkpt><trkpt lat="43.4168467" lon="11.19345"><ele>171.0</ele><time>2026-04-25T15:25:22.725Z</time></trkpt><trkpt lat="43.41675" lon="11.1935967"><ele>170.0</ele><time>2026-04-25T15:25:23.725Z</time></trkpt><trkpt lat="43.416655" lon="11.1937517"><ele>169.0</ele><time>2026-04-25T15:25:24.725Z</time></trkpt><trkpt lat="43.416565" lon="11.1939333"><ele>168.0</ele><time>2026-04-25T15:25:25.725Z</time></trkpt><trkpt lat="43.41651" lon="11.1941433"><ele>167.66666666666666</ele><time>2026-04-25T15:25:26.724Z</time></trkpt><trkpt lat="43.4164817" lon="11.1943633"><ele>167.33333333333331</ele><time>2026-04-25T15:25:27.722Z</time></trkpt><trkpt lat="43.4165" lon="11.194575"><ele>167.0</ele><time>2026-04-25T15:25:28.724Z</time></trkpt><trkpt lat="43.4165517" lon="11.1947733"><ele>168.33333333333331</ele><time>2026-04-25T15:25:29.723Z</time></trkpt><trkpt lat="43.416625" lon="11.1949683"><ele>169.66666666666666</ele><time>2026-04-25T15:25:30.725Z</time></trkpt><trkpt lat="43.4166983" lon="11.1951767"><ele>171.0</ele><time>2026-04-25T15:25:31.724Z</time></trkpt><trkpt lat="43.416735" lon="11.195405"><ele>171.0</ele><time>2026-04-25T15:25:32.725Z</time></trkpt><trkpt lat="43.4167267" lon="11.1956417"><ele>171.0</ele><time>2026-04-25T15:25:33.724Z</time></trkpt><trkpt lat="43.4166733" lon="11.1958717"><ele>171.0</ele><time>2026-04-25T15:25:34.724Z</time></trkpt><trkpt lat="43.4166117" lon="11.1961083"><ele>172.0</ele><time>2026-04-25T15:25:35.723Z</time></trkpt><trkpt lat="43.416535" lon="11.19635"><ele>173.0</ele><time>2026-04-25T15:25:36.724Z</time></trkpt><trkpt lat="43.416465" lon="11.1965867"><ele>174.0</ele><time>2026-04-25T15:25:37.725Z</time></trkpt><trkpt lat="43.4163817" lon="11.1968167"><ele>174.66666666666666</ele><time>2026-04-25T15:25:38.724Z</time></trkpt><trkpt lat="43.4162733" lon="11.19703"><ele>175.33333333333331</ele><time>2026-04-25T15:25:39.723Z</time></trkpt><trkpt lat="43.4161467" lon="11.1972383"><ele>176.0</ele><time>2026-04-25T15:25:40.724Z</time></trkpt><trkpt lat="43.4160167" lon="11.1974517"><ele>176.66666666666666</ele><time>2026-04-25T15:25:41.724Z</time></trkpt><trkpt lat="43.4158917" lon="11.197685"><ele>177.33333333333334</ele><time>2026-04-25T15:25:42.724Z</time></trkpt><trkpt lat="43.4157767" lon="11.1979317"><ele>178.0</ele><time>2026-04-25T15:25:43.725Z</time></trkpt><trkpt lat="43.4156683" lon="11.1981783"><ele>178.0</ele><time>2026-04-25T15:25:44.726Z</time></trkpt><trkpt lat="43.4155583" lon="11.1984233"><ele>178.0</ele><time>2026-04-25T15:25:45.725Z</time></trkpt><trkpt lat="43.41545" lon="11.1986683"><ele>178.0</ele><time>2026-04-25T15:25:46.724Z</time></trkpt><trkpt lat="43.4153567" lon="11.1989167"><ele>179.66666666666669</ele><time>2026-04-25T15:25:47.723Z</time></trkpt><trkpt lat="43.4152867" lon="11.199185"><ele>181.33333333333334</ele><time>2026-04-25T15:25:48.724Z</time></trkpt><trkpt lat="43.4152483" lon="11.1994683"><ele>183.0</ele><time>2026-04-25T15:25:49.724Z</time></trkpt><trkpt lat="43.4152" lon="11.1997567"><ele>182.33333333333334</ele><time>2026-04-25T15:25:50.724Z</time></trkpt><trkpt lat="43.415135" lon="11.2000433"><ele>181.66666666666669</ele><time>2026-04-25T15:25:51.724Z</time></trkpt><trkpt lat="43.4150533" lon="11.2003283"><ele>181.0</ele><time>2026-04-25T15:25:52.722Z</time></trkpt><trkpt lat="43.4149567" lon="11.200605"><ele>181.33333333333334</ele><time>2026-04-25T15:25:53.724Z</time></trkpt><trkpt lat="43.4148483" lon="11.20087"><ele>181.66666666666666</ele><time>2026-04-25T15:25:54.725Z</time></trkpt><trkpt lat="43.414725" lon="11.20112"><ele>182.0</ele><time>2026-04-25T15:25:55.723Z</time></trkpt><trkpt lat="43.414595" lon="11.2013583"><ele>182.66666666666666</ele><time>2026-04-25T15:25:56.724Z</time></trkpt><trkpt lat="43.4144567" lon="11.201595"><ele>183.33333333333334</ele><time>2026-04-25T15:25:57.724Z</time></trkpt><trkpt lat="43.4143183" lon="11.2018283"><ele>184.0</ele><time>2026-04-25T15:25:58.725Z</time></trkpt><trkpt lat="43.41418" lon="11.2020533"><ele>184.0</ele><time>2026-04-25T15:25:59.724Z</time></trkpt><trkpt lat="43.4140333" lon="11.2022633"><ele>184.0</ele><time>2026-04-25T15:26:00.725Z</time></trkpt><trkpt lat="43.413885" lon="11.2024567"><ele>184.0</ele><time>2026-04-25T15:26:01.726Z</time></trkpt><trkpt lat="43.4137383" lon="11.2026433"><ele>186.0</ele><time>2026-04-25T15:26:02.728Z</time></trkpt><trkpt lat="43.4136" lon="11.2028217"><ele>188.0</ele><time>2026-04-25T15:26:03.725Z</time></trkpt><trkpt lat="43.4134683" lon="11.2029867"><ele>190.0</ele><time>2026-04-25T15:26:04.725Z</time></trkpt><trkpt lat="43.4133483" lon="11.2031333"><ele>189.6</ele><time>2026-04-25T15:26:05.724Z</time></trkpt><trkpt lat="43.4132417" lon="11.2032633"><ele>189.2</ele><time>2026-04-25T15:26:06.725Z</time></trkpt><trkpt lat="43.4131567" lon="11.2033767"><ele>188.8</ele><time>2026-04-25T15:26:07.724Z</time></trkpt><trkpt lat="43.4130867" lon="11.2034733"><ele>188.4</ele><time>2026-04-25T15:26:08.725Z</time></trkpt><trkpt lat="43.4130317" lon="11.2035567"><ele>188.0</ele><time>2026-04-25T15:26:09.724Z</time></trkpt><trkpt lat="43.412985" lon="11.2036333"><ele>188.0</ele><time>2026-04-25T15:26:10.723Z</time></trkpt><trkpt lat="43.412955" lon="11.2037167"><ele>188.0</ele><time>2026-04-25T15:26:11.725Z</time></trkpt><trkpt lat="43.412985" lon="11.2038717"><ele>188.0</ele><time>2026-04-25T15:26:13.726Z</time></trkpt><trkpt lat="43.4130367" lon="11.2039717"><ele>188.0</ele><time>2026-04-25T15:26:14.725Z</time></trkpt><trkpt lat="43.41312" lon="11.2041067"><ele>188.0</ele><time>2026-04-25T15:26:15.724Z</time></trkpt><trkpt lat="43.4132067" lon="11.204275"><ele>187.66666666666666</ele><time>2026-04-25T15:26:16.724Z</time></trkpt><trkpt lat="43.4132933" lon="11.2044733"><ele>187.33333333333334</ele><time>2026-04-25T15:26:17.723Z</time></trkpt><trkpt lat="43.4133783" lon="11.2046933"><ele>187.0</ele><time>2026-04-25T15:26:18.725Z</time></trkpt><trkpt lat="43.4134667" lon="11.2049283"><ele>187.0</ele><time>2026-04-25T15:26:19.724Z</time></trkpt><trkpt lat="43.4135617" lon="11.20517"><ele>187.0</ele><time>2026-04-25T15:26:20.724Z</time></trkpt><trkpt lat="43.4136617" lon="11.20542"><ele>187.0</ele><time>2026-04-25T15:26:21.724Z</time></trkpt><trkpt lat="43.413765" lon="11.2056783"><ele>186.66666666666669</ele><time>2026-04-25T15:26:22.724Z</time></trkpt><trkpt lat="43.41387" lon="11.2059433"><ele>186.33333333333334</ele><time>2026-04-25T15:26:23.725Z</time></trkpt><trkpt lat="43.4139733" lon="11.2062067"><ele>186.0</ele><time>2026-04-25T15:26:24.726Z</time></trkpt><trkpt lat="43.41408" lon="11.206475"><ele>186.0</ele><time>2026-04-25T15:26:25.722Z</time></trkpt><trkpt lat="43.4141883" lon="11.2067483"><ele>186.0</ele><time>2026-04-25T15:26:26.723Z</time></trkpt><trkpt lat="43.414295" lon="11.20702"><ele>186.0</ele><time>2026-04-25T15:26:27.723Z</time></trkpt><trkpt lat="43.4144033" lon="11.2072967"><ele>186.0</ele><time>2026-04-25T15:26:28.723Z</time></trkpt><trkpt lat="43.4145117" lon="11.20757"><ele>186.0</ele><time>2026-04-25T15:26:29.724Z</time></trkpt><trkpt lat="43.41462" lon="11.2078367"><ele>186.0</ele><time>2026-04-25T15:26:30.724Z</time></trkpt><trkpt lat="43.414725" lon="11.2081017"><ele>186.0</ele><time>2026-04-25T15:26:31.723Z</time></trkpt><trkpt lat="43.4148283" lon="11.2083633"><ele>185.66666666666666</ele><time>2026-04-25T15:26:32.724Z</time></trkpt><trkpt lat="43.4149283" lon="11.20862"><ele>185.33333333333331</ele><time>2026-04-25T15:26:33.723Z</time></trkpt><trkpt lat="43.4150283" lon="11.2088717"><ele>185.0</ele><time>2026-04-25T15:26:34.723Z</time></trkpt><trkpt lat="43.41513" lon="11.2091217"><ele>184.66666666666666</ele><time>2026-04-25T15:26:35.723Z</time></trkpt><trkpt lat="43.41523" lon="11.209375"><ele>184.33333333333334</ele><time>2026-04-25T15:26:36.724Z</time></trkpt><trkpt lat="43.4153317" lon="11.2096317"><ele>184.0</ele><time>2026-04-25T15:26:37.722Z</time></trkpt><trkpt lat="43.415435" lon="11.209885"><ele>184.0</ele><time>2026-04-25T15:26:38.724Z</time></trkpt><trkpt lat="43.4155367" lon="11.210135"><ele>184.0</ele><time>2026-04-25T15:26:39.723Z</time></trkpt><trkpt lat="43.4156333" lon="11.210385"><ele>184.0</ele><time>2026-04-25T15:26:40.722Z</time></trkpt><trkpt lat="43.4157317" lon="11.2106317"><ele>184.33333333333334</ele><time>2026-04-25T15:26:41.723Z</time></trkpt><trkpt lat="43.4158317" lon="11.21088"><ele>184.66666666666666</ele><time>2026-04-25T15:26:42.723Z</time></trkpt><trkpt lat="43.4159333" lon="11.21113"><ele>185.0</ele><time>2026-04-25T15:26:43.722Z</time></trkpt><trkpt lat="43.4160333" lon="11.2113783"><ele>185.0</ele><time>2026-04-25T15:26:44.724Z</time></trkpt><trkpt lat="43.4161367" lon="11.2116283"><ele>185.0</ele><time>2026-04-25T15:26:45.724Z</time></trkpt><trkpt lat="43.4162383" lon="11.2118767"><ele>185.0</ele><time>2026-04-25T15:26:46.721Z</time></trkpt><trkpt lat="43.4163367" lon="11.2121267"><ele>183.33333333333331</ele><time>2026-04-25T15:26:47.723Z</time></trkpt><trkpt lat="43.4164367" lon="11.2123767"><ele>181.66666666666666</ele><time>2026-04-25T15:26:48.724Z</time></trkpt><trkpt lat="43.41654" lon="11.21263"><ele>180.0</ele><time>2026-04-25T15:26:49.723Z</time></trkpt><trkpt lat="43.4166433" lon="11.21288"><ele>180.0</ele><time>2026-04-25T15:26:50.724Z</time></trkpt><trkpt lat="43.4167483" lon="11.213125"><ele>180.0</ele><time>2026-04-25T15:26:51.722Z</time></trkpt><trkpt lat="43.4168533" lon="11.2133733"><ele>180.0</ele><time>2026-04-25T15:26:52.723Z</time></trkpt><trkpt lat="43.4169567" lon="11.2136217"><ele>179.66666666666666</ele><time>2026-04-25T15:26:53.724Z</time></trkpt><trkpt lat="43.41706" lon="11.2138683"><ele>179.33333333333331</ele><time>2026-04-25T15:26:54.722Z</time></trkpt><trkpt lat="43.41716" lon="11.2141083"><ele>179.0</ele><time>2026-04-25T15:26:55.724Z</time></trkpt><trkpt lat="43.4172567" lon="11.214345"><ele>178.33333333333331</ele><time>2026-04-25T15:26:56.723Z</time></trkpt><trkpt lat="43.417355" lon="11.21458"><ele>177.66666666666666</ele><time>2026-04-25T15:26:57.722Z</time></trkpt><trkpt lat="43.4174533" lon="11.2148267"><ele>177.0</ele><time>2026-04-25T15:26:58.723Z</time></trkpt><trkpt lat="43.41755" lon="11.2150717"><ele>177.0</ele><time>2026-04-25T15:26:59.723Z</time></trkpt><trkpt lat="43.41765" lon="11.2153233"><ele>177.0</ele><time>2026-04-25T15:27:00.723Z</time></trkpt><trkpt lat="43.41775" lon="11.2155683"><ele>177.0</ele><time>2026-04-25T15:27:01.724Z</time></trkpt><trkpt lat="43.41785" lon="11.21582"><ele>177.66666666666666</ele><time>2026-04-25T15:27:02.724Z</time></trkpt><trkpt lat="43.4179367" lon="11.2160617"><ele>178.33333333333331</ele><time>2026-04-25T15:27:03.723Z</time></trkpt><trkpt lat="43.4180233" lon="11.2162867"><ele>179.0</ele><time>2026-04-25T15:27:04.722Z</time></trkpt><trkpt lat="43.41811" lon="11.2164983"><ele>181.0</ele><time>2026-04-25T15:27:05.724Z</time></trkpt><trkpt lat="43.4181933" lon="11.2167067"><ele>183.0</ele><time>2026-04-25T15:27:06.724Z</time></trkpt><trkpt lat="43.4182717" lon="11.21691"><ele>185.0</ele><time>2026-04-25T15:27:07.723Z</time></trkpt><trkpt lat="43.4183467" lon="11.2171117"><ele>185.0</ele><time>2026-04-25T15:27:08.726Z</time></trkpt><trkpt lat="43.41842" lon="11.217305"><ele>185.0</ele><time>2026-04-25T15:27:09.724Z</time></trkpt><trkpt lat="43.41849" lon="11.2174917"><ele>185.0</ele><time>2026-04-25T15:27:10.723Z</time></trkpt><trkpt lat="43.4185583" lon="11.2176717"><ele>185.75</ele><time>2026-04-25T15:27:11.722Z</time></trkpt><trkpt lat="43.418625" lon="11.217845"><ele>186.5</ele><time>2026-04-25T15:27:12.722Z</time></trkpt><trkpt lat="43.4186917" lon="11.2180167"><ele>187.25</ele><time>2026-04-25T15:27:13.722Z</time></trkpt><trkpt lat="43.41876" lon="11.218185"><ele>188.0</ele><time>2026-04-25T15:27:14.723Z</time></trkpt><trkpt lat="43.418835" lon="11.218355"><ele>189.0</ele><time>2026-04-25T15:27:15.726Z</time></trkpt><trkpt lat="43.4189167" lon="11.2185217"><ele>190.0</ele><time>2026-04-25T15:27:16.724Z</time></trkpt><trkpt lat="43.4190167" lon="11.21868"><ele>191.0</ele><time>2026-04-25T15:27:17.724Z</time></trkpt><trkpt lat="43.4191183" lon="11.218845"><ele>191.66666666666666</ele><time>2026-04-25T15:27:18.724Z</time></trkpt><trkpt lat="43.4192133" lon="11.2190067"><ele>192.33333333333331</ele><time>2026-04-25T15:27:19.722Z</time></trkpt><trkpt lat="43.41931" lon="11.2191817"><ele>193.0</ele><time>2026-04-25T15:27:20.725Z</time></trkpt><trkpt lat="43.4194" lon="11.2193633"><ele>193.0</ele><time>2026-04-25T15:27:21.724Z</time></trkpt><trkpt lat="43.4194833" lon="11.2195617"><ele>193.0</ele><time>2026-04-25T15:27:22.723Z</time></trkpt><trkpt lat="43.4195583" lon="11.2197767"><ele>193.0</ele><time>2026-04-25T15:27:23.725Z</time></trkpt><trkpt lat="43.4196167" lon="11.2200033"><ele>193.33333333333331</ele><time>2026-04-25T15:27:24.725Z</time></trkpt><trkpt lat="43.41966" lon="11.22023"><ele>193.66666666666669</ele><time>2026-04-25T15:27:25.724Z</time></trkpt><trkpt lat="43.4196867" lon="11.2204417"><ele>194.0</ele><time>2026-04-25T15:27:26.723Z</time></trkpt><trkpt lat="43.419705" lon="11.220635"><ele>195.0</ele><time>2026-04-25T15:27:27.723Z</time></trkpt><trkpt lat="43.4197233" lon="11.220815"><ele>196.0</ele><time>2026-04-25T15:27:28.724Z</time></trkpt><trkpt lat="43.419745" lon="11.2209833"><ele>197.0</ele><time>2026-04-25T15:27:29.721Z</time></trkpt><trkpt lat="43.4197683" lon="11.2211433"><ele>198.0</ele><time>2026-04-25T15:27:30.725Z</time></trkpt><trkpt lat="43.4198" lon="11.22131"><ele>198.0</ele><time>2026-04-25T15:27:31.723Z</time></trkpt><trkpt lat="43.4198433" lon="11.2214767"><ele>198.0</ele><time>2026-04-25T15:27:32.723Z</time></trkpt><trkpt lat="43.419895" lon="11.221645"><ele>198.0</ele><time>2026-04-25T15:27:33.724Z</time></trkpt><trkpt lat="43.4199567" lon="11.2218033"><ele>198.0</ele><time>2026-04-25T15:27:34.724Z</time></trkpt><trkpt lat="43.4200333" lon="11.2219617"><ele>198.66666666666669</ele><time>2026-04-25T15:27:35.723Z</time></trkpt><trkpt lat="43.4201333" lon="11.22212"><ele>199.33333333333334</ele><time>2026-04-25T15:27:36.723Z</time></trkpt><trkpt lat="43.4202583" lon="11.2222967"><ele>200.0</ele><time>2026-04-25T15:27:37.723Z</time></trkpt><trkpt lat="43.4203967" lon="11.222485"><ele>200.0</ele><time>2026-04-25T15:27:38.723Z</time></trkpt><trkpt lat="43.42054" lon="11.2226767"><ele>200.0</ele><time>2026-04-25T15:27:39.724Z</time></trkpt><trkpt lat="43.420675" lon="11.222865"><ele>200.0</ele><time>2026-04-25T15:27:40.726Z</time></trkpt><trkpt lat="43.4208017" lon="11.2230483"><ele>200.66666666666669</ele><time>2026-04-25T15:27:41.722Z</time></trkpt><trkpt lat="43.4209267" lon="11.2232333"><ele>201.33333333333331</ele><time>2026-04-25T15:27:42.723Z</time></trkpt><trkpt lat="43.4210467" lon="11.223425"><ele>202.0</ele><time>2026-04-25T15:27:43.724Z</time></trkpt><trkpt lat="43.421155" lon="11.2236283"><ele>202.0</ele><time>2026-04-25T15:27:44.723Z</time></trkpt><trkpt lat="43.42126" lon="11.2238583"><ele>202.0</ele><time>2026-04-25T15:27:45.724Z</time></trkpt><trkpt lat="43.4213567" lon="11.2241233"><ele>202.0</ele><time>2026-04-25T15:27:46.723Z</time></trkpt><trkpt lat="43.4214383" lon="11.2244183"><ele>201.0</ele><time>2026-04-25T15:27:47.723Z</time></trkpt><trkpt lat="43.4215067" lon="11.2247267"><ele>200.0</ele><time>2026-04-25T15:27:48.724Z</time></trkpt><trkpt lat="43.4215733" lon="11.2250317"><ele>199.5</ele><time>2026-04-25T15:27:49.725Z</time></trkpt><trkpt lat="43.421645" lon="11.2253383"><ele>199.0</ele><time>2026-04-25T15:27:50.725Z</time></trkpt><trkpt lat="43.4217183" lon="11.2256517"><ele>198.5</ele><time>2026-04-25T15:27:51.724Z</time></trkpt><trkpt lat="43.4217933" lon="11.2259567"><ele>198.0</ele><time>2026-04-25T15:27:52.723Z</time></trkpt><trkpt lat="43.4218667" lon="11.2262617"><ele>197.0</ele><time>2026-04-25T15:27:53.723Z</time></trkpt><trkpt lat="43.42194" lon="11.2265633"><ele>196.0</ele><time>2026-04-25T15:27:54.725Z</time></trkpt><trkpt lat="43.422015" lon="11.2268633"><ele>196.0</ele><time>2026-04-25T15:27:55.723Z</time></trkpt><trkpt lat="43.4220917" lon="11.2271633"><ele>196.0</ele><time>2026-04-25T15:27:56.724Z</time></trkpt><trkpt lat="43.4221683" lon="11.2274617"><ele>197.5</ele><time>2026-04-25T15:27:57.724Z</time></trkpt><trkpt lat="43.4222467" lon="11.2277583"><ele>199.0</ele><time>2026-04-25T15:27:58.726Z</time></trkpt><trkpt lat="43.422335" lon="11.2280567"><ele>198.5</ele><time>2026-04-25T15:27:59.725Z</time></trkpt><trkpt lat="43.4224283" lon="11.228355"><ele>198.0</ele><time>2026-04-25T15:28:00.724Z</time></trkpt><trkpt lat="43.4225233" lon="11.2286517"><ele>198.0</ele><time>2026-04-25T15:28:01.723Z</time></trkpt><trkpt lat="43.4226183" lon="11.2289483"><ele>198.0</ele><time>2026-04-25T15:28:02.724Z</time></trkpt><trkpt lat="43.4227167" lon="11.2292483"><ele>197.0</ele><time>2026-04-25T15:28:03.723Z</time></trkpt><trkpt lat="43.4228183" lon="11.22955"><ele>196.0</ele><time>2026-04-25T15:28:04.724Z</time></trkpt><trkpt lat="43.4229183" lon="11.22985"><ele>196.5</ele><time>2026-04-25T15:28:05.724Z</time></trkpt><trkpt lat="43.4230167" lon="11.2301517"><ele>197.0</ele><time>2026-04-25T15:28:06.724Z</time></trkpt><trkpt lat="43.4231167" lon="11.2304517"><ele>196.5</ele><time>2026-04-25T15:28:07.723Z</time></trkpt><trkpt lat="43.4232117" lon="11.230745"><ele>196.0</ele><time>2026-04-25T15:28:08.725Z</time></trkpt><trkpt lat="43.4233067" lon="11.23104"><ele>196.0</ele><time>2026-04-25T15:28:09.722Z</time></trkpt><trkpt lat="43.4234033" lon="11.23133"><ele>196.0</ele><time>2026-04-25T15:28:10.723Z</time></trkpt><trkpt lat="43.4235017" lon="11.2316233"><ele>195.5</ele><time>2026-04-25T15:28:11.724Z</time></trkpt><trkpt lat="43.423595" lon="11.231915"><ele>195.0</ele><time>2026-04-25T15:28:12.723Z</time></trkpt><trkpt lat="43.4236883" lon="11.2322083"><ele>196.0</ele><time>2026-04-25T15:28:13.724Z</time></trkpt><trkpt lat="43.4237817" lon="11.2324933"><ele>197.0</ele><time>2026-04-25T15:28:14.725Z</time></trkpt><trkpt lat="43.42388" lon="11.2327833"><ele>197.5</ele><time>2026-04-25T15:28:15.723Z</time></trkpt><trkpt lat="43.42398" lon="11.233065"><ele>198.0</ele><time>2026-04-25T15:28:16.724Z</time></trkpt><trkpt lat="43.4240817" lon="11.2333517"><ele>198.5</ele><time>2026-04-25T15:28:17.724Z</time></trkpt><trkpt lat="43.424185" lon="11.2336383"><ele>199.0</ele><time>2026-04-25T15:28:18.724Z</time></trkpt><trkpt lat="43.42429" lon="11.2339267"><ele>198.5</ele><time>2026-04-25T15:28:19.723Z</time></trkpt><trkpt lat="43.4243917" lon="11.2342117"><ele>198.0</ele><time>2026-04-25T15:28:20.725Z</time></trkpt><trkpt lat="43.4244867" lon="11.2344867"><ele>198.0</ele><time>2026-04-25T15:28:21.723Z</time></trkpt><trkpt lat="43.424565" lon="11.2347517"><ele>198.0</ele><time>2026-04-25T15:28:22.724Z</time></trkpt><trkpt lat="43.4246183" lon="11.2350233"><ele>198.0</ele><time>2026-04-25T15:28:23.724Z</time></trkpt><trkpt lat="43.4246383" lon="11.2353033"><ele>197.66666666666669</ele><time>2026-04-25T15:28:24.724Z</time></trkpt><trkpt lat="43.424615" lon="11.235585"><ele>197.33333333333334</ele><time>2026-04-25T15:28:25.726Z</time></trkpt><trkpt lat="43.424555" lon="11.23586"><ele>197.0</ele><time>2026-04-25T15:28:26.723Z</time></trkpt><trkpt lat="43.4244583" lon="11.23613"><ele>198.0</ele><time>2026-04-25T15:28:27.724Z</time></trkpt><trkpt lat="43.4243483" lon="11.2364"><ele>199.0</ele><time>2026-04-25T15:28:28.724Z</time></trkpt><trkpt lat="43.4242333" lon="11.236675"><ele>199.5</ele><time>2026-04-25T15:28:29.724Z</time></trkpt><trkpt lat="43.4241333" lon="11.23696"><ele>200.0</ele><time>2026-04-25T15:28:30.724Z</time></trkpt><trkpt lat="43.4240667" lon="11.237265"><ele>200.5</ele><time>2026-04-25T15:28:31.724Z</time></trkpt><trkpt lat="43.4240217" lon="11.2375833"><ele>201.0</ele><time>2026-04-25T15:28:32.724Z</time></trkpt><trkpt lat="43.4240067" lon="11.237905"><ele>201.5</ele><time>2026-04-25T15:28:33.724Z</time></trkpt><trkpt lat="43.4240267" lon="11.2382283"><ele>202.0</ele><time>2026-04-25T15:28:34.721Z</time></trkpt><trkpt lat="43.4240833" lon="11.2385433"><ele>202.0</ele><time>2026-04-25T15:28:35.724Z</time></trkpt><trkpt lat="43.4241767" lon="11.2388417"><ele>202.0</ele><time>2026-04-25T15:28:36.723Z</time></trkpt><trkpt lat="43.4242983" lon="11.2391233"><ele>205.0</ele><time>2026-04-25T15:28:37.722Z</time></trkpt><trkpt lat="43.42445" lon="11.2393917"><ele>208.0</ele><time>2026-04-25T15:28:38.723Z</time></trkpt><trkpt lat="43.4246133" lon="11.2396517"><ele>209.5</ele><time>2026-04-25T15:28:39.723Z</time></trkpt><trkpt lat="43.4247733" lon="11.2399217"><ele>211.0</ele><time>2026-04-25T15:28:40.723Z</time></trkpt><trkpt lat="43.4249333" lon="11.24019"><ele>211.0</ele><time>2026-04-25T15:28:41.723Z</time></trkpt><trkpt lat="43.425095" lon="11.2404267"><ele>211.0</ele><time>2026-04-25T15:28:42.724Z</time></trkpt><trkpt lat="43.4252633" lon="11.2406117"><ele>213.0</ele><time>2026-04-25T15:28:43.723Z</time></trkpt><trkpt lat="43.4254467" lon="11.240755"><ele>215.0</ele><time>2026-04-25T15:28:44.724Z</time></trkpt><trkpt lat="43.4256483" lon="11.2408517"><ele>217.0</ele><time>2026-04-25T15:28:45.723Z</time></trkpt><trkpt lat="43.4258667" lon="11.2409033"><ele>218.5</ele><time>2026-04-25T15:28:46.724Z</time></trkpt><trkpt lat="43.4260933" lon="11.2409333"><ele>220.0</ele><time>2026-04-25T15:28:47.723Z</time></trkpt><trkpt lat="43.426325" lon="11.2409583"><ele>221.33333333333331</ele><time>2026-04-25T15:28:48.724Z</time></trkpt><trkpt lat="43.4265483" lon="11.2409883"><ele>222.66666666666669</ele><time>2026-04-25T15:28:49.724Z</time></trkpt><trkpt lat="43.42676" lon="11.24103"><ele>224.0</ele><time>2026-04-25T15:28:50.724Z</time></trkpt><trkpt lat="43.4269633" lon="11.2411"><ele>225.0</ele><time>2026-04-25T15:28:51.725Z</time></trkpt><trkpt lat="43.4271517" lon="11.2412133"><ele>226.0</ele><time>2026-04-25T15:28:52.723Z</time></trkpt><trkpt lat="43.42733" lon="11.2413617"><ele>227.0</ele><time>2026-04-25T15:28:53.725Z</time></trkpt><trkpt lat="43.427495" lon="11.2415383"><ele>229.0</ele><time>2026-04-25T15:28:54.724Z</time></trkpt><trkpt lat="43.4276517" lon="11.2417467"><ele>231.0</ele><time>2026-04-25T15:28:55.724Z</time></trkpt><trkpt lat="43.42781" lon="11.24196"><ele>233.0</ele><time>2026-04-25T15:28:56.725Z</time></trkpt><trkpt lat="43.4279683" lon="11.242165"><ele>232.0</ele><time>2026-04-25T15:28:57.723Z</time></trkpt><trkpt lat="43.4281183" lon="11.2423583"><ele>231.0</ele><time>2026-04-25T15:28:58.723Z</time></trkpt><trkpt lat="43.42825" lon="11.2425717"><ele>230.0</ele><time>2026-04-25T15:28:59.724Z</time></trkpt><trkpt lat="43.428355" lon="11.242805"><ele>230.0</ele><time>2026-04-25T15:29:00.724Z</time></trkpt><trkpt lat="43.4284333" lon="11.2430683"><ele>230.0</ele><time>2026-04-25T15:29:01.724Z</time></trkpt><trkpt lat="43.4284767" lon="11.2433517"><ele>230.0</ele><time>2026-04-25T15:29:02.723Z</time></trkpt><trkpt lat="43.428485" lon="11.2436383"><ele>229.66666666666669</ele><time>2026-04-25T15:29:03.724Z</time></trkpt><trkpt lat="43.428465" lon="11.24393"><ele>229.33333333333331</ele><time>2026-04-25T15:29:04.724Z</time></trkpt><trkpt lat="43.42842" lon="11.2442333"><ele>229.0</ele><time>2026-04-25T15:29:05.723Z</time></trkpt><trkpt lat="43.428365" lon="11.2445567"><ele>229.0</ele><time>2026-04-25T15:29:06.725Z</time></trkpt><trkpt lat="43.4283167" lon="11.2448917"><ele>229.0</ele><time>2026-04-25T15:29:07.723Z</time></trkpt><trkpt lat="43.428275" lon="11.2452167"><ele>229.0</ele><time>2026-04-25T15:29:08.723Z</time></trkpt><trkpt lat="43.4282533" lon="11.2455167"><ele>229.0</ele><time>2026-04-25T15:29:09.723Z</time></trkpt><trkpt lat="43.428265" lon="11.2458017"><ele>229.0</ele><time>2026-04-25T15:29:10.723Z</time></trkpt><trkpt lat="43.4283067" lon="11.24608"><ele>229.0</ele><time>2026-04-25T15:29:11.725Z</time></trkpt><trkpt lat="43.4283867" lon="11.2463383"><ele>229.0</ele><time>2026-04-25T15:29:12.725Z</time></trkpt><trkpt lat="43.4285033" lon="11.24658"><ele>229.0</ele><time>2026-04-25T15:29:13.724Z</time></trkpt><trkpt lat="43.4286417" lon="11.24682"><ele>228.0</ele><time>2026-04-25T15:29:14.724Z</time></trkpt><trkpt lat="43.428785" lon="11.247055"><ele>227.0</ele><time>2026-04-25T15:29:15.724Z</time></trkpt><trkpt lat="43.4289167" lon="11.2473033"><ele>226.0</ele><time>2026-04-25T15:29:16.723Z</time></trkpt><trkpt lat="43.4290267" lon="11.2475667"><ele>225.66666666666666</ele><time>2026-04-25T15:29:17.725Z</time></trkpt><trkpt lat="43.4291133" lon="11.247845"><ele>225.33333333333331</ele><time>2026-04-25T15:29:18.725Z</time></trkpt><trkpt lat="43.4291867" lon="11.2481433"><ele>225.0</ele><time>2026-04-25T15:29:19.723Z</time></trkpt><trkpt lat="43.4292517" lon="11.24845"><ele>225.0</ele><time>2026-04-25T15:29:20.725Z</time></trkpt><trkpt lat="43.4293133" lon="11.2487617"><ele>225.0</ele><time>2026-04-25T15:29:21.723Z</time></trkpt><trkpt lat="43.42936" lon="11.24907"><ele>225.0</ele><time>2026-04-25T15:29:22.724Z</time></trkpt><trkpt lat="43.4293683" lon="11.24939"><ele>225.0</ele><time>2026-04-25T15:29:23.724Z</time></trkpt><trkpt lat="43.4293517" lon="11.2497133"><ele>225.5</ele><time>2026-04-25T15:29:24.725Z</time></trkpt><trkpt lat="43.4293383" lon="11.25003"><ele>226.0</ele><time>2026-04-25T15:29:25.723Z</time></trkpt><trkpt lat="43.4293483" lon="11.2503433"><ele>226.0</ele><time>2026-04-25T15:29:26.725Z</time></trkpt><trkpt lat="43.429385" lon="11.2506583"><ele>226.0</ele><time>2026-04-25T15:29:27.724Z</time></trkpt><trkpt lat="43.42945" lon="11.250975"><ele>226.0</ele><time>2026-04-25T15:29:28.723Z</time></trkpt><trkpt lat="43.4295267" lon="11.2512817"><ele>226.0</ele><time>2026-04-25T15:29:29.723Z</time></trkpt><trkpt lat="43.429615" lon="11.2515567"><ele>229.66666666666666</ele><time>2026-04-25T15:29:30.724Z</time></trkpt><trkpt lat="43.429725" lon="11.2518"><ele>233.33333333333331</ele><time>2026-04-25T15:29:31.724Z</time></trkpt><trkpt lat="43.4298667" lon="11.2520117"><ele>237.0</ele><time>2026-04-25T15:29:32.726Z</time></trkpt><trkpt lat="43.4300367" lon="11.2521867"><ele>235.0</ele><time>2026-04-25T15:29:33.724Z</time></trkpt><trkpt lat="43.430235" lon="11.252325"><ele>233.0</ele><time>2026-04-25T15:29:34.721Z</time></trkpt><trkpt lat="43.430445" lon="11.2524567"><ele>237.0</ele><time>2026-04-25T15:29:35.722Z</time></trkpt><trkpt lat="43.4306617" lon="11.2525967"><ele>241.0</ele><time>2026-04-25T15:29:36.724Z</time></trkpt><trkpt lat="43.430875" lon="11.2527383"><ele>241.0</ele><time>2026-04-25T15:29:37.725Z</time></trkpt><trkpt lat="43.4310833" lon="11.2528783"><ele>241.0</ele><time>2026-04-25T15:29:38.724Z</time></trkpt><trkpt lat="43.4312883" lon="11.25301"><ele>242.0</ele><time>2026-04-25T15:29:39.724Z</time></trkpt><trkpt lat="43.4314867" lon="11.2531383"><ele>243.0</ele><time>2026-04-25T15:29:40.722Z</time></trkpt><trkpt lat="43.431675" lon="11.2532633"><ele>244.0</ele><time>2026-04-25T15:29:41.725Z</time></trkpt><trkpt lat="43.4318533" lon="11.2533883"><ele>244.0</ele><time>2026-04-25T15:29:42.724Z</time></trkpt><trkpt lat="43.4320217" lon="11.2535283"><ele>244.0</ele><time>2026-04-25T15:29:43.724Z</time></trkpt><trkpt lat="43.4321783" lon="11.253705"><ele>244.0</ele><time>2026-04-25T15:29:44.725Z</time></trkpt><trkpt lat="43.4323083" lon="11.25392"><ele>245.33333333333331</ele><time>2026-04-25T15:29:45.724Z</time></trkpt><trkpt lat="43.43241" lon="11.254175"><ele>246.66666666666669</ele><time>2026-04-25T15:29:46.723Z</time></trkpt><trkpt lat="43.4324883" lon="11.254455"><ele>248.0</ele><time>2026-04-25T15:29:47.725Z</time></trkpt><trkpt lat="43.432555" lon="11.25475"><ele>247.0</ele><time>2026-04-25T15:29:48.726Z</time></trkpt><trkpt lat="43.4326233" lon="11.2550533"><ele>246.0</ele><time>2026-04-25T15:29:49.725Z</time></trkpt><trkpt lat="43.432695" lon="11.255365"><ele>246.0</ele><time>2026-04-25T15:29:50.723Z</time></trkpt><trkpt lat="43.43277" lon="11.2556867"><ele>246.0</ele><time>2026-04-25T15:29:51.723Z</time></trkpt><trkpt lat="43.432845" lon="11.2560133"><ele>246.0</ele><time>2026-04-25T15:29:52.723Z</time></trkpt><trkpt lat="43.4329217" lon="11.2563383"><ele>246.0</ele><time>2026-04-25T15:29:53.724Z</time></trkpt><trkpt lat="43.4329983" lon="11.2566683"><ele>252.5</ele><time>2026-04-25T15:29:54.723Z</time></trkpt><trkpt lat="43.433075" lon="11.2569967"><ele>259.0</ele><time>2026-04-25T15:29:55.725Z</time></trkpt><trkpt lat="43.4331533" lon="11.2573217"><ele>263.0</ele><time>2026-04-25T15:29:56.725Z</time></trkpt><trkpt lat="43.4332317" lon="11.2576467"><ele>267.0</ele><time>2026-04-25T15:29:57.723Z</time></trkpt><trkpt lat="43.4333133" lon="11.2579767"><ele>269.5</ele><time>2026-04-25T15:29:58.725Z</time></trkpt><trkpt lat="43.4333933" lon="11.2583067"><ele>272.0</ele><time>2026-04-25T15:29:59.722Z</time></trkpt><trkpt lat="43.4334667" lon="11.25864"><ele>274.0</ele><time>2026-04-25T15:30:00.724Z</time></trkpt><trkpt lat="43.43353" lon="11.2589783"><ele>276.0</ele><time>2026-04-25T15:30:01.724Z</time></trkpt><trkpt lat="43.4335733" lon="11.259325"><ele>276.0</ele><time>2026-04-25T15:30:02.724Z</time></trkpt><trkpt lat="43.433595" lon="11.2596767"><ele>276.0</ele><time>2026-04-25T15:30:03.725Z</time></trkpt><trkpt lat="43.4336017" lon="11.26003"><ele>279.5</ele><time>2026-04-25T15:30:04.725Z</time></trkpt><trkpt lat="43.4335933" lon="11.2603883"><ele>283.0</ele><time>2026-04-25T15:30:05.725Z</time></trkpt><trkpt lat="43.433565" lon="11.2607467"><ele>287.0</ele><time>2026-04-25T15:30:06.726Z</time></trkpt><trkpt lat="43.4335167" lon="11.2611017"><ele>291.0</ele><time>2026-04-25T15:30:07.725Z</time></trkpt><trkpt lat="43.433455" lon="11.2614583"><ele>295.0</ele><time>2026-04-25T15:30:08.725Z</time></trkpt><trkpt lat="43.4333833" lon="11.261815"><ele>299.0</ele><time>2026-04-25T15:30:09.725Z</time></trkpt><trkpt lat="43.43331" lon="11.2621733"><ele>302.5</ele><time>2026-04-25T15:30:10.725Z</time></trkpt><trkpt lat="43.4332383" lon="11.262535"><ele>306.0</ele><time>2026-04-25T15:30:11.724Z</time></trkpt><trkpt lat="43.43317" lon="11.2629"><ele>309.0</ele><time>2026-04-25T15:30:12.724Z</time></trkpt><trkpt lat="43.4331067" lon="11.2632467"><ele>312.0</ele><time>2026-04-25T15:30:13.724Z</time></trkpt><trkpt lat="43.4330483" lon="11.263585"><ele>312.0</ele><time>2026-04-25T15:30:14.724Z</time></trkpt><trkpt lat="43.433005" lon="11.26392"><ele>312.0</ele><time>2026-04-25T15:30:15.724Z</time></trkpt><trkpt lat="43.432995" lon="11.2642583"><ele>315.5</ele><time>2026-04-25T15:30:16.724Z</time></trkpt><trkpt lat="43.433025" lon="11.2645933"><ele>319.0</ele><time>2026-04-25T15:30:17.724Z</time></trkpt><trkpt lat="43.4330933" lon="11.2649217"><ele>320.0</ele><time>2026-04-25T15:30:18.726Z</time></trkpt><trkpt lat="43.4331917" lon="11.2652333"><ele>321.0</ele><time>2026-04-25T15:30:19.727Z</time></trkpt><trkpt lat="43.43332" lon="11.2655267"><ele>321.0</ele><time>2026-04-25T15:30:20.726Z</time></trkpt><trkpt lat="43.4334717" lon="11.2657983"><ele>321.0</ele><time>2026-04-25T15:30:21.724Z</time></trkpt><trkpt lat="43.4336417" lon="11.26605"><ele>322.0</ele><time>2026-04-25T15:30:22.727Z</time></trkpt><trkpt lat="43.4338217" lon="11.26629"><ele>323.0</ele><time>2026-04-25T15:30:23.725Z</time></trkpt><trkpt lat="43.4340083" lon="11.2665267"><ele>323.0</ele><time>2026-04-25T15:30:24.725Z</time></trkpt><trkpt lat="43.4341967" lon="11.2667733"><ele>323.0</ele><time>2026-04-25T15:30:25.723Z</time></trkpt><trkpt lat="43.4343933" lon="11.26702"><ele>323.0</ele><time>2026-04-25T15:30:26.725Z</time></trkpt><trkpt lat="43.4345883" lon="11.26726"><ele>323.0</ele><time>2026-04-25T15:30:27.724Z</time></trkpt><trkpt lat="43.4347833" lon="11.2675033"><ele>327.5</ele><time>2026-04-25T15:30:28.724Z</time></trkpt><trkpt lat="43.4349783" lon="11.2677483"><ele>332.0</ele><time>2026-04-25T15:30:29.724Z</time></trkpt><trkpt lat="43.4351767" lon="11.267995"><ele>333.5</ele><time>2026-04-25T15:30:30.724Z</time></trkpt><trkpt lat="43.4353717" lon="11.2682433"><ele>335.0</ele><time>2026-04-25T15:30:31.723Z</time></trkpt><trkpt lat="43.43557" lon="11.2684917"><ele>337.5</ele><time>2026-04-25T15:30:32.725Z</time></trkpt><trkpt lat="43.4357683" lon="11.2687417"><ele>340.0</ele><time>2026-04-25T15:30:33.724Z</time></trkpt><trkpt lat="43.4359667" lon="11.2689933"><ele>341.0</ele><time>2026-04-25T15:30:34.726Z</time></trkpt><trkpt lat="43.4361667" lon="11.2692433"><ele>342.0</ele><time>2026-04-25T15:30:35.724Z</time></trkpt><trkpt lat="43.4363683" lon="11.269495"><ele>342.0</ele><time>2026-04-25T15:30:36.724Z</time></trkpt><trkpt lat="43.4365683" lon="11.2697483"><ele>342.0</ele><time>2026-04-25T15:30:37.723Z</time></trkpt><trkpt lat="43.4367683" lon="11.27"><ele>347.0</ele><time>2026-04-25T15:30:38.725Z</time></trkpt><trkpt lat="43.4369633" lon="11.270255"><ele>352.0</ele><time>2026-04-25T15:30:39.723Z</time></trkpt><trkpt lat="43.4371533" lon="11.2705"><ele>355.0</ele><time>2026-04-25T15:30:40.724Z</time></trkpt><trkpt lat="43.4373383" lon="11.2707367"><ele>358.0</ele><time>2026-04-25T15:30:41.722Z</time></trkpt><trkpt lat="43.437515" lon="11.27096"><ele>358.0</ele><time>2026-04-25T15:30:42.724Z</time></trkpt><trkpt lat="43.4376917" lon="11.2711517"><ele>358.0</ele><time>2026-04-25T15:30:43.725Z</time></trkpt><trkpt lat="43.4378817" lon="11.2712967"><ele>358.0</ele><time>2026-04-25T15:30:44.723Z</time></trkpt><trkpt lat="43.43809" lon="11.27138"><ele>363.5</ele><time>2026-04-25T15:30:45.726Z</time></trkpt><trkpt lat="43.4383217" lon="11.271435"><ele>369.0</ele><time>2026-04-25T15:30:46.724Z</time></trkpt><trkpt lat="43.43857" lon="11.2714783"><ele>376.5</ele><time>2026-04-25T15:30:47.725Z</time></trkpt><trkpt lat="43.43882" lon="11.2715233"><ele>384.0</ele><time>2026-04-25T15:30:48.724Z</time></trkpt><trkpt lat="43.4390633" lon="11.2715567"><ele>384.0</ele><time>2026-04-25T15:30:49.724Z</time></trkpt><trkpt lat="43.4393083" lon="11.2715617"><ele>384.0</ele><time>2026-04-25T15:30:50.724Z</time></trkpt><trkpt lat="43.4395567" lon="11.2715133"><ele>389.5</ele><time>2026-04-25T15:30:51.724Z</time></trkpt><trkpt lat="43.4398083" lon="11.2714217"><ele>395.0</ele><time>2026-04-25T15:30:52.726Z</time></trkpt><trkpt lat="43.4400567" lon="11.2713167"><ele>395.0</ele><time>2026-04-25T15:30:53.725Z</time></trkpt><trkpt lat="43.4402867" lon="11.2712133"><ele>395.0</ele><time>2026-04-25T15:30:54.723Z</time></trkpt><trkpt lat="43.4405033" lon="11.2711217"><ele>397.0</ele><time>2026-04-25T15:30:55.725Z</time></trkpt><trkpt lat="43.4407233" lon="11.2710267"><ele>399.0</ele><time>2026-04-25T15:30:56.726Z</time></trkpt><trkpt lat="43.44095" lon="11.2709283"><ele>399.0</ele><time>2026-04-25T15:30:57.723Z</time></trkpt><trkpt lat="43.4411883" lon="11.27084"><ele>399.0</ele><time>2026-04-25T15:30:58.724Z</time></trkpt><trkpt lat="43.4414333" lon="11.2707517"><ele>399.0</ele><time>2026-04-25T15:30:59.726Z</time></trkpt><trkpt lat="43.4416767" lon="11.2706567"><ele>399.0</ele><time>2026-04-25T15:31:00.724Z</time></trkpt><trkpt lat="43.44191" lon="11.2705567"><ele>400.33333333333337</ele><time>2026-04-25T15:31:01.725Z</time></trkpt><trkpt lat="43.4421267" lon="11.2704633"><ele>401.6666666666667</ele><time>2026-04-25T15:31:02.725Z</time></trkpt><trkpt lat="43.44234" lon="11.2703967"><ele>403.0</ele><time>2026-04-25T15:31:03.726Z</time></trkpt><trkpt lat="43.442555" lon="11.2703833"><ele>404.33333333333337</ele><time>2026-04-25T15:31:04.724Z</time></trkpt><trkpt lat="43.442765" lon="11.270435"><ele>405.66666666666663</ele><time>2026-04-25T15:31:05.724Z</time></trkpt><trkpt lat="43.44296" lon="11.270555"><ele>407.0</ele><time>2026-04-25T15:31:06.725Z</time></trkpt><trkpt lat="43.4431333" lon="11.2707283"><ele>408.0</ele><time>2026-04-25T15:31:07.724Z</time></trkpt><trkpt lat="43.4432817" lon="11.2709567"><ele>409.0</ele><time>2026-04-25T15:31:08.725Z</time></trkpt><trkpt lat="43.4433967" lon="11.27123"><ele>407.5</ele><time>2026-04-25T15:31:09.724Z</time></trkpt><trkpt lat="43.443485" lon="11.2715417"><ele>406.0</ele><time>2026-04-25T15:31:10.724Z</time></trkpt><trkpt lat="43.44357" lon="11.2718733"><ele>406.0</ele><time>2026-04-25T15:31:11.724Z</time></trkpt><trkpt lat="43.44366" lon="11.2721983"><ele>406.0</ele><time>2026-04-25T15:31:12.724Z</time></trkpt><trkpt lat="43.4437583" lon="11.2725133"><ele>413.0</ele><time>2026-04-25T15:31:13.725Z</time></trkpt><trkpt lat="43.4438867" lon="11.2728067"><ele>420.0</ele><time>2026-04-25T15:31:14.724Z</time></trkpt><trkpt lat="43.4440467" lon="11.27307"><ele>416.5</ele><time>2026-04-25T15:31:15.725Z</time></trkpt><trkpt lat="43.444245" lon="11.273285"><ele>413.0</ele><time>2026-04-25T15:31:16.724Z</time></trkpt><trkpt lat="43.4444767" lon="11.2734683"><ele>415.5</ele><time>2026-04-25T15:31:17.725Z</time></trkpt><trkpt lat="43.4447317" lon="11.2736383"><ele>418.0</ele><time>2026-04-25T15:31:18.723Z</time></trkpt><trkpt lat="43.4449867" lon="11.2738033"><ele>414.5</ele><time>2026-04-25T15:31:19.723Z</time></trkpt><trkpt lat="43.4452167" lon="11.2739733"><ele>411.0</ele><time>2026-04-25T15:31:20.724Z</time></trkpt><trkpt lat="43.4454167" lon="11.2741733"><ele>412.5</ele><time>2026-04-25T15:31:21.724Z</time></trkpt><trkpt lat="43.4455833" lon="11.2744167"><ele>414.0</ele><time>2026-04-25T15:31:22.724Z</time></trkpt><trkpt lat="43.4457217" lon="11.2747067"><ele>413.0</ele><time>2026-04-25T15:31:23.724Z</time></trkpt><trkpt lat="43.4458367" lon="11.2750367"><ele>412.0</ele><time>2026-04-25T15:31:24.725Z</time></trkpt><trkpt lat="43.4459383" lon="11.2753867"><ele>413.5</ele><time>2026-04-25T15:31:25.724Z</time></trkpt><trkpt lat="43.4460383" lon="11.27575"><ele>415.0</ele><time>2026-04-25T15:31:26.723Z</time></trkpt><trkpt lat="43.446135" lon="11.2761133"><ele>417.0</ele><time>2026-04-25T15:31:27.723Z</time></trkpt><trkpt lat="43.4462267" lon="11.27645"><ele>419.0</ele><time>2026-04-25T15:31:28.725Z</time></trkpt><trkpt lat="43.4463267" lon="11.2767617"><ele>422.0</ele><time>2026-04-25T15:31:29.726Z</time></trkpt><trkpt lat="43.4464517" lon="11.27705"><ele>425.0</ele><time>2026-04-25T15:31:30.726Z</time></trkpt><trkpt lat="43.4466133" lon="11.2773167"><ele>426.0</ele><time>2026-04-25T15:31:31.725Z</time></trkpt><trkpt lat="43.4468017" lon="11.277575"><ele>427.0</ele><time>2026-04-25T15:31:32.725Z</time></trkpt><trkpt lat="43.447" lon="11.277845"><ele>433.5</ele><time>2026-04-25T15:31:33.725Z</time></trkpt><trkpt lat="43.4472017" lon="11.2781117"><ele>440.0</ele><time>2026-04-25T15:31:34.725Z</time></trkpt><trkpt lat="43.4473917" lon="11.2783633"><ele>440.0</ele><time>2026-04-25T15:31:35.724Z</time></trkpt><trkpt lat="43.4475683" lon="11.2786033"><ele>440.0</ele><time>2026-04-25T15:31:36.724Z</time></trkpt><trkpt lat="43.447725" lon="11.27886"><ele>439.0</ele><time>2026-04-25T15:31:37.726Z</time></trkpt><trkpt lat="43.447855" lon="11.2791333"><ele>438.0</ele><time>2026-04-25T15:31:38.726Z</time></trkpt><trkpt lat="43.4479533" lon="11.27944"><ele>442.0</ele><time>2026-04-25T15:31:39.724Z</time></trkpt><trkpt lat="43.4480217" lon="11.2797733"><ele>446.0</ele><time>2026-04-25T15:31:40.725Z</time></trkpt><trkpt lat="43.4480867" lon="11.2800983"><ele>446.0</ele><time>2026-04-25T15:31:41.724Z</time></trkpt><trkpt lat="43.4481667" lon="11.2803883"><ele>446.0</ele><time>2026-04-25T15:31:42.724Z</time></trkpt><trkpt lat="43.4482833" lon="11.2806467"><ele>446.0</ele><time>2026-04-25T15:31:43.723Z</time></trkpt><trkpt lat="43.448435" lon="11.280865"><ele>451.0</ele><time>2026-04-25T15:31:44.725Z</time></trkpt><trkpt lat="43.4486233" lon="11.2810433"><ele>456.0</ele><time>2026-04-25T15:31:45.723Z</time></trkpt><trkpt lat="43.4488383" lon="11.281195"><ele>456.0</ele><time>2026-04-25T15:31:46.724Z</time></trkpt><trkpt lat="43.4490533" lon="11.28135"><ele>456.0</ele><time>2026-04-25T15:31:47.723Z</time></trkpt><trkpt lat="43.4492383" lon="11.2815417"><ele>463.5</ele><time>2026-04-25T15:31:48.724Z</time></trkpt><trkpt lat="43.4493967" lon="11.28178"><ele>471.0</ele><time>2026-04-25T15:31:49.724Z</time></trkpt><trkpt lat="43.4495217" lon="11.28205"><ele>470.5</ele><time>2026-04-25T15:31:50.724Z</time></trkpt><trkpt lat="43.449635" lon="11.2823483"><ele>470.0</ele><time>2026-04-25T15:31:51.724Z</time></trkpt><trkpt lat="43.4497583" lon="11.2826517"><ele>470.0</ele><time>2026-04-25T15:31:52.723Z</time></trkpt><trkpt lat="43.449885" lon="11.2829517"><ele>470.0</ele><time>2026-04-25T15:31:53.725Z</time></trkpt><trkpt lat="43.4500217" lon="11.283225"><ele>475.0</ele><time>2026-04-25T15:31:54.725Z</time></trkpt><trkpt lat="43.4501717" lon="11.283475"><ele>480.0</ele><time>2026-04-25T15:31:55.722Z</time></trkpt><trkpt lat="43.4503483" lon="11.283685"><ele>477.5</ele><time>2026-04-25T15:31:56.723Z</time></trkpt><trkpt lat="43.4505567" lon="11.2838583"><ele>475.0</ele><time>2026-04-25T15:31:57.723Z</time></trkpt><trkpt lat="43.4507833" lon="11.2840117"><ele>482.0</ele><time>2026-04-25T15:31:58.724Z</time></trkpt><trkpt lat="43.4510283" lon="11.28416"><ele>489.0</ele><time>2026-04-25T15:31:59.726Z</time></trkpt><trkpt lat="43.4512783" lon="11.28431"><ele>489.0</ele><time>2026-04-25T15:32:00.724Z</time></trkpt><trkpt lat="43.45153" lon="11.2844633"><ele>489.0</ele><time>2026-04-25T15:32:01.724Z</time></trkpt><trkpt lat="43.451785" lon="11.284615"><ele>493.5</ele><time>2026-04-25T15:32:02.725Z</time></trkpt><trkpt lat="43.4520417" lon="11.28477"><ele>498.0</ele><time>2026-04-25T15:32:03.724Z</time></trkpt><trkpt lat="43.452285" lon="11.2849183"><ele>498.0</ele><time>2026-04-25T15:32:04.725Z</time></trkpt><trkpt lat="43.452505" lon="11.2850517"><ele>498.0</ele><time>2026-04-25T15:32:05.724Z</time></trkpt><trkpt lat="43.4527067" lon="11.28517"><ele>498.0</ele><time>2026-04-25T15:32:06.725Z</time></trkpt><trkpt lat="43.452885" lon="11.2853133"><ele>498.0</ele><time>2026-04-25T15:32:07.726Z</time></trkpt><trkpt lat="43.4530383" lon="11.2855067"><ele>498.0</ele><time>2026-04-25T15:32:08.727Z</time></trkpt><trkpt lat="43.45316" lon="11.2857467"><ele>501.0</ele><time>2026-04-25T15:32:09.724Z</time></trkpt><trkpt lat="43.45325" lon="11.2860283"><ele>504.0</ele><time>2026-04-25T15:32:10.724Z</time></trkpt><trkpt lat="43.4533083" lon="11.2863417"><ele>505.33333333333337</ele><time>2026-04-25T15:32:11.724Z</time></trkpt><trkpt lat="43.4533567" lon="11.2866533"><ele>506.6666666666667</ele><time>2026-04-25T15:32:12.725Z</time></trkpt><trkpt lat="43.4534167" lon="11.286935"><ele>508.0</ele><time>2026-04-25T15:32:13.724Z</time></trkpt><trkpt lat="43.4535117" lon="11.2871817"><ele>509.0</ele><time>2026-04-25T15:32:14.725Z</time></trkpt><trkpt lat="43.45364" lon="11.2873917"><ele>510.0</ele><time>2026-04-25T15:32:15.725Z</time></trkpt><trkpt lat="43.453815" lon="11.2875517"><ele>511.0</ele><time>2026-04-25T15:32:16.725Z</time></trkpt><trkpt lat="43.4540233" lon="11.2876667"><ele>511.0</ele><time>2026-04-25T15:32:17.725Z</time></trkpt><trkpt lat="43.454255" lon="11.2877567"><ele>511.0</ele><time>2026-04-25T15:32:18.724Z</time></trkpt><trkpt lat="43.4544933" lon="11.2878467"><ele>507.5</ele><time>2026-04-25T15:32:19.726Z</time></trkpt><trkpt lat="43.4547267" lon="11.28794"><ele>504.0</ele><time>2026-04-25T15:32:20.724Z</time></trkpt><trkpt lat="43.4549567" lon="11.2880333"><ele>513.0</ele><time>2026-04-25T15:32:21.724Z</time></trkpt><trkpt lat="43.4551883" lon="11.2881367"><ele>522.0</ele><time>2026-04-25T15:32:22.724Z</time></trkpt><trkpt lat="43.4554117" lon="11.288235"><ele>521.0</ele><time>2026-04-25T15:32:23.726Z</time></trkpt><trkpt lat="43.45562" lon="11.288335"><ele>520.0</ele><time>2026-04-25T15:32:24.725Z</time></trkpt><trkpt lat="43.455815" lon="11.288445"><ele>519.0</ele><time>2026-04-25T15:32:25.725Z</time></trkpt><trkpt lat="43.4559933" lon="11.28859"><ele>519.0</ele><time>2026-04-25T15:32:26.724Z</time></trkpt><trkpt lat="43.4561583" lon="11.2887567"><ele>519.0</ele><time>2026-04-25T15:32:27.723Z</time></trkpt><trkpt lat="43.4563183" lon="11.288945"><ele>519.0</ele><time>2026-04-25T15:32:28.724Z</time></trkpt><trkpt lat="43.4564767" lon="11.2891333"><ele>521.6666666666666</ele><time>2026-04-25T15:32:29.725Z</time></trkpt><trkpt lat="43.4566367" lon="11.2893117"><ele>524.3333333333333</ele><time>2026-04-25T15:32:30.725Z</time></trkpt><trkpt lat="43.4568" lon="11.28948"><ele>527.0</ele><time>2026-04-25T15:32:31.726Z</time></trkpt><trkpt lat="43.4569717" lon="11.2896317"><ele>528.3333333333333</ele><time>2026-04-25T15:32:32.725Z</time></trkpt><trkpt lat="43.4571467" lon="11.2897633"><ele>529.6666666666666</ele><time>2026-04-25T15:32:33.725Z</time></trkpt><trkpt lat="43.45733" lon="11.2898767"><ele>531.0</ele><time>2026-04-25T15:32:34.726Z</time></trkpt><trkpt lat="43.4575217" lon="11.2899717"><ele>531.0</ele><time>2026-04-25T15:32:35.725Z</time></trkpt><trkpt lat="43.4577217" lon="11.290045"><ele>531.0</ele><time>2026-04-25T15:32:36.726Z</time></trkpt><trkpt lat="43.4579283" lon="11.29009"><ele>531.0</ele><time>2026-04-25T15:32:37.725Z</time></trkpt><trkpt lat="43.4581383" lon="11.290105"><ele>531.6666666666666</ele><time>2026-04-25T15:32:38.725Z</time></trkpt><trkpt lat="43.4583483" lon="11.2900917"><ele>532.3333333333333</ele><time>2026-04-25T15:32:39.725Z</time></trkpt><trkpt lat="43.4585517" lon="11.2900567"><ele>533.0</ele><time>2026-04-25T15:32:40.726Z</time></trkpt><trkpt lat="43.45874" lon="11.289995"><ele>534.0</ele><time>2026-04-25T15:32:41.725Z</time></trkpt><trkpt lat="43.4589217" lon="11.2899167"><ele>535.0</ele><time>2026-04-25T15:32:42.724Z</time></trkpt><trkpt lat="43.4591067" lon="11.2898333"><ele>536.0</ele><time>2026-04-25T15:32:43.724Z</time></trkpt><trkpt lat="43.459295" lon="11.289755"><ele>534.0</ele><time>2026-04-25T15:32:44.723Z</time></trkpt><trkpt lat="43.459485" lon="11.2896767"><ele>532.0</ele><time>2026-04-25T15:32:45.723Z</time></trkpt><trkpt lat="43.45967" lon="11.2895867"><ele>530.0</ele><time>2026-04-25T15:32:46.725Z</time></trkpt><trkpt lat="43.4598567" lon="11.2894867"><ele>530.0</ele><time>2026-04-25T15:32:47.724Z</time></trkpt><trkpt lat="43.4600467" lon="11.28938"><ele>530.0</ele><time>2026-04-25T15:32:48.726Z</time></trkpt><trkpt lat="43.460235" lon="11.2892667"><ele>530.0</ele><time>2026-04-25T15:32:49.724Z</time></trkpt><trkpt lat="43.4604217" lon="11.2891467"><ele>530.0</ele><time>2026-04-25T15:32:50.725Z</time></trkpt><trkpt lat="43.46061" lon="11.2890283"><ele>530.0</ele><time>2026-04-25T15:32:51.725Z</time></trkpt><trkpt lat="43.4608017" lon="11.2889167"><ele>530.0</ele><time>2026-04-25T15:32:52.725Z</time></trkpt><trkpt lat="43.460995" lon="11.2888083"><ele>530.0</ele><time>2026-04-25T15:32:53.724Z</time></trkpt><trkpt lat="43.46119" lon="11.2887033"><ele>530.0</ele><time>2026-04-25T15:32:54.724Z</time></trkpt><trkpt lat="43.4613833" lon="11.2885967"><ele>530.0</ele><time>2026-04-25T15:32:55.724Z</time></trkpt><trkpt lat="43.4615767" lon="11.2884933"><ele>534.6666666666666</ele><time>2026-04-25T15:32:56.726Z</time></trkpt><trkpt lat="43.4617717" lon="11.2883917"><ele>539.3333333333334</ele><time>2026-04-25T15:32:57.724Z</time></trkpt><trkpt lat="43.461965" lon="11.2882867"><ele>544.0</ele><time>2026-04-25T15:32:58.725Z</time></trkpt><trkpt lat="43.4621567" lon="11.28818"><ele>543.3333333333334</ele><time>2026-04-25T15:32:59.724Z</time></trkpt><trkpt lat="43.462345" lon="11.2880833"><ele>542.6666666666666</ele><time>2026-04-25T15:33:00.724Z</time></trkpt><trkpt lat="43.462525" lon="11.2879983"><ele>542.0</ele><time>2026-04-25T15:33:01.725Z</time></trkpt><trkpt lat="43.462695" lon="11.2879383"><ele>542.0</ele><time>2026-04-25T15:33:02.725Z</time></trkpt><trkpt lat="43.4628633" lon="11.2879217"><ele>542.0</ele><time>2026-04-25T15:33:03.725Z</time></trkpt><trkpt lat="43.46303" lon="11.2879467"><ele>542.0</ele><time>2026-04-25T15:33:04.724Z</time></trkpt><trkpt lat="43.4631983" lon="11.2880083"><ele>542.3333333333333</ele><time>2026-04-25T15:33:05.724Z</time></trkpt><trkpt lat="43.4633617" lon="11.2880833"><ele>542.6666666666666</ele><time>2026-04-25T15:33:06.723Z</time></trkpt><trkpt lat="43.4635183" lon="11.2881617"><ele>543.0</ele><time>2026-04-25T15:33:07.724Z</time></trkpt><trkpt lat="43.4636633" lon="11.2882417"><ele>547.25</ele><time>2026-04-25T15:33:08.727Z</time></trkpt><trkpt lat="43.4637917" lon="11.2883217"><ele>551.5</ele><time>2026-04-25T15:33:09.724Z</time></trkpt><trkpt lat="43.4639083" lon="11.2884083"><ele>555.75</ele><time>2026-04-25T15:33:10.724Z</time></trkpt><trkpt lat="43.4640133" lon="11.288515"><ele>560.0</ele><time>2026-04-25T15:33:11.724Z</time></trkpt><trkpt lat="43.4640983" lon="11.2886483"><ele>560.0</ele><time>2026-04-25T15:33:12.723Z</time></trkpt><trkpt lat="43.4641617" lon="11.288795"><ele>560.0</ele><time>2026-04-25T15:33:13.725Z</time></trkpt><trkpt lat="43.4642033" lon="11.2889467"><ele>560.0</ele><time>2026-04-25T15:33:14.725Z</time></trkpt><trkpt lat="43.4642333" lon="11.2890817"><ele>560.0</ele><time>2026-04-25T15:33:15.724Z</time></trkpt><trkpt lat="43.464255" lon="11.2892"><ele>560.0</ele><time>2026-04-25T15:33:16.725Z</time></trkpt><trkpt lat="43.46427" lon="11.2893033"><ele>560.2</ele><time>2026-04-25T15:33:17.724Z</time></trkpt><trkpt lat="43.4642833" lon="11.2894217"><ele>560.4</ele><time>2026-04-25T15:33:19.725Z</time></trkpt><trkpt lat="43.46436" lon="11.2894783"><ele>560.6</ele><time>2026-04-25T15:33:25.725Z</time></trkpt><trkpt lat="43.4644817" lon="11.2894683"><ele>560.8</ele><time>2026-04-25T15:33:27.723Z</time></trkpt><trkpt lat="43.464555" lon="11.2894467"><ele>561.0</ele><time>2026-04-25T15:33:28.725Z</time></trkpt><trkpt lat="43.464635" lon="11.2894267"><ele>561.5</ele><time>2026-04-25T15:33:29.725Z</time></trkpt><trkpt lat="43.4647217" lon="11.289405"><ele>562.0</ele><time>2026-04-25T15:33:30.723Z</time></trkpt><trkpt lat="43.4648083" lon="11.2893817"><ele>562.5</ele><time>2026-04-25T15:33:31.724Z</time></trkpt><trkpt lat="43.4648933" lon="11.289355"><ele>563.0</ele><time>2026-04-25T15:33:32.725Z</time></trkpt><trkpt lat="43.4649817" lon="11.2893283"><ele>563.5</ele><time>2026-04-25T15:33:33.725Z</time></trkpt><trkpt lat="43.4650717" lon="11.289305"><ele>564.0</ele><time>2026-04-25T15:33:34.724Z</time></trkpt><trkpt lat="43.4651617" lon="11.2892767"><ele>564.0</ele><time>2026-04-25T15:33:35.722Z</time></trkpt><trkpt lat="43.465255" lon="11.2892517"><ele>564.0</ele><time>2026-04-25T15:33:36.722Z</time></trkpt><trkpt lat="43.4653483" lon="11.289225"><ele>564.0</ele><time>2026-04-25T15:33:37.723Z</time></trkpt><trkpt lat="43.465445" lon="11.2892017"><ele>564.0</ele><time>2026-04-25T15:33:38.724Z</time></trkpt><trkpt lat="43.4655433" lon="11.2891733"><ele>564.0</ele><time>2026-04-25T15:33:39.723Z</time></trkpt><trkpt lat="43.46564" lon="11.28914"><ele>564.6</ele><time>2026-04-25T15:33:40.724Z</time></trkpt><trkpt lat="43.4657333" lon="11.28911"><ele>565.2</ele><time>2026-04-25T15:33:41.723Z</time></trkpt><trkpt lat="43.4658283" lon="11.2890783"><ele>565.8000000000001</ele><time>2026-04-25T15:33:42.724Z</time></trkpt><trkpt lat="43.465915" lon="11.2890467"><ele>566.4</ele><time>2026-04-25T15:33:43.723Z</time></trkpt><trkpt lat="43.466" lon="11.2890083"><ele>567.0</ele><time>2026-04-25T15:33:44.723Z</time></trkpt><trkpt lat="43.466085" lon="11.28897"><ele>567.0</ele><time>2026-04-25T15:33:45.723Z</time></trkpt><trkpt lat="43.466175" lon="11.2889367"><ele>567.0</ele><time>2026-04-25T15:33:46.724Z</time></trkpt><trkpt lat="43.46627" lon="11.2888917"><ele>567.0</ele><time>2026-04-25T15:33:47.723Z</time></trkpt><trkpt lat="43.4663617" lon="11.2888367"><ele>567.0</ele><time>2026-04-25T15:33:48.724Z</time></trkpt><trkpt lat="43.466465" lon="11.2887833"><ele>567.0</ele><time>2026-04-25T15:33:49.724Z</time></trkpt><trkpt lat="43.46657" lon="11.288725"><ele>568.0</ele><time>2026-04-25T15:33:50.724Z</time></trkpt><trkpt lat="43.4666717" lon="11.2886683"><ele>569.0</ele><time>2026-04-25T15:33:51.721Z</time></trkpt><trkpt lat="43.466765" lon="11.2886133"><ele>570.0</ele><time>2026-04-25T15:33:52.723Z</time></trkpt><trkpt lat="43.466855" lon="11.2885617"><ele>571.0</ele><time>2026-04-25T15:33:53.723Z</time></trkpt><trkpt lat="43.46694" lon="11.2885"><ele>572.0</ele><time>2026-04-25T15:33:54.724Z</time></trkpt><trkpt lat="43.4670233" lon="11.2884317"><ele>572.0</ele><time>2026-04-25T15:33:55.723Z</time></trkpt><trkpt lat="43.4671017" lon="11.2883567"><ele>572.0</ele><time>2026-04-25T15:33:56.724Z</time></trkpt><trkpt lat="43.4671683" lon="11.28827"><ele>572.0</ele><time>2026-04-25T15:33:57.722Z</time></trkpt><trkpt lat="43.46723" lon="11.288165"><ele>572.0</ele><time>2026-04-25T15:33:58.722Z</time></trkpt><trkpt lat="43.4672917" lon="11.2880483"><ele>572.0</ele><time>2026-04-25T15:33:59.724Z</time></trkpt><trkpt lat="43.467355" lon="11.287925"><ele>571.4</ele><time>2026-04-25T15:34:00.722Z</time></trkpt><trkpt lat="43.467415" lon="11.2878033"><ele>570.8000000000001</ele><time>2026-04-25T15:34:01.723Z</time></trkpt><trkpt lat="43.4674717" lon="11.2876867"><ele>570.2</ele><time>2026-04-25T15:34:02.723Z</time></trkpt><trkpt lat="43.4675233" lon="11.2875733"><ele>569.6</ele><time>2026-04-25T15:34:03.722Z</time></trkpt><trkpt lat="43.467585" lon="11.2874767"><ele>569.0</ele><time>2026-04-25T15:34:04.723Z</time></trkpt><trkpt lat="43.46765" lon="11.2873883"><ele>569.0</ele><time>2026-04-25T15:34:05.723Z</time></trkpt><trkpt lat="43.46773" lon="11.287315"><ele>569.0</ele><time>2026-04-25T15:34:06.723Z</time></trkpt><trkpt lat="43.4678183" lon="11.287255"><ele>569.0</ele><time>2026-04-25T15:34:07.723Z</time></trkpt><trkpt lat="43.4679067" lon="11.2872033"><ele>569.0</ele><time>2026-04-25T15:34:08.725Z</time></trkpt><trkpt lat="43.46799" lon="11.287155"><ele>569.0</ele><time>2026-04-25T15:34:09.724Z</time></trkpt><trkpt lat="43.4680683" lon="11.2871117"><ele>568.4</ele><time>2026-04-25T15:34:10.724Z</time></trkpt><trkpt lat="43.4681483" lon="11.2870633"><ele>567.8</ele><time>2026-04-25T15:34:11.724Z</time></trkpt><trkpt lat="43.46823" lon="11.2869867"><ele>567.2</ele><time>2026-04-25T15:34:12.724Z</time></trkpt><trkpt lat="43.4683067" lon="11.2868967"><ele>566.6</ele><time>2026-04-25T15:34:13.722Z</time></trkpt><trkpt lat="43.4683833" lon="11.286795"><ele>566.0</ele><time>2026-04-25T15:34:14.725Z</time></trkpt><trkpt lat="43.4684567" lon="11.2866867"><ele>566.0</ele><time>2026-04-25T15:34:15.725Z</time></trkpt><trkpt lat="43.4685317" lon="11.2865817"><ele>566.0</ele><time>2026-04-25T15:34:16.724Z</time></trkpt><trkpt lat="43.4686067" lon="11.2864683"><ele>566.0</ele><time>2026-04-25T15:34:17.725Z</time></trkpt><trkpt lat="43.4686867" lon="11.2863717"><ele>566.0</ele><time>2026-04-25T15:34:18.726Z</time></trkpt><trkpt lat="43.46877" lon="11.2862833"><ele>566.0</ele><time>2026-04-25T15:34:19.725Z</time></trkpt><trkpt lat="43.4688517" lon="11.28621"><ele>566.0</ele><time>2026-04-25T15:34:20.724Z</time></trkpt><trkpt lat="43.468945" lon="11.28615"><ele>566.0</ele><time>2026-04-25T15:34:21.724Z</time></trkpt><trkpt lat="43.469045" lon="11.286105"><ele>566.0</ele><time>2026-04-25T15:34:22.724Z</time></trkpt><trkpt lat="43.4691433" lon="11.2860733"><ele>566.0</ele><time>2026-04-25T15:34:23.723Z</time></trkpt><trkpt lat="43.4692383" lon="11.2860483"><ele>566.0</ele><time>2026-04-25T15:34:24.724Z</time></trkpt><trkpt lat="43.4693383" lon="11.2860383"><ele>566.0</ele><time>2026-04-25T15:34:25.724Z</time></trkpt><trkpt lat="43.4694367" lon="11.2860267"><ele>566.0</ele><time>2026-04-25T15:34:26.724Z</time></trkpt><trkpt lat="43.4695417" lon="11.2860217"><ele>566.0</ele><time>2026-04-25T15:34:27.723Z</time></trkpt><trkpt lat="43.4696367" lon="11.28601"><ele>566.0</ele><time>2026-04-25T15:34:28.723Z</time></trkpt><trkpt lat="43.4697317" lon="11.2859883"><ele>566.0</ele><time>2026-04-25T15:34:29.723Z</time></trkpt><trkpt lat="43.469825" lon="11.2859467"><ele>566.4</ele><time>2026-04-25T15:34:30.724Z</time></trkpt><trkpt lat="43.469915" lon="11.2858917"><ele>566.8</ele><time>2026-04-25T15:34:31.723Z</time></trkpt><trkpt lat="43.4700067" lon="11.2858467"><ele>567.1999999999999</ele><time>2026-04-25T15:34:32.724Z</time></trkpt><trkpt lat="43.47009" lon="11.285795"><ele>567.6</ele><time>2026-04-25T15:34:33.722Z</time></trkpt><trkpt lat="43.470175" lon="11.2857467"><ele>568.0</ele><time>2026-04-25T15:34:34.723Z</time></trkpt><trkpt lat="43.4702633" lon="11.2857017"><ele>568.0</ele><time>2026-04-25T15:34:35.723Z</time></trkpt><trkpt lat="43.4703517" lon="11.285655"><ele>568.0</ele><time>2026-04-25T15:34:36.724Z</time></trkpt><trkpt lat="43.4704317" lon="11.2856117"><ele>568.0</ele><time>2026-04-25T15:34:37.723Z</time></trkpt><trkpt lat="43.470515" lon="11.2855717"><ele>568.0</ele><time>2026-04-25T15:34:38.722Z</time></trkpt><trkpt lat="43.470605" lon="11.28553"><ele>568.0</ele><time>2026-04-25T15:34:39.724Z</time></trkpt><trkpt lat="43.4706933" lon="11.2854883"><ele>566.8</ele><time>2026-04-25T15:34:40.723Z</time></trkpt><trkpt lat="43.470785" lon="11.2854483"><ele>565.5999999999999</ele><time>2026-04-25T15:34:41.724Z</time></trkpt><trkpt lat="43.4708817" lon="11.28541"><ele>564.4000000000001</ele><time>2026-04-25T15:34:42.724Z</time></trkpt><trkpt lat="43.4709783" lon="11.2853817"><ele>563.2</ele><time>2026-04-25T15:34:43.723Z</time></trkpt><trkpt lat="43.47106" lon="11.2853567"><ele>562.0</ele><time>2026-04-25T15:34:44.724Z</time></trkpt><trkpt lat="43.47113" lon="11.2853417"><ele>562.0</ele><time>2026-04-25T15:34:45.724Z</time></trkpt><trkpt lat="43.4712367" lon="11.2853317"><ele>562.0</ele><time>2026-04-25T15:34:47.724Z</time></trkpt><trkpt lat="43.471305" lon="11.2852833"><ele>562.0</ele><time>2026-04-25T15:34:49.724Z</time></trkpt><trkpt lat="43.4713283" lon="11.285145"><ele>562.0</ele><time>2026-04-25T15:34:51.723Z</time></trkpt><trkpt lat="43.471325" lon="11.28505"><ele>562.0</ele><time>2026-04-25T15:34:52.723Z</time></trkpt><trkpt lat="43.4713183" lon="11.2849333"><ele>562.0</ele><time>2026-04-25T15:34:53.725Z</time></trkpt><trkpt lat="43.47132" lon="11.284785"><ele>565.4</ele><time>2026-04-25T15:34:54.723Z</time></trkpt><trkpt lat="43.4713317" lon="11.284635"><ele>568.8000000000001</ele><time>2026-04-25T15:34:55.723Z</time></trkpt><trkpt lat="43.4713433" lon="11.2844867"><ele>572.2</ele><time>2026-04-25T15:34:56.724Z</time></trkpt><trkpt lat="43.4713567" lon="11.2843383"><ele>575.6</ele><time>2026-04-25T15:34:57.724Z</time></trkpt><trkpt lat="43.4713683" lon="11.284195"><ele>579.0</ele><time>2026-04-25T15:34:58.724Z</time></trkpt><trkpt lat="43.471385" lon="11.2840467"><ele>579.2</ele><time>2026-04-25T15:34:59.725Z</time></trkpt><trkpt lat="43.4714017" lon="11.2838983"><ele>579.4</ele><time>2026-04-25T15:35:00.724Z</time></trkpt><trkpt lat="43.47142" lon="11.2837533"><ele>579.6</ele><time>2026-04-25T15:35:01.724Z</time></trkpt><trkpt lat="43.4714383" lon="11.28361"><ele>579.8</ele><time>2026-04-25T15:35:02.724Z</time></trkpt><trkpt lat="43.471455" lon="11.2834733"><ele>580.0</ele><time>2026-04-25T15:35:03.724Z</time></trkpt><trkpt lat="43.4714633" lon="11.2833433"><ele>580.0</ele><time>2026-04-25T15:35:04.723Z</time></trkpt><trkpt lat="43.4714483" lon="11.2832133"><ele>580.0</ele><time>2026-04-25T15:35:05.723Z</time></trkpt><trkpt lat="43.4714083" lon="11.2830883"><ele>580.0</ele><time>2026-04-25T15:35:06.723Z</time></trkpt><trkpt lat="43.4713483" lon="11.2829783"><ele>580.0</ele><time>2026-04-25T15:35:07.723Z</time></trkpt><trkpt lat="43.4712767" lon="11.2828933"><ele>580.0</ele><time>2026-04-25T15:35:08.725Z</time></trkpt><trkpt lat="43.471195" lon="11.2828383"><ele>577.8</ele><time>2026-04-25T15:35:09.724Z</time></trkpt><trkpt lat="43.4711083" lon="11.282785"><ele>575.6</ele><time>2026-04-25T15:35:10.723Z</time></trkpt><trkpt lat="43.4710283" lon="11.2827283"><ele>573.4</ele><time>2026-04-25T15:35:11.724Z</time></trkpt><trkpt lat="43.470955" lon="11.2826567"><ele>571.2</ele><time>2026-04-25T15:35:12.726Z</time></trkpt><trkpt lat="43.4708983" lon="11.2825683"><ele>569.0</ele><time>2026-04-25T15:35:13.724Z</time></trkpt><trkpt lat="43.47085" lon="11.282455"><ele>569.0</ele><time>2026-04-25T15:35:14.724Z</time></trkpt><trkpt lat="43.47082" lon="11.2823433"><ele>569.0</ele><time>2026-04-25T15:35:15.722Z</time></trkpt><trkpt lat="43.470815" lon="11.2822133"><ele>569.0</ele><time>2026-04-25T15:35:16.723Z</time></trkpt><trkpt lat="43.47082" lon="11.2820867"><ele>569.0</ele><time>2026-04-25T15:35:17.722Z</time></trkpt><trkpt lat="43.47084" lon="11.2819683"><ele>569.0</ele><time>2026-04-25T15:35:18.722Z</time></trkpt><trkpt lat="43.47087" lon="11.281855"><ele>569.0</ele><time>2026-04-25T15:35:19.722Z</time></trkpt><trkpt lat="43.4709017" lon="11.2817417"><ele>569.1666666666666</ele><time>2026-04-25T15:35:20.722Z</time></trkpt><trkpt lat="43.4709283" lon="11.2816367"><ele>569.3333333333333</ele><time>2026-04-25T15:35:21.722Z</time></trkpt><trkpt lat="43.4709467" lon="11.2815333"><ele>569.5</ele><time>2026-04-25T15:35:22.723Z</time></trkpt><trkpt lat="43.4709533" lon="11.28144"><ele>569.6666666666666</ele><time>2026-04-25T15:35:23.722Z</time></trkpt><trkpt lat="43.4709517" lon="11.281335"><ele>569.8333333333334</ele><time>2026-04-25T15:35:24.722Z</time></trkpt><trkpt lat="43.4709417" lon="11.281225"><ele>570.0</ele><time>2026-04-25T15:35:25.723Z</time></trkpt><trkpt lat="43.47093" lon="11.2811033"><ele>569.5</ele><time>2026-04-25T15:35:26.724Z</time></trkpt><trkpt lat="43.4709233" lon="11.280985"><ele>569.0</ele><time>2026-04-25T15:35:27.724Z</time></trkpt><trkpt lat="43.4709217" lon="11.2808633"><ele>568.5</ele><time>2026-04-25T15:35:28.723Z</time></trkpt><trkpt lat="43.4709267" lon="11.2807433"><ele>568.0</ele><time>2026-04-25T15:35:29.725Z</time></trkpt><trkpt lat="43.4709367" lon="11.2806267"><ele>567.5</ele><time>2026-04-25T15:35:30.724Z</time></trkpt><trkpt lat="43.4709633" lon="11.2805083"><ele>567.0</ele><time>2026-04-25T15:35:31.724Z</time></trkpt><trkpt lat="43.4710017" lon="11.280395"><ele>567.0</ele><time>2026-04-25T15:35:32.723Z</time></trkpt><trkpt lat="43.4710617" lon="11.2802933"><ele>567.0</ele><time>2026-04-25T15:35:33.723Z</time></trkpt><trkpt lat="43.4711333" lon="11.280215"><ele>567.0</ele><time>2026-04-25T15:35:34.724Z</time></trkpt><trkpt lat="43.47124" lon="11.2801933"><ele>567.0</ele><time>2026-04-25T15:35:35.722Z</time></trkpt><trkpt lat="43.471345" lon="11.28019"><ele>567.0</ele><time>2026-04-25T15:35:36.724Z</time></trkpt><trkpt lat="43.4714517" lon="11.2801967"><ele>567.0</ele><time>2026-04-25T15:35:37.725Z</time></trkpt><trkpt lat="43.471555" lon="11.2802083"><ele>567.0</ele><time>2026-04-25T15:35:38.723Z</time></trkpt><trkpt lat="43.4716517" lon="11.28022"><ele>567.0</ele><time>2026-04-25T15:35:39.723Z</time></trkpt><trkpt lat="43.47174" lon="11.280225"><ele>567.0</ele><time>2026-04-25T15:35:40.724Z</time></trkpt><trkpt lat="43.471815" lon="11.280215"><ele>567.0</ele><time>2026-04-25T15:35:41.723Z</time></trkpt><trkpt lat="43.471885" lon="11.2801817"><ele>567.0</ele><time>2026-04-25T15:35:42.722Z</time></trkpt><trkpt lat="43.47195" lon="11.2801333"><ele>567.0</ele><time>2026-04-25T15:35:43.722Z</time></trkpt><trkpt lat="43.472005" lon="11.2800717"><ele>567.0</ele><time>2026-04-25T15:35:44.724Z</time></trkpt><trkpt lat="43.472055" lon="11.2800017"><ele>567.0</ele><time>2026-04-25T15:35:45.723Z</time></trkpt><trkpt lat="43.4720967" lon="11.2799267"><ele>567.0</ele><time>2026-04-25T15:35:46.724Z</time></trkpt><trkpt lat="43.4721317" lon="11.2798417"><ele>567.0</ele><time>2026-04-25T15:35:47.724Z</time></trkpt><trkpt lat="43.4721583" lon="11.2797467"><ele>567.0</ele><time>2026-04-25T15:35:48.723Z</time></trkpt><trkpt lat="43.4721733" lon="11.2796333"><ele>567.0</ele><time>2026-04-25T15:35:49.724Z</time></trkpt><trkpt lat="43.4721733" lon="11.27951"><ele>566.8000000000001</ele><time>2026-04-25T15:35:50.723Z</time></trkpt><trkpt lat="43.4721467" lon="11.2793883"><ele>566.6</ele><time>2026-04-25T15:35:51.724Z</time></trkpt><trkpt lat="43.472075" lon="11.2792733"><ele>566.4000000000001</ele><time>2026-04-25T15:35:52.723Z</time></trkpt><trkpt lat="43.4719983" lon="11.2791667"><ele>566.2</ele><time>2026-04-25T15:35:53.724Z</time></trkpt><trkpt lat="43.4719083" lon="11.2790667"><ele>566.0</ele><time>2026-04-25T15:35:54.722Z</time></trkpt><trkpt lat="43.47182" lon="11.27896"><ele>568.0</ele><time>2026-04-25T15:35:55.723Z</time></trkpt><trkpt lat="43.4717317" lon="11.2788633"><ele>570.0</ele><time>2026-04-25T15:35:56.723Z</time></trkpt><trkpt lat="43.471645" lon="11.2787633"><ele>572.0</ele><time>2026-04-25T15:35:57.722Z</time></trkpt><trkpt lat="43.4715633" lon="11.2786633"><ele>574.0</ele><time>2026-04-25T15:35:58.722Z</time></trkpt><trkpt lat="43.4714917" lon="11.2785467"><ele>576.0</ele><time>2026-04-25T15:35:59.723Z</time></trkpt><trkpt lat="43.4714467" lon="11.2784117"><ele>576.0</ele><time>2026-04-25T15:36:00.724Z</time></trkpt><trkpt lat="43.4714267" lon="11.2782633"><ele>576.0</ele><time>2026-04-25T15:36:01.723Z</time></trkpt><trkpt lat="43.4714367" lon="11.278115"><ele>576.0</ele><time>2026-04-25T15:36:02.725Z</time></trkpt><trkpt lat="43.4714783" lon="11.2779667"><ele>576.0</ele><time>2026-04-25T15:36:03.724Z</time></trkpt><trkpt lat="43.471545" lon="11.2778217"><ele>574.25</ele><time>2026-04-25T15:36:04.723Z</time></trkpt><trkpt lat="43.4716283" lon="11.27769"><ele>572.5</ele><time>2026-04-25T15:36:05.724Z</time></trkpt><trkpt lat="43.4717067" lon="11.2775733"><ele>570.75</ele><time>2026-04-25T15:36:06.724Z</time></trkpt><trkpt lat="43.4717817" lon="11.2774633"><ele>569.0</ele><time>2026-04-25T15:36:07.723Z</time></trkpt><trkpt lat="43.4718533" lon="11.2773617"><ele>568.2</ele><time>2026-04-25T15:36:08.724Z</time></trkpt><trkpt lat="43.47192" lon="11.2772617"><ele>567.4</ele><time>2026-04-25T15:36:09.723Z</time></trkpt><trkpt lat="43.4719783" lon="11.27716"><ele>566.6</ele><time>2026-04-25T15:36:10.724Z</time></trkpt><trkpt lat="43.4720267" lon="11.277055"><ele>565.8</ele><time>2026-04-25T15:36:11.726Z</time></trkpt><trkpt lat="43.4720617" lon="11.27694"><ele>565.0</ele><time>2026-04-25T15:36:12.724Z</time></trkpt><trkpt lat="43.4720533" lon="11.2768233"><ele>565.0</ele><time>2026-04-25T15:36:13.725Z</time></trkpt><trkpt lat="43.4720383" lon="11.2767133"><ele>565.0</ele><time>2026-04-25T15:36:14.725Z</time></trkpt><trkpt lat="43.4720067" lon="11.2766233"><ele>565.0</ele><time>2026-04-25T15:36:15.723Z</time></trkpt><trkpt lat="43.4719583" lon="11.2765417"><ele>565.0</ele><time>2026-04-25T15:36:16.724Z</time></trkpt><trkpt lat="43.47189" lon="11.2764283"><ele>565.0</ele><time>2026-04-25T15:36:18.723Z</time></trkpt><trkpt lat="43.4718283" lon="11.2763783"><ele>565.0</ele><time>2026-04-25T15:36:21.724Z</time></trkpt><trkpt lat="43.471785" lon="11.2762367"><ele>565.1666666666667</ele><time>2026-04-25T15:36:24.722Z</time></trkpt><trkpt lat="43.471775" lon="11.2761383"><ele>565.3333333333334</ele><time>2026-04-25T15:36:25.724Z</time></trkpt><trkpt lat="43.4717733" lon="11.2760317"><ele>565.5</ele><time>2026-04-25T15:36:26.724Z</time></trkpt><trkpt lat="43.47178" lon="11.275915"><ele>565.6666666666666</ele><time>2026-04-25T15:36:27.724Z</time></trkpt><trkpt lat="43.4717917" lon="11.2757917"><ele>565.8333333333333</ele><time>2026-04-25T15:36:28.723Z</time></trkpt><trkpt lat="43.471805" lon="11.275665"><ele>566.0</ele><time>2026-04-25T15:36:29.724Z</time></trkpt><trkpt lat="43.4718233" lon="11.2755317"><ele>566.0</ele><time>2026-04-25T15:36:30.724Z</time></trkpt><trkpt lat="43.47184" lon="11.2754"><ele>566.0</ele><time>2026-04-25T15:36:31.723Z</time></trkpt><trkpt lat="43.4718517" lon="11.275285"><ele>566.0</ele><time>2026-04-25T15:36:32.723Z</time></trkpt><trkpt lat="43.4718667" lon="11.2751783"><ele>566.0</ele><time>2026-04-25T15:36:33.722Z</time></trkpt><trkpt lat="43.4718883" lon="11.2750733"><ele>566.0</ele><time>2026-04-25T15:36:34.723Z</time></trkpt><trkpt lat="43.4719117" lon="11.2749817"><ele>566.0</ele><time>2026-04-25T15:36:35.724Z</time></trkpt><trkpt lat="43.4719783" lon="11.2748733"><ele>566.0</ele><time>2026-04-25T15:36:37.722Z</time></trkpt><trkpt lat="43.4720867" lon="11.2749217"><ele>566.0</ele><time>2026-04-25T15:36:39.724Z</time></trkpt><trkpt lat="43.472145" lon="11.2749933"><ele>566.0</ele><time>2026-04-25T15:36:40.725Z</time></trkpt><trkpt lat="43.4722083" lon="11.2750933"><ele>566.0</ele><time>2026-04-25T15:36:41.723Z</time></trkpt><trkpt lat="43.4722833" lon="11.2752117"><ele>566.0</ele><time>2026-04-25T15:36:42.722Z</time></trkpt><trkpt lat="43.4723583" lon="11.2753667"><ele>571.0</ele><time>2026-04-25T15:36:43.724Z</time></trkpt><trkpt lat="43.4724183" lon="11.2755283"><ele>576.0</ele><time>2026-04-25T15:36:44.724Z</time></trkpt><trkpt lat="43.472495" lon="11.275695"><ele>581.0</ele><time>2026-04-25T15:36:45.724Z</time></trkpt><trkpt lat="43.4725483" lon="11.27587"><ele>586.0</ele><time>2026-04-25T15:36:46.727Z</time></trkpt><trkpt lat="43.4726017" lon="11.27604"><ele>586.0</ele><time>2026-04-25T15:36:47.725Z</time></trkpt><trkpt lat="43.47265" lon="11.276205"><ele>586.0</ele><time>2026-04-25T15:36:48.723Z</time></trkpt><trkpt lat="43.4726933" lon="11.2763567"><ele>586.0</ele><time>2026-04-25T15:36:49.724Z</time></trkpt><trkpt lat="43.4727467" lon="11.2764983"><ele>586.0</ele><time>2026-04-25T15:36:50.723Z</time></trkpt><trkpt lat="43.47281" lon="11.27663"><ele>585.0</ele><time>2026-04-25T15:36:51.725Z</time></trkpt><trkpt lat="43.47288" lon="11.2767683"><ele>584.0</ele><time>2026-04-25T15:36:52.723Z</time></trkpt><trkpt lat="43.4729583" lon="11.2769083"><ele>583.0</ele><time>2026-04-25T15:36:53.724Z</time></trkpt><trkpt lat="43.4730367" lon="11.27704"><ele>582.0</ele><time>2026-04-25T15:36:54.725Z</time></trkpt><trkpt lat="43.4731017" lon="11.2771617"><ele>584.6666666666666</ele><time>2026-04-25T15:36:55.723Z</time></trkpt><trkpt lat="43.4731633" lon="11.2772667"><ele>587.3333333333334</ele><time>2026-04-25T15:36:56.726Z</time></trkpt><trkpt lat="43.4732233" lon="11.2773483"><ele>590.0</ele><time>2026-04-25T15:36:57.724Z</time></trkpt><trkpt lat="43.4732817" lon="11.2774083"><ele>592.6666666666667</ele><time>2026-04-25T15:36:58.724Z</time></trkpt><trkpt lat="43.473345" lon="11.2774383"><ele>595.3333333333334</ele><time>2026-04-25T15:36:59.724Z</time></trkpt><trkpt lat="43.47341" lon="11.27745"><ele>598.0</ele><time>2026-04-25T15:37:00.724Z</time></trkpt><trkpt lat="43.4734733" lon="11.2774367"><ele>598.0</ele><time>2026-04-25T15:37:01.723Z</time></trkpt><trkpt lat="43.47358" lon="11.2773733"><ele>598.0</ele><time>2026-04-25T15:37:03.725Z</time></trkpt><trkpt lat="43.4736917" lon="11.2773033"><ele>598.0</ele><time>2026-04-25T15:37:05.724Z</time></trkpt><trkpt lat="43.4738067" lon="11.277265"><ele>598.0</ele><time>2026-04-25T15:37:07.723Z</time></trkpt><trkpt lat="43.4739133" lon="11.2773017"><ele>599.5</ele><time>2026-04-25T15:37:09.723Z</time></trkpt><trkpt lat="43.474" lon="11.2773867"><ele>601.0</ele><time>2026-04-25T15:37:11.724Z</time></trkpt><trkpt lat="43.4740633" lon="11.2774717"><ele>602.5</ele><time>2026-04-25T15:37:13.725Z</time></trkpt><trkpt lat="43.4741317" lon="11.277545"><ele>604.0</ele><time>2026-04-25T15:37:15.723Z</time></trkpt><trkpt lat="43.474195" lon="11.2775933"><ele>605.5</ele><time>2026-04-25T15:37:17.724Z</time></trkpt><trkpt lat="43.4742717" lon="11.2776083"><ele>607.0</ele><time>2026-04-25T15:37:31.724Z</time></trkpt><trkpt lat="43.4743483" lon="11.2775083"><ele>607.0</ele><time>2026-04-25T15:37:33.723Z</time></trkpt><trkpt lat="43.4743983" lon="11.2774167"><ele>607.0</ele><time>2026-04-25T15:37:34.723Z</time></trkpt><trkpt lat="43.4744533" lon="11.277305"><ele>607.0</ele><time>2026-04-25T15:37:35.724Z</time></trkpt><trkpt lat="43.4745217" lon="11.2771667"><ele>607.0</ele><time>2026-04-25T15:37:36.722Z</time></trkpt><trkpt lat="43.4746" lon="11.2770183"><ele>607.0</ele><time>2026-04-25T15:37:37.723Z</time></trkpt><trkpt lat="43.474675" lon="11.2768683"><ele>609.0</ele><time>2026-04-25T15:37:38.723Z</time></trkpt><trkpt lat="43.4747383" lon="11.276705"><ele>611.0</ele><time>2026-04-25T15:37:39.723Z</time></trkpt><trkpt lat="43.474775" lon="11.2765"><ele>613.0</ele><time>2026-04-25T15:37:40.723Z</time></trkpt><trkpt lat="43.474795" lon="11.2762467"><ele>613.0</ele><time>2026-04-25T15:37:41.724Z</time></trkpt><trkpt lat="43.4747967" lon="11.2759767"><ele>613.0</ele><time>2026-04-25T15:37:42.724Z</time></trkpt><trkpt lat="43.4747833" lon="11.27573"><ele>613.0</ele><time>2026-04-25T15:37:43.725Z</time></trkpt><trkpt lat="43.474765" lon="11.2754933"><ele>613.0</ele><time>2026-04-25T15:37:44.724Z</time></trkpt><trkpt lat="43.4747517" lon="11.2752717"><ele>613.0</ele><time>2026-04-25T15:37:45.725Z</time></trkpt><trkpt lat="43.4747483" lon="11.275065"><ele>613.0</ele><time>2026-04-25T15:37:46.724Z</time></trkpt><trkpt lat="43.47475" lon="11.2748767"><ele>613.0</ele><time>2026-04-25T15:37:47.724Z</time></trkpt><trkpt lat="43.474765" lon="11.2746933"><ele>612.3333333333334</ele><time>2026-04-25T15:37:48.724Z</time></trkpt><trkpt lat="43.4747883" lon="11.2745"><ele>611.6666666666666</ele><time>2026-04-25T15:37:49.724Z</time></trkpt><trkpt lat="43.474825" lon="11.27426"><ele>611.0</ele><time>2026-04-25T15:37:50.723Z</time></trkpt><trkpt lat="43.4748933" lon="11.2739867"><ele>610.6666666666666</ele><time>2026-04-25T15:37:51.724Z</time></trkpt><trkpt lat="43.4749817" lon="11.2737167"><ele>610.3333333333334</ele><time>2026-04-25T15:37:52.724Z</time></trkpt><trkpt lat="43.4750783" lon="11.27348"><ele>610.0</ele><time>2026-04-25T15:37:53.724Z</time></trkpt><trkpt lat="43.4751817" lon="11.2732733"><ele>611.75</ele><time>2026-04-25T15:37:54.724Z</time></trkpt><trkpt lat="43.4752833" lon="11.2731"><ele>613.5</ele><time>2026-04-25T15:37:55.723Z</time></trkpt><trkpt lat="43.4753717" lon="11.2729567"><ele>615.25</ele><time>2026-04-25T15:37:56.724Z</time></trkpt><trkpt lat="43.4754417" lon="11.2728433"><ele>617.0</ele><time>2026-04-25T15:37:57.725Z</time></trkpt><trkpt lat="43.4754967" lon="11.272745"><ele>617.0</ele><time>2026-04-25T15:37:58.724Z</time></trkpt><trkpt lat="43.4755467" lon="11.2726533"><ele>617.0</ele><time>2026-04-25T15:37:59.723Z</time></trkpt><trkpt lat="43.4755983" lon="11.2725617"><ele>617.0</ele><time>2026-04-25T15:38:00.723Z</time></trkpt><trkpt lat="43.4756683" lon="11.272465"><ele>617.0</ele><time>2026-04-25T15:38:01.724Z</time></trkpt><trkpt lat="43.4757517" lon="11.2723717"><ele>617.0</ele><time>2026-04-25T15:38:02.724Z</time></trkpt><trkpt lat="43.4758483" lon="11.2722683"><ele>615.0</ele><time>2026-04-25T15:38:03.723Z</time></trkpt><trkpt lat="43.4759533" lon="11.272165"><ele>613.0</ele><time>2026-04-25T15:38:04.724Z</time></trkpt><trkpt lat="43.4760683" lon="11.2720633"><ele>611.0</ele><time>2026-04-25T15:38:05.724Z</time></trkpt><trkpt lat="43.4761833" lon="11.2719533"><ele>609.0</ele><time>2026-04-25T15:38:06.724Z</time></trkpt><trkpt lat="43.4762983" lon="11.2718333"><ele>613.25</ele><time>2026-04-25T15:38:07.723Z</time></trkpt><trkpt lat="43.476395" lon="11.271705"><ele>617.5</ele><time>2026-04-25T15:38:08.724Z</time></trkpt><trkpt lat="43.4764917" lon="11.2715733"><ele>621.75</ele><time>2026-04-25T15:38:09.722Z</time></trkpt><trkpt lat="43.4765767" lon="11.2714317"><ele>626.0</ele><time>2026-04-25T15:38:10.722Z</time></trkpt><trkpt lat="43.4766383" lon="11.2712833"><ele>626.0</ele><time>2026-04-25T15:38:11.724Z</time></trkpt><trkpt lat="43.4767033" lon="11.2711383"><ele>626.0</ele><time>2026-04-25T15:38:12.725Z</time></trkpt><trkpt lat="43.47676" lon="11.27099"><ele>626.0</ele><time>2026-04-25T15:38:13.723Z</time></trkpt><trkpt lat="43.47682" lon="11.2708317"><ele>626.0</ele><time>2026-04-25T15:38:14.723Z</time></trkpt><trkpt lat="43.4768867" lon="11.27067"><ele>625.5</ele><time>2026-04-25T15:38:15.724Z</time></trkpt><trkpt lat="43.4769517" lon="11.2705133"><ele>625.0</ele><time>2026-04-25T15:38:16.724Z</time></trkpt><trkpt lat="43.4770083" lon="11.2703483"><ele>624.5</ele><time>2026-04-25T15:38:17.723Z</time></trkpt><trkpt lat="43.4770833" lon="11.270195"><ele>624.0</ele><time>2026-04-25T15:38:18.724Z</time></trkpt><trkpt lat="43.47717" lon="11.27005"><ele>624.0</ele><time>2026-04-25T15:38:19.724Z</time></trkpt><trkpt lat="43.4772617" lon="11.2699083"><ele>624.0</ele><time>2026-04-25T15:38:20.726Z</time></trkpt><trkpt lat="43.477355" lon="11.269785"><ele>624.0</ele><time>2026-04-25T15:38:21.724Z</time></trkpt><trkpt lat="43.4774417" lon="11.2696783"><ele>624.0</ele><time>2026-04-25T15:38:22.726Z</time></trkpt><trkpt lat="43.4775283" lon="11.26957"><ele>624.25</ele><time>2026-04-25T15:38:23.724Z</time></trkpt><trkpt lat="43.4776117" lon="11.26946"><ele>624.5</ele><time>2026-04-25T15:38:24.726Z</time></trkpt><trkpt lat="43.47769" lon="11.269345"><ele>624.75</ele><time>2026-04-25T15:38:25.726Z</time></trkpt><trkpt lat="43.47777" lon="11.2692317"><ele>625.0</ele><time>2026-04-25T15:38:26.726Z</time></trkpt><trkpt lat="43.477855" lon="11.2691167"><ele>625.0</ele><time>2026-04-25T15:38:27.724Z</time></trkpt><trkpt lat="43.4779317" lon="11.2690017"><ele>625.0</ele><time>2026-04-25T15:38:28.726Z</time></trkpt><trkpt lat="43.4780067" lon="11.2688833"><ele>625.0</ele><time>2026-04-25T15:38:29.726Z</time></trkpt><trkpt lat="43.478085" lon="11.2687683"><ele>625.0</ele><time>2026-04-25T15:38:30.726Z</time></trkpt><trkpt lat="43.4781667" lon="11.2686567"><ele>625.0</ele><time>2026-04-25T15:38:31.726Z</time></trkpt><trkpt lat="43.4782533" lon="11.2685467"><ele>625.0</ele><time>2026-04-25T15:38:32.725Z</time></trkpt><trkpt lat="43.478335" lon="11.26844"><ele>625.0</ele><time>2026-04-25T15:38:33.724Z</time></trkpt><trkpt lat="43.4784183" lon="11.2683333"><ele>625.0</ele><time>2026-04-25T15:38:34.726Z</time></trkpt><trkpt lat="43.4785117" lon="11.2682367"><ele>625.0</ele><time>2026-04-25T15:38:35.725Z</time></trkpt><trkpt lat="43.4786133" lon="11.2681467"><ele>625.0</ele><time>2026-04-25T15:38:36.726Z</time></trkpt><trkpt lat="43.478725" lon="11.2680717"><ele>625.0</ele><time>2026-04-25T15:38:37.724Z</time></trkpt><trkpt lat="43.4788417" lon="11.26802"><ele>625.0</ele><time>2026-04-25T15:38:38.725Z</time></trkpt><trkpt lat="43.47898" lon="11.2679917"><ele>623.3333333333334</ele><time>2026-04-25T15:38:39.724Z</time></trkpt><trkpt lat="43.4791317" lon="11.2679783"><ele>621.6666666666666</ele><time>2026-04-25T15:38:40.724Z</time></trkpt><trkpt lat="43.4792883" lon="11.2679717"><ele>620.0</ele><time>2026-04-25T15:38:41.725Z</time></trkpt><trkpt lat="43.4794633" lon="11.26799"><ele>618.3333333333333</ele><time>2026-04-25T15:38:42.724Z</time></trkpt><trkpt lat="43.4796467" lon="11.2680217"><ele>616.6666666666666</ele><time>2026-04-25T15:38:43.725Z</time></trkpt><trkpt lat="43.4798533" lon="11.268075"><ele>615.0</ele><time>2026-04-25T15:38:44.725Z</time></trkpt><trkpt lat="43.4800683" lon="11.26814"><ele>615.0</ele><time>2026-04-25T15:38:45.724Z</time></trkpt><trkpt lat="43.48028" lon="11.268215"><ele>615.0</ele><time>2026-04-25T15:38:46.724Z</time></trkpt><trkpt lat="43.4804883" lon="11.2683033"><ele>615.0</ele><time>2026-04-25T15:38:47.726Z</time></trkpt><trkpt lat="43.4807" lon="11.2683717"><ele>615.0</ele><time>2026-04-25T15:38:48.725Z</time></trkpt><trkpt lat="43.4809067" lon="11.2683817"><ele>615.0</ele><time>2026-04-25T15:38:49.726Z</time></trkpt><trkpt lat="43.4811117" lon="11.2683433"><ele>615.0</ele><time>2026-04-25T15:38:50.725Z</time></trkpt><trkpt lat="43.481335" lon="11.2682517"><ele>613.5</ele><time>2026-04-25T15:38:51.724Z</time></trkpt><trkpt lat="43.4815667" lon="11.2681467"><ele>612.0</ele><time>2026-04-25T15:38:52.725Z</time></trkpt><trkpt lat="43.48179" lon="11.2680183"><ele>606.0</ele><time>2026-04-25T15:38:53.723Z</time></trkpt><trkpt lat="43.482" lon="11.2678567"><ele>600.0</ele><time>2026-04-25T15:38:54.724Z</time></trkpt><trkpt lat="43.4822067" lon="11.2676833"><ele>600.0</ele><time>2026-04-25T15:38:55.723Z</time></trkpt><trkpt lat="43.4824183" lon="11.2675083"><ele>600.0</ele><time>2026-04-25T15:38:56.724Z</time></trkpt><trkpt lat="43.48263" lon="11.267335"><ele>599.0</ele><time>2026-04-25T15:38:57.725Z</time></trkpt><trkpt lat="43.4828283" lon="11.26717"><ele>598.0</ele><time>2026-04-25T15:38:58.724Z</time></trkpt><trkpt lat="43.4829933" lon="11.2669933"><ele>597.0</ele><time>2026-04-25T15:38:59.723Z</time></trkpt><trkpt lat="43.4831133" lon="11.2667817"><ele>597.0</ele><time>2026-04-25T15:39:00.725Z</time></trkpt><trkpt lat="43.483185" lon="11.2665183"><ele>597.0</ele><time>2026-04-25T15:39:01.724Z</time></trkpt><trkpt lat="43.483235" lon="11.266235"><ele>597.0</ele><time>2026-04-25T15:39:02.725Z</time></trkpt><trkpt lat="43.4833067" lon="11.26596"><ele>595.0</ele><time>2026-04-25T15:39:03.723Z</time></trkpt><trkpt lat="43.4834267" lon="11.2657117"><ele>593.0</ele><time>2026-04-25T15:39:04.725Z</time></trkpt><trkpt lat="43.4836033" lon="11.265495"><ele>592.0</ele><time>2026-04-25T15:39:05.723Z</time></trkpt><trkpt lat="43.4838133" lon="11.26531"><ele>591.0</ele><time>2026-04-25T15:39:06.724Z</time></trkpt><trkpt lat="43.4840483" lon="11.2651183"><ele>591.0</ele><time>2026-04-25T15:39:07.724Z</time></trkpt><trkpt lat="43.48428" lon="11.2648683"><ele>591.0</ele><time>2026-04-25T15:39:08.723Z</time></trkpt><trkpt lat="43.4845117" lon="11.2645733"><ele>593.0</ele><time>2026-04-25T15:39:09.723Z</time></trkpt><trkpt lat="43.4847317" lon="11.2642817"><ele>595.0</ele><time>2026-04-25T15:39:10.724Z</time></trkpt><trkpt lat="43.4849567" lon="11.264035"><ele>596.5</ele><time>2026-04-25T15:39:11.723Z</time></trkpt><trkpt lat="43.4852033" lon="11.2638483"><ele>598.0</ele><time>2026-04-25T15:39:12.724Z</time></trkpt><trkpt lat="43.4854717" lon="11.263715"><ele>598.0</ele><time>2026-04-25T15:39:13.723Z</time></trkpt><trkpt lat="43.4857367" lon="11.2636233"><ele>598.0</ele><time>2026-04-25T15:39:14.723Z</time></trkpt><trkpt lat="43.485975" lon="11.2635317"><ele>598.0</ele><time>2026-04-25T15:39:15.724Z</time></trkpt><trkpt lat="43.4862017" lon="11.2634283"><ele>598.0</ele><time>2026-04-25T15:39:16.724Z</time></trkpt><trkpt lat="43.4864317" lon="11.26331"><ele>598.5</ele><time>2026-04-25T15:39:17.722Z</time></trkpt><trkpt lat="43.4866733" lon="11.2631717"><ele>599.0</ele><time>2026-04-25T15:39:18.724Z</time></trkpt><trkpt lat="43.4869117" lon="11.2630083"><ele>596.5</ele><time>2026-04-25T15:39:19.723Z</time></trkpt><trkpt lat="43.487135" lon="11.262815"><ele>594.0</ele><time>2026-04-25T15:39:20.724Z</time></trkpt><trkpt lat="43.4873233" lon="11.2625817"><ele>594.0</ele><time>2026-04-25T15:39:21.724Z</time></trkpt><trkpt lat="43.4874867" lon="11.26231"><ele>594.0</ele><time>2026-04-25T15:39:22.725Z</time></trkpt><trkpt lat="43.4876483" lon="11.2620417"><ele>594.5</ele><time>2026-04-25T15:39:23.724Z</time></trkpt><trkpt lat="43.4878317" lon="11.261825"><ele>595.0</ele><time>2026-04-25T15:39:24.724Z</time></trkpt><trkpt lat="43.488045" lon="11.2616667"><ele>596.0</ele><time>2026-04-25T15:39:25.725Z</time></trkpt><trkpt lat="43.488265" lon="11.2615317"><ele>597.0</ele><time>2026-04-25T15:39:26.724Z</time></trkpt><trkpt lat="43.48847" lon="11.2613867"><ele>596.0</ele><time>2026-04-25T15:39:27.725Z</time></trkpt><trkpt lat="43.4886733" lon="11.26123"><ele>595.0</ele><time>2026-04-25T15:39:28.724Z</time></trkpt><trkpt lat="43.4888783" lon="11.26106"><ele>595.0</ele><time>2026-04-25T15:39:29.723Z</time></trkpt><trkpt lat="43.489085" lon="11.260905"><ele>595.0</ele><time>2026-04-25T15:39:30.724Z</time></trkpt><trkpt lat="43.48929" lon="11.2607967"><ele>595.0</ele><time>2026-04-25T15:39:31.724Z</time></trkpt><trkpt lat="43.4895217" lon="11.2607383"><ele>595.0</ele><time>2026-04-25T15:39:32.724Z</time></trkpt><trkpt lat="43.4897467" lon="11.26069"><ele>595.3333333333334</ele><time>2026-04-25T15:39:33.723Z</time></trkpt><trkpt lat="43.4899517" lon="11.2606183"><ele>595.6666666666666</ele><time>2026-04-25T15:39:34.724Z</time></trkpt><trkpt lat="43.4901167" lon="11.2604833"><ele>596.0</ele><time>2026-04-25T15:39:35.723Z</time></trkpt><trkpt lat="43.49025" lon="11.2603117"><ele>596.6666666666666</ele><time>2026-04-25T15:39:36.723Z</time></trkpt><trkpt lat="43.4903483" lon="11.2600617"><ele>597.3333333333334</ele><time>2026-04-25T15:39:37.724Z</time></trkpt><trkpt lat="43.49045" lon="11.2598217"><ele>598.0</ele><time>2026-04-25T15:39:38.723Z</time></trkpt><trkpt lat="43.49057" lon="11.25962"><ele>598.0</ele><time>2026-04-25T15:39:39.726Z</time></trkpt><trkpt lat="43.490725" lon="11.25946"><ele>598.0</ele><time>2026-04-25T15:39:40.725Z</time></trkpt><trkpt lat="43.490925" lon="11.2593283"><ele>598.0</ele><time>2026-04-25T15:39:41.723Z</time></trkpt><trkpt lat="43.4911533" lon="11.25919"><ele>594.5</ele><time>2026-04-25T15:39:42.723Z</time></trkpt><trkpt lat="43.4913917" lon="11.2590383"><ele>591.0</ele><time>2026-04-25T15:39:43.725Z</time></trkpt><trkpt lat="43.49162" lon="11.2588567"><ele>588.0</ele><time>2026-04-25T15:39:44.724Z</time></trkpt><trkpt lat="43.4918283" lon="11.258635"><ele>585.0</ele><time>2026-04-25T15:39:45.724Z</time></trkpt><trkpt lat="43.4919967" lon="11.258385"><ele>587.0</ele><time>2026-04-25T15:39:46.724Z</time></trkpt><trkpt lat="43.4921517" lon="11.2581417"><ele>589.0</ele><time>2026-04-25T15:39:47.725Z</time></trkpt><trkpt lat="43.4923083" lon="11.257925"><ele>589.0</ele><time>2026-04-25T15:39:48.725Z</time></trkpt><trkpt lat="43.492485" lon="11.2577483"><ele>589.0</ele><time>2026-04-25T15:39:49.724Z</time></trkpt><trkpt lat="43.4926717" lon="11.2576033"><ele>589.0</ele><time>2026-04-25T15:39:50.725Z</time></trkpt><trkpt lat="43.4928433" lon="11.257455"><ele>588.6666666666667</ele><time>2026-04-25T15:39:51.724Z</time></trkpt><trkpt lat="43.4929833" lon="11.25728"><ele>588.3333333333334</ele><time>2026-04-25T15:39:52.725Z</time></trkpt><trkpt lat="43.4930967" lon="11.2570767"><ele>588.0</ele><time>2026-04-25T15:39:53.722Z</time></trkpt><trkpt lat="43.4931467" lon="11.2568033"><ele>588.0</ele><time>2026-04-25T15:39:54.724Z</time></trkpt><trkpt lat="43.4931767" lon="11.25651"><ele>588.0</ele><time>2026-04-25T15:39:55.724Z</time></trkpt><trkpt lat="43.4932133" lon="11.2562417"><ele>588.0</ele><time>2026-04-25T15:39:56.726Z</time></trkpt><trkpt lat="43.4932667" lon="11.2560167"><ele>587.0</ele><time>2026-04-25T15:39:57.724Z</time></trkpt><trkpt lat="43.4933467" lon="11.2558383"><ele>586.0</ele><time>2026-04-25T15:39:58.724Z</time></trkpt><trkpt lat="43.4934533" lon="11.255725"><ele>585.0</ele><time>2026-04-25T15:39:59.722Z</time></trkpt><trkpt lat="43.4935767" lon="11.255685"><ele>584.0</ele><time>2026-04-25T15:40:00.724Z</time></trkpt><trkpt lat="43.49371" lon="11.2557033"><ele>584.0</ele><time>2026-04-25T15:40:01.726Z</time></trkpt><trkpt lat="43.4938617" lon="11.2557617"><ele>584.0</ele><time>2026-04-25T15:40:02.724Z</time></trkpt><trkpt lat="43.4940133" lon="11.255815"><ele>584.0</ele><time>2026-04-25T15:40:03.723Z</time></trkpt><trkpt lat="43.49416" lon="11.25581"><ele>584.0</ele><time>2026-04-25T15:40:04.725Z</time></trkpt><trkpt lat="43.4942933" lon="11.2557517"><ele>584.0</ele><time>2026-04-25T15:40:05.725Z</time></trkpt><trkpt lat="43.4944117" lon="11.2556217"><ele>584.0</ele><time>2026-04-25T15:40:06.723Z</time></trkpt><trkpt lat="43.49451" lon="11.2553933"><ele>581.5</ele><time>2026-04-25T15:40:07.723Z</time></trkpt><trkpt lat="43.494595" lon="11.2550983"><ele>579.0</ele><time>2026-04-25T15:40:08.724Z</time></trkpt><trkpt lat="43.494655" lon="11.2547817"><ele>578.5</ele><time>2026-04-25T15:40:09.725Z</time></trkpt><trkpt lat="43.4946733" lon="11.2544433"><ele>578.0</ele><time>2026-04-25T15:40:10.723Z</time></trkpt><trkpt lat="43.4946783" lon="11.2541083"><ele>576.3333333333333</ele><time>2026-04-25T15:40:11.724Z</time></trkpt><trkpt lat="43.4946933" lon="11.253795"><ele>574.6666666666666</ele><time>2026-04-25T15:40:12.723Z</time></trkpt><trkpt lat="43.4947367" lon="11.2535"><ele>573.0</ele><time>2026-04-25T15:40:13.723Z</time></trkpt><trkpt lat="43.494815" lon="11.25324"><ele>570.6666666666666</ele><time>2026-04-25T15:40:14.724Z</time></trkpt><trkpt lat="43.4949417" lon="11.2530133"><ele>568.3333333333333</ele><time>2026-04-25T15:40:15.724Z</time></trkpt><trkpt lat="43.495095" lon="11.2527983"><ele>566.0</ele><time>2026-04-25T15:40:16.724Z</time></trkpt><trkpt lat="43.4952417" lon="11.2525483"><ele>564.5</ele><time>2026-04-25T15:40:17.723Z</time></trkpt><trkpt lat="43.4953467" lon="11.2522517"><ele>563.0</ele><time>2026-04-25T15:40:18.724Z</time></trkpt><trkpt lat="43.495415" lon="11.251945"><ele>562.6666666666666</ele><time>2026-04-25T15:40:19.724Z</time></trkpt><trkpt lat="43.4954683" lon="11.251645"><ele>562.3333333333334</ele><time>2026-04-25T15:40:20.725Z</time></trkpt><trkpt lat="43.49554" lon="11.2513717"><ele>562.0</ele><time>2026-04-25T15:40:21.724Z</time></trkpt><trkpt lat="43.495635" lon="11.2511183"><ele>562.6666666666667</ele><time>2026-04-25T15:40:22.724Z</time></trkpt><trkpt lat="43.4957433" lon="11.2508833"><ele>563.3333333333334</ele><time>2026-04-25T15:40:23.724Z</time></trkpt><trkpt lat="43.49586" lon="11.2506917"><ele>564.0</ele><time>2026-04-25T15:40:24.723Z</time></trkpt><trkpt lat="43.4959833" lon="11.25055"><ele>564.0</ele><time>2026-04-25T15:40:25.725Z</time></trkpt><trkpt lat="43.49612" lon="11.2504717"><ele>564.0</ele><time>2026-04-25T15:40:26.724Z</time></trkpt><trkpt lat="43.4962683" lon="11.2504633"><ele>564.0</ele><time>2026-04-25T15:40:27.725Z</time></trkpt><trkpt lat="43.4964417" lon="11.25054"><ele>563.6666666666666</ele><time>2026-04-25T15:40:28.724Z</time></trkpt><trkpt lat="43.4966317" lon="11.25066"><ele>563.3333333333333</ele><time>2026-04-25T15:40:29.722Z</time></trkpt><trkpt lat="43.4968317" lon="11.2507867"><ele>563.0</ele><time>2026-04-25T15:40:30.723Z</time></trkpt><trkpt lat="43.497035" lon="11.2508933"><ele>564.0</ele><time>2026-04-25T15:40:31.725Z</time></trkpt><trkpt lat="43.4972367" lon="11.2509717"><ele>565.0</ele><time>2026-04-25T15:40:32.724Z</time></trkpt><trkpt lat="43.497435" lon="11.2509817"><ele>566.0</ele><time>2026-04-25T15:40:33.725Z</time></trkpt><trkpt lat="43.4976333" lon="11.2509367"><ele>566.0</ele><time>2026-04-25T15:40:34.725Z</time></trkpt><trkpt lat="43.49783" lon="11.25084"><ele>566.0</ele><time>2026-04-25T15:40:35.725Z</time></trkpt><trkpt lat="43.4980283" lon="11.25068"><ele>566.0</ele><time>2026-04-25T15:40:36.725Z</time></trkpt><trkpt lat="43.49821" lon="11.2504717"><ele>560.5</ele><time>2026-04-25T15:40:37.725Z</time></trkpt><trkpt lat="43.4984017" lon="11.25027"><ele>555.0</ele><time>2026-04-25T15:40:38.725Z</time></trkpt><trkpt lat="43.4986183" lon="11.250115"><ele>553.5</ele><time>2026-04-25T15:40:39.724Z</time></trkpt><trkpt lat="43.4988517" lon="11.2500083"><ele>552.0</ele><time>2026-04-25T15:40:40.723Z</time></trkpt><trkpt lat="43.4991" lon="11.249945"><ele>552.0</ele><time>2026-04-25T15:40:41.725Z</time></trkpt><trkpt lat="43.4993633" lon="11.2499167"><ele>552.0</ele><time>2026-04-25T15:40:42.724Z</time></trkpt><trkpt lat="43.4996333" lon="11.2498833"><ele>551.5</ele><time>2026-04-25T15:40:43.722Z</time></trkpt><trkpt lat="43.4999017" lon="11.249845"><ele>551.0</ele><time>2026-04-25T15:40:44.726Z</time></trkpt><trkpt lat="43.5001733" lon="11.2498067"><ele>555.0</ele><time>2026-04-25T15:40:45.725Z</time></trkpt><trkpt lat="43.5004333" lon="11.2497667"><ele>559.0</ele><time>2026-04-25T15:40:46.724Z</time></trkpt><trkpt lat="43.5006967" lon="11.249745"><ele>559.0</ele><time>2026-04-25T15:40:47.724Z</time></trkpt><trkpt lat="43.5009433" lon="11.249725"><ele>559.0</ele><time>2026-04-25T15:40:48.722Z</time></trkpt><trkpt lat="43.501175" lon="11.249715"><ele>556.3333333333334</ele><time>2026-04-25T15:40:49.723Z</time></trkpt><trkpt lat="43.501395" lon="11.2497033"><ele>553.6666666666666</ele><time>2026-04-25T15:40:50.724Z</time></trkpt><trkpt lat="43.5015933" lon="11.249695"><ele>551.0</ele><time>2026-04-25T15:40:51.723Z</time></trkpt><trkpt lat="43.5017667" lon="11.2496767"><ele>551.0</ele><time>2026-04-25T15:40:52.724Z</time></trkpt><trkpt lat="43.5019217" lon="11.2496283"><ele>551.0</ele><time>2026-04-25T15:40:53.724Z</time></trkpt><trkpt lat="43.5020583" lon="11.24954"><ele>551.0</ele><time>2026-04-25T15:40:54.724Z</time></trkpt><trkpt lat="43.502175" lon="11.2494217"><ele>545.3333333333333</ele><time>2026-04-25T15:40:55.724Z</time></trkpt><trkpt lat="43.50225" lon="11.2492367"><ele>539.6666666666666</ele><time>2026-04-25T15:40:56.725Z</time></trkpt><trkpt lat="43.5022567" lon="11.2489783"><ele>534.0</ele><time>2026-04-25T15:40:57.723Z</time></trkpt><trkpt lat="43.5022333" lon="11.2486633"><ele>531.5</ele><time>2026-04-25T15:40:58.724Z</time></trkpt><trkpt lat="43.50225" lon="11.2483467"><ele>529.0</ele><time>2026-04-25T15:40:59.722Z</time></trkpt><trkpt lat="43.502295" lon="11.2480233"><ele>528.5</ele><time>2026-04-25T15:41:00.724Z</time></trkpt><trkpt lat="43.502365" lon="11.2476933"><ele>528.0</ele><time>2026-04-25T15:41:01.725Z</time></trkpt><trkpt lat="43.5024333" lon="11.2473683"><ele>526.0</ele><time>2026-04-25T15:41:02.724Z</time></trkpt><trkpt lat="43.5025" lon="11.2470467"><ele>524.0</ele><time>2026-04-25T15:41:03.722Z</time></trkpt><trkpt lat="43.50258" lon="11.246745"><ele>524.0</ele><time>2026-04-25T15:41:04.722Z</time></trkpt><trkpt lat="43.502685" lon="11.2464633"><ele>524.0</ele><time>2026-04-25T15:41:05.723Z</time></trkpt><trkpt lat="43.5028117" lon="11.24621"><ele>525.3333333333333</ele><time>2026-04-25T15:41:06.724Z</time></trkpt><trkpt lat="43.502965" lon="11.2459933"><ele>526.6666666666666</ele><time>2026-04-25T15:41:07.722Z</time></trkpt><trkpt lat="43.5031433" lon="11.2457967"><ele>528.0</ele><time>2026-04-25T15:41:08.725Z</time></trkpt><trkpt lat="43.503315" lon="11.245595"><ele>529.5</ele><time>2026-04-25T15:41:09.723Z</time></trkpt><trkpt lat="43.5034683" lon="11.2453717"><ele>531.0</ele><time>2026-04-25T15:41:10.722Z</time></trkpt><trkpt lat="43.5036217" lon="11.245115"><ele>528.0</ele><time>2026-04-25T15:41:11.723Z</time></trkpt><trkpt lat="43.5037767" lon="11.24484"><ele>525.0</ele><time>2026-04-25T15:41:12.723Z</time></trkpt><trkpt lat="43.5039433" lon="11.244575"><ele>525.0</ele><time>2026-04-25T15:41:13.723Z</time></trkpt><trkpt lat="43.50413" lon="11.2443417"><ele>525.0</ele><time>2026-04-25T15:41:14.723Z</time></trkpt><trkpt lat="43.5043317" lon="11.24413"><ele>524.0</ele><time>2026-04-25T15:41:15.723Z</time></trkpt><trkpt lat="43.5045183" lon="11.2439283"><ele>523.0</ele><time>2026-04-25T15:41:16.723Z</time></trkpt><trkpt lat="43.5046967" lon="11.2437433"><ele>523.0</ele><time>2026-04-25T15:41:17.723Z</time></trkpt><trkpt lat="43.504875" lon="11.24359"><ele>523.0</ele><time>2026-04-25T15:41:18.724Z</time></trkpt><trkpt lat="43.5050533" lon="11.2434567"><ele>523.0</ele><time>2026-04-25T15:41:19.723Z</time></trkpt><trkpt lat="43.505245" lon="11.243365"><ele>521.3333333333334</ele><time>2026-04-25T15:41:20.722Z</time></trkpt><trkpt lat="43.5054367" lon="11.2433067"><ele>519.6666666666666</ele><time>2026-04-25T15:41:21.723Z</time></trkpt><trkpt lat="43.5056317" lon="11.2432933"><ele>518.0</ele><time>2026-04-25T15:41:22.724Z</time></trkpt><trkpt lat="43.50582" lon="11.2433233"><ele>518.0</ele><time>2026-04-25T15:41:23.724Z</time></trkpt><trkpt lat="43.50601" lon="11.2433967"><ele>518.0</ele><time>2026-04-25T15:41:24.724Z</time></trkpt><trkpt lat="43.5061967" lon="11.2434833"><ele>518.0</ele><time>2026-04-25T15:41:25.725Z</time></trkpt><trkpt lat="43.5063767" lon="11.2435533"><ele>514.6666666666666</ele><time>2026-04-25T15:41:26.724Z</time></trkpt><trkpt lat="43.5065433" lon="11.2435667"><ele>511.33333333333337</ele><time>2026-04-25T15:41:27.722Z</time></trkpt><trkpt lat="43.5067067" lon="11.2435417"><ele>508.0</ele><time>2026-04-25T15:41:28.724Z</time></trkpt><trkpt lat="43.506885" lon="11.2434467"><ele>505.33333333333337</ele><time>2026-04-25T15:41:29.724Z</time></trkpt><trkpt lat="43.50708" lon="11.2433383"><ele>502.66666666666663</ele><time>2026-04-25T15:41:30.723Z</time></trkpt><trkpt lat="43.5072933" lon="11.2432517"><ele>500.0</ele><time>2026-04-25T15:41:31.723Z</time></trkpt><trkpt lat="43.507525" lon="11.2432217"><ele>500.0</ele><time>2026-04-25T15:41:32.721Z</time></trkpt><trkpt lat="43.5077567" lon="11.2432167"><ele>500.0</ele><time>2026-04-25T15:41:33.722Z</time></trkpt><trkpt lat="43.50799" lon="11.24322"><ele>500.0</ele><time>2026-04-25T15:41:34.721Z</time></trkpt><trkpt lat="43.5082167" lon="11.2432217"><ele>500.0</ele><time>2026-04-25T15:41:35.724Z</time></trkpt><trkpt lat="43.5084117" lon="11.2431733"><ele>500.0</ele><time>2026-04-25T15:41:36.724Z</time></trkpt><trkpt lat="43.5085933" lon="11.2430983"><ele>500.0</ele><time>2026-04-25T15:41:37.722Z</time></trkpt><trkpt lat="43.508765" lon="11.2429983"><ele>500.0</ele><time>2026-04-25T15:41:38.817Z</time></trkpt><trkpt lat="43.5089217" lon="11.242905"><ele>500.0</ele><time>2026-04-25T15:41:39.723Z</time></trkpt><trkpt lat="43.5090733" lon="11.24286"><ele>500.0</ele><time>2026-04-25T15:41:40.724Z</time></trkpt><trkpt lat="43.509225" lon="11.2428717"><ele>500.0</ele><time>2026-04-25T15:41:41.722Z</time></trkpt><trkpt lat="43.5093883" lon="11.2429467"><ele>500.0</ele><time>2026-04-25T15:41:42.724Z</time></trkpt><trkpt lat="43.5095583" lon="11.2430567"><ele>497.3333333333333</ele><time>2026-04-25T15:41:43.724Z</time></trkpt><trkpt lat="43.50972" lon="11.2432033"><ele>494.66666666666663</ele><time>2026-04-25T15:41:44.724Z</time></trkpt><trkpt lat="43.5098517" lon="11.2434083"><ele>492.0</ele><time>2026-04-25T15:41:45.722Z</time></trkpt><trkpt lat="43.5099667" lon="11.2436433"><ele>492.0</ele><time>2026-04-25T15:41:46.724Z</time></trkpt><trkpt lat="43.5100867" lon="11.2438667"><ele>492.0</ele><time>2026-04-25T15:41:47.724Z</time></trkpt><trkpt lat="43.5102417" lon="11.24405"><ele>492.0</ele><time>2026-04-25T15:41:48.724Z</time></trkpt><trkpt lat="43.5104217" lon="11.2441883"><ele>490.0</ele><time>2026-04-25T15:41:49.722Z</time></trkpt><trkpt lat="43.5106317" lon="11.2442683"><ele>488.0</ele><time>2026-04-25T15:41:50.724Z</time></trkpt><trkpt lat="43.510855" lon="11.244295"><ele>486.0</ele><time>2026-04-25T15:41:51.723Z</time></trkpt><trkpt lat="43.511085" lon="11.24427"><ele>485.33333333333337</ele><time>2026-04-25T15:41:52.723Z</time></trkpt><trkpt lat="43.5113083" lon="11.2442067"><ele>484.6666666666667</ele><time>2026-04-25T15:41:53.722Z</time></trkpt><trkpt lat="43.5115233" lon="11.244135"><ele>484.0</ele><time>2026-04-25T15:41:54.723Z</time></trkpt><trkpt lat="43.5117233" lon="11.2440467"><ele>479.33333333333337</ele><time>2026-04-25T15:41:55.723Z</time></trkpt><trkpt lat="43.5119167" lon="11.2439617"><ele>474.66666666666663</ele><time>2026-04-25T15:41:56.724Z</time></trkpt><trkpt lat="43.5121033" lon="11.2438917"><ele>470.0</ele><time>2026-04-25T15:41:57.724Z</time></trkpt><trkpt lat="43.51227" lon="11.2438283"><ele>470.0</ele><time>2026-04-25T15:41:58.725Z</time></trkpt><trkpt lat="43.5124183" lon="11.2437783"><ele>470.0</ele><time>2026-04-25T15:41:59.723Z</time></trkpt><trkpt lat="43.51256" lon="11.2437833"><ele>470.0</ele><time>2026-04-25T15:42:00.722Z</time></trkpt><trkpt lat="43.5126967" lon="11.2438517"><ele>470.0</ele><time>2026-04-25T15:42:01.722Z</time></trkpt><trkpt lat="43.512835" lon="11.2439617"><ele>467.66666666666663</ele><time>2026-04-25T15:42:02.724Z</time></trkpt><trkpt lat="43.5129783" lon="11.2441017"><ele>465.33333333333337</ele><time>2026-04-25T15:42:03.723Z</time></trkpt><trkpt lat="43.5131267" lon="11.24424"><ele>463.0</ele><time>2026-04-25T15:42:04.725Z</time></trkpt><trkpt lat="43.513275" lon="11.2443767"><ele>463.0</ele><time>2026-04-25T15:42:05.724Z</time></trkpt><trkpt lat="43.5134233" lon="11.2444967"><ele>463.0</ele><time>2026-04-25T15:42:06.722Z</time></trkpt><trkpt lat="43.51357" lon="11.2446067"><ele>463.0</ele><time>2026-04-25T15:42:07.723Z</time></trkpt><trkpt lat="43.513705" lon="11.2447217"><ele>460.0</ele><time>2026-04-25T15:42:08.724Z</time></trkpt><trkpt lat="43.51381" lon="11.2448617"><ele>457.0</ele><time>2026-04-25T15:42:09.722Z</time></trkpt><trkpt lat="43.51387" lon="11.2450317"><ele>454.0</ele><time>2026-04-25T15:42:10.724Z</time></trkpt><trkpt lat="43.5138867" lon="11.2452117"><ele>451.0</ele><time>2026-04-25T15:42:11.723Z</time></trkpt><trkpt lat="43.51386" lon="11.2454033"><ele>451.0</ele><time>2026-04-25T15:42:12.724Z</time></trkpt><trkpt lat="43.5138083" lon="11.2456017"><ele>451.0</ele><time>2026-04-25T15:42:13.722Z</time></trkpt><trkpt lat="43.51377" lon="11.2457933"><ele>451.0</ele><time>2026-04-25T15:42:14.724Z</time></trkpt><trkpt lat="43.5137783" lon="11.245975"><ele>451.0</ele><time>2026-04-25T15:42:15.722Z</time></trkpt><trkpt lat="43.5138333" lon="11.2461567"><ele>450.33333333333337</ele><time>2026-04-25T15:42:16.723Z</time></trkpt><trkpt lat="43.5139333" lon="11.2463267"><ele>449.66666666666663</ele><time>2026-04-25T15:42:17.723Z</time></trkpt><trkpt lat="43.514065" lon="11.2464867"><ele>449.0</ele><time>2026-04-25T15:42:18.723Z</time></trkpt><trkpt lat="43.51422" lon="11.24664"><ele>449.0</ele><time>2026-04-25T15:42:19.725Z</time></trkpt><trkpt lat="43.51438" lon="11.246775"><ele>449.0</ele><time>2026-04-25T15:42:20.724Z</time></trkpt><trkpt lat="43.5145517" lon="11.2468633"><ele>449.0</ele><time>2026-04-25T15:42:21.724Z</time></trkpt><trkpt lat="43.514745" lon="11.2469067"><ele>444.0</ele><time>2026-04-25T15:42:22.722Z</time></trkpt><trkpt lat="43.5149483" lon="11.2469133"><ele>439.0</ele><time>2026-04-25T15:42:23.723Z</time></trkpt><trkpt lat="43.5151567" lon="11.2469317"><ele>434.0</ele><time>2026-04-25T15:42:24.724Z</time></trkpt><trkpt lat="43.515365" lon="11.246995"><ele>431.3333333333333</ele><time>2026-04-25T15:42:25.725Z</time></trkpt><trkpt lat="43.5155733" lon="11.2470933"><ele>428.66666666666663</ele><time>2026-04-25T15:42:26.722Z</time></trkpt><trkpt lat="43.5157767" lon="11.2472017"><ele>426.0</ele><time>2026-04-25T15:42:27.721Z</time></trkpt><trkpt lat="43.5159767" lon="11.2473367"><ele>425.33333333333337</ele><time>2026-04-25T15:42:28.724Z</time></trkpt><trkpt lat="43.5161617" lon="11.2475033"><ele>424.6666666666667</ele><time>2026-04-25T15:42:29.724Z</time></trkpt><trkpt lat="43.516335" lon="11.24768"><ele>424.0</ele><time>2026-04-25T15:42:30.724Z</time></trkpt><trkpt lat="43.51652" lon="11.2478333"><ele>421.0</ele><time>2026-04-25T15:42:31.723Z</time></trkpt><trkpt lat="43.5167233" lon="11.2479433"><ele>418.0</ele><time>2026-04-25T15:42:32.724Z</time></trkpt><trkpt lat="43.5169483" lon="11.2480217"><ele>414.0</ele><time>2026-04-25T15:42:33.724Z</time></trkpt><trkpt lat="43.5171833" lon="11.2480817"><ele>410.0</ele><time>2026-04-25T15:42:34.722Z</time></trkpt><trkpt lat="43.517425" lon="11.248115"><ele>410.0</ele><time>2026-04-25T15:42:35.723Z</time></trkpt><trkpt lat="43.517665" lon="11.2481117"><ele>410.0</ele><time>2026-04-25T15:42:36.724Z</time></trkpt><trkpt lat="43.5179017" lon="11.248075"><ele>411.5</ele><time>2026-04-25T15:42:37.723Z</time></trkpt><trkpt lat="43.5181367" lon="11.2480067"><ele>413.0</ele><time>2026-04-25T15:42:38.724Z</time></trkpt><trkpt lat="43.51837" lon="11.2479183"><ele>413.0</ele><time>2026-04-25T15:42:39.722Z</time></trkpt><trkpt lat="43.5185917" lon="11.2477817"><ele>413.0</ele><time>2026-04-25T15:42:40.724Z</time></trkpt><trkpt lat="43.5188067" lon="11.24762"><ele>415.0</ele><time>2026-04-25T15:42:41.722Z</time></trkpt><trkpt lat="43.5190133" lon="11.2474383"><ele>417.0</ele><time>2026-04-25T15:42:42.724Z</time></trkpt><trkpt lat="43.51921" lon="11.2472467"><ele>418.5</ele><time>2026-04-25T15:42:43.722Z</time></trkpt><trkpt lat="43.5194017" lon="11.2470433"><ele>420.0</ele><time>2026-04-25T15:42:44.723Z</time></trkpt><trkpt lat="43.519585" lon="11.24684"><ele>421.66666666666663</ele><time>2026-04-25T15:42:45.722Z</time></trkpt><trkpt lat="43.5197567" lon="11.24664"><ele>423.3333333333333</ele><time>2026-04-25T15:42:46.724Z</time></trkpt><trkpt lat="43.5199233" lon="11.246445"><ele>425.0</ele><time>2026-04-25T15:42:47.723Z</time></trkpt><trkpt lat="43.5200917" lon="11.2462733"><ele>425.0</ele><time>2026-04-25T15:42:48.724Z</time></trkpt><trkpt lat="43.52028" lon="11.246135"><ele>425.0</ele><time>2026-04-25T15:42:49.724Z</time></trkpt><trkpt lat="43.5204733" lon="11.2460117"><ele>425.0</ele><time>2026-04-25T15:42:50.723Z</time></trkpt><trkpt lat="43.5206683" lon="11.2458933"><ele>425.66666666666663</ele><time>2026-04-25T15:42:51.723Z</time></trkpt><trkpt lat="43.520865" lon="11.24577"><ele>426.33333333333337</ele><time>2026-04-25T15:42:52.723Z</time></trkpt><trkpt lat="43.5210517" lon="11.2456267"><ele>427.0</ele><time>2026-04-25T15:42:53.724Z</time></trkpt><trkpt lat="43.5212217" lon="11.245455"><ele>427.6666666666667</ele><time>2026-04-25T15:42:54.723Z</time></trkpt><trkpt lat="43.5213717" lon="11.2452567"><ele>428.33333333333337</ele><time>2026-04-25T15:42:55.724Z</time></trkpt><trkpt lat="43.5214883" lon="11.24502"><ele>429.0</ele><time>2026-04-25T15:42:56.724Z</time></trkpt><trkpt lat="43.5215767" lon="11.24475"><ele>429.0</ele><time>2026-04-25T15:42:57.724Z</time></trkpt><trkpt lat="43.5216517" lon="11.2444617"><ele>429.0</ele><time>2026-04-25T15:42:58.724Z</time></trkpt><trkpt lat="43.5217167" lon="11.24416"><ele>429.0</ele><time>2026-04-25T15:42:59.724Z</time></trkpt><trkpt lat="43.52178" lon="11.243855"><ele>429.0</ele><time>2026-04-25T15:43:00.723Z</time></trkpt><trkpt lat="43.5218433" lon="11.2435533"><ele>429.0</ele><time>2026-04-25T15:43:01.722Z</time></trkpt><trkpt lat="43.521915" lon="11.243255"><ele>429.0</ele><time>2026-04-25T15:43:02.724Z</time></trkpt><trkpt lat="43.5219883" lon="11.242955"><ele>427.5</ele><time>2026-04-25T15:43:03.723Z</time></trkpt><trkpt lat="43.5220617" lon="11.2426517"><ele>426.0</ele><time>2026-04-25T15:43:04.723Z</time></trkpt><trkpt lat="43.522145" lon="11.242345"><ele>422.5</ele><time>2026-04-25T15:43:05.723Z</time></trkpt><trkpt lat="43.5222483" lon="11.2420483"><ele>419.0</ele><time>2026-04-25T15:43:06.722Z</time></trkpt><trkpt lat="43.522375" lon="11.24177"><ele>419.0</ele><time>2026-04-25T15:43:07.724Z</time></trkpt><trkpt lat="43.5225267" lon="11.241515"><ele>419.0</ele><time>2026-04-25T15:43:08.724Z</time></trkpt><trkpt lat="43.5226983" lon="11.241285"><ele>418.5</ele><time>2026-04-25T15:43:09.723Z</time></trkpt><trkpt lat="43.522885" lon="11.24109"><ele>418.0</ele><time>2026-04-25T15:43:10.724Z</time></trkpt><trkpt lat="43.5230817" lon="11.2409383"><ele>418.0</ele><time>2026-04-25T15:43:11.724Z</time></trkpt><trkpt lat="43.52328" lon="11.2408317"><ele>418.0</ele><time>2026-04-25T15:43:12.724Z</time></trkpt><trkpt lat="43.5234683" lon="11.24074"><ele>418.0</ele><time>2026-04-25T15:43:13.726Z</time></trkpt><trkpt lat="43.5236417" lon="11.2406283"><ele>416.6666666666667</ele><time>2026-04-25T15:43:14.726Z</time></trkpt><trkpt lat="43.523805" lon="11.2404917"><ele>415.33333333333337</ele><time>2026-04-25T15:43:15.724Z</time></trkpt><trkpt lat="43.5239467" lon="11.2403133"><ele>414.0</ele><time>2026-04-25T15:43:16.725Z</time></trkpt><trkpt lat="43.5240717" lon="11.2400867"><ele>414.0</ele><time>2026-04-25T15:43:17.725Z</time></trkpt><trkpt lat="43.5241867" lon="11.239825"><ele>414.0</ele><time>2026-04-25T15:43:18.725Z</time></trkpt><trkpt lat="43.52429" lon="11.2395467"><ele>414.0</ele><time>2026-04-25T15:43:19.724Z</time></trkpt><trkpt lat="43.524385" lon="11.2392633"><ele>412.66666666666663</ele><time>2026-04-25T15:43:20.724Z</time></trkpt><trkpt lat="43.5245033" lon="11.239005"><ele>411.3333333333333</ele><time>2026-04-25T15:43:21.724Z</time></trkpt><trkpt lat="43.52465" lon="11.2387817"><ele>410.0</ele><time>2026-04-25T15:43:22.723Z</time></trkpt><trkpt lat="43.5248033" lon="11.2386017"><ele>408.66666666666663</ele><time>2026-04-25T15:43:23.723Z</time></trkpt><trkpt lat="43.5249617" lon="11.2384783"><ele>407.33333333333337</ele><time>2026-04-25T15:43:24.721Z</time></trkpt><trkpt lat="43.5251267" lon="11.2384267"><ele>406.0</ele><time>2026-04-25T15:43:25.724Z</time></trkpt><trkpt lat="43.5252917" lon="11.2384433"><ele>406.0</ele><time>2026-04-25T15:43:26.724Z</time></trkpt><trkpt lat="43.525465" lon="11.238505"><ele>406.0</ele><time>2026-04-25T15:43:27.724Z</time></trkpt><trkpt lat="43.5256517" lon="11.2385817"><ele>406.0</ele><time>2026-04-25T15:43:28.723Z</time></trkpt><trkpt lat="43.5258583" lon="11.2386683"><ele>406.0</ele><time>2026-04-25T15:43:29.723Z</time></trkpt><trkpt lat="43.52608" lon="11.238765"><ele>406.0</ele><time>2026-04-25T15:43:30.725Z</time></trkpt><trkpt lat="43.5263033" lon="11.23886"><ele>404.0</ele><time>2026-04-25T15:43:31.726Z</time></trkpt><trkpt lat="43.5265283" lon="11.2389433"><ele>402.0</ele><time>2026-04-25T15:43:32.726Z</time></trkpt><trkpt lat="43.5267567" lon="11.239025"><ele>401.5</ele><time>2026-04-25T15:43:33.726Z</time></trkpt><trkpt lat="43.5269883" lon="11.239095"><ele>401.0</ele><time>2026-04-25T15:43:34.725Z</time></trkpt><trkpt lat="43.527215" lon="11.2391783"><ele>401.0</ele><time>2026-04-25T15:43:35.724Z</time></trkpt><trkpt lat="43.52743" lon="11.2392783"><ele>401.0</ele><time>2026-04-25T15:43:36.724Z</time></trkpt><trkpt lat="43.5276367" lon="11.239395"><ele>401.0</ele><time>2026-04-25T15:43:37.724Z</time></trkpt><trkpt lat="43.52784" lon="11.2395267"><ele>401.0</ele><time>2026-04-25T15:43:38.724Z</time></trkpt><trkpt lat="43.52804" lon="11.2396683"><ele>401.0</ele><time>2026-04-25T15:43:39.724Z</time></trkpt><trkpt lat="43.5282433" lon="11.2398117"><ele>399.5</ele><time>2026-04-25T15:43:40.724Z</time></trkpt><trkpt lat="43.5284533" lon="11.23996"><ele>398.0</ele><time>2026-04-25T15:43:41.723Z</time></trkpt><trkpt lat="43.5286667" lon="11.240105"><ele>395.0</ele><time>2026-04-25T15:43:42.724Z</time></trkpt><trkpt lat="43.5288783" lon="11.2402467"><ele>392.0</ele><time>2026-04-25T15:43:43.724Z</time></trkpt><trkpt lat="43.52909" lon="11.2403817"><ele>392.0</ele><time>2026-04-25T15:43:44.725Z</time></trkpt><trkpt lat="43.5293067" lon="11.2405"><ele>392.0</ele><time>2026-04-25T15:43:45.724Z</time></trkpt><trkpt lat="43.5295283" lon="11.2405883"><ele>394.66666666666663</ele><time>2026-04-25T15:43:46.722Z</time></trkpt><trkpt lat="43.5297483" lon="11.2406617"><ele>397.33333333333337</ele><time>2026-04-25T15:43:47.723Z</time></trkpt><trkpt lat="43.52996" lon="11.2407333"><ele>400.0</ele><time>2026-04-25T15:43:48.724Z</time></trkpt><trkpt lat="43.530165" lon="11.24081"><ele>400.0</ele><time>2026-04-25T15:43:49.724Z</time></trkpt><trkpt lat="43.5303617" lon="11.2408933"><ele>400.0</ele><time>2026-04-25T15:43:50.724Z</time></trkpt><trkpt lat="43.5305433" lon="11.2409817"><ele>400.0</ele><time>2026-04-25T15:43:51.724Z</time></trkpt><trkpt lat="43.5307083" lon="11.2410783"><ele>399.33333333333337</ele><time>2026-04-25T15:43:52.723Z</time></trkpt><trkpt lat="43.5308567" lon="11.24118"><ele>398.66666666666663</ele><time>2026-04-25T15:43:53.723Z</time></trkpt><trkpt lat="43.530995" lon="11.241285"><ele>398.0</ele><time>2026-04-25T15:43:54.722Z</time></trkpt><trkpt lat="43.5311233" lon="11.2413867"><ele>396.75</ele><time>2026-04-25T15:43:55.723Z</time></trkpt><trkpt lat="43.531245" lon="11.2414867"><ele>395.5</ele><time>2026-04-25T15:43:56.724Z</time></trkpt><trkpt lat="43.5313633" lon="11.2415783"><ele>394.25</ele><time>2026-04-25T15:43:57.724Z</time></trkpt><trkpt lat="43.53148" lon="11.241655"><ele>393.0</ele><time>2026-04-25T15:43:58.724Z</time></trkpt><trkpt lat="43.531595" lon="11.2417367"><ele>393.0</ele><time>2026-04-25T15:43:59.724Z</time></trkpt><trkpt lat="43.531705" lon="11.2418117"><ele>393.0</ele><time>2026-04-25T15:44:00.723Z</time></trkpt><trkpt lat="43.53181" lon="11.2418767"><ele>393.0</ele><time>2026-04-25T15:44:01.724Z</time></trkpt><trkpt lat="43.531915" lon="11.2419267"><ele>393.0</ele><time>2026-04-25T15:44:02.723Z</time></trkpt><trkpt lat="43.532025" lon="11.24195"><ele>391.75</ele><time>2026-04-25T15:44:03.723Z</time></trkpt><trkpt lat="43.5321433" lon="11.241955"><ele>390.5</ele><time>2026-04-25T15:44:04.722Z</time></trkpt><trkpt lat="43.5322683" lon="11.2419467"><ele>389.25</ele><time>2026-04-25T15:44:05.724Z</time></trkpt><trkpt lat="43.5324" lon="11.241945"><ele>388.0</ele><time>2026-04-25T15:44:06.723Z</time></trkpt><trkpt lat="43.5325417" lon="11.241955"><ele>388.0</ele><time>2026-04-25T15:44:07.723Z</time></trkpt><trkpt lat="43.532685" lon="11.2419633"><ele>388.0</ele><time>2026-04-25T15:44:08.724Z</time></trkpt><trkpt lat="43.5328367" lon="11.2419567"><ele>388.0</ele><time>2026-04-25T15:44:09.724Z</time></trkpt><trkpt lat="43.5329983" lon="11.241945"><ele>387.33333333333337</ele><time>2026-04-25T15:44:10.724Z</time></trkpt><trkpt lat="43.5331567" lon="11.2419083"><ele>386.66666666666663</ele><time>2026-04-25T15:44:11.725Z</time></trkpt><trkpt lat="43.53332" lon="11.2418733"><ele>386.0</ele><time>2026-04-25T15:44:12.723Z</time></trkpt><trkpt lat="43.5334833" lon="11.2418317"><ele>386.0</ele><time>2026-04-25T15:44:13.724Z</time></trkpt><trkpt lat="43.533655" lon="11.2417833"><ele>386.0</ele><time>2026-04-25T15:44:14.725Z</time></trkpt><trkpt lat="43.533835" lon="11.2417167"><ele>386.0</ele><time>2026-04-25T15:44:15.724Z</time></trkpt><trkpt lat="43.5340183" lon="11.2416467"><ele>385.66666666666663</ele><time>2026-04-25T15:44:16.724Z</time></trkpt><trkpt lat="43.5342083" lon="11.2415583"><ele>385.33333333333337</ele><time>2026-04-25T15:44:17.723Z</time></trkpt><trkpt lat="43.5344017" lon="11.2414517"><ele>385.0</ele><time>2026-04-25T15:44:18.723Z</time></trkpt><trkpt lat="43.5345967" lon="11.2413333"><ele>386.6666666666667</ele><time>2026-04-25T15:44:19.724Z</time></trkpt><trkpt lat="43.5347867" lon="11.2412"><ele>388.33333333333337</ele><time>2026-04-25T15:44:20.724Z</time></trkpt><trkpt lat="43.5349667" lon="11.241055"><ele>390.0</ele><time>2026-04-25T15:44:21.724Z</time></trkpt><trkpt lat="43.5351367" lon="11.2408933"><ele>390.0</ele><time>2026-04-25T15:44:22.724Z</time></trkpt><trkpt lat="43.5353033" lon="11.2407183"><ele>390.0</ele><time>2026-04-25T15:44:23.723Z</time></trkpt><trkpt lat="43.5354617" lon="11.2405283"><ele>390.0</ele><time>2026-04-25T15:44:24.724Z</time></trkpt><trkpt lat="43.53561" lon="11.2403283"><ele>392.0</ele><time>2026-04-25T15:44:25.724Z</time></trkpt><trkpt lat="43.535745" lon="11.2401217"><ele>394.0</ele><time>2026-04-25T15:44:26.724Z</time></trkpt><trkpt lat="43.5358633" lon="11.239915"><ele>396.0</ele><time>2026-04-25T15:44:27.724Z</time></trkpt><trkpt lat="43.5359717" lon="11.23971"><ele>396.66666666666663</ele><time>2026-04-25T15:44:28.723Z</time></trkpt><trkpt lat="43.536075" lon="11.2395067"><ele>397.3333333333333</ele><time>2026-04-25T15:44:29.722Z</time></trkpt><trkpt lat="43.5361633" lon="11.239295"><ele>398.0</ele><time>2026-04-25T15:44:30.724Z</time></trkpt><trkpt lat="43.5362383" lon="11.2390767"><ele>398.0</ele><time>2026-04-25T15:44:31.724Z</time></trkpt><trkpt lat="43.5363083" lon="11.2388517"><ele>398.0</ele><time>2026-04-25T15:44:32.724Z</time></trkpt><trkpt lat="43.5363733" lon="11.23863"><ele>398.0</ele><time>2026-04-25T15:44:33.724Z</time></trkpt><trkpt lat="43.5364433" lon="11.238405"><ele>398.0</ele><time>2026-04-25T15:44:34.724Z</time></trkpt><trkpt lat="43.536515" lon="11.2381783"><ele>398.0</ele><time>2026-04-25T15:44:35.723Z</time></trkpt><trkpt lat="43.5365867" lon="11.2379517"><ele>398.0</ele><time>2026-04-25T15:44:36.724Z</time></trkpt><trkpt lat="43.536665" lon="11.2377333"><ele>398.66666666666663</ele><time>2026-04-25T15:44:37.723Z</time></trkpt><trkpt lat="43.53676" lon="11.2375317"><ele>399.33333333333337</ele><time>2026-04-25T15:44:38.723Z</time></trkpt><trkpt lat="43.5368767" lon="11.2373517"><ele>400.0</ele><time>2026-04-25T15:44:39.724Z</time></trkpt><trkpt lat="43.537005" lon="11.237195"><ele>398.33333333333337</ele><time>2026-04-25T15:44:40.723Z</time></trkpt><trkpt lat="43.5371467" lon="11.2370483"><ele>396.66666666666663</ele><time>2026-04-25T15:44:41.723Z</time></trkpt><trkpt lat="43.5372967" lon="11.2369133"><ele>395.0</ele><time>2026-04-25T15:44:42.723Z</time></trkpt><trkpt lat="43.5374533" lon="11.2367767"><ele>395.0</ele><time>2026-04-25T15:44:43.724Z</time></trkpt><trkpt lat="43.53761" lon="11.2366417"><ele>395.0</ele><time>2026-04-25T15:44:44.724Z</time></trkpt><trkpt lat="43.53776" lon="11.236505"><ele>395.0</ele><time>2026-04-25T15:44:45.723Z</time></trkpt><trkpt lat="43.5379033" lon="11.23637"><ele>395.0</ele><time>2026-04-25T15:44:46.724Z</time></trkpt><trkpt lat="43.5380317" lon="11.236235"><ele>395.0</ele><time>2026-04-25T15:44:47.724Z</time></trkpt><trkpt lat="43.5381283" lon="11.236085"><ele>395.0</ele><time>2026-04-25T15:44:48.724Z</time></trkpt><trkpt lat="43.5382033" lon="11.2359033"><ele>395.0</ele><time>2026-04-25T15:44:49.723Z</time></trkpt><trkpt lat="43.5382583" lon="11.2356917"><ele>395.0</ele><time>2026-04-25T15:44:50.726Z</time></trkpt><trkpt lat="43.5382983" lon="11.2354617"><ele>395.0</ele><time>2026-04-25T15:44:51.724Z</time></trkpt><trkpt lat="43.5383167" lon="11.23523"><ele>394.0</ele><time>2026-04-25T15:44:52.724Z</time></trkpt><trkpt lat="43.5383283" lon="11.23498"><ele>393.0</ele><time>2026-04-25T15:44:53.724Z</time></trkpt><trkpt lat="43.5383317" lon="11.2347017"><ele>392.0</ele><time>2026-04-25T15:44:54.725Z</time></trkpt><trkpt lat="43.5383383" lon="11.2344"><ele>388.5</ele><time>2026-04-25T15:44:55.722Z</time></trkpt><trkpt lat="43.5383533" lon="11.2340917"><ele>385.0</ele><time>2026-04-25T15:44:56.725Z</time></trkpt><trkpt lat="43.5383717" lon="11.2337783"><ele>382.6666666666667</ele><time>2026-04-25T15:44:57.723Z</time></trkpt><trkpt lat="43.5383833" lon="11.2334717"><ele>380.33333333333337</ele><time>2026-04-25T15:44:58.724Z</time></trkpt><trkpt lat="43.5383933" lon="11.2331767"><ele>378.0</ele><time>2026-04-25T15:44:59.725Z</time></trkpt><trkpt lat="43.5384067" lon="11.2328933"><ele>378.0</ele><time>2026-04-25T15:45:00.723Z</time></trkpt><trkpt lat="43.53844" lon="11.23262"><ele>378.0</ele><time>2026-04-25T15:45:01.724Z</time></trkpt><trkpt lat="43.5384967" lon="11.2323617"><ele>378.0</ele><time>2026-04-25T15:45:02.724Z</time></trkpt><trkpt lat="43.53859" lon="11.2321233"><ele>378.0</ele><time>2026-04-25T15:45:03.723Z</time></trkpt><trkpt lat="43.53871" lon="11.2319117"><ele>378.0</ele><time>2026-04-25T15:45:04.722Z</time></trkpt><trkpt lat="43.5388567" lon="11.23173"><ele>378.0</ele><time>2026-04-25T15:45:05.724Z</time></trkpt><trkpt lat="43.5390283" lon="11.23158"><ele>378.3333333333333</ele><time>2026-04-25T15:45:06.723Z</time></trkpt><trkpt lat="43.53922" lon="11.2314567"><ele>378.66666666666663</ele><time>2026-04-25T15:45:07.724Z</time></trkpt><trkpt lat="43.5394183" lon="11.2313433"><ele>379.0</ele><time>2026-04-25T15:45:08.725Z</time></trkpt><trkpt lat="43.5396167" lon="11.231235"><ele>377.0</ele><time>2026-04-25T15:45:09.725Z</time></trkpt><trkpt lat="43.53981" lon="11.2311333"><ele>375.0</ele><time>2026-04-25T15:45:10.725Z</time></trkpt><trkpt lat="43.5399917" lon="11.2310367"><ele>373.0</ele><time>2026-04-25T15:45:11.723Z</time></trkpt><trkpt lat="43.5401633" lon="11.2309467"><ele>373.0</ele><time>2026-04-25T15:45:12.724Z</time></trkpt><trkpt lat="43.540325" lon="11.23086"><ele>373.0</ele><time>2026-04-25T15:45:13.723Z</time></trkpt><trkpt lat="43.5404783" lon="11.2307733"><ele>373.0</ele><time>2026-04-25T15:45:14.724Z</time></trkpt><trkpt lat="43.54064" lon="11.2306983"><ele>371.3333333333333</ele><time>2026-04-25T15:45:15.724Z</time></trkpt><trkpt lat="43.540815" lon="11.23063"><ele>369.6666666666667</ele><time>2026-04-25T15:45:16.723Z</time></trkpt><trkpt lat="43.5409933" lon="11.2305633"><ele>368.0</ele><time>2026-04-25T15:45:17.723Z</time></trkpt><trkpt lat="43.5411717" lon="11.23049"><ele>367.33333333333337</ele><time>2026-04-25T15:45:18.723Z</time></trkpt><trkpt lat="43.5413517" lon="11.2304167"><ele>366.6666666666667</ele><time>2026-04-25T15:45:19.723Z</time></trkpt><trkpt lat="43.5415317" lon="11.2303483"><ele>366.0</ele><time>2026-04-25T15:45:20.724Z</time></trkpt><trkpt lat="43.5417133" lon="11.2302783"><ele>366.0</ele><time>2026-04-25T15:45:21.725Z</time></trkpt><trkpt lat="43.5418967" lon="11.23021"><ele>366.0</ele><time>2026-04-25T15:45:22.725Z</time></trkpt><trkpt lat="43.5420817" lon="11.2301433"><ele>366.0</ele><time>2026-04-25T15:45:23.725Z</time></trkpt><trkpt lat="43.5422567" lon="11.2300783"><ele>365.6666666666667</ele><time>2026-04-25T15:45:24.725Z</time></trkpt><trkpt lat="43.5424317" lon="11.2300183"><ele>365.33333333333337</ele><time>2026-04-25T15:45:25.726Z</time></trkpt><trkpt lat="43.5426083" lon="11.2299567"><ele>365.0</ele><time>2026-04-25T15:45:26.724Z</time></trkpt><trkpt lat="43.5427833" lon="11.2298883"><ele>365.0</ele><time>2026-04-25T15:45:27.723Z</time></trkpt><trkpt lat="43.5429617" lon="11.229815"><ele>365.0</ele><time>2026-04-25T15:45:28.725Z</time></trkpt><trkpt lat="43.543145" lon="11.2297267"><ele>365.0</ele><time>2026-04-25T15:45:29.724Z</time></trkpt><trkpt lat="43.5433267" lon="11.2296233"><ele>365.0</ele><time>2026-04-25T15:45:30.724Z</time></trkpt><trkpt lat="43.543505" lon="11.2295"><ele>365.0</ele><time>2026-04-25T15:45:31.725Z</time></trkpt><trkpt lat="43.543685" lon="11.2293633"><ele>365.0</ele><time>2026-04-25T15:45:32.724Z</time></trkpt><trkpt lat="43.5438617" lon="11.2292167"><ele>364.33333333333337</ele><time>2026-04-25T15:45:33.724Z</time></trkpt><trkpt lat="43.54404" lon="11.2290717"><ele>363.6666666666667</ele><time>2026-04-25T15:45:34.724Z</time></trkpt><trkpt lat="43.5442183" lon="11.228925"><ele>363.0</ele><time>2026-04-25T15:45:35.723Z</time></trkpt><trkpt lat="43.5443967" lon="11.2287783"><ele>361.0</ele><time>2026-04-25T15:45:36.724Z</time></trkpt><trkpt lat="43.54458" lon="11.2286367"><ele>359.0</ele><time>2026-04-25T15:45:37.723Z</time></trkpt><trkpt lat="43.5447667" lon="11.2284917"><ele>357.0</ele><time>2026-04-25T15:45:38.724Z</time></trkpt><trkpt lat="43.5449567" lon="11.2283483"><ele>357.0</ele><time>2026-04-25T15:45:39.724Z</time></trkpt><trkpt lat="43.5451467" lon="11.228205"><ele>357.0</ele><time>2026-04-25T15:45:40.723Z</time></trkpt><trkpt lat="43.5453417" lon="11.22806"><ele>357.0</ele><time>2026-04-25T15:45:41.724Z</time></trkpt><trkpt lat="43.5455333" lon="11.227915"><ele>355.3333333333333</ele><time>2026-04-25T15:45:42.723Z</time></trkpt><trkpt lat="43.5457217" lon="11.2277733"><ele>353.66666666666663</ele><time>2026-04-25T15:45:43.725Z</time></trkpt><trkpt lat="43.545905" lon="11.2276317"><ele>352.0</ele><time>2026-04-25T15:45:44.724Z</time></trkpt><trkpt lat="43.546085" lon="11.2274917"><ele>351.3333333333333</ele><time>2026-04-25T15:45:45.723Z</time></trkpt><trkpt lat="43.54626" lon="11.2273567"><ele>350.6666666666667</ele><time>2026-04-25T15:45:46.723Z</time></trkpt><trkpt lat="43.5464317" lon="11.227225"><ele>350.0</ele><time>2026-04-25T15:45:47.723Z</time></trkpt><trkpt lat="43.5466017" lon="11.2270917"><ele>350.0</ele><time>2026-04-25T15:45:48.724Z</time></trkpt><trkpt lat="43.5467667" lon="11.2269533"><ele>350.0</ele><time>2026-04-25T15:45:49.725Z</time></trkpt><trkpt lat="43.5469233" lon="11.22681"><ele>350.0</ele><time>2026-04-25T15:45:50.725Z</time></trkpt><trkpt lat="43.54708" lon="11.2266667"><ele>350.0</ele><time>2026-04-25T15:45:51.724Z</time></trkpt><trkpt lat="43.5472317" lon="11.2265183"><ele>350.0</ele><time>2026-04-25T15:45:52.725Z</time></trkpt><trkpt lat="43.54739" lon="11.2263617"><ele>350.0</ele><time>2026-04-25T15:45:53.724Z</time></trkpt><trkpt lat="43.5475483" lon="11.226195"><ele>350.0</ele><time>2026-04-25T15:45:54.724Z</time></trkpt><trkpt lat="43.5477" lon="11.2260183"><ele>350.0</ele><time>2026-04-25T15:45:55.724Z</time></trkpt><trkpt lat="43.5478383" lon="11.2258133"><ele>350.0</ele><time>2026-04-25T15:45:56.725Z</time></trkpt><trkpt lat="43.5479567" lon="11.2255783"><ele>345.33333333333337</ele><time>2026-04-25T15:45:57.723Z</time></trkpt><trkpt lat="43.548045" lon="11.22533"><ele>340.6666666666667</ele><time>2026-04-25T15:45:58.723Z</time></trkpt><trkpt lat="43.5481183" lon="11.2250867"><ele>336.0</ele><time>2026-04-25T15:45:59.723Z</time></trkpt><trkpt lat="43.54819" lon="11.2248533"><ele>339.0</ele><time>2026-04-25T15:46:00.724Z</time></trkpt><trkpt lat="43.5482917" lon="11.2246517"><ele>342.0</ele><time>2026-04-25T15:46:01.725Z</time></trkpt><trkpt lat="43.5484183" lon="11.224485"><ele>345.0</ele><time>2026-04-25T15:46:02.726Z</time></trkpt><trkpt lat="43.54858" lon="11.2243433"><ele>345.0</ele><time>2026-04-25T15:46:03.726Z</time></trkpt><trkpt lat="43.548765" lon="11.224215"><ele>345.0</ele><time>2026-04-25T15:46:04.723Z</time></trkpt><trkpt lat="43.5489567" lon="11.2240817"><ele>345.0</ele><time>2026-04-25T15:46:05.724Z</time></trkpt><trkpt lat="43.549145" lon="11.2239367"><ele>345.0</ele><time>2026-04-25T15:46:06.724Z</time></trkpt><trkpt lat="43.5493367" lon="11.223785"><ele>345.0</ele><time>2026-04-25T15:46:07.725Z</time></trkpt><trkpt lat="43.54953" lon="11.2236333"><ele>345.0</ele><time>2026-04-25T15:46:08.725Z</time></trkpt><trkpt lat="43.5497217" lon="11.223485"><ele>344.6666666666667</ele><time>2026-04-25T15:46:09.725Z</time></trkpt><trkpt lat="43.549905" lon="11.2233417"><ele>344.33333333333337</ele><time>2026-04-25T15:46:10.724Z</time></trkpt><trkpt lat="43.5500817" lon="11.2232083"><ele>344.0</ele><time>2026-04-25T15:46:11.724Z</time></trkpt><trkpt lat="43.5502617" lon="11.223095"><ele>341.6666666666667</ele><time>2026-04-25T15:46:12.725Z</time></trkpt><trkpt lat="43.5504433" lon="11.2230133"><ele>339.3333333333333</ele><time>2026-04-25T15:46:13.724Z</time></trkpt><trkpt lat="43.5506217" lon="11.22296"><ele>337.0</ele><time>2026-04-25T15:46:14.724Z</time></trkpt><trkpt lat="43.550785" lon="11.2229267"><ele>337.0</ele><time>2026-04-25T15:46:15.725Z</time></trkpt><trkpt lat="43.5509417" lon="11.2228883"><ele>337.0</ele><time>2026-04-25T15:46:16.724Z</time></trkpt><trkpt lat="43.5510867" lon="11.22281"><ele>337.0</ele><time>2026-04-25T15:46:17.725Z</time></trkpt><trkpt lat="43.55124" lon="11.2226967"><ele>333.66666666666663</ele><time>2026-04-25T15:46:18.724Z</time></trkpt><trkpt lat="43.551395" lon="11.2225317"><ele>330.3333333333333</ele><time>2026-04-25T15:46:19.724Z</time></trkpt><trkpt lat="43.5515467" lon="11.2223467"><ele>327.0</ele><time>2026-04-25T15:46:20.725Z</time></trkpt><trkpt lat="43.5516983" lon="11.2221667"><ele>327.0</ele><time>2026-04-25T15:46:21.725Z</time></trkpt><trkpt lat="43.5518467" lon="11.2220017"><ele>327.0</ele><time>2026-04-25T15:46:22.725Z</time></trkpt><trkpt lat="43.5520033" lon="11.22185"><ele>327.0</ele><time>2026-04-25T15:46:23.725Z</time></trkpt><trkpt lat="43.55217" lon="11.2217217"><ele>323.6666666666667</ele><time>2026-04-25T15:46:24.726Z</time></trkpt><trkpt lat="43.5523567" lon="11.22163"><ele>320.33333333333337</ele><time>2026-04-25T15:46:25.725Z</time></trkpt><trkpt lat="43.5525517" lon="11.2215767"><ele>317.0</ele><time>2026-04-25T15:46:26.725Z</time></trkpt><trkpt lat="43.5527533" lon="11.221555"><ele>316.0</ele><time>2026-04-25T15:46:27.724Z</time></trkpt><trkpt lat="43.55295" lon="11.2215683"><ele>315.0</ele><time>2026-04-25T15:46:28.726Z</time></trkpt><trkpt lat="43.5531583" lon="11.2216117"><ele>314.0</ele><time>2026-04-25T15:46:29.725Z</time></trkpt><trkpt lat="43.5533617" lon="11.22168"><ele>314.0</ele><time>2026-04-25T15:46:30.724Z</time></trkpt><trkpt lat="43.5535567" lon="11.2217533"><ele>314.0</ele><time>2026-04-25T15:46:31.725Z</time></trkpt><trkpt lat="43.5537483" lon="11.2218533"><ele>314.0</ele><time>2026-04-25T15:46:32.725Z</time></trkpt><trkpt lat="43.5539233" lon="11.2219783"><ele>317.0</ele><time>2026-04-25T15:46:33.725Z</time></trkpt><trkpt lat="43.5541033" lon="11.2221333"><ele>320.0</ele><time>2026-04-25T15:46:34.724Z</time></trkpt><trkpt lat="43.554285" lon="11.2222817"><ele>323.0</ele><time>2026-04-25T15:46:35.723Z</time></trkpt><trkpt lat="43.5544817" lon="11.2224133"><ele>320.33333333333337</ele><time>2026-04-25T15:46:36.725Z</time></trkpt><trkpt lat="43.5546717" lon="11.2225283"><ele>317.6666666666667</ele><time>2026-04-25T15:46:37.725Z</time></trkpt><trkpt lat="43.554855" lon="11.2226283"><ele>315.0</ele><time>2026-04-25T15:46:38.723Z</time></trkpt><trkpt lat="43.555015" lon="11.2227133"><ele>315.0</ele><time>2026-04-25T15:46:39.724Z</time></trkpt><trkpt lat="43.5551517" lon="11.22278"><ele>315.0</ele><time>2026-04-25T15:46:40.722Z</time></trkpt><trkpt lat="43.5552933" lon="11.2227933"><ele>315.0</ele><time>2026-04-25T15:46:41.724Z</time></trkpt><trkpt lat="43.5554467" lon="11.2227833"><ele>315.0</ele><time>2026-04-25T15:46:42.725Z</time></trkpt><trkpt lat="43.5555883" lon="11.2227233"><ele>314.6666666666667</ele><time>2026-04-25T15:46:43.724Z</time></trkpt><trkpt lat="43.5557433" lon="11.2226833"><ele>314.33333333333337</ele><time>2026-04-25T15:46:44.725Z</time></trkpt><trkpt lat="43.5559033" lon="11.22269"><ele>314.0</ele><time>2026-04-25T15:46:45.725Z</time></trkpt><trkpt lat="43.55606" lon="11.222735"><ele>312.33333333333337</ele><time>2026-04-25T15:46:46.725Z</time></trkpt><trkpt lat="43.5562183" lon="11.2227817"><ele>310.6666666666667</ele><time>2026-04-25T15:46:47.723Z</time></trkpt><trkpt lat="43.556375" lon="11.2227817"><ele>309.0</ele><time>2026-04-25T15:46:48.724Z</time></trkpt><trkpt lat="43.5565217" lon="11.22275"><ele>309.0</ele><time>2026-04-25T15:46:49.725Z</time></trkpt><trkpt lat="43.5566617" lon="11.2227317"><ele>309.0</ele><time>2026-04-25T15:46:50.725Z</time></trkpt><trkpt lat="43.5568" lon="11.22275"><ele>309.0</ele><time>2026-04-25T15:46:51.724Z</time></trkpt><trkpt lat="43.5569217" lon="11.2228117"><ele>309.0</ele><time>2026-04-25T15:46:52.725Z</time></trkpt><trkpt lat="43.55703" lon="11.2229233"><ele>310.0</ele><time>2026-04-25T15:46:53.724Z</time></trkpt><trkpt lat="43.557115" lon="11.2230833"><ele>311.0</ele><time>2026-04-25T15:46:54.726Z</time></trkpt><trkpt lat="43.5571833" lon="11.2232633"><ele>312.0</ele><time>2026-04-25T15:46:55.724Z</time></trkpt><trkpt lat="43.55725" lon="11.2234533"><ele>313.0</ele><time>2026-04-25T15:46:56.725Z</time></trkpt><trkpt lat="43.5573283" lon="11.2236333"><ele>308.66666666666663</ele><time>2026-04-25T15:46:57.726Z</time></trkpt><trkpt lat="43.5574433" lon="11.2237967"><ele>304.3333333333333</ele><time>2026-04-25T15:46:58.725Z</time></trkpt><trkpt lat="43.5575783" lon="11.2239417"><ele>300.0</ele><time>2026-04-25T15:46:59.724Z</time></trkpt><trkpt lat="43.5577017" lon="11.2241"><ele>298.5</ele><time>2026-04-25T15:47:00.725Z</time></trkpt><trkpt lat="43.557815" lon="11.2242567"><ele>297.0</ele><time>2026-04-25T15:47:01.725Z</time></trkpt><trkpt lat="43.5579117" lon="11.2244117"><ele>295.5</ele><time>2026-04-25T15:47:02.726Z</time></trkpt><trkpt lat="43.5579967" lon="11.2245367"><ele>294.0</ele><time>2026-04-25T15:47:03.725Z</time></trkpt><trkpt lat="43.5580983" lon="11.2246183"><ele>294.0</ele><time>2026-04-25T15:47:04.724Z</time></trkpt><trkpt lat="43.5582183" lon="11.22465"><ele>294.0</ele><time>2026-04-25T15:47:05.723Z</time></trkpt><trkpt lat="43.558355" lon="11.2246117"><ele>294.0</ele><time>2026-04-25T15:47:06.726Z</time></trkpt><trkpt lat="43.5585033" lon="11.22459"><ele>294.0</ele><time>2026-04-25T15:47:07.725Z</time></trkpt><trkpt lat="43.5586483" lon="11.2246183"><ele>292.0</ele><time>2026-04-25T15:47:08.726Z</time></trkpt><trkpt lat="43.5587983" lon="11.2246983"><ele>290.0</ele><time>2026-04-25T15:47:09.727Z</time></trkpt><trkpt lat="43.5589367" lon="11.224815"><ele>288.0</ele><time>2026-04-25T15:47:10.723Z</time></trkpt><trkpt lat="43.5590633" lon="11.2249567"><ele>286.25</ele><time>2026-04-25T15:47:11.725Z</time></trkpt><trkpt lat="43.5591833" lon="11.2250733"><ele>284.5</ele><time>2026-04-25T15:47:12.724Z</time></trkpt><trkpt lat="43.5593083" lon="11.2251133"><ele>282.75</ele><time>2026-04-25T15:47:13.725Z</time></trkpt><trkpt lat="43.559445" lon="11.2251183"><ele>281.0</ele><time>2026-04-25T15:47:14.725Z</time></trkpt><trkpt lat="43.559595" lon="11.2250817"><ele>280.0</ele><time>2026-04-25T15:47:15.727Z</time></trkpt><trkpt lat="43.5597867" lon="11.224965"><ele>279.0</ele><time>2026-04-25T15:47:16.724Z</time></trkpt><trkpt lat="43.5599967" lon="11.2248517"><ele>278.0</ele><time>2026-04-25T15:47:17.725Z</time></trkpt><trkpt lat="43.5602067" lon="11.2247467"><ele>274.0</ele><time>2026-04-25T15:47:18.724Z</time></trkpt><trkpt lat="43.5604033" lon="11.2246417"><ele>270.0</ele><time>2026-04-25T15:47:19.724Z</time></trkpt><trkpt lat="43.5605917" lon="11.224535"><ele>266.0</ele><time>2026-04-25T15:47:20.725Z</time></trkpt><trkpt lat="43.5607817" lon="11.224445"><ele>266.0</ele><time>2026-04-25T15:47:21.725Z</time></trkpt><trkpt lat="43.5609617" lon="11.224355"><ele>266.0</ele><time>2026-04-25T15:47:22.725Z</time></trkpt><trkpt lat="43.5611267" lon="11.2242267"><ele>266.0</ele><time>2026-04-25T15:47:23.724Z</time></trkpt><trkpt lat="43.5612767" lon="11.2240667"><ele>262.0</ele><time>2026-04-25T15:47:24.725Z</time></trkpt><trkpt lat="43.5614167" lon="11.2238783"><ele>258.0</ele><time>2026-04-25T15:47:25.724Z</time></trkpt><trkpt lat="43.56156" lon="11.2237017"><ele>254.0</ele><time>2026-04-25T15:47:26.724Z</time></trkpt><trkpt lat="43.5617067" lon="11.22356"><ele>254.0</ele><time>2026-04-25T15:47:27.725Z</time></trkpt><trkpt lat="43.5618483" lon="11.223445"><ele>254.0</ele><time>2026-04-25T15:47:28.723Z</time></trkpt><trkpt lat="43.5619767" lon="11.2233667"><ele>254.0</ele><time>2026-04-25T15:47:29.724Z</time></trkpt><trkpt lat="43.562075" lon="11.2232867"><ele>254.0</ele><time>2026-04-25T15:47:30.725Z</time></trkpt><trkpt lat="43.56215" lon="11.2231983"><ele>251.2</ele><time>2026-04-25T15:47:31.724Z</time></trkpt><trkpt lat="43.56219" lon="11.2230967"><ele>248.39999999999998</ele><time>2026-04-25T15:47:32.724Z</time></trkpt><trkpt lat="43.562185" lon="11.222995"><ele>245.6</ele><time>2026-04-25T15:47:33.725Z</time></trkpt><trkpt lat="43.562125" lon="11.2228933"><ele>242.8</ele><time>2026-04-25T15:47:34.725Z</time></trkpt><trkpt lat="43.5620183" lon="11.2227867"><ele>240.0</ele><time>2026-04-25T15:47:35.725Z</time></trkpt><trkpt lat="43.5618967" lon="11.222685"><ele>240.0</ele><time>2026-04-25T15:47:36.724Z</time></trkpt><trkpt lat="43.5617533" lon="11.2226133"><ele>240.0</ele><time>2026-04-25T15:47:37.724Z</time></trkpt><trkpt lat="43.5616017" lon="11.2225883"><ele>240.0</ele><time>2026-04-25T15:47:38.725Z</time></trkpt><trkpt lat="43.5614617" lon="11.2225633"><ele>240.0</ele><time>2026-04-25T15:47:39.723Z</time></trkpt><trkpt lat="43.5613517" lon="11.2225033"><ele>240.0</ele><time>2026-04-25T15:47:40.724Z</time></trkpt><trkpt lat="43.5612833" lon="11.2224133"><ele>240.0</ele><time>2026-04-25T15:47:41.725Z</time></trkpt><trkpt lat="43.5612733" lon="11.22227"><ele>240.0</ele><time>2026-04-25T15:47:42.725Z</time></trkpt><trkpt lat="43.5613133" lon="11.222115"><ele>240.0</ele><time>2026-04-25T15:47:43.725Z</time></trkpt><trkpt lat="43.5614" lon="11.221975"><ele>240.33333333333331</ele><time>2026-04-25T15:47:44.725Z</time></trkpt><trkpt lat="43.5615283" lon="11.2218517"><ele>240.66666666666666</ele><time>2026-04-25T15:47:45.725Z</time></trkpt><trkpt lat="43.5617333" lon="11.221775"><ele>241.0</ele><time>2026-04-25T15:47:46.724Z</time></trkpt><trkpt lat="43.561935" lon="11.2216833"><ele>242.66666666666666</ele><time>2026-04-25T15:47:47.724Z</time></trkpt><trkpt lat="43.5621467" lon="11.22158"><ele>244.33333333333331</ele><time>2026-04-25T15:47:48.725Z</time></trkpt><trkpt lat="43.5623583" lon="11.2214783"><ele>246.0</ele><time>2026-04-25T15:47:49.724Z</time></trkpt><trkpt lat="43.562575" lon="11.221385"><ele>246.0</ele><time>2026-04-25T15:47:50.724Z</time></trkpt><trkpt lat="43.562795" lon="11.2213067"><ele>246.0</ele><time>2026-04-25T15:47:51.723Z</time></trkpt><trkpt lat="43.5629983" lon="11.2212333"><ele>246.0</ele><time>2026-04-25T15:47:52.724Z</time></trkpt><trkpt lat="43.5631983" lon="11.2211667"><ele>241.33333333333331</ele><time>2026-04-25T15:47:53.723Z</time></trkpt><trkpt lat="43.5633817" lon="11.22109"><ele>236.66666666666666</ele><time>2026-04-25T15:47:54.724Z</time></trkpt><trkpt lat="43.5635433" lon="11.2209733"><ele>232.0</ele><time>2026-04-25T15:47:55.724Z</time></trkpt><trkpt lat="43.563675" lon="11.2208167"><ele>225.66666666666666</ele><time>2026-04-25T15:47:56.725Z</time></trkpt><trkpt lat="43.563785" lon="11.2206183"><ele>219.33333333333331</ele><time>2026-04-25T15:47:57.723Z</time></trkpt><trkpt lat="43.5638617" lon="11.220365"><ele>213.0</ele><time>2026-04-25T15:47:58.724Z</time></trkpt><trkpt lat="43.563925" lon="11.2200717"><ele>214.0</ele><time>2026-04-25T15:47:59.724Z</time></trkpt><trkpt lat="43.5640017" lon="11.219775"><ele>215.0</ele><time>2026-04-25T15:48:00.724Z</time></trkpt><trkpt lat="43.564075" lon="11.2194667"><ele>215.0</ele><time>2026-04-25T15:48:01.725Z</time></trkpt><trkpt lat="43.56415" lon="11.2191567"><ele>215.0</ele><time>2026-04-25T15:48:02.724Z</time></trkpt><trkpt lat="43.5642267" lon="11.218845"><ele>216.5</ele><time>2026-04-25T15:48:03.724Z</time></trkpt><trkpt lat="43.5642967" lon="11.2185433"><ele>218.0</ele><time>2026-04-25T15:48:04.725Z</time></trkpt><trkpt lat="43.5643517" lon="11.2182483"><ele>218.0</ele><time>2026-04-25T15:48:05.726Z</time></trkpt><trkpt lat="43.56441" lon="11.21797"><ele>218.0</ele><time>2026-04-25T15:48:06.723Z</time></trkpt><trkpt lat="43.5644717" lon="11.2177133"><ele>218.0</ele><time>2026-04-25T15:48:07.725Z</time></trkpt><trkpt lat="43.5645467" lon="11.2174717"><ele>213.33333333333334</ele><time>2026-04-25T15:48:08.724Z</time></trkpt><trkpt lat="43.5646417" lon="11.217265"><ele>208.66666666666669</ele><time>2026-04-25T15:48:09.725Z</time></trkpt><trkpt lat="43.56476" lon="11.2170983"><ele>204.0</ele><time>2026-04-25T15:48:10.724Z</time></trkpt><trkpt lat="43.5648983" lon="11.21696"><ele>204.0</ele><time>2026-04-25T15:48:11.725Z</time></trkpt><trkpt lat="43.565055" lon="11.2168517"><ele>204.0</ele><time>2026-04-25T15:48:12.723Z</time></trkpt><trkpt lat="43.5652417" lon="11.2167767"><ele>204.0</ele><time>2026-04-25T15:48:13.725Z</time></trkpt><trkpt lat="43.5654367" lon="11.2167"><ele>204.0</ele><time>2026-04-25T15:48:14.723Z</time></trkpt><trkpt lat="43.5656317" lon="11.2166133"><ele>204.0</ele><time>2026-04-25T15:48:15.721Z</time></trkpt><trkpt lat="43.565845" lon="11.2165267"><ele>204.0</ele><time>2026-04-25T15:48:16.724Z</time></trkpt><trkpt lat="43.56606" lon="11.2164383"><ele>205.5</ele><time>2026-04-25T15:48:17.724Z</time></trkpt><trkpt lat="43.5662767" lon="11.216355"><ele>207.0</ele><time>2026-04-25T15:48:18.724Z</time></trkpt><trkpt lat="43.5664983" lon="11.2162883"><ele>207.0</ele><time>2026-04-25T15:48:19.724Z</time></trkpt><trkpt lat="43.566715" lon="11.2162333"><ele>207.0</ele><time>2026-04-25T15:48:20.723Z</time></trkpt><trkpt lat="43.5669283" lon="11.2161867"><ele>207.0</ele><time>2026-04-25T15:48:21.724Z</time></trkpt><trkpt lat="43.5671283" lon="11.2161417"><ele>204.0</ele><time>2026-04-25T15:48:22.724Z</time></trkpt><trkpt lat="43.5673333" lon="11.2160933"><ele>201.0</ele><time>2026-04-25T15:48:23.724Z</time></trkpt><trkpt lat="43.56754" lon="11.2160383"><ele>198.0</ele><time>2026-04-25T15:48:24.723Z</time></trkpt><trkpt lat="43.567745" lon="11.2159767"><ele>195.0</ele><time>2026-04-25T15:48:25.723Z</time></trkpt><trkpt lat="43.5679517" lon="11.2159083"><ele>192.0</ele><time>2026-04-25T15:48:26.725Z</time></trkpt><trkpt lat="43.5681583" lon="11.2158333"><ele>189.0</ele><time>2026-04-25T15:48:27.723Z</time></trkpt><trkpt lat="43.5683667" lon="11.2157567"><ele>189.0</ele><time>2026-04-25T15:48:28.723Z</time></trkpt><trkpt lat="43.56857" lon="11.215675"><ele>189.0</ele><time>2026-04-25T15:48:29.724Z</time></trkpt><trkpt lat="43.56877" lon="11.2155917"><ele>189.0</ele><time>2026-04-25T15:48:30.723Z</time></trkpt><trkpt lat="43.5689767" lon="11.2155117"><ele>188.0</ele><time>2026-04-25T15:48:31.723Z</time></trkpt><trkpt lat="43.5691883" lon="11.2154317"><ele>187.0</ele><time>2026-04-25T15:48:32.724Z</time></trkpt><trkpt lat="43.5693933" lon="11.2153467"><ele>186.0</ele><time>2026-04-25T15:48:33.722Z</time></trkpt><trkpt lat="43.569595" lon="11.2152583"><ele>186.0</ele><time>2026-04-25T15:48:34.724Z</time></trkpt><trkpt lat="43.5697967" lon="11.2151733"><ele>186.0</ele><time>2026-04-25T15:48:35.724Z</time></trkpt><trkpt lat="43.5699867" lon="11.21509"><ele>186.0</ele><time>2026-04-25T15:48:36.724Z</time></trkpt><trkpt lat="43.57017" lon="11.21502"><ele>186.0</ele><time>2026-04-25T15:48:37.723Z</time></trkpt><trkpt lat="43.570345" lon="11.2149667"><ele>186.0</ele><time>2026-04-25T15:48:38.724Z</time></trkpt><trkpt lat="43.5705117" lon="11.21494"><ele>186.0</ele><time>2026-04-25T15:48:39.723Z</time></trkpt><trkpt lat="43.5706683" lon="11.2149533"><ele>185.0</ele><time>2026-04-25T15:48:40.722Z</time></trkpt><trkpt lat="43.5708133" lon="11.2149967"><ele>184.0</ele><time>2026-04-25T15:48:41.722Z</time></trkpt><trkpt lat="43.570945" lon="11.2150667"><ele>183.0</ele><time>2026-04-25T15:48:42.724Z</time></trkpt><trkpt lat="43.5710633" lon="11.2151533"><ele>182.0</ele><time>2026-04-25T15:48:43.724Z</time></trkpt><trkpt lat="43.5711733" lon="11.215265"><ele>181.33333333333331</ele><time>2026-04-25T15:48:44.725Z</time></trkpt><trkpt lat="43.5712783" lon="11.2154017"><ele>180.66666666666666</ele><time>2026-04-25T15:48:45.723Z</time></trkpt><trkpt lat="43.57138" lon="11.21555"><ele>180.0</ele><time>2026-04-25T15:48:46.723Z</time></trkpt><trkpt lat="43.57149" lon="11.2157083"><ele>180.0</ele><time>2026-04-25T15:48:47.723Z</time></trkpt><trkpt lat="43.5716033" lon="11.2158617"><ele>180.0</ele><time>2026-04-25T15:48:48.723Z</time></trkpt><trkpt lat="43.5717217" lon="11.2160167"><ele>180.0</ele><time>2026-04-25T15:48:49.723Z</time></trkpt><trkpt lat="43.571845" lon="11.216165"><ele>180.0</ele><time>2026-04-25T15:48:50.723Z</time></trkpt><trkpt lat="43.5719817" lon="11.2163033"><ele>180.0</ele><time>2026-04-25T15:48:51.723Z</time></trkpt><trkpt lat="43.572135" lon="11.2164183"><ele>180.0</ele><time>2026-04-25T15:48:52.723Z</time></trkpt><trkpt lat="43.5723017" lon="11.216505"><ele>181.66666666666666</ele><time>2026-04-25T15:48:53.723Z</time></trkpt><trkpt lat="43.5724783" lon="11.2165583"><ele>183.33333333333331</ele><time>2026-04-25T15:48:54.724Z</time></trkpt><trkpt lat="43.5726567" lon="11.2165833"><ele>185.0</ele><time>2026-04-25T15:48:55.724Z</time></trkpt><trkpt lat="43.5728383" lon="11.2165617"><ele>184.33333333333331</ele><time>2026-04-25T15:48:56.725Z</time></trkpt><trkpt lat="43.5730233" lon="11.2165033"><ele>183.66666666666666</ele><time>2026-04-25T15:48:57.724Z</time></trkpt><trkpt lat="43.5732" lon="11.2164133"><ele>183.0</ele><time>2026-04-25T15:48:58.723Z</time></trkpt><trkpt lat="43.5733667" lon="11.2163"><ele>181.66666666666666</ele><time>2026-04-25T15:48:59.722Z</time></trkpt><trkpt lat="43.573525" lon="11.2161917"><ele>180.33333333333331</ele><time>2026-04-25T15:49:00.722Z</time></trkpt><trkpt lat="43.57367" lon="11.2160933"><ele>179.0</ele><time>2026-04-25T15:49:01.722Z</time></trkpt><trkpt lat="43.573805" lon="11.2160083"><ele>178.5</ele><time>2026-04-25T15:49:02.722Z</time></trkpt><trkpt lat="43.5739417" lon="11.21594"><ele>178.0</ele><time>2026-04-25T15:49:03.723Z</time></trkpt><trkpt lat="43.57408" lon="11.21588"><ele>177.5</ele><time>2026-04-25T15:49:04.722Z</time></trkpt><trkpt lat="43.5742283" lon="11.2158133"><ele>177.0</ele><time>2026-04-25T15:49:05.722Z</time></trkpt><trkpt lat="43.5743867" lon="11.2157433"><ele>176.66666666666666</ele><time>2026-04-25T15:49:06.722Z</time></trkpt><trkpt lat="43.574545" lon="11.2156733"><ele>176.33333333333331</ele><time>2026-04-25T15:49:07.722Z</time></trkpt><trkpt lat="43.5747083" lon="11.2155967"><ele>176.0</ele><time>2026-04-25T15:49:08.724Z</time></trkpt><trkpt lat="43.5748717" lon="11.2155267"><ele>176.0</ele><time>2026-04-25T15:49:09.722Z</time></trkpt><trkpt lat="43.5750317" lon="11.21546"><ele>176.0</ele><time>2026-04-25T15:49:10.722Z</time></trkpt><trkpt lat="43.5751867" lon="11.2153983"><ele>176.0</ele><time>2026-04-25T15:49:11.722Z</time></trkpt><trkpt lat="43.57534" lon="11.2153333"><ele>176.33333333333331</ele><time>2026-04-25T15:49:12.723Z</time></trkpt><trkpt lat="43.5754933" lon="11.2152633"><ele>176.66666666666666</ele><time>2026-04-25T15:49:13.723Z</time></trkpt><trkpt lat="43.575645" lon="11.215195"><ele>177.0</ele><time>2026-04-25T15:49:14.723Z</time></trkpt><trkpt lat="43.5757917" lon="11.2151267"><ele>177.0</ele><time>2026-04-25T15:49:15.724Z</time></trkpt><trkpt lat="43.5759283" lon="11.2150633"><ele>177.0</ele><time>2026-04-25T15:49:16.725Z</time></trkpt><trkpt lat="43.5760583" lon="11.2150117"><ele>177.0</ele><time>2026-04-25T15:49:17.724Z</time></trkpt><trkpt lat="43.576175" lon="11.2149667"><ele>177.0</ele><time>2026-04-25T15:49:18.725Z</time></trkpt><trkpt lat="43.5762683" lon="11.2149267"><ele>177.2</ele><time>2026-04-25T15:49:19.722Z</time></trkpt><trkpt lat="43.57635" lon="11.21489"><ele>177.39999999999998</ele><time>2026-04-25T15:49:20.724Z</time></trkpt><trkpt lat="43.57642" lon="11.2148583"><ele>177.60000000000002</ele><time>2026-04-25T15:49:21.725Z</time></trkpt><trkpt lat="43.57648" lon="11.2148317"><ele>177.8</ele><time>2026-04-25T15:49:22.723Z</time></trkpt><trkpt lat="43.5766083" lon="11.2147633"><ele>178.0</ele><time>2026-04-25T15:49:24.724Z</time></trkpt><trkpt lat="43.5767317" lon="11.21472"><ele>177.0</ele><time>2026-04-25T15:49:25.724Z</time></trkpt><trkpt lat="43.5768783" lon="11.2146617"><ele>176.0</ele><time>2026-04-25T15:49:26.722Z</time></trkpt><trkpt lat="43.577035" lon="11.2145917"><ele>175.0</ele><time>2026-04-25T15:49:27.723Z</time></trkpt><trkpt lat="43.5771933" lon="11.2145167"><ele>175.0</ele><time>2026-04-25T15:49:28.724Z</time></trkpt><trkpt lat="43.5773517" lon="11.214415"><ele>175.0</ele><time>2026-04-25T15:49:29.723Z</time></trkpt><trkpt lat="43.5775083" lon="11.2142733"><ele>175.0</ele><time>2026-04-25T15:49:30.724Z</time></trkpt><trkpt lat="43.57766" lon="11.2140983"><ele>175.33333333333334</ele><time>2026-04-25T15:49:31.725Z</time></trkpt><trkpt lat="43.5778017" lon="11.2139033"><ele>175.66666666666666</ele><time>2026-04-25T15:49:32.723Z</time></trkpt><trkpt lat="43.5779467" lon="11.2137017"><ele>176.0</ele><time>2026-04-25T15:49:33.723Z</time></trkpt><trkpt lat="43.578095" lon="11.2134967"><ele>176.0</ele><time>2026-04-25T15:49:34.724Z</time></trkpt><trkpt lat="43.5782417" lon="11.2132967"><ele>176.0</ele><time>2026-04-25T15:49:35.723Z</time></trkpt><trkpt lat="43.5783867" lon="11.213105"><ele>176.0</ele><time>2026-04-25T15:49:36.723Z</time></trkpt><trkpt lat="43.578535" lon="11.2129333"><ele>175.66666666666666</ele><time>2026-04-25T15:49:37.724Z</time></trkpt><trkpt lat="43.5786917" lon="11.2127883"><ele>175.33333333333334</ele><time>2026-04-25T15:49:38.723Z</time></trkpt><trkpt lat="43.578855" lon="11.2126717"><ele>175.0</ele><time>2026-04-25T15:49:39.724Z</time></trkpt><trkpt lat="43.5790117" lon="11.21257"><ele>175.0</ele><time>2026-04-25T15:49:40.724Z</time></trkpt><trkpt lat="43.5791733" lon="11.2124817"><ele>175.0</ele><time>2026-04-25T15:49:41.723Z</time></trkpt><trkpt lat="43.579345" lon="11.2124017"><ele>175.0</ele><time>2026-04-25T15:49:42.723Z</time></trkpt><trkpt lat="43.579515" lon="11.2123183"><ele>174.66666666666669</ele><time>2026-04-25T15:49:43.724Z</time></trkpt><trkpt lat="43.5796883" lon="11.2122383"><ele>174.33333333333334</ele><time>2026-04-25T15:49:44.724Z</time></trkpt><trkpt lat="43.57986" lon="11.2121667"><ele>174.0</ele><time>2026-04-25T15:49:45.723Z</time></trkpt><trkpt lat="43.5800467" lon="11.21212"><ele>174.0</ele><time>2026-04-25T15:49:46.723Z</time></trkpt><trkpt lat="43.58024" lon="11.21208"><ele>174.0</ele><time>2026-04-25T15:49:47.724Z</time></trkpt><trkpt lat="43.5804383" lon="11.21205"><ele>174.0</ele><time>2026-04-25T15:49:48.722Z</time></trkpt><trkpt lat="43.58063" lon="11.2120133"><ele>174.0</ele><time>2026-04-25T15:49:49.726Z</time></trkpt><trkpt lat="43.5808133" lon="11.2119867"><ele>174.0</ele><time>2026-04-25T15:49:50.722Z</time></trkpt><trkpt lat="43.580995" lon="11.21198"><ele>174.0</ele><time>2026-04-25T15:49:51.722Z</time></trkpt><trkpt lat="43.5811767" lon="11.2120067"><ele>174.66666666666666</ele><time>2026-04-25T15:49:52.722Z</time></trkpt><trkpt lat="43.5813617" lon="11.2120533"><ele>175.33333333333331</ele><time>2026-04-25T15:49:53.723Z</time></trkpt><trkpt lat="43.58155" lon="11.21207"><ele>176.0</ele><time>2026-04-25T15:49:54.723Z</time></trkpt><trkpt lat="43.5817483" lon="11.2120233"><ele>176.0</ele><time>2026-04-25T15:49:55.723Z</time></trkpt><trkpt lat="43.581945" lon="11.21195"><ele>176.0</ele><time>2026-04-25T15:49:56.724Z</time></trkpt><trkpt lat="43.5821467" lon="11.2118567"><ele>176.0</ele><time>2026-04-25T15:49:57.722Z</time></trkpt><trkpt lat="43.582345" lon="11.2117583"><ele>176.66666666666666</ele><time>2026-04-25T15:49:58.723Z</time></trkpt><trkpt lat="43.58254" lon="11.2116683"><ele>177.33333333333334</ele><time>2026-04-25T15:49:59.723Z</time></trkpt><trkpt lat="43.5827283" lon="11.2115883"><ele>178.0</ele><time>2026-04-25T15:50:00.722Z</time></trkpt><trkpt lat="43.58291" lon="11.2115083"><ele>176.66666666666669</ele><time>2026-04-25T15:50:01.721Z</time></trkpt><trkpt lat="43.5830883" lon="11.2114317"><ele>175.33333333333334</ele><time>2026-04-25T15:50:02.723Z</time></trkpt><trkpt lat="43.5832683" lon="11.21135"><ele>174.0</ele><time>2026-04-25T15:50:03.723Z</time></trkpt><trkpt lat="43.5834467" lon="11.2112517"><ele>174.0</ele><time>2026-04-25T15:50:04.724Z</time></trkpt><trkpt lat="43.5836267" lon="11.2111217"><ele>174.0</ele><time>2026-04-25T15:50:05.724Z</time></trkpt><trkpt lat="43.58381" lon="11.2109667"><ele>174.0</ele><time>2026-04-25T15:50:06.723Z</time></trkpt><trkpt lat="43.5839967" lon="11.2108133"><ele>174.0</ele><time>2026-04-25T15:50:07.723Z</time></trkpt><trkpt lat="43.5841933" lon="11.2106783"><ele>174.0</ele><time>2026-04-25T15:50:08.723Z</time></trkpt><trkpt lat="43.5843983" lon="11.2105467"><ele>174.0</ele><time>2026-04-25T15:50:09.723Z</time></trkpt><trkpt lat="43.5846083" lon="11.2104167"><ele>173.5</ele><time>2026-04-25T15:50:10.723Z</time></trkpt><trkpt lat="43.5848183" lon="11.2102833"><ele>173.0</ele><time>2026-04-25T15:50:11.722Z</time></trkpt><trkpt lat="43.5850283" lon="11.21015"><ele>173.0</ele><time>2026-04-25T15:50:12.724Z</time></trkpt><trkpt lat="43.5852333" lon="11.2100167"><ele>173.0</ele><time>2026-04-25T15:50:13.722Z</time></trkpt><trkpt lat="43.5854333" lon="11.209885"><ele>173.0</ele><time>2026-04-25T15:50:14.723Z</time></trkpt><trkpt lat="43.5856333" lon="11.2097567"><ele>173.66666666666666</ele><time>2026-04-25T15:50:15.724Z</time></trkpt><trkpt lat="43.585825" lon="11.209635"><ele>174.33333333333334</ele><time>2026-04-25T15:50:16.723Z</time></trkpt><trkpt lat="43.5860033" lon="11.2095167"><ele>175.0</ele><time>2026-04-25T15:50:17.724Z</time></trkpt><trkpt lat="43.58618" lon="11.2094017"><ele>177.0</ele><time>2026-04-25T15:50:18.723Z</time></trkpt><trkpt lat="43.58636" lon="11.209285"><ele>179.0</ele><time>2026-04-25T15:50:19.722Z</time></trkpt><trkpt lat="43.58655" lon="11.2091667"><ele>181.0</ele><time>2026-04-25T15:50:20.724Z</time></trkpt><trkpt lat="43.5867483" lon="11.209045"><ele>179.5</ele><time>2026-04-25T15:50:21.722Z</time></trkpt><trkpt lat="43.586955" lon="11.2089183"><ele>178.0</ele><time>2026-04-25T15:50:22.721Z</time></trkpt><trkpt lat="43.5871633" lon="11.2087867"><ele>178.0</ele><time>2026-04-25T15:50:23.725Z</time></trkpt><trkpt lat="43.58737" lon="11.20865"><ele>178.0</ele><time>2026-04-25T15:50:24.724Z</time></trkpt><trkpt lat="43.58757" lon="11.20851"><ele>178.0</ele><time>2026-04-25T15:50:25.723Z</time></trkpt><trkpt lat="43.5877583" lon="11.20838"><ele>178.0</ele><time>2026-04-25T15:50:26.725Z</time></trkpt><trkpt lat="43.58793" lon="11.2082733"><ele>178.0</ele><time>2026-04-25T15:50:27.723Z</time></trkpt><trkpt lat="43.5880933" lon="11.2081867"><ele>177.5</ele><time>2026-04-25T15:50:28.723Z</time></trkpt><trkpt lat="43.588245" lon="11.208115"><ele>177.0</ele><time>2026-04-25T15:50:29.725Z</time></trkpt><trkpt lat="43.5883817" lon="11.208055"><ele>176.5</ele><time>2026-04-25T15:50:30.723Z</time></trkpt><trkpt lat="43.5885133" lon="11.2079983"><ele>176.0</ele><time>2026-04-25T15:50:31.724Z</time></trkpt><trkpt lat="43.5886483" lon="11.2079433"><ele>177.66666666666666</ele><time>2026-04-25T15:50:32.723Z</time></trkpt><trkpt lat="43.5888033" lon="11.2078883"><ele>179.33333333333334</ele><time>2026-04-25T15:50:33.722Z</time></trkpt><trkpt lat="43.5889633" lon="11.2078233"><ele>181.0</ele><time>2026-04-25T15:50:34.725Z</time></trkpt><trkpt lat="43.5891317" lon="11.2077483"><ele>181.0</ele><time>2026-04-25T15:50:35.724Z</time></trkpt><trkpt lat="43.5893083" lon="11.2076717"><ele>181.0</ele><time>2026-04-25T15:50:36.724Z</time></trkpt><trkpt lat="43.58949" lon="11.2075767"><ele>181.0</ele><time>2026-04-25T15:50:37.724Z</time></trkpt><trkpt lat="43.5896567" lon="11.20745"><ele>179.0</ele><time>2026-04-25T15:50:38.723Z</time></trkpt><trkpt lat="43.58981" lon="11.2072683"><ele>177.0</ele><time>2026-04-25T15:50:39.722Z</time></trkpt><trkpt lat="43.5899583" lon="11.2070667"><ele>175.0</ele><time>2026-04-25T15:50:40.724Z</time></trkpt><trkpt lat="43.5900983" lon="11.2068567"><ele>175.0</ele><time>2026-04-25T15:50:41.724Z</time></trkpt><trkpt lat="43.5902317" lon="11.20664"><ele>175.0</ele><time>2026-04-25T15:50:42.723Z</time></trkpt><trkpt lat="43.590365" lon="11.20643"><ele>175.0</ele><time>2026-04-25T15:50:43.723Z</time></trkpt><trkpt lat="43.5904917" lon="11.2062233"><ele>174.33333333333334</ele><time>2026-04-25T15:50:44.723Z</time></trkpt><trkpt lat="43.5906167" lon="11.2060283"><ele>173.66666666666666</ele><time>2026-04-25T15:50:45.722Z</time></trkpt><trkpt lat="43.5907217" lon="11.2058417"><ele>173.0</ele><time>2026-04-25T15:50:46.723Z</time></trkpt><trkpt lat="43.5908217" lon="11.205665"><ele>171.33333333333331</ele><time>2026-04-25T15:50:47.725Z</time></trkpt><trkpt lat="43.5909383" lon="11.2055167"><ele>169.66666666666666</ele><time>2026-04-25T15:50:48.724Z</time></trkpt><trkpt lat="43.59108" lon="11.2054067"><ele>168.0</ele><time>2026-04-25T15:50:49.723Z</time></trkpt><trkpt lat="43.5912333" lon="11.2053033"><ele>167.66666666666666</ele><time>2026-04-25T15:50:50.723Z</time></trkpt><trkpt lat="43.5913833" lon="11.2051633"><ele>167.33333333333331</ele><time>2026-04-25T15:50:51.724Z</time></trkpt><trkpt lat="43.591535" lon="11.2049917"><ele>167.0</ele><time>2026-04-25T15:50:52.722Z</time></trkpt><trkpt lat="43.591685" lon="11.204795"><ele>165.66666666666666</ele><time>2026-04-25T15:50:53.721Z</time></trkpt><trkpt lat="43.59184" lon="11.2045917"><ele>164.33333333333334</ele><time>2026-04-25T15:50:54.722Z</time></trkpt><trkpt lat="43.591995" lon="11.2043933"><ele>163.0</ele><time>2026-04-25T15:50:55.723Z</time></trkpt><trkpt lat="43.5921617" lon="11.2041933"><ele>161.33333333333334</ele><time>2026-04-25T15:50:56.724Z</time></trkpt><trkpt lat="43.5923317" lon="11.2039917"><ele>159.66666666666666</ele><time>2026-04-25T15:50:57.724Z</time></trkpt><trkpt lat="43.5925017" lon="11.2037933"><ele>158.0</ele><time>2026-04-25T15:50:58.723Z</time></trkpt><trkpt lat="43.5926683" lon="11.2035933"><ele>158.0</ele><time>2026-04-25T15:50:59.724Z</time></trkpt><trkpt lat="43.592835" lon="11.2034"><ele>158.0</ele><time>2026-04-25T15:51:00.723Z</time></trkpt><trkpt lat="43.5930033" lon="11.2032183"><ele>158.0</ele><time>2026-04-25T15:51:01.722Z</time></trkpt><trkpt lat="43.5931667" lon="11.20305"><ele>159.33333333333331</ele><time>2026-04-25T15:51:02.723Z</time></trkpt><trkpt lat="43.5933233" lon="11.2028967"><ele>160.66666666666666</ele><time>2026-04-25T15:51:03.723Z</time></trkpt><trkpt lat="43.59347" lon="11.2027467"><ele>162.0</ele><time>2026-04-25T15:51:04.722Z</time></trkpt><trkpt lat="43.5936033" lon="11.2026033"><ele>162.0</ele><time>2026-04-25T15:51:05.724Z</time></trkpt><trkpt lat="43.59373" lon="11.2024667"><ele>162.0</ele><time>2026-04-25T15:51:06.723Z</time></trkpt><trkpt lat="43.5938517" lon="11.2023317"><ele>162.0</ele><time>2026-04-25T15:51:07.723Z</time></trkpt><trkpt lat="43.5939667" lon="11.2022033"><ele>162.0</ele><time>2026-04-25T15:51:08.724Z</time></trkpt><trkpt lat="43.5940717" lon="11.2020917"><ele>162.0</ele><time>2026-04-25T15:51:09.722Z</time></trkpt><trkpt lat="43.5941783" lon="11.2020117"><ele>162.0</ele><time>2026-04-25T15:51:10.723Z</time></trkpt><trkpt lat="43.59429" lon="11.2019733"><ele>162.0</ele><time>2026-04-25T15:51:11.723Z</time></trkpt><trkpt lat="43.5944" lon="11.201985"><ele>160.66666666666666</ele><time>2026-04-25T15:51:12.723Z</time></trkpt><trkpt lat="43.5945267" lon="11.2020233"><ele>159.33333333333331</ele><time>2026-04-25T15:51:13.724Z</time></trkpt><trkpt lat="43.594675" lon="11.2020733"><ele>158.0</ele><time>2026-04-25T15:51:14.724Z</time></trkpt><trkpt lat="43.5948467" lon="11.2021417"><ele>158.0</ele><time>2026-04-25T15:51:15.721Z</time></trkpt><trkpt lat="43.5950383" lon="11.2022317"><ele>158.0</ele><time>2026-04-25T15:51:16.724Z</time></trkpt><trkpt lat="43.5952333" lon="11.2023167"><ele>158.0</ele><time>2026-04-25T15:51:17.724Z</time></trkpt><trkpt lat="43.5954283" lon="11.202395"><ele>160.66666666666666</ele><time>2026-04-25T15:51:18.723Z</time></trkpt><trkpt lat="43.59563" lon="11.2024517"><ele>163.33333333333334</ele><time>2026-04-25T15:51:19.726Z</time></trkpt><trkpt lat="43.5958417" lon="11.202455"><ele>166.0</ele><time>2026-04-25T15:51:20.724Z</time></trkpt><trkpt lat="43.5960517" lon="11.202435"><ele>164.66666666666669</ele><time>2026-04-25T15:51:21.723Z</time></trkpt><trkpt lat="43.596245" lon="11.2023967"><ele>163.33333333333334</ele><time>2026-04-25T15:51:22.724Z</time></trkpt><trkpt lat="43.5964233" lon="11.2023183"><ele>162.0</ele><time>2026-04-25T15:51:23.723Z</time></trkpt><trkpt lat="43.59658" lon="11.2021867"><ele>162.0</ele><time>2026-04-25T15:51:24.725Z</time></trkpt><trkpt lat="43.59673" lon="11.20199"><ele>162.0</ele><time>2026-04-25T15:51:25.724Z</time></trkpt><trkpt lat="43.5968767" lon="11.201765"><ele>162.0</ele><time>2026-04-25T15:51:26.724Z</time></trkpt><trkpt lat="43.5970317" lon="11.2015283"><ele>163.5</ele><time>2026-04-25T15:51:27.724Z</time></trkpt><trkpt lat="43.5971883" lon="11.201285"><ele>165.0</ele><time>2026-04-25T15:51:28.723Z</time></trkpt><trkpt lat="43.5973333" lon="11.2010317"><ele>165.0</ele><time>2026-04-25T15:51:29.723Z</time></trkpt><trkpt lat="43.5974717" lon="11.2007617"><ele>165.0</ele><time>2026-04-25T15:51:30.724Z</time></trkpt><trkpt lat="43.5976167" lon="11.2004867"><ele>165.0</ele><time>2026-04-25T15:51:31.724Z</time></trkpt><trkpt lat="43.5977683" lon="11.2002217"><ele>165.0</ele><time>2026-04-25T15:51:32.724Z</time></trkpt><trkpt lat="43.5979133" lon="11.1999733"><ele>163.66666666666666</ele><time>2026-04-25T15:51:33.724Z</time></trkpt><trkpt lat="43.5980567" lon="11.1997467"><ele>162.33333333333331</ele><time>2026-04-25T15:51:34.724Z</time></trkpt><trkpt lat="43.5981917" lon="11.1995367"><ele>161.0</ele><time>2026-04-25T15:51:35.722Z</time></trkpt><trkpt lat="43.5983217" lon="11.1993483"><ele>161.0</ele><time>2026-04-25T15:51:36.724Z</time></trkpt><trkpt lat="43.5984617" lon="11.19919"><ele>161.0</ele><time>2026-04-25T15:51:37.723Z</time></trkpt><trkpt lat="43.5986367" lon="11.1990583"><ele>161.0</ele><time>2026-04-25T15:51:38.726Z</time></trkpt><trkpt lat="43.5988333" lon="11.1989267"><ele>160.0</ele><time>2026-04-25T15:51:39.724Z</time></trkpt><trkpt lat="43.5990383" lon="11.1987833"><ele>159.0</ele><time>2026-04-25T15:51:40.724Z</time></trkpt><trkpt lat="43.5992367" lon="11.1986217"><ele>159.0</ele><time>2026-04-25T15:51:41.724Z</time></trkpt><trkpt lat="43.5994233" lon="11.1984633"><ele>159.0</ele><time>2026-04-25T15:51:42.724Z</time></trkpt><trkpt lat="43.599605" lon="11.1983183"><ele>159.0</ele><time>2026-04-25T15:51:43.724Z</time></trkpt><trkpt lat="43.5997767" lon="11.198165"><ele>159.0</ele><time>2026-04-25T15:51:44.724Z</time></trkpt><trkpt lat="43.5999367" lon="11.1979917"><ele>159.0</ele><time>2026-04-25T15:51:45.725Z</time></trkpt><trkpt lat="43.60009" lon="11.1978183"><ele>159.0</ele><time>2026-04-25T15:51:46.724Z</time></trkpt><trkpt lat="43.6002583" lon="11.1976717"><ele>159.0</ele><time>2026-04-25T15:51:47.725Z</time></trkpt><trkpt lat="43.60045" lon="11.1975633"><ele>159.0</ele><time>2026-04-25T15:51:48.721Z</time></trkpt><trkpt lat="43.6006533" lon="11.1974667"><ele>159.0</ele><time>2026-04-25T15:51:49.723Z</time></trkpt><trkpt lat="43.600865" lon="11.19736"><ele>158.5</ele><time>2026-04-25T15:51:50.723Z</time></trkpt><trkpt lat="43.6010767" lon="11.19724"><ele>158.0</ele><time>2026-04-25T15:51:51.723Z</time></trkpt><trkpt lat="43.6012817" lon="11.1970933"><ele>158.0</ele><time>2026-04-25T15:51:52.723Z</time></trkpt><trkpt lat="43.601475" lon="11.196915"><ele>158.0</ele><time>2026-04-25T15:51:53.725Z</time></trkpt><trkpt lat="43.6016433" lon="11.196725"><ele>158.0</ele><time>2026-04-25T15:51:54.724Z</time></trkpt><trkpt lat="43.6018133" lon="11.1965483"><ele>158.0</ele><time>2026-04-25T15:51:55.724Z</time></trkpt><trkpt lat="43.601995" lon="11.1963933"><ele>158.0</ele><time>2026-04-25T15:51:56.723Z</time></trkpt><trkpt lat="43.6021867" lon="11.1962567"><ele>156.0</ele><time>2026-04-25T15:51:57.724Z</time></trkpt><trkpt lat="43.6023867" lon="11.1961233"><ele>154.0</ele><time>2026-04-25T15:51:58.724Z</time></trkpt><trkpt lat="43.60259" lon="11.19598"><ele>154.0</ele><time>2026-04-25T15:51:59.723Z</time></trkpt><trkpt lat="43.6028017" lon="11.195825"><ele>154.0</ele><time>2026-04-25T15:52:00.724Z</time></trkpt><trkpt lat="43.60301" lon="11.1956683"><ele>151.5</ele><time>2026-04-25T15:52:01.723Z</time></trkpt><trkpt lat="43.603225" lon="11.1955267"><ele>149.0</ele><time>2026-04-25T15:52:02.724Z</time></trkpt><trkpt lat="43.6034483" lon="11.1954"><ele>149.5</ele><time>2026-04-25T15:52:03.724Z</time></trkpt><trkpt lat="43.60368" lon="11.1952867"><ele>150.0</ele><time>2026-04-25T15:52:04.723Z</time></trkpt><trkpt lat="43.6039183" lon="11.1951933"><ele>150.0</ele><time>2026-04-25T15:52:05.723Z</time></trkpt><trkpt lat="43.6041617" lon="11.1951183"><ele>150.0</ele><time>2026-04-25T15:52:06.723Z</time></trkpt><trkpt lat="43.6044067" lon="11.1950417"><ele>151.0</ele><time>2026-04-25T15:52:07.723Z</time></trkpt><trkpt lat="43.60465" lon="11.1949667"><ele>152.0</ele><time>2026-04-25T15:52:08.725Z</time></trkpt><trkpt lat="43.604885" lon="11.19487"><ele>150.5</ele><time>2026-04-25T15:52:09.723Z</time></trkpt><trkpt lat="43.6051183" lon="11.1947583"><ele>149.0</ele><time>2026-04-25T15:52:10.725Z</time></trkpt><trkpt lat="43.6053533" lon="11.1946467"><ele>149.0</ele><time>2026-04-25T15:52:11.724Z</time></trkpt><trkpt lat="43.605585" lon="11.1945233"><ele>149.0</ele><time>2026-04-25T15:52:12.722Z</time></trkpt><trkpt lat="43.6058117" lon="11.19441"><ele>149.0</ele><time>2026-04-25T15:52:13.723Z</time></trkpt><trkpt lat="43.6060267" lon="11.1943017"><ele>149.0</ele><time>2026-04-25T15:52:14.723Z</time></trkpt><trkpt lat="43.6062217" lon="11.1942033"><ele>149.0</ele><time>2026-04-25T15:52:15.724Z</time></trkpt><trkpt lat="43.606405" lon="11.19414"><ele>150.66666666666666</ele><time>2026-04-25T15:52:16.724Z</time></trkpt><trkpt lat="43.6065983" lon="11.1941383"><ele>152.33333333333334</ele><time>2026-04-25T15:52:17.724Z</time></trkpt><trkpt lat="43.6068" lon="11.194165"><ele>154.0</ele><time>2026-04-25T15:52:18.724Z</time></trkpt><trkpt lat="43.607015" lon="11.1941967"><ele>154.33333333333334</ele><time>2026-04-25T15:52:19.723Z</time></trkpt><trkpt lat="43.6072367" lon="11.1942217"><ele>154.66666666666666</ele><time>2026-04-25T15:52:20.724Z</time></trkpt><trkpt lat="43.60746" lon="11.1942383"><ele>155.0</ele><time>2026-04-25T15:52:21.725Z</time></trkpt><trkpt lat="43.60769" lon="11.194255"><ele>156.0</ele><time>2026-04-25T15:52:22.724Z</time></trkpt><trkpt lat="43.607925" lon="11.1942583"><ele>157.0</ele><time>2026-04-25T15:52:23.724Z</time></trkpt><trkpt lat="43.6081567" lon="11.1942317"><ele>157.0</ele><time>2026-04-25T15:52:24.723Z</time></trkpt><trkpt lat="43.608385" lon="11.1941733"><ele>157.0</ele><time>2026-04-25T15:52:25.724Z</time></trkpt><trkpt lat="43.6085967" lon="11.1940917"><ele>154.66666666666669</ele><time>2026-04-25T15:52:26.724Z</time></trkpt><trkpt lat="43.60879" lon="11.1939867"><ele>152.33333333333334</ele><time>2026-04-25T15:52:27.724Z</time></trkpt><trkpt lat="43.608975" lon="11.19386"><ele>150.0</ele><time>2026-04-25T15:52:28.725Z</time></trkpt><trkpt lat="43.6091517" lon="11.1937117"><ele>150.0</ele><time>2026-04-25T15:52:29.724Z</time></trkpt><trkpt lat="43.609325" lon="11.1935433"><ele>150.0</ele><time>2026-04-25T15:52:30.723Z</time></trkpt><trkpt lat="43.6094933" lon="11.1933667"><ele>150.0</ele><time>2026-04-25T15:52:31.724Z</time></trkpt><trkpt lat="43.6096567" lon="11.193195"><ele>148.66666666666666</ele><time>2026-04-25T15:52:32.725Z</time></trkpt><trkpt lat="43.609825" lon="11.193035"><ele>147.33333333333331</ele><time>2026-04-25T15:52:33.725Z</time></trkpt><trkpt lat="43.61" lon="11.1928983"><ele>146.0</ele><time>2026-04-25T15:52:34.724Z</time></trkpt><trkpt lat="43.61018" lon="11.19279"><ele>146.66666666666666</ele><time>2026-04-25T15:52:35.724Z</time></trkpt><trkpt lat="43.6103617" lon="11.1927117"><ele>147.33333333333334</ele><time>2026-04-25T15:52:36.724Z</time></trkpt><trkpt lat="43.610545" lon="11.1926583"><ele>148.0</ele><time>2026-04-25T15:52:37.725Z</time></trkpt><trkpt lat="43.6107217" lon="11.1925883"><ele>148.0</ele><time>2026-04-25T15:52:38.724Z</time></trkpt><trkpt lat="43.610895" lon="11.1924833"><ele>148.0</ele><time>2026-04-25T15:52:39.724Z</time></trkpt><trkpt lat="43.61107" lon="11.1923567"><ele>148.0</ele><time>2026-04-25T15:52:40.723Z</time></trkpt><trkpt lat="43.6112483" lon="11.1922233"><ele>147.0</ele><time>2026-04-25T15:52:41.725Z</time></trkpt><trkpt lat="43.6114317" lon="11.192085"><ele>146.0</ele><time>2026-04-25T15:52:42.724Z</time></trkpt><trkpt lat="43.611625" lon="11.1919483"><ele>145.0</ele><time>2026-04-25T15:52:43.725Z</time></trkpt><trkpt lat="43.6118217" lon="11.1918167"><ele>145.0</ele><time>2026-04-25T15:52:44.723Z</time></trkpt><trkpt lat="43.6120133" lon="11.1916833"><ele>145.0</ele><time>2026-04-25T15:52:45.724Z</time></trkpt><trkpt lat="43.6122117" lon="11.1915583"><ele>145.0</ele><time>2026-04-25T15:52:46.723Z</time></trkpt><trkpt lat="43.6124067" lon="11.19145"><ele>145.0</ele><time>2026-04-25T15:52:47.725Z</time></trkpt><trkpt lat="43.6126033" lon="11.191365"><ele>145.0</ele><time>2026-04-25T15:52:48.724Z</time></trkpt><trkpt lat="43.6127983" lon="11.1913017"><ele>145.0</ele><time>2026-04-25T15:52:49.724Z</time></trkpt><trkpt lat="43.6129983" lon="11.191255"><ele>145.33333333333334</ele><time>2026-04-25T15:52:50.725Z</time></trkpt><trkpt lat="43.6132033" lon="11.191215"><ele>145.66666666666666</ele><time>2026-04-25T15:52:51.724Z</time></trkpt><trkpt lat="43.6134133" lon="11.1911667"><ele>146.0</ele><time>2026-04-25T15:52:52.725Z</time></trkpt><trkpt lat="43.6136233" lon="11.1911017"><ele>147.33333333333331</ele><time>2026-04-25T15:52:53.725Z</time></trkpt><trkpt lat="43.6138317" lon="11.1910167"><ele>148.66666666666666</ele><time>2026-04-25T15:52:54.723Z</time></trkpt><trkpt lat="43.6140333" lon="11.190925"><ele>150.0</ele><time>2026-04-25T15:52:55.724Z</time></trkpt><trkpt lat="43.6142267" lon="11.190835"><ele>150.0</ele><time>2026-04-25T15:52:56.725Z</time></trkpt><trkpt lat="43.61441" lon="11.1907517"><ele>150.0</ele><time>2026-04-25T15:52:57.724Z</time></trkpt><trkpt lat="43.614585" lon="11.190675"><ele>150.0</ele><time>2026-04-25T15:52:58.724Z</time></trkpt><trkpt lat="43.61476" lon="11.190605"><ele>148.33333333333334</ele><time>2026-04-25T15:52:59.724Z</time></trkpt><trkpt lat="43.6149367" lon="11.190545"><ele>146.66666666666669</ele><time>2026-04-25T15:53:00.722Z</time></trkpt><trkpt lat="43.6151167" lon="11.1904933"><ele>145.0</ele><time>2026-04-25T15:53:01.723Z</time></trkpt><trkpt lat="43.6152967" lon="11.19045"><ele>146.66666666666669</ele><time>2026-04-25T15:53:02.725Z</time></trkpt><trkpt lat="43.6154733" lon="11.1904"><ele>148.33333333333334</ele><time>2026-04-25T15:53:03.724Z</time></trkpt><trkpt lat="43.615645" lon="11.190345"><ele>150.0</ele><time>2026-04-25T15:53:04.726Z</time></trkpt><trkpt lat="43.6158033" lon="11.19029"><ele>150.0</ele><time>2026-04-25T15:53:05.723Z</time></trkpt><trkpt lat="43.61594" lon="11.1902283"><ele>150.0</ele><time>2026-04-25T15:53:06.724Z</time></trkpt><trkpt lat="43.616065" lon="11.1901633"><ele>150.0</ele><time>2026-04-25T15:53:07.723Z</time></trkpt><trkpt lat="43.616195" lon="11.190105"><ele>150.0</ele><time>2026-04-25T15:53:08.723Z</time></trkpt><trkpt lat="43.616325" lon="11.19004"><ele>150.0</ele><time>2026-04-25T15:53:09.723Z</time></trkpt><trkpt lat="43.61645" lon="11.18996"><ele>150.0</ele><time>2026-04-25T15:53:10.723Z</time></trkpt><trkpt lat="43.6165733" lon="11.18987"><ele>150.0</ele><time>2026-04-25T15:53:11.723Z</time></trkpt><trkpt lat="43.6166867" lon="11.1897833"><ele>150.0</ele><time>2026-04-25T15:53:12.724Z</time></trkpt><trkpt lat="43.6167867" lon="11.1896967"><ele>150.0</ele><time>2026-04-25T15:53:13.725Z</time></trkpt><trkpt lat="43.6168883" lon="11.189605"><ele>150.0</ele><time>2026-04-25T15:53:14.725Z</time></trkpt><trkpt lat="43.6170017" lon="11.1895117"><ele>150.0</ele><time>2026-04-25T15:53:15.724Z</time></trkpt><trkpt lat="43.6171283" lon="11.18941"><ele>150.0</ele><time>2026-04-25T15:53:16.723Z</time></trkpt><trkpt lat="43.6172733" lon="11.1893033"><ele>149.33333333333334</ele><time>2026-04-25T15:53:17.722Z</time></trkpt><trkpt lat="43.61743" lon="11.1892083"><ele>148.66666666666669</ele><time>2026-04-25T15:53:18.725Z</time></trkpt><trkpt lat="43.6175967" lon="11.1891267"><ele>148.0</ele><time>2026-04-25T15:53:19.725Z</time></trkpt><trkpt lat="43.6177717" lon="11.189055"><ele>145.66666666666669</ele><time>2026-04-25T15:53:20.725Z</time></trkpt><trkpt lat="43.61795" lon="11.1889833"><ele>143.33333333333334</ele><time>2026-04-25T15:53:21.725Z</time></trkpt><trkpt lat="43.6181317" lon="11.188905"><ele>141.0</ele><time>2026-04-25T15:53:22.724Z</time></trkpt><trkpt lat="43.6183167" lon="11.1888233"><ele>141.0</ele><time>2026-04-25T15:53:23.723Z</time></trkpt><trkpt lat="43.6185083" lon="11.188745"><ele>141.0</ele><time>2026-04-25T15:53:24.723Z</time></trkpt><trkpt lat="43.6186983" lon="11.188665"><ele>141.0</ele><time>2026-04-25T15:53:25.725Z</time></trkpt><trkpt lat="43.61889" lon="11.1885817"><ele>141.33333333333334</ele><time>2026-04-25T15:53:26.725Z</time></trkpt><trkpt lat="43.6190617" lon="11.188475"><ele>141.66666666666669</ele><time>2026-04-25T15:53:27.724Z</time></trkpt><trkpt lat="43.61922" lon="11.1883683"><ele>142.0</ele><time>2026-04-25T15:53:28.726Z</time></trkpt><trkpt lat="43.6193467" lon="11.1882333"><ele>142.0</ele><time>2026-04-25T15:53:29.725Z</time></trkpt><trkpt lat="43.6194567" lon="11.1880917"><ele>142.0</ele><time>2026-04-25T15:53:30.724Z</time></trkpt><trkpt lat="43.6195567" lon="11.187955"><ele>142.0</ele><time>2026-04-25T15:53:31.724Z</time></trkpt><trkpt lat="43.6196533" lon="11.1878283"><ele>142.0</ele><time>2026-04-25T15:53:32.725Z</time></trkpt><trkpt lat="43.61976" lon="11.187715"><ele>142.0</ele><time>2026-04-25T15:53:33.724Z</time></trkpt><trkpt lat="43.6198717" lon="11.1876167"><ele>142.0</ele><time>2026-04-25T15:53:34.724Z</time></trkpt><trkpt lat="43.619985" lon="11.1875383"><ele>142.0</ele><time>2026-04-25T15:53:35.722Z</time></trkpt><trkpt lat="43.6201" lon="11.1874717"><ele>142.0</ele><time>2026-04-25T15:53:36.724Z</time></trkpt><trkpt lat="43.6202367" lon="11.18741"><ele>143.33333333333334</ele><time>2026-04-25T15:53:37.725Z</time></trkpt><trkpt lat="43.620395" lon="11.187355"><ele>144.66666666666666</ele><time>2026-04-25T15:53:38.724Z</time></trkpt><trkpt lat="43.6205683" lon="11.1873033"><ele>146.0</ele><time>2026-04-25T15:53:39.724Z</time></trkpt><trkpt lat="43.6207633" lon="11.1872483"><ele>143.33333333333331</ele><time>2026-04-25T15:53:40.724Z</time></trkpt><trkpt lat="43.6209633" lon="11.1871933"><ele>140.66666666666666</ele><time>2026-04-25T15:53:41.722Z</time></trkpt><trkpt lat="43.621165" lon="11.187135"><ele>138.0</ele><time>2026-04-25T15:53:42.725Z</time></trkpt><trkpt lat="43.62137" lon="11.1870733"><ele>138.0</ele><time>2026-04-25T15:53:43.725Z</time></trkpt><trkpt lat="43.621575" lon="11.1870117"><ele>138.0</ele><time>2026-04-25T15:53:44.725Z</time></trkpt><trkpt lat="43.6217767" lon="11.18695"><ele>138.0</ele><time>2026-04-25T15:53:45.724Z</time></trkpt><trkpt lat="43.6219717" lon="11.1868733"><ele>140.66666666666666</ele><time>2026-04-25T15:53:46.725Z</time></trkpt><trkpt lat="43.6221667" lon="11.1867783"><ele>143.33333333333331</ele><time>2026-04-25T15:53:47.725Z</time></trkpt><trkpt lat="43.622365" lon="11.18667"><ele>146.0</ele><time>2026-04-25T15:53:48.724Z</time></trkpt><trkpt lat="43.6225733" lon="11.186565"><ele>144.5</ele><time>2026-04-25T15:53:49.725Z</time></trkpt><trkpt lat="43.622785" lon="11.1864683"><ele>143.0</ele><time>2026-04-25T15:53:50.724Z</time></trkpt><trkpt lat="43.622995" lon="11.18635"><ele>143.0</ele><time>2026-04-25T15:53:51.724Z</time></trkpt><trkpt lat="43.6231967" lon="11.1862067"><ele>143.0</ele><time>2026-04-25T15:53:52.724Z</time></trkpt><trkpt lat="43.6233917" lon="11.18605"><ele>143.0</ele><time>2026-04-25T15:53:53.724Z</time></trkpt><trkpt lat="43.623585" lon="11.18589"><ele>143.0</ele><time>2026-04-25T15:53:54.725Z</time></trkpt><trkpt lat="43.6237633" lon="11.1857283"><ele>143.0</ele><time>2026-04-25T15:53:55.724Z</time></trkpt><trkpt lat="43.6239417" lon="11.1855883"><ele>143.66666666666666</ele><time>2026-04-25T15:53:56.724Z</time></trkpt><trkpt lat="43.6241233" lon="11.18549"><ele>144.33333333333334</ele><time>2026-04-25T15:53:57.724Z</time></trkpt><trkpt lat="43.6242983" lon="11.185425"><ele>145.0</ele><time>2026-04-25T15:53:58.725Z</time></trkpt><trkpt lat="43.62446" lon="11.1853633"><ele>146.33333333333334</ele><time>2026-04-25T15:53:59.725Z</time></trkpt><trkpt lat="43.6246167" lon="11.1852783"><ele>147.66666666666666</ele><time>2026-04-25T15:54:00.723Z</time></trkpt><trkpt lat="43.624765" lon="11.185165"><ele>149.0</ele><time>2026-04-25T15:54:01.724Z</time></trkpt><trkpt lat="43.6249083" lon="11.185025"><ele>149.0</ele><time>2026-04-25T15:54:02.725Z</time></trkpt><trkpt lat="43.6250617" lon="11.1848683"><ele>149.0</ele><time>2026-04-25T15:54:03.723Z</time></trkpt><trkpt lat="43.6252283" lon="11.1847083"><ele>149.0</ele><time>2026-04-25T15:54:04.725Z</time></trkpt><trkpt lat="43.625405" lon="11.18456"><ele>146.33333333333331</ele><time>2026-04-25T15:54:05.723Z</time></trkpt><trkpt lat="43.6255867" lon="11.18442"><ele>143.66666666666666</ele><time>2026-04-25T15:54:06.724Z</time></trkpt><trkpt lat="43.6257833" lon="11.184305"><ele>141.0</ele><time>2026-04-25T15:54:07.724Z</time></trkpt><trkpt lat="43.625985" lon="11.184215"><ele>141.0</ele><time>2026-04-25T15:54:08.725Z</time></trkpt><trkpt lat="43.6261833" lon="11.1841467"><ele>141.0</ele><time>2026-04-25T15:54:09.724Z</time></trkpt><trkpt lat="43.6263833" lon="11.1840817"><ele>141.0</ele><time>2026-04-25T15:54:10.724Z</time></trkpt><trkpt lat="43.62658" lon="11.184015"><ele>140.0</ele><time>2026-04-25T15:54:11.725Z</time></trkpt><trkpt lat="43.6267717" lon="11.18395"><ele>139.0</ele><time>2026-04-25T15:54:12.724Z</time></trkpt><trkpt lat="43.6269617" lon="11.183885"><ele>138.0</ele><time>2026-04-25T15:54:13.724Z</time></trkpt><trkpt lat="43.627145" lon="11.1838183"><ele>138.0</ele><time>2026-04-25T15:54:14.724Z</time></trkpt><trkpt lat="43.627325" lon="11.1837317"><ele>138.0</ele><time>2026-04-25T15:54:15.725Z</time></trkpt><trkpt lat="43.6275" lon="11.18362"><ele>138.0</ele><time>2026-04-25T15:54:16.723Z</time></trkpt><trkpt lat="43.6276617" lon="11.1834767"><ele>138.0</ele><time>2026-04-25T15:54:17.724Z</time></trkpt><trkpt lat="43.6278183" lon="11.1833117"><ele>138.0</ele><time>2026-04-25T15:54:18.724Z</time></trkpt><trkpt lat="43.6279733" lon="11.18314"><ele>138.0</ele><time>2026-04-25T15:54:19.725Z</time></trkpt><trkpt lat="43.6281233" lon="11.1829417"><ele>136.33333333333334</ele><time>2026-04-25T15:54:20.726Z</time></trkpt><trkpt lat="43.628265" lon="11.1827333"><ele>134.66666666666669</ele><time>2026-04-25T15:54:21.724Z</time></trkpt><trkpt lat="43.6284083" lon="11.18253"><ele>133.0</ele><time>2026-04-25T15:54:22.724Z</time></trkpt><trkpt lat="43.6285517" lon="11.1823467"><ele>132.0</ele><time>2026-04-25T15:54:23.723Z</time></trkpt><trkpt lat="43.62871" lon="11.182195"><ele>131.0</ele><time>2026-04-25T15:54:24.724Z</time></trkpt><trkpt lat="43.6288817" lon="11.182095"><ele>130.0</ele><time>2026-04-25T15:54:25.725Z</time></trkpt><trkpt lat="43.629075" lon="11.1820417"><ele>130.0</ele><time>2026-04-25T15:54:26.723Z</time></trkpt><trkpt lat="43.6292683" lon="11.18201"><ele>130.0</ele><time>2026-04-25T15:54:27.724Z</time></trkpt><trkpt lat="43.6294517" lon="11.1819717"><ele>130.0</ele><time>2026-04-25T15:54:28.724Z</time></trkpt><trkpt lat="43.62962" lon="11.1818917"><ele>130.66666666666669</ele><time>2026-04-25T15:54:29.725Z</time></trkpt><trkpt lat="43.6297733" lon="11.1817883"><ele>131.33333333333334</ele><time>2026-04-25T15:54:30.724Z</time></trkpt><trkpt lat="43.6299117" lon="11.1816733"><ele>132.0</ele><time>2026-04-25T15:54:31.724Z</time></trkpt><trkpt lat="43.6300617" lon="11.181565"><ele>131.0</ele><time>2026-04-25T15:54:32.725Z</time></trkpt><trkpt lat="43.6302267" lon="11.1814633"><ele>130.0</ele><time>2026-04-25T15:54:33.724Z</time></trkpt><trkpt lat="43.63041" lon="11.1813667"><ele>129.0</ele><time>2026-04-25T15:54:34.725Z</time></trkpt><trkpt lat="43.630615" lon="11.1812783"><ele>128.66666666666666</ele><time>2026-04-25T15:54:35.724Z</time></trkpt><trkpt lat="43.6308317" lon="11.1812067"><ele>128.33333333333331</ele><time>2026-04-25T15:54:36.724Z</time></trkpt><trkpt lat="43.63105" lon="11.1811333"><ele>128.0</ele><time>2026-04-25T15:54:37.724Z</time></trkpt><trkpt lat="43.6312667" lon="11.1810433"><ele>128.0</ele><time>2026-04-25T15:54:38.723Z</time></trkpt><trkpt lat="43.6314817" lon="11.1809267"><ele>128.0</ele><time>2026-04-25T15:54:39.724Z</time></trkpt><trkpt lat="43.6316883" lon="11.1807983"><ele>128.0</ele><time>2026-04-25T15:54:40.725Z</time></trkpt><trkpt lat="43.6318867" lon="11.180675"><ele>128.0</ele><time>2026-04-25T15:54:41.724Z</time></trkpt><trkpt lat="43.6320767" lon="11.180565"><ele>128.0</ele><time>2026-04-25T15:54:42.724Z</time></trkpt><trkpt lat="43.6322583" lon="11.180465"><ele>128.33333333333331</ele><time>2026-04-25T15:54:43.723Z</time></trkpt><trkpt lat="43.6324283" lon="11.18037"><ele>128.66666666666666</ele><time>2026-04-25T15:54:44.725Z</time></trkpt><trkpt lat="43.632595" lon="11.180285"><ele>129.0</ele><time>2026-04-25T15:54:45.725Z</time></trkpt><trkpt lat="43.6327567" lon="11.1801967"><ele>129.0</ele><time>2026-04-25T15:54:46.723Z</time></trkpt><trkpt lat="43.6329033" lon="11.180105"><ele>129.0</ele><time>2026-04-25T15:54:47.725Z</time></trkpt><trkpt lat="43.633025" lon="11.1800017"><ele>129.0</ele><time>2026-04-25T15:54:48.724Z</time></trkpt><trkpt lat="43.6331483" lon="11.179895"><ele>129.0</ele><time>2026-04-25T15:54:49.723Z</time></trkpt><trkpt lat="43.6332617" lon="11.1797767"><ele>129.0</ele><time>2026-04-25T15:54:50.726Z</time></trkpt><trkpt lat="43.6333633" lon="11.1796617"><ele>129.0</ele><time>2026-04-25T15:54:51.724Z</time></trkpt><trkpt lat="43.63345" lon="11.1795517"><ele>129.0</ele><time>2026-04-25T15:54:52.724Z</time></trkpt><trkpt lat="43.6335317" lon="11.17945"><ele>129.0</ele><time>2026-04-25T15:54:53.724Z</time></trkpt><trkpt lat="43.6336167" lon="11.1793517"><ele>129.25</ele><time>2026-04-25T15:54:54.724Z</time></trkpt><trkpt lat="43.6337083" lon="11.1792583"><ele>129.5</ele><time>2026-04-25T15:54:55.724Z</time></trkpt><trkpt lat="43.6338117" lon="11.1791767"><ele>129.75</ele><time>2026-04-25T15:54:56.724Z</time></trkpt><trkpt lat="43.633925" lon="11.1791033"><ele>130.0</ele><time>2026-04-25T15:54:57.725Z</time></trkpt><trkpt lat="43.6340433" lon="11.1790383"><ele>129.75</ele><time>2026-04-25T15:54:58.724Z</time></trkpt><trkpt lat="43.6341633" lon="11.1789733"><ele>129.5</ele><time>2026-04-25T15:54:59.723Z</time></trkpt><trkpt lat="43.6342767" lon="11.1789067"><ele>129.25</ele><time>2026-04-25T15:55:00.724Z</time></trkpt><trkpt lat="43.6343933" lon="11.1788417"><ele>129.0</ele><time>2026-04-25T15:55:01.725Z</time></trkpt><trkpt lat="43.6345017" lon="11.1787833"><ele>128.75</ele><time>2026-04-25T15:55:02.724Z</time></trkpt><trkpt lat="43.634615" lon="11.1787383"><ele>128.5</ele><time>2026-04-25T15:55:03.724Z</time></trkpt><trkpt lat="43.63474" lon="11.1787083"><ele>128.25</ele><time>2026-04-25T15:55:04.724Z</time></trkpt><trkpt lat="43.63488" lon="11.1786967"><ele>128.0</ele><time>2026-04-25T15:55:05.725Z</time></trkpt><trkpt lat="43.63504" lon="11.17869"><ele>128.0</ele><time>2026-04-25T15:55:06.725Z</time></trkpt><trkpt lat="43.6352133" lon="11.1787017"><ele>128.0</ele><time>2026-04-25T15:55:07.725Z</time></trkpt><trkpt lat="43.6354017" lon="11.17874"><ele>128.0</ele><time>2026-04-25T15:55:08.724Z</time></trkpt><trkpt lat="43.6355933" lon="11.1788"><ele>128.66666666666666</ele><time>2026-04-25T15:55:09.723Z</time></trkpt><trkpt lat="43.6357783" lon="11.1788667"><ele>129.33333333333334</ele><time>2026-04-25T15:55:10.724Z</time></trkpt><trkpt lat="43.6359633" lon="11.1789183"><ele>130.0</ele><time>2026-04-25T15:55:11.724Z</time></trkpt><trkpt lat="43.6361533" lon="11.1789283"><ele>132.33333333333334</ele><time>2026-04-25T15:55:12.725Z</time></trkpt><trkpt lat="43.6363417" lon="11.1788783"><ele>134.66666666666666</ele><time>2026-04-25T15:55:13.726Z</time></trkpt><trkpt lat="43.636525" lon="11.178775"><ele>137.0</ele><time>2026-04-25T15:55:14.725Z</time></trkpt><trkpt lat="43.6367017" lon="11.17862"><ele>137.0</ele><time>2026-04-25T15:55:15.725Z</time></trkpt><trkpt lat="43.6368783" lon="11.178445"><ele>137.0</ele><time>2026-04-25T15:55:16.725Z</time></trkpt><trkpt lat="43.63705" lon="11.1782733"><ele>137.0</ele><time>2026-04-25T15:55:17.726Z</time></trkpt><trkpt lat="43.637205" lon="11.17808"><ele>137.33333333333331</ele><time>2026-04-25T15:55:18.723Z</time></trkpt><trkpt lat="43.6373383" lon="11.1778567"><ele>137.66666666666666</ele><time>2026-04-25T15:55:19.723Z</time></trkpt><trkpt lat="43.63745" lon="11.1775933"><ele>138.0</ele><time>2026-04-25T15:55:20.725Z</time></trkpt><trkpt lat="43.6375483" lon="11.17731"><ele>138.0</ele><time>2026-04-25T15:55:21.724Z</time></trkpt><trkpt lat="43.6376517" lon="11.1770333"><ele>138.0</ele><time>2026-04-25T15:55:22.725Z</time></trkpt><trkpt lat="43.63778" lon="11.1767867"><ele>138.0</ele><time>2026-04-25T15:55:23.725Z</time></trkpt><trkpt lat="43.6379367" lon="11.1765617"><ele>141.5</ele><time>2026-04-25T15:55:24.725Z</time></trkpt><trkpt lat="43.6381083" lon="11.176345"><ele>145.0</ele><time>2026-04-25T15:55:25.725Z</time></trkpt><trkpt lat="43.6382967" lon="11.1761433"><ele>145.0</ele><time>2026-04-25T15:55:26.726Z</time></trkpt><trkpt lat="43.6384867" lon="11.1759717"><ele>145.0</ele><time>2026-04-25T15:55:27.723Z</time></trkpt><trkpt lat="43.6386733" lon="11.17583"><ele>145.0</ele><time>2026-04-25T15:55:28.724Z</time></trkpt><trkpt lat="43.63887" lon="11.1757117"><ele>145.0</ele><time>2026-04-25T15:55:29.725Z</time></trkpt><trkpt lat="43.6390617" lon="11.1756233"><ele>145.0</ele><time>2026-04-25T15:55:30.724Z</time></trkpt><trkpt lat="43.6392467" lon="11.1755883"><ele>145.0</ele><time>2026-04-25T15:55:31.724Z</time></trkpt><trkpt lat="43.639425" lon="11.1756167"><ele>147.66666666666669</ele><time>2026-04-25T15:55:32.725Z</time></trkpt><trkpt lat="43.6395933" lon="11.1757067"><ele>150.33333333333334</ele><time>2026-04-25T15:55:33.724Z</time></trkpt><trkpt lat="43.6397517" lon="11.175855"><ele>153.0</ele><time>2026-04-25T15:55:34.724Z</time></trkpt><trkpt lat="43.63991" lon="11.17605"><ele>153.0</ele><time>2026-04-25T15:55:35.724Z</time></trkpt><trkpt lat="43.6400733" lon="11.1762767"><ele>153.0</ele><time>2026-04-25T15:55:36.725Z</time></trkpt><trkpt lat="43.6402283" lon="11.1764833"><ele>153.0</ele><time>2026-04-25T15:55:37.724Z</time></trkpt><trkpt lat="43.6403783" lon="11.1766567"><ele>155.25</ele><time>2026-04-25T15:55:38.725Z</time></trkpt><trkpt lat="43.6405217" lon="11.1767617"><ele>157.5</ele><time>2026-04-25T15:55:39.725Z</time></trkpt><trkpt lat="43.640665" lon="11.1767867"><ele>159.75</ele><time>2026-04-25T15:55:40.725Z</time></trkpt><trkpt lat="43.6407933" lon="11.1767467"><ele>162.0</ele><time>2026-04-25T15:55:41.725Z</time></trkpt><trkpt lat="43.6409017" lon="11.176645"><ele>162.0</ele><time>2026-04-25T15:55:42.725Z</time></trkpt><trkpt lat="43.6409767" lon="11.1765067"><ele>162.0</ele><time>2026-04-25T15:55:43.726Z</time></trkpt><trkpt lat="43.6410117" lon="11.1762833"><ele>162.0</ele><time>2026-04-25T15:55:44.725Z</time></trkpt><trkpt lat="43.641015" lon="11.1759917"><ele>162.0</ele><time>2026-04-25T15:55:45.725Z</time></trkpt><trkpt lat="43.64101" lon="11.1757217"><ele>162.0</ele><time>2026-04-25T15:55:46.725Z</time></trkpt><trkpt lat="43.640975" lon="11.1754667"><ele>162.0</ele><time>2026-04-25T15:55:47.725Z</time></trkpt><trkpt lat="43.640905" lon="11.175225"><ele>162.0</ele><time>2026-04-25T15:55:48.725Z</time></trkpt><trkpt lat="43.6408233" lon="11.1750167"><ele>162.0</ele><time>2026-04-25T15:55:49.724Z</time></trkpt><trkpt lat="43.6407667" lon="11.1748333"><ele>162.0</ele><time>2026-04-25T15:55:50.724Z</time></trkpt><trkpt lat="43.6407583" lon="11.1746683"><ele>162.0</ele><time>2026-04-25T15:55:51.723Z</time></trkpt><trkpt lat="43.6408067" lon="11.1745233"><ele>162.0</ele><time>2026-04-25T15:55:52.724Z</time></trkpt><trkpt lat="43.6409033" lon="11.1744067"><ele>162.0</ele><time>2026-04-25T15:55:53.724Z</time></trkpt><trkpt lat="43.6410433" lon="11.1743167"><ele>162.0</ele><time>2026-04-25T15:55:54.723Z</time></trkpt><trkpt lat="43.6412167" lon="11.1742717"><ele>163.0</ele><time>2026-04-25T15:55:55.725Z</time></trkpt><trkpt lat="43.64138" lon="11.17426"><ele>164.0</ele><time>2026-04-25T15:55:56.725Z</time></trkpt><trkpt lat="43.64152" lon="11.174315"><ele>165.0</ele><time>2026-04-25T15:55:57.723Z</time></trkpt><trkpt lat="43.641645" lon="11.1744433"><ele>165.0</ele><time>2026-04-25T15:55:58.725Z</time></trkpt><trkpt lat="43.6417717" lon="11.1746333"><ele>165.0</ele><time>2026-04-25T15:55:59.724Z</time></trkpt><trkpt lat="43.641895" lon="11.17487"><ele>165.0</ele><time>2026-04-25T15:56:00.724Z</time></trkpt><trkpt lat="43.6420233" lon="11.1751283"><ele>164.66666666666666</ele><time>2026-04-25T15:56:01.725Z</time></trkpt><trkpt lat="43.642145" lon="11.17539"><ele>164.33333333333331</ele><time>2026-04-25T15:56:02.725Z</time></trkpt><trkpt lat="43.64226" lon="11.1756533"><ele>164.0</ele><time>2026-04-25T15:56:03.725Z</time></trkpt><trkpt lat="43.6423567" lon="11.175935"><ele>167.66666666666666</ele><time>2026-04-25T15:56:04.725Z</time></trkpt><trkpt lat="43.6424333" lon="11.1762283"><ele>171.33333333333334</ele><time>2026-04-25T15:56:05.726Z</time></trkpt><trkpt lat="43.6425" lon="11.1765217"><ele>175.0</ele><time>2026-04-25T15:56:06.724Z</time></trkpt><trkpt lat="43.6425683" lon="11.176805"><ele>177.33333333333334</ele><time>2026-04-25T15:56:07.726Z</time></trkpt><trkpt lat="43.6426617" lon="11.177045"><ele>179.66666666666666</ele><time>2026-04-25T15:56:08.725Z</time></trkpt><trkpt lat="43.6427783" lon="11.177285"><ele>182.0</ele><time>2026-04-25T15:56:09.724Z</time></trkpt><trkpt lat="43.6429117" lon="11.1774817"><ele>182.0</ele><time>2026-04-25T15:56:10.725Z</time></trkpt><trkpt lat="43.6430483" lon="11.1776733"><ele>182.0</ele><time>2026-04-25T15:56:11.724Z</time></trkpt><trkpt lat="43.6431833" lon="11.177875"><ele>182.0</ele><time>2026-04-25T15:56:12.724Z</time></trkpt><trkpt lat="43.643315" lon="11.17808"><ele>183.33333333333331</ele><time>2026-04-25T15:56:13.725Z</time></trkpt><trkpt lat="43.6434583" lon="11.1783"><ele>184.66666666666666</ele><time>2026-04-25T15:56:14.724Z</time></trkpt><trkpt lat="43.64361" lon="11.1785283"><ele>186.0</ele><time>2026-04-25T15:56:15.724Z</time></trkpt><trkpt lat="43.6437783" lon="11.1787633"><ele>186.0</ele><time>2026-04-25T15:56:16.725Z</time></trkpt><trkpt lat="43.6439567" lon="11.1790133"><ele>186.0</ele><time>2026-04-25T15:56:17.724Z</time></trkpt><trkpt lat="43.6441367" lon="11.1792683"><ele>189.5</ele><time>2026-04-25T15:56:18.724Z</time></trkpt><trkpt lat="43.6443183" lon="11.1795233"><ele>193.0</ele><time>2026-04-25T15:56:19.724Z</time></trkpt><trkpt lat="43.6445" lon="11.1797767"><ele>198.5</ele><time>2026-04-25T15:56:20.725Z</time></trkpt><trkpt lat="43.6446867" lon="11.1799933"><ele>204.0</ele><time>2026-04-25T15:56:21.723Z</time></trkpt><trkpt lat="43.6448867" lon="11.1801533"><ele>204.0</ele><time>2026-04-25T15:56:22.723Z</time></trkpt><trkpt lat="43.6450983" lon="11.18027"><ele>204.0</ele><time>2026-04-25T15:56:23.723Z</time></trkpt><trkpt lat="43.6453" lon="11.180375"><ele>204.0</ele><time>2026-04-25T15:56:24.723Z</time></trkpt><trkpt lat="43.645485" lon="11.180505"><ele>207.0</ele><time>2026-04-25T15:56:25.722Z</time></trkpt><trkpt lat="43.6456517" lon="11.1806833"><ele>210.0</ele><time>2026-04-25T15:56:26.723Z</time></trkpt><trkpt lat="43.6458117" lon="11.18089"><ele>213.0</ele><time>2026-04-25T15:56:27.723Z</time></trkpt><trkpt lat="43.6459933" lon="11.1810783"><ele>207.5</ele><time>2026-04-25T15:56:28.723Z</time></trkpt><trkpt lat="43.6461983" lon="11.1812767"><ele>202.0</ele><time>2026-04-25T15:56:29.725Z</time></trkpt><trkpt lat="43.6464017" lon="11.181485"><ele>210.5</ele><time>2026-04-25T15:56:30.724Z</time></trkpt><trkpt lat="43.6465867" lon="11.1817133"><ele>219.0</ele><time>2026-04-25T15:56:31.724Z</time></trkpt><trkpt lat="43.6467517" lon="11.1819383"><ele>219.0</ele><time>2026-04-25T15:56:32.725Z</time></trkpt><trkpt lat="43.6469233" lon="11.1821383"><ele>219.0</ele><time>2026-04-25T15:56:33.724Z</time></trkpt><trkpt lat="43.6471183" lon="11.1822833"><ele>219.0</ele><time>2026-04-25T15:56:34.724Z</time></trkpt><trkpt lat="43.6473267" lon="11.1824067"><ele>221.0</ele><time>2026-04-25T15:56:35.723Z</time></trkpt><trkpt lat="43.647515" lon="11.1825367"><ele>223.0</ele><time>2026-04-25T15:56:36.724Z</time></trkpt><trkpt lat="43.6476833" lon="11.1827017"><ele>225.0</ele><time>2026-04-25T15:56:37.724Z</time></trkpt><trkpt lat="43.6478433" lon="11.1828967"><ele>224.0</ele><time>2026-04-25T15:56:38.724Z</time></trkpt><trkpt lat="43.6479967" lon="11.1831117"><ele>223.0</ele><time>2026-04-25T15:56:39.724Z</time></trkpt><trkpt lat="43.6481617" lon="11.1833633"><ele>223.0</ele><time>2026-04-25T15:56:40.724Z</time></trkpt><trkpt lat="43.6483217" lon="11.1836067"><ele>223.0</ele><time>2026-04-25T15:56:41.723Z</time></trkpt><trkpt lat="43.6484633" lon="11.1838433"><ele>220.66666666666666</ele><time>2026-04-25T15:56:42.724Z</time></trkpt><trkpt lat="43.648575" lon="11.1840983"><ele>218.33333333333331</ele><time>2026-04-25T15:56:43.725Z</time></trkpt><trkpt lat="43.6486533" lon="11.18437"><ele>216.0</ele><time>2026-04-25T15:56:44.724Z</time></trkpt><trkpt lat="43.6487067" lon="11.18468"><ele>219.66666666666669</ele><time>2026-04-25T15:56:45.724Z</time></trkpt><trkpt lat="43.6487517" lon="11.1849683"><ele>223.33333333333334</ele><time>2026-04-25T15:56:46.724Z</time></trkpt><trkpt lat="43.6488117" lon="11.1852517"><ele>227.0</ele><time>2026-04-25T15:56:47.724Z</time></trkpt><trkpt lat="43.6488983" lon="11.1855333"><ele>231.0</ele><time>2026-04-25T15:56:48.723Z</time></trkpt><trkpt lat="43.64901" lon="11.1857667"><ele>235.0</ele><time>2026-04-25T15:56:49.723Z</time></trkpt><trkpt lat="43.6491017" lon="11.1860083"><ele>239.0</ele><time>2026-04-25T15:56:50.724Z</time></trkpt><trkpt lat="43.64916" lon="11.1862617"><ele>241.66666666666669</ele><time>2026-04-25T15:56:51.723Z</time></trkpt><trkpt lat="43.64918" lon="11.1865267"><ele>244.33333333333331</ele><time>2026-04-25T15:56:52.724Z</time></trkpt><trkpt lat="43.64919" lon="11.186815"><ele>247.0</ele><time>2026-04-25T15:56:53.725Z</time></trkpt><trkpt lat="43.6492" lon="11.1871017"><ele>248.66666666666666</ele><time>2026-04-25T15:56:54.724Z</time></trkpt><trkpt lat="43.6492267" lon="11.1873617"><ele>250.33333333333331</ele><time>2026-04-25T15:56:55.724Z</time></trkpt><trkpt lat="43.6492933" lon="11.1876067"><ele>252.0</ele><time>2026-04-25T15:56:56.723Z</time></trkpt><trkpt lat="43.6493617" lon="11.187835"><ele>249.66666666666669</ele><time>2026-04-25T15:56:57.724Z</time></trkpt><trkpt lat="43.6494733" lon="11.1880417"><ele>247.33333333333334</ele><time>2026-04-25T15:56:58.724Z</time></trkpt><trkpt lat="43.649595" lon="11.18826"><ele>245.0</ele><time>2026-04-25T15:56:59.724Z</time></trkpt><trkpt lat="43.6497217" lon="11.1885067"><ele>245.0</ele><time>2026-04-25T15:57:00.723Z</time></trkpt><trkpt lat="43.649835" lon="11.18876"><ele>245.0</ele><time>2026-04-25T15:57:01.724Z</time></trkpt><trkpt lat="43.6499367" lon="11.189035"><ele>245.0</ele><time>2026-04-25T15:57:02.723Z</time></trkpt><trkpt lat="43.6500383" lon="11.1893033"><ele>245.0</ele><time>2026-04-25T15:57:03.723Z</time></trkpt><trkpt lat="43.650145" lon="11.189565"><ele>245.0</ele><time>2026-04-25T15:57:04.724Z</time></trkpt><trkpt lat="43.650245" lon="11.1898383"><ele>245.0</ele><time>2026-04-25T15:57:05.724Z</time></trkpt><trkpt lat="43.6503283" lon="11.190115"><ele>245.0</ele><time>2026-04-25T15:57:06.724Z</time></trkpt><trkpt lat="43.6503933" lon="11.1904183"><ele>245.0</ele><time>2026-04-25T15:57:07.725Z</time></trkpt><trkpt lat="43.650445" lon="11.1907033"><ele>245.0</ele><time>2026-04-25T15:57:08.724Z</time></trkpt><trkpt lat="43.6504983" lon="11.1909617"><ele>246.66666666666669</ele><time>2026-04-25T15:57:09.723Z</time></trkpt><trkpt lat="43.65056" lon="11.191195"><ele>248.33333333333331</ele><time>2026-04-25T15:57:10.723Z</time></trkpt><trkpt lat="43.6506283" lon="11.1913817"><ele>250.0</ele><time>2026-04-25T15:57:11.725Z</time></trkpt><trkpt lat="43.6507217" lon="11.1914983"><ele>250.0</ele><time>2026-04-25T15:57:12.723Z</time></trkpt><trkpt lat="43.6508417" lon="11.19154"><ele>250.0</ele><time>2026-04-25T15:57:13.725Z</time></trkpt><trkpt lat="43.6509833" lon="11.191475"><ele>250.0</ele><time>2026-04-25T15:57:14.724Z</time></trkpt><trkpt lat="43.6511333" lon="11.1913467"><ele>250.0</ele><time>2026-04-25T15:57:15.723Z</time></trkpt><trkpt lat="43.651295" lon="11.19124"><ele>249.66666666666666</ele><time>2026-04-25T15:57:16.723Z</time></trkpt><trkpt lat="43.651455" lon="11.1912"><ele>249.33333333333331</ele><time>2026-04-25T15:57:17.724Z</time></trkpt><trkpt lat="43.6516067" lon="11.19124"><ele>249.0</ele><time>2026-04-25T15:57:18.723Z</time></trkpt><trkpt lat="43.651745" lon="11.1913583"><ele>250.66666666666669</ele><time>2026-04-25T15:57:19.723Z</time></trkpt><trkpt lat="43.6518617" lon="11.191545"><ele>252.33333333333334</ele><time>2026-04-25T15:57:20.725Z</time></trkpt><trkpt lat="43.6519683" lon="11.191805"><ele>254.0</ele><time>2026-04-25T15:57:21.724Z</time></trkpt><trkpt lat="43.6520933" lon="11.19209"><ele>258.6666666666667</ele><time>2026-04-25T15:57:22.725Z</time></trkpt><trkpt lat="43.6522267" lon="11.192355"><ele>263.3333333333333</ele><time>2026-04-25T15:57:23.723Z</time></trkpt><trkpt lat="43.65234" lon="11.1926017"><ele>268.0</ele><time>2026-04-25T15:57:24.724Z</time></trkpt><trkpt lat="43.6524433" lon="11.19281"><ele>268.0</ele><time>2026-04-25T15:57:25.721Z</time></trkpt><trkpt lat="43.6525533" lon="11.19295"><ele>268.0</ele><time>2026-04-25T15:57:26.725Z</time></trkpt><trkpt lat="43.6526717" lon="11.1930333"><ele>268.0</ele><time>2026-04-25T15:57:27.722Z</time></trkpt><trkpt lat="43.6528217" lon="11.1930317"><ele>268.0</ele><time>2026-04-25T15:57:28.724Z</time></trkpt><trkpt lat="43.6529833" lon="11.19294"><ele>266.0</ele><time>2026-04-25T15:57:29.723Z</time></trkpt><trkpt lat="43.653135" lon="11.1927867"><ele>264.0</ele><time>2026-04-25T15:57:30.726Z</time></trkpt><trkpt lat="43.65328" lon="11.1926067"><ele>262.0</ele><time>2026-04-25T15:57:31.724Z</time></trkpt><trkpt lat="43.6534233" lon="11.1924167"><ele>261.0</ele><time>2026-04-25T15:57:32.724Z</time></trkpt><trkpt lat="43.6535467" lon="11.1922283"><ele>260.0</ele><time>2026-04-25T15:57:33.722Z</time></trkpt><trkpt lat="43.6536267" lon="11.192035"><ele>259.0</ele><time>2026-04-25T15:57:34.723Z</time></trkpt><trkpt lat="43.653665" lon="11.1918383"><ele>263.3333333333333</ele><time>2026-04-25T15:57:35.724Z</time></trkpt><trkpt lat="43.6536517" lon="11.191645"><ele>267.6666666666667</ele><time>2026-04-25T15:57:36.724Z</time></trkpt><trkpt lat="43.6535767" lon="11.19146"><ele>272.0</ele><time>2026-04-25T15:57:37.725Z</time></trkpt><trkpt lat="43.6534517" lon="11.191285"><ele>272.0</ele><time>2026-04-25T15:57:38.724Z</time></trkpt><trkpt lat="43.6533067" lon="11.191095"><ele>272.0</ele><time>2026-04-25T15:57:39.724Z</time></trkpt><trkpt lat="43.6531733" lon="11.1908867"><ele>272.0</ele><time>2026-04-25T15:57:40.724Z</time></trkpt><trkpt lat="43.6530567" lon="11.1906467"><ele>275.0</ele><time>2026-04-25T15:57:41.724Z</time></trkpt><trkpt lat="43.65298" lon="11.1903867"><ele>278.0</ele><time>2026-04-25T15:57:42.724Z</time></trkpt><trkpt lat="43.65294" lon="11.1901083"><ele>281.0</ele><time>2026-04-25T15:57:43.724Z</time></trkpt><trkpt lat="43.6529267" lon="11.1898417"><ele>282.33333333333337</ele><time>2026-04-25T15:57:44.725Z</time></trkpt><trkpt lat="43.6529183" lon="11.1896083"><ele>283.6666666666667</ele><time>2026-04-25T15:57:45.722Z</time></trkpt><trkpt lat="43.652875" lon="11.1894033"><ele>285.0</ele><time>2026-04-25T15:57:46.724Z</time></trkpt><trkpt lat="43.6528" lon="11.1892233"><ele>284.6666666666667</ele><time>2026-04-25T15:57:47.725Z</time></trkpt><trkpt lat="43.6526917" lon="11.1890867"><ele>284.33333333333337</ele><time>2026-04-25T15:57:48.723Z</time></trkpt><trkpt lat="43.6525383" lon="11.18899"><ele>284.0</ele><time>2026-04-25T15:57:49.724Z</time></trkpt><trkpt lat="43.65238" lon="11.1889"><ele>284.0</ele><time>2026-04-25T15:57:50.725Z</time></trkpt><trkpt lat="43.652245" lon="11.1888017"><ele>284.0</ele><time>2026-04-25T15:57:51.725Z</time></trkpt><trkpt lat="43.6521483" lon="11.1886783"><ele>284.0</ele><time>2026-04-25T15:57:52.722Z</time></trkpt><trkpt lat="43.65209" lon="11.18852"><ele>284.0</ele><time>2026-04-25T15:57:53.724Z</time></trkpt><trkpt lat="43.6520717" lon="11.1883517"><ele>285.25</ele><time>2026-04-25T15:57:54.724Z</time></trkpt><trkpt lat="43.652085" lon="11.1881733"><ele>286.5</ele><time>2026-04-25T15:57:55.723Z</time></trkpt><trkpt lat="43.6521167" lon="11.1879983"><ele>287.75</ele><time>2026-04-25T15:57:56.724Z</time></trkpt><trkpt lat="43.652145" lon="11.187845"><ele>289.0</ele><time>2026-04-25T15:57:57.722Z</time></trkpt><trkpt lat="43.652175" lon="11.1877067"><ele>289.0</ele><time>2026-04-25T15:57:58.724Z</time></trkpt><trkpt lat="43.652195" lon="11.1875667"><ele>289.0</ele><time>2026-04-25T15:57:59.724Z</time></trkpt><trkpt lat="43.6522167" lon="11.1874283"><ele>289.0</ele><time>2026-04-25T15:58:00.724Z</time></trkpt><trkpt lat="43.6522433" lon="11.1873033"><ele>289.0</ele><time>2026-04-25T15:58:01.723Z</time></trkpt><trkpt lat="43.6522783" lon="11.1871967"><ele>289.0</ele><time>2026-04-25T15:58:02.724Z</time></trkpt><trkpt lat="43.6523333" lon="11.187105"><ele>286.59999999999997</ele><time>2026-04-25T15:58:03.724Z</time></trkpt><trkpt lat="43.6524" lon="11.1870367"><ele>284.2</ele><time>2026-04-25T15:58:04.724Z</time></trkpt><trkpt lat="43.65248" lon="11.1869817"><ele>281.79999999999995</ele><time>2026-04-25T15:58:05.723Z</time></trkpt><trkpt lat="43.652575" lon="11.1869667"><ele>279.4</ele><time>2026-04-25T15:58:06.722Z</time></trkpt><trkpt lat="43.652675" lon="11.1869783"><ele>277.0</ele><time>2026-04-25T15:58:07.724Z</time></trkpt><trkpt lat="43.6527733" lon="11.18702"><ele>277.2</ele><time>2026-04-25T15:58:08.724Z</time></trkpt><trkpt lat="43.6528717" lon="11.1870683"><ele>277.4</ele><time>2026-04-25T15:58:09.723Z</time></trkpt><trkpt lat="43.6529617" lon="11.1871117"><ele>277.6</ele><time>2026-04-25T15:58:10.724Z</time></trkpt><trkpt lat="43.65305" lon="11.1871633"><ele>277.8</ele><time>2026-04-25T15:58:11.724Z</time></trkpt><trkpt lat="43.6531417" lon="11.1872083"><ele>278.0</ele><time>2026-04-25T15:58:12.725Z</time></trkpt><trkpt lat="43.6532383" lon="11.1872433"><ele>278.0</ele><time>2026-04-25T15:58:13.725Z</time></trkpt><trkpt lat="43.6533383" lon="11.1872667"><ele>278.0</ele><time>2026-04-25T15:58:14.723Z</time></trkpt><trkpt lat="43.6534417" lon="11.1872767"><ele>278.0</ele><time>2026-04-25T15:58:15.724Z</time></trkpt><trkpt lat="43.6535483" lon="11.1872683"><ele>278.0</ele><time>2026-04-25T15:58:16.724Z</time></trkpt><trkpt lat="43.653655" lon="11.1872383"><ele>278.0</ele><time>2026-04-25T15:58:17.723Z</time></trkpt><trkpt lat="43.6537617" lon="11.1872"><ele>279.8</ele><time>2026-04-25T15:58:18.723Z</time></trkpt><trkpt lat="43.6538683" lon="11.1871567"><ele>281.6</ele><time>2026-04-25T15:58:19.723Z</time></trkpt><trkpt lat="43.6539733" lon="11.1871067"><ele>283.4</ele><time>2026-04-25T15:58:20.722Z</time></trkpt><trkpt lat="43.6540767" lon="11.18706"><ele>285.2</ele><time>2026-04-25T15:58:21.723Z</time></trkpt><trkpt lat="43.65418" lon="11.1870183"><ele>287.0</ele><time>2026-04-25T15:58:22.725Z</time></trkpt><trkpt lat="43.6542817" lon="11.1869783"><ele>287.0</ele><time>2026-04-25T15:58:23.723Z</time></trkpt><trkpt lat="43.6543817" lon="11.1869483"><ele>287.0</ele><time>2026-04-25T15:58:24.723Z</time></trkpt><trkpt lat="43.6544767" lon="11.1869333"><ele>287.0</ele><time>2026-04-25T15:58:25.724Z</time></trkpt><trkpt lat="43.6545667" lon="11.1869367"><ele>287.0</ele><time>2026-04-25T15:58:26.724Z</time></trkpt><trkpt lat="43.6546533" lon="11.1869583"><ele>287.0</ele><time>2026-04-25T15:58:27.725Z</time></trkpt><trkpt lat="43.654735" lon="11.1869867"><ele>289.0</ele><time>2026-04-25T15:58:28.722Z</time></trkpt><trkpt lat="43.6548133" lon="11.1870217"><ele>291.0</ele><time>2026-04-25T15:58:29.723Z</time></trkpt><trkpt lat="43.6548867" lon="11.1870567"><ele>293.0</ele><time>2026-04-25T15:58:30.724Z</time></trkpt><trkpt lat="43.6549617" lon="11.187095"><ele>295.0</ele><time>2026-04-25T15:58:31.724Z</time></trkpt><trkpt lat="43.6550467" lon="11.1871383"><ele>297.0</ele><time>2026-04-25T15:58:32.724Z</time></trkpt><trkpt lat="43.6551367" lon="11.1871867"><ele>299.0</ele><time>2026-04-25T15:58:33.724Z</time></trkpt><trkpt lat="43.655225" lon="11.1872333"><ele>299.6666666666667</ele><time>2026-04-25T15:58:34.724Z</time></trkpt><trkpt lat="43.655305" lon="11.1872767"><ele>300.33333333333337</ele><time>2026-04-25T15:58:35.725Z</time></trkpt><trkpt lat="43.65537" lon="11.1873167"><ele>301.0</ele><time>2026-04-25T15:58:36.722Z</time></trkpt><trkpt lat="43.6554633" lon="11.187375"><ele>301.6666666666667</ele><time>2026-04-25T15:58:38.724Z</time></trkpt><trkpt lat="43.655525" lon="11.18742"><ele>302.3333333333333</ele><time>2026-04-25T15:58:40.723Z</time></trkpt><trkpt lat="43.655605" lon="11.1874683"><ele>303.0</ele><time>2026-04-25T15:58:42.725Z</time></trkpt><trkpt lat="43.6557183" lon="11.18745"><ele>303.0</ele><time>2026-04-25T15:58:44.724Z</time></trkpt><trkpt lat="43.6557967" lon="11.18742"><ele>303.0</ele><time>2026-04-25T15:58:45.722Z</time></trkpt><trkpt lat="43.6558817" lon="11.1874033"><ele>303.0</ele><time>2026-04-25T15:58:46.724Z</time></trkpt><trkpt lat="43.6559783" lon="11.1873867"><ele>303.0</ele><time>2026-04-25T15:58:47.723Z</time></trkpt><trkpt lat="43.6560817" lon="11.1873917"><ele>303.0</ele><time>2026-04-25T15:58:48.724Z</time></trkpt><trkpt lat="43.656185" lon="11.1874083"><ele>303.75</ele><time>2026-04-25T15:58:49.724Z</time></trkpt><trkpt lat="43.656295" lon="11.1874333"><ele>304.5</ele><time>2026-04-25T15:58:50.724Z</time></trkpt><trkpt lat="43.656405" lon="11.18746"><ele>305.25</ele><time>2026-04-25T15:58:51.724Z</time></trkpt><trkpt lat="43.6565167" lon="11.187495"><ele>306.0</ele><time>2026-04-25T15:58:52.722Z</time></trkpt><trkpt lat="43.6566283" lon="11.1875367"><ele>306.0</ele><time>2026-04-25T15:58:53.724Z</time></trkpt><trkpt lat="43.65674" lon="11.1876"><ele>306.0</ele><time>2026-04-25T15:58:54.724Z</time></trkpt><trkpt lat="43.656845" lon="11.18766"><ele>306.0</ele><time>2026-04-25T15:58:55.724Z</time></trkpt><trkpt lat="43.6569533" lon="11.1877183"><ele>306.0</ele><time>2026-04-25T15:58:56.725Z</time></trkpt><trkpt lat="43.65706" lon="11.1877817"><ele>306.75</ele><time>2026-04-25T15:58:57.722Z</time></trkpt><trkpt lat="43.65717" lon="11.187845"><ele>307.5</ele><time>2026-04-25T15:58:58.724Z</time></trkpt><trkpt lat="43.6572867" lon="11.1879183"><ele>308.25</ele><time>2026-04-25T15:58:59.723Z</time></trkpt><trkpt lat="43.6574033" lon="11.1879833"><ele>309.0</ele><time>2026-04-25T15:59:00.724Z</time></trkpt><trkpt lat="43.6575217" lon="11.1880467"><ele>309.0</ele><time>2026-04-25T15:59:01.724Z</time></trkpt><trkpt lat="43.6576417" lon="11.1881117"><ele>309.0</ele><time>2026-04-25T15:59:02.724Z</time></trkpt><trkpt lat="43.6577583" lon="11.1881633"><ele>309.0</ele><time>2026-04-25T15:59:03.723Z</time></trkpt><trkpt lat="43.6578617" lon="11.18821"><ele>309.0</ele><time>2026-04-25T15:59:04.722Z</time></trkpt><trkpt lat="43.6579567" lon="11.18826"><ele>308.3333333333333</ele><time>2026-04-25T15:59:05.724Z</time></trkpt><trkpt lat="43.65804" lon="11.1883033"><ele>307.6666666666667</ele><time>2026-04-25T15:59:06.724Z</time></trkpt><trkpt lat="43.6581117" lon="11.18835"><ele>307.0</ele><time>2026-04-25T15:59:07.723Z</time></trkpt><trkpt lat="43.658175" lon="11.1884083"><ele>306.33333333333337</ele><time>2026-04-25T15:59:08.723Z</time></trkpt><trkpt lat="43.6582367" lon="11.188475"><ele>305.6666666666667</ele><time>2026-04-25T15:59:09.723Z</time></trkpt><trkpt lat="43.6583067" lon="11.1885467"><ele>305.0</ele><time>2026-04-25T15:59:10.724Z</time></trkpt><trkpt lat="43.658385" lon="11.188615"><ele>305.0</ele><time>2026-04-25T15:59:11.724Z</time></trkpt><trkpt lat="43.658465" lon="11.1886867"><ele>305.0</ele><time>2026-04-25T15:59:12.726Z</time></trkpt><trkpt lat="43.65855" lon="11.1887733"><ele>305.0</ele><time>2026-04-25T15:59:13.724Z</time></trkpt><trkpt lat="43.6586367" lon="11.1888667"><ele>305.0</ele><time>2026-04-25T15:59:14.724Z</time></trkpt><trkpt lat="43.6587283" lon="11.1889633"><ele>305.0</ele><time>2026-04-25T15:59:15.723Z</time></trkpt><trkpt lat="43.6588183" lon="11.1890533"><ele>304.5</ele><time>2026-04-25T15:59:16.724Z</time></trkpt><trkpt lat="43.6589083" lon="11.1891467"><ele>304.0</ele><time>2026-04-25T15:59:17.725Z</time></trkpt><trkpt lat="43.6590017" lon="11.1892267"><ele>303.5</ele><time>2026-04-25T15:59:18.724Z</time></trkpt><trkpt lat="43.659105" lon="11.1893033"><ele>303.0</ele><time>2026-04-25T15:59:19.724Z</time></trkpt><trkpt lat="43.65921" lon="11.189375"><ele>303.0</ele><time>2026-04-25T15:59:20.724Z</time></trkpt><trkpt lat="43.65932" lon="11.189435"><ele>303.0</ele><time>2026-04-25T15:59:21.724Z</time></trkpt><trkpt lat="43.6594283" lon="11.1894983"><ele>303.0</ele><time>2026-04-25T15:59:22.724Z</time></trkpt><trkpt lat="43.659535" lon="11.18957"><ele>303.0</ele><time>2026-04-25T15:59:23.724Z</time></trkpt><trkpt lat="43.6596417" lon="11.1896467"><ele>302.4</ele><time>2026-04-25T15:59:24.725Z</time></trkpt><trkpt lat="43.6597433" lon="11.1897267"><ele>301.8</ele><time>2026-04-25T15:59:25.724Z</time></trkpt><trkpt lat="43.6598417" lon="11.1898083"><ele>301.2</ele><time>2026-04-25T15:59:26.724Z</time></trkpt><trkpt lat="43.659935" lon="11.1898867"><ele>300.6</ele><time>2026-04-25T15:59:27.724Z</time></trkpt><trkpt lat="43.6600233" lon="11.18996"><ele>300.0</ele><time>2026-04-25T15:59:28.724Z</time></trkpt><trkpt lat="43.66011" lon="11.1900317"><ele>300.0</ele><time>2026-04-25T15:59:29.724Z</time></trkpt><trkpt lat="43.6602" lon="11.1901017"><ele>300.0</ele><time>2026-04-25T15:59:30.724Z</time></trkpt><trkpt lat="43.6602817" lon="11.1901683"><ele>300.0</ele><time>2026-04-25T15:59:31.724Z</time></trkpt><trkpt lat="43.660355" lon="11.1902217"><ele>300.0</ele><time>2026-04-25T15:59:32.724Z</time></trkpt><trkpt lat="43.66042" lon="11.19027"><ele>300.0</ele><time>2026-04-25T15:59:33.723Z</time></trkpt><trkpt lat="43.66053" lon="11.1903317"><ele>298.2</ele><time>2026-04-25T15:59:35.724Z</time></trkpt><trkpt lat="43.66064" lon="11.19036"><ele>296.4</ele><time>2026-04-25T15:59:37.724Z</time></trkpt><trkpt lat="43.6607583" lon="11.1903833"><ele>294.6</ele><time>2026-04-25T15:59:39.724Z</time></trkpt><trkpt lat="43.6608333" lon="11.1904033"><ele>292.8</ele><time>2026-04-25T15:59:40.723Z</time></trkpt><trkpt lat="43.6609133" lon="11.1904233"><ele>291.0</ele><time>2026-04-25T15:59:41.724Z</time></trkpt><trkpt lat="43.661" lon="11.19045"><ele>291.0</ele><time>2026-04-25T15:59:42.725Z</time></trkpt><trkpt lat="43.66109" lon="11.1904767"><ele>291.0</ele><time>2026-04-25T15:59:43.724Z</time></trkpt><trkpt lat="43.6611783" lon="11.1905033"><ele>291.0</ele><time>2026-04-25T15:59:44.724Z</time></trkpt><trkpt lat="43.6612667" lon="11.1905283"><ele>291.0</ele><time>2026-04-25T15:59:45.724Z</time></trkpt><trkpt lat="43.6613583" lon="11.1905567"><ele>291.0</ele><time>2026-04-25T15:59:46.724Z</time></trkpt><trkpt lat="43.6614433" lon="11.1905717"><ele>291.1666666666667</ele><time>2026-04-25T15:59:47.725Z</time></trkpt><trkpt lat="43.66153" lon="11.1906033"><ele>291.3333333333333</ele><time>2026-04-25T15:59:48.723Z</time></trkpt><trkpt lat="43.661615" lon="11.1906333"><ele>291.5</ele><time>2026-04-25T15:59:49.723Z</time></trkpt><trkpt lat="43.6616883" lon="11.1906567"><ele>291.66666666666663</ele><time>2026-04-25T15:59:50.724Z</time></trkpt><trkpt lat="43.6617583" lon="11.1906783"><ele>291.8333333333333</ele><time>2026-04-25T15:59:51.724Z</time></trkpt><trkpt lat="43.66183" lon="11.1907117"><ele>292.0</ele><time>2026-04-25T15:59:52.725Z</time></trkpt><trkpt lat="43.6618967" lon="11.1907433"><ele>290.8333333333333</ele><time>2026-04-25T15:59:53.723Z</time></trkpt><trkpt lat="43.6619617" lon="11.1907783"><ele>289.66666666666663</ele><time>2026-04-25T15:59:54.723Z</time></trkpt><trkpt lat="43.6620167" lon="11.1908283"><ele>288.5</ele><time>2026-04-25T15:59:55.724Z</time></trkpt><trkpt lat="43.66206" lon="11.1909267"><ele>287.3333333333333</ele><time>2026-04-25T15:59:56.725Z</time></trkpt><trkpt lat="43.66209" lon="11.191035"><ele>286.1666666666667</ele><time>2026-04-25T15:59:57.723Z</time></trkpt><trkpt lat="43.66211" lon="11.1911417"><ele>285.0</ele><time>2026-04-25T15:59:58.725Z</time></trkpt><trkpt lat="43.6621367" lon="11.1912283"><ele>285.0</ele><time>2026-04-25T15:59:59.724Z</time></trkpt><trkpt lat="43.6622283" lon="11.1913183"><ele>285.0</ele><time>2026-04-25T16:00:01.724Z</time></trkpt><trkpt lat="43.6623283" lon="11.19133"><ele>285.0</ele><time>2026-04-25T16:00:03.724Z</time></trkpt><trkpt lat="43.662385" lon="11.1912117"><ele>285.0</ele><time>2026-04-25T16:00:05.724Z</time></trkpt><trkpt lat="43.66238" lon="11.19112"><ele>285.0</ele><time>2026-04-25T16:00:06.724Z</time></trkpt><trkpt lat="43.6623283" lon="11.1909617"><ele>285.0</ele><time>2026-04-25T16:00:07.724Z</time></trkpt><trkpt lat="43.6622817" lon="11.190805"><ele>285.0</ele><time>2026-04-25T16:00:08.723Z</time></trkpt><trkpt lat="43.6622417" lon="11.1906483"><ele>285.0</ele><time>2026-04-25T16:00:09.723Z</time></trkpt><trkpt lat="43.6621883" lon="11.1904917"><ele>285.0</ele><time>2026-04-25T16:00:10.725Z</time></trkpt><trkpt lat="43.66213" lon="11.1903267"><ele>283.25</ele><time>2026-04-25T16:00:11.724Z</time></trkpt><trkpt lat="43.66206" lon="11.1901583"><ele>281.5</ele><time>2026-04-25T16:00:12.725Z</time></trkpt><trkpt lat="43.6619917" lon="11.189985"><ele>279.75</ele><time>2026-04-25T16:00:13.723Z</time></trkpt><trkpt lat="43.6619383" lon="11.1898033"><ele>278.0</ele><time>2026-04-25T16:00:14.725Z</time></trkpt><trkpt lat="43.6619133" lon="11.1896117"><ele>278.0</ele><time>2026-04-25T16:00:15.724Z</time></trkpt><trkpt lat="43.6619233" lon="11.1894167"><ele>278.0</ele><time>2026-04-25T16:00:16.725Z</time></trkpt><trkpt lat="43.66197" lon="11.18923"><ele>278.0</ele><time>2026-04-25T16:00:17.724Z</time></trkpt><trkpt lat="43.6620533" lon="11.1890717"><ele>278.0</ele><time>2026-04-25T16:00:18.724Z</time></trkpt><trkpt lat="43.6621667" lon="11.1889467"><ele>279.33333333333337</ele><time>2026-04-25T16:00:19.724Z</time></trkpt><trkpt lat="43.6623017" lon="11.1888633"><ele>280.6666666666667</ele><time>2026-04-25T16:00:20.723Z</time></trkpt><trkpt lat="43.662455" lon="11.1888167"><ele>282.0</ele><time>2026-04-25T16:00:21.723Z</time></trkpt><trkpt lat="43.6626183" lon="11.188805"><ele>282.0</ele><time>2026-04-25T16:00:22.724Z</time></trkpt><trkpt lat="43.66278" lon="11.1888017"><ele>282.0</ele><time>2026-04-25T16:00:23.724Z</time></trkpt><trkpt lat="43.6629483" lon="11.188795"><ele>282.0</ele><time>2026-04-25T16:00:24.723Z</time></trkpt><trkpt lat="43.663125" lon="11.1887833"><ele>282.3333333333333</ele><time>2026-04-25T16:00:25.724Z</time></trkpt><trkpt lat="43.6633033" lon="11.188775"><ele>282.66666666666663</ele><time>2026-04-25T16:00:26.724Z</time></trkpt><trkpt lat="43.663485" lon="11.1887683"><ele>283.0</ele><time>2026-04-25T16:00:27.723Z</time></trkpt><trkpt lat="43.6636667" lon="11.1887583"><ele>283.0</ele><time>2026-04-25T16:00:28.724Z</time></trkpt><trkpt lat="43.6638517" lon="11.18875"><ele>283.0</ele><time>2026-04-25T16:00:29.724Z</time></trkpt><trkpt lat="43.664035" lon="11.18874"><ele>283.0</ele><time>2026-04-25T16:00:30.724Z</time></trkpt><trkpt lat="43.6642217" lon="11.1887283"><ele>283.0</ele><time>2026-04-25T16:00:31.724Z</time></trkpt><trkpt lat="43.66441" lon="11.1887167"><ele>283.0</ele><time>2026-04-25T16:00:32.722Z</time></trkpt><trkpt lat="43.6646" lon="11.188705"><ele>283.0</ele><time>2026-04-25T16:00:33.725Z</time></trkpt><trkpt lat="43.6647917" lon="11.1886933"><ele>283.3333333333333</ele><time>2026-04-25T16:00:34.723Z</time></trkpt><trkpt lat="43.664985" lon="11.1886867"><ele>283.6666666666667</ele><time>2026-04-25T16:00:35.724Z</time></trkpt><trkpt lat="43.6651783" lon="11.1886783"><ele>284.0</ele><time>2026-04-25T16:00:36.723Z</time></trkpt><trkpt lat="43.6653667" lon="11.1886683"><ele>284.0</ele><time>2026-04-25T16:00:37.724Z</time></trkpt><trkpt lat="43.6655467" lon="11.1886583"><ele>284.0</ele><time>2026-04-25T16:00:38.725Z</time></trkpt><trkpt lat="43.6657133" lon="11.18865"><ele>284.0</ele><time>2026-04-25T16:00:39.724Z</time></trkpt><trkpt lat="43.6658683" lon="11.1886283"><ele>284.0</ele><time>2026-04-25T16:00:40.725Z</time></trkpt><trkpt lat="43.666005" lon="11.1885667"><ele>284.0</ele><time>2026-04-25T16:00:41.723Z</time></trkpt><trkpt lat="43.6661217" lon="11.18846"><ele>284.0</ele><time>2026-04-25T16:00:42.725Z</time></trkpt><trkpt lat="43.6662133" lon="11.1883083"><ele>284.0</ele><time>2026-04-25T16:00:43.725Z</time></trkpt><trkpt lat="43.6662717" lon="11.1881217"><ele>281.33333333333337</ele><time>2026-04-25T16:00:44.724Z</time></trkpt><trkpt lat="43.6662917" lon="11.187915"><ele>278.6666666666667</ele><time>2026-04-25T16:00:45.725Z</time></trkpt><trkpt lat="43.66627" lon="11.187705"><ele>276.0</ele><time>2026-04-25T16:00:46.723Z</time></trkpt><trkpt lat="43.66621" lon="11.187515"><ele>276.0</ele><time>2026-04-25T16:00:47.724Z</time></trkpt><trkpt lat="43.6661183" lon="11.18736"><ele>276.0</ele><time>2026-04-25T16:00:48.725Z</time></trkpt><trkpt lat="43.6659933" lon="11.187245"><ele>276.0</ele><time>2026-04-25T16:00:49.724Z</time></trkpt><trkpt lat="43.6658383" lon="11.1871617"><ele>275.3333333333333</ele><time>2026-04-25T16:00:50.723Z</time></trkpt><trkpt lat="43.6656617" lon="11.1870933"><ele>274.66666666666663</ele><time>2026-04-25T16:00:51.723Z</time></trkpt><trkpt lat="43.6654683" lon="11.1870183"><ele>274.0</ele><time>2026-04-25T16:00:52.724Z</time></trkpt><trkpt lat="43.6652617" lon="11.1869267"><ele>277.0</ele><time>2026-04-25T16:00:53.724Z</time></trkpt><trkpt lat="43.6650517" lon="11.1868183"><ele>280.0</ele><time>2026-04-25T16:00:54.725Z</time></trkpt><trkpt lat="43.664845" lon="11.1867183"><ele>283.0</ele><time>2026-04-25T16:00:55.724Z</time></trkpt><trkpt lat="43.6646383" lon="11.1866183"><ele>285.0</ele><time>2026-04-25T16:00:56.724Z</time></trkpt><trkpt lat="43.6644333" lon="11.1865283"><ele>287.0</ele><time>2026-04-25T16:00:57.723Z</time></trkpt><trkpt lat="43.66423" lon="11.18646"><ele>289.0</ele><time>2026-04-25T16:00:58.725Z</time></trkpt><trkpt lat="43.664025" lon="11.1863983"><ele>286.0</ele><time>2026-04-25T16:00:59.723Z</time></trkpt><trkpt lat="43.6638267" lon="11.1863383"><ele>283.0</ele><time>2026-04-25T16:01:00.724Z</time></trkpt><trkpt lat="43.6636283" lon="11.1862733"><ele>280.0</ele><time>2026-04-25T16:01:01.724Z</time></trkpt><trkpt lat="43.6634333" lon="11.1862117"><ele>280.0</ele><time>2026-04-25T16:01:02.725Z</time></trkpt><trkpt lat="43.6632367" lon="11.186155"><ele>280.0</ele><time>2026-04-25T16:01:03.724Z</time></trkpt><trkpt lat="43.6630467" lon="11.186095"><ele>280.0</ele><time>2026-04-25T16:01:04.723Z</time></trkpt><trkpt lat="43.662865" lon="11.1860383"><ele>281.66666666666663</ele><time>2026-04-25T16:01:05.723Z</time></trkpt><trkpt lat="43.6626967" lon="11.185975"><ele>283.3333333333333</ele><time>2026-04-25T16:01:06.724Z</time></trkpt><trkpt lat="43.662545" lon="11.1858983"><ele>285.0</ele><time>2026-04-25T16:01:07.722Z</time></trkpt><trkpt lat="43.6624167" lon="11.185795"><ele>283.25</ele><time>2026-04-25T16:01:08.723Z</time></trkpt><trkpt lat="43.66231" lon="11.18566"><ele>281.5</ele><time>2026-04-25T16:01:09.723Z</time></trkpt><trkpt lat="43.6622333" lon="11.1854867"><ele>279.75</ele><time>2026-04-25T16:01:10.724Z</time></trkpt><trkpt lat="43.662185" lon="11.185285"><ele>278.0</ele><time>2026-04-25T16:01:11.723Z</time></trkpt><trkpt lat="43.662165" lon="11.18506"><ele>280.33333333333337</ele><time>2026-04-25T16:01:12.724Z</time></trkpt><trkpt lat="43.66217" lon="11.1848317"><ele>282.6666666666667</ele><time>2026-04-25T16:01:13.723Z</time></trkpt><trkpt lat="43.6621933" lon="11.18461"><ele>285.0</ele><time>2026-04-25T16:01:14.723Z</time></trkpt><trkpt lat="43.662235" lon="11.1844133"><ele>285.0</ele><time>2026-04-25T16:01:15.722Z</time></trkpt><trkpt lat="43.6622983" lon="11.18425"><ele>285.0</ele><time>2026-04-25T16:01:16.723Z</time></trkpt><trkpt lat="43.662385" lon="11.1841267"><ele>285.0</ele><time>2026-04-25T16:01:17.725Z</time></trkpt><trkpt lat="43.6624917" lon="11.18404"><ele>285.0</ele><time>2026-04-25T16:01:18.724Z</time></trkpt><trkpt lat="43.6626167" lon="11.184"><ele>284.25</ele><time>2026-04-25T16:01:19.726Z</time></trkpt><trkpt lat="43.6627567" lon="11.1839983"><ele>283.5</ele><time>2026-04-25T16:01:20.725Z</time></trkpt><trkpt lat="43.6629033" lon="11.1840117"><ele>282.75</ele><time>2026-04-25T16:01:21.724Z</time></trkpt><trkpt lat="43.6630567" lon="11.1840467"><ele>282.0</ele><time>2026-04-25T16:01:22.724Z</time></trkpt><trkpt lat="43.6632183" lon="11.1841017"><ele>282.0</ele><time>2026-04-25T16:01:23.724Z</time></trkpt><trkpt lat="43.6633883" lon="11.1841683"><ele>282.0</ele><time>2026-04-25T16:01:24.723Z</time></trkpt><trkpt lat="43.6635617" lon="11.1842383"><ele>282.0</ele><time>2026-04-25T16:01:25.724Z</time></trkpt><trkpt lat="43.663735" lon="11.184305"><ele>282.0</ele><time>2026-04-25T16:01:26.724Z</time></trkpt><trkpt lat="43.6639033" lon="11.1843617"><ele>282.0</ele><time>2026-04-25T16:01:27.725Z</time></trkpt><trkpt lat="43.6640633" lon="11.184405"><ele>282.0</ele><time>2026-04-25T16:01:28.724Z</time></trkpt><trkpt lat="43.664215" lon="11.1844233"><ele>282.0</ele><time>2026-04-25T16:01:29.724Z</time></trkpt><trkpt lat="43.6643583" lon="11.1843983"><ele>282.0</ele><time>2026-04-25T16:01:30.725Z</time></trkpt><trkpt lat="43.6644933" lon="11.184325"><ele>282.0</ele><time>2026-04-25T16:01:31.722Z</time></trkpt><trkpt lat="43.6645983" lon="11.1842017"><ele>282.0</ele><time>2026-04-25T16:01:32.724Z</time></trkpt><trkpt lat="43.664665" lon="11.184045"><ele>279.75</ele><time>2026-04-25T16:01:33.724Z</time></trkpt><trkpt lat="43.6647" lon="11.1838617"><ele>277.5</ele><time>2026-04-25T16:01:34.724Z</time></trkpt><trkpt lat="43.6646883" lon="11.183665"><ele>275.25</ele><time>2026-04-25T16:01:35.724Z</time></trkpt><trkpt lat="43.664635" lon="11.1834567"><ele>273.0</ele><time>2026-04-25T16:01:36.725Z</time></trkpt><trkpt lat="43.6645467" lon="11.1832533"><ele>277.6666666666667</ele><time>2026-04-25T16:01:37.724Z</time></trkpt><trkpt lat="43.6644417" lon="11.18304"><ele>282.33333333333337</ele><time>2026-04-25T16:01:38.724Z</time></trkpt><trkpt lat="43.6643317" lon="11.1828283"><ele>287.0</ele><time>2026-04-25T16:01:39.724Z</time></trkpt><trkpt lat="43.66422" lon="11.1826117"><ele>287.0</ele><time>2026-04-25T16:01:40.723Z</time></trkpt><trkpt lat="43.6641083" lon="11.1823933"><ele>287.0</ele><time>2026-04-25T16:01:41.725Z</time></trkpt><trkpt lat="43.6639983" lon="11.18218"><ele>287.0</ele><time>2026-04-25T16:01:42.723Z</time></trkpt><trkpt lat="43.6638917" lon="11.1819717"><ele>287.0</ele><time>2026-04-25T16:01:43.723Z</time></trkpt><trkpt lat="43.663795" lon="11.181775"><ele>287.0</ele><time>2026-04-25T16:01:44.724Z</time></trkpt><trkpt lat="43.663725" lon="11.1815817"><ele>287.0</ele><time>2026-04-25T16:01:45.724Z</time></trkpt><trkpt lat="43.6636933" lon="11.1813883"><ele>287.0</ele><time>2026-04-25T16:01:46.725Z</time></trkpt><trkpt lat="43.6636933" lon="11.181205"><ele>287.0</ele><time>2026-04-25T16:01:47.725Z</time></trkpt><trkpt lat="43.6637333" lon="11.1810317"><ele>287.0</ele><time>2026-04-25T16:01:48.724Z</time></trkpt><trkpt lat="43.6638083" lon="11.180885"><ele>287.0</ele><time>2026-04-25T16:01:49.724Z</time></trkpt><trkpt lat="43.6639233" lon="11.1807667"><ele>287.0</ele><time>2026-04-25T16:01:50.725Z</time></trkpt><trkpt lat="43.66406" lon="11.180695"><ele>287.0</ele><time>2026-04-25T16:01:51.724Z</time></trkpt><trkpt lat="43.6642033" lon="11.1806767"><ele>287.0</ele><time>2026-04-25T16:01:52.724Z</time></trkpt><trkpt lat="43.6643583" lon="11.1807083"><ele>287.0</ele><time>2026-04-25T16:01:53.724Z</time></trkpt><trkpt lat="43.664515" lon="11.1807767"><ele>289.6666666666667</ele><time>2026-04-25T16:01:54.724Z</time></trkpt><trkpt lat="43.6646717" lon="11.18086"><ele>292.3333333333333</ele><time>2026-04-25T16:01:55.725Z</time></trkpt><trkpt lat="43.664835" lon="11.1809467"><ele>295.0</ele><time>2026-04-25T16:01:56.725Z</time></trkpt><trkpt lat="43.6650017" lon="11.1810283"><ele>295.0</ele><time>2026-04-25T16:01:57.723Z</time></trkpt><trkpt lat="43.6651617" lon="11.1811083"><ele>295.0</ele><time>2026-04-25T16:01:58.724Z</time></trkpt><trkpt lat="43.6653083" lon="11.1811783"><ele>295.0</ele><time>2026-04-25T16:01:59.723Z</time></trkpt><trkpt lat="43.665445" lon="11.1812333"><ele>297.5</ele><time>2026-04-25T16:02:00.724Z</time></trkpt><trkpt lat="43.6655783" lon="11.1812717"><ele>300.0</ele><time>2026-04-25T16:02:01.725Z</time></trkpt><trkpt lat="43.6657083" lon="11.1812983"><ele>302.5</ele><time>2026-04-25T16:02:02.724Z</time></trkpt><trkpt lat="43.6658267" lon="11.1813117"><ele>305.0</ele><time>2026-04-25T16:02:03.724Z</time></trkpt><trkpt lat="43.6659383" lon="11.1813117"><ele>305.0</ele><time>2026-04-25T16:02:04.724Z</time></trkpt><trkpt lat="43.6660467" lon="11.1812783"><ele>305.0</ele><time>2026-04-25T16:02:05.725Z</time></trkpt><trkpt lat="43.66615" lon="11.181215"><ele>305.0</ele><time>2026-04-25T16:02:06.725Z</time></trkpt><trkpt lat="43.6662417" lon="11.18113"><ele>305.0</ele><time>2026-04-25T16:02:07.724Z</time></trkpt><trkpt lat="43.66632" lon="11.1810383"><ele>305.0</ele><time>2026-04-25T16:02:08.725Z</time></trkpt><trkpt lat="43.6663817" lon="11.1809517"><ele>303.8</ele><time>2026-04-25T16:02:09.724Z</time></trkpt><trkpt lat="43.666435" lon="11.1808767"><ele>302.6</ele><time>2026-04-25T16:02:10.725Z</time></trkpt><trkpt lat="43.666475" lon="11.180795"><ele>301.4</ele><time>2026-04-25T16:02:12.724Z</time></trkpt><trkpt lat="43.6664817" lon="11.18066"><ele>300.2</ele><time>2026-04-25T16:02:15.725Z</time></trkpt><trkpt lat="43.6664133" lon="11.180485"><ele>299.0</ele><time>2026-04-25T16:02:17.722Z</time></trkpt><trkpt lat="43.6663683" lon="11.18035"><ele>299.0</ele><time>2026-04-25T16:02:18.725Z</time></trkpt><trkpt lat="43.6663433" lon="11.18019"><ele>299.0</ele><time>2026-04-25T16:02:19.724Z</time></trkpt><trkpt lat="43.6663283" lon="11.1800233"><ele>299.0</ele><time>2026-04-25T16:02:20.725Z</time></trkpt><trkpt lat="43.66632" lon="11.1798483"><ele>299.0</ele><time>2026-04-25T16:02:21.722Z</time></trkpt><trkpt lat="43.6663183" lon="11.179675"><ele>299.8</ele><time>2026-04-25T16:02:22.724Z</time></trkpt><trkpt lat="43.666315" lon="11.17951"><ele>300.59999999999997</ele><time>2026-04-25T16:02:23.723Z</time></trkpt><trkpt lat="43.6663083" lon="11.1793633"><ele>301.4</ele><time>2026-04-25T16:02:24.724Z</time></trkpt><trkpt lat="43.6662917" lon="11.1792283"><ele>302.2</ele><time>2026-04-25T16:02:25.724Z</time></trkpt><trkpt lat="43.6662617" lon="11.1791067"><ele>303.0</ele><time>2026-04-25T16:02:26.724Z</time></trkpt><trkpt lat="43.66623" lon="11.17899"><ele>303.0</ele><time>2026-04-25T16:02:27.724Z</time></trkpt><trkpt lat="43.6661967" lon="11.1788717"><ele>303.0</ele><time>2026-04-25T16:02:28.724Z</time></trkpt><trkpt lat="43.6661567" lon="11.1787517"><ele>303.0</ele><time>2026-04-25T16:02:29.725Z</time></trkpt><trkpt lat="43.6661183" lon="11.17863"><ele>303.0</ele><time>2026-04-25T16:02:30.725Z</time></trkpt><trkpt lat="43.6660817" lon="11.1785"><ele>303.0</ele><time>2026-04-25T16:02:31.725Z</time></trkpt><trkpt lat="43.6660483" lon="11.1783733"><ele>303.1666666666667</ele><time>2026-04-25T16:02:32.725Z</time></trkpt><trkpt lat="43.6660133" lon="11.17826"><ele>303.3333333333333</ele><time>2026-04-25T16:02:33.723Z</time></trkpt><trkpt lat="43.6659767" lon="11.178155"><ele>303.5</ele><time>2026-04-25T16:02:34.724Z</time></trkpt><trkpt lat="43.6659433" lon="11.1780467"><ele>303.66666666666663</ele><time>2026-04-25T16:02:35.723Z</time></trkpt><trkpt lat="43.6659083" lon="11.17794"><ele>303.8333333333333</ele><time>2026-04-25T16:02:36.722Z</time></trkpt><trkpt lat="43.6658767" lon="11.1778283"><ele>304.0</ele><time>2026-04-25T16:02:37.723Z</time></trkpt><trkpt lat="43.6658533" lon="11.177705"><ele>304.0</ele><time>2026-04-25T16:02:38.724Z</time></trkpt><trkpt lat="43.665835" lon="11.177575"><ele>304.0</ele><time>2026-04-25T16:02:39.724Z</time></trkpt><trkpt lat="43.6658183" lon="11.1774433"><ele>304.0</ele><time>2026-04-25T16:02:40.724Z</time></trkpt><trkpt lat="43.6658017" lon="11.1773083"><ele>304.0</ele><time>2026-04-25T16:02:41.724Z</time></trkpt><trkpt lat="43.6657833" lon="11.1771767"><ele>304.0</ele><time>2026-04-25T16:02:42.725Z</time></trkpt><trkpt lat="43.6657617" lon="11.1770483"><ele>303.66666666666663</ele><time>2026-04-25T16:02:43.723Z</time></trkpt><trkpt lat="43.6657417" lon="11.1769333"><ele>303.3333333333333</ele><time>2026-04-25T16:02:44.724Z</time></trkpt><trkpt lat="43.6657183" lon="11.176835"><ele>303.0</ele><time>2026-04-25T16:02:45.724Z</time></trkpt><trkpt lat="43.6656933" lon="11.1766917"><ele>302.6666666666667</ele><time>2026-04-25T16:02:47.723Z</time></trkpt><trkpt lat="43.6656783" lon="11.1765833"><ele>302.33333333333337</ele><time>2026-04-25T16:02:50.723Z</time></trkpt><trkpt lat="43.665685" lon="11.1764583"><ele>302.0</ele><time>2026-04-25T16:02:52.724Z</time></trkpt><trkpt lat="43.6656967" lon="11.1763467"><ele>302.0</ele><time>2026-04-25T16:02:53.724Z</time></trkpt><trkpt lat="43.6657033" lon="11.1762083"><ele>302.0</ele><time>2026-04-25T16:02:54.723Z</time></trkpt><trkpt lat="43.6657" lon="11.1760567"><ele>302.0</ele><time>2026-04-25T16:02:55.725Z</time></trkpt><trkpt lat="43.6656883" lon="11.1758883"><ele>302.0</ele><time>2026-04-25T16:02:56.725Z</time></trkpt><trkpt lat="43.6656683" lon="11.17572"><ele>302.25</ele><time>2026-04-25T16:02:57.724Z</time></trkpt><trkpt lat="43.665645" lon="11.175545"><ele>302.5</ele><time>2026-04-25T16:02:58.726Z</time></trkpt><trkpt lat="43.6656233" lon="11.17536"><ele>302.75</ele><time>2026-04-25T16:02:59.724Z</time></trkpt><trkpt lat="43.6655933" lon="11.1751633"><ele>303.0</ele><time>2026-04-25T16:03:00.726Z</time></trkpt><trkpt lat="43.665565" lon="11.1749583"><ele>304.0</ele><time>2026-04-25T16:03:01.726Z</time></trkpt><trkpt lat="43.6655267" lon="11.17476"><ele>305.0</ele><time>2026-04-25T16:03:02.726Z</time></trkpt><trkpt lat="43.665475" lon="11.1745717"><ele>306.0</ele><time>2026-04-25T16:03:03.724Z</time></trkpt><trkpt lat="43.6653967" lon="11.1744017"><ele>307.0</ele><time>2026-04-25T16:03:04.726Z</time></trkpt><trkpt lat="43.665305" lon="11.1742467"><ele>302.66666666666663</ele><time>2026-04-25T16:03:05.724Z</time></trkpt><trkpt lat="43.665225" lon="11.1740767"><ele>298.3333333333333</ele><time>2026-04-25T16:03:06.723Z</time></trkpt><trkpt lat="43.66517" lon="11.1738883"><ele>294.0</ele><time>2026-04-25T16:03:07.724Z</time></trkpt><trkpt lat="43.665135" lon="11.1736783"><ele>294.0</ele><time>2026-04-25T16:03:08.725Z</time></trkpt><trkpt lat="43.6651067" lon="11.1734517"><ele>294.0</ele><time>2026-04-25T16:03:09.724Z</time></trkpt><trkpt lat="43.6650783" lon="11.1732217"><ele>294.0</ele><time>2026-04-25T16:03:10.725Z</time></trkpt><trkpt lat="43.6650483" lon="11.1729867"><ele>295.6666666666667</ele><time>2026-04-25T16:03:11.725Z</time></trkpt><trkpt lat="43.6650183" lon="11.1727467"><ele>297.33333333333337</ele><time>2026-04-25T16:03:12.726Z</time></trkpt><trkpt lat="43.6649883" lon="11.1725167"><ele>299.0</ele><time>2026-04-25T16:03:13.724Z</time></trkpt><trkpt lat="43.66496" lon="11.1722933"><ele>299.0</ele><time>2026-04-25T16:03:14.725Z</time></trkpt><trkpt lat="43.6649333" lon="11.172075"><ele>299.0</ele><time>2026-04-25T16:03:15.725Z</time></trkpt><trkpt lat="43.6649083" lon="11.1718633"><ele>299.0</ele><time>2026-04-25T16:03:16.724Z</time></trkpt><trkpt lat="43.6648867" lon="11.1716667"><ele>299.75</ele><time>2026-04-25T16:03:17.724Z</time></trkpt><trkpt lat="43.66487" lon="11.1714883"><ele>300.5</ele><time>2026-04-25T16:03:18.724Z</time></trkpt><trkpt lat="43.6648583" lon="11.1713217"><ele>301.25</ele><time>2026-04-25T16:03:19.725Z</time></trkpt><trkpt lat="43.6648483" lon="11.1711583"><ele>302.0</ele><time>2026-04-25T16:03:20.724Z</time></trkpt><trkpt lat="43.6648383" lon="11.1709867"><ele>302.0</ele><time>2026-04-25T16:03:21.725Z</time></trkpt><trkpt lat="43.66482" lon="11.1708117"><ele>302.0</ele><time>2026-04-25T16:03:22.724Z</time></trkpt><trkpt lat="43.664795" lon="11.1706367"><ele>302.0</ele><time>2026-04-25T16:03:23.726Z</time></trkpt><trkpt lat="43.6647617" lon="11.1704667"><ele>302.0</ele><time>2026-04-25T16:03:24.726Z</time></trkpt><trkpt lat="43.6647217" lon="11.1703033"><ele>300.33333333333337</ele><time>2026-04-25T16:03:25.725Z</time></trkpt><trkpt lat="43.6646667" lon="11.1701317"><ele>298.6666666666667</ele><time>2026-04-25T16:03:26.726Z</time></trkpt><trkpt lat="43.6645783" lon="11.1699417"><ele>297.0</ele><time>2026-04-25T16:03:27.724Z</time></trkpt><trkpt lat="43.66446" lon="11.1697217"><ele>296.3333333333333</ele><time>2026-04-25T16:03:28.726Z</time></trkpt><trkpt lat="43.6643467" lon="11.1694917"><ele>295.66666666666663</ele><time>2026-04-25T16:03:29.727Z</time></trkpt><trkpt lat="43.664255" lon="11.1692617"><ele>295.0</ele><time>2026-04-25T16:03:30.724Z</time></trkpt><trkpt lat="43.6641817" lon="11.1690433"><ele>295.66666666666663</ele><time>2026-04-25T16:03:31.725Z</time></trkpt><trkpt lat="43.6641383" lon="11.1688267"><ele>296.3333333333333</ele><time>2026-04-25T16:03:32.727Z</time></trkpt><trkpt lat="43.6641283" lon="11.1685967"><ele>297.0</ele><time>2026-04-25T16:03:33.723Z</time></trkpt><trkpt lat="43.66414" lon="11.1683567"><ele>298.6666666666667</ele><time>2026-04-25T16:03:34.723Z</time></trkpt><trkpt lat="43.664165" lon="11.1681183"><ele>300.33333333333337</ele><time>2026-04-25T16:03:35.726Z</time></trkpt><trkpt lat="43.6642" lon="11.1679"><ele>302.0</ele><time>2026-04-25T16:03:36.724Z</time></trkpt><trkpt lat="43.6642517" lon="11.1677017"><ele>302.0</ele><time>2026-04-25T16:03:37.723Z</time></trkpt><trkpt lat="43.6643317" lon="11.1675183"><ele>302.0</ele><time>2026-04-25T16:03:38.725Z</time></trkpt><trkpt lat="43.6644417" lon="11.1673367"><ele>302.0</ele><time>2026-04-25T16:03:39.725Z</time></trkpt><trkpt lat="43.6645517" lon="11.1671467"><ele>302.33333333333337</ele><time>2026-04-25T16:03:40.725Z</time></trkpt><trkpt lat="43.66467" lon="11.1669433"><ele>302.6666666666667</ele><time>2026-04-25T16:03:41.726Z</time></trkpt><trkpt lat="43.66478" lon="11.1667317"><ele>303.0</ele><time>2026-04-25T16:03:42.725Z</time></trkpt><trkpt lat="43.6648967" lon="11.1665233"><ele>303.0</ele><time>2026-04-25T16:03:43.725Z</time></trkpt><trkpt lat="43.665025" lon="11.1663283"><ele>303.0</ele><time>2026-04-25T16:03:44.725Z</time></trkpt><trkpt lat="43.6651617" lon="11.1661333"><ele>303.0</ele><time>2026-04-25T16:03:45.724Z</time></trkpt><trkpt lat="43.6652967" lon="11.165925"><ele>301.3333333333333</ele><time>2026-04-25T16:03:46.723Z</time></trkpt><trkpt lat="43.6654283" lon="11.16571"><ele>299.66666666666663</ele><time>2026-04-25T16:03:47.724Z</time></trkpt><trkpt lat="43.6655633" lon="11.1654983"><ele>298.0</ele><time>2026-04-25T16:03:48.724Z</time></trkpt><trkpt lat="43.6657033" lon="11.1652933"><ele>298.0</ele><time>2026-04-25T16:03:49.725Z</time></trkpt><trkpt lat="43.665845" lon="11.16509"><ele>298.0</ele><time>2026-04-25T16:03:50.725Z</time></trkpt><trkpt lat="43.6660067" lon="11.1649033"><ele>298.0</ele><time>2026-04-25T16:03:51.725Z</time></trkpt><trkpt lat="43.6661817" lon="11.1647417"><ele>297.0</ele><time>2026-04-25T16:03:52.725Z</time></trkpt><trkpt lat="43.666365" lon="11.1645833"><ele>296.0</ele><time>2026-04-25T16:03:53.724Z</time></trkpt><trkpt lat="43.6665517" lon="11.1644233"><ele>295.0</ele><time>2026-04-25T16:03:54.723Z</time></trkpt><trkpt lat="43.6667433" lon="11.1642667"><ele>295.0</ele><time>2026-04-25T16:03:55.724Z</time></trkpt><trkpt lat="43.6669367" lon="11.1641133"><ele>295.0</ele><time>2026-04-25T16:03:56.723Z</time></trkpt><trkpt lat="43.66713" lon="11.163955"><ele>295.0</ele><time>2026-04-25T16:03:57.724Z</time></trkpt><trkpt lat="43.6673167" lon="11.1637833"><ele>291.5</ele><time>2026-04-25T16:03:58.723Z</time></trkpt><trkpt lat="43.6675017" lon="11.1636"><ele>288.0</ele><time>2026-04-25T16:03:59.725Z</time></trkpt><trkpt lat="43.6676817" lon="11.16341"><ele>288.0</ele><time>2026-04-25T16:04:00.724Z</time></trkpt><trkpt lat="43.66786" lon="11.1632233"><ele>288.0</ele><time>2026-04-25T16:04:01.725Z</time></trkpt><trkpt lat="43.66804" lon="11.1630383"><ele>288.0</ele><time>2026-04-25T16:04:02.726Z</time></trkpt><trkpt lat="43.66821" lon="11.16285"><ele>286.6666666666667</ele><time>2026-04-25T16:04:03.725Z</time></trkpt><trkpt lat="43.6683667" lon="11.1626583"><ele>285.33333333333337</ele><time>2026-04-25T16:04:04.725Z</time></trkpt><trkpt lat="43.6685" lon="11.1624433"><ele>284.0</ele><time>2026-04-25T16:04:05.725Z</time></trkpt><trkpt lat="43.6685917" lon="11.1621917"><ele>286.6666666666667</ele><time>2026-04-25T16:04:06.725Z</time></trkpt><trkpt lat="43.66866" lon="11.1619133"><ele>289.3333333333333</ele><time>2026-04-25T16:04:07.723Z</time></trkpt><trkpt lat="43.6687167" lon="11.16163"><ele>292.0</ele><time>2026-04-25T16:04:08.725Z</time></trkpt><trkpt lat="43.6687783" lon="11.161345"><ele>292.3333333333333</ele><time>2026-04-25T16:04:09.724Z</time></trkpt><trkpt lat="43.6688517" lon="11.16106"><ele>292.6666666666667</ele><time>2026-04-25T16:04:10.725Z</time></trkpt><trkpt lat="43.6689217" lon="11.1607783"><ele>293.0</ele><time>2026-04-25T16:04:11.726Z</time></trkpt><trkpt lat="43.6689967" lon="11.1604967"><ele>292.33333333333337</ele><time>2026-04-25T16:04:12.724Z</time></trkpt><trkpt lat="43.6690733" lon="11.1602167"><ele>291.6666666666667</ele><time>2026-04-25T16:04:13.725Z</time></trkpt><trkpt lat="43.6691517" lon="11.1599433"><ele>291.0</ele><time>2026-04-25T16:04:14.725Z</time></trkpt><trkpt lat="43.66923" lon="11.1596767"><ele>289.6666666666667</ele><time>2026-04-25T16:04:15.726Z</time></trkpt><trkpt lat="43.6693" lon="11.1594233"><ele>288.33333333333337</ele><time>2026-04-25T16:04:16.726Z</time></trkpt><trkpt lat="43.6693633" lon="11.159185"><ele>287.0</ele><time>2026-04-25T16:04:17.723Z</time></trkpt><trkpt lat="43.6694283" lon="11.1589617"><ele>287.0</ele><time>2026-04-25T16:04:18.724Z</time></trkpt><trkpt lat="43.6694983" lon="11.158755"><ele>287.0</ele><time>2026-04-25T16:04:19.725Z</time></trkpt><trkpt lat="43.669575" lon="11.1585567"><ele>287.0</ele><time>2026-04-25T16:04:20.723Z</time></trkpt><trkpt lat="43.669665" lon="11.1583667"><ele>284.0</ele><time>2026-04-25T16:04:21.723Z</time></trkpt><trkpt lat="43.6697667" lon="11.15818"><ele>281.0</ele><time>2026-04-25T16:04:22.723Z</time></trkpt><trkpt lat="43.6698733" lon="11.1579883"><ele>278.0</ele><time>2026-04-25T16:04:23.724Z</time></trkpt><trkpt lat="43.6699817" lon="11.15779"><ele>278.0</ele><time>2026-04-25T16:04:24.724Z</time></trkpt><trkpt lat="43.6700917" lon="11.1575867"><ele>278.0</ele><time>2026-04-25T16:04:25.724Z</time></trkpt><trkpt lat="43.6702033" lon="11.1573767"><ele>278.0</ele><time>2026-04-25T16:04:26.725Z</time></trkpt><trkpt lat="43.6703167" lon="11.1571633"><ele>274.33333333333337</ele><time>2026-04-25T16:04:27.724Z</time></trkpt><trkpt lat="43.6704333" lon="11.156945"><ele>270.6666666666667</ele><time>2026-04-25T16:04:28.724Z</time></trkpt><trkpt lat="43.670555" lon="11.1567283"><ele>267.0</ele><time>2026-04-25T16:04:29.723Z</time></trkpt><trkpt lat="43.67068" lon="11.1565183"><ele>264.6666666666667</ele><time>2026-04-25T16:04:30.724Z</time></trkpt><trkpt lat="43.6708067" lon="11.1563233"><ele>262.33333333333337</ele><time>2026-04-25T16:04:31.724Z</time></trkpt><trkpt lat="43.6709417" lon="11.156145"><ele>260.0</ele><time>2026-04-25T16:04:32.723Z</time></trkpt><trkpt lat="43.6710867" lon="11.1559883"><ele>260.0</ele><time>2026-04-25T16:04:33.723Z</time></trkpt><trkpt lat="43.67124" lon="11.1558517"><ele>260.0</ele><time>2026-04-25T16:04:34.724Z</time></trkpt><trkpt lat="43.6713917" lon="11.1557333"><ele>260.0</ele><time>2026-04-25T16:04:35.723Z</time></trkpt><trkpt lat="43.6715417" lon="11.1556233"><ele>257.33333333333337</ele><time>2026-04-25T16:04:36.724Z</time></trkpt><trkpt lat="43.6716867" lon="11.1555167"><ele>254.66666666666669</ele><time>2026-04-25T16:04:37.723Z</time></trkpt><trkpt lat="43.67183" lon="11.1554133"><ele>252.0</ele><time>2026-04-25T16:04:38.725Z</time></trkpt><trkpt lat="43.6719683" lon="11.1553167"><ele>251.5</ele><time>2026-04-25T16:04:39.724Z</time></trkpt><trkpt lat="43.672105" lon="11.155225"><ele>251.0</ele><time>2026-04-25T16:04:40.725Z</time></trkpt><trkpt lat="43.6722333" lon="11.155135"><ele>250.5</ele><time>2026-04-25T16:04:41.726Z</time></trkpt><trkpt lat="43.6723517" lon="11.1550433"><ele>250.0</ele><time>2026-04-25T16:04:42.725Z</time></trkpt><trkpt lat="43.672465" lon="11.15495"><ele>249.0</ele><time>2026-04-25T16:04:43.724Z</time></trkpt><trkpt lat="43.6725717" lon="11.1548667"><ele>248.0</ele><time>2026-04-25T16:04:44.723Z</time></trkpt><trkpt lat="43.6726733" lon="11.1547883"><ele>247.0</ele><time>2026-04-25T16:04:45.724Z</time></trkpt><trkpt lat="43.6727667" lon="11.1547083"><ele>246.0</ele><time>2026-04-25T16:04:46.724Z</time></trkpt><trkpt lat="43.6728633" lon="11.1546317"><ele>246.0</ele><time>2026-04-25T16:04:47.723Z</time></trkpt><trkpt lat="43.6729633" lon="11.1545583"><ele>246.0</ele><time>2026-04-25T16:04:48.724Z</time></trkpt><trkpt lat="43.6730667" lon="11.1544867"><ele>246.0</ele><time>2026-04-25T16:04:49.722Z</time></trkpt><trkpt lat="43.6731683" lon="11.1544183"><ele>246.0</ele><time>2026-04-25T16:04:50.727Z</time></trkpt><trkpt lat="43.6732733" lon="11.1543617"><ele>246.0</ele><time>2026-04-25T16:04:51.723Z</time></trkpt><trkpt lat="43.673375" lon="11.1543083"><ele>246.00000000000003</ele><time>2026-04-25T16:04:52.723Z</time></trkpt><trkpt lat="43.6734733" lon="11.1542517"><ele>246.00000000000003</ele><time>2026-04-25T16:04:53.722Z</time></trkpt><trkpt lat="43.673565" lon="11.1541917"><ele>246.0</ele><time>2026-04-25T16:04:54.724Z</time></trkpt><trkpt lat="43.6736567" lon="11.1541267"><ele>246.0</ele><time>2026-04-25T16:04:55.724Z</time></trkpt><trkpt lat="43.6737467" lon="11.15406"><ele>244.75</ele><time>2026-04-25T16:04:56.726Z</time></trkpt><trkpt lat="43.6738433" lon="11.1539883"><ele>243.5</ele><time>2026-04-25T16:04:57.724Z</time></trkpt><trkpt lat="43.6739483" lon="11.1539083"><ele>242.25</ele><time>2026-04-25T16:04:58.724Z</time></trkpt><trkpt lat="43.67406" lon="11.1538117"><ele>241.0</ele><time>2026-04-25T16:04:59.724Z</time></trkpt><trkpt lat="43.6741817" lon="11.1537033"><ele>241.0</ele><time>2026-04-25T16:05:00.725Z</time></trkpt><trkpt lat="43.6743117" lon="11.1535933"><ele>241.0</ele><time>2026-04-25T16:05:01.725Z</time></trkpt><trkpt lat="43.674445" lon="11.1534783"><ele>241.0</ele><time>2026-04-25T16:05:02.724Z</time></trkpt><trkpt lat="43.67458" lon="11.1533667"><ele>240.5</ele><time>2026-04-25T16:05:03.724Z</time></trkpt><trkpt lat="43.67471" lon="11.153265"><ele>240.0</ele><time>2026-04-25T16:05:04.724Z</time></trkpt><trkpt lat="43.674825" lon="11.1531733"><ele>239.5</ele><time>2026-04-25T16:05:05.724Z</time></trkpt><trkpt lat="43.674925" lon="11.15309"><ele>239.0</ele><time>2026-04-25T16:05:06.723Z</time></trkpt><trkpt lat="43.67502" lon="11.1530167"><ele>239.0</ele><time>2026-04-25T16:05:07.724Z</time></trkpt><trkpt lat="43.6751133" lon="11.15295"><ele>238.99999999999997</ele><time>2026-04-25T16:05:08.726Z</time></trkpt><trkpt lat="43.6751983" lon="11.1528767"><ele>238.99999999999997</ele><time>2026-04-25T16:05:09.725Z</time></trkpt><trkpt lat="43.6752933" lon="11.152805"><ele>239.0</ele><time>2026-04-25T16:05:10.726Z</time></trkpt><trkpt lat="43.6753883" lon="11.1527233"><ele>239.0</ele><time>2026-04-25T16:05:11.724Z</time></trkpt><trkpt lat="43.6754833" lon="11.152625"><ele>240.5</ele><time>2026-04-25T16:05:12.723Z</time></trkpt><trkpt lat="43.6755717" lon="11.1525183"><ele>242.0</ele><time>2026-04-25T16:05:13.723Z</time></trkpt><trkpt lat="43.67566" lon="11.15241"><ele>243.5</ele><time>2026-04-25T16:05:14.722Z</time></trkpt><trkpt lat="43.6757483" lon="11.1522983"><ele>245.0</ele><time>2026-04-25T16:05:15.725Z</time></trkpt><trkpt lat="43.6758383" lon="11.1521867"><ele>245.0</ele><time>2026-04-25T16:05:16.724Z</time></trkpt><trkpt lat="43.6759283" lon="11.152075"><ele>245.0</ele><time>2026-04-25T16:05:17.725Z</time></trkpt><trkpt lat="43.6760167" lon="11.1519633"><ele>245.0</ele><time>2026-04-25T16:05:18.721Z</time></trkpt><trkpt lat="43.6761017" lon="11.1518517"><ele>245.0</ele><time>2026-04-25T16:05:19.722Z</time></trkpt><trkpt lat="43.6761883" lon="11.15175"><ele>243.5</ele><time>2026-04-25T16:05:20.723Z</time></trkpt><trkpt lat="43.6762733" lon="11.1516517"><ele>242.0</ele><time>2026-04-25T16:05:21.724Z</time></trkpt><trkpt lat="43.6763617" lon="11.15156"><ele>240.5</ele><time>2026-04-25T16:05:22.725Z</time></trkpt><trkpt lat="43.67645" lon="11.1514617"><ele>239.0</ele><time>2026-04-25T16:05:23.724Z</time></trkpt><trkpt lat="43.6765367" lon="11.1513533"><ele>239.0</ele><time>2026-04-25T16:05:24.724Z</time></trkpt><trkpt lat="43.6766133" lon="11.1512333"><ele>238.99999999999997</ele><time>2026-04-25T16:05:25.723Z</time></trkpt><trkpt lat="43.6766783" lon="11.1511067"><ele>238.99999999999997</ele><time>2026-04-25T16:05:26.725Z</time></trkpt><trkpt lat="43.6767317" lon="11.1509867"><ele>239.0</ele><time>2026-04-25T16:05:27.725Z</time></trkpt><trkpt lat="43.6767783" lon="11.1508717"><ele>239.0</ele><time>2026-04-25T16:05:28.722Z</time></trkpt><trkpt lat="43.6768317" lon="11.15076"><ele>238.0</ele><time>2026-04-25T16:05:29.721Z</time></trkpt><trkpt lat="43.6769" lon="11.1506517"><ele>237.0</ele><time>2026-04-25T16:05:30.724Z</time></trkpt><trkpt lat="43.67698" lon="11.150545"><ele>236.0</ele><time>2026-04-25T16:05:31.725Z</time></trkpt><trkpt lat="43.6770733" lon="11.15042"><ele>235.0</ele><time>2026-04-25T16:05:32.725Z</time></trkpt><trkpt lat="43.6771717" lon="11.15029"><ele>235.0</ele><time>2026-04-25T16:05:33.724Z</time></trkpt><trkpt lat="43.6772767" lon="11.1501533"><ele>235.0</ele><time>2026-04-25T16:05:34.723Z</time></trkpt><trkpt lat="43.6773767" lon="11.150015"><ele>235.0</ele><time>2026-04-25T16:05:35.726Z</time></trkpt><trkpt lat="43.6774833" lon="11.1498967"><ele>235.0</ele><time>2026-04-25T16:05:36.724Z</time></trkpt><trkpt lat="43.677585" lon="11.1497883"><ele>234.5</ele><time>2026-04-25T16:05:37.723Z</time></trkpt><trkpt lat="43.677685" lon="11.1496717"><ele>234.0</ele><time>2026-04-25T16:05:38.723Z</time></trkpt><trkpt lat="43.6777917" lon="11.1495417"><ele>233.5</ele><time>2026-04-25T16:05:39.723Z</time></trkpt><trkpt lat="43.6778817" lon="11.149405"><ele>233.0</ele><time>2026-04-25T16:05:40.725Z</time></trkpt><trkpt lat="43.67798" lon="11.1492867"><ele>233.0</ele><time>2026-04-25T16:05:41.722Z</time></trkpt><trkpt lat="43.678075" lon="11.1491767"><ele>233.0</ele><time>2026-04-25T16:05:42.724Z</time></trkpt><trkpt lat="43.6781633" lon="11.1490767"><ele>233.0</ele><time>2026-04-25T16:05:43.723Z</time></trkpt><trkpt lat="43.6782433" lon="11.1489817"><ele>233.0</ele><time>2026-04-25T16:05:44.725Z</time></trkpt><trkpt lat="43.6783217" lon="11.1488867"><ele>233.0</ele><time>2026-04-25T16:05:45.723Z</time></trkpt><trkpt lat="43.678395" lon="11.148785"><ele>233.25</ele><time>2026-04-25T16:05:46.725Z</time></trkpt><trkpt lat="43.678475" lon="11.148675"><ele>233.5</ele><time>2026-04-25T16:05:47.724Z</time></trkpt><trkpt lat="43.6785517" lon="11.1485567"><ele>233.75</ele><time>2026-04-25T16:05:48.726Z</time></trkpt><trkpt lat="43.67863" lon="11.14843"><ele>234.0</ele><time>2026-04-25T16:05:49.725Z</time></trkpt><trkpt lat="43.6787017" lon="11.1482917"><ele>234.75</ele><time>2026-04-25T16:05:50.724Z</time></trkpt><trkpt lat="43.6787617" lon="11.1481433"><ele>235.5</ele><time>2026-04-25T16:05:51.725Z</time></trkpt><trkpt lat="43.6788133" lon="11.147995"><ele>236.25</ele><time>2026-04-25T16:05:52.725Z</time></trkpt><trkpt lat="43.67886" lon="11.14785"><ele>237.0</ele><time>2026-04-25T16:05:53.724Z</time></trkpt><trkpt lat="43.6789017" lon="11.147705"><ele>237.0</ele><time>2026-04-25T16:05:54.724Z</time></trkpt><trkpt lat="43.6789467" lon="11.14755"><ele>237.0</ele><time>2026-04-25T16:05:55.724Z</time></trkpt><trkpt lat="43.6789867" lon="11.147385"><ele>237.0</ele><time>2026-04-25T16:05:56.726Z</time></trkpt><trkpt lat="43.6790117" lon="11.1472183"><ele>237.0</ele><time>2026-04-25T16:05:57.725Z</time></trkpt><trkpt lat="43.6790267" lon="11.147025"><ele>236.0</ele><time>2026-04-25T16:05:58.724Z</time></trkpt><trkpt lat="43.679035" lon="11.1468033"><ele>235.0</ele><time>2026-04-25T16:05:59.724Z</time></trkpt><trkpt lat="43.6790467" lon="11.1465617"><ele>234.0</ele><time>2026-04-25T16:06:00.723Z</time></trkpt><trkpt lat="43.6790583" lon="11.14631"><ele>231.0</ele><time>2026-04-25T16:06:01.724Z</time></trkpt><trkpt lat="43.679075" lon="11.146055"><ele>228.0</ele><time>2026-04-25T16:06:02.725Z</time></trkpt><trkpt lat="43.6790933" lon="11.1458067"><ele>225.0</ele><time>2026-04-25T16:06:03.724Z</time></trkpt><trkpt lat="43.6791067" lon="11.1455717"><ele>223.66666666666669</ele><time>2026-04-25T16:06:04.723Z</time></trkpt><trkpt lat="43.67912" lon="11.1453417"><ele>222.33333333333334</ele><time>2026-04-25T16:06:05.726Z</time></trkpt><trkpt lat="43.679145" lon="11.1451217"><ele>221.0</ele><time>2026-04-25T16:06:06.724Z</time></trkpt><trkpt lat="43.6791983" lon="11.144915"><ele>220.66666666666669</ele><time>2026-04-25T16:06:07.725Z</time></trkpt><trkpt lat="43.6792883" lon="11.144735"><ele>220.33333333333331</ele><time>2026-04-25T16:06:08.725Z</time></trkpt><trkpt lat="43.6794083" lon="11.1445883"><ele>220.0</ele><time>2026-04-25T16:06:09.722Z</time></trkpt><trkpt lat="43.679545" lon="11.1444617"><ele>217.33333333333331</ele><time>2026-04-25T16:06:10.723Z</time></trkpt><trkpt lat="43.6796933" lon="11.14434"><ele>214.66666666666669</ele><time>2026-04-25T16:06:11.725Z</time></trkpt><trkpt lat="43.6798433" lon="11.1442133"><ele>212.0</ele><time>2026-04-25T16:06:12.724Z</time></trkpt><trkpt lat="43.6799883" lon="11.1440767"><ele>214.66666666666669</ele><time>2026-04-25T16:06:13.724Z</time></trkpt><trkpt lat="43.6801367" lon="11.14393"><ele>217.33333333333331</ele><time>2026-04-25T16:06:14.725Z</time></trkpt><trkpt lat="43.680295" lon="11.1437817"><ele>220.0</ele><time>2026-04-25T16:06:15.725Z</time></trkpt><trkpt lat="43.680445" lon="11.14363"><ele>216.66666666666666</ele><time>2026-04-25T16:06:16.724Z</time></trkpt><trkpt lat="43.6806017" lon="11.1434767"><ele>213.33333333333331</ele><time>2026-04-25T16:06:17.724Z</time></trkpt><trkpt lat="43.6807567" lon="11.1433283"><ele>210.0</ele><time>2026-04-25T16:06:18.724Z</time></trkpt><trkpt lat="43.6809067" lon="11.143175"><ele>210.0</ele><time>2026-04-25T16:06:19.724Z</time></trkpt><trkpt lat="43.6810533" lon="11.14302"><ele>210.0</ele><time>2026-04-25T16:06:20.724Z</time></trkpt><trkpt lat="43.6811883" lon="11.142865"><ele>210.0</ele><time>2026-04-25T16:06:21.724Z</time></trkpt><trkpt lat="43.681325" lon="11.1427183"><ele>202.33333333333334</ele><time>2026-04-25T16:06:22.723Z</time></trkpt><trkpt lat="43.68145" lon="11.142565"><ele>194.66666666666669</ele><time>2026-04-25T16:06:23.723Z</time></trkpt><trkpt lat="43.6815617" lon="11.1423983"><ele>187.0</ele><time>2026-04-25T16:06:24.724Z</time></trkpt><trkpt lat="43.6816583" lon="11.1421983"><ele>187.0</ele><time>2026-04-25T16:06:25.723Z</time></trkpt><trkpt lat="43.6817283" lon="11.1419883"><ele>187.0</ele><time>2026-04-25T16:06:26.724Z</time></trkpt><trkpt lat="43.6817883" lon="11.14178"><ele>187.0</ele><time>2026-04-25T16:06:27.724Z</time></trkpt><trkpt lat="43.6818567" lon="11.1415883"><ele>181.66666666666669</ele><time>2026-04-25T16:06:28.727Z</time></trkpt><trkpt lat="43.6819567" lon="11.1414167"><ele>176.33333333333334</ele><time>2026-04-25T16:06:29.724Z</time></trkpt><trkpt lat="43.68208" lon="11.1412767"><ele>171.0</ele><time>2026-04-25T16:06:30.723Z</time></trkpt><trkpt lat="43.6822233" lon="11.1411667"><ele>171.0</ele><time>2026-04-25T16:06:31.723Z</time></trkpt><trkpt lat="43.6823683" lon="11.1410867"><ele>171.0</ele><time>2026-04-25T16:06:32.724Z</time></trkpt><trkpt lat="43.6824983" lon="11.1410183"><ele>171.0</ele><time>2026-04-25T16:06:33.724Z</time></trkpt><trkpt lat="43.682605" lon="11.1409267"><ele>171.0</ele><time>2026-04-25T16:06:34.724Z</time></trkpt><trkpt lat="43.6826817" lon="11.1407933"><ele>169.5</ele><time>2026-04-25T16:06:35.725Z</time></trkpt><trkpt lat="43.682735" lon="11.1406383"><ele>168.0</ele><time>2026-04-25T16:06:36.726Z</time></trkpt><trkpt lat="43.6827367" lon="11.1404417"><ele>166.5</ele><time>2026-04-25T16:06:37.725Z</time></trkpt><trkpt lat="43.682705" lon="11.1402183"><ele>165.0</ele><time>2026-04-25T16:06:38.726Z</time></trkpt><trkpt lat="43.6826833" lon="11.1399817"><ele>161.66666666666666</ele><time>2026-04-25T16:06:39.723Z</time></trkpt><trkpt lat="43.6826917" lon="11.1397317"><ele>158.33333333333331</ele><time>2026-04-25T16:06:40.725Z</time></trkpt><trkpt lat="43.682735" lon="11.1394783"><ele>155.0</ele><time>2026-04-25T16:06:41.724Z</time></trkpt><trkpt lat="43.6827833" lon="11.1392217"><ele>151.0</ele><time>2026-04-25T16:06:42.724Z</time></trkpt><trkpt lat="43.682825" lon="11.13896"><ele>147.0</ele><time>2026-04-25T16:06:43.725Z</time></trkpt><trkpt lat="43.6828633" lon="11.1386983"><ele>143.0</ele><time>2026-04-25T16:06:44.725Z</time></trkpt><trkpt lat="43.682895" lon="11.1384283"><ele>141.33333333333331</ele><time>2026-04-25T16:06:45.724Z</time></trkpt><trkpt lat="43.6829283" lon="11.1381633"><ele>139.66666666666666</ele><time>2026-04-25T16:06:46.723Z</time></trkpt><trkpt lat="43.6829717" lon="11.1379083"><ele>138.0</ele><time>2026-04-25T16:06:47.726Z</time></trkpt><trkpt lat="43.6830233" lon="11.1376617"><ele>138.0</ele><time>2026-04-25T16:06:48.725Z</time></trkpt><trkpt lat="43.68308" lon="11.1374283"><ele>138.0</ele><time>2026-04-25T16:06:49.723Z</time></trkpt><trkpt lat="43.6831333" lon="11.1372017"><ele>138.0</ele><time>2026-04-25T16:06:50.725Z</time></trkpt><trkpt lat="43.6831833" lon="11.1369867"><ele>137.5</ele><time>2026-04-25T16:06:51.723Z</time></trkpt><trkpt lat="43.6832333" lon="11.1367833"><ele>137.0</ele><time>2026-04-25T16:06:52.724Z</time></trkpt><trkpt lat="43.6832683" lon="11.1365967"><ele>136.5</ele><time>2026-04-25T16:06:53.725Z</time></trkpt><trkpt lat="43.68329" lon="11.1364183"><ele>136.0</ele><time>2026-04-25T16:06:54.724Z</time></trkpt><trkpt lat="43.6832683" lon="11.136245"><ele>134.5</ele><time>2026-04-25T16:06:55.724Z</time></trkpt><trkpt lat="43.6832033" lon="11.1360783"><ele>133.0</ele><time>2026-04-25T16:06:56.726Z</time></trkpt><trkpt lat="43.6831133" lon="11.1359133"><ele>131.5</ele><time>2026-04-25T16:06:57.725Z</time></trkpt><trkpt lat="43.683015" lon="11.1357367"><ele>130.0</ele><time>2026-04-25T16:06:58.725Z</time></trkpt><trkpt lat="43.6829317" lon="11.1355367"><ele>127.0</ele><time>2026-04-25T16:06:59.723Z</time></trkpt><trkpt lat="43.6828717" lon="11.135315"><ele>124.0</ele><time>2026-04-25T16:07:00.725Z</time></trkpt><trkpt lat="43.68283" lon="11.1350783"><ele>121.0</ele><time>2026-04-25T16:07:01.723Z</time></trkpt><trkpt lat="43.6827967" lon="11.1348383"><ele>120.0</ele><time>2026-04-25T16:07:02.723Z</time></trkpt><trkpt lat="43.6827717" lon="11.1346083"><ele>119.0</ele><time>2026-04-25T16:07:03.725Z</time></trkpt><trkpt lat="43.6827583" lon="11.134385"><ele>118.0</ele><time>2026-04-25T16:07:04.724Z</time></trkpt><trkpt lat="43.68276" lon="11.1341717"><ele>115.5</ele><time>2026-04-25T16:07:05.723Z</time></trkpt><trkpt lat="43.682775" lon="11.13397"><ele>113.0</ele><time>2026-04-25T16:07:06.723Z</time></trkpt><trkpt lat="43.682795" lon="11.1337733"><ele>110.5</ele><time>2026-04-25T16:07:07.725Z</time></trkpt><trkpt lat="43.6828117" lon="11.1335933"><ele>108.0</ele><time>2026-04-25T16:07:08.725Z</time></trkpt><trkpt lat="43.682825" lon="11.1334133"><ele>108.0</ele><time>2026-04-25T16:07:09.725Z</time></trkpt><trkpt lat="43.6828383" lon="11.133235"><ele>108.0</ele><time>2026-04-25T16:07:10.723Z</time></trkpt><trkpt lat="43.6828517" lon="11.1330633"><ele>108.0</ele><time>2026-04-25T16:07:11.725Z</time></trkpt><trkpt lat="43.6828583" lon="11.1329033"><ele>108.0</ele><time>2026-04-25T16:07:12.724Z</time></trkpt><trkpt lat="43.6828617" lon="11.1327483"><ele>105.5</ele><time>2026-04-25T16:07:13.724Z</time></trkpt><trkpt lat="43.6828633" lon="11.132595"><ele>103.0</ele><time>2026-04-25T16:07:14.723Z</time></trkpt><trkpt lat="43.68286" lon="11.1324483"><ele>100.5</ele><time>2026-04-25T16:07:15.723Z</time></trkpt><trkpt lat="43.6828567" lon="11.13228"><ele>98.0</ele><time>2026-04-25T16:07:16.724Z</time></trkpt><trkpt lat="43.6828483" lon="11.1320883"><ele>96.66666666666666</ele><time>2026-04-25T16:07:17.724Z</time></trkpt><trkpt lat="43.6828383" lon="11.1318817"><ele>95.33333333333333</ele><time>2026-04-25T16:07:18.724Z</time></trkpt><trkpt lat="43.682835" lon="11.131665"><ele>94.0</ele><time>2026-04-25T16:07:19.725Z</time></trkpt><trkpt lat="43.6828283" lon="11.131445"><ele>92.33333333333333</ele><time>2026-04-25T16:07:20.725Z</time></trkpt><trkpt lat="43.6828183" lon="11.13123"><ele>90.66666666666667</ele><time>2026-04-25T16:07:21.723Z</time></trkpt><trkpt lat="43.6828067" lon="11.1310167"><ele>89.0</ele><time>2026-04-25T16:07:22.724Z</time></trkpt><trkpt lat="43.6827967" lon="11.1308067"><ele>88.0</ele><time>2026-04-25T16:07:23.724Z</time></trkpt><trkpt lat="43.6827833" lon="11.1306083"><ele>87.0</ele><time>2026-04-25T16:07:24.724Z</time></trkpt><trkpt lat="43.6827833" lon="11.13042"><ele>86.0</ele><time>2026-04-25T16:07:25.724Z</time></trkpt><trkpt lat="43.682795" lon="11.1302433"><ele>85.0</ele><time>2026-04-25T16:07:26.724Z</time></trkpt><trkpt lat="43.6828283" lon="11.1300617"><ele>85.0</ele><time>2026-04-25T16:07:27.722Z</time></trkpt><trkpt lat="43.6828883" lon="11.129905"><ele>85.0</ele><time>2026-04-25T16:07:28.724Z</time></trkpt><trkpt lat="43.6829767" lon="11.1297617"><ele>85.0</ele><time>2026-04-25T16:07:29.723Z</time></trkpt><trkpt lat="43.6830817" lon="11.12963"><ele>85.0</ele><time>2026-04-25T16:07:30.725Z</time></trkpt><trkpt lat="43.6832" lon="11.1295083"><ele>84.25</ele><time>2026-04-25T16:07:31.725Z</time></trkpt><trkpt lat="43.6833217" lon="11.12939"><ele>83.5</ele><time>2026-04-25T16:07:32.725Z</time></trkpt><trkpt lat="43.683445" lon="11.12928"><ele>82.75</ele><time>2026-04-25T16:07:33.723Z</time></trkpt><trkpt lat="43.683565" lon="11.1291767"><ele>82.0</ele><time>2026-04-25T16:07:34.724Z</time></trkpt><trkpt lat="43.68368" lon="11.1290733"><ele>82.0</ele><time>2026-04-25T16:07:35.727Z</time></trkpt><trkpt lat="43.68379" lon="11.1289733"><ele>82.0</ele><time>2026-04-25T16:07:36.724Z</time></trkpt><trkpt lat="43.6838967" lon="11.1288767"><ele>82.0</ele><time>2026-04-25T16:07:37.725Z</time></trkpt><trkpt lat="43.6839967" lon="11.1287817"><ele>82.0</ele><time>2026-04-25T16:07:38.724Z</time></trkpt><trkpt lat="43.6840933" lon="11.1286917"><ele>82.0</ele><time>2026-04-25T16:07:39.725Z</time></trkpt><trkpt lat="43.6841783" lon="11.128605"><ele>82.0</ele><time>2026-04-25T16:07:40.724Z</time></trkpt><trkpt lat="43.68425" lon="11.1285217"><ele>82.0</ele><time>2026-04-25T16:07:41.724Z</time></trkpt><trkpt lat="43.684315" lon="11.1284533"><ele>82.0</ele><time>2026-04-25T16:07:42.724Z</time></trkpt><trkpt lat="43.6843683" lon="11.1284033"><ele>82.0</ele><time>2026-04-25T16:07:43.724Z</time></trkpt><trkpt lat="43.68447" lon="11.1283633"><ele>82.33333333333333</ele><time>2026-04-25T16:07:45.724Z</time></trkpt><trkpt lat="43.6845633" lon="11.1284233"><ele>82.66666666666666</ele><time>2026-04-25T16:07:47.723Z</time></trkpt><trkpt lat="43.6846083" lon="11.1284867"><ele>83.0</ele><time>2026-04-25T16:07:48.725Z</time></trkpt><trkpt lat="43.6846533" lon="11.1285767"><ele>83.33333333333333</ele><time>2026-04-25T16:07:49.724Z</time></trkpt><trkpt lat="43.6846967" lon="11.1286767"><ele>83.66666666666667</ele><time>2026-04-25T16:07:50.726Z</time></trkpt><trkpt lat="43.6847367" lon="11.1287833"><ele>84.0</ele><time>2026-04-25T16:07:51.724Z</time></trkpt><trkpt lat="43.6847783" lon="11.1288983"><ele>84.0</ele><time>2026-04-25T16:07:52.722Z</time></trkpt><trkpt lat="43.68482" lon="11.1290183"><ele>84.0</ele><time>2026-04-25T16:07:53.724Z</time></trkpt><trkpt lat="43.6848633" lon="11.1291383"><ele>84.0</ele><time>2026-04-25T16:07:54.724Z</time></trkpt><trkpt lat="43.6849117" lon="11.1292517"><ele>84.0</ele><time>2026-04-25T16:07:55.724Z</time></trkpt><trkpt lat="43.6849483" lon="11.1293683"><ele>84.0</ele><time>2026-04-25T16:07:56.723Z</time></trkpt><trkpt lat="43.684995" lon="11.1294933"><ele>84.2</ele><time>2026-04-25T16:07:57.724Z</time></trkpt><trkpt lat="43.6850617" lon="11.1296"><ele>84.4</ele><time>2026-04-25T16:07:58.723Z</time></trkpt><trkpt lat="43.6851433" lon="11.1297067"><ele>84.6</ele><time>2026-04-25T16:07:59.725Z</time></trkpt><trkpt lat="43.6852217" lon="11.129795"><ele>84.8</ele><time>2026-04-25T16:08:00.726Z</time></trkpt><trkpt lat="43.6852983" lon="11.1298783"><ele>85.0</ele><time>2026-04-25T16:08:01.724Z</time></trkpt><trkpt lat="43.6853783" lon="11.12996"><ele>86.0</ele><time>2026-04-25T16:08:02.726Z</time></trkpt><trkpt lat="43.6854567" lon="11.1300433"><ele>87.0</ele><time>2026-04-25T16:08:03.724Z</time></trkpt><trkpt lat="43.6855283" lon="11.1301283"><ele>88.0</ele><time>2026-04-25T16:08:04.726Z</time></trkpt><trkpt lat="43.685605" lon="11.13022"><ele>89.0</ele><time>2026-04-25T16:08:05.725Z</time></trkpt><trkpt lat="43.6856833" lon="11.1303017"><ele>90.0</ele><time>2026-04-25T16:08:06.725Z</time></trkpt><trkpt lat="43.68576" lon="11.1303783"><ele>90.0</ele><time>2026-04-25T16:08:07.725Z</time></trkpt><trkpt lat="43.6858317" lon="11.1304567"><ele>90.0</ele><time>2026-04-25T16:08:08.725Z</time></trkpt><trkpt lat="43.685905" lon="11.1305317"><ele>90.0</ele><time>2026-04-25T16:08:09.723Z</time></trkpt><trkpt lat="43.6859783" lon="11.130605"><ele>90.0</ele><time>2026-04-25T16:08:10.724Z</time></trkpt><trkpt lat="43.6860517" lon="11.1306817"><ele>90.0</ele><time>2026-04-25T16:08:11.724Z</time></trkpt><trkpt lat="43.6861433" lon="11.1307617"><ele>90.8</ele><time>2026-04-25T16:08:12.724Z</time></trkpt><trkpt lat="43.6862233" lon="11.1308383"><ele>91.6</ele><time>2026-04-25T16:08:13.723Z</time></trkpt><trkpt lat="43.6863233" lon="11.130915"><ele>92.4</ele><time>2026-04-25T16:08:14.725Z</time></trkpt><trkpt lat="43.6864" lon="11.130995"><ele>93.2</ele><time>2026-04-25T16:08:15.725Z</time></trkpt><trkpt lat="43.6864683" lon="11.1310583"><ele>94.0</ele><time>2026-04-25T16:08:16.723Z</time></trkpt><trkpt lat="43.6865317" lon="11.13112"><ele>94.0</ele><time>2026-04-25T16:08:17.726Z</time></trkpt><trkpt lat="43.6865983" lon="11.13118"><ele>94.0</ele><time>2026-04-25T16:08:18.723Z</time></trkpt><trkpt lat="43.6866533" lon="11.1312433"><ele>94.0</ele><time>2026-04-25T16:08:19.723Z</time></trkpt><trkpt lat="43.6867017" lon="11.131305"><ele>94.0</ele><time>2026-04-25T16:08:20.724Z</time></trkpt><trkpt lat="43.686795" lon="11.1314183"><ele>94.0</ele><time>2026-04-25T16:08:22.724Z</time></trkpt><trkpt lat="43.6868983" lon="11.1315667"><ele>94.75</ele><time>2026-04-25T16:08:24.723Z</time></trkpt><trkpt lat="43.6869783" lon="11.1316933"><ele>95.5</ele><time>2026-04-25T16:08:25.724Z</time></trkpt><trkpt lat="43.687065" lon="11.1318517"><ele>96.25</ele><time>2026-04-25T16:08:26.725Z</time></trkpt><trkpt lat="43.6871483" lon="11.1320067"><ele>97.0</ele><time>2026-04-25T16:08:27.725Z</time></trkpt><trkpt lat="43.68723" lon="11.132155"><ele>97.0</ele><time>2026-04-25T16:08:28.724Z</time></trkpt><trkpt lat="43.687305" lon="11.1322917"><ele>97.0</ele><time>2026-04-25T16:08:29.725Z</time></trkpt><trkpt lat="43.687375" lon="11.132425"><ele>97.0</ele><time>2026-04-25T16:08:30.725Z</time></trkpt><trkpt lat="43.68743" lon="11.132575"><ele>97.0</ele><time>2026-04-25T16:08:31.724Z</time></trkpt><trkpt lat="43.6874733" lon="11.1327267"><ele>97.75</ele><time>2026-04-25T16:08:32.723Z</time></trkpt><trkpt lat="43.687515" lon="11.1329"><ele>98.5</ele><time>2026-04-25T16:08:33.725Z</time></trkpt><trkpt lat="43.6875533" lon="11.1330767"><ele>99.25</ele><time>2026-04-25T16:08:34.725Z</time></trkpt><trkpt lat="43.68758" lon="11.1332533"><ele>100.0</ele><time>2026-04-25T16:08:35.725Z</time></trkpt><trkpt lat="43.687605" lon="11.1334217"><ele>100.25</ele><time>2026-04-25T16:08:36.724Z</time></trkpt><trkpt lat="43.68764" lon="11.13359"><ele>100.5</ele><time>2026-04-25T16:08:37.724Z</time></trkpt><trkpt lat="43.6877" lon="11.133775"><ele>100.75</ele><time>2026-04-25T16:08:38.724Z</time></trkpt><trkpt lat="43.6877583" lon="11.133945"><ele>101.0</ele><time>2026-04-25T16:08:39.724Z</time></trkpt><trkpt lat="43.6878233" lon="11.1341267"><ele>102.66666666666666</ele><time>2026-04-25T16:08:40.725Z</time></trkpt><trkpt lat="43.6878833" lon="11.1343217"><ele>104.33333333333334</ele><time>2026-04-25T16:08:41.724Z</time></trkpt><trkpt lat="43.6879533" lon="11.1345367"><ele>106.0</ele><time>2026-04-25T16:08:42.723Z</time></trkpt><trkpt lat="43.6880317" lon="11.134745"><ele>106.33333333333334</ele><time>2026-04-25T16:08:43.725Z</time></trkpt><trkpt lat="43.6881233" lon="11.1349517"><ele>106.66666666666666</ele><time>2026-04-25T16:08:44.724Z</time></trkpt><trkpt lat="43.68822" lon="11.1351483"><ele>107.0</ele><time>2026-04-25T16:08:45.723Z</time></trkpt><trkpt lat="43.6883217" lon="11.1353383"><ele>107.0</ele><time>2026-04-25T16:08:46.724Z</time></trkpt><trkpt lat="43.688425" lon="11.1355567"><ele>107.0</ele><time>2026-04-25T16:08:47.725Z</time></trkpt><trkpt lat="43.6885217" lon="11.1357667"><ele>107.0</ele><time>2026-04-25T16:08:48.725Z</time></trkpt><trkpt lat="43.68862" lon="11.1359867"><ele>107.66666666666666</ele><time>2026-04-25T16:08:49.723Z</time></trkpt><trkpt lat="43.68873" lon="11.1361967"><ele>108.33333333333334</ele><time>2026-04-25T16:08:50.723Z</time></trkpt><trkpt lat="43.68885" lon="11.1363733"><ele>109.0</ele><time>2026-04-25T16:08:51.724Z</time></trkpt><trkpt lat="43.6889867" lon="11.1365317"><ele>111.0</ele><time>2026-04-25T16:08:52.725Z</time></trkpt><trkpt lat="43.6891333" lon="11.1366767"><ele>113.0</ele><time>2026-04-25T16:08:53.724Z</time></trkpt><trkpt lat="43.6892783" lon="11.1368183"><ele>115.0</ele><time>2026-04-25T16:08:54.724Z</time></trkpt><trkpt lat="43.6894083" lon="11.1369767"><ele>114.33333333333334</ele><time>2026-04-25T16:08:55.724Z</time></trkpt><trkpt lat="43.689515" lon="11.1371517"><ele>113.66666666666666</ele><time>2026-04-25T16:08:56.725Z</time></trkpt><trkpt lat="43.6896" lon="11.1373433"><ele>113.0</ele><time>2026-04-25T16:08:57.725Z</time></trkpt><trkpt lat="43.6896717" lon="11.13755"><ele>114.33333333333333</ele><time>2026-04-25T16:08:58.724Z</time></trkpt><trkpt lat="43.68974" lon="11.1377683"><ele>115.66666666666666</ele><time>2026-04-25T16:08:59.724Z</time></trkpt><trkpt lat="43.6898133" lon="11.1379967"><ele>117.0</ele><time>2026-04-25T16:09:00.724Z</time></trkpt><trkpt lat="43.6898933" lon="11.1382267"><ele>118.33333333333334</ele><time>2026-04-25T16:09:01.724Z</time></trkpt><trkpt lat="43.6899817" lon="11.1384717"><ele>119.66666666666667</ele><time>2026-04-25T16:09:02.725Z</time></trkpt><trkpt lat="43.690075" lon="11.1387017"><ele>121.0</ele><time>2026-04-25T16:09:03.725Z</time></trkpt><trkpt lat="43.6901667" lon="11.1389167"><ele>121.0</ele><time>2026-04-25T16:09:04.724Z</time></trkpt><trkpt lat="43.6902467" lon="11.13913"><ele>121.0</ele><time>2026-04-25T16:09:05.723Z</time></trkpt><trkpt lat="43.6903133" lon="11.1393417"><ele>121.0</ele><time>2026-04-25T16:09:06.725Z</time></trkpt><trkpt lat="43.69037" lon="11.1395517"><ele>121.0</ele><time>2026-04-25T16:09:07.724Z</time></trkpt><trkpt lat="43.6904267" lon="11.13977"><ele>121.0</ele><time>2026-04-25T16:09:08.726Z</time></trkpt><trkpt lat="43.690495" lon="11.139995"><ele>121.0</ele><time>2026-04-25T16:09:09.723Z</time></trkpt><trkpt lat="43.6905783" lon="11.1402167"><ele>123.33333333333334</ele><time>2026-04-25T16:09:10.724Z</time></trkpt><trkpt lat="43.6906717" lon="11.1404467"><ele>125.66666666666666</ele><time>2026-04-25T16:09:11.725Z</time></trkpt><trkpt lat="43.69076" lon="11.14068"><ele>128.0</ele><time>2026-04-25T16:09:12.724Z</time></trkpt><trkpt lat="43.6908367" lon="11.1409183"><ele>128.66666666666666</ele><time>2026-04-25T16:09:13.725Z</time></trkpt><trkpt lat="43.6909" lon="11.141165"><ele>129.33333333333334</ele><time>2026-04-25T16:09:14.725Z</time></trkpt><trkpt lat="43.6909583" lon="11.1414083"><ele>130.0</ele><time>2026-04-25T16:09:15.723Z</time></trkpt><trkpt lat="43.691015" lon="11.1416483"><ele>131.33333333333334</ele><time>2026-04-25T16:09:16.724Z</time></trkpt><trkpt lat="43.6910683" lon="11.1418683"><ele>132.66666666666666</ele><time>2026-04-25T16:09:17.724Z</time></trkpt><trkpt lat="43.691135" lon="11.1420683"><ele>134.0</ele><time>2026-04-25T16:09:18.724Z</time></trkpt><trkpt lat="43.6912217" lon="11.1422567"><ele>137.33333333333331</ele><time>2026-04-25T16:09:19.725Z</time></trkpt><trkpt lat="43.691325" lon="11.1424333"><ele>140.66666666666666</ele><time>2026-04-25T16:09:20.727Z</time></trkpt><trkpt lat="43.6914433" lon="11.142605"><ele>144.0</ele><time>2026-04-25T16:09:21.724Z</time></trkpt><trkpt lat="43.6915567" lon="11.1427933"><ele>144.0</ele><time>2026-04-25T16:09:22.724Z</time></trkpt><trkpt lat="43.6916567" lon="11.143005"><ele>144.0</ele><time>2026-04-25T16:09:23.724Z</time></trkpt><trkpt lat="43.6917533" lon="11.1432217"><ele>144.0</ele><time>2026-04-25T16:09:24.722Z</time></trkpt><trkpt lat="43.691855" lon="11.143435"><ele>148.33333333333334</ele><time>2026-04-25T16:09:25.723Z</time></trkpt><trkpt lat="43.6919567" lon="11.1436583"><ele>152.66666666666669</ele><time>2026-04-25T16:09:26.725Z</time></trkpt><trkpt lat="43.6920483" lon="11.1438883"><ele>157.0</ele><time>2026-04-25T16:09:27.725Z</time></trkpt><trkpt lat="43.6921367" lon="11.1441233"><ele>160.66666666666669</ele><time>2026-04-25T16:09:28.724Z</time></trkpt><trkpt lat="43.692225" lon="11.1443667"><ele>164.33333333333334</ele><time>2026-04-25T16:09:29.725Z</time></trkpt><trkpt lat="43.6923083" lon="11.1446033"><ele>168.0</ele><time>2026-04-25T16:09:30.725Z</time></trkpt><trkpt lat="43.6924033" lon="11.1448367"><ele>169.0</ele><time>2026-04-25T16:09:31.724Z</time></trkpt><trkpt lat="43.69251" lon="11.1450667"><ele>170.0</ele><time>2026-04-25T16:09:32.724Z</time></trkpt><trkpt lat="43.6926183" lon="11.1452967"><ele>171.0</ele><time>2026-04-25T16:09:33.722Z</time></trkpt><trkpt lat="43.6927367" lon="11.14552"><ele>175.0</ele><time>2026-04-25T16:09:34.723Z</time></trkpt><trkpt lat="43.6928617" lon="11.1457383"><ele>179.0</ele><time>2026-04-25T16:09:35.724Z</time></trkpt><trkpt lat="43.692985" lon="11.14595"><ele>183.0</ele><time>2026-04-25T16:09:36.724Z</time></trkpt><trkpt lat="43.6931083" lon="11.1461583"><ele>183.0</ele><time>2026-04-25T16:09:37.725Z</time></trkpt><trkpt lat="43.69322" lon="11.1463533"><ele>183.0</ele><time>2026-04-25T16:09:38.725Z</time></trkpt><trkpt lat="43.6933133" lon="11.14655"><ele>183.0</ele><time>2026-04-25T16:09:39.725Z</time></trkpt><trkpt lat="43.69339" lon="11.1467417"><ele>184.33333333333334</ele><time>2026-04-25T16:09:40.724Z</time></trkpt><trkpt lat="43.6934483" lon="11.1469533"><ele>185.66666666666669</ele><time>2026-04-25T16:09:41.722Z</time></trkpt><trkpt lat="43.6934933" lon="11.1471867"><ele>187.0</ele><time>2026-04-25T16:09:42.723Z</time></trkpt><trkpt lat="43.693535" lon="11.1474317"><ele>187.0</ele><time>2026-04-25T16:09:43.724Z</time></trkpt><trkpt lat="43.69357" lon="11.1476917"><ele>187.0</ele><time>2026-04-25T16:09:44.725Z</time></trkpt><trkpt lat="43.693605" lon="11.1479667"><ele>187.0</ele><time>2026-04-25T16:09:45.723Z</time></trkpt><trkpt lat="43.6936433" lon="11.1482467"><ele>187.66666666666669</ele><time>2026-04-25T16:09:46.724Z</time></trkpt><trkpt lat="43.6936833" lon="11.1485267"><ele>188.33333333333334</ele><time>2026-04-25T16:09:47.725Z</time></trkpt><trkpt lat="43.6937233" lon="11.1488167"><ele>189.0</ele><time>2026-04-25T16:09:48.723Z</time></trkpt><trkpt lat="43.69376" lon="11.1491117"><ele>189.0</ele><time>2026-04-25T16:09:49.723Z</time></trkpt><trkpt lat="43.693795" lon="11.14941"><ele>189.0</ele><time>2026-04-25T16:09:50.725Z</time></trkpt><trkpt lat="43.6938267" lon="11.1496967"><ele>189.0</ele><time>2026-04-25T16:09:51.722Z</time></trkpt><trkpt lat="43.693855" lon="11.1499783"><ele>193.33333333333331</ele><time>2026-04-25T16:09:52.724Z</time></trkpt><trkpt lat="43.6938833" lon="11.1502433"><ele>197.66666666666666</ele><time>2026-04-25T16:09:53.725Z</time></trkpt><trkpt lat="43.6939217" lon="11.150475"><ele>202.0</ele><time>2026-04-25T16:09:54.724Z</time></trkpt><trkpt lat="43.6939767" lon="11.150675"><ele>203.5</ele><time>2026-04-25T16:09:55.724Z</time></trkpt><trkpt lat="43.694045" lon="11.15085"><ele>205.0</ele><time>2026-04-25T16:09:56.724Z</time></trkpt><trkpt lat="43.6941217" lon="11.1510117"><ele>206.5</ele><time>2026-04-25T16:09:57.724Z</time></trkpt><trkpt lat="43.6941967" lon="11.15116"><ele>208.0</ele><time>2026-04-25T16:09:58.724Z</time></trkpt><trkpt lat="43.6942717" lon="11.1513117"><ele>208.0</ele><time>2026-04-25T16:09:59.725Z</time></trkpt><trkpt lat="43.694345" lon="11.1515017"><ele>208.0</ele><time>2026-04-25T16:10:00.723Z</time></trkpt><trkpt lat="43.694415" lon="11.1517117"><ele>208.0</ele><time>2026-04-25T16:10:01.722Z</time></trkpt><trkpt lat="43.6944783" lon="11.15194"><ele>203.33333333333331</ele><time>2026-04-25T16:10:02.724Z</time></trkpt><trkpt lat="43.6945333" lon="11.1521783"><ele>198.66666666666669</ele><time>2026-04-25T16:10:03.725Z</time></trkpt><trkpt lat="43.6945867" lon="11.1524083"><ele>194.0</ele><time>2026-04-25T16:10:04.725Z</time></trkpt><trkpt lat="43.6946433" lon="11.1526267"><ele>194.0</ele><time>2026-04-25T16:10:05.725Z</time></trkpt><trkpt lat="43.694715" lon="11.152825"><ele>194.0</ele><time>2026-04-25T16:10:06.725Z</time></trkpt><trkpt lat="43.69482" lon="11.1529917"><ele>194.0</ele><time>2026-04-25T16:10:07.724Z</time></trkpt><trkpt lat="43.694955" lon="11.1531417"><ele>195.66666666666669</ele><time>2026-04-25T16:10:08.726Z</time></trkpt><trkpt lat="43.695105" lon="11.1532867"><ele>197.33333333333331</ele><time>2026-04-25T16:10:09.725Z</time></trkpt><trkpt lat="43.6952583" lon="11.1534333"><ele>199.0</ele><time>2026-04-25T16:10:10.725Z</time></trkpt><trkpt lat="43.6954083" lon="11.1535817"><ele>199.0</ele><time>2026-04-25T16:10:11.723Z</time></trkpt><trkpt lat="43.695545" lon="11.1537483"><ele>199.0</ele><time>2026-04-25T16:10:12.724Z</time></trkpt><trkpt lat="43.6956567" lon="11.1539333"><ele>199.0</ele><time>2026-04-25T16:10:13.724Z</time></trkpt><trkpt lat="43.6957567" lon="11.154145"><ele>201.0</ele><time>2026-04-25T16:10:14.725Z</time></trkpt><trkpt lat="43.6958533" lon="11.154355"><ele>203.0</ele><time>2026-04-25T16:10:15.724Z</time></trkpt><trkpt lat="43.6959417" lon="11.1545517"><ele>205.0</ele><time>2026-04-25T16:10:16.723Z</time></trkpt><trkpt lat="43.6960067" lon="11.1547367"><ele>205.0</ele><time>2026-04-25T16:10:17.723Z</time></trkpt><trkpt lat="43.6960417" lon="11.1549283"><ele>205.0</ele><time>2026-04-25T16:10:18.723Z</time></trkpt><trkpt lat="43.69605" lon="11.1551267"><ele>205.0</ele><time>2026-04-25T16:10:19.725Z</time></trkpt><trkpt lat="43.6960167" lon="11.155295"><ele>205.0</ele><time>2026-04-25T16:10:20.725Z</time></trkpt><trkpt lat="43.69598" lon="11.155475"><ele>205.0</ele><time>2026-04-25T16:10:21.724Z</time></trkpt><trkpt lat="43.69596" lon="11.1556483"><ele>205.0</ele><time>2026-04-25T16:10:22.724Z</time></trkpt><trkpt lat="43.69596" lon="11.1558217"><ele>205.0</ele><time>2026-04-25T16:10:23.725Z</time></trkpt><trkpt lat="43.6959717" lon="11.1560267"><ele>205.0</ele><time>2026-04-25T16:10:24.724Z</time></trkpt><trkpt lat="43.6959733" lon="11.15623"><ele>207.5</ele><time>2026-04-25T16:10:25.726Z</time></trkpt><trkpt lat="43.6959717" lon="11.156415"><ele>210.0</ele><time>2026-04-25T16:10:26.724Z</time></trkpt><trkpt lat="43.6959667" lon="11.1566117"><ele>212.5</ele><time>2026-04-25T16:10:27.725Z</time></trkpt><trkpt lat="43.69595" lon="11.1568067"><ele>215.0</ele><time>2026-04-25T16:10:28.725Z</time></trkpt><trkpt lat="43.6959233" lon="11.1570083"><ele>218.33333333333334</ele><time>2026-04-25T16:10:29.725Z</time></trkpt><trkpt lat="43.6959033" lon="11.15721"><ele>221.66666666666669</ele><time>2026-04-25T16:10:30.725Z</time></trkpt><trkpt lat="43.6959067" lon="11.1574333"><ele>225.0</ele><time>2026-04-25T16:10:31.725Z</time></trkpt><trkpt lat="43.69592" lon="11.1576517"><ele>226.5</ele><time>2026-04-25T16:10:32.726Z</time></trkpt><trkpt lat="43.6959367" lon="11.15786"><ele>228.0</ele><time>2026-04-25T16:10:33.723Z</time></trkpt><trkpt lat="43.6959667" lon="11.1580433"><ele>229.5</ele><time>2026-04-25T16:10:34.725Z</time></trkpt><trkpt lat="43.696005" lon="11.1582217"><ele>231.0</ele><time>2026-04-25T16:10:35.725Z</time></trkpt><trkpt lat="43.696045" lon="11.1583867"><ele>230.5</ele><time>2026-04-25T16:10:36.725Z</time></trkpt><trkpt lat="43.696085" lon="11.1585517"><ele>230.0</ele><time>2026-04-25T16:10:37.725Z</time></trkpt><trkpt lat="43.6961183" lon="11.158725"><ele>229.5</ele><time>2026-04-25T16:10:38.726Z</time></trkpt><trkpt lat="43.6961533" lon="11.158865"><ele>229.0</ele><time>2026-04-25T16:10:39.725Z</time></trkpt><trkpt lat="43.6961767" lon="11.1590017"><ele>230.39999999999998</ele><time>2026-04-25T16:10:40.725Z</time></trkpt><trkpt lat="43.6962083" lon="11.1591367"><ele>231.79999999999998</ele><time>2026-04-25T16:10:41.724Z</time></trkpt><trkpt lat="43.6962517" lon="11.159265"><ele>233.20000000000002</ele><time>2026-04-25T16:10:42.726Z</time></trkpt><trkpt lat="43.6963117" lon="11.1593833"><ele>234.60000000000002</ele><time>2026-04-25T16:10:43.726Z</time></trkpt><trkpt lat="43.6963883" lon="11.159495"><ele>236.0</ele><time>2026-04-25T16:10:44.727Z</time></trkpt><trkpt lat="43.696465" lon="11.1596083"><ele>236.00000000000003</ele><time>2026-04-25T16:10:45.724Z</time></trkpt><trkpt lat="43.6965383" lon="11.1597083"><ele>236.0</ele><time>2026-04-25T16:10:46.725Z</time></trkpt><trkpt lat="43.6966083" lon="11.159785"><ele>236.0</ele><time>2026-04-25T16:10:47.724Z</time></trkpt><trkpt lat="43.696675" lon="11.1598367"><ele>236.0</ele><time>2026-04-25T16:10:48.725Z</time></trkpt><trkpt lat="43.696745" lon="11.1598783"><ele>236.00000000000003</ele><time>2026-04-25T16:10:49.724Z</time></trkpt><trkpt lat="43.6968233" lon="11.1599117"><ele>236.0</ele><time>2026-04-25T16:10:50.724Z</time></trkpt><trkpt lat="43.6969083" lon="11.1599683"><ele>236.0</ele><time>2026-04-25T16:10:51.725Z</time></trkpt><trkpt lat="43.697" lon="11.16004"><ele>236.0</ele><time>2026-04-25T16:10:52.727Z</time></trkpt><trkpt lat="43.6970967" lon="11.1601367"><ele>236.0</ele><time>2026-04-25T16:10:53.724Z</time></trkpt><trkpt lat="43.69719" lon="11.16025"><ele>236.0</ele><time>2026-04-25T16:10:54.725Z</time></trkpt><trkpt lat="43.6972867" lon="11.1603733"><ele>236.0</ele><time>2026-04-25T16:10:55.726Z</time></trkpt><trkpt lat="43.6973817" lon="11.1604933"><ele>236.0</ele><time>2026-04-25T16:10:56.726Z</time></trkpt><trkpt lat="43.6974683" lon="11.1606"><ele>236.0</ele><time>2026-04-25T16:10:57.725Z</time></trkpt><trkpt lat="43.6975533" lon="11.1607133"><ele>236.0</ele><time>2026-04-25T16:10:58.725Z</time></trkpt><trkpt lat="43.6976367" lon="11.1608283"><ele>235.75</ele><time>2026-04-25T16:10:59.726Z</time></trkpt><trkpt lat="43.69771" lon="11.1609483"><ele>235.5</ele><time>2026-04-25T16:11:00.724Z</time></trkpt><trkpt lat="43.6977533" lon="11.161085"><ele>235.25</ele><time>2026-04-25T16:11:01.724Z</time></trkpt><trkpt lat="43.6978033" lon="11.1612233"><ele>235.0</ele><time>2026-04-25T16:11:02.726Z</time></trkpt><trkpt lat="43.6978583" lon="11.1613683"><ele>234.25</ele><time>2026-04-25T16:11:03.723Z</time></trkpt><trkpt lat="43.6979133" lon="11.1615333"><ele>233.5</ele><time>2026-04-25T16:11:04.726Z</time></trkpt><trkpt lat="43.697975" lon="11.1616867"><ele>232.75</ele><time>2026-04-25T16:11:05.724Z</time></trkpt><trkpt lat="43.6980367" lon="11.16184"><ele>232.0</ele><time>2026-04-25T16:11:06.724Z</time></trkpt><trkpt lat="43.698105" lon="11.1619883"><ele>232.0</ele><time>2026-04-25T16:11:07.724Z</time></trkpt><trkpt lat="43.6981817" lon="11.1621217"><ele>232.0</ele><time>2026-04-25T16:11:08.723Z</time></trkpt><trkpt lat="43.69827" lon="11.1622583"><ele>232.0</ele><time>2026-04-25T16:11:09.724Z</time></trkpt><trkpt lat="43.6983667" lon="11.162375"><ele>232.0</ele><time>2026-04-25T16:11:10.725Z</time></trkpt><trkpt lat="43.6984767" lon="11.1625"><ele>234.25</ele><time>2026-04-25T16:11:11.727Z</time></trkpt><trkpt lat="43.6985967" lon="11.1625883"><ele>236.5</ele><time>2026-04-25T16:11:12.725Z</time></trkpt><trkpt lat="43.6987217" lon="11.1626517"><ele>238.75</ele><time>2026-04-25T16:11:13.724Z</time></trkpt><trkpt lat="43.6988483" lon="11.1627033"><ele>241.0</ele><time>2026-04-25T16:11:14.725Z</time></trkpt><trkpt lat="43.6989783" lon="11.1627333"><ele>241.0</ele><time>2026-04-25T16:11:15.725Z</time></trkpt><trkpt lat="43.6991117" lon="11.162745"><ele>241.0</ele><time>2026-04-25T16:11:16.725Z</time></trkpt><trkpt lat="43.6992467" lon="11.162735"><ele>241.0</ele><time>2026-04-25T16:11:17.724Z</time></trkpt><trkpt lat="43.6993833" lon="11.16272"><ele>241.0</ele><time>2026-04-25T16:11:18.725Z</time></trkpt><trkpt lat="43.6995167" lon="11.1627033"><ele>242.5</ele><time>2026-04-25T16:11:19.724Z</time></trkpt><trkpt lat="43.699655" lon="11.16269"><ele>244.0</ele><time>2026-04-25T16:11:20.726Z</time></trkpt><trkpt lat="43.6997883" lon="11.1626817"><ele>245.5</ele><time>2026-04-25T16:11:21.725Z</time></trkpt><trkpt lat="43.699915" lon="11.16269"><ele>247.0</ele><time>2026-04-25T16:11:22.724Z</time></trkpt><trkpt lat="43.7000367" lon="11.162725"><ele>247.0</ele><time>2026-04-25T16:11:23.724Z</time></trkpt><trkpt lat="43.7001583" lon="11.1627883"><ele>247.0</ele><time>2026-04-25T16:11:24.726Z</time></trkpt><trkpt lat="43.7002833" lon="11.16287"><ele>247.0</ele><time>2026-04-25T16:11:25.724Z</time></trkpt><trkpt lat="43.7004117" lon="11.16295"><ele>247.0</ele><time>2026-04-25T16:11:26.725Z</time></trkpt><trkpt lat="43.70054" lon="11.1630267"><ele>246.6</ele><time>2026-04-25T16:11:27.722Z</time></trkpt><trkpt lat="43.7006567" lon="11.1630867"><ele>246.2</ele><time>2026-04-25T16:11:28.726Z</time></trkpt><trkpt lat="43.7007633" lon="11.1631383"><ele>245.8</ele><time>2026-04-25T16:11:29.725Z</time></trkpt><trkpt lat="43.7008517" lon="11.1631867"><ele>245.4</ele><time>2026-04-25T16:11:30.725Z</time></trkpt><trkpt lat="43.7009283" lon="11.163235"><ele>245.0</ele><time>2026-04-25T16:11:31.726Z</time></trkpt><trkpt lat="43.7010067" lon="11.1633133"><ele>245.0</ele><time>2026-04-25T16:11:33.724Z</time></trkpt><trkpt lat="43.701005" lon="11.1634567"><ele>245.0</ele><time>2026-04-25T16:11:36.725Z</time></trkpt><trkpt lat="43.7009783" lon="11.16359"><ele>245.0</ele><time>2026-04-25T16:11:38.724Z</time></trkpt><trkpt lat="43.700935" lon="11.16371"><ele>245.0</ele><time>2026-04-25T16:11:40.724Z</time></trkpt><trkpt lat="43.700925" lon="11.1638133"><ele>245.0</ele><time>2026-04-25T16:11:42.725Z</time></trkpt><trkpt lat="43.7010317" lon="11.1638017"><ele>245.0</ele><time>2026-04-25T16:11:44.988Z</time></trkpt><trkpt lat="43.7010833" lon="11.163905"><ele>243.0</ele><time>2026-04-25T16:11:47.724Z</time></trkpt><trkpt lat="43.7011433" lon="11.1639483"><ele>243.0</ele><time>2026-04-25T16:11:51.724Z</time></trkpt></trkseg></trk></gpx>